<?xml version="1.0" encoding="UTF-8" standalone="no" ?>
<gpx xmlns="http://www.topografix.com/GPX/1/1" xmlns:xsi="http://www.w3.org/2001/XMLSchema-instance" xsi:schemaLocation="http://www.topografix.com/GPX/1/1 http://www.topografix.com/GPX/1/1/gpx.xsd" version="1.1" creator="VisuGPX - https://www.visugpx.com">
  <metadata>
    <name>Brec d\'Utelle en boucle depuis le Suquet</name>
    <desc><![CDATA[[url]http://www.vttour.fr/topos/brec-d-utelle,2511.html[/url]]]></desc>
  </metadata>
  <trk>
    <name><![CDATA[Track2016/01/17_07:54]]></name>
    <trkseg>
      <trkpt lat="43.94209" lon="7.28289">
        <ele>386.58374</ele>
        <time>2016-01-17T06:54:50.000Z</time>
      </trkpt>
      <trkpt lat="43.9421" lon="7.28287">
        <ele>390.329315</ele>
        <time>2016-01-17T06:54:56.000Z</time>
      </trkpt>
      <trkpt lat="43.9421" lon="7.28284">
        <ele>395.364441</ele>
        <time>2016-01-17T06:55:01.000Z</time>
      </trkpt>
      <trkpt lat="43.94207" lon="7.28284">
        <ele>376.468201</ele>
        <time>2016-01-17T06:55:06.000Z</time>
      </trkpt>
      <trkpt lat="43.94208" lon="7.28286">
        <ele>375.190857</ele>
        <time>2016-01-17T06:55:11.000Z</time>
      </trkpt>
      <trkpt lat="43.94208" lon="7.28287">
        <ele>373.619446</ele>
        <time>2016-01-17T06:55:16.000Z</time>
      </trkpt>
      <trkpt lat="43.94207" lon="7.28287">
        <ele>374.630432</ele>
        <time>2016-01-17T06:55:21.000Z</time>
      </trkpt>
      <trkpt lat="43.94207" lon="7.28288">
        <ele>377.561401</ele>
        <time>2016-01-17T06:55:26.000Z</time>
      </trkpt>
      <trkpt lat="43.94207" lon="7.28288">
        <ele>377.593994</ele>
        <time>2016-01-17T06:55:31.000Z</time>
      </trkpt>
      <trkpt lat="43.94207" lon="7.28288">
        <ele>377.612274</ele>
        <time>2016-01-17T06:55:36.000Z</time>
      </trkpt>
      <trkpt lat="43.94207" lon="7.28288">
        <ele>377.65094</ele>
        <time>2016-01-17T06:55:41.000Z</time>
      </trkpt>
      <trkpt lat="43.94207" lon="7.28288">
        <ele>377.6586</ele>
        <time>2016-01-17T06:55:46.000Z</time>
      </trkpt>
      <trkpt lat="43.94207" lon="7.28288">
        <ele>377.647278</ele>
        <time>2016-01-17T06:55:51.000Z</time>
      </trkpt>
      <trkpt lat="43.94207" lon="7.28288">
        <ele>377.652435</ele>
        <time>2016-01-17T06:55:56.000Z</time>
      </trkpt>
      <trkpt lat="43.94207" lon="7.28288">
        <ele>377.65448</ele>
        <time>2016-01-17T06:56:01.000Z</time>
      </trkpt>
      <trkpt lat="43.94207" lon="7.28288">
        <ele>377.660156</ele>
        <time>2016-01-17T06:56:06.000Z</time>
      </trkpt>
      <trkpt lat="43.94207" lon="7.28287">
        <ele>377.655487</ele>
        <time>2016-01-17T06:56:11.000Z</time>
      </trkpt>
      <trkpt lat="43.94207" lon="7.28287">
        <ele>377.631104</ele>
        <time>2016-01-17T06:56:16.000Z</time>
      </trkpt>
      <trkpt lat="43.94207" lon="7.28287">
        <ele>377.638489</ele>
        <time>2016-01-17T06:56:21.000Z</time>
      </trkpt>
      <trkpt lat="43.94207" lon="7.28288">
        <ele>377.750122</ele>
        <time>2016-01-17T06:56:26.000Z</time>
      </trkpt>
      <trkpt lat="43.94209" lon="7.2829">
        <ele>377.722076</ele>
        <time>2016-01-17T06:56:31.000Z</time>
      </trkpt>
      <trkpt lat="43.9421" lon="7.28291">
        <ele>378.072601</ele>
        <time>2016-01-17T06:56:36.000Z</time>
      </trkpt>
      <trkpt lat="43.94209" lon="7.28291">
        <ele>380.101868</ele>
        <time>2016-01-17T06:56:41.000Z</time>
      </trkpt>
      <trkpt lat="43.9421" lon="7.28291">
        <ele>381.179138</ele>
        <time>2016-01-17T06:56:46.000Z</time>
      </trkpt>
      <trkpt lat="43.9421" lon="7.28291">
        <ele>381.170135</ele>
        <time>2016-01-17T06:56:51.000Z</time>
      </trkpt>
      <trkpt lat="43.9421" lon="7.28292">
        <ele>381.214447</ele>
        <time>2016-01-17T06:56:56.000Z</time>
      </trkpt>
      <trkpt lat="43.9421" lon="7.28292">
        <ele>381.241333</ele>
        <time>2016-01-17T06:57:01.000Z</time>
      </trkpt>
      <trkpt lat="43.9421" lon="7.28292">
        <ele>381.276306</ele>
        <time>2016-01-17T06:57:06.000Z</time>
      </trkpt>
      <trkpt lat="43.9421" lon="7.28292">
        <ele>381.306061</ele>
        <time>2016-01-17T06:57:11.000Z</time>
      </trkpt>
      <trkpt lat="43.9421" lon="7.28292">
        <ele>381.332825</ele>
        <time>2016-01-17T06:57:16.000Z</time>
      </trkpt>
      <trkpt lat="43.9421" lon="7.28292">
        <ele>381.361023</ele>
        <time>2016-01-17T06:57:21.000Z</time>
      </trkpt>
      <trkpt lat="43.9421" lon="7.28292">
        <ele>381.342163</ele>
        <time>2016-01-17T06:57:26.000Z</time>
      </trkpt>
      <trkpt lat="43.9421" lon="7.28292">
        <ele>381.414581</ele>
        <time>2016-01-17T06:57:31.000Z</time>
      </trkpt>
      <trkpt lat="43.9421" lon="7.28292">
        <ele>381.438843</ele>
        <time>2016-01-17T06:57:36.000Z</time>
      </trkpt>
      <trkpt lat="43.9421" lon="7.28292">
        <ele>381.471497</ele>
        <time>2016-01-17T06:57:41.000Z</time>
      </trkpt>
      <trkpt lat="43.9421" lon="7.28292">
        <ele>381.461212</ele>
        <time>2016-01-17T06:57:46.000Z</time>
      </trkpt>
      <trkpt lat="43.94208" lon="7.2829">
        <ele>382.088806</ele>
        <time>2016-01-17T06:57:51.000Z</time>
      </trkpt>
      <trkpt lat="43.94208" lon="7.2829">
        <ele>382.485962</ele>
        <time>2016-01-17T06:57:56.000Z</time>
      </trkpt>
      <trkpt lat="43.94208" lon="7.2829">
        <ele>383.275269</ele>
        <time>2016-01-17T06:58:01.000Z</time>
      </trkpt>
      <trkpt lat="43.94209" lon="7.28291">
        <ele>383.459991</ele>
        <time>2016-01-17T06:58:06.000Z</time>
      </trkpt>
      <trkpt lat="43.94209" lon="7.28291">
        <ele>383.520599</ele>
        <time>2016-01-17T06:58:11.000Z</time>
      </trkpt>
      <trkpt lat="43.94208" lon="7.28291">
        <ele>384.257843</ele>
        <time>2016-01-17T06:58:16.000Z</time>
      </trkpt>
      <trkpt lat="43.94207" lon="7.28286">
        <ele>385.255157</ele>
        <time>2016-01-17T06:58:21.000Z</time>
      </trkpt>
      <trkpt lat="43.94215" lon="7.2828">
        <ele>386.023529</ele>
        <time>2016-01-17T06:58:26.000Z</time>
      </trkpt>
      <trkpt lat="43.94224" lon="7.28281">
        <ele>386.244263</ele>
        <time>2016-01-17T06:58:31.000Z</time>
      </trkpt>
      <trkpt lat="43.9423" lon="7.28283">
        <ele>385.525787</ele>
        <time>2016-01-17T06:58:36.000Z</time>
      </trkpt>
      <trkpt lat="43.94239" lon="7.28286">
        <ele>386.960022</ele>
        <time>2016-01-17T06:58:41.000Z</time>
      </trkpt>
      <trkpt lat="43.9425" lon="7.28281">
        <ele>387.440369</ele>
        <time>2016-01-17T06:58:46.000Z</time>
      </trkpt>
      <trkpt lat="43.94262" lon="7.28278">
        <ele>387.675568</ele>
        <time>2016-01-17T06:58:51.000Z</time>
      </trkpt>
      <trkpt lat="43.94276" lon="7.28277">
        <ele>387.960449</ele>
        <time>2016-01-17T06:58:56.000Z</time>
      </trkpt>
      <trkpt lat="43.9429" lon="7.28279">
        <ele>388.226929</ele>
        <time>2016-01-17T06:59:01.000Z</time>
      </trkpt>
      <trkpt lat="43.94305" lon="7.28282">
        <ele>388.363464</ele>
        <time>2016-01-17T06:59:06.000Z</time>
      </trkpt>
      <trkpt lat="43.94319" lon="7.28286">
        <ele>389.49646</ele>
        <time>2016-01-17T06:59:11.000Z</time>
      </trkpt>
      <trkpt lat="43.94334" lon="7.28289">
        <ele>390.410736</ele>
        <time>2016-01-17T06:59:16.000Z</time>
      </trkpt>
      <trkpt lat="43.94346" lon="7.28279">
        <ele>391.421814</ele>
        <time>2016-01-17T06:59:21.000Z</time>
      </trkpt>
      <trkpt lat="43.94346" lon="7.28262">
        <ele>392.443665</ele>
        <time>2016-01-17T06:59:26.000Z</time>
      </trkpt>
      <trkpt lat="43.94341" lon="7.2825">
        <ele>393.352966</ele>
        <time>2016-01-17T06:59:31.000Z</time>
      </trkpt>
      <trkpt lat="43.94335" lon="7.28241">
        <ele>394.33847</ele>
        <time>2016-01-17T06:59:36.000Z</time>
      </trkpt>
      <trkpt lat="43.9433" lon="7.28229">
        <ele>395.200745</ele>
        <time>2016-01-17T06:59:41.000Z</time>
      </trkpt>
      <trkpt lat="43.94327" lon="7.28216">
        <ele>396.222595</ele>
        <time>2016-01-17T06:59:46.000Z</time>
      </trkpt>
      <trkpt lat="43.94326" lon="7.28201">
        <ele>397.272949</ele>
        <time>2016-01-17T06:59:51.000Z</time>
      </trkpt>
      <trkpt lat="43.94328" lon="7.28188">
        <ele>398.119171</ele>
        <time>2016-01-17T06:59:56.000Z</time>
      </trkpt>
      <trkpt lat="43.94331" lon="7.28175">
        <ele>399.454895</ele>
        <time>2016-01-17T07:00:01.000Z</time>
      </trkpt>
      <trkpt lat="43.94333" lon="7.28161">
        <ele>400.618866</ele>
        <time>2016-01-17T07:00:06.000Z</time>
      </trkpt>
      <trkpt lat="43.94336" lon="7.28146">
        <ele>400.887878</ele>
        <time>2016-01-17T07:00:11.000Z</time>
      </trkpt>
      <trkpt lat="43.94339" lon="7.28131">
        <ele>401.162415</ele>
        <time>2016-01-17T07:00:16.000Z</time>
      </trkpt>
      <trkpt lat="43.9434" lon="7.28116">
        <ele>401.149384</ele>
        <time>2016-01-17T07:00:21.000Z</time>
      </trkpt>
      <trkpt lat="43.94342" lon="7.281">
        <ele>401.676971</ele>
        <time>2016-01-17T07:00:26.000Z</time>
      </trkpt>
      <trkpt lat="43.94342" lon="7.28083">
        <ele>404.352844</ele>
        <time>2016-01-17T07:00:31.000Z</time>
      </trkpt>
      <trkpt lat="43.94345" lon="7.28068">
        <ele>404.841949</ele>
        <time>2016-01-17T07:00:36.000Z</time>
      </trkpt>
      <trkpt lat="43.94347" lon="7.28053">
        <ele>405.890778</ele>
        <time>2016-01-17T07:00:41.000Z</time>
      </trkpt>
      <trkpt lat="43.94349" lon="7.28039">
        <ele>406.333252</ele>
        <time>2016-01-17T07:00:46.000Z</time>
      </trkpt>
      <trkpt lat="43.9435" lon="7.28035">
        <ele>406.58432</ele>
        <time>2016-01-17T07:00:51.000Z</time>
      </trkpt>
      <trkpt lat="43.94349" lon="7.28035">
        <ele>406.651123</ele>
        <time>2016-01-17T07:00:56.000Z</time>
      </trkpt>
      <trkpt lat="43.94349" lon="7.28035">
        <ele>406.751617</ele>
        <time>2016-01-17T07:01:01.000Z</time>
      </trkpt>
      <trkpt lat="43.9435" lon="7.28035">
        <ele>405.548218</ele>
        <time>2016-01-17T07:01:06.000Z</time>
      </trkpt>
      <trkpt lat="43.9435" lon="7.28035">
        <ele>405.473694</ele>
        <time>2016-01-17T07:01:11.000Z</time>
      </trkpt>
      <trkpt lat="43.9435" lon="7.28036">
        <ele>405.368134</ele>
        <time>2016-01-17T07:01:16.000Z</time>
      </trkpt>
      <trkpt lat="43.9435" lon="7.28035">
        <ele>405.277313</ele>
        <time>2016-01-17T07:01:21.000Z</time>
      </trkpt>
      <trkpt lat="43.9435" lon="7.28035">
        <ele>405.437683</ele>
        <time>2016-01-17T07:01:26.000Z</time>
      </trkpt>
      <trkpt lat="43.9435" lon="7.28034">
        <ele>405.369781</ele>
        <time>2016-01-17T07:01:31.000Z</time>
      </trkpt>
      <trkpt lat="43.9435" lon="7.28034">
        <ele>405.332916</ele>
        <time>2016-01-17T07:01:36.000Z</time>
      </trkpt>
      <trkpt lat="43.9435" lon="7.28034">
        <ele>405.273956</ele>
        <time>2016-01-17T07:01:41.000Z</time>
      </trkpt>
      <trkpt lat="43.9435" lon="7.28034">
        <ele>405.214752</ele>
        <time>2016-01-17T07:01:46.000Z</time>
      </trkpt>
      <trkpt lat="43.9435" lon="7.28034">
        <ele>405.213745</ele>
        <time>2016-01-17T07:01:51.000Z</time>
      </trkpt>
      <trkpt lat="43.9435" lon="7.28034">
        <ele>405.212341</ele>
        <time>2016-01-17T07:01:56.000Z</time>
      </trkpt>
      <trkpt lat="43.9435" lon="7.28034">
        <ele>405.213562</ele>
        <time>2016-01-17T07:02:01.000Z</time>
      </trkpt>
      <trkpt lat="43.9435" lon="7.28034">
        <ele>405.220795</ele>
        <time>2016-01-17T07:02:06.000Z</time>
      </trkpt>
      <trkpt lat="43.9435" lon="7.28034">
        <ele>405.221863</ele>
        <time>2016-01-17T07:02:11.000Z</time>
      </trkpt>
      <trkpt lat="43.9435" lon="7.28036">
        <ele>405.238983</ele>
        <time>2016-01-17T07:02:16.000Z</time>
      </trkpt>
      <trkpt lat="43.9435" lon="7.28036">
        <ele>405.19873</ele>
        <time>2016-01-17T07:02:21.000Z</time>
      </trkpt>
      <trkpt lat="43.9435" lon="7.28036">
        <ele>405.205994</ele>
        <time>2016-01-17T07:02:26.000Z</time>
      </trkpt>
      <trkpt lat="43.9435" lon="7.28036">
        <ele>405.210754</ele>
        <time>2016-01-17T07:02:31.000Z</time>
      </trkpt>
      <trkpt lat="43.9435" lon="7.28036">
        <ele>405.21405</ele>
        <time>2016-01-17T07:02:36.000Z</time>
      </trkpt>
      <trkpt lat="43.9435" lon="7.28036">
        <ele>405.214294</ele>
        <time>2016-01-17T07:02:41.000Z</time>
      </trkpt>
      <trkpt lat="43.9435" lon="7.28036">
        <ele>405.21344</ele>
        <time>2016-01-17T07:02:46.000Z</time>
      </trkpt>
      <trkpt lat="43.9435" lon="7.28036">
        <ele>405.214142</ele>
        <time>2016-01-17T07:02:51.000Z</time>
      </trkpt>
      <trkpt lat="43.9435" lon="7.28036">
        <ele>405.218445</ele>
        <time>2016-01-17T07:02:56.000Z</time>
      </trkpt>
      <trkpt lat="43.9435" lon="7.28036">
        <ele>405.222961</ele>
        <time>2016-01-17T07:03:01.000Z</time>
      </trkpt>
      <trkpt lat="43.9435" lon="7.28035">
        <ele>405.68811</ele>
        <time>2016-01-17T07:03:06.000Z</time>
      </trkpt>
      <trkpt lat="43.9435" lon="7.28035">
        <ele>405.94278</ele>
        <time>2016-01-17T07:03:11.000Z</time>
      </trkpt>
      <trkpt lat="43.94353" lon="7.28026">
        <ele>406.07901</ele>
        <time>2016-01-17T07:03:16.000Z</time>
      </trkpt>
      <trkpt lat="43.94358" lon="7.28011">
        <ele>406.537201</ele>
        <time>2016-01-17T07:03:21.000Z</time>
      </trkpt>
      <trkpt lat="43.94364" lon="7.27998">
        <ele>407.419037</ele>
        <time>2016-01-17T07:03:26.000Z</time>
      </trkpt>
      <trkpt lat="43.94369" lon="7.27984">
        <ele>408.039642</ele>
        <time>2016-01-17T07:03:31.000Z</time>
      </trkpt>
      <trkpt lat="43.94375" lon="7.27971">
        <ele>409.793549</ele>
        <time>2016-01-17T07:03:36.000Z</time>
      </trkpt>
      <trkpt lat="43.94382" lon="7.27959">
        <ele>410.804108</ele>
        <time>2016-01-17T07:03:41.000Z</time>
      </trkpt>
      <trkpt lat="43.94388" lon="7.27948">
        <ele>411.765594</ele>
        <time>2016-01-17T07:03:46.000Z</time>
      </trkpt>
      <trkpt lat="43.94396" lon="7.27937">
        <ele>412.846954</ele>
        <time>2016-01-17T07:03:51.000Z</time>
      </trkpt>
      <trkpt lat="43.94403" lon="7.27926">
        <ele>414.167114</ele>
        <time>2016-01-17T07:03:56.000Z</time>
      </trkpt>
      <trkpt lat="43.94412" lon="7.27916">
        <ele>414.963104</ele>
        <time>2016-01-17T07:04:01.000Z</time>
      </trkpt>
      <trkpt lat="43.9442" lon="7.27904">
        <ele>415.38681</ele>
        <time>2016-01-17T07:04:06.000Z</time>
      </trkpt>
      <trkpt lat="43.94429" lon="7.2789">
        <ele>416.061432</ele>
        <time>2016-01-17T07:04:11.000Z</time>
      </trkpt>
      <trkpt lat="43.94436" lon="7.27875">
        <ele>417.161926</ele>
        <time>2016-01-17T07:04:16.000Z</time>
      </trkpt>
      <trkpt lat="43.94441" lon="7.27859">
        <ele>418.473419</ele>
        <time>2016-01-17T07:04:21.000Z</time>
      </trkpt>
      <trkpt lat="43.94447" lon="7.27845">
        <ele>419.445038</ele>
        <time>2016-01-17T07:04:26.000Z</time>
      </trkpt>
      <trkpt lat="43.94453" lon="7.27834">
        <ele>419.90271</ele>
        <time>2016-01-17T07:04:31.000Z</time>
      </trkpt>
      <trkpt lat="43.94461" lon="7.27822">
        <ele>420.224121</ele>
        <time>2016-01-17T07:04:36.000Z</time>
      </trkpt>
      <trkpt lat="43.94469" lon="7.27811">
        <ele>421.016113</ele>
        <time>2016-01-17T07:04:41.000Z</time>
      </trkpt>
      <trkpt lat="43.94476" lon="7.27798">
        <ele>421.759949</ele>
        <time>2016-01-17T07:04:46.000Z</time>
      </trkpt>
      <trkpt lat="43.94483" lon="7.27785">
        <ele>422.388489</ele>
        <time>2016-01-17T07:04:51.000Z</time>
      </trkpt>
      <trkpt lat="43.94491" lon="7.27772">
        <ele>422.750305</ele>
        <time>2016-01-17T07:04:56.000Z</time>
      </trkpt>
      <trkpt lat="43.94499" lon="7.27759">
        <ele>423.682007</ele>
        <time>2016-01-17T07:05:01.000Z</time>
      </trkpt>
      <trkpt lat="43.94506" lon="7.27746">
        <ele>424.550507</ele>
        <time>2016-01-17T07:05:06.000Z</time>
      </trkpt>
      <trkpt lat="43.94512" lon="7.27733">
        <ele>425.593445</ele>
        <time>2016-01-17T07:05:11.000Z</time>
      </trkpt>
      <trkpt lat="43.9452" lon="7.27721">
        <ele>426.441742</ele>
        <time>2016-01-17T07:05:16.000Z</time>
      </trkpt>
      <trkpt lat="43.94529" lon="7.27712">
        <ele>427.251648</ele>
        <time>2016-01-17T07:05:21.000Z</time>
      </trkpt>
      <trkpt lat="43.94539" lon="7.27704">
        <ele>428.002289</ele>
        <time>2016-01-17T07:05:26.000Z</time>
      </trkpt>
      <trkpt lat="43.94549" lon="7.27696">
        <ele>428.590393</ele>
        <time>2016-01-17T07:05:31.000Z</time>
      </trkpt>
      <trkpt lat="43.9456" lon="7.27687">
        <ele>429.482971</ele>
        <time>2016-01-17T07:05:36.000Z</time>
      </trkpt>
      <trkpt lat="43.94571" lon="7.27677">
        <ele>430.487427</ele>
        <time>2016-01-17T07:05:41.000Z</time>
      </trkpt>
      <trkpt lat="43.94581" lon="7.27667">
        <ele>431.936432</ele>
        <time>2016-01-17T07:05:46.000Z</time>
      </trkpt>
      <trkpt lat="43.9459" lon="7.27655">
        <ele>433.36377</ele>
        <time>2016-01-17T07:05:51.000Z</time>
      </trkpt>
      <trkpt lat="43.946" lon="7.27644">
        <ele>434.366211</ele>
        <time>2016-01-17T07:05:56.000Z</time>
      </trkpt>
      <trkpt lat="43.9461" lon="7.27633">
        <ele>435.706604</ele>
        <time>2016-01-17T07:06:01.000Z</time>
      </trkpt>
      <trkpt lat="43.94621" lon="7.27622">
        <ele>436.539642</ele>
        <time>2016-01-17T07:06:06.000Z</time>
      </trkpt>
      <trkpt lat="43.94629" lon="7.27609">
        <ele>437.539673</ele>
        <time>2016-01-17T07:06:11.000Z</time>
      </trkpt>
      <trkpt lat="43.94637" lon="7.27595">
        <ele>438.660278</ele>
        <time>2016-01-17T07:06:16.000Z</time>
      </trkpt>
      <trkpt lat="43.94644" lon="7.27582">
        <ele>439.466522</ele>
        <time>2016-01-17T07:06:21.000Z</time>
      </trkpt>
      <trkpt lat="43.94652" lon="7.27567">
        <ele>440.657196</ele>
        <time>2016-01-17T07:06:26.000Z</time>
      </trkpt>
      <trkpt lat="43.94661" lon="7.27554">
        <ele>440.986145</ele>
        <time>2016-01-17T07:06:31.000Z</time>
      </trkpt>
      <trkpt lat="43.94667" lon="7.2754">
        <ele>441.975677</ele>
        <time>2016-01-17T07:06:36.000Z</time>
      </trkpt>
      <trkpt lat="43.94671" lon="7.27526">
        <ele>442.742859</ele>
        <time>2016-01-17T07:06:41.000Z</time>
      </trkpt>
      <trkpt lat="43.94673" lon="7.27511">
        <ele>443.147614</ele>
        <time>2016-01-17T07:06:46.000Z</time>
      </trkpt>
      <trkpt lat="43.94674" lon="7.27496">
        <ele>444.090485</ele>
        <time>2016-01-17T07:06:51.000Z</time>
      </trkpt>
      <trkpt lat="43.94674" lon="7.27479">
        <ele>444.549927</ele>
        <time>2016-01-17T07:06:56.000Z</time>
      </trkpt>
      <trkpt lat="43.9467" lon="7.27463">
        <ele>445.160675</ele>
        <time>2016-01-17T07:07:01.000Z</time>
      </trkpt>
      <trkpt lat="43.94665" lon="7.27449">
        <ele>445.488617</ele>
        <time>2016-01-17T07:07:06.000Z</time>
      </trkpt>
      <trkpt lat="43.94659" lon="7.27435">
        <ele>445.838898</ele>
        <time>2016-01-17T07:07:11.000Z</time>
      </trkpt>
      <trkpt lat="43.9466" lon="7.2742">
        <ele>446.501099</ele>
        <time>2016-01-17T07:07:16.000Z</time>
      </trkpt>
      <trkpt lat="43.94671" lon="7.27414">
        <ele>447.418884</ele>
        <time>2016-01-17T07:07:21.000Z</time>
      </trkpt>
      <trkpt lat="43.94683" lon="7.27412">
        <ele>448.421692</ele>
        <time>2016-01-17T07:07:26.000Z</time>
      </trkpt>
      <trkpt lat="43.94695" lon="7.27415">
        <ele>449.051422</ele>
        <time>2016-01-17T07:07:31.000Z</time>
      </trkpt>
      <trkpt lat="43.94705" lon="7.27422">
        <ele>449.782104</ele>
        <time>2016-01-17T07:07:36.000Z</time>
      </trkpt>
      <trkpt lat="43.94712" lon="7.27434">
        <ele>450.693481</ele>
        <time>2016-01-17T07:07:41.000Z</time>
      </trkpt>
      <trkpt lat="43.94715" lon="7.27447">
        <ele>452.374725</ele>
        <time>2016-01-17T07:07:46.000Z</time>
      </trkpt>
      <trkpt lat="43.94715" lon="7.27461">
        <ele>453.864594</ele>
        <time>2016-01-17T07:07:51.000Z</time>
      </trkpt>
      <trkpt lat="43.94715" lon="7.27475">
        <ele>454.801605</ele>
        <time>2016-01-17T07:07:56.000Z</time>
      </trkpt>
      <trkpt lat="43.94712" lon="7.27489">
        <ele>456.17395</ele>
        <time>2016-01-17T07:08:01.000Z</time>
      </trkpt>
      <trkpt lat="43.94708" lon="7.27504">
        <ele>457.122711</ele>
        <time>2016-01-17T07:08:06.000Z</time>
      </trkpt>
      <trkpt lat="43.94704" lon="7.27518">
        <ele>457.844849</ele>
        <time>2016-01-17T07:08:11.000Z</time>
      </trkpt>
      <trkpt lat="43.94699" lon="7.27532">
        <ele>458.531372</ele>
        <time>2016-01-17T07:08:16.000Z</time>
      </trkpt>
      <trkpt lat="43.94694" lon="7.27545">
        <ele>459.580475</ele>
        <time>2016-01-17T07:08:21.000Z</time>
      </trkpt>
      <trkpt lat="43.94686" lon="7.27557">
        <ele>460.383423</ele>
        <time>2016-01-17T07:08:26.000Z</time>
      </trkpt>
      <trkpt lat="43.9468" lon="7.27569">
        <ele>461.354858</ele>
        <time>2016-01-17T07:08:31.000Z</time>
      </trkpt>
      <trkpt lat="43.94675" lon="7.27581">
        <ele>462.374786</ele>
        <time>2016-01-17T07:08:36.000Z</time>
      </trkpt>
      <trkpt lat="43.9467" lon="7.27593">
        <ele>463.140015</ele>
        <time>2016-01-17T07:08:41.000Z</time>
      </trkpt>
      <trkpt lat="43.94666" lon="7.27605">
        <ele>463.648926</ele>
        <time>2016-01-17T07:08:46.000Z</time>
      </trkpt>
      <trkpt lat="43.94662" lon="7.27617">
        <ele>464.030273</ele>
        <time>2016-01-17T07:08:51.000Z</time>
      </trkpt>
      <trkpt lat="43.94658" lon="7.27629">
        <ele>464.535217</ele>
        <time>2016-01-17T07:08:56.000Z</time>
      </trkpt>
      <trkpt lat="43.94653" lon="7.2764">
        <ele>465.480652</ele>
        <time>2016-01-17T07:09:01.000Z</time>
      </trkpt>
      <trkpt lat="43.94649" lon="7.27651">
        <ele>466.471283</ele>
        <time>2016-01-17T07:09:06.000Z</time>
      </trkpt>
      <trkpt lat="43.94644" lon="7.27663">
        <ele>467.165833</ele>
        <time>2016-01-17T07:09:11.000Z</time>
      </trkpt>
      <trkpt lat="43.9464" lon="7.27674">
        <ele>468.084076</ele>
        <time>2016-01-17T07:09:16.000Z</time>
      </trkpt>
      <trkpt lat="43.94634" lon="7.27685">
        <ele>469.694366</ele>
        <time>2016-01-17T07:09:21.000Z</time>
      </trkpt>
      <trkpt lat="43.94629" lon="7.27696">
        <ele>470.507019</ele>
        <time>2016-01-17T07:09:26.000Z</time>
      </trkpt>
      <trkpt lat="43.94624" lon="7.27705">
        <ele>468.871918</ele>
        <time>2016-01-17T07:09:31.000Z</time>
      </trkpt>
      <trkpt lat="43.94617" lon="7.27715">
        <ele>468.570679</ele>
        <time>2016-01-17T07:09:36.000Z</time>
      </trkpt>
      <trkpt lat="43.94609" lon="7.27722">
        <ele>468.906036</ele>
        <time>2016-01-17T07:09:41.000Z</time>
      </trkpt>
      <trkpt lat="43.94601" lon="7.27728">
        <ele>469.346222</ele>
        <time>2016-01-17T07:09:46.000Z</time>
      </trkpt>
      <trkpt lat="43.94593" lon="7.27736">
        <ele>470.022064</ele>
        <time>2016-01-17T07:09:51.000Z</time>
      </trkpt>
      <trkpt lat="43.94586" lon="7.27743">
        <ele>470.90683</ele>
        <time>2016-01-17T07:09:56.000Z</time>
      </trkpt>
      <trkpt lat="43.94578" lon="7.27751">
        <ele>471.749481</ele>
        <time>2016-01-17T07:10:01.000Z</time>
      </trkpt>
      <trkpt lat="43.94571" lon="7.2776">
        <ele>472.214722</ele>
        <time>2016-01-17T07:10:06.000Z</time>
      </trkpt>
      <trkpt lat="43.94563" lon="7.27769">
        <ele>472.915466</ele>
        <time>2016-01-17T07:10:11.000Z</time>
      </trkpt>
      <trkpt lat="43.94557" lon="7.27779">
        <ele>473.111755</ele>
        <time>2016-01-17T07:10:16.000Z</time>
      </trkpt>
      <trkpt lat="43.94551" lon="7.27791">
        <ele>472.82193</ele>
        <time>2016-01-17T07:10:21.000Z</time>
      </trkpt>
      <trkpt lat="43.94548" lon="7.27804">
        <ele>473.623901</ele>
        <time>2016-01-17T07:10:26.000Z</time>
      </trkpt>
      <trkpt lat="43.94546" lon="7.27818">
        <ele>474.536591</ele>
        <time>2016-01-17T07:10:31.000Z</time>
      </trkpt>
      <trkpt lat="43.94544" lon="7.27831">
        <ele>475.161926</ele>
        <time>2016-01-17T07:10:36.000Z</time>
      </trkpt>
      <trkpt lat="43.94541" lon="7.27844">
        <ele>475.846466</ele>
        <time>2016-01-17T07:10:41.000Z</time>
      </trkpt>
      <trkpt lat="43.94536" lon="7.27856">
        <ele>476.230042</ele>
        <time>2016-01-17T07:10:46.000Z</time>
      </trkpt>
      <trkpt lat="43.9453" lon="7.27867">
        <ele>477.604736</ele>
        <time>2016-01-17T07:10:51.000Z</time>
      </trkpt>
      <trkpt lat="43.94526" lon="7.27879">
        <ele>479.434723</ele>
        <time>2016-01-17T07:10:56.000Z</time>
      </trkpt>
      <trkpt lat="43.94522" lon="7.27892">
        <ele>479.369141</ele>
        <time>2016-01-17T07:11:01.000Z</time>
      </trkpt>
      <trkpt lat="43.94519" lon="7.27905">
        <ele>479.904907</ele>
        <time>2016-01-17T07:11:06.000Z</time>
      </trkpt>
      <trkpt lat="43.94516" lon="7.27918">
        <ele>480.792999</ele>
        <time>2016-01-17T07:11:11.000Z</time>
      </trkpt>
      <trkpt lat="43.94514" lon="7.27932">
        <ele>482.092865</ele>
        <time>2016-01-17T07:11:16.000Z</time>
      </trkpt>
      <trkpt lat="43.94512" lon="7.27944">
        <ele>482.567596</ele>
        <time>2016-01-17T07:11:21.000Z</time>
      </trkpt>
      <trkpt lat="43.94509" lon="7.27957">
        <ele>483.681519</ele>
        <time>2016-01-17T07:11:26.000Z</time>
      </trkpt>
      <trkpt lat="43.94506" lon="7.2797">
        <ele>484.32077</ele>
        <time>2016-01-17T07:11:31.000Z</time>
      </trkpt>
      <trkpt lat="43.94504" lon="7.27984">
        <ele>485.24057</ele>
        <time>2016-01-17T07:11:36.000Z</time>
      </trkpt>
      <trkpt lat="43.94501" lon="7.27997">
        <ele>486.15741</ele>
        <time>2016-01-17T07:11:41.000Z</time>
      </trkpt>
      <trkpt lat="43.94498" lon="7.2801">
        <ele>487.226593</ele>
        <time>2016-01-17T07:11:46.000Z</time>
      </trkpt>
      <trkpt lat="43.94497" lon="7.28025">
        <ele>488.56604</ele>
        <time>2016-01-17T07:11:51.000Z</time>
      </trkpt>
      <trkpt lat="43.94496" lon="7.28039">
        <ele>489.657745</ele>
        <time>2016-01-17T07:11:56.000Z</time>
      </trkpt>
      <trkpt lat="43.94498" lon="7.28053">
        <ele>490.168671</ele>
        <time>2016-01-17T07:12:01.000Z</time>
      </trkpt>
      <trkpt lat="43.94504" lon="7.28065">
        <ele>489.951782</ele>
        <time>2016-01-17T07:12:06.000Z</time>
      </trkpt>
      <trkpt lat="43.9451" lon="7.28075">
        <ele>490.352081</ele>
        <time>2016-01-17T07:12:11.000Z</time>
      </trkpt>
      <trkpt lat="43.94518" lon="7.28084">
        <ele>491.287872</ele>
        <time>2016-01-17T07:12:16.000Z</time>
      </trkpt>
      <trkpt lat="43.94526" lon="7.28093">
        <ele>493.024048</ele>
        <time>2016-01-17T07:12:21.000Z</time>
      </trkpt>
      <trkpt lat="43.94533" lon="7.28102">
        <ele>495.402832</ele>
        <time>2016-01-17T07:12:26.000Z</time>
      </trkpt>
      <trkpt lat="43.94542" lon="7.2811">
        <ele>495.407837</ele>
        <time>2016-01-17T07:12:31.000Z</time>
      </trkpt>
      <trkpt lat="43.94551" lon="7.28119">
        <ele>495.848724</ele>
        <time>2016-01-17T07:12:36.000Z</time>
      </trkpt>
      <trkpt lat="43.9456" lon="7.28125">
        <ele>496.307709</ele>
        <time>2016-01-17T07:12:41.000Z</time>
      </trkpt>
      <trkpt lat="43.94569" lon="7.28131">
        <ele>496.950256</ele>
        <time>2016-01-17T07:12:46.000Z</time>
      </trkpt>
      <trkpt lat="43.94578" lon="7.28137">
        <ele>497.417145</ele>
        <time>2016-01-17T07:12:51.000Z</time>
      </trkpt>
      <trkpt lat="43.94588" lon="7.28141">
        <ele>499.299744</ele>
        <time>2016-01-17T07:12:56.000Z</time>
      </trkpt>
      <trkpt lat="43.94598" lon="7.28139">
        <ele>498.685242</ele>
        <time>2016-01-17T07:13:01.000Z</time>
      </trkpt>
      <trkpt lat="43.94608" lon="7.28134">
        <ele>499.392242</ele>
        <time>2016-01-17T07:13:06.000Z</time>
      </trkpt>
      <trkpt lat="43.94616" lon="7.28126">
        <ele>499.701416</ele>
        <time>2016-01-17T07:13:11.000Z</time>
      </trkpt>
      <trkpt lat="43.94624" lon="7.28117">
        <ele>501.84549</ele>
        <time>2016-01-17T07:13:16.000Z</time>
      </trkpt>
      <trkpt lat="43.94632" lon="7.28108">
        <ele>502.935089</ele>
        <time>2016-01-17T07:13:21.000Z</time>
      </trkpt>
      <trkpt lat="43.9464" lon="7.281">
        <ele>504.668823</ele>
        <time>2016-01-17T07:13:26.000Z</time>
      </trkpt>
      <trkpt lat="43.94648" lon="7.28091">
        <ele>505.644745</ele>
        <time>2016-01-17T07:13:31.000Z</time>
      </trkpt>
      <trkpt lat="43.94655" lon="7.28083">
        <ele>507.88266</ele>
        <time>2016-01-17T07:13:36.000Z</time>
      </trkpt>
      <trkpt lat="43.94664" lon="7.28075">
        <ele>507.869019</ele>
        <time>2016-01-17T07:13:41.000Z</time>
      </trkpt>
      <trkpt lat="43.94672" lon="7.28067">
        <ele>508.561584</ele>
        <time>2016-01-17T07:13:46.000Z</time>
      </trkpt>
      <trkpt lat="43.9468" lon="7.28058">
        <ele>509.218079</ele>
        <time>2016-01-17T07:13:51.000Z</time>
      </trkpt>
      <trkpt lat="43.94689" lon="7.2805">
        <ele>509.627472</ele>
        <time>2016-01-17T07:13:56.000Z</time>
      </trkpt>
      <trkpt lat="43.94699" lon="7.28043">
        <ele>509.164368</ele>
        <time>2016-01-17T07:14:01.000Z</time>
      </trkpt>
      <trkpt lat="43.94709" lon="7.28039">
        <ele>508.415741</ele>
        <time>2016-01-17T07:14:06.000Z</time>
      </trkpt>
      <trkpt lat="43.94719" lon="7.28038">
        <ele>510.421936</ele>
        <time>2016-01-17T07:14:11.000Z</time>
      </trkpt>
      <trkpt lat="43.94729" lon="7.28035">
        <ele>510.503937</ele>
        <time>2016-01-17T07:14:16.000Z</time>
      </trkpt>
      <trkpt lat="43.94739" lon="7.28034">
        <ele>512.261536</ele>
        <time>2016-01-17T07:14:21.000Z</time>
      </trkpt>
      <trkpt lat="43.94748" lon="7.28031">
        <ele>512.450195</ele>
        <time>2016-01-17T07:14:26.000Z</time>
      </trkpt>
      <trkpt lat="43.94749" lon="7.28032">
        <ele>512.203918</ele>
        <time>2016-01-17T07:14:31.000Z</time>
      </trkpt>
      <trkpt lat="43.94749" lon="7.28032">
        <ele>512.256958</ele>
        <time>2016-01-17T07:14:36.000Z</time>
      </trkpt>
      <trkpt lat="43.94749" lon="7.28033">
        <ele>512.015259</ele>
        <time>2016-01-17T07:14:41.000Z</time>
      </trkpt>
      <trkpt lat="43.94749" lon="7.28033">
        <ele>511.983429</ele>
        <time>2016-01-17T07:14:46.000Z</time>
      </trkpt>
      <trkpt lat="43.94748" lon="7.28032">
        <ele>512.126343</ele>
        <time>2016-01-17T07:14:51.000Z</time>
      </trkpt>
      <trkpt lat="43.94748" lon="7.28032">
        <ele>512.143372</ele>
        <time>2016-01-17T07:14:56.000Z</time>
      </trkpt>
      <trkpt lat="43.94748" lon="7.28032">
        <ele>512.146484</ele>
        <time>2016-01-17T07:15:01.000Z</time>
      </trkpt>
      <trkpt lat="43.94748" lon="7.28032">
        <ele>512.122375</ele>
        <time>2016-01-17T07:15:06.000Z</time>
      </trkpt>
      <trkpt lat="43.94749" lon="7.28032">
        <ele>511.608826</ele>
        <time>2016-01-17T07:15:11.000Z</time>
      </trkpt>
      <trkpt lat="43.94749" lon="7.28032">
        <ele>511.317505</ele>
        <time>2016-01-17T07:15:16.000Z</time>
      </trkpt>
      <trkpt lat="43.94749" lon="7.28032">
        <ele>511.266998</ele>
        <time>2016-01-17T07:15:21.000Z</time>
      </trkpt>
      <trkpt lat="43.94749" lon="7.28032">
        <ele>511.265717</ele>
        <time>2016-01-17T07:15:26.000Z</time>
      </trkpt>
      <trkpt lat="43.94749" lon="7.28032">
        <ele>511.267456</ele>
        <time>2016-01-17T07:15:31.000Z</time>
      </trkpt>
      <trkpt lat="43.94749" lon="7.28032">
        <ele>511.258759</ele>
        <time>2016-01-17T07:15:36.000Z</time>
      </trkpt>
      <trkpt lat="43.94749" lon="7.28032">
        <ele>511.223602</ele>
        <time>2016-01-17T07:15:41.000Z</time>
      </trkpt>
      <trkpt lat="43.9475" lon="7.28032">
        <ele>511.171265</ele>
        <time>2016-01-17T07:15:46.000Z</time>
      </trkpt>
      <trkpt lat="43.9475" lon="7.28032">
        <ele>511.15686</ele>
        <time>2016-01-17T07:15:51.000Z</time>
      </trkpt>
      <trkpt lat="43.94749" lon="7.28033">
        <ele>511.223785</ele>
        <time>2016-01-17T07:15:56.000Z</time>
      </trkpt>
      <trkpt lat="43.94751" lon="7.28029">
        <ele>511.15271</ele>
        <time>2016-01-17T07:16:01.000Z</time>
      </trkpt>
      <trkpt lat="43.94752" lon="7.2803">
        <ele>510.815704</ele>
        <time>2016-01-17T07:16:06.000Z</time>
      </trkpt>
      <trkpt lat="43.9476" lon="7.28033">
        <ele>512.0354</ele>
        <time>2016-01-17T07:16:11.000Z</time>
      </trkpt>
      <trkpt lat="43.94767" lon="7.28043">
        <ele>513.007751</ele>
        <time>2016-01-17T07:16:16.000Z</time>
      </trkpt>
      <trkpt lat="43.94772" lon="7.28056">
        <ele>513.664429</ele>
        <time>2016-01-17T07:16:21.000Z</time>
      </trkpt>
      <trkpt lat="43.94774" lon="7.2807">
        <ele>514.568848</ele>
        <time>2016-01-17T07:16:26.000Z</time>
      </trkpt>
      <trkpt lat="43.94776" lon="7.28084">
        <ele>516.125427</ele>
        <time>2016-01-17T07:16:31.000Z</time>
      </trkpt>
      <trkpt lat="43.94778" lon="7.28098">
        <ele>516.794739</ele>
        <time>2016-01-17T07:16:36.000Z</time>
      </trkpt>
      <trkpt lat="43.9478" lon="7.28111">
        <ele>517.568604</ele>
        <time>2016-01-17T07:16:41.000Z</time>
      </trkpt>
      <trkpt lat="43.94783" lon="7.28126">
        <ele>518.529785</ele>
        <time>2016-01-17T07:16:46.000Z</time>
      </trkpt>
      <trkpt lat="43.94786" lon="7.28139">
        <ele>519.27533</ele>
        <time>2016-01-17T07:16:51.000Z</time>
      </trkpt>
      <trkpt lat="43.94789" lon="7.28153">
        <ele>520.499878</ele>
        <time>2016-01-17T07:16:56.000Z</time>
      </trkpt>
      <trkpt lat="43.94793" lon="7.28165">
        <ele>520.125122</ele>
        <time>2016-01-17T07:17:01.000Z</time>
      </trkpt>
      <trkpt lat="43.94797" lon="7.28177">
        <ele>520.565125</ele>
        <time>2016-01-17T07:17:06.000Z</time>
      </trkpt>
      <trkpt lat="43.94801" lon="7.28191">
        <ele>521.591064</ele>
        <time>2016-01-17T07:17:11.000Z</time>
      </trkpt>
      <trkpt lat="43.94807" lon="7.28202">
        <ele>522.550781</ele>
        <time>2016-01-17T07:17:16.000Z</time>
      </trkpt>
      <trkpt lat="43.94814" lon="7.28212">
        <ele>523.680847</ele>
        <time>2016-01-17T07:17:21.000Z</time>
      </trkpt>
      <trkpt lat="43.94822" lon="7.28222">
        <ele>524.884094</ele>
        <time>2016-01-17T07:17:26.000Z</time>
      </trkpt>
      <trkpt lat="43.94829" lon="7.28232">
        <ele>526.794617</ele>
        <time>2016-01-17T07:17:31.000Z</time>
      </trkpt>
      <trkpt lat="43.94839" lon="7.28239">
        <ele>527.917419</ele>
        <time>2016-01-17T07:17:36.000Z</time>
      </trkpt>
      <trkpt lat="43.94847" lon="7.28246">
        <ele>529.159424</ele>
        <time>2016-01-17T07:17:41.000Z</time>
      </trkpt>
      <trkpt lat="43.94855" lon="7.28256">
        <ele>530.266724</ele>
        <time>2016-01-17T07:17:46.000Z</time>
      </trkpt>
      <trkpt lat="43.94861" lon="7.28267">
        <ele>531.15979</ele>
        <time>2016-01-17T07:17:51.000Z</time>
      </trkpt>
      <trkpt lat="43.94867" lon="7.28281">
        <ele>532.546936</ele>
        <time>2016-01-17T07:17:56.000Z</time>
      </trkpt>
      <trkpt lat="43.94872" lon="7.28294">
        <ele>532.452393</ele>
        <time>2016-01-17T07:18:01.000Z</time>
      </trkpt>
      <trkpt lat="43.94879" lon="7.28304">
        <ele>532.747131</ele>
        <time>2016-01-17T07:18:06.000Z</time>
      </trkpt>
      <trkpt lat="43.94888" lon="7.28304">
        <ele>534.348938</ele>
        <time>2016-01-17T07:18:11.000Z</time>
      </trkpt>
      <trkpt lat="43.94887" lon="7.28289">
        <ele>534.867126</ele>
        <time>2016-01-17T07:18:16.000Z</time>
      </trkpt>
      <trkpt lat="43.94881" lon="7.28275">
        <ele>536.001343</ele>
        <time>2016-01-17T07:18:21.000Z</time>
      </trkpt>
      <trkpt lat="43.94874" lon="7.28262">
        <ele>536.746582</ele>
        <time>2016-01-17T07:18:26.000Z</time>
      </trkpt>
      <trkpt lat="43.94867" lon="7.28247">
        <ele>537.685608</ele>
        <time>2016-01-17T07:18:31.000Z</time>
      </trkpt>
      <trkpt lat="43.9486" lon="7.28234">
        <ele>539.163635</ele>
        <time>2016-01-17T07:18:36.000Z</time>
      </trkpt>
      <trkpt lat="43.94854" lon="7.28221">
        <ele>539.920776</ele>
        <time>2016-01-17T07:18:41.000Z</time>
      </trkpt>
      <trkpt lat="43.94847" lon="7.28208">
        <ele>540.081665</ele>
        <time>2016-01-17T07:18:46.000Z</time>
      </trkpt>
      <trkpt lat="43.94842" lon="7.28193">
        <ele>540.608215</ele>
        <time>2016-01-17T07:18:51.000Z</time>
      </trkpt>
      <trkpt lat="43.94839" lon="7.28177">
        <ele>540.788269</ele>
        <time>2016-01-17T07:18:56.000Z</time>
      </trkpt>
      <trkpt lat="43.94839" lon="7.28161">
        <ele>541.641357</ele>
        <time>2016-01-17T07:19:01.000Z</time>
      </trkpt>
      <trkpt lat="43.94839" lon="7.28146">
        <ele>542.150635</ele>
        <time>2016-01-17T07:19:06.000Z</time>
      </trkpt>
      <trkpt lat="43.94838" lon="7.28131">
        <ele>542.610657</ele>
        <time>2016-01-17T07:19:11.000Z</time>
      </trkpt>
      <trkpt lat="43.94837" lon="7.28115">
        <ele>543.942261</ele>
        <time>2016-01-17T07:19:16.000Z</time>
      </trkpt>
      <trkpt lat="43.94837" lon="7.28099">
        <ele>544.240845</ele>
        <time>2016-01-17T07:19:21.000Z</time>
      </trkpt>
      <trkpt lat="43.94837" lon="7.28083">
        <ele>545.753906</ele>
        <time>2016-01-17T07:19:26.000Z</time>
      </trkpt>
      <trkpt lat="43.94838" lon="7.28069">
        <ele>546.114441</ele>
        <time>2016-01-17T07:19:31.000Z</time>
      </trkpt>
      <trkpt lat="43.9484" lon="7.28055">
        <ele>546.058167</ele>
        <time>2016-01-17T07:19:36.000Z</time>
      </trkpt>
      <trkpt lat="43.94843" lon="7.28041">
        <ele>546.435181</ele>
        <time>2016-01-17T07:19:41.000Z</time>
      </trkpt>
      <trkpt lat="43.94848" lon="7.2803">
        <ele>546.37323</ele>
        <time>2016-01-17T07:19:46.000Z</time>
      </trkpt>
      <trkpt lat="43.94853" lon="7.28018">
        <ele>546.438354</ele>
        <time>2016-01-17T07:19:51.000Z</time>
      </trkpt>
      <trkpt lat="43.94858" lon="7.28006">
        <ele>547.156189</ele>
        <time>2016-01-17T07:19:56.000Z</time>
      </trkpt>
      <trkpt lat="43.94863" lon="7.27995">
        <ele>548.307007</ele>
        <time>2016-01-17T07:20:01.000Z</time>
      </trkpt>
      <trkpt lat="43.94869" lon="7.27984">
        <ele>550.24585</ele>
        <time>2016-01-17T07:20:06.000Z</time>
      </trkpt>
      <trkpt lat="43.94876" lon="7.27975">
        <ele>551.482361</ele>
        <time>2016-01-17T07:20:11.000Z</time>
      </trkpt>
      <trkpt lat="43.94884" lon="7.27966">
        <ele>552.60083</ele>
        <time>2016-01-17T07:20:16.000Z</time>
      </trkpt>
      <trkpt lat="43.9489" lon="7.27955">
        <ele>551.63031</ele>
        <time>2016-01-17T07:20:21.000Z</time>
      </trkpt>
      <trkpt lat="43.94894" lon="7.27943">
        <ele>551.628174</ele>
        <time>2016-01-17T07:20:26.000Z</time>
      </trkpt>
      <trkpt lat="43.94896" lon="7.27929">
        <ele>553.318359</ele>
        <time>2016-01-17T07:20:31.000Z</time>
      </trkpt>
      <trkpt lat="43.94897" lon="7.27915">
        <ele>554.36908</ele>
        <time>2016-01-17T07:20:36.000Z</time>
      </trkpt>
      <trkpt lat="43.94898" lon="7.27902">
        <ele>555.986084</ele>
        <time>2016-01-17T07:20:41.000Z</time>
      </trkpt>
      <trkpt lat="43.94901" lon="7.27887">
        <ele>556.35376</ele>
        <time>2016-01-17T07:20:46.000Z</time>
      </trkpt>
      <trkpt lat="43.94904" lon="7.27873">
        <ele>557.17041</ele>
        <time>2016-01-17T07:20:51.000Z</time>
      </trkpt>
      <trkpt lat="43.94907" lon="7.2786">
        <ele>557.996582</ele>
        <time>2016-01-17T07:20:56.000Z</time>
      </trkpt>
      <trkpt lat="43.9491" lon="7.27846">
        <ele>558.118042</ele>
        <time>2016-01-17T07:21:01.000Z</time>
      </trkpt>
      <trkpt lat="43.94913" lon="7.27832">
        <ele>558.528259</ele>
        <time>2016-01-17T07:21:06.000Z</time>
      </trkpt>
      <trkpt lat="43.94918" lon="7.27821">
        <ele>559.772156</ele>
        <time>2016-01-17T07:21:11.000Z</time>
      </trkpt>
      <trkpt lat="43.94924" lon="7.27809">
        <ele>560.807922</ele>
        <time>2016-01-17T07:21:16.000Z</time>
      </trkpt>
      <trkpt lat="43.94929" lon="7.27797">
        <ele>561.565796</ele>
        <time>2016-01-17T07:21:21.000Z</time>
      </trkpt>
      <trkpt lat="43.94936" lon="7.27787">
        <ele>562.283936</ele>
        <time>2016-01-17T07:21:26.000Z</time>
      </trkpt>
      <trkpt lat="43.94944" lon="7.27779">
        <ele>563.505737</ele>
        <time>2016-01-17T07:21:31.000Z</time>
      </trkpt>
      <trkpt lat="43.94952" lon="7.27772">
        <ele>564.576965</ele>
        <time>2016-01-17T07:21:36.000Z</time>
      </trkpt>
      <trkpt lat="43.94961" lon="7.27767">
        <ele>565.574829</ele>
        <time>2016-01-17T07:21:41.000Z</time>
      </trkpt>
      <trkpt lat="43.94971" lon="7.27761">
        <ele>566.304688</ele>
        <time>2016-01-17T07:21:46.000Z</time>
      </trkpt>
      <trkpt lat="43.9498" lon="7.27756">
        <ele>567.033508</ele>
        <time>2016-01-17T07:21:51.000Z</time>
      </trkpt>
      <trkpt lat="43.94989" lon="7.27751">
        <ele>568.288208</ele>
        <time>2016-01-17T07:21:56.000Z</time>
      </trkpt>
      <trkpt lat="43.94999" lon="7.27747">
        <ele>568.843201</ele>
        <time>2016-01-17T07:22:01.000Z</time>
      </trkpt>
      <trkpt lat="43.95009" lon="7.27746">
        <ele>569.533081</ele>
        <time>2016-01-17T07:22:06.000Z</time>
      </trkpt>
      <trkpt lat="43.95019" lon="7.27748">
        <ele>570.919678</ele>
        <time>2016-01-17T07:22:11.000Z</time>
      </trkpt>
      <trkpt lat="43.95029" lon="7.27752">
        <ele>572.199341</ele>
        <time>2016-01-17T07:22:16.000Z</time>
      </trkpt>
      <trkpt lat="43.95039" lon="7.27755">
        <ele>573.068115</ele>
        <time>2016-01-17T07:22:21.000Z</time>
      </trkpt>
      <trkpt lat="43.95049" lon="7.27753">
        <ele>573.347534</ele>
        <time>2016-01-17T07:22:26.000Z</time>
      </trkpt>
      <trkpt lat="43.95058" lon="7.27748">
        <ele>574.202026</ele>
        <time>2016-01-17T07:22:31.000Z</time>
      </trkpt>
      <trkpt lat="43.95066" lon="7.27737">
        <ele>575.506836</ele>
        <time>2016-01-17T07:22:36.000Z</time>
      </trkpt>
      <trkpt lat="43.95074" lon="7.27731">
        <ele>575.683472</ele>
        <time>2016-01-17T07:22:41.000Z</time>
      </trkpt>
      <trkpt lat="43.95082" lon="7.27722">
        <ele>576.446472</ele>
        <time>2016-01-17T07:22:46.000Z</time>
      </trkpt>
      <trkpt lat="43.95089" lon="7.27712">
        <ele>577.714905</ele>
        <time>2016-01-17T07:22:51.000Z</time>
      </trkpt>
      <trkpt lat="43.95096" lon="7.277">
        <ele>578.159119</ele>
        <time>2016-01-17T07:22:56.000Z</time>
      </trkpt>
      <trkpt lat="43.951" lon="7.27687">
        <ele>579.453064</ele>
        <time>2016-01-17T07:23:01.000Z</time>
      </trkpt>
      <trkpt lat="43.95103" lon="7.27673">
        <ele>579.047058</ele>
        <time>2016-01-17T07:23:06.000Z</time>
      </trkpt>
      <trkpt lat="43.95107" lon="7.2766">
        <ele>579.846924</ele>
        <time>2016-01-17T07:23:11.000Z</time>
      </trkpt>
      <trkpt lat="43.95109" lon="7.27645">
        <ele>578.418945</ele>
        <time>2016-01-17T07:23:16.000Z</time>
      </trkpt>
      <trkpt lat="43.9511" lon="7.27631">
        <ele>580.270874</ele>
        <time>2016-01-17T07:23:21.000Z</time>
      </trkpt>
      <trkpt lat="43.95112" lon="7.27616">
        <ele>580.390442</ele>
        <time>2016-01-17T07:23:26.000Z</time>
      </trkpt>
      <trkpt lat="43.95114" lon="7.27602">
        <ele>581.30127</ele>
        <time>2016-01-17T07:23:31.000Z</time>
      </trkpt>
      <trkpt lat="43.95117" lon="7.27589">
        <ele>582.863586</ele>
        <time>2016-01-17T07:23:36.000Z</time>
      </trkpt>
      <trkpt lat="43.95119" lon="7.27575">
        <ele>582.912109</ele>
        <time>2016-01-17T07:23:41.000Z</time>
      </trkpt>
      <trkpt lat="43.95123" lon="7.27563">
        <ele>583.435059</ele>
        <time>2016-01-17T07:23:46.000Z</time>
      </trkpt>
      <trkpt lat="43.95128" lon="7.27551">
        <ele>585.039551</ele>
        <time>2016-01-17T07:23:51.000Z</time>
      </trkpt>
      <trkpt lat="43.95133" lon="7.27538">
        <ele>586.705444</ele>
        <time>2016-01-17T07:23:56.000Z</time>
      </trkpt>
      <trkpt lat="43.95138" lon="7.27526">
        <ele>587.140686</ele>
        <time>2016-01-17T07:24:01.000Z</time>
      </trkpt>
      <trkpt lat="43.95145" lon="7.27515">
        <ele>586.811584</ele>
        <time>2016-01-17T07:24:06.000Z</time>
      </trkpt>
      <trkpt lat="43.9515" lon="7.27502">
        <ele>587.082947</ele>
        <time>2016-01-17T07:24:11.000Z</time>
      </trkpt>
      <trkpt lat="43.95155" lon="7.2749">
        <ele>589.34668</ele>
        <time>2016-01-17T07:24:16.000Z</time>
      </trkpt>
      <trkpt lat="43.9516" lon="7.27477">
        <ele>591.854492</ele>
        <time>2016-01-17T07:24:21.000Z</time>
      </trkpt>
      <trkpt lat="43.95166" lon="7.27466">
        <ele>593.675659</ele>
        <time>2016-01-17T07:24:26.000Z</time>
      </trkpt>
      <trkpt lat="43.95174" lon="7.27456">
        <ele>593.91449</ele>
        <time>2016-01-17T07:24:31.000Z</time>
      </trkpt>
      <trkpt lat="43.95184" lon="7.27453">
        <ele>594.404175</ele>
        <time>2016-01-17T07:24:36.000Z</time>
      </trkpt>
      <trkpt lat="43.95193" lon="7.27458">
        <ele>594.605957</ele>
        <time>2016-01-17T07:24:41.000Z</time>
      </trkpt>
      <trkpt lat="43.95202" lon="7.27463">
        <ele>594.480896</ele>
        <time>2016-01-17T07:24:46.000Z</time>
      </trkpt>
      <trkpt lat="43.95211" lon="7.27467">
        <ele>594.088806</ele>
        <time>2016-01-17T07:24:51.000Z</time>
      </trkpt>
      <trkpt lat="43.9522" lon="7.27471">
        <ele>595.025513</ele>
        <time>2016-01-17T07:24:56.000Z</time>
      </trkpt>
      <trkpt lat="43.9523" lon="7.27473">
        <ele>597.724976</ele>
        <time>2016-01-17T07:25:01.000Z</time>
      </trkpt>
      <trkpt lat="43.9524" lon="7.27476">
        <ele>599.049316</ele>
        <time>2016-01-17T07:25:06.000Z</time>
      </trkpt>
      <trkpt lat="43.95249" lon="7.27476">
        <ele>599.247192</ele>
        <time>2016-01-17T07:25:11.000Z</time>
      </trkpt>
      <trkpt lat="43.95258" lon="7.27476">
        <ele>599.130981</ele>
        <time>2016-01-17T07:25:16.000Z</time>
      </trkpt>
      <trkpt lat="43.95262" lon="7.27479">
        <ele>599.179321</ele>
        <time>2016-01-17T07:25:21.000Z</time>
      </trkpt>
      <trkpt lat="43.95268" lon="7.27479">
        <ele>599.998474</ele>
        <time>2016-01-17T07:25:26.000Z</time>
      </trkpt>
      <trkpt lat="43.95277" lon="7.27485">
        <ele>600.998169</ele>
        <time>2016-01-17T07:25:31.000Z</time>
      </trkpt>
      <trkpt lat="43.95286" lon="7.27492">
        <ele>602.236877</ele>
        <time>2016-01-17T07:25:36.000Z</time>
      </trkpt>
      <trkpt lat="43.95296" lon="7.27497">
        <ele>602.439392</ele>
        <time>2016-01-17T07:25:41.000Z</time>
      </trkpt>
      <trkpt lat="43.95305" lon="7.27501">
        <ele>603.470703</ele>
        <time>2016-01-17T07:25:46.000Z</time>
      </trkpt>
      <trkpt lat="43.95315" lon="7.27503">
        <ele>604.549866</ele>
        <time>2016-01-17T07:25:51.000Z</time>
      </trkpt>
      <trkpt lat="43.95324" lon="7.27506">
        <ele>605.521729</ele>
        <time>2016-01-17T07:25:56.000Z</time>
      </trkpt>
      <trkpt lat="43.95334" lon="7.27512">
        <ele>606.947327</ele>
        <time>2016-01-17T07:26:01.000Z</time>
      </trkpt>
      <trkpt lat="43.95342" lon="7.2752">
        <ele>608.831177</ele>
        <time>2016-01-17T07:26:06.000Z</time>
      </trkpt>
      <trkpt lat="43.9535" lon="7.27528">
        <ele>611.950012</ele>
        <time>2016-01-17T07:26:11.000Z</time>
      </trkpt>
      <trkpt lat="43.95361" lon="7.27534">
        <ele>611.597473</ele>
        <time>2016-01-17T07:26:16.000Z</time>
      </trkpt>
      <trkpt lat="43.95371" lon="7.27539">
        <ele>613.310181</ele>
        <time>2016-01-17T07:26:21.000Z</time>
      </trkpt>
      <trkpt lat="43.95381" lon="7.27545">
        <ele>612.738953</ele>
        <time>2016-01-17T07:26:26.000Z</time>
      </trkpt>
      <trkpt lat="43.95392" lon="7.27547">
        <ele>612.436951</ele>
        <time>2016-01-17T07:26:31.000Z</time>
      </trkpt>
      <trkpt lat="43.95404" lon="7.27547">
        <ele>612.388977</ele>
        <time>2016-01-17T07:26:36.000Z</time>
      </trkpt>
      <trkpt lat="43.95417" lon="7.27546">
        <ele>612.126709</ele>
        <time>2016-01-17T07:26:41.000Z</time>
      </trkpt>
      <trkpt lat="43.9543" lon="7.27544">
        <ele>611.954041</ele>
        <time>2016-01-17T07:26:46.000Z</time>
      </trkpt>
      <trkpt lat="43.95441" lon="7.2754">
        <ele>612.002258</ele>
        <time>2016-01-17T07:26:51.000Z</time>
      </trkpt>
      <trkpt lat="43.9545" lon="7.27533">
        <ele>613.584656</ele>
        <time>2016-01-17T07:26:56.000Z</time>
      </trkpt>
      <trkpt lat="43.95457" lon="7.27527">
        <ele>614.074646</ele>
        <time>2016-01-17T07:27:01.000Z</time>
      </trkpt>
      <trkpt lat="43.95464" lon="7.27521">
        <ele>615.712097</ele>
        <time>2016-01-17T07:27:06.000Z</time>
      </trkpt>
      <trkpt lat="43.95472" lon="7.27515">
        <ele>615.528748</ele>
        <time>2016-01-17T07:27:11.000Z</time>
      </trkpt>
      <trkpt lat="43.95479" lon="7.27508">
        <ele>616.791321</ele>
        <time>2016-01-17T07:27:16.000Z</time>
      </trkpt>
      <trkpt lat="43.95486" lon="7.27501">
        <ele>617.399902</ele>
        <time>2016-01-17T07:27:21.000Z</time>
      </trkpt>
      <trkpt lat="43.95492" lon="7.27493">
        <ele>618.426331</ele>
        <time>2016-01-17T07:27:26.000Z</time>
      </trkpt>
      <trkpt lat="43.95499" lon="7.27486">
        <ele>619.720825</ele>
        <time>2016-01-17T07:27:31.000Z</time>
      </trkpt>
      <trkpt lat="43.95506" lon="7.27478">
        <ele>619.837341</ele>
        <time>2016-01-17T07:27:36.000Z</time>
      </trkpt>
      <trkpt lat="43.95513" lon="7.2747">
        <ele>620.532104</ele>
        <time>2016-01-17T07:27:41.000Z</time>
      </trkpt>
      <trkpt lat="43.9552" lon="7.27461">
        <ele>621.942749</ele>
        <time>2016-01-17T07:27:46.000Z</time>
      </trkpt>
      <trkpt lat="43.95526" lon="7.27451">
        <ele>623.375</ele>
        <time>2016-01-17T07:27:51.000Z</time>
      </trkpt>
      <trkpt lat="43.95533" lon="7.27442">
        <ele>624.842896</ele>
        <time>2016-01-17T07:27:56.000Z</time>
      </trkpt>
      <trkpt lat="43.9554" lon="7.27431">
        <ele>625.018616</ele>
        <time>2016-01-17T07:28:01.000Z</time>
      </trkpt>
      <trkpt lat="43.95543" lon="7.27417">
        <ele>625.871887</ele>
        <time>2016-01-17T07:28:06.000Z</time>
      </trkpt>
      <trkpt lat="43.95543" lon="7.27403">
        <ele>626.526733</ele>
        <time>2016-01-17T07:28:11.000Z</time>
      </trkpt>
      <trkpt lat="43.95548" lon="7.27392">
        <ele>627.373169</ele>
        <time>2016-01-17T07:28:16.000Z</time>
      </trkpt>
      <trkpt lat="43.95554" lon="7.27382">
        <ele>627.621094</ele>
        <time>2016-01-17T07:28:21.000Z</time>
      </trkpt>
      <trkpt lat="43.95562" lon="7.27379">
        <ele>630.064331</ele>
        <time>2016-01-17T07:28:26.000Z</time>
      </trkpt>
      <trkpt lat="43.9557" lon="7.27374">
        <ele>632.640869</ele>
        <time>2016-01-17T07:28:31.000Z</time>
      </trkpt>
      <trkpt lat="43.95574" lon="7.27366">
        <ele>635.318665</ele>
        <time>2016-01-17T07:28:36.000Z</time>
      </trkpt>
      <trkpt lat="43.95582" lon="7.27361">
        <ele>636.176697</ele>
        <time>2016-01-17T07:28:41.000Z</time>
      </trkpt>
      <trkpt lat="43.9559" lon="7.27355">
        <ele>635.06189</ele>
        <time>2016-01-17T07:28:46.000Z</time>
      </trkpt>
      <trkpt lat="43.95599" lon="7.27349">
        <ele>634.614197</ele>
        <time>2016-01-17T07:28:51.000Z</time>
      </trkpt>
      <trkpt lat="43.95607" lon="7.27344">
        <ele>636.220337</ele>
        <time>2016-01-17T07:28:56.000Z</time>
      </trkpt>
      <trkpt lat="43.95613" lon="7.27336">
        <ele>637.388794</ele>
        <time>2016-01-17T07:29:01.000Z</time>
      </trkpt>
      <trkpt lat="43.95613" lon="7.27323">
        <ele>638.156372</ele>
        <time>2016-01-17T07:29:06.000Z</time>
      </trkpt>
      <trkpt lat="43.95609" lon="7.27316">
        <ele>639.835266</ele>
        <time>2016-01-17T07:29:11.000Z</time>
      </trkpt>
      <trkpt lat="43.95602" lon="7.2731">
        <ele>640.772766</ele>
        <time>2016-01-17T07:29:16.000Z</time>
      </trkpt>
      <trkpt lat="43.95595" lon="7.27304">
        <ele>642.049683</ele>
        <time>2016-01-17T07:29:21.000Z</time>
      </trkpt>
      <trkpt lat="43.95591" lon="7.27296">
        <ele>642.364868</ele>
        <time>2016-01-17T07:29:26.000Z</time>
      </trkpt>
      <trkpt lat="43.95586" lon="7.27288">
        <ele>643.704468</ele>
        <time>2016-01-17T07:29:31.000Z</time>
      </trkpt>
      <trkpt lat="43.95583" lon="7.27278">
        <ele>643.618164</ele>
        <time>2016-01-17T07:29:36.000Z</time>
      </trkpt>
      <trkpt lat="43.95578" lon="7.2727">
        <ele>646.953125</ele>
        <time>2016-01-17T07:29:41.000Z</time>
      </trkpt>
      <trkpt lat="43.95572" lon="7.27264">
        <ele>648.371277</ele>
        <time>2016-01-17T07:29:46.000Z</time>
      </trkpt>
      <trkpt lat="43.95567" lon="7.27256">
        <ele>648.768005</ele>
        <time>2016-01-17T07:29:51.000Z</time>
      </trkpt>
      <trkpt lat="43.95563" lon="7.27247">
        <ele>649.535156</ele>
        <time>2016-01-17T07:29:56.000Z</time>
      </trkpt>
      <trkpt lat="43.95557" lon="7.27239">
        <ele>649.484985</ele>
        <time>2016-01-17T07:30:01.000Z</time>
      </trkpt>
      <trkpt lat="43.95554" lon="7.27229">
        <ele>649.607178</ele>
        <time>2016-01-17T07:30:06.000Z</time>
      </trkpt>
      <trkpt lat="43.9555" lon="7.2722">
        <ele>649.816711</ele>
        <time>2016-01-17T07:30:11.000Z</time>
      </trkpt>
      <trkpt lat="43.95547" lon="7.2721">
        <ele>650.324341</ele>
        <time>2016-01-17T07:30:16.000Z</time>
      </trkpt>
      <trkpt lat="43.95545" lon="7.272">
        <ele>650.83905</ele>
        <time>2016-01-17T07:30:21.000Z</time>
      </trkpt>
      <trkpt lat="43.95542" lon="7.27189">
        <ele>651.351929</ele>
        <time>2016-01-17T07:30:26.000Z</time>
      </trkpt>
      <trkpt lat="43.95543" lon="7.27178">
        <ele>651.404114</ele>
        <time>2016-01-17T07:30:31.000Z</time>
      </trkpt>
      <trkpt lat="43.95547" lon="7.27165">
        <ele>651.02124</ele>
        <time>2016-01-17T07:30:36.000Z</time>
      </trkpt>
      <trkpt lat="43.95552" lon="7.27154">
        <ele>651.008911</ele>
        <time>2016-01-17T07:30:41.000Z</time>
      </trkpt>
      <trkpt lat="43.95559" lon="7.27145">
        <ele>651.222656</ele>
        <time>2016-01-17T07:30:46.000Z</time>
      </trkpt>
      <trkpt lat="43.95565" lon="7.27136">
        <ele>652.153931</ele>
        <time>2016-01-17T07:30:51.000Z</time>
      </trkpt>
      <trkpt lat="43.95571" lon="7.27125">
        <ele>652.315369</ele>
        <time>2016-01-17T07:30:56.000Z</time>
      </trkpt>
      <trkpt lat="43.95577" lon="7.27115">
        <ele>653</ele>
        <time>2016-01-17T07:31:01.000Z</time>
      </trkpt>
      <trkpt lat="43.95582" lon="7.27106">
        <ele>653.918396</ele>
        <time>2016-01-17T07:31:06.000Z</time>
      </trkpt>
      <trkpt lat="43.95589" lon="7.27096">
        <ele>654.478149</ele>
        <time>2016-01-17T07:31:11.000Z</time>
      </trkpt>
      <trkpt lat="43.95596" lon="7.27088">
        <ele>654.838135</ele>
        <time>2016-01-17T07:31:16.000Z</time>
      </trkpt>
      <trkpt lat="43.95605" lon="7.27085">
        <ele>655.340942</ele>
        <time>2016-01-17T07:31:21.000Z</time>
      </trkpt>
      <trkpt lat="43.95614" lon="7.27086">
        <ele>655.918091</ele>
        <time>2016-01-17T07:31:26.000Z</time>
      </trkpt>
      <trkpt lat="43.95623" lon="7.27089">
        <ele>656.689575</ele>
        <time>2016-01-17T07:31:31.000Z</time>
      </trkpt>
      <trkpt lat="43.95633" lon="7.27089">
        <ele>656.813721</ele>
        <time>2016-01-17T07:31:36.000Z</time>
      </trkpt>
      <trkpt lat="43.95644" lon="7.27082">
        <ele>657.349243</ele>
        <time>2016-01-17T07:31:41.000Z</time>
      </trkpt>
      <trkpt lat="43.95655" lon="7.27076">
        <ele>657.796875</ele>
        <time>2016-01-17T07:31:46.000Z</time>
      </trkpt>
      <trkpt lat="43.95665" lon="7.27074">
        <ele>658.623718</ele>
        <time>2016-01-17T07:31:51.000Z</time>
      </trkpt>
      <trkpt lat="43.95674" lon="7.27073">
        <ele>659.368164</ele>
        <time>2016-01-17T07:31:56.000Z</time>
      </trkpt>
      <trkpt lat="43.95683" lon="7.27072">
        <ele>660.052429</ele>
        <time>2016-01-17T07:32:01.000Z</time>
      </trkpt>
      <trkpt lat="43.95692" lon="7.27069">
        <ele>660.205872</ele>
        <time>2016-01-17T07:32:06.000Z</time>
      </trkpt>
      <trkpt lat="43.95701" lon="7.27065">
        <ele>660.985413</ele>
        <time>2016-01-17T07:32:11.000Z</time>
      </trkpt>
      <trkpt lat="43.95709" lon="7.27059">
        <ele>661.866028</ele>
        <time>2016-01-17T07:32:16.000Z</time>
      </trkpt>
      <trkpt lat="43.95717" lon="7.27053">
        <ele>662.843323</ele>
        <time>2016-01-17T07:32:21.000Z</time>
      </trkpt>
      <trkpt lat="43.95725" lon="7.27057">
        <ele>663.714478</ele>
        <time>2016-01-17T07:32:26.000Z</time>
      </trkpt>
      <trkpt lat="43.95723" lon="7.27068">
        <ele>664.32373</ele>
        <time>2016-01-17T07:32:31.000Z</time>
      </trkpt>
      <trkpt lat="43.95715" lon="7.27079">
        <ele>664.671509</ele>
        <time>2016-01-17T07:32:36.000Z</time>
      </trkpt>
      <trkpt lat="43.95708" lon="7.27089">
        <ele>665.442261</ele>
        <time>2016-01-17T07:32:41.000Z</time>
      </trkpt>
      <trkpt lat="43.957" lon="7.271">
        <ele>665.645935</ele>
        <time>2016-01-17T07:32:46.000Z</time>
      </trkpt>
      <trkpt lat="43.95691" lon="7.2711">
        <ele>666.080139</ele>
        <time>2016-01-17T07:32:51.000Z</time>
      </trkpt>
      <trkpt lat="43.95682" lon="7.27119">
        <ele>666.541626</ele>
        <time>2016-01-17T07:32:56.000Z</time>
      </trkpt>
      <trkpt lat="43.95672" lon="7.27128">
        <ele>667.190063</ele>
        <time>2016-01-17T07:33:01.000Z</time>
      </trkpt>
      <trkpt lat="43.95661" lon="7.27136">
        <ele>668.504089</ele>
        <time>2016-01-17T07:33:06.000Z</time>
      </trkpt>
      <trkpt lat="43.95652" lon="7.27146">
        <ele>669.279358</ele>
        <time>2016-01-17T07:33:11.000Z</time>
      </trkpt>
      <trkpt lat="43.95648" lon="7.27161">
        <ele>670.170898</ele>
        <time>2016-01-17T07:33:16.000Z</time>
      </trkpt>
      <trkpt lat="43.95648" lon="7.27177">
        <ele>670.26062</ele>
        <time>2016-01-17T07:33:21.000Z</time>
      </trkpt>
      <trkpt lat="43.95653" lon="7.27192">
        <ele>670.460083</ele>
        <time>2016-01-17T07:33:26.000Z</time>
      </trkpt>
      <trkpt lat="43.95657" lon="7.27206">
        <ele>671.034058</ele>
        <time>2016-01-17T07:33:31.000Z</time>
      </trkpt>
      <trkpt lat="43.9566" lon="7.27221">
        <ele>671.507019</ele>
        <time>2016-01-17T07:33:36.000Z</time>
      </trkpt>
      <trkpt lat="43.95661" lon="7.27237">
        <ele>672.839722</ele>
        <time>2016-01-17T07:33:41.000Z</time>
      </trkpt>
      <trkpt lat="43.95662" lon="7.27253">
        <ele>673.275879</ele>
        <time>2016-01-17T07:33:46.000Z</time>
      </trkpt>
      <trkpt lat="43.95666" lon="7.27268">
        <ele>674.072571</ele>
        <time>2016-01-17T07:33:51.000Z</time>
      </trkpt>
      <trkpt lat="43.95673" lon="7.27279">
        <ele>675.237061</ele>
        <time>2016-01-17T07:33:56.000Z</time>
      </trkpt>
      <trkpt lat="43.95678" lon="7.27284">
        <ele>675.976746</ele>
        <time>2016-01-17T07:34:01.000Z</time>
      </trkpt>
      <trkpt lat="43.95678" lon="7.27285">
        <ele>676.153687</ele>
        <time>2016-01-17T07:34:06.000Z</time>
      </trkpt>
      <trkpt lat="43.95678" lon="7.27285">
        <ele>676.232849</ele>
        <time>2016-01-17T07:34:11.000Z</time>
      </trkpt>
      <trkpt lat="43.95678" lon="7.27285">
        <ele>676.289124</ele>
        <time>2016-01-17T07:34:16.000Z</time>
      </trkpt>
      <trkpt lat="43.95678" lon="7.27285">
        <ele>676.298645</ele>
        <time>2016-01-17T07:34:21.000Z</time>
      </trkpt>
      <trkpt lat="43.95678" lon="7.27285">
        <ele>676.325378</ele>
        <time>2016-01-17T07:34:26.000Z</time>
      </trkpt>
      <trkpt lat="43.95678" lon="7.27285">
        <ele>676.368896</ele>
        <time>2016-01-17T07:34:31.000Z</time>
      </trkpt>
      <trkpt lat="43.95678" lon="7.27285">
        <ele>676.422424</ele>
        <time>2016-01-17T07:34:36.000Z</time>
      </trkpt>
      <trkpt lat="43.95678" lon="7.27285">
        <ele>676.477844</ele>
        <time>2016-01-17T07:34:41.000Z</time>
      </trkpt>
      <trkpt lat="43.95678" lon="7.27285">
        <ele>676.504944</ele>
        <time>2016-01-17T07:34:46.000Z</time>
      </trkpt>
      <trkpt lat="43.95678" lon="7.27285">
        <ele>676.467041</ele>
        <time>2016-01-17T07:34:51.000Z</time>
      </trkpt>
      <trkpt lat="43.95678" lon="7.27285">
        <ele>676.436218</ele>
        <time>2016-01-17T07:34:56.000Z</time>
      </trkpt>
      <trkpt lat="43.95678" lon="7.27285">
        <ele>676.4151</ele>
        <time>2016-01-17T07:35:01.000Z</time>
      </trkpt>
      <trkpt lat="43.95678" lon="7.27285">
        <ele>676.415894</ele>
        <time>2016-01-17T07:35:06.000Z</time>
      </trkpt>
      <trkpt lat="43.95678" lon="7.27285">
        <ele>676.412964</ele>
        <time>2016-01-17T07:35:11.000Z</time>
      </trkpt>
      <trkpt lat="43.95678" lon="7.27285">
        <ele>676.399292</ele>
        <time>2016-01-17T07:35:16.000Z</time>
      </trkpt>
      <trkpt lat="43.95678" lon="7.27285">
        <ele>676.388062</ele>
        <time>2016-01-17T07:35:21.000Z</time>
      </trkpt>
      <trkpt lat="43.95678" lon="7.27285">
        <ele>676.40509</ele>
        <time>2016-01-17T07:35:26.000Z</time>
      </trkpt>
      <trkpt lat="43.95678" lon="7.27285">
        <ele>676.432068</ele>
        <time>2016-01-17T07:35:31.000Z</time>
      </trkpt>
      <trkpt lat="43.95678" lon="7.27285">
        <ele>676.487366</ele>
        <time>2016-01-17T07:35:36.000Z</time>
      </trkpt>
      <trkpt lat="43.95678" lon="7.27285">
        <ele>676.520569</ele>
        <time>2016-01-17T07:35:41.000Z</time>
      </trkpt>
      <trkpt lat="43.95678" lon="7.27285">
        <ele>676.545715</ele>
        <time>2016-01-17T07:35:46.000Z</time>
      </trkpt>
      <trkpt lat="43.95678" lon="7.27285">
        <ele>676.575806</ele>
        <time>2016-01-17T07:35:51.000Z</time>
      </trkpt>
      <trkpt lat="43.95678" lon="7.27285">
        <ele>676.578247</ele>
        <time>2016-01-17T07:35:56.000Z</time>
      </trkpt>
      <trkpt lat="43.95678" lon="7.27285">
        <ele>676.589417</ele>
        <time>2016-01-17T07:36:01.000Z</time>
      </trkpt>
      <trkpt lat="43.95678" lon="7.27285">
        <ele>676.634155</ele>
        <time>2016-01-17T07:36:06.000Z</time>
      </trkpt>
      <trkpt lat="43.95678" lon="7.27285">
        <ele>676.674866</ele>
        <time>2016-01-17T07:36:11.000Z</time>
      </trkpt>
      <trkpt lat="43.95678" lon="7.27285">
        <ele>676.679932</ele>
        <time>2016-01-17T07:36:16.000Z</time>
      </trkpt>
      <trkpt lat="43.95678" lon="7.27285">
        <ele>676.675903</ele>
        <time>2016-01-17T07:36:21.000Z</time>
      </trkpt>
      <trkpt lat="43.95678" lon="7.27285">
        <ele>676.670471</ele>
        <time>2016-01-17T07:36:26.000Z</time>
      </trkpt>
      <trkpt lat="43.95678" lon="7.27285">
        <ele>676.65686</ele>
        <time>2016-01-17T07:36:31.000Z</time>
      </trkpt>
      <trkpt lat="43.95678" lon="7.27285">
        <ele>676.647522</ele>
        <time>2016-01-17T07:36:36.000Z</time>
      </trkpt>
      <trkpt lat="43.95678" lon="7.27285">
        <ele>676.634033</ele>
        <time>2016-01-17T07:36:41.000Z</time>
      </trkpt>
      <trkpt lat="43.95678" lon="7.27285">
        <ele>676.624878</ele>
        <time>2016-01-17T07:36:46.000Z</time>
      </trkpt>
      <trkpt lat="43.95678" lon="7.27285">
        <ele>676.619629</ele>
        <time>2016-01-17T07:36:51.000Z</time>
      </trkpt>
      <trkpt lat="43.95678" lon="7.27284">
        <ele>676.599426</ele>
        <time>2016-01-17T07:36:56.000Z</time>
      </trkpt>
      <trkpt lat="43.95678" lon="7.27284">
        <ele>676.57782</ele>
        <time>2016-01-17T07:37:01.000Z</time>
      </trkpt>
      <trkpt lat="43.95678" lon="7.27284">
        <ele>676.567688</ele>
        <time>2016-01-17T07:37:06.000Z</time>
      </trkpt>
      <trkpt lat="43.95678" lon="7.27284">
        <ele>676.554199</ele>
        <time>2016-01-17T07:37:11.000Z</time>
      </trkpt>
      <trkpt lat="43.95686" lon="7.27293">
        <ele>676.941162</ele>
        <time>2016-01-17T07:37:16.000Z</time>
      </trkpt>
      <trkpt lat="43.95695" lon="7.27302">
        <ele>678.045227</ele>
        <time>2016-01-17T07:37:21.000Z</time>
      </trkpt>
      <trkpt lat="43.95703" lon="7.27311">
        <ele>679.125854</ele>
        <time>2016-01-17T07:37:26.000Z</time>
      </trkpt>
      <trkpt lat="43.95711" lon="7.2732">
        <ele>680.749146</ele>
        <time>2016-01-17T07:37:31.000Z</time>
      </trkpt>
      <trkpt lat="43.95719" lon="7.27329">
        <ele>682.353638</ele>
        <time>2016-01-17T07:37:36.000Z</time>
      </trkpt>
      <trkpt lat="43.95728" lon="7.27335">
        <ele>683.405029</ele>
        <time>2016-01-17T07:37:41.000Z</time>
      </trkpt>
      <trkpt lat="43.95737" lon="7.27341">
        <ele>684.704224</ele>
        <time>2016-01-17T07:37:46.000Z</time>
      </trkpt>
      <trkpt lat="43.95746" lon="7.27348">
        <ele>685.359009</ele>
        <time>2016-01-17T07:37:51.000Z</time>
      </trkpt>
      <trkpt lat="43.95755" lon="7.27356">
        <ele>687.063171</ele>
        <time>2016-01-17T07:37:56.000Z</time>
      </trkpt>
      <trkpt lat="43.9576" lon="7.27368">
        <ele>688.407471</ele>
        <time>2016-01-17T07:38:01.000Z</time>
      </trkpt>
      <trkpt lat="43.95758" lon="7.27383">
        <ele>688.718384</ele>
        <time>2016-01-17T07:38:06.000Z</time>
      </trkpt>
      <trkpt lat="43.95755" lon="7.27399">
        <ele>690.094299</ele>
        <time>2016-01-17T07:38:11.000Z</time>
      </trkpt>
      <trkpt lat="43.95759" lon="7.27415">
        <ele>689.761597</ele>
        <time>2016-01-17T07:38:16.000Z</time>
      </trkpt>
      <trkpt lat="43.95765" lon="7.27431">
        <ele>689.945496</ele>
        <time>2016-01-17T07:38:21.000Z</time>
      </trkpt>
      <trkpt lat="43.9577" lon="7.27448">
        <ele>690.210205</ele>
        <time>2016-01-17T07:38:26.000Z</time>
      </trkpt>
      <trkpt lat="43.95769" lon="7.27466">
        <ele>691.429077</ele>
        <time>2016-01-17T07:38:31.000Z</time>
      </trkpt>
      <trkpt lat="43.95766" lon="7.27485">
        <ele>691.235107</ele>
        <time>2016-01-17T07:38:36.000Z</time>
      </trkpt>
      <trkpt lat="43.95766" lon="7.27506">
        <ele>691.855469</ele>
        <time>2016-01-17T07:38:41.000Z</time>
      </trkpt>
      <trkpt lat="43.95763" lon="7.27528">
        <ele>691.643982</ele>
        <time>2016-01-17T07:38:46.000Z</time>
      </trkpt>
      <trkpt lat="43.95752" lon="7.27544">
        <ele>691.430176</ele>
        <time>2016-01-17T07:38:51.000Z</time>
      </trkpt>
      <trkpt lat="43.95738" lon="7.27553">
        <ele>691.389282</ele>
        <time>2016-01-17T07:38:56.000Z</time>
      </trkpt>
      <trkpt lat="43.95723" lon="7.27564">
        <ele>691.102478</ele>
        <time>2016-01-17T07:39:01.000Z</time>
      </trkpt>
      <trkpt lat="43.95711" lon="7.27584">
        <ele>691.613281</ele>
        <time>2016-01-17T07:39:06.000Z</time>
      </trkpt>
      <trkpt lat="43.95704" lon="7.27604">
        <ele>692.381104</ele>
        <time>2016-01-17T07:39:11.000Z</time>
      </trkpt>
      <trkpt lat="43.95704" lon="7.27626">
        <ele>691.915405</ele>
        <time>2016-01-17T07:39:16.000Z</time>
      </trkpt>
      <trkpt lat="43.95707" lon="7.27647">
        <ele>692.673706</ele>
        <time>2016-01-17T07:39:21.000Z</time>
      </trkpt>
      <trkpt lat="43.95709" lon="7.27668">
        <ele>693.435059</ele>
        <time>2016-01-17T07:39:26.000Z</time>
      </trkpt>
      <trkpt lat="43.95715" lon="7.27679">
        <ele>694.720337</ele>
        <time>2016-01-17T07:39:31.000Z</time>
      </trkpt>
      <trkpt lat="43.95722" lon="7.27667">
        <ele>696.002625</ele>
        <time>2016-01-17T07:39:36.000Z</time>
      </trkpt>
      <trkpt lat="43.95722" lon="7.27653">
        <ele>697.215088</ele>
        <time>2016-01-17T07:39:41.000Z</time>
      </trkpt>
      <trkpt lat="43.95723" lon="7.27639">
        <ele>699.048706</ele>
        <time>2016-01-17T07:39:46.000Z</time>
      </trkpt>
      <trkpt lat="43.95727" lon="7.27629">
        <ele>698.997559</ele>
        <time>2016-01-17T07:39:51.000Z</time>
      </trkpt>
      <trkpt lat="43.95738" lon="7.27618">
        <ele>701.135132</ele>
        <time>2016-01-17T07:39:56.000Z</time>
      </trkpt>
      <trkpt lat="43.95749" lon="7.27608">
        <ele>702.647766</ele>
        <time>2016-01-17T07:40:01.000Z</time>
      </trkpt>
      <trkpt lat="43.95759" lon="7.27597">
        <ele>702.423157</ele>
        <time>2016-01-17T07:40:06.000Z</time>
      </trkpt>
      <trkpt lat="43.95768" lon="7.27585">
        <ele>702.945862</ele>
        <time>2016-01-17T07:40:11.000Z</time>
      </trkpt>
      <trkpt lat="43.95776" lon="7.27572">
        <ele>703.75177</ele>
        <time>2016-01-17T07:40:16.000Z</time>
      </trkpt>
      <trkpt lat="43.95781" lon="7.27559">
        <ele>704.791504</ele>
        <time>2016-01-17T07:40:21.000Z</time>
      </trkpt>
      <trkpt lat="43.95787" lon="7.27548">
        <ele>706.38501</ele>
        <time>2016-01-17T07:40:26.000Z</time>
      </trkpt>
      <trkpt lat="43.95793" lon="7.27537">
        <ele>707.346008</ele>
        <time>2016-01-17T07:40:31.000Z</time>
      </trkpt>
      <trkpt lat="43.95801" lon="7.27527">
        <ele>707.809204</ele>
        <time>2016-01-17T07:40:36.000Z</time>
      </trkpt>
      <trkpt lat="43.95811" lon="7.27518">
        <ele>708.71814</ele>
        <time>2016-01-17T07:40:41.000Z</time>
      </trkpt>
      <trkpt lat="43.9582" lon="7.27509">
        <ele>709.341553</ele>
        <time>2016-01-17T07:40:46.000Z</time>
      </trkpt>
      <trkpt lat="43.95822" lon="7.27507">
        <ele>709.144775</ele>
        <time>2016-01-17T07:40:51.000Z</time>
      </trkpt>
      <trkpt lat="43.95822" lon="7.27507">
        <ele>709.000061</ele>
        <time>2016-01-17T07:40:56.000Z</time>
      </trkpt>
      <trkpt lat="43.95822" lon="7.27507">
        <ele>708.935486</ele>
        <time>2016-01-17T07:41:01.000Z</time>
      </trkpt>
      <trkpt lat="43.95822" lon="7.27507">
        <ele>708.886963</ele>
        <time>2016-01-17T07:41:06.000Z</time>
      </trkpt>
      <trkpt lat="43.95822" lon="7.27507">
        <ele>708.879639</ele>
        <time>2016-01-17T07:41:11.000Z</time>
      </trkpt>
      <trkpt lat="43.95822" lon="7.27507">
        <ele>708.88092</ele>
        <time>2016-01-17T07:41:16.000Z</time>
      </trkpt>
      <trkpt lat="43.95822" lon="7.27507">
        <ele>708.823669</ele>
        <time>2016-01-17T07:41:21.000Z</time>
      </trkpt>
      <trkpt lat="43.95822" lon="7.27507">
        <ele>708.734924</ele>
        <time>2016-01-17T07:41:26.000Z</time>
      </trkpt>
      <trkpt lat="43.95822" lon="7.27507">
        <ele>708.695435</ele>
        <time>2016-01-17T07:41:31.000Z</time>
      </trkpt>
      <trkpt lat="43.95822" lon="7.27507">
        <ele>708.665283</ele>
        <time>2016-01-17T07:41:36.000Z</time>
      </trkpt>
      <trkpt lat="43.95822" lon="7.27507">
        <ele>708.640381</ele>
        <time>2016-01-17T07:41:41.000Z</time>
      </trkpt>
      <trkpt lat="43.95822" lon="7.27507">
        <ele>708.612183</ele>
        <time>2016-01-17T07:41:46.000Z</time>
      </trkpt>
      <trkpt lat="43.95822" lon="7.27507">
        <ele>708.58313</ele>
        <time>2016-01-17T07:41:51.000Z</time>
      </trkpt>
      <trkpt lat="43.95822" lon="7.27507">
        <ele>708.569641</ele>
        <time>2016-01-17T07:41:56.000Z</time>
      </trkpt>
      <trkpt lat="43.95825" lon="7.27494">
        <ele>708.986511</ele>
        <time>2016-01-17T07:42:01.000Z</time>
      </trkpt>
      <trkpt lat="43.95827" lon="7.27479">
        <ele>710.914978</ele>
        <time>2016-01-17T07:42:06.000Z</time>
      </trkpt>
      <trkpt lat="43.95829" lon="7.27462">
        <ele>712.599854</ele>
        <time>2016-01-17T07:42:11.000Z</time>
      </trkpt>
      <trkpt lat="43.95831" lon="7.27448">
        <ele>713.915527</ele>
        <time>2016-01-17T07:42:16.000Z</time>
      </trkpt>
      <trkpt lat="43.95831" lon="7.27436">
        <ele>715.546143</ele>
        <time>2016-01-17T07:42:21.000Z</time>
      </trkpt>
      <trkpt lat="43.95832" lon="7.27423">
        <ele>716.43042</ele>
        <time>2016-01-17T07:42:26.000Z</time>
      </trkpt>
      <trkpt lat="43.95836" lon="7.27411">
        <ele>718.142883</ele>
        <time>2016-01-17T07:42:31.000Z</time>
      </trkpt>
      <trkpt lat="43.95846" lon="7.27405">
        <ele>720.380432</ele>
        <time>2016-01-17T07:42:36.000Z</time>
      </trkpt>
      <trkpt lat="43.95857" lon="7.27397">
        <ele>720.570068</ele>
        <time>2016-01-17T07:42:41.000Z</time>
      </trkpt>
      <trkpt lat="43.95863" lon="7.27385">
        <ele>720.253235</ele>
        <time>2016-01-17T07:42:46.000Z</time>
      </trkpt>
      <trkpt lat="43.95864" lon="7.2737">
        <ele>719.65509</ele>
        <time>2016-01-17T07:42:51.000Z</time>
      </trkpt>
      <trkpt lat="43.95861" lon="7.27357">
        <ele>721.454956</ele>
        <time>2016-01-17T07:42:56.000Z</time>
      </trkpt>
      <trkpt lat="43.95856" lon="7.27346">
        <ele>722.785339</ele>
        <time>2016-01-17T07:43:01.000Z</time>
      </trkpt>
      <trkpt lat="43.95849" lon="7.27335">
        <ele>723.994202</ele>
        <time>2016-01-17T07:43:06.000Z</time>
      </trkpt>
      <trkpt lat="43.95842" lon="7.27325">
        <ele>724.845581</ele>
        <time>2016-01-17T07:43:11.000Z</time>
      </trkpt>
      <trkpt lat="43.95834" lon="7.27315">
        <ele>725.521667</ele>
        <time>2016-01-17T07:43:16.000Z</time>
      </trkpt>
      <trkpt lat="43.95825" lon="7.27306">
        <ele>725.560303</ele>
        <time>2016-01-17T07:43:21.000Z</time>
      </trkpt>
      <trkpt lat="43.95816" lon="7.27298">
        <ele>726.364197</ele>
        <time>2016-01-17T07:43:26.000Z</time>
      </trkpt>
      <trkpt lat="43.9581" lon="7.27287">
        <ele>726.688843</ele>
        <time>2016-01-17T07:43:31.000Z</time>
      </trkpt>
      <trkpt lat="43.95808" lon="7.2727">
        <ele>725.859497</ele>
        <time>2016-01-17T07:43:36.000Z</time>
      </trkpt>
      <trkpt lat="43.95813" lon="7.27253">
        <ele>725.15979</ele>
        <time>2016-01-17T07:43:41.000Z</time>
      </trkpt>
      <trkpt lat="43.95825" lon="7.27241">
        <ele>726.205627</ele>
        <time>2016-01-17T07:43:46.000Z</time>
      </trkpt>
      <trkpt lat="43.95838" lon="7.27232">
        <ele>727.296448</ele>
        <time>2016-01-17T07:43:51.000Z</time>
      </trkpt>
      <trkpt lat="43.95851" lon="7.27224">
        <ele>728.068481</ele>
        <time>2016-01-17T07:43:56.000Z</time>
      </trkpt>
      <trkpt lat="43.9586" lon="7.27212">
        <ele>728.44696</ele>
        <time>2016-01-17T07:44:01.000Z</time>
      </trkpt>
      <trkpt lat="43.95867" lon="7.27199">
        <ele>729.002869</ele>
        <time>2016-01-17T07:44:06.000Z</time>
      </trkpt>
      <trkpt lat="43.95875" lon="7.27184">
        <ele>729.872986</ele>
        <time>2016-01-17T07:44:11.000Z</time>
      </trkpt>
      <trkpt lat="43.95882" lon="7.27169">
        <ele>731.287659</ele>
        <time>2016-01-17T07:44:16.000Z</time>
      </trkpt>
      <trkpt lat="43.95888" lon="7.27153">
        <ele>732.469788</ele>
        <time>2016-01-17T07:44:21.000Z</time>
      </trkpt>
      <trkpt lat="43.95896" lon="7.27136">
        <ele>731.254272</ele>
        <time>2016-01-17T07:44:26.000Z</time>
      </trkpt>
      <trkpt lat="43.95903" lon="7.27118">
        <ele>731.597534</ele>
        <time>2016-01-17T07:44:31.000Z</time>
      </trkpt>
      <trkpt lat="43.9591" lon="7.271">
        <ele>731.304321</ele>
        <time>2016-01-17T07:44:36.000Z</time>
      </trkpt>
      <trkpt lat="43.95916" lon="7.27081">
        <ele>731.169189</ele>
        <time>2016-01-17T07:44:41.000Z</time>
      </trkpt>
      <trkpt lat="43.95928" lon="7.27065">
        <ele>730.295288</ele>
        <time>2016-01-17T07:44:46.000Z</time>
      </trkpt>
      <trkpt lat="43.95945" lon="7.27049">
        <ele>730.12793</ele>
        <time>2016-01-17T07:44:51.000Z</time>
      </trkpt>
      <trkpt lat="43.95958" lon="7.27033">
        <ele>730.450867</ele>
        <time>2016-01-17T07:44:56.000Z</time>
      </trkpt>
      <trkpt lat="43.95964" lon="7.27008">
        <ele>731.239502</ele>
        <time>2016-01-17T07:45:01.000Z</time>
      </trkpt>
      <trkpt lat="43.95968" lon="7.26986">
        <ele>734.398865</ele>
        <time>2016-01-17T07:45:06.000Z</time>
      </trkpt>
      <trkpt lat="43.95975" lon="7.26971">
        <ele>734.034607</ele>
        <time>2016-01-17T07:45:11.000Z</time>
      </trkpt>
      <trkpt lat="43.95985" lon="7.2696">
        <ele>734.761841</ele>
        <time>2016-01-17T07:45:16.000Z</time>
      </trkpt>
      <trkpt lat="43.95998" lon="7.26958">
        <ele>735.922546</ele>
        <time>2016-01-17T07:45:21.000Z</time>
      </trkpt>
      <trkpt lat="43.96007" lon="7.26968">
        <ele>734.054871</ele>
        <time>2016-01-17T07:45:26.000Z</time>
      </trkpt>
      <trkpt lat="43.96018" lon="7.26976">
        <ele>734.601501</ele>
        <time>2016-01-17T07:45:31.000Z</time>
      </trkpt>
      <trkpt lat="43.96033" lon="7.26982">
        <ele>735.93811</ele>
        <time>2016-01-17T07:45:36.000Z</time>
      </trkpt>
      <trkpt lat="43.96046" lon="7.26994">
        <ele>734.522949</ele>
        <time>2016-01-17T07:45:41.000Z</time>
      </trkpt>
      <trkpt lat="43.9606" lon="7.26988">
        <ele>733.018372</ele>
        <time>2016-01-17T07:45:46.000Z</time>
      </trkpt>
      <trkpt lat="43.96078" lon="7.26985">
        <ele>733.112122</ele>
        <time>2016-01-17T07:45:51.000Z</time>
      </trkpt>
      <trkpt lat="43.96093" lon="7.26978">
        <ele>735.171631</ele>
        <time>2016-01-17T07:45:56.000Z</time>
      </trkpt>
      <trkpt lat="43.96109" lon="7.26982">
        <ele>733.794128</ele>
        <time>2016-01-17T07:46:01.000Z</time>
      </trkpt>
      <trkpt lat="43.96124" lon="7.26986">
        <ele>733.642456</ele>
        <time>2016-01-17T07:46:06.000Z</time>
      </trkpt>
      <trkpt lat="43.96133" lon="7.26993">
        <ele>734.127441</ele>
        <time>2016-01-17T07:46:11.000Z</time>
      </trkpt>
      <trkpt lat="43.96141" lon="7.26995">
        <ele>735.547546</ele>
        <time>2016-01-17T07:46:16.000Z</time>
      </trkpt>
      <trkpt lat="43.96151" lon="7.26996">
        <ele>736.4021</ele>
        <time>2016-01-17T07:46:21.000Z</time>
      </trkpt>
      <trkpt lat="43.96158" lon="7.26993">
        <ele>737.773682</ele>
        <time>2016-01-17T07:46:26.000Z</time>
      </trkpt>
      <trkpt lat="43.96164" lon="7.26987">
        <ele>738.8974</ele>
        <time>2016-01-17T07:46:31.000Z</time>
      </trkpt>
      <trkpt lat="43.96166" lon="7.26985">
        <ele>739.420959</ele>
        <time>2016-01-17T07:46:36.000Z</time>
      </trkpt>
      <trkpt lat="43.96166" lon="7.26985">
        <ele>739.540894</ele>
        <time>2016-01-17T07:46:41.000Z</time>
      </trkpt>
      <trkpt lat="43.96166" lon="7.26985">
        <ele>739.582397</ele>
        <time>2016-01-17T07:46:46.000Z</time>
      </trkpt>
      <trkpt lat="43.96166" lon="7.26985">
        <ele>739.590698</ele>
        <time>2016-01-17T07:46:51.000Z</time>
      </trkpt>
      <trkpt lat="43.96166" lon="7.26985">
        <ele>739.592285</ele>
        <time>2016-01-17T07:46:56.000Z</time>
      </trkpt>
      <trkpt lat="43.96169" lon="7.26977">
        <ele>739.909424</ele>
        <time>2016-01-17T07:47:01.000Z</time>
      </trkpt>
      <trkpt lat="43.96177" lon="7.26965">
        <ele>740.044678</ele>
        <time>2016-01-17T07:47:06.000Z</time>
      </trkpt>
      <trkpt lat="43.96189" lon="7.26956">
        <ele>740.883118</ele>
        <time>2016-01-17T07:47:11.000Z</time>
      </trkpt>
      <trkpt lat="43.96199" lon="7.26949">
        <ele>741.193848</ele>
        <time>2016-01-17T07:47:16.000Z</time>
      </trkpt>
      <trkpt lat="43.96206" lon="7.2694">
        <ele>742.406799</ele>
        <time>2016-01-17T07:47:21.000Z</time>
      </trkpt>
      <trkpt lat="43.96215" lon="7.26937">
        <ele>744.0625</ele>
        <time>2016-01-17T07:47:26.000Z</time>
      </trkpt>
      <trkpt lat="43.96225" lon="7.26935">
        <ele>745.836121</ele>
        <time>2016-01-17T07:47:31.000Z</time>
      </trkpt>
      <trkpt lat="43.96233" lon="7.26928">
        <ele>746.612244</ele>
        <time>2016-01-17T07:47:36.000Z</time>
      </trkpt>
      <trkpt lat="43.96239" lon="7.26919">
        <ele>748.696045</ele>
        <time>2016-01-17T07:47:41.000Z</time>
      </trkpt>
      <trkpt lat="43.96245" lon="7.26909">
        <ele>749.883362</ele>
        <time>2016-01-17T07:47:46.000Z</time>
      </trkpt>
      <trkpt lat="43.96254" lon="7.269">
        <ele>747.923157</ele>
        <time>2016-01-17T07:47:51.000Z</time>
      </trkpt>
      <trkpt lat="43.9626" lon="7.26892">
        <ele>749.383118</ele>
        <time>2016-01-17T07:47:56.000Z</time>
      </trkpt>
      <trkpt lat="43.96267" lon="7.26883">
        <ele>751.323242</ele>
        <time>2016-01-17T07:48:01.000Z</time>
      </trkpt>
      <trkpt lat="43.96273" lon="7.26877">
        <ele>752.734253</ele>
        <time>2016-01-17T07:48:06.000Z</time>
      </trkpt>
      <trkpt lat="43.96278" lon="7.26871">
        <ele>754.06604</ele>
        <time>2016-01-17T07:48:11.000Z</time>
      </trkpt>
      <trkpt lat="43.96282" lon="7.26861">
        <ele>755.600037</ele>
        <time>2016-01-17T07:48:16.000Z</time>
      </trkpt>
      <trkpt lat="43.96287" lon="7.26851">
        <ele>756.990723</ele>
        <time>2016-01-17T07:48:21.000Z</time>
      </trkpt>
      <trkpt lat="43.96292" lon="7.26841">
        <ele>756.367798</ele>
        <time>2016-01-17T07:48:26.000Z</time>
      </trkpt>
      <trkpt lat="43.96298" lon="7.26831">
        <ele>756.847595</ele>
        <time>2016-01-17T07:48:31.000Z</time>
      </trkpt>
      <trkpt lat="43.96305" lon="7.26824">
        <ele>757.736389</ele>
        <time>2016-01-17T07:48:36.000Z</time>
      </trkpt>
      <trkpt lat="43.96314" lon="7.26818">
        <ele>759.175049</ele>
        <time>2016-01-17T07:48:41.000Z</time>
      </trkpt>
      <trkpt lat="43.96322" lon="7.2682">
        <ele>760.889038</ele>
        <time>2016-01-17T07:48:46.000Z</time>
      </trkpt>
      <trkpt lat="43.9633" lon="7.26819">
        <ele>764.875</ele>
        <time>2016-01-17T07:48:51.000Z</time>
      </trkpt>
      <trkpt lat="43.9634" lon="7.26817">
        <ele>764.459106</ele>
        <time>2016-01-17T07:48:56.000Z</time>
      </trkpt>
      <trkpt lat="43.96351" lon="7.26814">
        <ele>762.969543</ele>
        <time>2016-01-17T07:49:01.000Z</time>
      </trkpt>
      <trkpt lat="43.96363" lon="7.26811">
        <ele>760.963257</ele>
        <time>2016-01-17T07:49:06.000Z</time>
      </trkpt>
      <trkpt lat="43.96375" lon="7.26806">
        <ele>763.430542</ele>
        <time>2016-01-17T07:49:11.000Z</time>
      </trkpt>
      <trkpt lat="43.96385" lon="7.26799">
        <ele>766.789856</ele>
        <time>2016-01-17T07:49:16.000Z</time>
      </trkpt>
      <trkpt lat="43.96394" lon="7.26793">
        <ele>767.438599</ele>
        <time>2016-01-17T07:49:21.000Z</time>
      </trkpt>
      <trkpt lat="43.96405" lon="7.26791">
        <ele>767.740234</ele>
        <time>2016-01-17T07:49:26.000Z</time>
      </trkpt>
      <trkpt lat="43.96415" lon="7.26794">
        <ele>768.243286</ele>
        <time>2016-01-17T07:49:31.000Z</time>
      </trkpt>
      <trkpt lat="43.96424" lon="7.26798">
        <ele>766.992432</ele>
        <time>2016-01-17T07:49:36.000Z</time>
      </trkpt>
      <trkpt lat="43.96434" lon="7.26803">
        <ele>768.036133</ele>
        <time>2016-01-17T07:49:41.000Z</time>
      </trkpt>
      <trkpt lat="43.96444" lon="7.26807">
        <ele>769.605957</ele>
        <time>2016-01-17T07:49:46.000Z</time>
      </trkpt>
      <trkpt lat="43.96454" lon="7.26813">
        <ele>768.087402</ele>
        <time>2016-01-17T07:49:51.000Z</time>
      </trkpt>
      <trkpt lat="43.96464" lon="7.26821">
        <ele>767.189514</ele>
        <time>2016-01-17T07:49:56.000Z</time>
      </trkpt>
      <trkpt lat="43.96474" lon="7.26832">
        <ele>765.723206</ele>
        <time>2016-01-17T07:50:01.000Z</time>
      </trkpt>
      <trkpt lat="43.96484" lon="7.2684">
        <ele>765.963562</ele>
        <time>2016-01-17T07:50:06.000Z</time>
      </trkpt>
      <trkpt lat="43.96492" lon="7.26846">
        <ele>766.395691</ele>
        <time>2016-01-17T07:50:11.000Z</time>
      </trkpt>
      <trkpt lat="43.96503" lon="7.26851">
        <ele>768.790222</ele>
        <time>2016-01-17T07:50:16.000Z</time>
      </trkpt>
      <trkpt lat="43.96513" lon="7.26849">
        <ele>772.501465</ele>
        <time>2016-01-17T07:50:21.000Z</time>
      </trkpt>
      <trkpt lat="43.96522" lon="7.26848">
        <ele>773.300476</ele>
        <time>2016-01-17T07:50:26.000Z</time>
      </trkpt>
      <trkpt lat="43.96532" lon="7.26844">
        <ele>776.73822</ele>
        <time>2016-01-17T07:50:31.000Z</time>
      </trkpt>
      <trkpt lat="43.96541" lon="7.26843">
        <ele>777.786804</ele>
        <time>2016-01-17T07:50:36.000Z</time>
      </trkpt>
      <trkpt lat="43.96551" lon="7.26843">
        <ele>776.98999</ele>
        <time>2016-01-17T07:50:41.000Z</time>
      </trkpt>
      <trkpt lat="43.9656" lon="7.26844">
        <ele>777.730408</ele>
        <time>2016-01-17T07:50:46.000Z</time>
      </trkpt>
      <trkpt lat="43.9657" lon="7.26846">
        <ele>778.242676</ele>
        <time>2016-01-17T07:50:51.000Z</time>
      </trkpt>
      <trkpt lat="43.96579" lon="7.26847">
        <ele>779.68866</ele>
        <time>2016-01-17T07:50:56.000Z</time>
      </trkpt>
      <trkpt lat="43.96587" lon="7.26845">
        <ele>780.965759</ele>
        <time>2016-01-17T07:51:01.000Z</time>
      </trkpt>
      <trkpt lat="43.96596" lon="7.26845">
        <ele>780.407349</ele>
        <time>2016-01-17T07:51:06.000Z</time>
      </trkpt>
      <trkpt lat="43.96603" lon="7.26842">
        <ele>783.675354</ele>
        <time>2016-01-17T07:51:11.000Z</time>
      </trkpt>
      <trkpt lat="43.96612" lon="7.2684">
        <ele>783.13031</ele>
        <time>2016-01-17T07:51:16.000Z</time>
      </trkpt>
      <trkpt lat="43.96619" lon="7.26836">
        <ele>784.979736</ele>
        <time>2016-01-17T07:51:21.000Z</time>
      </trkpt>
      <trkpt lat="43.96628" lon="7.26833">
        <ele>787.356079</ele>
        <time>2016-01-17T07:51:26.000Z</time>
      </trkpt>
      <trkpt lat="43.96635" lon="7.26831">
        <ele>788.958862</ele>
        <time>2016-01-17T07:51:31.000Z</time>
      </trkpt>
      <trkpt lat="43.96642" lon="7.26828">
        <ele>790.990906</ele>
        <time>2016-01-17T07:51:36.000Z</time>
      </trkpt>
      <trkpt lat="43.9665" lon="7.26825">
        <ele>791.430725</ele>
        <time>2016-01-17T07:51:41.000Z</time>
      </trkpt>
      <trkpt lat="43.96658" lon="7.26821">
        <ele>789.960266</ele>
        <time>2016-01-17T07:51:46.000Z</time>
      </trkpt>
      <trkpt lat="43.96664" lon="7.26816">
        <ele>790.484253</ele>
        <time>2016-01-17T07:51:51.000Z</time>
      </trkpt>
      <trkpt lat="43.96669" lon="7.2681">
        <ele>790.831116</ele>
        <time>2016-01-17T07:51:56.000Z</time>
      </trkpt>
      <trkpt lat="43.96673" lon="7.26803">
        <ele>791.588562</ele>
        <time>2016-01-17T07:52:01.000Z</time>
      </trkpt>
      <trkpt lat="43.96678" lon="7.26797">
        <ele>792.381592</ele>
        <time>2016-01-17T07:52:06.000Z</time>
      </trkpt>
      <trkpt lat="43.96681" lon="7.26791">
        <ele>793.411743</ele>
        <time>2016-01-17T07:52:11.000Z</time>
      </trkpt>
      <trkpt lat="43.96685" lon="7.26784">
        <ele>794.028076</ele>
        <time>2016-01-17T07:52:16.000Z</time>
      </trkpt>
      <trkpt lat="43.9669" lon="7.26777">
        <ele>794.672607</ele>
        <time>2016-01-17T07:52:21.000Z</time>
      </trkpt>
      <trkpt lat="43.96695" lon="7.26769">
        <ele>794.729736</ele>
        <time>2016-01-17T07:52:26.000Z</time>
      </trkpt>
      <trkpt lat="43.967" lon="7.26761">
        <ele>796.222046</ele>
        <time>2016-01-17T07:52:31.000Z</time>
      </trkpt>
      <trkpt lat="43.96705" lon="7.26755">
        <ele>797.680542</ele>
        <time>2016-01-17T07:52:36.000Z</time>
      </trkpt>
      <trkpt lat="43.96712" lon="7.26753">
        <ele>799.551208</ele>
        <time>2016-01-17T07:52:41.000Z</time>
      </trkpt>
      <trkpt lat="43.9672" lon="7.26752">
        <ele>800.812378</ele>
        <time>2016-01-17T07:52:46.000Z</time>
      </trkpt>
      <trkpt lat="43.96726" lon="7.26752">
        <ele>801.020569</ele>
        <time>2016-01-17T07:52:51.000Z</time>
      </trkpt>
      <trkpt lat="43.96733" lon="7.2675">
        <ele>801.031128</ele>
        <time>2016-01-17T07:52:56.000Z</time>
      </trkpt>
      <trkpt lat="43.9674" lon="7.26744">
        <ele>802.003052</ele>
        <time>2016-01-17T07:53:01.000Z</time>
      </trkpt>
      <trkpt lat="43.96747" lon="7.2674">
        <ele>803.394714</ele>
        <time>2016-01-17T07:53:06.000Z</time>
      </trkpt>
      <trkpt lat="43.96752" lon="7.26732">
        <ele>804.742126</ele>
        <time>2016-01-17T07:53:11.000Z</time>
      </trkpt>
      <trkpt lat="43.96754" lon="7.26722">
        <ele>805.161377</ele>
        <time>2016-01-17T07:53:16.000Z</time>
      </trkpt>
      <trkpt lat="43.96758" lon="7.26711">
        <ele>805.74054</ele>
        <time>2016-01-17T07:53:21.000Z</time>
      </trkpt>
      <trkpt lat="43.96764" lon="7.26702">
        <ele>805.773193</ele>
        <time>2016-01-17T07:53:26.000Z</time>
      </trkpt>
      <trkpt lat="43.96771" lon="7.26698">
        <ele>806.308716</ele>
        <time>2016-01-17T07:53:31.000Z</time>
      </trkpt>
      <trkpt lat="43.96778" lon="7.26699">
        <ele>808.303528</ele>
        <time>2016-01-17T07:53:36.000Z</time>
      </trkpt>
      <trkpt lat="43.96784" lon="7.26699">
        <ele>810.539917</ele>
        <time>2016-01-17T07:53:41.000Z</time>
      </trkpt>
      <trkpt lat="43.96792" lon="7.26699">
        <ele>810.872192</ele>
        <time>2016-01-17T07:53:46.000Z</time>
      </trkpt>
      <trkpt lat="43.96799" lon="7.26701">
        <ele>811.651001</ele>
        <time>2016-01-17T07:53:51.000Z</time>
      </trkpt>
      <trkpt lat="43.96806" lon="7.26703">
        <ele>811.821777</ele>
        <time>2016-01-17T07:53:56.000Z</time>
      </trkpt>
      <trkpt lat="43.96813" lon="7.26701">
        <ele>812.410828</ele>
        <time>2016-01-17T07:54:01.000Z</time>
      </trkpt>
      <trkpt lat="43.9682" lon="7.26699">
        <ele>813.771729</ele>
        <time>2016-01-17T07:54:06.000Z</time>
      </trkpt>
      <trkpt lat="43.96827" lon="7.26696">
        <ele>814.859436</ele>
        <time>2016-01-17T07:54:11.000Z</time>
      </trkpt>
      <trkpt lat="43.96833" lon="7.26695">
        <ele>816.63269</ele>
        <time>2016-01-17T07:54:16.000Z</time>
      </trkpt>
      <trkpt lat="43.9684" lon="7.26697">
        <ele>817.676453</ele>
        <time>2016-01-17T07:54:21.000Z</time>
      </trkpt>
      <trkpt lat="43.96847" lon="7.26698">
        <ele>818.457642</ele>
        <time>2016-01-17T07:54:26.000Z</time>
      </trkpt>
      <trkpt lat="43.96855" lon="7.26695">
        <ele>819.299866</ele>
        <time>2016-01-17T07:54:31.000Z</time>
      </trkpt>
      <trkpt lat="43.96861" lon="7.26691">
        <ele>819.954773</ele>
        <time>2016-01-17T07:54:36.000Z</time>
      </trkpt>
      <trkpt lat="43.96868" lon="7.26688">
        <ele>820.25293</ele>
        <time>2016-01-17T07:54:41.000Z</time>
      </trkpt>
      <trkpt lat="43.96874" lon="7.26687">
        <ele>820.289856</ele>
        <time>2016-01-17T07:54:46.000Z</time>
      </trkpt>
      <trkpt lat="43.96876" lon="7.26696">
        <ele>820.501221</ele>
        <time>2016-01-17T07:54:51.000Z</time>
      </trkpt>
      <trkpt lat="43.96876" lon="7.26707">
        <ele>820.852783</ele>
        <time>2016-01-17T07:54:56.000Z</time>
      </trkpt>
      <trkpt lat="43.96877" lon="7.26719">
        <ele>821.495972</ele>
        <time>2016-01-17T07:55:01.000Z</time>
      </trkpt>
      <trkpt lat="43.9688" lon="7.2673">
        <ele>821.790955</ele>
        <time>2016-01-17T07:55:06.000Z</time>
      </trkpt>
      <trkpt lat="43.96886" lon="7.2674">
        <ele>822.627441</ele>
        <time>2016-01-17T07:55:11.000Z</time>
      </trkpt>
      <trkpt lat="43.96893" lon="7.26748">
        <ele>823.164368</ele>
        <time>2016-01-17T07:55:16.000Z</time>
      </trkpt>
      <trkpt lat="43.96898" lon="7.26758">
        <ele>823.609314</ele>
        <time>2016-01-17T07:55:21.000Z</time>
      </trkpt>
      <trkpt lat="43.96904" lon="7.2677">
        <ele>823.200378</ele>
        <time>2016-01-17T07:55:26.000Z</time>
      </trkpt>
      <trkpt lat="43.96911" lon="7.26781">
        <ele>823.394531</ele>
        <time>2016-01-17T07:55:31.000Z</time>
      </trkpt>
      <trkpt lat="43.96917" lon="7.26792">
        <ele>825.764099</ele>
        <time>2016-01-17T07:55:36.000Z</time>
      </trkpt>
      <trkpt lat="43.96921" lon="7.26804">
        <ele>826.79425</ele>
        <time>2016-01-17T07:55:41.000Z</time>
      </trkpt>
      <trkpt lat="43.96928" lon="7.26814">
        <ele>827.221375</ele>
        <time>2016-01-17T07:55:46.000Z</time>
      </trkpt>
      <trkpt lat="43.96936" lon="7.26822">
        <ele>826.052246</ele>
        <time>2016-01-17T07:55:51.000Z</time>
      </trkpt>
      <trkpt lat="43.96946" lon="7.26821">
        <ele>826.93457</ele>
        <time>2016-01-17T07:55:56.000Z</time>
      </trkpt>
      <trkpt lat="43.96956" lon="7.26814">
        <ele>826.803589</ele>
        <time>2016-01-17T07:56:01.000Z</time>
      </trkpt>
      <trkpt lat="43.96969" lon="7.26814">
        <ele>828.91748</ele>
        <time>2016-01-17T07:56:06.000Z</time>
      </trkpt>
      <trkpt lat="43.9698" lon="7.26814">
        <ele>829.991333</ele>
        <time>2016-01-17T07:56:11.000Z</time>
      </trkpt>
      <trkpt lat="43.96992" lon="7.26805">
        <ele>829.423279</ele>
        <time>2016-01-17T07:56:16.000Z</time>
      </trkpt>
      <trkpt lat="43.97004" lon="7.26802">
        <ele>830.703796</ele>
        <time>2016-01-17T07:56:21.000Z</time>
      </trkpt>
      <trkpt lat="43.97014" lon="7.2681">
        <ele>832.498474</ele>
        <time>2016-01-17T07:56:26.000Z</time>
      </trkpt>
      <trkpt lat="43.97027" lon="7.26811">
        <ele>834.371765</ele>
        <time>2016-01-17T07:56:31.000Z</time>
      </trkpt>
      <trkpt lat="43.97039" lon="7.26812">
        <ele>835.313843</ele>
        <time>2016-01-17T07:56:36.000Z</time>
      </trkpt>
      <trkpt lat="43.97052" lon="7.26815">
        <ele>835.586426</ele>
        <time>2016-01-17T07:56:41.000Z</time>
      </trkpt>
      <trkpt lat="43.97064" lon="7.2682">
        <ele>835.528748</ele>
        <time>2016-01-17T07:56:46.000Z</time>
      </trkpt>
      <trkpt lat="43.97076" lon="7.26827">
        <ele>836.230164</ele>
        <time>2016-01-17T07:56:51.000Z</time>
      </trkpt>
      <trkpt lat="43.97084" lon="7.26836">
        <ele>836.253479</ele>
        <time>2016-01-17T07:56:56.000Z</time>
      </trkpt>
      <trkpt lat="43.97095" lon="7.26836">
        <ele>837.010315</ele>
        <time>2016-01-17T07:57:01.000Z</time>
      </trkpt>
      <trkpt lat="43.97108" lon="7.26841">
        <ele>837.273376</ele>
        <time>2016-01-17T07:57:06.000Z</time>
      </trkpt>
      <trkpt lat="43.97121" lon="7.26847">
        <ele>837.94696</ele>
        <time>2016-01-17T07:57:11.000Z</time>
      </trkpt>
      <trkpt lat="43.97134" lon="7.26851">
        <ele>838.783997</ele>
        <time>2016-01-17T07:57:16.000Z</time>
      </trkpt>
      <trkpt lat="43.97147" lon="7.26852">
        <ele>839.082275</ele>
        <time>2016-01-17T07:57:21.000Z</time>
      </trkpt>
      <trkpt lat="43.97161" lon="7.26853">
        <ele>839.277954</ele>
        <time>2016-01-17T07:57:26.000Z</time>
      </trkpt>
      <trkpt lat="43.9717" lon="7.26864">
        <ele>839.445923</ele>
        <time>2016-01-17T07:57:31.000Z</time>
      </trkpt>
      <trkpt lat="43.97171" lon="7.26881">
        <ele>840.299133</ele>
        <time>2016-01-17T07:57:36.000Z</time>
      </trkpt>
      <trkpt lat="43.97181" lon="7.26888">
        <ele>841.109558</ele>
        <time>2016-01-17T07:57:41.000Z</time>
      </trkpt>
      <trkpt lat="43.97194" lon="7.26884">
        <ele>841.889465</ele>
        <time>2016-01-17T07:57:46.000Z</time>
      </trkpt>
      <trkpt lat="43.97205" lon="7.26893">
        <ele>840.891785</ele>
        <time>2016-01-17T07:57:51.000Z</time>
      </trkpt>
      <trkpt lat="43.9721" lon="7.26906">
        <ele>841.099243</ele>
        <time>2016-01-17T07:57:56.000Z</time>
      </trkpt>
      <trkpt lat="43.97217" lon="7.26916">
        <ele>840.339722</ele>
        <time>2016-01-17T07:58:01.000Z</time>
      </trkpt>
      <trkpt lat="43.97225" lon="7.26925">
        <ele>840.045288</ele>
        <time>2016-01-17T07:58:06.000Z</time>
      </trkpt>
      <trkpt lat="43.97231" lon="7.26937">
        <ele>841.257751</ele>
        <time>2016-01-17T07:58:11.000Z</time>
      </trkpt>
      <trkpt lat="43.97235" lon="7.26949">
        <ele>841.710571</ele>
        <time>2016-01-17T07:58:16.000Z</time>
      </trkpt>
      <trkpt lat="43.97241" lon="7.26961">
        <ele>843.007202</ele>
        <time>2016-01-17T07:58:21.000Z</time>
      </trkpt>
      <trkpt lat="43.97244" lon="7.26973">
        <ele>843.900208</ele>
        <time>2016-01-17T07:58:26.000Z</time>
      </trkpt>
      <trkpt lat="43.97251" lon="7.26983">
        <ele>843.982971</ele>
        <time>2016-01-17T07:58:31.000Z</time>
      </trkpt>
      <trkpt lat="43.97259" lon="7.26979">
        <ele>845.727234</ele>
        <time>2016-01-17T07:58:36.000Z</time>
      </trkpt>
      <trkpt lat="43.9726" lon="7.26964">
        <ele>848.014893</ele>
        <time>2016-01-17T07:58:41.000Z</time>
      </trkpt>
      <trkpt lat="43.97264" lon="7.26946">
        <ele>849.150757</ele>
        <time>2016-01-17T07:58:46.000Z</time>
      </trkpt>
      <trkpt lat="43.97268" lon="7.26926">
        <ele>847.832642</ele>
        <time>2016-01-17T07:58:51.000Z</time>
      </trkpt>
      <trkpt lat="43.97274" lon="7.26908">
        <ele>847.879883</ele>
        <time>2016-01-17T07:58:56.000Z</time>
      </trkpt>
      <trkpt lat="43.97281" lon="7.26896">
        <ele>849.907715</ele>
        <time>2016-01-17T07:59:01.000Z</time>
      </trkpt>
      <trkpt lat="43.97288" lon="7.26888">
        <ele>850.299011</ele>
        <time>2016-01-17T07:59:06.000Z</time>
      </trkpt>
      <trkpt lat="43.97289" lon="7.26884">
        <ele>850.523865</ele>
        <time>2016-01-17T07:59:11.000Z</time>
      </trkpt>
      <trkpt lat="43.97289" lon="7.26884">
        <ele>850.381836</ele>
        <time>2016-01-17T07:59:16.000Z</time>
      </trkpt>
      <trkpt lat="43.97289" lon="7.26884">
        <ele>850.266113</ele>
        <time>2016-01-17T07:59:21.000Z</time>
      </trkpt>
      <trkpt lat="43.97291" lon="7.26884">
        <ele>850.328369</ele>
        <time>2016-01-17T07:59:26.000Z</time>
      </trkpt>
      <trkpt lat="43.97293" lon="7.26885">
        <ele>850.539001</ele>
        <time>2016-01-17T07:59:31.000Z</time>
      </trkpt>
      <trkpt lat="43.97293" lon="7.26885">
        <ele>850.110657</ele>
        <time>2016-01-17T07:59:36.000Z</time>
      </trkpt>
      <trkpt lat="43.97292" lon="7.26884">
        <ele>849.914429</ele>
        <time>2016-01-17T07:59:41.000Z</time>
      </trkpt>
      <trkpt lat="43.97292" lon="7.26885">
        <ele>850.074158</ele>
        <time>2016-01-17T07:59:46.000Z</time>
      </trkpt>
      <trkpt lat="43.97292" lon="7.26884">
        <ele>850.146851</ele>
        <time>2016-01-17T07:59:51.000Z</time>
      </trkpt>
      <trkpt lat="43.97292" lon="7.26885">
        <ele>850.134338</ele>
        <time>2016-01-17T07:59:56.000Z</time>
      </trkpt>
      <trkpt lat="43.97292" lon="7.26885">
        <ele>850.102234</ele>
        <time>2016-01-17T08:00:01.000Z</time>
      </trkpt>
      <trkpt lat="43.97292" lon="7.26885">
        <ele>850.076599</ele>
        <time>2016-01-17T08:00:06.000Z</time>
      </trkpt>
      <trkpt lat="43.97292" lon="7.26885">
        <ele>850.068665</ele>
        <time>2016-01-17T08:00:11.000Z</time>
      </trkpt>
      <trkpt lat="43.97292" lon="7.26884">
        <ele>850.067993</ele>
        <time>2016-01-17T08:00:16.000Z</time>
      </trkpt>
      <trkpt lat="43.9729" lon="7.26884">
        <ele>850.456055</ele>
        <time>2016-01-17T08:00:21.000Z</time>
      </trkpt>
      <trkpt lat="43.9729" lon="7.26883">
        <ele>850.809937</ele>
        <time>2016-01-17T08:00:26.000Z</time>
      </trkpt>
      <trkpt lat="43.9729" lon="7.26884">
        <ele>850.763916</ele>
        <time>2016-01-17T08:00:31.000Z</time>
      </trkpt>
      <trkpt lat="43.97288" lon="7.26881">
        <ele>851.392883</ele>
        <time>2016-01-17T08:00:36.000Z</time>
      </trkpt>
      <trkpt lat="43.97289" lon="7.26882">
        <ele>851.492859</ele>
        <time>2016-01-17T08:00:41.000Z</time>
      </trkpt>
      <trkpt lat="43.97291" lon="7.26883">
        <ele>851.846375</ele>
        <time>2016-01-17T08:00:46.000Z</time>
      </trkpt>
      <trkpt lat="43.97291" lon="7.26884">
        <ele>852.325073</ele>
        <time>2016-01-17T08:00:51.000Z</time>
      </trkpt>
      <trkpt lat="43.97292" lon="7.26884">
        <ele>852.876709</ele>
        <time>2016-01-17T08:00:56.000Z</time>
      </trkpt>
      <trkpt lat="43.97291" lon="7.26883">
        <ele>852.995056</ele>
        <time>2016-01-17T08:01:01.000Z</time>
      </trkpt>
      <trkpt lat="43.97298" lon="7.26885">
        <ele>853.212158</ele>
        <time>2016-01-17T08:01:06.000Z</time>
      </trkpt>
      <trkpt lat="43.97305" lon="7.26888">
        <ele>853.821228</ele>
        <time>2016-01-17T08:01:11.000Z</time>
      </trkpt>
      <trkpt lat="43.97313" lon="7.26892">
        <ele>853.760254</ele>
        <time>2016-01-17T08:01:16.000Z</time>
      </trkpt>
      <trkpt lat="43.97321" lon="7.26897">
        <ele>854.3172</ele>
        <time>2016-01-17T08:01:21.000Z</time>
      </trkpt>
      <trkpt lat="43.9733" lon="7.26904">
        <ele>854.822815</ele>
        <time>2016-01-17T08:01:26.000Z</time>
      </trkpt>
      <trkpt lat="43.97337" lon="7.26912">
        <ele>854.703735</ele>
        <time>2016-01-17T08:01:31.000Z</time>
      </trkpt>
      <trkpt lat="43.97346" lon="7.26919">
        <ele>854.220642</ele>
        <time>2016-01-17T08:01:36.000Z</time>
      </trkpt>
      <trkpt lat="43.97358" lon="7.26922">
        <ele>854.547241</ele>
        <time>2016-01-17T08:01:41.000Z</time>
      </trkpt>
      <trkpt lat="43.97369" lon="7.26922">
        <ele>854.859802</ele>
        <time>2016-01-17T08:01:46.000Z</time>
      </trkpt>
      <trkpt lat="43.97379" lon="7.26923">
        <ele>854.856506</ele>
        <time>2016-01-17T08:01:51.000Z</time>
      </trkpt>
      <trkpt lat="43.9739" lon="7.26921">
        <ele>856.269409</ele>
        <time>2016-01-17T08:01:56.000Z</time>
      </trkpt>
      <trkpt lat="43.974" lon="7.26921">
        <ele>860.021667</ele>
        <time>2016-01-17T08:02:01.000Z</time>
      </trkpt>
      <trkpt lat="43.97408" lon="7.2691">
        <ele>860.511902</ele>
        <time>2016-01-17T08:02:06.000Z</time>
      </trkpt>
      <trkpt lat="43.97403" lon="7.26899">
        <ele>861.988831</ele>
        <time>2016-01-17T08:02:11.000Z</time>
      </trkpt>
      <trkpt lat="43.97394" lon="7.26894">
        <ele>863.132568</ele>
        <time>2016-01-17T08:02:16.000Z</time>
      </trkpt>
      <trkpt lat="43.97387" lon="7.26886">
        <ele>864.343079</ele>
        <time>2016-01-17T08:02:21.000Z</time>
      </trkpt>
      <trkpt lat="43.9738" lon="7.26876">
        <ele>866.573059</ele>
        <time>2016-01-17T08:02:26.000Z</time>
      </trkpt>
      <trkpt lat="43.97376" lon="7.26865">
        <ele>867.168396</ele>
        <time>2016-01-17T08:02:31.000Z</time>
      </trkpt>
      <trkpt lat="43.97377" lon="7.26853">
        <ele>868.534546</ele>
        <time>2016-01-17T08:02:36.000Z</time>
      </trkpt>
      <trkpt lat="43.9738" lon="7.2684">
        <ele>870.203125</ele>
        <time>2016-01-17T08:02:41.000Z</time>
      </trkpt>
      <trkpt lat="43.97379" lon="7.26827">
        <ele>871.453125</ele>
        <time>2016-01-17T08:02:46.000Z</time>
      </trkpt>
      <trkpt lat="43.97374" lon="7.26817">
        <ele>871.692017</ele>
        <time>2016-01-17T08:02:51.000Z</time>
      </trkpt>
      <trkpt lat="43.97368" lon="7.26806">
        <ele>872.478455</ele>
        <time>2016-01-17T08:02:56.000Z</time>
      </trkpt>
      <trkpt lat="43.97368" lon="7.26794">
        <ele>874.437927</ele>
        <time>2016-01-17T08:03:01.000Z</time>
      </trkpt>
      <trkpt lat="43.97369" lon="7.26782">
        <ele>875.624329</ele>
        <time>2016-01-17T08:03:06.000Z</time>
      </trkpt>
      <trkpt lat="43.9737" lon="7.26772">
        <ele>877.202026</ele>
        <time>2016-01-17T08:03:11.000Z</time>
      </trkpt>
      <trkpt lat="43.97369" lon="7.26762">
        <ele>878.054932</ele>
        <time>2016-01-17T08:03:16.000Z</time>
      </trkpt>
      <trkpt lat="43.97362" lon="7.26757">
        <ele>878.73584</ele>
        <time>2016-01-17T08:03:21.000Z</time>
      </trkpt>
      <trkpt lat="43.97353" lon="7.26755">
        <ele>879.807617</ele>
        <time>2016-01-17T08:03:26.000Z</time>
      </trkpt>
      <trkpt lat="43.97346" lon="7.26753">
        <ele>880.092407</ele>
        <time>2016-01-17T08:03:31.000Z</time>
      </trkpt>
      <trkpt lat="43.97338" lon="7.26748">
        <ele>881.529785</ele>
        <time>2016-01-17T08:03:36.000Z</time>
      </trkpt>
      <trkpt lat="43.97332" lon="7.26741">
        <ele>882.06427</ele>
        <time>2016-01-17T08:03:41.000Z</time>
      </trkpt>
      <trkpt lat="43.97331" lon="7.2673">
        <ele>883.979919</ele>
        <time>2016-01-17T08:03:46.000Z</time>
      </trkpt>
      <trkpt lat="43.97328" lon="7.26722">
        <ele>884.359192</ele>
        <time>2016-01-17T08:03:51.000Z</time>
      </trkpt>
      <trkpt lat="43.97323" lon="7.26718">
        <ele>886.008179</ele>
        <time>2016-01-17T08:03:56.000Z</time>
      </trkpt>
      <trkpt lat="43.97318" lon="7.26714">
        <ele>886.747253</ele>
        <time>2016-01-17T08:04:01.000Z</time>
      </trkpt>
      <trkpt lat="43.97313" lon="7.2671">
        <ele>888.421875</ele>
        <time>2016-01-17T08:04:06.000Z</time>
      </trkpt>
      <trkpt lat="43.97307" lon="7.26706">
        <ele>889.373535</ele>
        <time>2016-01-17T08:04:11.000Z</time>
      </trkpt>
      <trkpt lat="43.97303" lon="7.267">
        <ele>890.719177</ele>
        <time>2016-01-17T08:04:16.000Z</time>
      </trkpt>
      <trkpt lat="43.97299" lon="7.26692">
        <ele>891.397766</ele>
        <time>2016-01-17T08:04:21.000Z</time>
      </trkpt>
      <trkpt lat="43.97296" lon="7.26684">
        <ele>892.002441</ele>
        <time>2016-01-17T08:04:26.000Z</time>
      </trkpt>
      <trkpt lat="43.97295" lon="7.26675">
        <ele>892.925354</ele>
        <time>2016-01-17T08:04:31.000Z</time>
      </trkpt>
      <trkpt lat="43.97295" lon="7.26667">
        <ele>893.931335</ele>
        <time>2016-01-17T08:04:36.000Z</time>
      </trkpt>
      <trkpt lat="43.97296" lon="7.26659">
        <ele>895.108948</ele>
        <time>2016-01-17T08:04:41.000Z</time>
      </trkpt>
      <trkpt lat="43.97297" lon="7.26651">
        <ele>895.797058</ele>
        <time>2016-01-17T08:04:46.000Z</time>
      </trkpt>
      <trkpt lat="43.97297" lon="7.26643">
        <ele>897.672668</ele>
        <time>2016-01-17T08:04:51.000Z</time>
      </trkpt>
      <trkpt lat="43.97293" lon="7.26637">
        <ele>898.653259</ele>
        <time>2016-01-17T08:04:56.000Z</time>
      </trkpt>
      <trkpt lat="43.97287" lon="7.26634">
        <ele>899.748413</ele>
        <time>2016-01-17T08:05:01.000Z</time>
      </trkpt>
      <trkpt lat="43.97282" lon="7.2663">
        <ele>900.753479</ele>
        <time>2016-01-17T08:05:06.000Z</time>
      </trkpt>
      <trkpt lat="43.97276" lon="7.26627">
        <ele>901.61731</ele>
        <time>2016-01-17T08:05:11.000Z</time>
      </trkpt>
      <trkpt lat="43.97271" lon="7.26623">
        <ele>902.478455</ele>
        <time>2016-01-17T08:05:16.000Z</time>
      </trkpt>
      <trkpt lat="43.97266" lon="7.2662">
        <ele>902.471191</ele>
        <time>2016-01-17T08:05:21.000Z</time>
      </trkpt>
      <trkpt lat="43.97261" lon="7.26616">
        <ele>903.497131</ele>
        <time>2016-01-17T08:05:26.000Z</time>
      </trkpt>
      <trkpt lat="43.97258" lon="7.26609">
        <ele>904.470886</ele>
        <time>2016-01-17T08:05:31.000Z</time>
      </trkpt>
      <trkpt lat="43.97262" lon="7.26599">
        <ele>903.734741</ele>
        <time>2016-01-17T08:05:36.000Z</time>
      </trkpt>
      <trkpt lat="43.97265" lon="7.26593">
        <ele>903.899841</ele>
        <time>2016-01-17T08:05:41.000Z</time>
      </trkpt>
      <trkpt lat="43.97268" lon="7.26586">
        <ele>904.520813</ele>
        <time>2016-01-17T08:05:46.000Z</time>
      </trkpt>
      <trkpt lat="43.97271" lon="7.2658">
        <ele>905.067078</ele>
        <time>2016-01-17T08:05:51.000Z</time>
      </trkpt>
      <trkpt lat="43.9727" lon="7.26573">
        <ele>906.505737</ele>
        <time>2016-01-17T08:05:56.000Z</time>
      </trkpt>
      <trkpt lat="43.9727" lon="7.26565">
        <ele>907.739197</ele>
        <time>2016-01-17T08:06:01.000Z</time>
      </trkpt>
      <trkpt lat="43.9727" lon="7.26557">
        <ele>909.625183</ele>
        <time>2016-01-17T08:06:06.000Z</time>
      </trkpt>
      <trkpt lat="43.97274" lon="7.26547">
        <ele>906.7995</ele>
        <time>2016-01-17T08:06:11.000Z</time>
      </trkpt>
      <trkpt lat="43.97277" lon="7.26538">
        <ele>906.735535</ele>
        <time>2016-01-17T08:06:16.000Z</time>
      </trkpt>
      <trkpt lat="43.97279" lon="7.26532">
        <ele>907.466736</ele>
        <time>2016-01-17T08:06:21.000Z</time>
      </trkpt>
      <trkpt lat="43.97283" lon="7.26526">
        <ele>907.785461</ele>
        <time>2016-01-17T08:06:26.000Z</time>
      </trkpt>
      <trkpt lat="43.97285" lon="7.26519">
        <ele>909.519226</ele>
        <time>2016-01-17T08:06:31.000Z</time>
      </trkpt>
      <trkpt lat="43.97285" lon="7.26511">
        <ele>911.244507</ele>
        <time>2016-01-17T08:06:36.000Z</time>
      </trkpt>
      <trkpt lat="43.97283" lon="7.26503">
        <ele>913.730225</ele>
        <time>2016-01-17T08:06:41.000Z</time>
      </trkpt>
      <trkpt lat="43.9728" lon="7.26496">
        <ele>915.878906</ele>
        <time>2016-01-17T08:06:46.000Z</time>
      </trkpt>
      <trkpt lat="43.97277" lon="7.2649">
        <ele>917.424011</ele>
        <time>2016-01-17T08:06:51.000Z</time>
      </trkpt>
      <trkpt lat="43.97274" lon="7.26484">
        <ele>918.286255</ele>
        <time>2016-01-17T08:06:56.000Z</time>
      </trkpt>
      <trkpt lat="43.97271" lon="7.26478">
        <ele>918.895874</ele>
        <time>2016-01-17T08:07:01.000Z</time>
      </trkpt>
      <trkpt lat="43.97267" lon="7.26472">
        <ele>919.681824</ele>
        <time>2016-01-17T08:07:06.000Z</time>
      </trkpt>
      <trkpt lat="43.97264" lon="7.26465">
        <ele>919.968384</ele>
        <time>2016-01-17T08:07:11.000Z</time>
      </trkpt>
      <trkpt lat="43.97262" lon="7.26457">
        <ele>920.318359</ele>
        <time>2016-01-17T08:07:16.000Z</time>
      </trkpt>
      <trkpt lat="43.97262" lon="7.26449">
        <ele>920.046387</ele>
        <time>2016-01-17T08:07:21.000Z</time>
      </trkpt>
      <trkpt lat="43.9726" lon="7.2644">
        <ele>919.986084</ele>
        <time>2016-01-17T08:07:26.000Z</time>
      </trkpt>
      <trkpt lat="43.97262" lon="7.26434">
        <ele>920.009521</ele>
        <time>2016-01-17T08:07:31.000Z</time>
      </trkpt>
      <trkpt lat="43.97262" lon="7.26432">
        <ele>920.018127</ele>
        <time>2016-01-17T08:07:36.000Z</time>
      </trkpt>
      <trkpt lat="43.97262" lon="7.26432">
        <ele>919.89679</ele>
        <time>2016-01-17T08:07:41.000Z</time>
      </trkpt>
      <trkpt lat="43.97262" lon="7.26432">
        <ele>919.85614</ele>
        <time>2016-01-17T08:07:46.000Z</time>
      </trkpt>
      <trkpt lat="43.97262" lon="7.26432">
        <ele>919.875</ele>
        <time>2016-01-17T08:07:51.000Z</time>
      </trkpt>
      <trkpt lat="43.97262" lon="7.26432">
        <ele>919.900024</ele>
        <time>2016-01-17T08:07:56.000Z</time>
      </trkpt>
      <trkpt lat="43.97262" lon="7.26432">
        <ele>919.931458</ele>
        <time>2016-01-17T08:08:01.000Z</time>
      </trkpt>
      <trkpt lat="43.97262" lon="7.26432">
        <ele>919.970032</ele>
        <time>2016-01-17T08:08:06.000Z</time>
      </trkpt>
      <trkpt lat="43.97262" lon="7.26432">
        <ele>920.012085</ele>
        <time>2016-01-17T08:08:11.000Z</time>
      </trkpt>
      <trkpt lat="43.97262" lon="7.26432">
        <ele>920.050415</ele>
        <time>2016-01-17T08:08:16.000Z</time>
      </trkpt>
      <trkpt lat="43.97262" lon="7.26432">
        <ele>920.091125</ele>
        <time>2016-01-17T08:08:21.000Z</time>
      </trkpt>
      <trkpt lat="43.97262" lon="7.26432">
        <ele>920.131592</ele>
        <time>2016-01-17T08:08:26.000Z</time>
      </trkpt>
      <trkpt lat="43.97262" lon="7.26432">
        <ele>920.184387</ele>
        <time>2016-01-17T08:08:31.000Z</time>
      </trkpt>
      <trkpt lat="43.97262" lon="7.26432">
        <ele>920.22522</ele>
        <time>2016-01-17T08:08:36.000Z</time>
      </trkpt>
      <trkpt lat="43.97262" lon="7.26432">
        <ele>920.265747</ele>
        <time>2016-01-17T08:08:41.000Z</time>
      </trkpt>
      <trkpt lat="43.97262" lon="7.26432">
        <ele>920.297729</ele>
        <time>2016-01-17T08:08:46.000Z</time>
      </trkpt>
      <trkpt lat="43.97265" lon="7.26433">
        <ele>920.025513</ele>
        <time>2016-01-17T08:08:51.000Z</time>
      </trkpt>
      <trkpt lat="43.97272" lon="7.2644">
        <ele>918.991638</ele>
        <time>2016-01-17T08:08:56.000Z</time>
      </trkpt>
      <trkpt lat="43.97282" lon="7.2645">
        <ele>917.645447</ele>
        <time>2016-01-17T08:09:01.000Z</time>
      </trkpt>
      <trkpt lat="43.97294" lon="7.26447">
        <ele>916.301331</ele>
        <time>2016-01-17T08:09:06.000Z</time>
      </trkpt>
      <trkpt lat="43.97304" lon="7.26437">
        <ele>916.476624</ele>
        <time>2016-01-17T08:09:11.000Z</time>
      </trkpt>
      <trkpt lat="43.97312" lon="7.26424">
        <ele>917.299255</ele>
        <time>2016-01-17T08:09:16.000Z</time>
      </trkpt>
      <trkpt lat="43.97316" lon="7.26407">
        <ele>918.315857</ele>
        <time>2016-01-17T08:09:21.000Z</time>
      </trkpt>
      <trkpt lat="43.97321" lon="7.26391">
        <ele>918.601868</ele>
        <time>2016-01-17T08:09:26.000Z</time>
      </trkpt>
      <trkpt lat="43.97323" lon="7.26374">
        <ele>919.200378</ele>
        <time>2016-01-17T08:09:31.000Z</time>
      </trkpt>
      <trkpt lat="43.97325" lon="7.26358">
        <ele>919.657227</ele>
        <time>2016-01-17T08:09:36.000Z</time>
      </trkpt>
      <trkpt lat="43.97327" lon="7.26341">
        <ele>920.070862</ele>
        <time>2016-01-17T08:09:41.000Z</time>
      </trkpt>
      <trkpt lat="43.97331" lon="7.26326">
        <ele>920.164124</ele>
        <time>2016-01-17T08:09:46.000Z</time>
      </trkpt>
      <trkpt lat="43.9734" lon="7.26318">
        <ele>920.70343</ele>
        <time>2016-01-17T08:09:51.000Z</time>
      </trkpt>
      <trkpt lat="43.97351" lon="7.26324">
        <ele>922.140869</ele>
        <time>2016-01-17T08:09:56.000Z</time>
      </trkpt>
      <trkpt lat="43.97362" lon="7.26331">
        <ele>922.625977</ele>
        <time>2016-01-17T08:10:01.000Z</time>
      </trkpt>
      <trkpt lat="43.97372" lon="7.26338">
        <ele>922.363159</ele>
        <time>2016-01-17T08:10:06.000Z</time>
      </trkpt>
      <trkpt lat="43.97381" lon="7.26349">
        <ele>922.587341</ele>
        <time>2016-01-17T08:10:11.000Z</time>
      </trkpt>
      <trkpt lat="43.97387" lon="7.2636">
        <ele>922.832031</ele>
        <time>2016-01-17T08:10:16.000Z</time>
      </trkpt>
      <trkpt lat="43.97395" lon="7.2637">
        <ele>921.822876</ele>
        <time>2016-01-17T08:10:21.000Z</time>
      </trkpt>
      <trkpt lat="43.97404" lon="7.26379">
        <ele>921.355225</ele>
        <time>2016-01-17T08:10:26.000Z</time>
      </trkpt>
      <trkpt lat="43.97416" lon="7.26379">
        <ele>921.947693</ele>
        <time>2016-01-17T08:10:31.000Z</time>
      </trkpt>
      <trkpt lat="43.97428" lon="7.26374">
        <ele>921.225647</ele>
        <time>2016-01-17T08:10:36.000Z</time>
      </trkpt>
      <trkpt lat="43.97439" lon="7.2637">
        <ele>923.800842</ele>
        <time>2016-01-17T08:10:41.000Z</time>
      </trkpt>
      <trkpt lat="43.9745" lon="7.26374">
        <ele>922.828125</ele>
        <time>2016-01-17T08:10:46.000Z</time>
      </trkpt>
      <trkpt lat="43.97463" lon="7.26383">
        <ele>922.496948</ele>
        <time>2016-01-17T08:10:51.000Z</time>
      </trkpt>
      <trkpt lat="43.97473" lon="7.26379">
        <ele>921.918762</ele>
        <time>2016-01-17T08:10:56.000Z</time>
      </trkpt>
      <trkpt lat="43.97472" lon="7.26378">
        <ele>920.381531</ele>
        <time>2016-01-17T08:11:01.000Z</time>
      </trkpt>
      <trkpt lat="43.97472" lon="7.26378">
        <ele>920.312805</ele>
        <time>2016-01-17T08:11:06.000Z</time>
      </trkpt>
      <trkpt lat="43.97472" lon="7.26378">
        <ele>920.30603</ele>
        <time>2016-01-17T08:11:11.000Z</time>
      </trkpt>
      <trkpt lat="43.97472" lon="7.26379">
        <ele>920.181091</ele>
        <time>2016-01-17T08:11:16.000Z</time>
      </trkpt>
      <trkpt lat="43.97476" lon="7.26381">
        <ele>920.434021</ele>
        <time>2016-01-17T08:11:21.000Z</time>
      </trkpt>
      <trkpt lat="43.97491" lon="7.26388">
        <ele>921.131226</ele>
        <time>2016-01-17T08:11:26.000Z</time>
      </trkpt>
      <trkpt lat="43.97504" lon="7.26401">
        <ele>921.325256</ele>
        <time>2016-01-17T08:11:31.000Z</time>
      </trkpt>
      <trkpt lat="43.97507" lon="7.2642">
        <ele>919.596191</ele>
        <time>2016-01-17T08:11:36.000Z</time>
      </trkpt>
      <trkpt lat="43.97513" lon="7.26438">
        <ele>918.978271</ele>
        <time>2016-01-17T08:11:41.000Z</time>
      </trkpt>
      <trkpt lat="43.97525" lon="7.26452">
        <ele>920.694336</ele>
        <time>2016-01-17T08:11:46.000Z</time>
      </trkpt>
      <trkpt lat="43.97537" lon="7.26466">
        <ele>919.465881</ele>
        <time>2016-01-17T08:11:51.000Z</time>
      </trkpt>
      <trkpt lat="43.97553" lon="7.26475">
        <ele>921.136353</ele>
        <time>2016-01-17T08:11:56.000Z</time>
      </trkpt>
      <trkpt lat="43.97568" lon="7.26493">
        <ele>922.633606</ele>
        <time>2016-01-17T08:12:01.000Z</time>
      </trkpt>
      <trkpt lat="43.97589" lon="7.26493">
        <ele>924.100403</ele>
        <time>2016-01-17T08:12:06.000Z</time>
      </trkpt>
      <trkpt lat="43.97608" lon="7.26486">
        <ele>924.242981</ele>
        <time>2016-01-17T08:12:11.000Z</time>
      </trkpt>
      <trkpt lat="43.97624" lon="7.26499">
        <ele>923.393066</ele>
        <time>2016-01-17T08:12:16.000Z</time>
      </trkpt>
      <trkpt lat="43.97629" lon="7.26519">
        <ele>922.779663</ele>
        <time>2016-01-17T08:12:21.000Z</time>
      </trkpt>
      <trkpt lat="43.97633" lon="7.26537">
        <ele>921.842346</ele>
        <time>2016-01-17T08:12:26.000Z</time>
      </trkpt>
      <trkpt lat="43.97637" lon="7.26556">
        <ele>920.992615</ele>
        <time>2016-01-17T08:12:31.000Z</time>
      </trkpt>
      <trkpt lat="43.97643" lon="7.26576">
        <ele>922.289001</ele>
        <time>2016-01-17T08:12:36.000Z</time>
      </trkpt>
      <trkpt lat="43.97648" lon="7.26595">
        <ele>924.183594</ele>
        <time>2016-01-17T08:12:41.000Z</time>
      </trkpt>
      <trkpt lat="43.97651" lon="7.26615">
        <ele>924.835083</ele>
        <time>2016-01-17T08:12:46.000Z</time>
      </trkpt>
      <trkpt lat="43.97654" lon="7.26635">
        <ele>924.098083</ele>
        <time>2016-01-17T08:12:51.000Z</time>
      </trkpt>
      <trkpt lat="43.97664" lon="7.2665">
        <ele>929.26532</ele>
        <time>2016-01-17T08:12:56.000Z</time>
      </trkpt>
      <trkpt lat="43.97675" lon="7.26645">
        <ele>929.416382</ele>
        <time>2016-01-17T08:13:01.000Z</time>
      </trkpt>
      <trkpt lat="43.97684" lon="7.26629">
        <ele>926.209717</ele>
        <time>2016-01-17T08:13:06.000Z</time>
      </trkpt>
      <trkpt lat="43.97694" lon="7.26612">
        <ele>926.394653</ele>
        <time>2016-01-17T08:13:11.000Z</time>
      </trkpt>
      <trkpt lat="43.97706" lon="7.26599">
        <ele>929.816345</ele>
        <time>2016-01-17T08:13:16.000Z</time>
      </trkpt>
      <trkpt lat="43.97715" lon="7.26608">
        <ele>930.477966</ele>
        <time>2016-01-17T08:13:21.000Z</time>
      </trkpt>
      <trkpt lat="43.97726" lon="7.26625">
        <ele>932.204651</ele>
        <time>2016-01-17T08:13:26.000Z</time>
      </trkpt>
      <trkpt lat="43.9774" lon="7.26638">
        <ele>931.790039</ele>
        <time>2016-01-17T08:13:31.000Z</time>
      </trkpt>
      <trkpt lat="43.97757" lon="7.26645">
        <ele>932.725891</ele>
        <time>2016-01-17T08:13:36.000Z</time>
      </trkpt>
      <trkpt lat="43.9777" lon="7.2666">
        <ele>932.672363</ele>
        <time>2016-01-17T08:13:41.000Z</time>
      </trkpt>
      <trkpt lat="43.97784" lon="7.26669">
        <ele>933.508911</ele>
        <time>2016-01-17T08:13:46.000Z</time>
      </trkpt>
      <trkpt lat="43.97793" lon="7.26687">
        <ele>934.670044</ele>
        <time>2016-01-17T08:13:51.000Z</time>
      </trkpt>
      <trkpt lat="43.97802" lon="7.26689">
        <ele>934.23584</ele>
        <time>2016-01-17T08:13:56.000Z</time>
      </trkpt>
      <trkpt lat="43.97811" lon="7.26679">
        <ele>934.961609</ele>
        <time>2016-01-17T08:14:01.000Z</time>
      </trkpt>
      <trkpt lat="43.97826" lon="7.26672">
        <ele>934.982544</ele>
        <time>2016-01-17T08:14:06.000Z</time>
      </trkpt>
      <trkpt lat="43.97844" lon="7.26674">
        <ele>934.591064</ele>
        <time>2016-01-17T08:14:11.000Z</time>
      </trkpt>
      <trkpt lat="43.97858" lon="7.26678">
        <ele>935.404663</ele>
        <time>2016-01-17T08:14:16.000Z</time>
      </trkpt>
      <trkpt lat="43.97873" lon="7.26681">
        <ele>935.461121</ele>
        <time>2016-01-17T08:14:21.000Z</time>
      </trkpt>
      <trkpt lat="43.97885" lon="7.26676">
        <ele>935.951355</ele>
        <time>2016-01-17T08:14:26.000Z</time>
      </trkpt>
      <trkpt lat="43.9789" lon="7.26675">
        <ele>936.399475</ele>
        <time>2016-01-17T08:14:31.000Z</time>
      </trkpt>
      <trkpt lat="43.97892" lon="7.26676">
        <ele>937.043213</ele>
        <time>2016-01-17T08:14:36.000Z</time>
      </trkpt>
      <trkpt lat="43.97893" lon="7.26673">
        <ele>937.078491</ele>
        <time>2016-01-17T08:14:41.000Z</time>
      </trkpt>
      <trkpt lat="43.97892" lon="7.26667">
        <ele>937.451721</ele>
        <time>2016-01-17T08:14:46.000Z</time>
      </trkpt>
      <trkpt lat="43.97891" lon="7.26664">
        <ele>937.707458</ele>
        <time>2016-01-17T08:14:51.000Z</time>
      </trkpt>
      <trkpt lat="43.97887" lon="7.26651">
        <ele>938.860168</ele>
        <time>2016-01-17T08:14:56.000Z</time>
      </trkpt>
      <trkpt lat="43.97882" lon="7.26638">
        <ele>940.198181</ele>
        <time>2016-01-17T08:15:01.000Z</time>
      </trkpt>
      <trkpt lat="43.9787" lon="7.26629">
        <ele>940.562805</ele>
        <time>2016-01-17T08:15:06.000Z</time>
      </trkpt>
      <trkpt lat="43.97862" lon="7.26618">
        <ele>941.886414</ele>
        <time>2016-01-17T08:15:11.000Z</time>
      </trkpt>
      <trkpt lat="43.97854" lon="7.26607">
        <ele>942.670044</ele>
        <time>2016-01-17T08:15:16.000Z</time>
      </trkpt>
      <trkpt lat="43.97846" lon="7.26594">
        <ele>943.460083</ele>
        <time>2016-01-17T08:15:21.000Z</time>
      </trkpt>
      <trkpt lat="43.9784" lon="7.26579">
        <ele>944.454407</ele>
        <time>2016-01-17T08:15:26.000Z</time>
      </trkpt>
      <trkpt lat="43.97831" lon="7.26569">
        <ele>945.395264</ele>
        <time>2016-01-17T08:15:31.000Z</time>
      </trkpt>
      <trkpt lat="43.97825" lon="7.26556">
        <ele>946.383545</ele>
        <time>2016-01-17T08:15:36.000Z</time>
      </trkpt>
      <trkpt lat="43.9782" lon="7.26543">
        <ele>947.035095</ele>
        <time>2016-01-17T08:15:41.000Z</time>
      </trkpt>
      <trkpt lat="43.97817" lon="7.26528">
        <ele>947.737854</ele>
        <time>2016-01-17T08:15:46.000Z</time>
      </trkpt>
      <trkpt lat="43.97815" lon="7.26512">
        <ele>948.950684</ele>
        <time>2016-01-17T08:15:51.000Z</time>
      </trkpt>
      <trkpt lat="43.97811" lon="7.26496">
        <ele>950.114685</ele>
        <time>2016-01-17T08:15:56.000Z</time>
      </trkpt>
      <trkpt lat="43.9781" lon="7.26481">
        <ele>951.047913</ele>
        <time>2016-01-17T08:16:01.000Z</time>
      </trkpt>
      <trkpt lat="43.97809" lon="7.26466">
        <ele>951.576233</ele>
        <time>2016-01-17T08:16:06.000Z</time>
      </trkpt>
      <trkpt lat="43.97807" lon="7.26451">
        <ele>952.499817</ele>
        <time>2016-01-17T08:16:11.000Z</time>
      </trkpt>
      <trkpt lat="43.97805" lon="7.26434">
        <ele>952.731079</ele>
        <time>2016-01-17T08:16:16.000Z</time>
      </trkpt>
      <trkpt lat="43.97802" lon="7.26418">
        <ele>952.686707</ele>
        <time>2016-01-17T08:16:21.000Z</time>
      </trkpt>
      <trkpt lat="43.97801" lon="7.26402">
        <ele>952.985413</ele>
        <time>2016-01-17T08:16:26.000Z</time>
      </trkpt>
      <trkpt lat="43.97799" lon="7.26386">
        <ele>953.395142</ele>
        <time>2016-01-17T08:16:31.000Z</time>
      </trkpt>
      <trkpt lat="43.97795" lon="7.26372">
        <ele>953.716492</ele>
        <time>2016-01-17T08:16:36.000Z</time>
      </trkpt>
      <trkpt lat="43.97788" lon="7.26357">
        <ele>954.01825</ele>
        <time>2016-01-17T08:16:41.000Z</time>
      </trkpt>
      <trkpt lat="43.97784" lon="7.26342">
        <ele>954.285522</ele>
        <time>2016-01-17T08:16:46.000Z</time>
      </trkpt>
      <trkpt lat="43.97782" lon="7.26328">
        <ele>954.008606</ele>
        <time>2016-01-17T08:16:51.000Z</time>
      </trkpt>
      <trkpt lat="43.97788" lon="7.26318">
        <ele>954.640381</ele>
        <time>2016-01-17T08:16:56.000Z</time>
      </trkpt>
      <trkpt lat="43.97797" lon="7.26313">
        <ele>955.094543</ele>
        <time>2016-01-17T08:17:01.000Z</time>
      </trkpt>
      <trkpt lat="43.97804" lon="7.26307">
        <ele>955.907837</ele>
        <time>2016-01-17T08:17:06.000Z</time>
      </trkpt>
      <trkpt lat="43.97809" lon="7.263">
        <ele>957.114929</ele>
        <time>2016-01-17T08:17:11.000Z</time>
      </trkpt>
      <trkpt lat="43.97816" lon="7.26295">
        <ele>957.674683</ele>
        <time>2016-01-17T08:17:16.000Z</time>
      </trkpt>
      <trkpt lat="43.97822" lon="7.26289">
        <ele>958.917908</ele>
        <time>2016-01-17T08:17:21.000Z</time>
      </trkpt>
      <trkpt lat="43.9783" lon="7.26289">
        <ele>960.07019</ele>
        <time>2016-01-17T08:17:26.000Z</time>
      </trkpt>
      <trkpt lat="43.97837" lon="7.26293">
        <ele>961.18512</ele>
        <time>2016-01-17T08:17:31.000Z</time>
      </trkpt>
      <trkpt lat="43.97845" lon="7.26295">
        <ele>961.8927</ele>
        <time>2016-01-17T08:17:36.000Z</time>
      </trkpt>
      <trkpt lat="43.97853" lon="7.26296">
        <ele>962.836792</ele>
        <time>2016-01-17T08:17:41.000Z</time>
      </trkpt>
      <trkpt lat="43.97859" lon="7.26293">
        <ele>963.226196</ele>
        <time>2016-01-17T08:17:46.000Z</time>
      </trkpt>
      <trkpt lat="43.97865" lon="7.26287">
        <ele>963.928162</ele>
        <time>2016-01-17T08:17:51.000Z</time>
      </trkpt>
      <trkpt lat="43.97872" lon="7.26282">
        <ele>964.768494</ele>
        <time>2016-01-17T08:17:56.000Z</time>
      </trkpt>
      <trkpt lat="43.97878" lon="7.26275">
        <ele>965.321167</ele>
        <time>2016-01-17T08:18:01.000Z</time>
      </trkpt>
      <trkpt lat="43.97882" lon="7.26266">
        <ele>965.803711</ele>
        <time>2016-01-17T08:18:06.000Z</time>
      </trkpt>
      <trkpt lat="43.97884" lon="7.26256">
        <ele>966.380371</ele>
        <time>2016-01-17T08:18:11.000Z</time>
      </trkpt>
      <trkpt lat="43.97886" lon="7.26246">
        <ele>966.688538</ele>
        <time>2016-01-17T08:18:16.000Z</time>
      </trkpt>
      <trkpt lat="43.97889" lon="7.26236">
        <ele>967.218628</ele>
        <time>2016-01-17T08:18:21.000Z</time>
      </trkpt>
      <trkpt lat="43.97892" lon="7.26226">
        <ele>968.264343</ele>
        <time>2016-01-17T08:18:26.000Z</time>
      </trkpt>
      <trkpt lat="43.97895" lon="7.26218">
        <ele>969.160767</ele>
        <time>2016-01-17T08:18:31.000Z</time>
      </trkpt>
      <trkpt lat="43.97896" lon="7.26215">
        <ele>969.2901</ele>
        <time>2016-01-17T08:18:36.000Z</time>
      </trkpt>
      <trkpt lat="43.97896" lon="7.26215">
        <ele>969.259521</ele>
        <time>2016-01-17T08:18:41.000Z</time>
      </trkpt>
      <trkpt lat="43.97896" lon="7.26215">
        <ele>969.273193</ele>
        <time>2016-01-17T08:18:46.000Z</time>
      </trkpt>
      <trkpt lat="43.97896" lon="7.26215">
        <ele>969.282776</ele>
        <time>2016-01-17T08:18:51.000Z</time>
      </trkpt>
      <trkpt lat="43.97896" lon="7.26215">
        <ele>969.246643</ele>
        <time>2016-01-17T08:18:56.000Z</time>
      </trkpt>
      <trkpt lat="43.97896" lon="7.26215">
        <ele>969.249146</ele>
        <time>2016-01-17T08:19:01.000Z</time>
      </trkpt>
      <trkpt lat="43.97896" lon="7.26215">
        <ele>969.227234</ele>
        <time>2016-01-17T08:19:06.000Z</time>
      </trkpt>
      <trkpt lat="43.97896" lon="7.26215">
        <ele>969.227295</ele>
        <time>2016-01-17T08:19:11.000Z</time>
      </trkpt>
      <trkpt lat="43.97896" lon="7.26215">
        <ele>969.223816</ele>
        <time>2016-01-17T08:19:16.000Z</time>
      </trkpt>
      <trkpt lat="43.97896" lon="7.26215">
        <ele>969.217773</ele>
        <time>2016-01-17T08:19:21.000Z</time>
      </trkpt>
      <trkpt lat="43.97897" lon="7.2621">
        <ele>969.399658</ele>
        <time>2016-01-17T08:19:26.000Z</time>
      </trkpt>
      <trkpt lat="43.979" lon="7.26206">
        <ele>969.493713</ele>
        <time>2016-01-17T08:19:31.000Z</time>
      </trkpt>
      <trkpt lat="43.97897" lon="7.26211">
        <ele>969.000793</ele>
        <time>2016-01-17T08:19:36.000Z</time>
      </trkpt>
      <trkpt lat="43.97896" lon="7.26215">
        <ele>968.7547</ele>
        <time>2016-01-17T08:19:41.000Z</time>
      </trkpt>
      <trkpt lat="43.97897" lon="7.2621">
        <ele>969.007996</ele>
        <time>2016-01-17T08:19:46.000Z</time>
      </trkpt>
      <trkpt lat="43.979" lon="7.26205">
        <ele>969.163513</ele>
        <time>2016-01-17T08:19:51.000Z</time>
      </trkpt>
      <trkpt lat="43.979" lon="7.26203">
        <ele>969.406372</ele>
        <time>2016-01-17T08:19:56.000Z</time>
      </trkpt>
      <trkpt lat="43.979" lon="7.26203">
        <ele>969.244202</ele>
        <time>2016-01-17T08:20:01.000Z</time>
      </trkpt>
      <trkpt lat="43.979" lon="7.26203">
        <ele>969.229553</ele>
        <time>2016-01-17T08:20:06.000Z</time>
      </trkpt>
      <trkpt lat="43.97901" lon="7.26203">
        <ele>969.223206</ele>
        <time>2016-01-17T08:20:11.000Z</time>
      </trkpt>
      <trkpt lat="43.97899" lon="7.26205">
        <ele>969.113647</ele>
        <time>2016-01-17T08:20:16.000Z</time>
      </trkpt>
      <trkpt lat="43.97899" lon="7.26206">
        <ele>969.371887</ele>
        <time>2016-01-17T08:20:21.000Z</time>
      </trkpt>
      <trkpt lat="43.97903" lon="7.26202">
        <ele>969.853882</ele>
        <time>2016-01-17T08:20:26.000Z</time>
      </trkpt>
      <trkpt lat="43.97911" lon="7.262">
        <ele>970.949158</ele>
        <time>2016-01-17T08:20:31.000Z</time>
      </trkpt>
      <trkpt lat="43.97919" lon="7.26199">
        <ele>971.97821</ele>
        <time>2016-01-17T08:20:36.000Z</time>
      </trkpt>
      <trkpt lat="43.97927" lon="7.26198">
        <ele>972.982544</ele>
        <time>2016-01-17T08:20:41.000Z</time>
      </trkpt>
      <trkpt lat="43.97935" lon="7.26197">
        <ele>973.80249</ele>
        <time>2016-01-17T08:20:46.000Z</time>
      </trkpt>
      <trkpt lat="43.97942" lon="7.26194">
        <ele>974.773621</ele>
        <time>2016-01-17T08:20:51.000Z</time>
      </trkpt>
      <trkpt lat="43.9795" lon="7.26191">
        <ele>975.84021</ele>
        <time>2016-01-17T08:20:56.000Z</time>
      </trkpt>
      <trkpt lat="43.97956" lon="7.2619">
        <ele>976.721313</ele>
        <time>2016-01-17T08:21:01.000Z</time>
      </trkpt>
      <trkpt lat="43.97963" lon="7.26187">
        <ele>977.495667</ele>
        <time>2016-01-17T08:21:06.000Z</time>
      </trkpt>
      <trkpt lat="43.9797" lon="7.26184">
        <ele>978.6474</ele>
        <time>2016-01-17T08:21:11.000Z</time>
      </trkpt>
      <trkpt lat="43.97976" lon="7.2618">
        <ele>979.078918</ele>
        <time>2016-01-17T08:21:16.000Z</time>
      </trkpt>
      <trkpt lat="43.97983" lon="7.26177">
        <ele>980.002747</ele>
        <time>2016-01-17T08:21:21.000Z</time>
      </trkpt>
      <trkpt lat="43.9799" lon="7.26176">
        <ele>981.272522</ele>
        <time>2016-01-17T08:21:26.000Z</time>
      </trkpt>
      <trkpt lat="43.97997" lon="7.26174">
        <ele>982.386658</ele>
        <time>2016-01-17T08:21:31.000Z</time>
      </trkpt>
      <trkpt lat="43.98004" lon="7.26172">
        <ele>983.159424</ele>
        <time>2016-01-17T08:21:36.000Z</time>
      </trkpt>
      <trkpt lat="43.98011" lon="7.26177">
        <ele>983.41803</ele>
        <time>2016-01-17T08:21:41.000Z</time>
      </trkpt>
      <trkpt lat="43.98015" lon="7.26187">
        <ele>983.467834</ele>
        <time>2016-01-17T08:21:46.000Z</time>
      </trkpt>
      <trkpt lat="43.9802" lon="7.26199">
        <ele>983.499512</ele>
        <time>2016-01-17T08:21:51.000Z</time>
      </trkpt>
      <trkpt lat="43.98024" lon="7.26211">
        <ele>983.391907</ele>
        <time>2016-01-17T08:21:56.000Z</time>
      </trkpt>
      <trkpt lat="43.98029" lon="7.26224">
        <ele>983.71344</ele>
        <time>2016-01-17T08:22:01.000Z</time>
      </trkpt>
      <trkpt lat="43.98033" lon="7.26239">
        <ele>984.041199</ele>
        <time>2016-01-17T08:22:06.000Z</time>
      </trkpt>
      <trkpt lat="43.98038" lon="7.26252">
        <ele>984.499146</ele>
        <time>2016-01-17T08:22:11.000Z</time>
      </trkpt>
      <trkpt lat="43.98049" lon="7.26255">
        <ele>984.737854</ele>
        <time>2016-01-17T08:22:16.000Z</time>
      </trkpt>
      <trkpt lat="43.9806" lon="7.2626">
        <ele>984.390381</ele>
        <time>2016-01-17T08:22:21.000Z</time>
      </trkpt>
      <trkpt lat="43.98069" lon="7.26271">
        <ele>984.578796</ele>
        <time>2016-01-17T08:22:26.000Z</time>
      </trkpt>
      <trkpt lat="43.98077" lon="7.26282">
        <ele>984.465759</ele>
        <time>2016-01-17T08:22:31.000Z</time>
      </trkpt>
      <trkpt lat="43.98085" lon="7.26295">
        <ele>984.91687</ele>
        <time>2016-01-17T08:22:36.000Z</time>
      </trkpt>
      <trkpt lat="43.98094" lon="7.26304">
        <ele>984.502197</ele>
        <time>2016-01-17T08:22:41.000Z</time>
      </trkpt>
      <trkpt lat="43.98105" lon="7.26301">
        <ele>984.111023</ele>
        <time>2016-01-17T08:22:46.000Z</time>
      </trkpt>
      <trkpt lat="43.98115" lon="7.26288">
        <ele>984.177124</ele>
        <time>2016-01-17T08:22:51.000Z</time>
      </trkpt>
      <trkpt lat="43.98122" lon="7.26272">
        <ele>983.993225</ele>
        <time>2016-01-17T08:22:56.000Z</time>
      </trkpt>
      <trkpt lat="43.98132" lon="7.26261">
        <ele>984.369629</ele>
        <time>2016-01-17T08:23:01.000Z</time>
      </trkpt>
      <trkpt lat="43.98146" lon="7.2626">
        <ele>984.522583</ele>
        <time>2016-01-17T08:23:06.000Z</time>
      </trkpt>
      <trkpt lat="43.98157" lon="7.26267">
        <ele>984.433167</ele>
        <time>2016-01-17T08:23:11.000Z</time>
      </trkpt>
      <trkpt lat="43.98167" lon="7.26277">
        <ele>984.911926</ele>
        <time>2016-01-17T08:23:16.000Z</time>
      </trkpt>
      <trkpt lat="43.98178" lon="7.26286">
        <ele>984.557312</ele>
        <time>2016-01-17T08:23:21.000Z</time>
      </trkpt>
      <trkpt lat="43.98188" lon="7.26299">
        <ele>983.623108</ele>
        <time>2016-01-17T08:23:26.000Z</time>
      </trkpt>
      <trkpt lat="43.98198" lon="7.26305">
        <ele>983.562317</ele>
        <time>2016-01-17T08:23:31.000Z</time>
      </trkpt>
      <trkpt lat="43.98211" lon="7.26291">
        <ele>983.075073</ele>
        <time>2016-01-17T08:23:36.000Z</time>
      </trkpt>
      <trkpt lat="43.98225" lon="7.26283">
        <ele>983.17926</ele>
        <time>2016-01-17T08:23:41.000Z</time>
      </trkpt>
      <trkpt lat="43.98237" lon="7.26276">
        <ele>983.946045</ele>
        <time>2016-01-17T08:23:46.000Z</time>
      </trkpt>
      <trkpt lat="43.98249" lon="7.26275">
        <ele>984.453308</ele>
        <time>2016-01-17T08:23:51.000Z</time>
      </trkpt>
      <trkpt lat="43.98256" lon="7.26283">
        <ele>984.582947</ele>
        <time>2016-01-17T08:23:56.000Z</time>
      </trkpt>
      <trkpt lat="43.98258" lon="7.26284">
        <ele>984.170898</ele>
        <time>2016-01-17T08:24:01.000Z</time>
      </trkpt>
      <trkpt lat="43.98257" lon="7.26282">
        <ele>984.540405</ele>
        <time>2016-01-17T08:24:06.000Z</time>
      </trkpt>
      <trkpt lat="43.98256" lon="7.26283">
        <ele>984.532227</ele>
        <time>2016-01-17T08:24:11.000Z</time>
      </trkpt>
      <trkpt lat="43.98256" lon="7.26282">
        <ele>984.452271</ele>
        <time>2016-01-17T08:24:16.000Z</time>
      </trkpt>
      <trkpt lat="43.98256" lon="7.26283">
        <ele>983.94165</ele>
        <time>2016-01-17T08:24:21.000Z</time>
      </trkpt>
      <trkpt lat="43.98256" lon="7.26284">
        <ele>984.321106</ele>
        <time>2016-01-17T08:24:26.000Z</time>
      </trkpt>
      <trkpt lat="43.98257" lon="7.26285">
        <ele>984.543274</ele>
        <time>2016-01-17T08:24:31.000Z</time>
      </trkpt>
      <trkpt lat="43.98256" lon="7.26284">
        <ele>984.384766</ele>
        <time>2016-01-17T08:24:36.000Z</time>
      </trkpt>
      <trkpt lat="43.98254" lon="7.26282">
        <ele>984.087891</ele>
        <time>2016-01-17T08:24:41.000Z</time>
      </trkpt>
      <trkpt lat="43.98255" lon="7.26283">
        <ele>983.863525</ele>
        <time>2016-01-17T08:24:46.000Z</time>
      </trkpt>
      <trkpt lat="43.98255" lon="7.26284">
        <ele>984.424255</ele>
        <time>2016-01-17T08:24:51.000Z</time>
      </trkpt>
      <trkpt lat="43.98263" lon="7.26289">
        <ele>984.607178</ele>
        <time>2016-01-17T08:24:56.000Z</time>
      </trkpt>
      <trkpt lat="43.98276" lon="7.26293">
        <ele>985.13324</ele>
        <time>2016-01-17T08:25:01.000Z</time>
      </trkpt>
      <trkpt lat="43.98286" lon="7.263">
        <ele>985.958557</ele>
        <time>2016-01-17T08:25:06.000Z</time>
      </trkpt>
      <trkpt lat="43.98297" lon="7.26306">
        <ele>986.397095</ele>
        <time>2016-01-17T08:25:11.000Z</time>
      </trkpt>
      <trkpt lat="43.98309" lon="7.26311">
        <ele>987.178162</ele>
        <time>2016-01-17T08:25:16.000Z</time>
      </trkpt>
      <trkpt lat="43.98322" lon="7.26316">
        <ele>987.966797</ele>
        <time>2016-01-17T08:25:21.000Z</time>
      </trkpt>
      <trkpt lat="43.98332" lon="7.26326">
        <ele>988.670044</ele>
        <time>2016-01-17T08:25:26.000Z</time>
      </trkpt>
      <trkpt lat="43.98344" lon="7.26323">
        <ele>989.564575</ele>
        <time>2016-01-17T08:25:31.000Z</time>
      </trkpt>
      <trkpt lat="43.98355" lon="7.26318">
        <ele>990.2677</ele>
        <time>2016-01-17T08:25:36.000Z</time>
      </trkpt>
      <trkpt lat="43.98365" lon="7.26328">
        <ele>990.707397</ele>
        <time>2016-01-17T08:25:41.000Z</time>
      </trkpt>
      <trkpt lat="43.98377" lon="7.26329">
        <ele>990.741821</ele>
        <time>2016-01-17T08:25:46.000Z</time>
      </trkpt>
      <trkpt lat="43.98386" lon="7.26322">
        <ele>990.960327</ele>
        <time>2016-01-17T08:25:51.000Z</time>
      </trkpt>
      <trkpt lat="43.98395" lon="7.26314">
        <ele>991.255127</ele>
        <time>2016-01-17T08:25:56.000Z</time>
      </trkpt>
      <trkpt lat="43.98407" lon="7.2631">
        <ele>991.154724</ele>
        <time>2016-01-17T08:26:01.000Z</time>
      </trkpt>
      <trkpt lat="43.98416" lon="7.26298">
        <ele>991.035767</ele>
        <time>2016-01-17T08:26:06.000Z</time>
      </trkpt>
      <trkpt lat="43.98424" lon="7.26283">
        <ele>991.010742</ele>
        <time>2016-01-17T08:26:11.000Z</time>
      </trkpt>
      <trkpt lat="43.98435" lon="7.26276">
        <ele>991.956726</ele>
        <time>2016-01-17T08:26:16.000Z</time>
      </trkpt>
      <trkpt lat="43.98447" lon="7.26283">
        <ele>992.473633</ele>
        <time>2016-01-17T08:26:21.000Z</time>
      </trkpt>
      <trkpt lat="43.98455" lon="7.26291">
        <ele>993.466797</ele>
        <time>2016-01-17T08:26:26.000Z</time>
      </trkpt>
      <trkpt lat="43.98464" lon="7.26299">
        <ele>993.54895</ele>
        <time>2016-01-17T08:26:31.000Z</time>
      </trkpt>
      <trkpt lat="43.98473" lon="7.26301">
        <ele>994.591675</ele>
        <time>2016-01-17T08:26:36.000Z</time>
      </trkpt>
      <trkpt lat="43.98482" lon="7.26295">
        <ele>995.176636</ele>
        <time>2016-01-17T08:26:41.000Z</time>
      </trkpt>
      <trkpt lat="43.98486" lon="7.26281">
        <ele>995.473511</ele>
        <time>2016-01-17T08:26:46.000Z</time>
      </trkpt>
      <trkpt lat="43.98489" lon="7.26267">
        <ele>996.747925</ele>
        <time>2016-01-17T08:26:51.000Z</time>
      </trkpt>
      <trkpt lat="43.98494" lon="7.26255">
        <ele>998.350952</ele>
        <time>2016-01-17T08:26:56.000Z</time>
      </trkpt>
      <trkpt lat="43.98505" lon="7.26254">
        <ele>1000.392517</ele>
        <time>2016-01-17T08:27:01.000Z</time>
      </trkpt>
      <trkpt lat="43.98512" lon="7.26265">
        <ele>1001.399353</ele>
        <time>2016-01-17T08:27:06.000Z</time>
      </trkpt>
      <trkpt lat="43.98517" lon="7.26277">
        <ele>1001.748535</ele>
        <time>2016-01-17T08:27:11.000Z</time>
      </trkpt>
      <trkpt lat="43.98524" lon="7.26287">
        <ele>1002.253479</ele>
        <time>2016-01-17T08:27:16.000Z</time>
      </trkpt>
      <trkpt lat="43.98532" lon="7.26295">
        <ele>1003.299377</ele>
        <time>2016-01-17T08:27:21.000Z</time>
      </trkpt>
      <trkpt lat="43.9854" lon="7.26299">
        <ele>1004.027344</ele>
        <time>2016-01-17T08:27:26.000Z</time>
      </trkpt>
      <trkpt lat="43.9855" lon="7.26302">
        <ele>1004.439636</ele>
        <time>2016-01-17T08:27:31.000Z</time>
      </trkpt>
      <trkpt lat="43.98559" lon="7.26303">
        <ele>1005.012878</ele>
        <time>2016-01-17T08:27:36.000Z</time>
      </trkpt>
      <trkpt lat="43.98569" lon="7.26304">
        <ele>1005.365051</ele>
        <time>2016-01-17T08:27:41.000Z</time>
      </trkpt>
      <trkpt lat="43.98577" lon="7.26312">
        <ele>1006.096558</ele>
        <time>2016-01-17T08:27:46.000Z</time>
      </trkpt>
      <trkpt lat="43.98586" lon="7.26314">
        <ele>1006.757996</ele>
        <time>2016-01-17T08:27:51.000Z</time>
      </trkpt>
      <trkpt lat="43.98595" lon="7.26317">
        <ele>1007.440552</ele>
        <time>2016-01-17T08:27:56.000Z</time>
      </trkpt>
      <trkpt lat="43.98603" lon="7.26319">
        <ele>1008.720337</ele>
        <time>2016-01-17T08:28:01.000Z</time>
      </trkpt>
      <trkpt lat="43.98609" lon="7.26319">
        <ele>1008.450195</ele>
        <time>2016-01-17T08:28:06.000Z</time>
      </trkpt>
      <trkpt lat="43.98614" lon="7.2631">
        <ele>1008.953796</ele>
        <time>2016-01-17T08:28:11.000Z</time>
      </trkpt>
      <trkpt lat="43.98613" lon="7.26297">
        <ele>1008.793213</ele>
        <time>2016-01-17T08:28:16.000Z</time>
      </trkpt>
      <trkpt lat="43.98607" lon="7.26284">
        <ele>1008.622559</ele>
        <time>2016-01-17T08:28:21.000Z</time>
      </trkpt>
      <trkpt lat="43.98596" lon="7.26267">
        <ele>1009.011597</ele>
        <time>2016-01-17T08:28:26.000Z</time>
      </trkpt>
      <trkpt lat="43.98587" lon="7.26249">
        <ele>1009.713196</ele>
        <time>2016-01-17T08:28:31.000Z</time>
      </trkpt>
      <trkpt lat="43.98587" lon="7.26231">
        <ele>1011.158142</ele>
        <time>2016-01-17T08:28:36.000Z</time>
      </trkpt>
      <trkpt lat="43.9859" lon="7.26217">
        <ele>1013.405029</ele>
        <time>2016-01-17T08:28:41.000Z</time>
      </trkpt>
      <trkpt lat="43.98592" lon="7.26204">
        <ele>1015.006104</ele>
        <time>2016-01-17T08:28:46.000Z</time>
      </trkpt>
      <trkpt lat="43.98591" lon="7.2619">
        <ele>1016.448059</ele>
        <time>2016-01-17T08:28:51.000Z</time>
      </trkpt>
      <trkpt lat="43.98589" lon="7.26177">
        <ele>1017.692261</ele>
        <time>2016-01-17T08:28:56.000Z</time>
      </trkpt>
      <trkpt lat="43.98585" lon="7.26163">
        <ele>1018.479065</ele>
        <time>2016-01-17T08:29:01.000Z</time>
      </trkpt>
      <trkpt lat="43.98581" lon="7.2615">
        <ele>1019.203796</ele>
        <time>2016-01-17T08:29:06.000Z</time>
      </trkpt>
      <trkpt lat="43.98576" lon="7.26139">
        <ele>1019.658691</ele>
        <time>2016-01-17T08:29:11.000Z</time>
      </trkpt>
      <trkpt lat="43.98583" lon="7.26129">
        <ele>1020.094849</ele>
        <time>2016-01-17T08:29:16.000Z</time>
      </trkpt>
      <trkpt lat="43.98595" lon="7.26124">
        <ele>1020.857544</ele>
        <time>2016-01-17T08:29:21.000Z</time>
      </trkpt>
      <trkpt lat="43.98607" lon="7.26116">
        <ele>1021.279358</ele>
        <time>2016-01-17T08:29:26.000Z</time>
      </trkpt>
      <trkpt lat="43.98619" lon="7.26109">
        <ele>1021.993958</ele>
        <time>2016-01-17T08:29:31.000Z</time>
      </trkpt>
      <trkpt lat="43.98631" lon="7.26109">
        <ele>1022.62738</ele>
        <time>2016-01-17T08:29:36.000Z</time>
      </trkpt>
      <trkpt lat="43.98639" lon="7.261">
        <ele>1022.325256</ele>
        <time>2016-01-17T08:29:41.000Z</time>
      </trkpt>
      <trkpt lat="43.98643" lon="7.2608">
        <ele>1021.812134</ele>
        <time>2016-01-17T08:29:46.000Z</time>
      </trkpt>
      <trkpt lat="43.98654" lon="7.26066">
        <ele>1021.963196</ele>
        <time>2016-01-17T08:29:51.000Z</time>
      </trkpt>
      <trkpt lat="43.98665" lon="7.26047">
        <ele>1022.83374</ele>
        <time>2016-01-17T08:29:56.000Z</time>
      </trkpt>
      <trkpt lat="43.98669" lon="7.26024">
        <ele>1022.308228</ele>
        <time>2016-01-17T08:30:01.000Z</time>
      </trkpt>
      <trkpt lat="43.98673" lon="7.26005">
        <ele>1022.579407</ele>
        <time>2016-01-17T08:30:06.000Z</time>
      </trkpt>
      <trkpt lat="43.98679" lon="7.25988">
        <ele>1023.15625</ele>
        <time>2016-01-17T08:30:11.000Z</time>
      </trkpt>
      <trkpt lat="43.98688" lon="7.25976">
        <ele>1023.993958</ele>
        <time>2016-01-17T08:30:16.000Z</time>
      </trkpt>
      <trkpt lat="43.98694" lon="7.25968">
        <ele>1025.383057</ele>
        <time>2016-01-17T08:30:21.000Z</time>
      </trkpt>
      <trkpt lat="43.98699" lon="7.2596">
        <ele>1026.463257</ele>
        <time>2016-01-17T08:30:26.000Z</time>
      </trkpt>
      <trkpt lat="43.98704" lon="7.25954">
        <ele>1027.29834</ele>
        <time>2016-01-17T08:30:31.000Z</time>
      </trkpt>
      <trkpt lat="43.98711" lon="7.25958">
        <ele>1028.003906</ele>
        <time>2016-01-17T08:30:36.000Z</time>
      </trkpt>
      <trkpt lat="43.98717" lon="7.25963">
        <ele>1028.858643</ele>
        <time>2016-01-17T08:30:41.000Z</time>
      </trkpt>
      <trkpt lat="43.98723" lon="7.25968">
        <ele>1029.58313</ele>
        <time>2016-01-17T08:30:46.000Z</time>
      </trkpt>
      <trkpt lat="43.98728" lon="7.25973">
        <ele>1030.430664</ele>
        <time>2016-01-17T08:30:51.000Z</time>
      </trkpt>
      <trkpt lat="43.98734" lon="7.25978">
        <ele>1031.509644</ele>
        <time>2016-01-17T08:30:56.000Z</time>
      </trkpt>
      <trkpt lat="43.9874" lon="7.25983">
        <ele>1032.595337</ele>
        <time>2016-01-17T08:31:01.000Z</time>
      </trkpt>
      <trkpt lat="43.98745" lon="7.25988">
        <ele>1033.064819</ele>
        <time>2016-01-17T08:31:06.000Z</time>
      </trkpt>
      <trkpt lat="43.9875" lon="7.25993">
        <ele>1034.070313</ele>
        <time>2016-01-17T08:31:11.000Z</time>
      </trkpt>
      <trkpt lat="43.98755" lon="7.25998">
        <ele>1034.577026</ele>
        <time>2016-01-17T08:31:16.000Z</time>
      </trkpt>
      <trkpt lat="43.98761" lon="7.26002">
        <ele>1036.003784</ele>
        <time>2016-01-17T08:31:21.000Z</time>
      </trkpt>
      <trkpt lat="43.98767" lon="7.26006">
        <ele>1036.563965</ele>
        <time>2016-01-17T08:31:26.000Z</time>
      </trkpt>
      <trkpt lat="43.98773" lon="7.2601">
        <ele>1037.561279</ele>
        <time>2016-01-17T08:31:31.000Z</time>
      </trkpt>
      <trkpt lat="43.98779" lon="7.26013">
        <ele>1038.681396</ele>
        <time>2016-01-17T08:31:36.000Z</time>
      </trkpt>
      <trkpt lat="43.98785" lon="7.26018">
        <ele>1040.056152</ele>
        <time>2016-01-17T08:31:41.000Z</time>
      </trkpt>
      <trkpt lat="43.98791" lon="7.26024">
        <ele>1040.625977</ele>
        <time>2016-01-17T08:31:46.000Z</time>
      </trkpt>
      <trkpt lat="43.98797" lon="7.26028">
        <ele>1041.640991</ele>
        <time>2016-01-17T08:31:51.000Z</time>
      </trkpt>
      <trkpt lat="43.98804" lon="7.26034">
        <ele>1042.402832</ele>
        <time>2016-01-17T08:31:56.000Z</time>
      </trkpt>
      <trkpt lat="43.98812" lon="7.2604">
        <ele>1042.804932</ele>
        <time>2016-01-17T08:32:01.000Z</time>
      </trkpt>
      <trkpt lat="43.98817" lon="7.26045">
        <ele>1042.640625</ele>
        <time>2016-01-17T08:32:06.000Z</time>
      </trkpt>
      <trkpt lat="43.98821" lon="7.26054">
        <ele>1043.193848</ele>
        <time>2016-01-17T08:32:11.000Z</time>
      </trkpt>
      <trkpt lat="43.98824" lon="7.26062">
        <ele>1043.909424</ele>
        <time>2016-01-17T08:32:16.000Z</time>
      </trkpt>
      <trkpt lat="43.98828" lon="7.26069">
        <ele>1044.392456</ele>
        <time>2016-01-17T08:32:21.000Z</time>
      </trkpt>
      <trkpt lat="43.98835" lon="7.26071">
        <ele>1044.227539</ele>
        <time>2016-01-17T08:32:26.000Z</time>
      </trkpt>
      <trkpt lat="43.98841" lon="7.26073">
        <ele>1044.28125</ele>
        <time>2016-01-17T08:32:31.000Z</time>
      </trkpt>
      <trkpt lat="43.98847" lon="7.26077">
        <ele>1044.203735</ele>
        <time>2016-01-17T08:32:36.000Z</time>
      </trkpt>
      <trkpt lat="43.98854" lon="7.26082">
        <ele>1044.455566</ele>
        <time>2016-01-17T08:32:41.000Z</time>
      </trkpt>
      <trkpt lat="43.9886" lon="7.26083">
        <ele>1045.359253</ele>
        <time>2016-01-17T08:32:46.000Z</time>
      </trkpt>
      <trkpt lat="43.98867" lon="7.26084">
        <ele>1046.694702</ele>
        <time>2016-01-17T08:32:51.000Z</time>
      </trkpt>
      <trkpt lat="43.98873" lon="7.26087">
        <ele>1048.141357</ele>
        <time>2016-01-17T08:32:56.000Z</time>
      </trkpt>
      <trkpt lat="43.9888" lon="7.26091">
        <ele>1049.339966</ele>
        <time>2016-01-17T08:33:01.000Z</time>
      </trkpt>
      <trkpt lat="43.98887" lon="7.2609">
        <ele>1050.088379</ele>
        <time>2016-01-17T08:33:06.000Z</time>
      </trkpt>
      <trkpt lat="43.98894" lon="7.2609">
        <ele>1050.731812</ele>
        <time>2016-01-17T08:33:11.000Z</time>
      </trkpt>
      <trkpt lat="43.98902" lon="7.26091">
        <ele>1051.512207</ele>
        <time>2016-01-17T08:33:16.000Z</time>
      </trkpt>
      <trkpt lat="43.98909" lon="7.26094">
        <ele>1053.370117</ele>
        <time>2016-01-17T08:33:21.000Z</time>
      </trkpt>
      <trkpt lat="43.98917" lon="7.26095">
        <ele>1053.796997</ele>
        <time>2016-01-17T08:33:26.000Z</time>
      </trkpt>
      <trkpt lat="43.98924" lon="7.26091">
        <ele>1053.603027</ele>
        <time>2016-01-17T08:33:31.000Z</time>
      </trkpt>
      <trkpt lat="43.9893" lon="7.26086">
        <ele>1054.373901</ele>
        <time>2016-01-17T08:33:36.000Z</time>
      </trkpt>
      <trkpt lat="43.98937" lon="7.26081">
        <ele>1055.021973</ele>
        <time>2016-01-17T08:33:41.000Z</time>
      </trkpt>
      <trkpt lat="43.98944" lon="7.26078">
        <ele>1055.854126</ele>
        <time>2016-01-17T08:33:46.000Z</time>
      </trkpt>
      <trkpt lat="43.98952" lon="7.26077">
        <ele>1056.549805</ele>
        <time>2016-01-17T08:33:51.000Z</time>
      </trkpt>
      <trkpt lat="43.98959" lon="7.26078">
        <ele>1057.407104</ele>
        <time>2016-01-17T08:33:56.000Z</time>
      </trkpt>
      <trkpt lat="43.98967" lon="7.26081">
        <ele>1057.55542</ele>
        <time>2016-01-17T08:34:01.000Z</time>
      </trkpt>
      <trkpt lat="43.98974" lon="7.26089">
        <ele>1057.824341</ele>
        <time>2016-01-17T08:34:06.000Z</time>
      </trkpt>
      <trkpt lat="43.98982" lon="7.26097">
        <ele>1058.029907</ele>
        <time>2016-01-17T08:34:11.000Z</time>
      </trkpt>
      <trkpt lat="43.9899" lon="7.26093">
        <ele>1057.910645</ele>
        <time>2016-01-17T08:34:16.000Z</time>
      </trkpt>
      <trkpt lat="43.98997" lon="7.26084">
        <ele>1058.071899</ele>
        <time>2016-01-17T08:34:21.000Z</time>
      </trkpt>
      <trkpt lat="43.99005" lon="7.26079">
        <ele>1058.686646</ele>
        <time>2016-01-17T08:34:26.000Z</time>
      </trkpt>
      <trkpt lat="43.99015" lon="7.26081">
        <ele>1058.459473</ele>
        <time>2016-01-17T08:34:31.000Z</time>
      </trkpt>
      <trkpt lat="43.99025" lon="7.26088">
        <ele>1058.882935</ele>
        <time>2016-01-17T08:34:36.000Z</time>
      </trkpt>
      <trkpt lat="43.99033" lon="7.2609">
        <ele>1059.869751</ele>
        <time>2016-01-17T08:34:41.000Z</time>
      </trkpt>
      <trkpt lat="43.99036" lon="7.26079">
        <ele>1060.631226</ele>
        <time>2016-01-17T08:34:46.000Z</time>
      </trkpt>
      <trkpt lat="43.99037" lon="7.26066">
        <ele>1060.818726</ele>
        <time>2016-01-17T08:34:51.000Z</time>
      </trkpt>
      <trkpt lat="43.99035" lon="7.26054">
        <ele>1060.938232</ele>
        <time>2016-01-17T08:34:56.000Z</time>
      </trkpt>
      <trkpt lat="43.99033" lon="7.26043">
        <ele>1061.94458</ele>
        <time>2016-01-17T08:35:01.000Z</time>
      </trkpt>
      <trkpt lat="43.99029" lon="7.26032">
        <ele>1062.233765</ele>
        <time>2016-01-17T08:35:06.000Z</time>
      </trkpt>
      <trkpt lat="43.99024" lon="7.2602">
        <ele>1062.800903</ele>
        <time>2016-01-17T08:35:11.000Z</time>
      </trkpt>
      <trkpt lat="43.9902" lon="7.26008">
        <ele>1062.817627</ele>
        <time>2016-01-17T08:35:16.000Z</time>
      </trkpt>
      <trkpt lat="43.99019" lon="7.25995">
        <ele>1063.131348</ele>
        <time>2016-01-17T08:35:21.000Z</time>
      </trkpt>
      <trkpt lat="43.9902" lon="7.25982">
        <ele>1064.042114</ele>
        <time>2016-01-17T08:35:26.000Z</time>
      </trkpt>
      <trkpt lat="43.99024" lon="7.25971">
        <ele>1064.775024</ele>
        <time>2016-01-17T08:35:31.000Z</time>
      </trkpt>
      <trkpt lat="43.99027" lon="7.2596">
        <ele>1065.348145</ele>
        <time>2016-01-17T08:35:36.000Z</time>
      </trkpt>
      <trkpt lat="43.9903" lon="7.25949">
        <ele>1066.275146</ele>
        <time>2016-01-17T08:35:41.000Z</time>
      </trkpt>
      <trkpt lat="43.99031" lon="7.25938">
        <ele>1067.749023</ele>
        <time>2016-01-17T08:35:46.000Z</time>
      </trkpt>
      <trkpt lat="43.99034" lon="7.25928">
        <ele>1068.813354</ele>
        <time>2016-01-17T08:35:51.000Z</time>
      </trkpt>
      <trkpt lat="43.99037" lon="7.25919">
        <ele>1069.807007</ele>
        <time>2016-01-17T08:35:56.000Z</time>
      </trkpt>
      <trkpt lat="43.99038" lon="7.2591">
        <ele>1070.586304</ele>
        <time>2016-01-17T08:36:01.000Z</time>
      </trkpt>
      <trkpt lat="43.99037" lon="7.259">
        <ele>1071.423584</ele>
        <time>2016-01-17T08:36:06.000Z</time>
      </trkpt>
      <trkpt lat="43.99036" lon="7.25892">
        <ele>1071.989014</ele>
        <time>2016-01-17T08:36:11.000Z</time>
      </trkpt>
      <trkpt lat="43.99034" lon="7.25884">
        <ele>1072.786377</ele>
        <time>2016-01-17T08:36:16.000Z</time>
      </trkpt>
      <trkpt lat="43.99033" lon="7.25876">
        <ele>1073.892822</ele>
        <time>2016-01-17T08:36:21.000Z</time>
      </trkpt>
      <trkpt lat="43.99032" lon="7.25867">
        <ele>1074.748657</ele>
        <time>2016-01-17T08:36:26.000Z</time>
      </trkpt>
      <trkpt lat="43.99032" lon="7.25858">
        <ele>1075.613159</ele>
        <time>2016-01-17T08:36:31.000Z</time>
      </trkpt>
      <trkpt lat="43.99033" lon="7.2585">
        <ele>1076.596436</ele>
        <time>2016-01-17T08:36:36.000Z</time>
      </trkpt>
      <trkpt lat="43.99036" lon="7.25842">
        <ele>1077.413574</ele>
        <time>2016-01-17T08:36:41.000Z</time>
      </trkpt>
      <trkpt lat="43.99038" lon="7.25835">
        <ele>1078.134399</ele>
        <time>2016-01-17T08:36:46.000Z</time>
      </trkpt>
      <trkpt lat="43.99041" lon="7.25827">
        <ele>1078.87439</ele>
        <time>2016-01-17T08:36:51.000Z</time>
      </trkpt>
      <trkpt lat="43.99041" lon="7.25819">
        <ele>1079.28772</ele>
        <time>2016-01-17T08:36:56.000Z</time>
      </trkpt>
      <trkpt lat="43.99039" lon="7.25811">
        <ele>1080.659058</ele>
        <time>2016-01-17T08:37:01.000Z</time>
      </trkpt>
      <trkpt lat="43.99037" lon="7.25804">
        <ele>1081.431396</ele>
        <time>2016-01-17T08:37:06.000Z</time>
      </trkpt>
      <trkpt lat="43.99037" lon="7.25801">
        <ele>1081.779907</ele>
        <time>2016-01-17T08:37:11.000Z</time>
      </trkpt>
      <trkpt lat="43.99035" lon="7.25796">
        <ele>1082.585327</ele>
        <time>2016-01-17T08:37:16.000Z</time>
      </trkpt>
      <trkpt lat="43.99034" lon="7.2579">
        <ele>1083.03418</ele>
        <time>2016-01-17T08:37:21.000Z</time>
      </trkpt>
      <trkpt lat="43.99034" lon="7.25784">
        <ele>1083.487183</ele>
        <time>2016-01-17T08:37:26.000Z</time>
      </trkpt>
      <trkpt lat="43.99034" lon="7.25777">
        <ele>1084.31897</ele>
        <time>2016-01-17T08:37:31.000Z</time>
      </trkpt>
      <trkpt lat="43.99035" lon="7.25771">
        <ele>1085.088379</ele>
        <time>2016-01-17T08:37:36.000Z</time>
      </trkpt>
      <trkpt lat="43.99035" lon="7.25764">
        <ele>1085.703979</ele>
        <time>2016-01-17T08:37:41.000Z</time>
      </trkpt>
      <trkpt lat="43.99035" lon="7.25758">
        <ele>1086.122559</ele>
        <time>2016-01-17T08:37:46.000Z</time>
      </trkpt>
      <trkpt lat="43.99035" lon="7.25753">
        <ele>1086.566528</ele>
        <time>2016-01-17T08:37:51.000Z</time>
      </trkpt>
      <trkpt lat="43.99036" lon="7.25746">
        <ele>1086.994995</ele>
        <time>2016-01-17T08:37:56.000Z</time>
      </trkpt>
      <trkpt lat="43.99036" lon="7.2574">
        <ele>1087.415039</ele>
        <time>2016-01-17T08:38:01.000Z</time>
      </trkpt>
      <trkpt lat="43.99036" lon="7.25737">
        <ele>1087.495605</ele>
        <time>2016-01-17T08:38:06.000Z</time>
      </trkpt>
      <trkpt lat="43.99036" lon="7.25737">
        <ele>1087.239014</ele>
        <time>2016-01-17T08:38:11.000Z</time>
      </trkpt>
      <trkpt lat="43.99036" lon="7.25737">
        <ele>1086.949097</ele>
        <time>2016-01-17T08:38:16.000Z</time>
      </trkpt>
      <trkpt lat="43.99036" lon="7.25738">
        <ele>1086.869873</ele>
        <time>2016-01-17T08:38:21.000Z</time>
      </trkpt>
      <trkpt lat="43.99036" lon="7.25738">
        <ele>1086.84436</ele>
        <time>2016-01-17T08:38:26.000Z</time>
      </trkpt>
      <trkpt lat="43.99036" lon="7.25738">
        <ele>1086.833618</ele>
        <time>2016-01-17T08:38:31.000Z</time>
      </trkpt>
      <trkpt lat="43.99036" lon="7.25738">
        <ele>1086.821533</ele>
        <time>2016-01-17T08:38:36.000Z</time>
      </trkpt>
      <trkpt lat="43.99036" lon="7.25737">
        <ele>1086.825317</ele>
        <time>2016-01-17T08:38:41.000Z</time>
      </trkpt>
      <trkpt lat="43.99035" lon="7.25731">
        <ele>1087.681396</ele>
        <time>2016-01-17T08:38:46.000Z</time>
      </trkpt>
      <trkpt lat="43.99034" lon="7.25722">
        <ele>1087.723145</ele>
        <time>2016-01-17T08:38:51.000Z</time>
      </trkpt>
      <trkpt lat="43.99035" lon="7.25713">
        <ele>1087.869263</ele>
        <time>2016-01-17T08:38:56.000Z</time>
      </trkpt>
      <trkpt lat="43.99036" lon="7.25704">
        <ele>1088.489136</ele>
        <time>2016-01-17T08:39:01.000Z</time>
      </trkpt>
      <trkpt lat="43.99037" lon="7.25692">
        <ele>1089.464111</ele>
        <time>2016-01-17T08:39:06.000Z</time>
      </trkpt>
      <trkpt lat="43.9904" lon="7.25684">
        <ele>1089.793945</ele>
        <time>2016-01-17T08:39:11.000Z</time>
      </trkpt>
      <trkpt lat="43.99043" lon="7.25676">
        <ele>1090.090576</ele>
        <time>2016-01-17T08:39:16.000Z</time>
      </trkpt>
      <trkpt lat="43.99048" lon="7.25671">
        <ele>1090.269409</ele>
        <time>2016-01-17T08:39:21.000Z</time>
      </trkpt>
      <trkpt lat="43.99054" lon="7.25666">
        <ele>1091.10022</ele>
        <time>2016-01-17T08:39:26.000Z</time>
      </trkpt>
      <trkpt lat="43.99061" lon="7.25661">
        <ele>1090.817871</ele>
        <time>2016-01-17T08:39:31.000Z</time>
      </trkpt>
      <trkpt lat="43.99068" lon="7.25657">
        <ele>1091.109741</ele>
        <time>2016-01-17T08:39:36.000Z</time>
      </trkpt>
      <trkpt lat="43.99075" lon="7.25654">
        <ele>1091.946289</ele>
        <time>2016-01-17T08:39:41.000Z</time>
      </trkpt>
      <trkpt lat="43.99082" lon="7.25656">
        <ele>1093.338257</ele>
        <time>2016-01-17T08:39:46.000Z</time>
      </trkpt>
      <trkpt lat="43.9909" lon="7.2566">
        <ele>1094.486084</ele>
        <time>2016-01-17T08:39:51.000Z</time>
      </trkpt>
      <trkpt lat="43.99099" lon="7.25664">
        <ele>1095.322266</ele>
        <time>2016-01-17T08:39:56.000Z</time>
      </trkpt>
      <trkpt lat="43.99108" lon="7.25669">
        <ele>1094.789063</ele>
        <time>2016-01-17T08:40:01.000Z</time>
      </trkpt>
      <trkpt lat="43.99115" lon="7.25673">
        <ele>1095.007568</ele>
        <time>2016-01-17T08:40:06.000Z</time>
      </trkpt>
      <trkpt lat="43.99122" lon="7.25672">
        <ele>1094.833862</ele>
        <time>2016-01-17T08:40:11.000Z</time>
      </trkpt>
      <trkpt lat="43.99122" lon="7.25673">
        <ele>1093.935547</ele>
        <time>2016-01-17T08:40:16.000Z</time>
      </trkpt>
      <trkpt lat="43.99122" lon="7.25673">
        <ele>1093.872681</ele>
        <time>2016-01-17T08:40:21.000Z</time>
      </trkpt>
      <trkpt lat="43.99126" lon="7.25672">
        <ele>1094.044678</ele>
        <time>2016-01-17T08:40:26.000Z</time>
      </trkpt>
      <trkpt lat="43.99135" lon="7.2567">
        <ele>1094.981445</ele>
        <time>2016-01-17T08:40:31.000Z</time>
      </trkpt>
      <trkpt lat="43.99144" lon="7.25669">
        <ele>1095.565796</ele>
        <time>2016-01-17T08:40:36.000Z</time>
      </trkpt>
      <trkpt lat="43.99153" lon="7.25668">
        <ele>1097.065796</ele>
        <time>2016-01-17T08:40:41.000Z</time>
      </trkpt>
      <trkpt lat="43.99164" lon="7.25669">
        <ele>1096.62439</ele>
        <time>2016-01-17T08:40:46.000Z</time>
      </trkpt>
      <trkpt lat="43.99174" lon="7.25667">
        <ele>1096.885132</ele>
        <time>2016-01-17T08:40:51.000Z</time>
      </trkpt>
      <trkpt lat="43.99182" lon="7.25661">
        <ele>1097.733643</ele>
        <time>2016-01-17T08:40:56.000Z</time>
      </trkpt>
      <trkpt lat="43.99191" lon="7.25656">
        <ele>1097.61438</ele>
        <time>2016-01-17T08:41:01.000Z</time>
      </trkpt>
      <trkpt lat="43.99202" lon="7.25652">
        <ele>1097.432007</ele>
        <time>2016-01-17T08:41:06.000Z</time>
      </trkpt>
      <trkpt lat="43.99212" lon="7.25644">
        <ele>1097.518188</ele>
        <time>2016-01-17T08:41:11.000Z</time>
      </trkpt>
      <trkpt lat="43.99222" lon="7.25638">
        <ele>1097.432495</ele>
        <time>2016-01-17T08:41:16.000Z</time>
      </trkpt>
      <trkpt lat="43.99234" lon="7.25636">
        <ele>1097.39209</ele>
        <time>2016-01-17T08:41:21.000Z</time>
      </trkpt>
      <trkpt lat="43.99244" lon="7.25631">
        <ele>1098.154785</ele>
        <time>2016-01-17T08:41:26.000Z</time>
      </trkpt>
      <trkpt lat="43.99253" lon="7.25622">
        <ele>1101.517822</ele>
        <time>2016-01-17T08:41:31.000Z</time>
      </trkpt>
      <trkpt lat="43.99262" lon="7.25615">
        <ele>1101.41333</ele>
        <time>2016-01-17T08:41:36.000Z</time>
      </trkpt>
      <trkpt lat="43.99272" lon="7.25614">
        <ele>1101.638672</ele>
        <time>2016-01-17T08:41:41.000Z</time>
      </trkpt>
      <trkpt lat="43.9928" lon="7.25606">
        <ele>1101.32373</ele>
        <time>2016-01-17T08:41:46.000Z</time>
      </trkpt>
      <trkpt lat="43.99284" lon="7.25594">
        <ele>1101.317505</ele>
        <time>2016-01-17T08:41:51.000Z</time>
      </trkpt>
      <trkpt lat="43.99291" lon="7.25589">
        <ele>1101.751587</ele>
        <time>2016-01-17T08:41:56.000Z</time>
      </trkpt>
      <trkpt lat="43.99295" lon="7.2559">
        <ele>1101.962524</ele>
        <time>2016-01-17T08:42:01.000Z</time>
      </trkpt>
      <trkpt lat="43.99298" lon="7.2559">
        <ele>1102.269531</ele>
        <time>2016-01-17T08:42:06.000Z</time>
      </trkpt>
      <trkpt lat="43.99301" lon="7.25591">
        <ele>1102.68042</ele>
        <time>2016-01-17T08:42:11.000Z</time>
      </trkpt>
      <trkpt lat="43.99304" lon="7.25592">
        <ele>1103.473267</ele>
        <time>2016-01-17T08:42:16.000Z</time>
      </trkpt>
      <trkpt lat="43.99307" lon="7.25593">
        <ele>1104.6698</ele>
        <time>2016-01-17T08:42:21.000Z</time>
      </trkpt>
      <trkpt lat="43.9931" lon="7.25595">
        <ele>1105.349365</ele>
        <time>2016-01-17T08:42:26.000Z</time>
      </trkpt>
      <trkpt lat="43.99313" lon="7.25595">
        <ele>1106.097656</ele>
        <time>2016-01-17T08:42:31.000Z</time>
      </trkpt>
      <trkpt lat="43.99315" lon="7.25593">
        <ele>1106.625488</ele>
        <time>2016-01-17T08:42:36.000Z</time>
      </trkpt>
      <trkpt lat="43.99316" lon="7.25588">
        <ele>1107.398438</ele>
        <time>2016-01-17T08:42:41.000Z</time>
      </trkpt>
      <trkpt lat="43.99317" lon="7.25583">
        <ele>1108.557861</ele>
        <time>2016-01-17T08:42:46.000Z</time>
      </trkpt>
      <trkpt lat="43.99319" lon="7.25578">
        <ele>1108.635498</ele>
        <time>2016-01-17T08:42:51.000Z</time>
      </trkpt>
      <trkpt lat="43.99321" lon="7.25574">
        <ele>1109.53479</ele>
        <time>2016-01-17T08:42:56.000Z</time>
      </trkpt>
      <trkpt lat="43.99323" lon="7.25569">
        <ele>1110.621216</ele>
        <time>2016-01-17T08:43:01.000Z</time>
      </trkpt>
      <trkpt lat="43.99325" lon="7.25564">
        <ele>1111.723267</ele>
        <time>2016-01-17T08:43:06.000Z</time>
      </trkpt>
      <trkpt lat="43.99328" lon="7.2556">
        <ele>1112.379761</ele>
        <time>2016-01-17T08:43:11.000Z</time>
      </trkpt>
      <trkpt lat="43.99332" lon="7.25557">
        <ele>1113.000244</ele>
        <time>2016-01-17T08:43:16.000Z</time>
      </trkpt>
      <trkpt lat="43.99335" lon="7.25552">
        <ele>1114.238281</ele>
        <time>2016-01-17T08:43:21.000Z</time>
      </trkpt>
      <trkpt lat="43.99338" lon="7.25549">
        <ele>1114.697266</ele>
        <time>2016-01-17T08:43:26.000Z</time>
      </trkpt>
      <trkpt lat="43.99342" lon="7.25547">
        <ele>1115.937378</ele>
        <time>2016-01-17T08:43:31.000Z</time>
      </trkpt>
      <trkpt lat="43.99346" lon="7.25546">
        <ele>1117.265869</ele>
        <time>2016-01-17T08:43:36.000Z</time>
      </trkpt>
      <trkpt lat="43.9935" lon="7.25546">
        <ele>1118.961792</ele>
        <time>2016-01-17T08:43:41.000Z</time>
      </trkpt>
      <trkpt lat="43.99353" lon="7.25545">
        <ele>1120.083862</ele>
        <time>2016-01-17T08:43:46.000Z</time>
      </trkpt>
      <trkpt lat="43.99358" lon="7.25545">
        <ele>1121.049316</ele>
        <time>2016-01-17T08:43:51.000Z</time>
      </trkpt>
      <trkpt lat="43.99362" lon="7.25545">
        <ele>1122.140747</ele>
        <time>2016-01-17T08:43:56.000Z</time>
      </trkpt>
      <trkpt lat="43.99366" lon="7.25545">
        <ele>1122.936768</ele>
        <time>2016-01-17T08:44:01.000Z</time>
      </trkpt>
      <trkpt lat="43.99368" lon="7.25548">
        <ele>1123.271484</ele>
        <time>2016-01-17T08:44:06.000Z</time>
      </trkpt>
      <trkpt lat="43.99365" lon="7.2555">
        <ele>1124.344971</ele>
        <time>2016-01-17T08:44:11.000Z</time>
      </trkpt>
      <trkpt lat="43.99361" lon="7.25554">
        <ele>1125.526245</ele>
        <time>2016-01-17T08:44:16.000Z</time>
      </trkpt>
      <trkpt lat="43.99359" lon="7.25557">
        <ele>1126.49707</ele>
        <time>2016-01-17T08:44:21.000Z</time>
      </trkpt>
      <trkpt lat="43.99357" lon="7.2556">
        <ele>1127.486572</ele>
        <time>2016-01-17T08:44:26.000Z</time>
      </trkpt>
      <trkpt lat="43.99358" lon="7.2556">
        <ele>1127.7229</ele>
        <time>2016-01-17T08:44:31.000Z</time>
      </trkpt>
      <trkpt lat="43.9936" lon="7.2556">
        <ele>1128.01416</ele>
        <time>2016-01-17T08:44:36.000Z</time>
      </trkpt>
      <trkpt lat="43.99363" lon="7.2556">
        <ele>1128.713013</ele>
        <time>2016-01-17T08:44:41.000Z</time>
      </trkpt>
      <trkpt lat="43.99367" lon="7.2556">
        <ele>1129.468506</ele>
        <time>2016-01-17T08:44:46.000Z</time>
      </trkpt>
      <trkpt lat="43.9937" lon="7.25561">
        <ele>1130.585815</ele>
        <time>2016-01-17T08:44:51.000Z</time>
      </trkpt>
      <trkpt lat="43.99373" lon="7.25561">
        <ele>1131.510864</ele>
        <time>2016-01-17T08:44:56.000Z</time>
      </trkpt>
      <trkpt lat="43.99377" lon="7.25562">
        <ele>1132.086304</ele>
        <time>2016-01-17T08:45:01.000Z</time>
      </trkpt>
      <trkpt lat="43.99379" lon="7.25565">
        <ele>1133.364014</ele>
        <time>2016-01-17T08:45:06.000Z</time>
      </trkpt>
      <trkpt lat="43.99382" lon="7.25568">
        <ele>1134.581665</ele>
        <time>2016-01-17T08:45:11.000Z</time>
      </trkpt>
      <trkpt lat="43.99385" lon="7.2557">
        <ele>1135.062256</ele>
        <time>2016-01-17T08:45:16.000Z</time>
      </trkpt>
      <trkpt lat="43.99388" lon="7.25573">
        <ele>1136.015259</ele>
        <time>2016-01-17T08:45:21.000Z</time>
      </trkpt>
      <trkpt lat="43.99392" lon="7.25575">
        <ele>1136.747803</ele>
        <time>2016-01-17T08:45:26.000Z</time>
      </trkpt>
      <trkpt lat="43.99396" lon="7.25578">
        <ele>1137.867676</ele>
        <time>2016-01-17T08:45:31.000Z</time>
      </trkpt>
      <trkpt lat="43.99397" lon="7.25581">
        <ele>1138.788574</ele>
        <time>2016-01-17T08:45:36.000Z</time>
      </trkpt>
      <trkpt lat="43.99401" lon="7.25583">
        <ele>1138.064819</ele>
        <time>2016-01-17T08:45:41.000Z</time>
      </trkpt>
      <trkpt lat="43.99407" lon="7.25586">
        <ele>1137.981567</ele>
        <time>2016-01-17T08:45:46.000Z</time>
      </trkpt>
      <trkpt lat="43.99411" lon="7.25581">
        <ele>1137.907227</ele>
        <time>2016-01-17T08:45:51.000Z</time>
      </trkpt>
      <trkpt lat="43.99412" lon="7.25573">
        <ele>1138.365112</ele>
        <time>2016-01-17T08:45:56.000Z</time>
      </trkpt>
      <trkpt lat="43.99412" lon="7.25568">
        <ele>1139.302002</ele>
        <time>2016-01-17T08:46:01.000Z</time>
      </trkpt>
      <trkpt lat="43.99412" lon="7.25562">
        <ele>1140.496582</ele>
        <time>2016-01-17T08:46:06.000Z</time>
      </trkpt>
      <trkpt lat="43.99413" lon="7.25557">
        <ele>1141.556641</ele>
        <time>2016-01-17T08:46:11.000Z</time>
      </trkpt>
      <trkpt lat="43.99412" lon="7.25551">
        <ele>1142.38208</ele>
        <time>2016-01-17T08:46:16.000Z</time>
      </trkpt>
      <trkpt lat="43.99411" lon="7.25545">
        <ele>1143.322998</ele>
        <time>2016-01-17T08:46:21.000Z</time>
      </trkpt>
      <trkpt lat="43.9941" lon="7.2554">
        <ele>1144.34314</ele>
        <time>2016-01-17T08:46:26.000Z</time>
      </trkpt>
      <trkpt lat="43.9941" lon="7.25535">
        <ele>1144.943115</ele>
        <time>2016-01-17T08:46:31.000Z</time>
      </trkpt>
      <trkpt lat="43.99411" lon="7.25529">
        <ele>1146.37146</ele>
        <time>2016-01-17T08:46:36.000Z</time>
      </trkpt>
      <trkpt lat="43.99412" lon="7.25526">
        <ele>1146.529785</ele>
        <time>2016-01-17T08:46:41.000Z</time>
      </trkpt>
      <trkpt lat="43.99412" lon="7.25523">
        <ele>1146.715332</ele>
        <time>2016-01-17T08:46:46.000Z</time>
      </trkpt>
      <trkpt lat="43.99413" lon="7.25518">
        <ele>1147.704224</ele>
        <time>2016-01-17T08:46:51.000Z</time>
      </trkpt>
      <trkpt lat="43.99414" lon="7.25513">
        <ele>1148.025391</ele>
        <time>2016-01-17T08:46:56.000Z</time>
      </trkpt>
      <trkpt lat="43.99414" lon="7.25509">
        <ele>1148.300415</ele>
        <time>2016-01-17T08:47:01.000Z</time>
      </trkpt>
      <trkpt lat="43.99416" lon="7.25505">
        <ele>1149.337891</ele>
        <time>2016-01-17T08:47:06.000Z</time>
      </trkpt>
      <trkpt lat="43.99418" lon="7.255">
        <ele>1150.509888</ele>
        <time>2016-01-17T08:47:11.000Z</time>
      </trkpt>
      <trkpt lat="43.99419" lon="7.25497">
        <ele>1151.185669</ele>
        <time>2016-01-17T08:47:16.000Z</time>
      </trkpt>
      <trkpt lat="43.99419" lon="7.25497">
        <ele>1150.796021</ele>
        <time>2016-01-17T08:47:21.000Z</time>
      </trkpt>
      <trkpt lat="43.9942" lon="7.25495">
        <ele>1150.802612</ele>
        <time>2016-01-17T08:47:26.000Z</time>
      </trkpt>
      <trkpt lat="43.9942" lon="7.25495">
        <ele>1150.939697</ele>
        <time>2016-01-17T08:47:31.000Z</time>
      </trkpt>
      <trkpt lat="43.9942" lon="7.25495">
        <ele>1150.817139</ele>
        <time>2016-01-17T08:47:36.000Z</time>
      </trkpt>
      <trkpt lat="43.99422" lon="7.25499">
        <ele>1151.500732</ele>
        <time>2016-01-17T08:47:41.000Z</time>
      </trkpt>
      <trkpt lat="43.99421" lon="7.25504">
        <ele>1152.266724</ele>
        <time>2016-01-17T08:47:46.000Z</time>
      </trkpt>
      <trkpt lat="43.99423" lon="7.25506">
        <ele>1153.00354</ele>
        <time>2016-01-17T08:47:51.000Z</time>
      </trkpt>
      <trkpt lat="43.99425" lon="7.25502">
        <ele>1154.018921</ele>
        <time>2016-01-17T08:47:56.000Z</time>
      </trkpt>
      <trkpt lat="43.99427" lon="7.25498">
        <ele>1154.930298</ele>
        <time>2016-01-17T08:48:01.000Z</time>
      </trkpt>
      <trkpt lat="43.99429" lon="7.25494">
        <ele>1156.067383</ele>
        <time>2016-01-17T08:48:06.000Z</time>
      </trkpt>
      <trkpt lat="43.99431" lon="7.25491">
        <ele>1156.650879</ele>
        <time>2016-01-17T08:48:11.000Z</time>
      </trkpt>
      <trkpt lat="43.99434" lon="7.25489">
        <ele>1157.598022</ele>
        <time>2016-01-17T08:48:16.000Z</time>
      </trkpt>
      <trkpt lat="43.99436" lon="7.25486">
        <ele>1158.869507</ele>
        <time>2016-01-17T08:48:21.000Z</time>
      </trkpt>
      <trkpt lat="43.99438" lon="7.25487">
        <ele>1160.240601</ele>
        <time>2016-01-17T08:48:26.000Z</time>
      </trkpt>
      <trkpt lat="43.99439" lon="7.25487">
        <ele>1160.21228</ele>
        <time>2016-01-17T08:48:31.000Z</time>
      </trkpt>
      <trkpt lat="43.99442" lon="7.25485">
        <ele>1161.15686</ele>
        <time>2016-01-17T08:48:36.000Z</time>
      </trkpt>
      <trkpt lat="43.99442" lon="7.2549">
        <ele>1161.730835</ele>
        <time>2016-01-17T08:48:41.000Z</time>
      </trkpt>
      <trkpt lat="43.99441" lon="7.25494">
        <ele>1162.744873</ele>
        <time>2016-01-17T08:48:46.000Z</time>
      </trkpt>
      <trkpt lat="43.99441" lon="7.255">
        <ele>1164.187378</ele>
        <time>2016-01-17T08:48:51.000Z</time>
      </trkpt>
      <trkpt lat="43.99441" lon="7.25504">
        <ele>1165.024536</ele>
        <time>2016-01-17T08:48:56.000Z</time>
      </trkpt>
      <trkpt lat="43.99442" lon="7.25508">
        <ele>1168.154297</ele>
        <time>2016-01-17T08:49:01.000Z</time>
      </trkpt>
      <trkpt lat="43.99442" lon="7.25511">
        <ele>1169.154297</ele>
        <time>2016-01-17T08:49:06.000Z</time>
      </trkpt>
      <trkpt lat="43.99442" lon="7.25507">
        <ele>1174.028442</ele>
        <time>2016-01-17T08:49:11.000Z</time>
      </trkpt>
      <trkpt lat="43.99442" lon="7.25501">
        <ele>1175.401978</ele>
        <time>2016-01-17T08:49:16.000Z</time>
      </trkpt>
      <trkpt lat="43.99443" lon="7.25496">
        <ele>1176.916748</ele>
        <time>2016-01-17T08:49:21.000Z</time>
      </trkpt>
      <trkpt lat="43.99446" lon="7.25492">
        <ele>1177.009644</ele>
        <time>2016-01-17T08:49:26.000Z</time>
      </trkpt>
      <trkpt lat="43.99448" lon="7.25488">
        <ele>1178.29248</ele>
        <time>2016-01-17T08:49:31.000Z</time>
      </trkpt>
      <trkpt lat="43.99451" lon="7.25487">
        <ele>1179.94873</ele>
        <time>2016-01-17T08:49:36.000Z</time>
      </trkpt>
      <trkpt lat="43.99453" lon="7.25484">
        <ele>1181.042236</ele>
        <time>2016-01-17T08:49:41.000Z</time>
      </trkpt>
      <trkpt lat="43.99455" lon="7.25481">
        <ele>1182.321289</ele>
        <time>2016-01-17T08:49:46.000Z</time>
      </trkpt>
      <trkpt lat="43.99458" lon="7.25481">
        <ele>1183.392822</ele>
        <time>2016-01-17T08:49:51.000Z</time>
      </trkpt>
      <trkpt lat="43.99459" lon="7.25484">
        <ele>1182.885132</ele>
        <time>2016-01-17T08:49:56.000Z</time>
      </trkpt>
      <trkpt lat="43.99459" lon="7.25489">
        <ele>1181.506348</ele>
        <time>2016-01-17T08:50:01.000Z</time>
      </trkpt>
      <trkpt lat="43.99459" lon="7.25493">
        <ele>1179.421631</ele>
        <time>2016-01-17T08:50:06.000Z</time>
      </trkpt>
      <trkpt lat="43.99459" lon="7.25499">
        <ele>1177.690796</ele>
        <time>2016-01-17T08:50:11.000Z</time>
      </trkpt>
      <trkpt lat="43.99459" lon="7.25503">
        <ele>1179.734009</ele>
        <time>2016-01-17T08:50:16.000Z</time>
      </trkpt>
      <trkpt lat="43.99461" lon="7.25502">
        <ele>1179.667603</ele>
        <time>2016-01-17T08:50:21.000Z</time>
      </trkpt>
      <trkpt lat="43.99462" lon="7.25498">
        <ele>1179.066528</ele>
        <time>2016-01-17T08:50:26.000Z</time>
      </trkpt>
      <trkpt lat="43.99465" lon="7.25494">
        <ele>1179.377563</ele>
        <time>2016-01-17T08:50:31.000Z</time>
      </trkpt>
      <trkpt lat="43.99467" lon="7.25489">
        <ele>1180.23999</ele>
        <time>2016-01-17T08:50:36.000Z</time>
      </trkpt>
      <trkpt lat="43.9947" lon="7.25485">
        <ele>1181.057495</ele>
        <time>2016-01-17T08:50:41.000Z</time>
      </trkpt>
      <trkpt lat="43.99472" lon="7.25481">
        <ele>1182.328979</ele>
        <time>2016-01-17T08:50:46.000Z</time>
      </trkpt>
      <trkpt lat="43.99474" lon="7.2548">
        <ele>1183.779297</ele>
        <time>2016-01-17T08:50:51.000Z</time>
      </trkpt>
      <trkpt lat="43.99477" lon="7.25478">
        <ele>1183.261108</ele>
        <time>2016-01-17T08:50:56.000Z</time>
      </trkpt>
      <trkpt lat="43.99479" lon="7.25477">
        <ele>1183.397705</ele>
        <time>2016-01-17T08:51:01.000Z</time>
      </trkpt>
      <trkpt lat="43.99481" lon="7.25477">
        <ele>1183.483643</ele>
        <time>2016-01-17T08:51:06.000Z</time>
      </trkpt>
      <trkpt lat="43.99481" lon="7.25479">
        <ele>1183.545288</ele>
        <time>2016-01-17T08:51:11.000Z</time>
      </trkpt>
      <trkpt lat="43.99481" lon="7.25487">
        <ele>1181.375244</ele>
        <time>2016-01-17T08:51:16.000Z</time>
      </trkpt>
      <trkpt lat="43.99482" lon="7.25487">
        <ele>1183.302124</ele>
        <time>2016-01-17T08:51:21.000Z</time>
      </trkpt>
      <trkpt lat="43.99484" lon="7.25483">
        <ele>1183.56604</ele>
        <time>2016-01-17T08:51:26.000Z</time>
      </trkpt>
      <trkpt lat="43.99488" lon="7.25478">
        <ele>1182.764404</ele>
        <time>2016-01-17T08:51:31.000Z</time>
      </trkpt>
      <trkpt lat="43.99491" lon="7.25473">
        <ele>1182.682739</ele>
        <time>2016-01-17T08:51:36.000Z</time>
      </trkpt>
      <trkpt lat="43.99491" lon="7.25469">
        <ele>1182.542603</ele>
        <time>2016-01-17T08:51:41.000Z</time>
      </trkpt>
      <trkpt lat="43.99492" lon="7.25469">
        <ele>1182.619507</ele>
        <time>2016-01-17T08:51:46.000Z</time>
      </trkpt>
      <trkpt lat="43.99494" lon="7.25468">
        <ele>1183.166626</ele>
        <time>2016-01-17T08:51:51.000Z</time>
      </trkpt>
      <trkpt lat="43.99494" lon="7.25469">
        <ele>1183.866089</ele>
        <time>2016-01-17T08:51:56.000Z</time>
      </trkpt>
      <trkpt lat="43.99495" lon="7.25468">
        <ele>1183.910156</ele>
        <time>2016-01-17T08:52:01.000Z</time>
      </trkpt>
      <trkpt lat="43.99495" lon="7.25468">
        <ele>1183.925537</ele>
        <time>2016-01-17T08:52:06.000Z</time>
      </trkpt>
      <trkpt lat="43.99495" lon="7.25468">
        <ele>1183.940063</ele>
        <time>2016-01-17T08:52:11.000Z</time>
      </trkpt>
      <trkpt lat="43.99495" lon="7.25468">
        <ele>1183.947021</ele>
        <time>2016-01-17T08:52:16.000Z</time>
      </trkpt>
      <trkpt lat="43.99495" lon="7.25468">
        <ele>1183.958008</ele>
        <time>2016-01-17T08:52:21.000Z</time>
      </trkpt>
      <trkpt lat="43.99495" lon="7.25468">
        <ele>1183.866943</ele>
        <time>2016-01-17T08:52:26.000Z</time>
      </trkpt>
      <trkpt lat="43.99495" lon="7.25468">
        <ele>1183.882446</ele>
        <time>2016-01-17T08:52:31.000Z</time>
      </trkpt>
      <trkpt lat="43.99495" lon="7.25468">
        <ele>1183.892578</ele>
        <time>2016-01-17T08:52:36.000Z</time>
      </trkpt>
      <trkpt lat="43.99495" lon="7.25468">
        <ele>1183.921631</ele>
        <time>2016-01-17T08:52:41.000Z</time>
      </trkpt>
      <trkpt lat="43.99495" lon="7.25468">
        <ele>1183.954956</ele>
        <time>2016-01-17T08:52:46.000Z</time>
      </trkpt>
      <trkpt lat="43.99495" lon="7.25468">
        <ele>1183.978394</ele>
        <time>2016-01-17T08:52:51.000Z</time>
      </trkpt>
      <trkpt lat="43.99495" lon="7.25468">
        <ele>1183.938354</ele>
        <time>2016-01-17T08:52:56.000Z</time>
      </trkpt>
      <trkpt lat="43.99495" lon="7.25468">
        <ele>1183.769775</ele>
        <time>2016-01-17T08:53:01.000Z</time>
      </trkpt>
      <trkpt lat="43.99495" lon="7.25468">
        <ele>1183.732056</ele>
        <time>2016-01-17T08:53:06.000Z</time>
      </trkpt>
      <trkpt lat="43.99495" lon="7.25468">
        <ele>1183.850708</ele>
        <time>2016-01-17T08:53:11.000Z</time>
      </trkpt>
      <trkpt lat="43.99495" lon="7.25468">
        <ele>1183.874023</ele>
        <time>2016-01-17T08:53:16.000Z</time>
      </trkpt>
      <trkpt lat="43.99494" lon="7.25468">
        <ele>1183.714233</ele>
        <time>2016-01-17T08:53:21.000Z</time>
      </trkpt>
      <trkpt lat="43.99494" lon="7.25468">
        <ele>1183.725708</ele>
        <time>2016-01-17T08:53:26.000Z</time>
      </trkpt>
      <trkpt lat="43.99494" lon="7.25468">
        <ele>1183.73645</ele>
        <time>2016-01-17T08:53:31.000Z</time>
      </trkpt>
      <trkpt lat="43.99494" lon="7.25468">
        <ele>1183.737671</ele>
        <time>2016-01-17T08:53:36.000Z</time>
      </trkpt>
      <trkpt lat="43.99494" lon="7.25468">
        <ele>1183.754883</ele>
        <time>2016-01-17T08:53:41.000Z</time>
      </trkpt>
      <trkpt lat="43.99494" lon="7.25468">
        <ele>1183.765747</ele>
        <time>2016-01-17T08:53:46.000Z</time>
      </trkpt>
      <trkpt lat="43.99494" lon="7.25468">
        <ele>1183.7854</ele>
        <time>2016-01-17T08:53:51.000Z</time>
      </trkpt>
      <trkpt lat="43.99494" lon="7.25468">
        <ele>1183.803101</ele>
        <time>2016-01-17T08:53:56.000Z</time>
      </trkpt>
      <trkpt lat="43.99494" lon="7.25468">
        <ele>1183.821045</ele>
        <time>2016-01-17T08:54:01.000Z</time>
      </trkpt>
      <trkpt lat="43.99494" lon="7.25468">
        <ele>1183.834839</ele>
        <time>2016-01-17T08:54:06.000Z</time>
      </trkpt>
      <trkpt lat="43.99494" lon="7.25468">
        <ele>1183.848755</ele>
        <time>2016-01-17T08:54:11.000Z</time>
      </trkpt>
      <trkpt lat="43.99494" lon="7.25468">
        <ele>1183.862427</ele>
        <time>2016-01-17T08:54:16.000Z</time>
      </trkpt>
      <trkpt lat="43.99494" lon="7.25468">
        <ele>1183.872925</ele>
        <time>2016-01-17T08:54:21.000Z</time>
      </trkpt>
      <trkpt lat="43.99494" lon="7.25468">
        <ele>1183.887207</ele>
        <time>2016-01-17T08:54:26.000Z</time>
      </trkpt>
      <trkpt lat="43.99494" lon="7.25468">
        <ele>1183.901123</ele>
        <time>2016-01-17T08:54:31.000Z</time>
      </trkpt>
      <trkpt lat="43.99494" lon="7.25468">
        <ele>1183.915283</ele>
        <time>2016-01-17T08:54:36.000Z</time>
      </trkpt>
      <trkpt lat="43.99494" lon="7.25468">
        <ele>1183.951172</ele>
        <time>2016-01-17T08:54:41.000Z</time>
      </trkpt>
      <trkpt lat="43.99494" lon="7.25468">
        <ele>1184.007446</ele>
        <time>2016-01-17T08:54:46.000Z</time>
      </trkpt>
      <trkpt lat="43.99497" lon="7.2546">
        <ele>1186.168823</ele>
        <time>2016-01-17T08:54:51.000Z</time>
      </trkpt>
      <trkpt lat="43.99501" lon="7.25451">
        <ele>1188.158813</ele>
        <time>2016-01-17T08:54:56.000Z</time>
      </trkpt>
      <trkpt lat="43.99509" lon="7.25443">
        <ele>1189.072876</ele>
        <time>2016-01-17T08:55:01.000Z</time>
      </trkpt>
      <trkpt lat="43.99517" lon="7.25439">
        <ele>1188.768677</ele>
        <time>2016-01-17T08:55:06.000Z</time>
      </trkpt>
      <trkpt lat="43.99526" lon="7.25436">
        <ele>1190.335571</ele>
        <time>2016-01-17T08:55:11.000Z</time>
      </trkpt>
      <trkpt lat="43.99534" lon="7.2543">
        <ele>1190.754761</ele>
        <time>2016-01-17T08:55:16.000Z</time>
      </trkpt>
      <trkpt lat="43.99541" lon="7.25425">
        <ele>1191.472778</ele>
        <time>2016-01-17T08:55:21.000Z</time>
      </trkpt>
      <trkpt lat="43.99547" lon="7.25418">
        <ele>1194.276367</ele>
        <time>2016-01-17T08:55:26.000Z</time>
      </trkpt>
      <trkpt lat="43.99557" lon="7.2541">
        <ele>1196.397217</ele>
        <time>2016-01-17T08:55:31.000Z</time>
      </trkpt>
      <trkpt lat="43.99566" lon="7.25403">
        <ele>1199.423706</ele>
        <time>2016-01-17T08:55:36.000Z</time>
      </trkpt>
      <trkpt lat="43.99574" lon="7.25397">
        <ele>1199.966309</ele>
        <time>2016-01-17T08:55:41.000Z</time>
      </trkpt>
      <trkpt lat="43.99584" lon="7.25395">
        <ele>1200.201782</ele>
        <time>2016-01-17T08:55:46.000Z</time>
      </trkpt>
      <trkpt lat="43.99592" lon="7.25395">
        <ele>1201.948486</ele>
        <time>2016-01-17T08:55:51.000Z</time>
      </trkpt>
      <trkpt lat="43.99599" lon="7.25395">
        <ele>1203.73999</ele>
        <time>2016-01-17T08:55:56.000Z</time>
      </trkpt>
      <trkpt lat="43.99608" lon="7.25396">
        <ele>1203.206177</ele>
        <time>2016-01-17T08:56:01.000Z</time>
      </trkpt>
      <trkpt lat="43.99615" lon="7.25397">
        <ele>1202.460938</ele>
        <time>2016-01-17T08:56:06.000Z</time>
      </trkpt>
      <trkpt lat="43.99617" lon="7.25397">
        <ele>1202.406738</ele>
        <time>2016-01-17T08:56:11.000Z</time>
      </trkpt>
      <trkpt lat="43.99619" lon="7.25399">
        <ele>1202.467285</ele>
        <time>2016-01-17T08:56:16.000Z</time>
      </trkpt>
      <trkpt lat="43.99621" lon="7.25402">
        <ele>1202.735352</ele>
        <time>2016-01-17T08:56:21.000Z</time>
      </trkpt>
      <trkpt lat="43.99625" lon="7.25404">
        <ele>1203.146118</ele>
        <time>2016-01-17T08:56:26.000Z</time>
      </trkpt>
      <trkpt lat="43.99627" lon="7.25406">
        <ele>1203.702393</ele>
        <time>2016-01-17T08:56:31.000Z</time>
      </trkpt>
      <trkpt lat="43.99631" lon="7.25406">
        <ele>1204.277588</ele>
        <time>2016-01-17T08:56:36.000Z</time>
      </trkpt>
      <trkpt lat="43.99634" lon="7.25406">
        <ele>1205.362549</ele>
        <time>2016-01-17T08:56:41.000Z</time>
      </trkpt>
      <trkpt lat="43.99634" lon="7.25404">
        <ele>1206.526733</ele>
        <time>2016-01-17T08:56:46.000Z</time>
      </trkpt>
      <trkpt lat="43.99635" lon="7.25402">
        <ele>1205.955933</ele>
        <time>2016-01-17T08:56:51.000Z</time>
      </trkpt>
      <trkpt lat="43.99635" lon="7.25402">
        <ele>1206.131836</ele>
        <time>2016-01-17T08:56:56.000Z</time>
      </trkpt>
      <trkpt lat="43.99635" lon="7.25398">
        <ele>1206.012329</ele>
        <time>2016-01-17T08:57:01.000Z</time>
      </trkpt>
      <trkpt lat="43.99635" lon="7.25393">
        <ele>1206.74292</ele>
        <time>2016-01-17T08:57:06.000Z</time>
      </trkpt>
      <trkpt lat="43.99636" lon="7.25388">
        <ele>1208.501831</ele>
        <time>2016-01-17T08:57:11.000Z</time>
      </trkpt>
      <trkpt lat="43.99636" lon="7.25384">
        <ele>1209.84021</ele>
        <time>2016-01-17T08:57:16.000Z</time>
      </trkpt>
      <trkpt lat="43.99637" lon="7.2538">
        <ele>1211.85791</ele>
        <time>2016-01-17T08:57:21.000Z</time>
      </trkpt>
      <trkpt lat="43.99639" lon="7.25378">
        <ele>1213.255493</ele>
        <time>2016-01-17T08:57:26.000Z</time>
      </trkpt>
      <trkpt lat="43.99639" lon="7.25375">
        <ele>1214.141846</ele>
        <time>2016-01-17T08:57:31.000Z</time>
      </trkpt>
      <trkpt lat="43.99642" lon="7.25373">
        <ele>1215.151855</ele>
        <time>2016-01-17T08:57:36.000Z</time>
      </trkpt>
      <trkpt lat="43.99641" lon="7.25368">
        <ele>1215.894165</ele>
        <time>2016-01-17T08:57:41.000Z</time>
      </trkpt>
      <trkpt lat="43.99641" lon="7.25363">
        <ele>1216.839966</ele>
        <time>2016-01-17T08:57:46.000Z</time>
      </trkpt>
      <trkpt lat="43.99641" lon="7.25358">
        <ele>1218.198364</ele>
        <time>2016-01-17T08:57:51.000Z</time>
      </trkpt>
      <trkpt lat="43.99641" lon="7.25353">
        <ele>1217.969971</ele>
        <time>2016-01-17T08:57:56.000Z</time>
      </trkpt>
      <trkpt lat="43.99641" lon="7.25349">
        <ele>1218.621338</ele>
        <time>2016-01-17T08:58:01.000Z</time>
      </trkpt>
      <trkpt lat="43.99641" lon="7.25345">
        <ele>1219.213501</ele>
        <time>2016-01-17T08:58:06.000Z</time>
      </trkpt>
      <trkpt lat="43.99641" lon="7.25341">
        <ele>1219.895996</ele>
        <time>2016-01-17T08:58:11.000Z</time>
      </trkpt>
      <trkpt lat="43.99642" lon="7.25337">
        <ele>1220.318115</ele>
        <time>2016-01-17T08:58:16.000Z</time>
      </trkpt>
      <trkpt lat="43.99642" lon="7.25334">
        <ele>1220.996216</ele>
        <time>2016-01-17T08:58:21.000Z</time>
      </trkpt>
      <trkpt lat="43.99641" lon="7.2533">
        <ele>1220.896851</ele>
        <time>2016-01-17T08:58:26.000Z</time>
      </trkpt>
      <trkpt lat="43.9964" lon="7.25326">
        <ele>1222.181152</ele>
        <time>2016-01-17T08:58:31.000Z</time>
      </trkpt>
      <trkpt lat="43.99639" lon="7.25322">
        <ele>1223.095337</ele>
        <time>2016-01-17T08:58:36.000Z</time>
      </trkpt>
      <trkpt lat="43.99637" lon="7.2532">
        <ele>1223.985718</ele>
        <time>2016-01-17T08:58:41.000Z</time>
      </trkpt>
      <trkpt lat="43.99637" lon="7.25313">
        <ele>1224.597534</ele>
        <time>2016-01-17T08:58:46.000Z</time>
      </trkpt>
      <trkpt lat="43.99637" lon="7.25309">
        <ele>1225.592163</ele>
        <time>2016-01-17T08:58:51.000Z</time>
      </trkpt>
      <trkpt lat="43.99636" lon="7.25305">
        <ele>1226.581055</ele>
        <time>2016-01-17T08:58:56.000Z</time>
      </trkpt>
      <trkpt lat="43.99634" lon="7.25302">
        <ele>1227.224121</ele>
        <time>2016-01-17T08:59:01.000Z</time>
      </trkpt>
      <trkpt lat="43.99634" lon="7.25296">
        <ele>1228.42334</ele>
        <time>2016-01-17T08:59:06.000Z</time>
      </trkpt>
      <trkpt lat="43.99632" lon="7.2529">
        <ele>1228.894531</ele>
        <time>2016-01-17T08:59:11.000Z</time>
      </trkpt>
      <trkpt lat="43.99629" lon="7.25288">
        <ele>1229.268433</ele>
        <time>2016-01-17T08:59:16.000Z</time>
      </trkpt>
      <trkpt lat="43.99625" lon="7.25284">
        <ele>1229.735596</ele>
        <time>2016-01-17T08:59:21.000Z</time>
      </trkpt>
      <trkpt lat="43.99621" lon="7.25279">
        <ele>1229.856934</ele>
        <time>2016-01-17T08:59:26.000Z</time>
      </trkpt>
      <trkpt lat="43.99618" lon="7.25273">
        <ele>1229.746338</ele>
        <time>2016-01-17T08:59:31.000Z</time>
      </trkpt>
      <trkpt lat="43.99616" lon="7.25271">
        <ele>1229.897949</ele>
        <time>2016-01-17T08:59:36.000Z</time>
      </trkpt>
      <trkpt lat="43.99613" lon="7.25268">
        <ele>1230.223511</ele>
        <time>2016-01-17T08:59:41.000Z</time>
      </trkpt>
      <trkpt lat="43.99609" lon="7.25268">
        <ele>1230.738892</ele>
        <time>2016-01-17T08:59:46.000Z</time>
      </trkpt>
      <trkpt lat="43.99606" lon="7.25268">
        <ele>1231.404663</ele>
        <time>2016-01-17T08:59:51.000Z</time>
      </trkpt>
      <trkpt lat="43.99604" lon="7.25267">
        <ele>1232.639404</ele>
        <time>2016-01-17T08:59:56.000Z</time>
      </trkpt>
      <trkpt lat="43.996" lon="7.25265">
        <ele>1232.868042</ele>
        <time>2016-01-17T09:00:01.000Z</time>
      </trkpt>
      <trkpt lat="43.99597" lon="7.25261">
        <ele>1232.712036</ele>
        <time>2016-01-17T09:00:06.000Z</time>
      </trkpt>
      <trkpt lat="43.99595" lon="7.25259">
        <ele>1232.599976</ele>
        <time>2016-01-17T09:00:11.000Z</time>
      </trkpt>
      <trkpt lat="43.99594" lon="7.25259">
        <ele>1232.223755</ele>
        <time>2016-01-17T09:00:16.000Z</time>
      </trkpt>
      <trkpt lat="43.99593" lon="7.25258">
        <ele>1232.182251</ele>
        <time>2016-01-17T09:00:21.000Z</time>
      </trkpt>
      <trkpt lat="43.99593" lon="7.25258">
        <ele>1232.192993</ele>
        <time>2016-01-17T09:00:26.000Z</time>
      </trkpt>
      <trkpt lat="43.99593" lon="7.25258">
        <ele>1232.19812</ele>
        <time>2016-01-17T09:00:31.000Z</time>
      </trkpt>
      <trkpt lat="43.99593" lon="7.25258">
        <ele>1232.196533</ele>
        <time>2016-01-17T09:00:36.000Z</time>
      </trkpt>
      <trkpt lat="43.99593" lon="7.25255">
        <ele>1232.865601</ele>
        <time>2016-01-17T09:00:41.000Z</time>
      </trkpt>
      <trkpt lat="43.99589" lon="7.2525">
        <ele>1232.569458</ele>
        <time>2016-01-17T09:00:46.000Z</time>
      </trkpt>
      <trkpt lat="43.99588" lon="7.25243">
        <ele>1231.914429</ele>
        <time>2016-01-17T09:00:51.000Z</time>
      </trkpt>
      <trkpt lat="43.99585" lon="7.25236">
        <ele>1231.545288</ele>
        <time>2016-01-17T09:00:56.000Z</time>
      </trkpt>
      <trkpt lat="43.99582" lon="7.2523">
        <ele>1230.793335</ele>
        <time>2016-01-17T09:01:01.000Z</time>
      </trkpt>
      <trkpt lat="43.99579" lon="7.25223">
        <ele>1230.715576</ele>
        <time>2016-01-17T09:01:06.000Z</time>
      </trkpt>
      <trkpt lat="43.99577" lon="7.25217">
        <ele>1231.01709</ele>
        <time>2016-01-17T09:01:11.000Z</time>
      </trkpt>
      <trkpt lat="43.99573" lon="7.25213">
        <ele>1234.371094</ele>
        <time>2016-01-17T09:01:16.000Z</time>
      </trkpt>
      <trkpt lat="43.99569" lon="7.2521">
        <ele>1235.294678</ele>
        <time>2016-01-17T09:01:21.000Z</time>
      </trkpt>
      <trkpt lat="43.99567" lon="7.25208">
        <ele>1238.59021</ele>
        <time>2016-01-17T09:01:26.000Z</time>
      </trkpt>
      <trkpt lat="43.99564" lon="7.25205">
        <ele>1241.518311</ele>
        <time>2016-01-17T09:01:31.000Z</time>
      </trkpt>
      <trkpt lat="43.99561" lon="7.25203">
        <ele>1243.677612</ele>
        <time>2016-01-17T09:01:36.000Z</time>
      </trkpt>
      <trkpt lat="43.99557" lon="7.25201">
        <ele>1244.065308</ele>
        <time>2016-01-17T09:01:41.000Z</time>
      </trkpt>
      <trkpt lat="43.99556" lon="7.25196">
        <ele>1245.030762</ele>
        <time>2016-01-17T09:01:46.000Z</time>
      </trkpt>
      <trkpt lat="43.99558" lon="7.25194">
        <ele>1246.107544</ele>
        <time>2016-01-17T09:01:51.000Z</time>
      </trkpt>
      <trkpt lat="43.99558" lon="7.25195">
        <ele>1246.6698</ele>
        <time>2016-01-17T09:01:56.000Z</time>
      </trkpt>
      <trkpt lat="43.99558" lon="7.25195">
        <ele>1247.15918</ele>
        <time>2016-01-17T09:02:01.000Z</time>
      </trkpt>
      <trkpt lat="43.99561" lon="7.25195">
        <ele>1247.42688</ele>
        <time>2016-01-17T09:02:06.000Z</time>
      </trkpt>
      <trkpt lat="43.99563" lon="7.25195">
        <ele>1247.771973</ele>
        <time>2016-01-17T09:02:11.000Z</time>
      </trkpt>
      <trkpt lat="43.99564" lon="7.25193">
        <ele>1248.220459</ele>
        <time>2016-01-17T09:02:16.000Z</time>
      </trkpt>
      <trkpt lat="43.99562" lon="7.2519">
        <ele>1248.455078</ele>
        <time>2016-01-17T09:02:21.000Z</time>
      </trkpt>
      <trkpt lat="43.99561" lon="7.25183">
        <ele>1248.897217</ele>
        <time>2016-01-17T09:02:26.000Z</time>
      </trkpt>
      <trkpt lat="43.99561" lon="7.25181">
        <ele>1249.095581</ele>
        <time>2016-01-17T09:02:31.000Z</time>
      </trkpt>
      <trkpt lat="43.99563" lon="7.25181">
        <ele>1249.231323</ele>
        <time>2016-01-17T09:02:36.000Z</time>
      </trkpt>
      <trkpt lat="43.99566" lon="7.25185">
        <ele>1249.722412</ele>
        <time>2016-01-17T09:02:41.000Z</time>
      </trkpt>
      <trkpt lat="43.99569" lon="7.25188">
        <ele>1250.749756</ele>
        <time>2016-01-17T09:02:46.000Z</time>
      </trkpt>
      <trkpt lat="43.99571" lon="7.25189">
        <ele>1251.65979</ele>
        <time>2016-01-17T09:02:51.000Z</time>
      </trkpt>
      <trkpt lat="43.99575" lon="7.25188">
        <ele>1252.880981</ele>
        <time>2016-01-17T09:02:56.000Z</time>
      </trkpt>
      <trkpt lat="43.99578" lon="7.2519">
        <ele>1253.942139</ele>
        <time>2016-01-17T09:03:01.000Z</time>
      </trkpt>
      <trkpt lat="43.9958" lon="7.2519">
        <ele>1255.406372</ele>
        <time>2016-01-17T09:03:06.000Z</time>
      </trkpt>
      <trkpt lat="43.9958" lon="7.25186">
        <ele>1256.057373</ele>
        <time>2016-01-17T09:03:11.000Z</time>
      </trkpt>
      <trkpt lat="43.99578" lon="7.25183">
        <ele>1255.989014</ele>
        <time>2016-01-17T09:03:16.000Z</time>
      </trkpt>
      <trkpt lat="43.99576" lon="7.2518">
        <ele>1257.359985</ele>
        <time>2016-01-17T09:03:21.000Z</time>
      </trkpt>
      <trkpt lat="43.99574" lon="7.25179">
        <ele>1257.976318</ele>
        <time>2016-01-17T09:03:26.000Z</time>
      </trkpt>
      <trkpt lat="43.99575" lon="7.25176">
        <ele>1258.083252</ele>
        <time>2016-01-17T09:03:31.000Z</time>
      </trkpt>
      <trkpt lat="43.99577" lon="7.25176">
        <ele>1259.351807</ele>
        <time>2016-01-17T09:03:36.000Z</time>
      </trkpt>
      <trkpt lat="43.99578" lon="7.25176">
        <ele>1260.796143</ele>
        <time>2016-01-17T09:03:41.000Z</time>
      </trkpt>
      <trkpt lat="43.99581" lon="7.25178">
        <ele>1261.51062</ele>
        <time>2016-01-17T09:03:46.000Z</time>
      </trkpt>
      <trkpt lat="43.99584" lon="7.25179">
        <ele>1262.114868</ele>
        <time>2016-01-17T09:03:51.000Z</time>
      </trkpt>
      <trkpt lat="43.99587" lon="7.2518">
        <ele>1263.779053</ele>
        <time>2016-01-17T09:03:56.000Z</time>
      </trkpt>
      <trkpt lat="43.99589" lon="7.25182">
        <ele>1266.295288</ele>
        <time>2016-01-17T09:04:01.000Z</time>
      </trkpt>
      <trkpt lat="43.99591" lon="7.25184">
        <ele>1268.70105</ele>
        <time>2016-01-17T09:04:06.000Z</time>
      </trkpt>
      <trkpt lat="43.99594" lon="7.25186">
        <ele>1270.473022</ele>
        <time>2016-01-17T09:04:11.000Z</time>
      </trkpt>
      <trkpt lat="43.99596" lon="7.25188">
        <ele>1271.236206</ele>
        <time>2016-01-17T09:04:16.000Z</time>
      </trkpt>
      <trkpt lat="43.99599" lon="7.2519">
        <ele>1273.640259</ele>
        <time>2016-01-17T09:04:21.000Z</time>
      </trkpt>
      <trkpt lat="43.99602" lon="7.25191">
        <ele>1274.898193</ele>
        <time>2016-01-17T09:04:26.000Z</time>
      </trkpt>
      <trkpt lat="43.99605" lon="7.25192">
        <ele>1275.878906</ele>
        <time>2016-01-17T09:04:31.000Z</time>
      </trkpt>
      <trkpt lat="43.99607" lon="7.25195">
        <ele>1276.639038</ele>
        <time>2016-01-17T09:04:36.000Z</time>
      </trkpt>
      <trkpt lat="43.99609" lon="7.25197">
        <ele>1277.802246</ele>
        <time>2016-01-17T09:04:41.000Z</time>
      </trkpt>
      <trkpt lat="43.99611" lon="7.25199">
        <ele>1278.316406</ele>
        <time>2016-01-17T09:04:46.000Z</time>
      </trkpt>
      <trkpt lat="43.99614" lon="7.252">
        <ele>1279.494507</ele>
        <time>2016-01-17T09:04:51.000Z</time>
      </trkpt>
      <trkpt lat="43.99616" lon="7.25202">
        <ele>1280.457275</ele>
        <time>2016-01-17T09:04:56.000Z</time>
      </trkpt>
      <trkpt lat="43.99618" lon="7.25203">
        <ele>1280.315308</ele>
        <time>2016-01-17T09:05:01.000Z</time>
      </trkpt>
      <trkpt lat="43.9962" lon="7.25206">
        <ele>1281.742676</ele>
        <time>2016-01-17T09:05:06.000Z</time>
      </trkpt>
      <trkpt lat="43.99623" lon="7.25206">
        <ele>1282.43103</ele>
        <time>2016-01-17T09:05:11.000Z</time>
      </trkpt>
      <trkpt lat="43.99626" lon="7.25205">
        <ele>1283.374512</ele>
        <time>2016-01-17T09:05:16.000Z</time>
      </trkpt>
      <trkpt lat="43.99629" lon="7.25204">
        <ele>1284.977173</ele>
        <time>2016-01-17T09:05:21.000Z</time>
      </trkpt>
      <trkpt lat="43.99633" lon="7.25204">
        <ele>1287.182495</ele>
        <time>2016-01-17T09:05:26.000Z</time>
      </trkpt>
      <trkpt lat="43.99638" lon="7.25205">
        <ele>1290.764648</ele>
        <time>2016-01-17T09:05:31.000Z</time>
      </trkpt>
      <trkpt lat="43.99641" lon="7.25206">
        <ele>1292.327759</ele>
        <time>2016-01-17T09:05:36.000Z</time>
      </trkpt>
      <trkpt lat="43.99641" lon="7.25204">
        <ele>1293.380005</ele>
        <time>2016-01-17T09:05:41.000Z</time>
      </trkpt>
      <trkpt lat="43.99642" lon="7.25204">
        <ele>1293.041016</ele>
        <time>2016-01-17T09:05:46.000Z</time>
      </trkpt>
      <trkpt lat="43.99641" lon="7.25203">
        <ele>1293.109009</ele>
        <time>2016-01-17T09:05:51.000Z</time>
      </trkpt>
      <trkpt lat="43.99638" lon="7.25201">
        <ele>1292.902954</ele>
        <time>2016-01-17T09:05:56.000Z</time>
      </trkpt>
      <trkpt lat="43.99635" lon="7.25197">
        <ele>1293.561523</ele>
        <time>2016-01-17T09:06:01.000Z</time>
      </trkpt>
      <trkpt lat="43.99636" lon="7.25197">
        <ele>1295.176392</ele>
        <time>2016-01-17T09:06:06.000Z</time>
      </trkpt>
      <trkpt lat="43.99637" lon="7.25197">
        <ele>1296.712891</ele>
        <time>2016-01-17T09:06:11.000Z</time>
      </trkpt>
      <trkpt lat="43.99638" lon="7.25197">
        <ele>1297.797119</ele>
        <time>2016-01-17T09:06:16.000Z</time>
      </trkpt>
      <trkpt lat="43.99642" lon="7.25198">
        <ele>1300.503418</ele>
        <time>2016-01-17T09:06:21.000Z</time>
      </trkpt>
      <trkpt lat="43.99644" lon="7.25195">
        <ele>1302.381226</ele>
        <time>2016-01-17T09:06:26.000Z</time>
      </trkpt>
      <trkpt lat="43.99644" lon="7.25196">
        <ele>1302.674194</ele>
        <time>2016-01-17T09:06:31.000Z</time>
      </trkpt>
      <trkpt lat="43.99644" lon="7.25196">
        <ele>1302.705688</ele>
        <time>2016-01-17T09:06:36.000Z</time>
      </trkpt>
      <trkpt lat="43.99646" lon="7.25196">
        <ele>1303.852295</ele>
        <time>2016-01-17T09:06:41.000Z</time>
      </trkpt>
      <trkpt lat="43.99652" lon="7.25195">
        <ele>1305.808594</ele>
        <time>2016-01-17T09:06:46.000Z</time>
      </trkpt>
      <trkpt lat="43.99656" lon="7.25195">
        <ele>1307.427979</ele>
        <time>2016-01-17T09:06:51.000Z</time>
      </trkpt>
      <trkpt lat="43.99661" lon="7.25196">
        <ele>1309.339966</ele>
        <time>2016-01-17T09:06:56.000Z</time>
      </trkpt>
      <trkpt lat="43.99665" lon="7.25197">
        <ele>1311.059448</ele>
        <time>2016-01-17T09:07:01.000Z</time>
      </trkpt>
      <trkpt lat="43.99669" lon="7.25195">
        <ele>1311.513916</ele>
        <time>2016-01-17T09:07:06.000Z</time>
      </trkpt>
      <trkpt lat="43.99674" lon="7.25196">
        <ele>1312.241943</ele>
        <time>2016-01-17T09:07:11.000Z</time>
      </trkpt>
      <trkpt lat="43.99676" lon="7.25193">
        <ele>1313.383911</ele>
        <time>2016-01-17T09:07:16.000Z</time>
      </trkpt>
      <trkpt lat="43.99681" lon="7.25192">
        <ele>1314.936523</ele>
        <time>2016-01-17T09:07:21.000Z</time>
      </trkpt>
      <trkpt lat="43.99683" lon="7.2519">
        <ele>1316.460327</ele>
        <time>2016-01-17T09:07:26.000Z</time>
      </trkpt>
      <trkpt lat="43.99687" lon="7.25189">
        <ele>1317.751343</ele>
        <time>2016-01-17T09:07:31.000Z</time>
      </trkpt>
      <trkpt lat="43.9969" lon="7.2519">
        <ele>1320.0177</ele>
        <time>2016-01-17T09:07:36.000Z</time>
      </trkpt>
      <trkpt lat="43.99693" lon="7.25191">
        <ele>1321.675903</ele>
        <time>2016-01-17T09:07:41.000Z</time>
      </trkpt>
      <trkpt lat="43.99697" lon="7.25189">
        <ele>1323.168945</ele>
        <time>2016-01-17T09:07:46.000Z</time>
      </trkpt>
      <trkpt lat="43.997" lon="7.2519">
        <ele>1324.683472</ele>
        <time>2016-01-17T09:07:51.000Z</time>
      </trkpt>
      <trkpt lat="43.99703" lon="7.2519">
        <ele>1328.709106</ele>
        <time>2016-01-17T09:07:56.000Z</time>
      </trkpt>
      <trkpt lat="43.99707" lon="7.25192">
        <ele>1330.475708</ele>
        <time>2016-01-17T09:08:01.000Z</time>
      </trkpt>
      <trkpt lat="43.9971" lon="7.25192">
        <ele>1331.896851</ele>
        <time>2016-01-17T09:08:06.000Z</time>
      </trkpt>
      <trkpt lat="43.99714" lon="7.25192">
        <ele>1333.652588</ele>
        <time>2016-01-17T09:08:11.000Z</time>
      </trkpt>
      <trkpt lat="43.99718" lon="7.25191">
        <ele>1335.434326</ele>
        <time>2016-01-17T09:08:16.000Z</time>
      </trkpt>
      <trkpt lat="43.99721" lon="7.2519">
        <ele>1337.11792</ele>
        <time>2016-01-17T09:08:21.000Z</time>
      </trkpt>
      <trkpt lat="43.99722" lon="7.25189">
        <ele>1337.771729</ele>
        <time>2016-01-17T09:08:26.000Z</time>
      </trkpt>
      <trkpt lat="43.99727" lon="7.25186">
        <ele>1338.518311</ele>
        <time>2016-01-17T09:08:31.000Z</time>
      </trkpt>
      <trkpt lat="43.99729" lon="7.25187">
        <ele>1339.240479</ele>
        <time>2016-01-17T09:08:36.000Z</time>
      </trkpt>
      <trkpt lat="43.99727" lon="7.2519">
        <ele>1339.515015</ele>
        <time>2016-01-17T09:08:41.000Z</time>
      </trkpt>
      <trkpt lat="43.99727" lon="7.25195">
        <ele>1339.976563</ele>
        <time>2016-01-17T09:08:46.000Z</time>
      </trkpt>
      <trkpt lat="43.99727" lon="7.252">
        <ele>1340.484375</ele>
        <time>2016-01-17T09:08:51.000Z</time>
      </trkpt>
      <trkpt lat="43.99726" lon="7.25205">
        <ele>1341.014404</ele>
        <time>2016-01-17T09:08:56.000Z</time>
      </trkpt>
      <trkpt lat="43.99724" lon="7.25208">
        <ele>1341.52124</ele>
        <time>2016-01-17T09:09:01.000Z</time>
      </trkpt>
      <trkpt lat="43.99719" lon="7.25211">
        <ele>1341.967773</ele>
        <time>2016-01-17T09:09:06.000Z</time>
      </trkpt>
      <trkpt lat="43.99716" lon="7.25213">
        <ele>1342.630249</ele>
        <time>2016-01-17T09:09:11.000Z</time>
      </trkpt>
      <trkpt lat="43.99714" lon="7.25214">
        <ele>1343.215088</ele>
        <time>2016-01-17T09:09:16.000Z</time>
      </trkpt>
      <trkpt lat="43.9971" lon="7.2522">
        <ele>1343.871582</ele>
        <time>2016-01-17T09:09:21.000Z</time>
      </trkpt>
      <trkpt lat="43.99706" lon="7.25224">
        <ele>1344.364136</ele>
        <time>2016-01-17T09:09:26.000Z</time>
      </trkpt>
      <trkpt lat="43.99702" lon="7.25226">
        <ele>1344.186279</ele>
        <time>2016-01-17T09:09:31.000Z</time>
      </trkpt>
      <trkpt lat="43.997" lon="7.25228">
        <ele>1343.297363</ele>
        <time>2016-01-17T09:09:36.000Z</time>
      </trkpt>
      <trkpt lat="43.99697" lon="7.2523">
        <ele>1343.357056</ele>
        <time>2016-01-17T09:09:41.000Z</time>
      </trkpt>
      <trkpt lat="43.99694" lon="7.25231">
        <ele>1343.924805</ele>
        <time>2016-01-17T09:09:46.000Z</time>
      </trkpt>
      <trkpt lat="43.99692" lon="7.25234">
        <ele>1343.997559</ele>
        <time>2016-01-17T09:09:51.000Z</time>
      </trkpt>
      <trkpt lat="43.99692" lon="7.25233">
        <ele>1343.686768</ele>
        <time>2016-01-17T09:09:56.000Z</time>
      </trkpt>
      <trkpt lat="43.99692" lon="7.25233">
        <ele>1343.543335</ele>
        <time>2016-01-17T09:10:01.000Z</time>
      </trkpt>
      <trkpt lat="43.99692" lon="7.25233">
        <ele>1343.521118</ele>
        <time>2016-01-17T09:10:02.000Z</time>
      </trkpt>
      <trkpt lat="43.99692" lon="7.25233">
        <ele>1343.502563</ele>
        <time>2016-01-17T09:10:03.000Z</time>
      </trkpt>
      <trkpt lat="43.99692" lon="7.25233">
        <ele>1343.429688</ele>
        <time>2016-01-17T09:10:08.000Z</time>
      </trkpt>
      <trkpt lat="43.99692" lon="7.25233">
        <ele>1343.423706</ele>
        <time>2016-01-17T09:10:13.000Z</time>
      </trkpt>
      <trkpt lat="43.99692" lon="7.25233">
        <ele>1343.412231</ele>
        <time>2016-01-17T09:10:18.000Z</time>
      </trkpt>
      <trkpt lat="43.99692" lon="7.25233">
        <ele>1343.404419</ele>
        <time>2016-01-17T09:10:23.000Z</time>
      </trkpt>
      <trkpt lat="43.99692" lon="7.25233">
        <ele>1343.404053</ele>
        <time>2016-01-17T09:10:24.000Z</time>
      </trkpt>
      <trkpt lat="43.99692" lon="7.25233">
        <ele>1343.40332</ele>
        <time>2016-01-17T09:10:26.000Z</time>
      </trkpt>
      <trkpt lat="43.99692" lon="7.25233">
        <ele>1343.402588</ele>
        <time>2016-01-17T09:10:31.000Z</time>
      </trkpt>
      <trkpt lat="43.99692" lon="7.25233">
        <ele>1343.399048</ele>
        <time>2016-01-17T09:10:36.000Z</time>
      </trkpt>
      <trkpt lat="43.99692" lon="7.25233">
        <ele>1343.40271</ele>
        <time>2016-01-17T09:10:41.000Z</time>
      </trkpt>
      <trkpt lat="43.99692" lon="7.25233">
        <ele>1343.405273</ele>
        <time>2016-01-17T09:10:46.000Z</time>
      </trkpt>
      <trkpt lat="43.99692" lon="7.25233">
        <ele>1343.402832</ele>
        <time>2016-01-17T09:10:51.000Z</time>
      </trkpt>
      <trkpt lat="43.99692" lon="7.25233">
        <ele>1343.398804</ele>
        <time>2016-01-17T09:10:56.000Z</time>
      </trkpt>
      <trkpt lat="43.99692" lon="7.25233">
        <ele>1343.394043</ele>
        <time>2016-01-17T09:11:01.000Z</time>
      </trkpt>
      <trkpt lat="43.99692" lon="7.25233">
        <ele>1343.387573</ele>
        <time>2016-01-17T09:11:06.000Z</time>
      </trkpt>
      <trkpt lat="43.99692" lon="7.25233">
        <ele>1343.372192</ele>
        <time>2016-01-17T09:11:11.000Z</time>
      </trkpt>
      <trkpt lat="43.99692" lon="7.25233">
        <ele>1343.354126</ele>
        <time>2016-01-17T09:11:16.000Z</time>
      </trkpt>
      <trkpt lat="43.99692" lon="7.25233">
        <ele>1343.339478</ele>
        <time>2016-01-17T09:11:21.000Z</time>
      </trkpt>
      <trkpt lat="43.99692" lon="7.25233">
        <ele>1343.321411</ele>
        <time>2016-01-17T09:11:26.000Z</time>
      </trkpt>
      <trkpt lat="43.99692" lon="7.25233">
        <ele>1343.305176</ele>
        <time>2016-01-17T09:11:31.000Z</time>
      </trkpt>
      <trkpt lat="43.99692" lon="7.25232">
        <ele>1342.932373</ele>
        <time>2016-01-17T09:11:36.000Z</time>
      </trkpt>
      <trkpt lat="43.99692" lon="7.25232">
        <ele>1342.962036</ele>
        <time>2016-01-17T09:11:37.000Z</time>
      </trkpt>
      <trkpt lat="43.99692" lon="7.25231">
        <ele>1342.725952</ele>
        <time>2016-01-17T09:11:42.000Z</time>
      </trkpt>
      <trkpt lat="43.99692" lon="7.25231">
        <ele>1342.707764</ele>
        <time>2016-01-17T09:11:47.000Z</time>
      </trkpt>
      <trkpt lat="43.99692" lon="7.25231">
        <ele>1342.7052</ele>
        <time>2016-01-17T09:11:52.000Z</time>
      </trkpt>
      <trkpt lat="43.99692" lon="7.25231">
        <ele>1342.696289</ele>
        <time>2016-01-17T09:11:57.000Z</time>
      </trkpt>
      <trkpt lat="43.99692" lon="7.25231">
        <ele>1342.685303</ele>
        <time>2016-01-17T09:12:02.000Z</time>
      </trkpt>
      <trkpt lat="43.99692" lon="7.25231">
        <ele>1342.665405</ele>
        <time>2016-01-17T09:12:07.000Z</time>
      </trkpt>
      <trkpt lat="43.99692" lon="7.25231">
        <ele>1342.644653</ele>
        <time>2016-01-17T09:12:12.000Z</time>
      </trkpt>
      <trkpt lat="43.99692" lon="7.25231">
        <ele>1342.646484</ele>
        <time>2016-01-17T09:12:13.000Z</time>
      </trkpt>
      <trkpt lat="43.99692" lon="7.25231">
        <ele>1342.654907</ele>
        <time>2016-01-17T09:12:14.000Z</time>
      </trkpt>
      <trkpt lat="43.99695" lon="7.2523">
        <ele>1342.919189</ele>
        <time>2016-01-17T09:12:19.000Z</time>
      </trkpt>
      <trkpt lat="43.99698" lon="7.25231">
        <ele>1344.399048</ele>
        <time>2016-01-17T09:12:24.000Z</time>
      </trkpt>
      <trkpt lat="43.99702" lon="7.2523">
        <ele>1345.845947</ele>
        <time>2016-01-17T09:12:29.000Z</time>
      </trkpt>
      <trkpt lat="43.99707" lon="7.25231">
        <ele>1346.465088</ele>
        <time>2016-01-17T09:12:34.000Z</time>
      </trkpt>
      <trkpt lat="43.99712" lon="7.25231">
        <ele>1343.556519</ele>
        <time>2016-01-17T09:12:39.000Z</time>
      </trkpt>
      <trkpt lat="43.99715" lon="7.25233">
        <ele>1341.503174</ele>
        <time>2016-01-17T09:12:44.000Z</time>
      </trkpt>
      <trkpt lat="43.99718" lon="7.25234">
        <ele>1341.858032</ele>
        <time>2016-01-17T09:12:49.000Z</time>
      </trkpt>
      <trkpt lat="43.9972" lon="7.25234">
        <ele>1342.209229</ele>
        <time>2016-01-17T09:12:54.000Z</time>
      </trkpt>
      <trkpt lat="43.99723" lon="7.25235">
        <ele>1341.623901</ele>
        <time>2016-01-17T09:12:59.000Z</time>
      </trkpt>
      <trkpt lat="43.99726" lon="7.25235">
        <ele>1342.770264</ele>
        <time>2016-01-17T09:13:04.000Z</time>
      </trkpt>
      <trkpt lat="43.99729" lon="7.25236">
        <ele>1344.321289</ele>
        <time>2016-01-17T09:13:09.000Z</time>
      </trkpt>
      <trkpt lat="43.99732" lon="7.25236">
        <ele>1345.940674</ele>
        <time>2016-01-17T09:13:14.000Z</time>
      </trkpt>
      <trkpt lat="43.99733" lon="7.25236">
        <ele>1346.034424</ele>
        <time>2016-01-17T09:13:15.000Z</time>
      </trkpt>
      <trkpt lat="43.99735" lon="7.25237">
        <ele>1346.272705</ele>
        <time>2016-01-17T09:13:20.000Z</time>
      </trkpt>
      <trkpt lat="43.99738" lon="7.25238">
        <ele>1348.510742</ele>
        <time>2016-01-17T09:13:25.000Z</time>
      </trkpt>
      <trkpt lat="43.99741" lon="7.25239">
        <ele>1350.417969</ele>
        <time>2016-01-17T09:13:30.000Z</time>
      </trkpt>
      <trkpt lat="43.99742" lon="7.25239">
        <ele>1351.61731</ele>
        <time>2016-01-17T09:13:31.000Z</time>
      </trkpt>
      <trkpt lat="43.99745" lon="7.2524">
        <ele>1354.790894</ele>
        <time>2016-01-17T09:13:36.000Z</time>
      </trkpt>
      <trkpt lat="43.99748" lon="7.2524">
        <ele>1355.590576</ele>
        <time>2016-01-17T09:13:41.000Z</time>
      </trkpt>
      <trkpt lat="43.99751" lon="7.25241">
        <ele>1352.926025</ele>
        <time>2016-01-17T09:13:46.000Z</time>
      </trkpt>
      <trkpt lat="43.99754" lon="7.2524">
        <ele>1353.174438</ele>
        <time>2016-01-17T09:13:51.000Z</time>
      </trkpt>
      <trkpt lat="43.99757" lon="7.25242">
        <ele>1355.53833</ele>
        <time>2016-01-17T09:13:56.000Z</time>
      </trkpt>
      <trkpt lat="43.9976" lon="7.25243">
        <ele>1358.09729</ele>
        <time>2016-01-17T09:14:01.000Z</time>
      </trkpt>
      <trkpt lat="43.99763" lon="7.25242">
        <ele>1360.000122</ele>
        <time>2016-01-17T09:14:06.000Z</time>
      </trkpt>
      <trkpt lat="43.99764" lon="7.25242">
        <ele>1359.741821</ele>
        <time>2016-01-17T09:14:11.000Z</time>
      </trkpt>
      <trkpt lat="43.99761" lon="7.25246">
        <ele>1360.167358</ele>
        <time>2016-01-17T09:14:16.000Z</time>
      </trkpt>
      <trkpt lat="43.99759" lon="7.2525">
        <ele>1361.587036</ele>
        <time>2016-01-17T09:14:21.000Z</time>
      </trkpt>
      <trkpt lat="43.99756" lon="7.25253">
        <ele>1362.536133</ele>
        <time>2016-01-17T09:14:26.000Z</time>
      </trkpt>
      <trkpt lat="43.99755" lon="7.25257">
        <ele>1361.743896</ele>
        <time>2016-01-17T09:14:31.000Z</time>
      </trkpt>
      <trkpt lat="43.99752" lon="7.2526">
        <ele>1362.106567</ele>
        <time>2016-01-17T09:14:36.000Z</time>
      </trkpt>
      <trkpt lat="43.99754" lon="7.25262">
        <ele>1362.362061</ele>
        <time>2016-01-17T09:14:41.000Z</time>
      </trkpt>
      <trkpt lat="43.99759" lon="7.2526">
        <ele>1363.134888</ele>
        <time>2016-01-17T09:14:46.000Z</time>
      </trkpt>
      <trkpt lat="43.99762" lon="7.2526">
        <ele>1364.655273</ele>
        <time>2016-01-17T09:14:51.000Z</time>
      </trkpt>
      <trkpt lat="43.99766" lon="7.25262">
        <ele>1365.813843</ele>
        <time>2016-01-17T09:14:56.000Z</time>
      </trkpt>
      <trkpt lat="43.99766" lon="7.25262">
        <ele>1365.834717</ele>
        <time>2016-01-17T09:15:01.000Z</time>
      </trkpt>
      <trkpt lat="43.99766" lon="7.25262">
        <ele>1366.001343</ele>
        <time>2016-01-17T09:15:06.000Z</time>
      </trkpt>
      <trkpt lat="43.9977" lon="7.2526">
        <ele>1365.100708</ele>
        <time>2016-01-17T09:15:11.000Z</time>
      </trkpt>
      <trkpt lat="43.99774" lon="7.25259">
        <ele>1363.405396</ele>
        <time>2016-01-17T09:15:16.000Z</time>
      </trkpt>
      <trkpt lat="43.99779" lon="7.25261">
        <ele>1361.100586</ele>
        <time>2016-01-17T09:15:21.000Z</time>
      </trkpt>
      <trkpt lat="43.99783" lon="7.25262">
        <ele>1360.654053</ele>
        <time>2016-01-17T09:15:26.000Z</time>
      </trkpt>
      <trkpt lat="43.99787" lon="7.25262">
        <ele>1361.220947</ele>
        <time>2016-01-17T09:15:31.000Z</time>
      </trkpt>
      <trkpt lat="43.9979" lon="7.25259">
        <ele>1364.340088</ele>
        <time>2016-01-17T09:15:36.000Z</time>
      </trkpt>
      <trkpt lat="43.99792" lon="7.25256">
        <ele>1367.06543</ele>
        <time>2016-01-17T09:15:41.000Z</time>
      </trkpt>
      <trkpt lat="43.99797" lon="7.25253">
        <ele>1370.226563</ele>
        <time>2016-01-17T09:15:46.000Z</time>
      </trkpt>
      <trkpt lat="43.998" lon="7.25252">
        <ele>1371.609741</ele>
        <time>2016-01-17T09:15:51.000Z</time>
      </trkpt>
      <trkpt lat="43.99801" lon="7.25252">
        <ele>1373.161377</ele>
        <time>2016-01-17T09:15:56.000Z</time>
      </trkpt>
      <trkpt lat="43.99804" lon="7.2525">
        <ele>1375.192627</ele>
        <time>2016-01-17T09:16:01.000Z</time>
      </trkpt>
      <trkpt lat="43.99806" lon="7.25247">
        <ele>1377.939087</ele>
        <time>2016-01-17T09:16:06.000Z</time>
      </trkpt>
      <trkpt lat="43.99809" lon="7.25241">
        <ele>1380.30835</ele>
        <time>2016-01-17T09:16:11.000Z</time>
      </trkpt>
      <trkpt lat="43.99809" lon="7.2524">
        <ele>1381.195923</ele>
        <time>2016-01-17T09:16:16.000Z</time>
      </trkpt>
      <trkpt lat="43.99808" lon="7.2524">
        <ele>1381.499023</ele>
        <time>2016-01-17T09:16:21.000Z</time>
      </trkpt>
      <trkpt lat="43.99808" lon="7.2524">
        <ele>1381.560425</ele>
        <time>2016-01-17T09:16:26.000Z</time>
      </trkpt>
      <trkpt lat="43.99808" lon="7.2524">
        <ele>1380.680176</ele>
        <time>2016-01-17T09:16:31.000Z</time>
      </trkpt>
      <trkpt lat="43.9981" lon="7.25236">
        <ele>1380.111938</ele>
        <time>2016-01-17T09:16:36.000Z</time>
      </trkpt>
      <trkpt lat="43.99811" lon="7.25234">
        <ele>1381.587769</ele>
        <time>2016-01-17T09:16:41.000Z</time>
      </trkpt>
      <trkpt lat="43.99811" lon="7.25234">
        <ele>1381.844849</ele>
        <time>2016-01-17T09:16:46.000Z</time>
      </trkpt>
      <trkpt lat="43.99811" lon="7.25234">
        <ele>1381.864136</ele>
        <time>2016-01-17T09:16:51.000Z</time>
      </trkpt>
      <trkpt lat="43.99812" lon="7.2523">
        <ele>1381.311157</ele>
        <time>2016-01-17T09:16:56.000Z</time>
      </trkpt>
      <trkpt lat="43.99817" lon="7.2521">
        <ele>1380.473511</ele>
        <time>2016-01-17T09:17:01.000Z</time>
      </trkpt>
      <trkpt lat="43.99823" lon="7.25203">
        <ele>1380.546875</ele>
        <time>2016-01-17T09:17:06.000Z</time>
      </trkpt>
      <trkpt lat="43.99826" lon="7.25197">
        <ele>1382.402832</ele>
        <time>2016-01-17T09:17:11.000Z</time>
      </trkpt>
      <trkpt lat="43.9983" lon="7.25188">
        <ele>1384.28125</ele>
        <time>2016-01-17T09:17:16.000Z</time>
      </trkpt>
      <trkpt lat="43.99833" lon="7.2518">
        <ele>1385.530151</ele>
        <time>2016-01-17T09:17:21.000Z</time>
      </trkpt>
      <trkpt lat="43.99836" lon="7.25172">
        <ele>1386.424438</ele>
        <time>2016-01-17T09:17:26.000Z</time>
      </trkpt>
      <trkpt lat="43.99837" lon="7.25162">
        <ele>1387.877319</ele>
        <time>2016-01-17T09:17:31.000Z</time>
      </trkpt>
      <trkpt lat="43.99836" lon="7.25153">
        <ele>1388.631348</ele>
        <time>2016-01-17T09:17:36.000Z</time>
      </trkpt>
      <trkpt lat="43.99835" lon="7.25142">
        <ele>1388.863403</ele>
        <time>2016-01-17T09:17:41.000Z</time>
      </trkpt>
      <trkpt lat="43.99835" lon="7.25133">
        <ele>1388.139648</ele>
        <time>2016-01-17T09:17:46.000Z</time>
      </trkpt>
      <trkpt lat="43.99835" lon="7.25125">
        <ele>1388.734497</ele>
        <time>2016-01-17T09:17:51.000Z</time>
      </trkpt>
      <trkpt lat="43.99835" lon="7.25123">
        <ele>1388.536987</ele>
        <time>2016-01-17T09:17:56.000Z</time>
      </trkpt>
      <trkpt lat="43.99835" lon="7.25121">
        <ele>1388.686768</ele>
        <time>2016-01-17T09:18:01.000Z</time>
      </trkpt>
      <trkpt lat="43.99834" lon="7.25119">
        <ele>1389.040527</ele>
        <time>2016-01-17T09:18:06.000Z</time>
      </trkpt>
      <trkpt lat="43.99836" lon="7.25113">
        <ele>1388.995239</ele>
        <time>2016-01-17T09:18:11.000Z</time>
      </trkpt>
      <trkpt lat="43.99839" lon="7.251">
        <ele>1388.867188</ele>
        <time>2016-01-17T09:18:16.000Z</time>
      </trkpt>
      <trkpt lat="43.9984" lon="7.25083">
        <ele>1387.339722</ele>
        <time>2016-01-17T09:18:21.000Z</time>
      </trkpt>
      <trkpt lat="43.99845" lon="7.25063">
        <ele>1387.710938</ele>
        <time>2016-01-17T09:18:26.000Z</time>
      </trkpt>
      <trkpt lat="43.99849" lon="7.25048">
        <ele>1388.621704</ele>
        <time>2016-01-17T09:18:31.000Z</time>
      </trkpt>
      <trkpt lat="43.99852" lon="7.25034">
        <ele>1390.555664</ele>
        <time>2016-01-17T09:18:36.000Z</time>
      </trkpt>
      <trkpt lat="43.99857" lon="7.25018">
        <ele>1390.472046</ele>
        <time>2016-01-17T09:18:41.000Z</time>
      </trkpt>
      <trkpt lat="43.9986" lon="7.25002">
        <ele>1391.53833</ele>
        <time>2016-01-17T09:18:46.000Z</time>
      </trkpt>
      <trkpt lat="43.99862" lon="7.24989">
        <ele>1393.425903</ele>
        <time>2016-01-17T09:18:51.000Z</time>
      </trkpt>
      <trkpt lat="43.99868" lon="7.24981">
        <ele>1393.909912</ele>
        <time>2016-01-17T09:18:56.000Z</time>
      </trkpt>
      <trkpt lat="43.99873" lon="7.24972">
        <ele>1393.897461</ele>
        <time>2016-01-17T09:19:01.000Z</time>
      </trkpt>
      <trkpt lat="43.99876" lon="7.24962">
        <ele>1391.845215</ele>
        <time>2016-01-17T09:19:06.000Z</time>
      </trkpt>
      <trkpt lat="43.99882" lon="7.24953">
        <ele>1392.886597</ele>
        <time>2016-01-17T09:19:11.000Z</time>
      </trkpt>
      <trkpt lat="43.99889" lon="7.24943">
        <ele>1393.360596</ele>
        <time>2016-01-17T09:19:16.000Z</time>
      </trkpt>
      <trkpt lat="43.99895" lon="7.24936">
        <ele>1393.833374</ele>
        <time>2016-01-17T09:19:21.000Z</time>
      </trkpt>
      <trkpt lat="43.99901" lon="7.2493">
        <ele>1394.836182</ele>
        <time>2016-01-17T09:19:26.000Z</time>
      </trkpt>
      <trkpt lat="43.99906" lon="7.24929">
        <ele>1394.763306</ele>
        <time>2016-01-17T09:19:31.000Z</time>
      </trkpt>
      <trkpt lat="43.99909" lon="7.24927">
        <ele>1395.873901</ele>
        <time>2016-01-17T09:19:36.000Z</time>
      </trkpt>
      <trkpt lat="43.99914" lon="7.24926">
        <ele>1396.457764</ele>
        <time>2016-01-17T09:19:41.000Z</time>
      </trkpt>
      <trkpt lat="43.99919" lon="7.24926">
        <ele>1396.991699</ele>
        <time>2016-01-17T09:19:46.000Z</time>
      </trkpt>
      <trkpt lat="43.99922" lon="7.24927">
        <ele>1398.095947</ele>
        <time>2016-01-17T09:19:51.000Z</time>
      </trkpt>
      <trkpt lat="43.99926" lon="7.24928">
        <ele>1399.558838</ele>
        <time>2016-01-17T09:19:56.000Z</time>
      </trkpt>
      <trkpt lat="43.99931" lon="7.24929">
        <ele>1400.806274</ele>
        <time>2016-01-17T09:20:01.000Z</time>
      </trkpt>
      <trkpt lat="43.99934" lon="7.24931">
        <ele>1401.822021</ele>
        <time>2016-01-17T09:20:06.000Z</time>
      </trkpt>
      <trkpt lat="43.99938" lon="7.24933">
        <ele>1402.754639</ele>
        <time>2016-01-17T09:20:11.000Z</time>
      </trkpt>
      <trkpt lat="43.99942" lon="7.24935">
        <ele>1403.935791</ele>
        <time>2016-01-17T09:20:16.000Z</time>
      </trkpt>
      <trkpt lat="43.99946" lon="7.24937">
        <ele>1404.789551</ele>
        <time>2016-01-17T09:20:21.000Z</time>
      </trkpt>
      <trkpt lat="43.99948" lon="7.24937">
        <ele>1404.627441</ele>
        <time>2016-01-17T09:20:26.000Z</time>
      </trkpt>
      <trkpt lat="43.99954" lon="7.24937">
        <ele>1404.427002</ele>
        <time>2016-01-17T09:20:31.000Z</time>
      </trkpt>
      <trkpt lat="43.99963" lon="7.24938">
        <ele>1405.047974</ele>
        <time>2016-01-17T09:20:36.000Z</time>
      </trkpt>
      <trkpt lat="43.9997" lon="7.24942">
        <ele>1406.643311</ele>
        <time>2016-01-17T09:20:41.000Z</time>
      </trkpt>
      <trkpt lat="43.99975" lon="7.24944">
        <ele>1407.876709</ele>
        <time>2016-01-17T09:20:46.000Z</time>
      </trkpt>
      <trkpt lat="43.99976" lon="7.24943">
        <ele>1408.644409</ele>
        <time>2016-01-17T09:20:51.000Z</time>
      </trkpt>
      <trkpt lat="43.99975" lon="7.24942">
        <ele>1408.884399</ele>
        <time>2016-01-17T09:20:56.000Z</time>
      </trkpt>
      <trkpt lat="43.99975" lon="7.24942">
        <ele>1409.894043</ele>
        <time>2016-01-17T09:21:01.000Z</time>
      </trkpt>
      <trkpt lat="43.99978" lon="7.24943">
        <ele>1410.656494</ele>
        <time>2016-01-17T09:21:06.000Z</time>
      </trkpt>
      <trkpt lat="43.99979" lon="7.24945">
        <ele>1411.640503</ele>
        <time>2016-01-17T09:21:11.000Z</time>
      </trkpt>
      <trkpt lat="43.99978" lon="7.24945">
        <ele>1411.746582</ele>
        <time>2016-01-17T09:21:16.000Z</time>
      </trkpt>
      <trkpt lat="43.99978" lon="7.24945">
        <ele>1411.948364</ele>
        <time>2016-01-17T09:21:21.000Z</time>
      </trkpt>
      <trkpt lat="43.99978" lon="7.24945">
        <ele>1412.023193</ele>
        <time>2016-01-17T09:21:26.000Z</time>
      </trkpt>
      <trkpt lat="43.99978" lon="7.24945">
        <ele>1412.030884</ele>
        <time>2016-01-17T09:21:31.000Z</time>
      </trkpt>
      <trkpt lat="43.99975" lon="7.24942">
        <ele>1412.146851</ele>
        <time>2016-01-17T09:21:36.000Z</time>
      </trkpt>
      <trkpt lat="43.99974" lon="7.24943">
        <ele>1412.68811</ele>
        <time>2016-01-17T09:21:41.000Z</time>
      </trkpt>
      <trkpt lat="43.99976" lon="7.24943">
        <ele>1413.444824</ele>
        <time>2016-01-17T09:21:46.000Z</time>
      </trkpt>
      <trkpt lat="43.99979" lon="7.24943">
        <ele>1413.934448</ele>
        <time>2016-01-17T09:21:51.000Z</time>
      </trkpt>
      <trkpt lat="43.99979" lon="7.24943">
        <ele>1414.005615</ele>
        <time>2016-01-17T09:21:56.000Z</time>
      </trkpt>
      <trkpt lat="43.99977" lon="7.2494">
        <ele>1415.769531</ele>
        <time>2016-01-17T09:22:01.000Z</time>
      </trkpt>
      <trkpt lat="43.99976" lon="7.24939">
        <ele>1416.512573</ele>
        <time>2016-01-17T09:22:06.000Z</time>
      </trkpt>
      <trkpt lat="43.99976" lon="7.24939">
        <ele>1416.685669</ele>
        <time>2016-01-17T09:22:11.000Z</time>
      </trkpt>
      <trkpt lat="43.99983" lon="7.24943">
        <ele>1417.703735</ele>
        <time>2016-01-17T09:22:16.000Z</time>
      </trkpt>
      <trkpt lat="43.99991" lon="7.24947">
        <ele>1418.751709</ele>
        <time>2016-01-17T09:22:21.000Z</time>
      </trkpt>
      <trkpt lat="44" lon="7.24945">
        <ele>1418.922729</ele>
        <time>2016-01-17T09:22:26.000Z</time>
      </trkpt>
      <trkpt lat="44.00009" lon="7.2495">
        <ele>1416.870361</ele>
        <time>2016-01-17T09:22:31.000Z</time>
      </trkpt>
      <trkpt lat="44.00018" lon="7.24959">
        <ele>1415.109497</ele>
        <time>2016-01-17T09:22:36.000Z</time>
      </trkpt>
      <trkpt lat="44.00026" lon="7.24967">
        <ele>1415.911133</ele>
        <time>2016-01-17T09:22:41.000Z</time>
      </trkpt>
      <trkpt lat="44.00035" lon="7.24971">
        <ele>1416.830688</ele>
        <time>2016-01-17T09:22:46.000Z</time>
      </trkpt>
      <trkpt lat="44.00042" lon="7.24976">
        <ele>1417.992676</ele>
        <time>2016-01-17T09:22:51.000Z</time>
      </trkpt>
      <trkpt lat="44.00048" lon="7.24978">
        <ele>1417.809326</ele>
        <time>2016-01-17T09:22:56.000Z</time>
      </trkpt>
      <trkpt lat="44.00055" lon="7.2498">
        <ele>1417.240967</ele>
        <time>2016-01-17T09:23:01.000Z</time>
      </trkpt>
      <trkpt lat="44.00059" lon="7.24981">
        <ele>1417.582397</ele>
        <time>2016-01-17T09:23:06.000Z</time>
      </trkpt>
      <trkpt lat="44.00058" lon="7.24981">
        <ele>1416.122559</ele>
        <time>2016-01-17T09:23:11.000Z</time>
      </trkpt>
      <trkpt lat="44.00058" lon="7.24981">
        <ele>1416.026123</ele>
        <time>2016-01-17T09:23:16.000Z</time>
      </trkpt>
      <trkpt lat="44.00059" lon="7.24982">
        <ele>1415.701294</ele>
        <time>2016-01-17T09:23:21.000Z</time>
      </trkpt>
      <trkpt lat="44.00063" lon="7.24984">
        <ele>1416.129883</ele>
        <time>2016-01-17T09:23:26.000Z</time>
      </trkpt>
      <trkpt lat="44.00067" lon="7.24985">
        <ele>1416.412842</ele>
        <time>2016-01-17T09:23:31.000Z</time>
      </trkpt>
      <trkpt lat="44.00071" lon="7.24989">
        <ele>1417.26416</ele>
        <time>2016-01-17T09:23:36.000Z</time>
      </trkpt>
      <trkpt lat="44.00073" lon="7.24993">
        <ele>1418.348022</ele>
        <time>2016-01-17T09:23:41.000Z</time>
      </trkpt>
      <trkpt lat="44.00077" lon="7.24996">
        <ele>1419.385132</ele>
        <time>2016-01-17T09:23:46.000Z</time>
      </trkpt>
      <trkpt lat="44.00081" lon="7.24998">
        <ele>1420.676147</ele>
        <time>2016-01-17T09:23:51.000Z</time>
      </trkpt>
      <trkpt lat="44.00084" lon="7.25002">
        <ele>1422.098145</ele>
        <time>2016-01-17T09:23:56.000Z</time>
      </trkpt>
      <trkpt lat="44.00087" lon="7.25004">
        <ele>1423.265503</ele>
        <time>2016-01-17T09:24:01.000Z</time>
      </trkpt>
      <trkpt lat="44.00091" lon="7.25004">
        <ele>1424.38269</ele>
        <time>2016-01-17T09:24:06.000Z</time>
      </trkpt>
      <trkpt lat="44.00095" lon="7.25004">
        <ele>1425.408936</ele>
        <time>2016-01-17T09:24:11.000Z</time>
      </trkpt>
      <trkpt lat="44.00097" lon="7.25005">
        <ele>1425.70874</ele>
        <time>2016-01-17T09:24:16.000Z</time>
      </trkpt>
      <trkpt lat="44.00101" lon="7.25008">
        <ele>1425.320923</ele>
        <time>2016-01-17T09:24:21.000Z</time>
      </trkpt>
      <trkpt lat="44.00106" lon="7.25011">
        <ele>1425.547119</ele>
        <time>2016-01-17T09:24:26.000Z</time>
      </trkpt>
      <trkpt lat="44.00113" lon="7.25014">
        <ele>1426.453247</ele>
        <time>2016-01-17T09:24:31.000Z</time>
      </trkpt>
      <trkpt lat="44.00118" lon="7.25013">
        <ele>1426.572998</ele>
        <time>2016-01-17T09:24:36.000Z</time>
      </trkpt>
      <trkpt lat="44.00122" lon="7.25013">
        <ele>1426.077515</ele>
        <time>2016-01-17T09:24:41.000Z</time>
      </trkpt>
      <trkpt lat="44.00123" lon="7.25011">
        <ele>1425.941406</ele>
        <time>2016-01-17T09:24:46.000Z</time>
      </trkpt>
      <trkpt lat="44.00127" lon="7.2501">
        <ele>1425.833618</ele>
        <time>2016-01-17T09:24:51.000Z</time>
      </trkpt>
      <trkpt lat="44.00131" lon="7.2501">
        <ele>1425.708252</ele>
        <time>2016-01-17T09:24:56.000Z</time>
      </trkpt>
      <trkpt lat="44.00137" lon="7.25009">
        <ele>1425.12439</ele>
        <time>2016-01-17T09:25:01.000Z</time>
      </trkpt>
      <trkpt lat="44.00143" lon="7.25006">
        <ele>1425.37915</ele>
        <time>2016-01-17T09:25:06.000Z</time>
      </trkpt>
      <trkpt lat="44.00147" lon="7.25004">
        <ele>1426.227295</ele>
        <time>2016-01-17T09:25:11.000Z</time>
      </trkpt>
      <trkpt lat="44.0015" lon="7.24999">
        <ele>1426.742065</ele>
        <time>2016-01-17T09:25:16.000Z</time>
      </trkpt>
      <trkpt lat="44.00153" lon="7.24993">
        <ele>1426.841309</ele>
        <time>2016-01-17T09:25:21.000Z</time>
      </trkpt>
      <trkpt lat="44.00156" lon="7.24988">
        <ele>1426.382935</ele>
        <time>2016-01-17T09:25:26.000Z</time>
      </trkpt>
      <trkpt lat="44.00156" lon="7.24989">
        <ele>1425.753052</ele>
        <time>2016-01-17T09:25:31.000Z</time>
      </trkpt>
      <trkpt lat="44.00157" lon="7.24988">
        <ele>1425.470337</ele>
        <time>2016-01-17T09:25:36.000Z</time>
      </trkpt>
      <trkpt lat="44.00162" lon="7.24978">
        <ele>1425.235596</ele>
        <time>2016-01-17T09:25:41.000Z</time>
      </trkpt>
      <trkpt lat="44.00167" lon="7.2497">
        <ele>1425.453247</ele>
        <time>2016-01-17T09:25:46.000Z</time>
      </trkpt>
      <trkpt lat="44.0017" lon="7.24962">
        <ele>1426.055786</ele>
        <time>2016-01-17T09:25:51.000Z</time>
      </trkpt>
      <trkpt lat="44.00174" lon="7.24953">
        <ele>1426.751099</ele>
        <time>2016-01-17T09:25:56.000Z</time>
      </trkpt>
      <trkpt lat="44.00178" lon="7.24947">
        <ele>1427.211914</ele>
        <time>2016-01-17T09:26:01.000Z</time>
      </trkpt>
      <trkpt lat="44.00183" lon="7.24942">
        <ele>1427.666626</ele>
        <time>2016-01-17T09:26:06.000Z</time>
      </trkpt>
      <trkpt lat="44.00188" lon="7.24936">
        <ele>1428.067627</ele>
        <time>2016-01-17T09:26:11.000Z</time>
      </trkpt>
      <trkpt lat="44.00189" lon="7.24935">
        <ele>1427.591675</ele>
        <time>2016-01-17T09:26:16.000Z</time>
      </trkpt>
      <trkpt lat="44.00192" lon="7.24931">
        <ele>1428.127686</ele>
        <time>2016-01-17T09:26:21.000Z</time>
      </trkpt>
      <trkpt lat="44.00195" lon="7.24928">
        <ele>1428.378662</ele>
        <time>2016-01-17T09:26:26.000Z</time>
      </trkpt>
      <trkpt lat="44.00198" lon="7.24925">
        <ele>1428.984497</ele>
        <time>2016-01-17T09:26:31.000Z</time>
      </trkpt>
      <trkpt lat="44.00202" lon="7.24922">
        <ele>1429.860474</ele>
        <time>2016-01-17T09:26:36.000Z</time>
      </trkpt>
      <trkpt lat="44.00205" lon="7.24919">
        <ele>1430.43811</ele>
        <time>2016-01-17T09:26:41.000Z</time>
      </trkpt>
      <trkpt lat="44.00209" lon="7.24916">
        <ele>1431.060669</ele>
        <time>2016-01-17T09:26:46.000Z</time>
      </trkpt>
      <trkpt lat="44.00211" lon="7.24912">
        <ele>1431.798462</ele>
        <time>2016-01-17T09:26:51.000Z</time>
      </trkpt>
      <trkpt lat="44.00214" lon="7.24909">
        <ele>1432.002686</ele>
        <time>2016-01-17T09:26:56.000Z</time>
      </trkpt>
      <trkpt lat="44.00217" lon="7.24905">
        <ele>1432.657837</ele>
        <time>2016-01-17T09:27:01.000Z</time>
      </trkpt>
      <trkpt lat="44.00219" lon="7.24902">
        <ele>1433.641602</ele>
        <time>2016-01-17T09:27:06.000Z</time>
      </trkpt>
      <trkpt lat="44.00221" lon="7.24898">
        <ele>1434.426636</ele>
        <time>2016-01-17T09:27:11.000Z</time>
      </trkpt>
      <trkpt lat="44.00222" lon="7.24896">
        <ele>1435.160034</ele>
        <time>2016-01-17T09:27:16.000Z</time>
      </trkpt>
      <trkpt lat="44.00222" lon="7.24896">
        <ele>1434.782349</ele>
        <time>2016-01-17T09:27:21.000Z</time>
      </trkpt>
      <trkpt lat="44.00222" lon="7.24896">
        <ele>1434.782837</ele>
        <time>2016-01-17T09:27:26.000Z</time>
      </trkpt>
      <trkpt lat="44.00222" lon="7.24896">
        <ele>1434.760376</ele>
        <time>2016-01-17T09:27:31.000Z</time>
      </trkpt>
      <trkpt lat="44.00222" lon="7.24896">
        <ele>1434.751099</ele>
        <time>2016-01-17T09:27:36.000Z</time>
      </trkpt>
      <trkpt lat="44.00222" lon="7.24896">
        <ele>1434.751099</ele>
        <time>2016-01-17T09:27:41.000Z</time>
      </trkpt>
      <trkpt lat="44.00222" lon="7.24896">
        <ele>1434.750732</ele>
        <time>2016-01-17T09:27:46.000Z</time>
      </trkpt>
      <trkpt lat="44.00222" lon="7.24896">
        <ele>1434.746338</ele>
        <time>2016-01-17T09:27:51.000Z</time>
      </trkpt>
      <trkpt lat="44.00222" lon="7.24896">
        <ele>1434.736206</ele>
        <time>2016-01-17T09:27:56.000Z</time>
      </trkpt>
      <trkpt lat="44.00222" lon="7.24896">
        <ele>1434.730347</ele>
        <time>2016-01-17T09:28:01.000Z</time>
      </trkpt>
      <trkpt lat="44.00223" lon="7.24895">
        <ele>1435.07312</ele>
        <time>2016-01-17T09:28:06.000Z</time>
      </trkpt>
      <trkpt lat="44.00225" lon="7.24891">
        <ele>1435.670044</ele>
        <time>2016-01-17T09:28:11.000Z</time>
      </trkpt>
      <trkpt lat="44.00227" lon="7.24888">
        <ele>1436.475708</ele>
        <time>2016-01-17T09:28:16.000Z</time>
      </trkpt>
      <trkpt lat="44.00229" lon="7.24884">
        <ele>1437.570313</ele>
        <time>2016-01-17T09:28:21.000Z</time>
      </trkpt>
      <trkpt lat="44.00231" lon="7.24881">
        <ele>1437.828857</ele>
        <time>2016-01-17T09:28:26.000Z</time>
      </trkpt>
      <trkpt lat="44.00233" lon="7.24876">
        <ele>1438.662109</ele>
        <time>2016-01-17T09:28:31.000Z</time>
      </trkpt>
      <trkpt lat="44.00236" lon="7.24871">
        <ele>1438.044312</ele>
        <time>2016-01-17T09:28:36.000Z</time>
      </trkpt>
      <trkpt lat="44.00239" lon="7.24867">
        <ele>1438.883179</ele>
        <time>2016-01-17T09:28:41.000Z</time>
      </trkpt>
      <trkpt lat="44.0024" lon="7.24863">
        <ele>1440.977905</ele>
        <time>2016-01-17T09:28:46.000Z</time>
      </trkpt>
      <trkpt lat="44.00241" lon="7.24859">
        <ele>1442.301392</ele>
        <time>2016-01-17T09:28:51.000Z</time>
      </trkpt>
      <trkpt lat="44.00242" lon="7.24854">
        <ele>1443.624146</ele>
        <time>2016-01-17T09:28:56.000Z</time>
      </trkpt>
      <trkpt lat="44.00244" lon="7.2485">
        <ele>1445.063843</ele>
        <time>2016-01-17T09:29:01.000Z</time>
      </trkpt>
      <trkpt lat="44.00246" lon="7.24845">
        <ele>1446.718262</ele>
        <time>2016-01-17T09:29:06.000Z</time>
      </trkpt>
      <trkpt lat="44.00249" lon="7.24842">
        <ele>1447.916382</ele>
        <time>2016-01-17T09:29:11.000Z</time>
      </trkpt>
      <trkpt lat="44.00251" lon="7.2484">
        <ele>1450.029419</ele>
        <time>2016-01-17T09:29:16.000Z</time>
      </trkpt>
      <trkpt lat="44.00255" lon="7.24838">
        <ele>1451.61731</ele>
        <time>2016-01-17T09:29:21.000Z</time>
      </trkpt>
      <trkpt lat="44.00256" lon="7.24838">
        <ele>1453.486328</ele>
        <time>2016-01-17T09:29:26.000Z</time>
      </trkpt>
      <trkpt lat="44.00256" lon="7.24839">
        <ele>1454.108521</ele>
        <time>2016-01-17T09:29:31.000Z</time>
      </trkpt>
      <trkpt lat="44.00256" lon="7.24839">
        <ele>1454.300415</ele>
        <time>2016-01-17T09:29:36.000Z</time>
      </trkpt>
      <trkpt lat="44.00256" lon="7.24839">
        <ele>1454.374756</ele>
        <time>2016-01-17T09:29:41.000Z</time>
      </trkpt>
      <trkpt lat="44.00256" lon="7.24839">
        <ele>1454.365967</ele>
        <time>2016-01-17T09:29:46.000Z</time>
      </trkpt>
      <trkpt lat="44.00256" lon="7.24839">
        <ele>1454.348267</ele>
        <time>2016-01-17T09:29:51.000Z</time>
      </trkpt>
      <trkpt lat="44.00256" lon="7.24839">
        <ele>1454.338745</ele>
        <time>2016-01-17T09:29:56.000Z</time>
      </trkpt>
      <trkpt lat="44.00256" lon="7.24839">
        <ele>1454.342163</ele>
        <time>2016-01-17T09:30:01.000Z</time>
      </trkpt>
      <trkpt lat="44.00256" lon="7.24839">
        <ele>1454.344849</ele>
        <time>2016-01-17T09:30:06.000Z</time>
      </trkpt>
      <trkpt lat="44.00256" lon="7.24839">
        <ele>1454.35498</ele>
        <time>2016-01-17T09:30:11.000Z</time>
      </trkpt>
      <trkpt lat="44.00256" lon="7.24839">
        <ele>1454.367432</ele>
        <time>2016-01-17T09:30:16.000Z</time>
      </trkpt>
      <trkpt lat="44.00256" lon="7.24839">
        <ele>1454.386108</ele>
        <time>2016-01-17T09:30:21.000Z</time>
      </trkpt>
      <trkpt lat="44.00256" lon="7.24839">
        <ele>1454.400879</ele>
        <time>2016-01-17T09:30:26.000Z</time>
      </trkpt>
      <trkpt lat="44.00255" lon="7.24839">
        <ele>1454.394287</ele>
        <time>2016-01-17T09:30:31.000Z</time>
      </trkpt>
      <trkpt lat="44.00255" lon="7.24839">
        <ele>1454.373291</ele>
        <time>2016-01-17T09:30:36.000Z</time>
      </trkpt>
      <trkpt lat="44.00256" lon="7.24839">
        <ele>1454.347046</ele>
        <time>2016-01-17T09:30:41.000Z</time>
      </trkpt>
      <trkpt lat="44.00256" lon="7.24839">
        <ele>1454.325684</ele>
        <time>2016-01-17T09:30:46.000Z</time>
      </trkpt>
      <trkpt lat="44.00256" lon="7.24839">
        <ele>1454.297852</ele>
        <time>2016-01-17T09:30:51.000Z</time>
      </trkpt>
      <trkpt lat="44.00256" lon="7.24839">
        <ele>1454.274048</ele>
        <time>2016-01-17T09:30:56.000Z</time>
      </trkpt>
      <trkpt lat="44.00256" lon="7.24839">
        <ele>1454.24353</ele>
        <time>2016-01-17T09:31:01.000Z</time>
      </trkpt>
      <trkpt lat="44.00256" lon="7.24839">
        <ele>1454.22583</ele>
        <time>2016-01-17T09:31:06.000Z</time>
      </trkpt>
      <trkpt lat="44.00258" lon="7.2484">
        <ele>1455.162842</ele>
        <time>2016-01-17T09:31:11.000Z</time>
      </trkpt>
      <trkpt lat="44.00259" lon="7.2484">
        <ele>1455.69397</ele>
        <time>2016-01-17T09:31:16.000Z</time>
      </trkpt>
      <trkpt lat="44.00259" lon="7.2484">
        <ele>1456.135254</ele>
        <time>2016-01-17T09:31:21.000Z</time>
      </trkpt>
      <trkpt lat="44.0026" lon="7.2484">
        <ele>1456.597168</ele>
        <time>2016-01-17T09:31:26.000Z</time>
      </trkpt>
      <trkpt lat="44.00261" lon="7.24842">
        <ele>1456.901367</ele>
        <time>2016-01-17T09:31:31.000Z</time>
      </trkpt>
      <trkpt lat="44.00264" lon="7.24846">
        <ele>1458.377686</ele>
        <time>2016-01-17T09:31:36.000Z</time>
      </trkpt>
      <trkpt lat="44.00265" lon="7.24849">
        <ele>1460.048828</ele>
        <time>2016-01-17T09:31:41.000Z</time>
      </trkpt>
      <trkpt lat="44.00268" lon="7.24853">
        <ele>1461.230103</ele>
        <time>2016-01-17T09:31:46.000Z</time>
      </trkpt>
      <trkpt lat="44.00271" lon="7.24856">
        <ele>1462.954956</ele>
        <time>2016-01-17T09:31:51.000Z</time>
      </trkpt>
      <trkpt lat="44.00274" lon="7.24858">
        <ele>1464.336426</ele>
        <time>2016-01-17T09:31:56.000Z</time>
      </trkpt>
      <trkpt lat="44.00273" lon="7.24858">
        <ele>1464.735718</ele>
        <time>2016-01-17T09:32:01.000Z</time>
      </trkpt>
      <trkpt lat="44.00276" lon="7.24862">
        <ele>1465.037598</ele>
        <time>2016-01-17T09:32:06.000Z</time>
      </trkpt>
      <trkpt lat="44.00279" lon="7.24867">
        <ele>1465.691772</ele>
        <time>2016-01-17T09:32:11.000Z</time>
      </trkpt>
      <trkpt lat="44.00281" lon="7.24869">
        <ele>1467.001099</ele>
        <time>2016-01-17T09:32:16.000Z</time>
      </trkpt>
      <trkpt lat="44.00284" lon="7.24873">
        <ele>1468.973389</ele>
        <time>2016-01-17T09:32:21.000Z</time>
      </trkpt>
      <trkpt lat="44.00286" lon="7.24875">
        <ele>1470.661499</ele>
        <time>2016-01-17T09:32:26.000Z</time>
      </trkpt>
      <trkpt lat="44.00289" lon="7.24873">
        <ele>1472.05481</ele>
        <time>2016-01-17T09:32:31.000Z</time>
      </trkpt>
      <trkpt lat="44.00291" lon="7.24868">
        <ele>1473.146729</ele>
        <time>2016-01-17T09:32:36.000Z</time>
      </trkpt>
      <trkpt lat="44.00294" lon="7.24865">
        <ele>1473.723267</ele>
        <time>2016-01-17T09:32:41.000Z</time>
      </trkpt>
      <trkpt lat="44.00297" lon="7.24862">
        <ele>1474.721313</ele>
        <time>2016-01-17T09:32:46.000Z</time>
      </trkpt>
      <trkpt lat="44.00299" lon="7.24858">
        <ele>1475.402954</ele>
        <time>2016-01-17T09:32:51.000Z</time>
      </trkpt>
      <trkpt lat="44.00302" lon="7.24855">
        <ele>1476.265869</ele>
        <time>2016-01-17T09:32:56.000Z</time>
      </trkpt>
      <trkpt lat="44.00305" lon="7.24856">
        <ele>1476.365601</ele>
        <time>2016-01-17T09:33:01.000Z</time>
      </trkpt>
      <trkpt lat="44.00307" lon="7.24856">
        <ele>1476.312012</ele>
        <time>2016-01-17T09:33:06.000Z</time>
      </trkpt>
      <trkpt lat="44.00309" lon="7.2486">
        <ele>1477.081177</ele>
        <time>2016-01-17T09:33:11.000Z</time>
      </trkpt>
      <trkpt lat="44.00311" lon="7.24862">
        <ele>1478.222534</ele>
        <time>2016-01-17T09:33:16.000Z</time>
      </trkpt>
      <trkpt lat="44.00313" lon="7.24866">
        <ele>1479.070435</ele>
        <time>2016-01-17T09:33:21.000Z</time>
      </trkpt>
      <trkpt lat="44.00316" lon="7.24868">
        <ele>1480.704468</ele>
        <time>2016-01-17T09:33:26.000Z</time>
      </trkpt>
      <trkpt lat="44.00319" lon="7.2487">
        <ele>1482.331909</ele>
        <time>2016-01-17T09:33:31.000Z</time>
      </trkpt>
      <trkpt lat="44.00321" lon="7.2487">
        <ele>1483.414307</ele>
        <time>2016-01-17T09:33:36.000Z</time>
      </trkpt>
      <trkpt lat="44.00321" lon="7.2487">
        <ele>1482.86792</ele>
        <time>2016-01-17T09:33:41.000Z</time>
      </trkpt>
      <trkpt lat="44.00321" lon="7.2487">
        <ele>1482.951904</ele>
        <time>2016-01-17T09:33:46.000Z</time>
      </trkpt>
      <trkpt lat="44.00321" lon="7.2487">
        <ele>1482.997803</ele>
        <time>2016-01-17T09:33:51.000Z</time>
      </trkpt>
      <trkpt lat="44.00321" lon="7.2487">
        <ele>1482.863525</ele>
        <time>2016-01-17T09:33:56.000Z</time>
      </trkpt>
      <trkpt lat="44.00321" lon="7.2487">
        <ele>1482.671143</ele>
        <time>2016-01-17T09:34:01.000Z</time>
      </trkpt>
      <trkpt lat="44.00324" lon="7.24868">
        <ele>1484.348633</ele>
        <time>2016-01-17T09:34:06.000Z</time>
      </trkpt>
      <trkpt lat="44.00327" lon="7.24866">
        <ele>1486.077026</ele>
        <time>2016-01-17T09:34:11.000Z</time>
      </trkpt>
      <trkpt lat="44.00331" lon="7.24865">
        <ele>1487.524902</ele>
        <time>2016-01-17T09:34:16.000Z</time>
      </trkpt>
      <trkpt lat="44.00334" lon="7.24864">
        <ele>1488.825806</ele>
        <time>2016-01-17T09:34:21.000Z</time>
      </trkpt>
      <trkpt lat="44.00338" lon="7.24859">
        <ele>1490.480103</ele>
        <time>2016-01-17T09:34:26.000Z</time>
      </trkpt>
      <trkpt lat="44.0034" lon="7.24854">
        <ele>1491.781494</ele>
        <time>2016-01-17T09:34:31.000Z</time>
      </trkpt>
      <trkpt lat="44.00341" lon="7.24849">
        <ele>1493.181396</ele>
        <time>2016-01-17T09:34:36.000Z</time>
      </trkpt>
      <trkpt lat="44.00341" lon="7.24842">
        <ele>1494.587646</ele>
        <time>2016-01-17T09:34:41.000Z</time>
      </trkpt>
      <trkpt lat="44.00338" lon="7.24838">
        <ele>1496.686401</ele>
        <time>2016-01-17T09:34:46.000Z</time>
      </trkpt>
      <trkpt lat="44.00339" lon="7.24839">
        <ele>1496.139771</ele>
        <time>2016-01-17T09:34:51.000Z</time>
      </trkpt>
      <trkpt lat="44.00339" lon="7.24833">
        <ele>1495.37854</ele>
        <time>2016-01-17T09:34:56.000Z</time>
      </trkpt>
      <trkpt lat="44.00339" lon="7.24825">
        <ele>1494.836426</ele>
        <time>2016-01-17T09:35:01.000Z</time>
      </trkpt>
      <trkpt lat="44.00339" lon="7.24817">
        <ele>1493.708984</ele>
        <time>2016-01-17T09:35:06.000Z</time>
      </trkpt>
      <trkpt lat="44.00337" lon="7.24808">
        <ele>1492.986206</ele>
        <time>2016-01-17T09:35:11.000Z</time>
      </trkpt>
      <trkpt lat="44.00337" lon="7.24799">
        <ele>1493.558716</ele>
        <time>2016-01-17T09:35:16.000Z</time>
      </trkpt>
      <trkpt lat="44.00336" lon="7.24794">
        <ele>1493.38916</ele>
        <time>2016-01-17T09:35:21.000Z</time>
      </trkpt>
      <trkpt lat="44.00336" lon="7.24787">
        <ele>1493.381714</ele>
        <time>2016-01-17T09:35:26.000Z</time>
      </trkpt>
      <trkpt lat="44.00336" lon="7.24778">
        <ele>1493.501343</ele>
        <time>2016-01-17T09:35:31.000Z</time>
      </trkpt>
      <trkpt lat="44.00335" lon="7.2477">
        <ele>1493.312866</ele>
        <time>2016-01-17T09:35:36.000Z</time>
      </trkpt>
      <trkpt lat="44.00335" lon="7.24766">
        <ele>1492.870117</ele>
        <time>2016-01-17T09:35:41.000Z</time>
      </trkpt>
      <trkpt lat="44.00336" lon="7.24767">
        <ele>1492.333374</ele>
        <time>2016-01-17T09:35:46.000Z</time>
      </trkpt>
      <trkpt lat="44.00334" lon="7.2476">
        <ele>1491.583374</ele>
        <time>2016-01-17T09:35:51.000Z</time>
      </trkpt>
      <trkpt lat="44.00332" lon="7.24751">
        <ele>1490.509521</ele>
        <time>2016-01-17T09:35:56.000Z</time>
      </trkpt>
      <trkpt lat="44.00329" lon="7.24744">
        <ele>1491.063721</ele>
        <time>2016-01-17T09:36:01.000Z</time>
      </trkpt>
      <trkpt lat="44.00327" lon="7.24735">
        <ele>1491.644531</ele>
        <time>2016-01-17T09:36:06.000Z</time>
      </trkpt>
      <trkpt lat="44.00328" lon="7.24728">
        <ele>1492.365356</ele>
        <time>2016-01-17T09:36:11.000Z</time>
      </trkpt>
      <trkpt lat="44.00328" lon="7.24723">
        <ele>1493.478516</ele>
        <time>2016-01-17T09:36:16.000Z</time>
      </trkpt>
      <trkpt lat="44.00329" lon="7.24719">
        <ele>1493.091187</ele>
        <time>2016-01-17T09:36:21.000Z</time>
      </trkpt>
      <trkpt lat="44.0033" lon="7.24714">
        <ele>1493.830078</ele>
        <time>2016-01-17T09:36:26.000Z</time>
      </trkpt>
      <trkpt lat="44.0033" lon="7.24709">
        <ele>1494.210815</ele>
        <time>2016-01-17T09:36:31.000Z</time>
      </trkpt>
      <trkpt lat="44.00331" lon="7.24705">
        <ele>1494.971558</ele>
        <time>2016-01-17T09:36:36.000Z</time>
      </trkpt>
      <trkpt lat="44.00331" lon="7.24702">
        <ele>1494.968384</ele>
        <time>2016-01-17T09:36:41.000Z</time>
      </trkpt>
      <trkpt lat="44.00331" lon="7.24698">
        <ele>1495.254761</ele>
        <time>2016-01-17T09:36:46.000Z</time>
      </trkpt>
      <trkpt lat="44.0033" lon="7.24694">
        <ele>1496.012573</ele>
        <time>2016-01-17T09:36:51.000Z</time>
      </trkpt>
      <trkpt lat="44.0033" lon="7.24691">
        <ele>1497.668457</ele>
        <time>2016-01-17T09:36:56.000Z</time>
      </trkpt>
      <trkpt lat="44.0033" lon="7.24688">
        <ele>1498.793091</ele>
        <time>2016-01-17T09:37:01.000Z</time>
      </trkpt>
      <trkpt lat="44.00327" lon="7.24684">
        <ele>1499.747681</ele>
        <time>2016-01-17T09:37:06.000Z</time>
      </trkpt>
      <trkpt lat="44.00325" lon="7.24679">
        <ele>1500.40979</ele>
        <time>2016-01-17T09:37:11.000Z</time>
      </trkpt>
      <trkpt lat="44.00323" lon="7.24674">
        <ele>1501.818237</ele>
        <time>2016-01-17T09:37:16.000Z</time>
      </trkpt>
      <trkpt lat="44.0032" lon="7.24668">
        <ele>1502.419067</ele>
        <time>2016-01-17T09:37:21.000Z</time>
      </trkpt>
      <trkpt lat="44.0032" lon="7.24663">
        <ele>1502.745972</ele>
        <time>2016-01-17T09:37:26.000Z</time>
      </trkpt>
      <trkpt lat="44.00318" lon="7.24659">
        <ele>1502.626709</ele>
        <time>2016-01-17T09:37:31.000Z</time>
      </trkpt>
      <trkpt lat="44.00318" lon="7.24654">
        <ele>1502.650391</ele>
        <time>2016-01-17T09:37:36.000Z</time>
      </trkpt>
      <trkpt lat="44.00317" lon="7.2465">
        <ele>1503.61792</ele>
        <time>2016-01-17T09:37:41.000Z</time>
      </trkpt>
      <trkpt lat="44.00318" lon="7.24646">
        <ele>1504.215454</ele>
        <time>2016-01-17T09:37:46.000Z</time>
      </trkpt>
      <trkpt lat="44.00319" lon="7.24642">
        <ele>1504.891846</ele>
        <time>2016-01-17T09:37:51.000Z</time>
      </trkpt>
      <trkpt lat="44.00321" lon="7.2464">
        <ele>1505.739014</ele>
        <time>2016-01-17T09:37:56.000Z</time>
      </trkpt>
      <trkpt lat="44.00324" lon="7.24639">
        <ele>1506.357544</ele>
        <time>2016-01-17T09:38:01.000Z</time>
      </trkpt>
      <trkpt lat="44.00328" lon="7.24639">
        <ele>1507.470947</ele>
        <time>2016-01-17T09:38:06.000Z</time>
      </trkpt>
      <trkpt lat="44.00332" lon="7.24639">
        <ele>1507.392334</ele>
        <time>2016-01-17T09:38:11.000Z</time>
      </trkpt>
      <trkpt lat="44.00335" lon="7.24639">
        <ele>1507.287842</ele>
        <time>2016-01-17T09:38:16.000Z</time>
      </trkpt>
      <trkpt lat="44.00338" lon="7.2464">
        <ele>1507.259399</ele>
        <time>2016-01-17T09:38:21.000Z</time>
      </trkpt>
      <trkpt lat="44.0034" lon="7.2464">
        <ele>1507.536255</ele>
        <time>2016-01-17T09:38:26.000Z</time>
      </trkpt>
      <trkpt lat="44.0034" lon="7.2464">
        <ele>1507.597778</ele>
        <time>2016-01-17T09:38:31.000Z</time>
      </trkpt>
      <trkpt lat="44.0034" lon="7.2464">
        <ele>1507.481323</ele>
        <time>2016-01-17T09:38:36.000Z</time>
      </trkpt>
      <trkpt lat="44.0034" lon="7.2464">
        <ele>1507.483521</ele>
        <time>2016-01-17T09:38:41.000Z</time>
      </trkpt>
      <trkpt lat="44.00342" lon="7.24641">
        <ele>1508.07605</ele>
        <time>2016-01-17T09:38:46.000Z</time>
      </trkpt>
      <trkpt lat="44.00345" lon="7.24641">
        <ele>1510.047974</ele>
        <time>2016-01-17T09:38:51.000Z</time>
      </trkpt>
      <trkpt lat="44.00348" lon="7.2464">
        <ele>1511.795166</ele>
        <time>2016-01-17T09:38:56.000Z</time>
      </trkpt>
      <trkpt lat="44.00352" lon="7.24641">
        <ele>1513.503784</ele>
        <time>2016-01-17T09:39:01.000Z</time>
      </trkpt>
      <trkpt lat="44.00355" lon="7.24641">
        <ele>1515.238281</ele>
        <time>2016-01-17T09:39:06.000Z</time>
      </trkpt>
      <trkpt lat="44.00356" lon="7.24642">
        <ele>1515.719482</ele>
        <time>2016-01-17T09:39:11.000Z</time>
      </trkpt>
      <trkpt lat="44.00359" lon="7.24641">
        <ele>1517.30603</ele>
        <time>2016-01-17T09:39:16.000Z</time>
      </trkpt>
      <trkpt lat="44.00362" lon="7.24641">
        <ele>1519.454224</ele>
        <time>2016-01-17T09:39:21.000Z</time>
      </trkpt>
      <trkpt lat="44.00365" lon="7.24642">
        <ele>1520.56543</ele>
        <time>2016-01-17T09:39:26.000Z</time>
      </trkpt>
      <trkpt lat="44.00368" lon="7.24641">
        <ele>1521.896851</ele>
        <time>2016-01-17T09:39:31.000Z</time>
      </trkpt>
      <trkpt lat="44.00371" lon="7.24639">
        <ele>1522.642334</ele>
        <time>2016-01-17T09:39:36.000Z</time>
      </trkpt>
      <trkpt lat="44.00373" lon="7.24637">
        <ele>1523.307983</ele>
        <time>2016-01-17T09:39:41.000Z</time>
      </trkpt>
      <trkpt lat="44.00376" lon="7.24636">
        <ele>1524.699463</ele>
        <time>2016-01-17T09:39:46.000Z</time>
      </trkpt>
      <trkpt lat="44.00379" lon="7.24631">
        <ele>1526.335449</ele>
        <time>2016-01-17T09:39:51.000Z</time>
      </trkpt>
      <trkpt lat="44.00381" lon="7.24626">
        <ele>1527.042114</ele>
        <time>2016-01-17T09:39:56.000Z</time>
      </trkpt>
      <trkpt lat="44.00382" lon="7.24622">
        <ele>1531.318115</ele>
        <time>2016-01-17T09:40:01.000Z</time>
      </trkpt>
      <trkpt lat="44.00385" lon="7.24619">
        <ele>1532.786621</ele>
        <time>2016-01-17T09:40:06.000Z</time>
      </trkpt>
      <trkpt lat="44.00389" lon="7.24615">
        <ele>1533.709839</ele>
        <time>2016-01-17T09:40:11.000Z</time>
      </trkpt>
      <trkpt lat="44.00392" lon="7.2461">
        <ele>1535.506592</ele>
        <time>2016-01-17T09:40:16.000Z</time>
      </trkpt>
      <trkpt lat="44.00395" lon="7.24606">
        <ele>1537.109131</ele>
        <time>2016-01-17T09:40:21.000Z</time>
      </trkpt>
      <trkpt lat="44.00396" lon="7.24602">
        <ele>1538.350586</ele>
        <time>2016-01-17T09:40:26.000Z</time>
      </trkpt>
      <trkpt lat="44.00398" lon="7.246">
        <ele>1539.427979</ele>
        <time>2016-01-17T09:40:31.000Z</time>
      </trkpt>
      <trkpt lat="44.00398" lon="7.246">
        <ele>1539.041626</ele>
        <time>2016-01-17T09:40:36.000Z</time>
      </trkpt>
      <trkpt lat="44.00399" lon="7.246">
        <ele>1539.201172</ele>
        <time>2016-01-17T09:40:41.000Z</time>
      </trkpt>
      <trkpt lat="44.00402" lon="7.24605">
        <ele>1539.287964</ele>
        <time>2016-01-17T09:40:46.000Z</time>
      </trkpt>
      <trkpt lat="44.00401" lon="7.24612">
        <ele>1539.581909</ele>
        <time>2016-01-17T09:40:51.000Z</time>
      </trkpt>
      <trkpt lat="44.00399" lon="7.24621">
        <ele>1540.561157</ele>
        <time>2016-01-17T09:40:56.000Z</time>
      </trkpt>
      <trkpt lat="44.004" lon="7.24626">
        <ele>1541.501587</ele>
        <time>2016-01-17T09:41:01.000Z</time>
      </trkpt>
      <trkpt lat="44.00401" lon="7.24632">
        <ele>1542.566528</ele>
        <time>2016-01-17T09:41:06.000Z</time>
      </trkpt>
      <trkpt lat="44.00398" lon="7.24637">
        <ele>1543.781372</ele>
        <time>2016-01-17T09:41:11.000Z</time>
      </trkpt>
      <trkpt lat="44.00397" lon="7.24643">
        <ele>1544.914917</ele>
        <time>2016-01-17T09:41:16.000Z</time>
      </trkpt>
      <trkpt lat="44.00398" lon="7.24649">
        <ele>1545.63501</ele>
        <time>2016-01-17T09:41:21.000Z</time>
      </trkpt>
      <trkpt lat="44.00397" lon="7.24653">
        <ele>1547.224854</ele>
        <time>2016-01-17T09:41:26.000Z</time>
      </trkpt>
      <trkpt lat="44.00397" lon="7.24659">
        <ele>1546.993286</ele>
        <time>2016-01-17T09:41:31.000Z</time>
      </trkpt>
      <trkpt lat="44.00396" lon="7.24665">
        <ele>1545.675781</ele>
        <time>2016-01-17T09:41:36.000Z</time>
      </trkpt>
      <trkpt lat="44.00393" lon="7.2467">
        <ele>1544.396118</ele>
        <time>2016-01-17T09:41:41.000Z</time>
      </trkpt>
      <trkpt lat="44.00394" lon="7.24676">
        <ele>1543.783447</ele>
        <time>2016-01-17T09:41:46.000Z</time>
      </trkpt>
      <trkpt lat="44.00398" lon="7.2468">
        <ele>1543.484985</ele>
        <time>2016-01-17T09:41:51.000Z</time>
      </trkpt>
      <trkpt lat="44.00398" lon="7.24681">
        <ele>1542.809204</ele>
        <time>2016-01-17T09:41:56.000Z</time>
      </trkpt>
      <trkpt lat="44.00399" lon="7.24681">
        <ele>1542.718506</ele>
        <time>2016-01-17T09:42:01.000Z</time>
      </trkpt>
      <trkpt lat="44.00399" lon="7.24681">
        <ele>1542.54895</ele>
        <time>2016-01-17T09:42:06.000Z</time>
      </trkpt>
      <trkpt lat="44.00399" lon="7.24681">
        <ele>1542.474121</ele>
        <time>2016-01-17T09:42:11.000Z</time>
      </trkpt>
      <trkpt lat="44.00399" lon="7.24681">
        <ele>1542.456787</ele>
        <time>2016-01-17T09:42:16.000Z</time>
      </trkpt>
      <trkpt lat="44.00399" lon="7.24681">
        <ele>1542.442627</ele>
        <time>2016-01-17T09:42:21.000Z</time>
      </trkpt>
      <trkpt lat="44.00399" lon="7.24681">
        <ele>1542.426758</ele>
        <time>2016-01-17T09:42:26.000Z</time>
      </trkpt>
      <trkpt lat="44.00399" lon="7.24681">
        <ele>1542.409058</ele>
        <time>2016-01-17T09:42:31.000Z</time>
      </trkpt>
      <trkpt lat="44.00399" lon="7.24681">
        <ele>1542.428467</ele>
        <time>2016-01-17T09:42:36.000Z</time>
      </trkpt>
      <trkpt lat="44.00399" lon="7.24681">
        <ele>1542.437866</ele>
        <time>2016-01-17T09:42:41.000Z</time>
      </trkpt>
      <trkpt lat="44.00402" lon="7.24679">
        <ele>1542.207886</ele>
        <time>2016-01-17T09:42:46.000Z</time>
      </trkpt>
      <trkpt lat="44.00405" lon="7.24677">
        <ele>1542.192261</ele>
        <time>2016-01-17T09:42:51.000Z</time>
      </trkpt>
      <trkpt lat="44.00409" lon="7.24674">
        <ele>1542.860229</ele>
        <time>2016-01-17T09:42:56.000Z</time>
      </trkpt>
      <trkpt lat="44.00413" lon="7.24671">
        <ele>1542.304565</ele>
        <time>2016-01-17T09:43:01.000Z</time>
      </trkpt>
      <trkpt lat="44.00416" lon="7.24668">
        <ele>1543.260986</ele>
        <time>2016-01-17T09:43:06.000Z</time>
      </trkpt>
      <trkpt lat="44.00418" lon="7.24667">
        <ele>1545.166504</ele>
        <time>2016-01-17T09:43:11.000Z</time>
      </trkpt>
      <trkpt lat="44.00421" lon="7.24665">
        <ele>1546.074951</ele>
        <time>2016-01-17T09:43:16.000Z</time>
      </trkpt>
      <trkpt lat="44.00421" lon="7.24661">
        <ele>1547.268311</ele>
        <time>2016-01-17T09:43:21.000Z</time>
      </trkpt>
      <trkpt lat="44.00423" lon="7.24658">
        <ele>1548.012451</ele>
        <time>2016-01-17T09:43:26.000Z</time>
      </trkpt>
      <trkpt lat="44.00426" lon="7.24653">
        <ele>1548.619019</ele>
        <time>2016-01-17T09:43:31.000Z</time>
      </trkpt>
      <trkpt lat="44.00428" lon="7.2465">
        <ele>1549.543945</ele>
        <time>2016-01-17T09:43:36.000Z</time>
      </trkpt>
      <trkpt lat="44.00432" lon="7.24643">
        <ele>1549.520386</ele>
        <time>2016-01-17T09:43:41.000Z</time>
      </trkpt>
      <trkpt lat="44.00435" lon="7.2464">
        <ele>1549.554443</ele>
        <time>2016-01-17T09:43:46.000Z</time>
      </trkpt>
      <trkpt lat="44.00439" lon="7.24636">
        <ele>1549.660645</ele>
        <time>2016-01-17T09:43:51.000Z</time>
      </trkpt>
      <trkpt lat="44.00442" lon="7.24633">
        <ele>1550.389893</ele>
        <time>2016-01-17T09:43:56.000Z</time>
      </trkpt>
      <trkpt lat="44.00445" lon="7.24631">
        <ele>1550.111206</ele>
        <time>2016-01-17T09:44:01.000Z</time>
      </trkpt>
      <trkpt lat="44.00448" lon="7.24627">
        <ele>1549.340088</ele>
        <time>2016-01-17T09:44:06.000Z</time>
      </trkpt>
      <trkpt lat="44.00451" lon="7.24622">
        <ele>1550.115112</ele>
        <time>2016-01-17T09:44:11.000Z</time>
      </trkpt>
      <trkpt lat="44.00453" lon="7.24619">
        <ele>1551.572266</ele>
        <time>2016-01-17T09:44:16.000Z</time>
      </trkpt>
      <trkpt lat="44.00455" lon="7.24617">
        <ele>1551.840088</ele>
        <time>2016-01-17T09:44:21.000Z</time>
      </trkpt>
      <trkpt lat="44.00458" lon="7.24613">
        <ele>1552.686646</ele>
        <time>2016-01-17T09:44:26.000Z</time>
      </trkpt>
      <trkpt lat="44.0046" lon="7.24609">
        <ele>1553.254517</ele>
        <time>2016-01-17T09:44:31.000Z</time>
      </trkpt>
      <trkpt lat="44.00461" lon="7.24607">
        <ele>1553.8479</ele>
        <time>2016-01-17T09:44:36.000Z</time>
      </trkpt>
      <trkpt lat="44.00463" lon="7.24604">
        <ele>1553.914429</ele>
        <time>2016-01-17T09:44:41.000Z</time>
      </trkpt>
      <trkpt lat="44.00465" lon="7.246">
        <ele>1554.356689</ele>
        <time>2016-01-17T09:44:46.000Z</time>
      </trkpt>
      <trkpt lat="44.00467" lon="7.24599">
        <ele>1555.010132</ele>
        <time>2016-01-17T09:44:51.000Z</time>
      </trkpt>
      <trkpt lat="44.0047" lon="7.24597">
        <ele>1555.690308</ele>
        <time>2016-01-17T09:44:56.000Z</time>
      </trkpt>
      <trkpt lat="44.00472" lon="7.24594">
        <ele>1556.579468</ele>
        <time>2016-01-17T09:45:01.000Z</time>
      </trkpt>
      <trkpt lat="44.00473" lon="7.24594">
        <ele>1556.793823</ele>
        <time>2016-01-17T09:45:06.000Z</time>
      </trkpt>
      <trkpt lat="44.00473" lon="7.24593">
        <ele>1557.226685</ele>
        <time>2016-01-17T09:45:11.000Z</time>
      </trkpt>
      <trkpt lat="44.00473" lon="7.24593">
        <ele>1557.292114</ele>
        <time>2016-01-17T09:45:16.000Z</time>
      </trkpt>
      <trkpt lat="44.00473" lon="7.24593">
        <ele>1557.284668</ele>
        <time>2016-01-17T09:45:21.000Z</time>
      </trkpt>
      <trkpt lat="44.00473" lon="7.24593">
        <ele>1557.306519</ele>
        <time>2016-01-17T09:45:26.000Z</time>
      </trkpt>
      <trkpt lat="44.00473" lon="7.24594">
        <ele>1557.347656</ele>
        <time>2016-01-17T09:45:31.000Z</time>
      </trkpt>
      <trkpt lat="44.00473" lon="7.24594">
        <ele>1557.397705</ele>
        <time>2016-01-17T09:45:36.000Z</time>
      </trkpt>
      <trkpt lat="44.00473" lon="7.24594">
        <ele>1557.447876</ele>
        <time>2016-01-17T09:45:41.000Z</time>
      </trkpt>
      <trkpt lat="44.00473" lon="7.24594">
        <ele>1557.502441</ele>
        <time>2016-01-17T09:45:46.000Z</time>
      </trkpt>
      <trkpt lat="44.00473" lon="7.24594">
        <ele>1557.549683</ele>
        <time>2016-01-17T09:45:51.000Z</time>
      </trkpt>
      <trkpt lat="44.00473" lon="7.24594">
        <ele>1557.582397</ele>
        <time>2016-01-17T09:45:56.000Z</time>
      </trkpt>
      <trkpt lat="44.00473" lon="7.24594">
        <ele>1557.601074</ele>
        <time>2016-01-17T09:46:01.000Z</time>
      </trkpt>
      <trkpt lat="44.00473" lon="7.24594">
        <ele>1557.620361</ele>
        <time>2016-01-17T09:46:06.000Z</time>
      </trkpt>
      <trkpt lat="44.00473" lon="7.24594">
        <ele>1557.607178</ele>
        <time>2016-01-17T09:46:11.000Z</time>
      </trkpt>
      <trkpt lat="44.00475" lon="7.24589">
        <ele>1557.160156</ele>
        <time>2016-01-17T09:46:16.000Z</time>
      </trkpt>
      <trkpt lat="44.00477" lon="7.24583">
        <ele>1556.888306</ele>
        <time>2016-01-17T09:46:21.000Z</time>
      </trkpt>
      <trkpt lat="44.00478" lon="7.24578">
        <ele>1558.418335</ele>
        <time>2016-01-17T09:46:26.000Z</time>
      </trkpt>
      <trkpt lat="44.0048" lon="7.24575">
        <ele>1559.608765</ele>
        <time>2016-01-17T09:46:31.000Z</time>
      </trkpt>
      <trkpt lat="44.00482" lon="7.2457">
        <ele>1560.001343</ele>
        <time>2016-01-17T09:46:36.000Z</time>
      </trkpt>
      <trkpt lat="44.00485" lon="7.24564">
        <ele>1560.417847</ele>
        <time>2016-01-17T09:46:41.000Z</time>
      </trkpt>
      <trkpt lat="44.00488" lon="7.24559">
        <ele>1561.015015</ele>
        <time>2016-01-17T09:46:46.000Z</time>
      </trkpt>
      <trkpt lat="44.0049" lon="7.24555">
        <ele>1562.009521</ele>
        <time>2016-01-17T09:46:51.000Z</time>
      </trkpt>
      <trkpt lat="44.00493" lon="7.2455">
        <ele>1563.288208</ele>
        <time>2016-01-17T09:46:56.000Z</time>
      </trkpt>
      <trkpt lat="44.00496" lon="7.24547">
        <ele>1563.435059</ele>
        <time>2016-01-17T09:47:01.000Z</time>
      </trkpt>
      <trkpt lat="44.00497" lon="7.24542">
        <ele>1564.045776</ele>
        <time>2016-01-17T09:47:06.000Z</time>
      </trkpt>
      <trkpt lat="44.00498" lon="7.24538">
        <ele>1566.309937</ele>
        <time>2016-01-17T09:47:11.000Z</time>
      </trkpt>
      <trkpt lat="44.005" lon="7.24535">
        <ele>1567.205444</ele>
        <time>2016-01-17T09:47:16.000Z</time>
      </trkpt>
      <trkpt lat="44.00502" lon="7.24532">
        <ele>1568.36792</ele>
        <time>2016-01-17T09:47:21.000Z</time>
      </trkpt>
      <trkpt lat="44.00502" lon="7.24529">
        <ele>1570.233032</ele>
        <time>2016-01-17T09:47:26.000Z</time>
      </trkpt>
      <trkpt lat="44.00501" lon="7.24529">
        <ele>1570.889038</ele>
        <time>2016-01-17T09:47:31.000Z</time>
      </trkpt>
      <trkpt lat="44.00502" lon="7.24528">
        <ele>1571.155029</ele>
        <time>2016-01-17T09:47:36.000Z</time>
      </trkpt>
      <trkpt lat="44.00503" lon="7.24526">
        <ele>1571.404907</ele>
        <time>2016-01-17T09:47:41.000Z</time>
      </trkpt>
      <trkpt lat="44.00504" lon="7.24524">
        <ele>1572.258545</ele>
        <time>2016-01-17T09:47:46.000Z</time>
      </trkpt>
      <trkpt lat="44.00507" lon="7.24523">
        <ele>1572.692017</ele>
        <time>2016-01-17T09:47:51.000Z</time>
      </trkpt>
      <trkpt lat="44.00511" lon="7.24522">
        <ele>1572.903931</ele>
        <time>2016-01-17T09:47:56.000Z</time>
      </trkpt>
      <trkpt lat="44.00514" lon="7.24521">
        <ele>1573.120361</ele>
        <time>2016-01-17T09:48:01.000Z</time>
      </trkpt>
      <trkpt lat="44.00519" lon="7.24521">
        <ele>1573.359619</ele>
        <time>2016-01-17T09:48:06.000Z</time>
      </trkpt>
      <trkpt lat="44.00523" lon="7.24519">
        <ele>1573.619263</ele>
        <time>2016-01-17T09:48:11.000Z</time>
      </trkpt>
      <trkpt lat="44.00527" lon="7.24517">
        <ele>1574.104248</ele>
        <time>2016-01-17T09:48:16.000Z</time>
      </trkpt>
      <trkpt lat="44.00531" lon="7.24516">
        <ele>1574.440674</ele>
        <time>2016-01-17T09:48:21.000Z</time>
      </trkpt>
      <trkpt lat="44.00533" lon="7.24515">
        <ele>1575.828979</ele>
        <time>2016-01-17T09:48:26.000Z</time>
      </trkpt>
      <trkpt lat="44.00538" lon="7.24516">
        <ele>1575.769043</ele>
        <time>2016-01-17T09:48:31.000Z</time>
      </trkpt>
      <trkpt lat="44.00543" lon="7.24516">
        <ele>1576.717407</ele>
        <time>2016-01-17T09:48:36.000Z</time>
      </trkpt>
      <trkpt lat="44.00546" lon="7.24517">
        <ele>1578.16272</ele>
        <time>2016-01-17T09:48:41.000Z</time>
      </trkpt>
      <trkpt lat="44.0055" lon="7.24517">
        <ele>1578.70105</ele>
        <time>2016-01-17T09:48:46.000Z</time>
      </trkpt>
      <trkpt lat="44.00552" lon="7.24512">
        <ele>1579.753052</ele>
        <time>2016-01-17T09:48:51.000Z</time>
      </trkpt>
      <trkpt lat="44.00553" lon="7.24507">
        <ele>1580.743408</ele>
        <time>2016-01-17T09:48:56.000Z</time>
      </trkpt>
      <trkpt lat="44.00554" lon="7.24502">
        <ele>1581.136597</ele>
        <time>2016-01-17T09:49:01.000Z</time>
      </trkpt>
      <trkpt lat="44.00555" lon="7.24497">
        <ele>1582.070313</ele>
        <time>2016-01-17T09:49:06.000Z</time>
      </trkpt>
      <trkpt lat="44.00555" lon="7.24492">
        <ele>1583.909424</ele>
        <time>2016-01-17T09:49:11.000Z</time>
      </trkpt>
      <trkpt lat="44.00556" lon="7.24489">
        <ele>1585.159912</ele>
        <time>2016-01-17T09:49:16.000Z</time>
      </trkpt>
      <trkpt lat="44.00556" lon="7.2449">
        <ele>1585.421509</ele>
        <time>2016-01-17T09:49:21.000Z</time>
      </trkpt>
      <trkpt lat="44.00556" lon="7.2449">
        <ele>1585.511353</ele>
        <time>2016-01-17T09:49:26.000Z</time>
      </trkpt>
      <trkpt lat="44.00556" lon="7.24489">
        <ele>1585.636841</ele>
        <time>2016-01-17T09:49:31.000Z</time>
      </trkpt>
      <trkpt lat="44.00557" lon="7.24485">
        <ele>1585.558716</ele>
        <time>2016-01-17T09:49:36.000Z</time>
      </trkpt>
      <trkpt lat="44.00558" lon="7.24483">
        <ele>1585.105835</ele>
        <time>2016-01-17T09:49:41.000Z</time>
      </trkpt>
      <trkpt lat="44.0056" lon="7.24479">
        <ele>1585.072876</ele>
        <time>2016-01-17T09:49:46.000Z</time>
      </trkpt>
      <trkpt lat="44.00562" lon="7.24477">
        <ele>1584.886597</ele>
        <time>2016-01-17T09:49:51.000Z</time>
      </trkpt>
      <trkpt lat="44.00564" lon="7.24474">
        <ele>1584.809692</ele>
        <time>2016-01-17T09:49:56.000Z</time>
      </trkpt>
      <trkpt lat="44.00564" lon="7.2447">
        <ele>1585.030029</ele>
        <time>2016-01-17T09:50:01.000Z</time>
      </trkpt>
      <trkpt lat="44.00567" lon="7.24466">
        <ele>1585.503906</ele>
        <time>2016-01-17T09:50:06.000Z</time>
      </trkpt>
      <trkpt lat="44.00569" lon="7.24462">
        <ele>1586.6875</ele>
        <time>2016-01-17T09:50:11.000Z</time>
      </trkpt>
      <trkpt lat="44.0057" lon="7.24456">
        <ele>1587.566528</ele>
        <time>2016-01-17T09:50:16.000Z</time>
      </trkpt>
      <trkpt lat="44.00572" lon="7.24451">
        <ele>1588.560547</ele>
        <time>2016-01-17T09:50:21.000Z</time>
      </trkpt>
      <trkpt lat="44.00574" lon="7.24446">
        <ele>1589.316162</ele>
        <time>2016-01-17T09:50:26.000Z</time>
      </trkpt>
      <trkpt lat="44.00575" lon="7.24439">
        <ele>1589.818726</ele>
        <time>2016-01-17T09:50:31.000Z</time>
      </trkpt>
      <trkpt lat="44.00575" lon="7.24433">
        <ele>1589.9104</ele>
        <time>2016-01-17T09:50:36.000Z</time>
      </trkpt>
      <trkpt lat="44.00577" lon="7.24428">
        <ele>1590.393799</ele>
        <time>2016-01-17T09:50:41.000Z</time>
      </trkpt>
      <trkpt lat="44.0058" lon="7.24425">
        <ele>1590.582275</ele>
        <time>2016-01-17T09:50:46.000Z</time>
      </trkpt>
      <trkpt lat="44.00583" lon="7.24422">
        <ele>1590.696045</ele>
        <time>2016-01-17T09:50:51.000Z</time>
      </trkpt>
      <trkpt lat="44.00585" lon="7.24418">
        <ele>1592.387939</ele>
        <time>2016-01-17T09:50:56.000Z</time>
      </trkpt>
      <trkpt lat="44.00587" lon="7.24416">
        <ele>1593.246826</ele>
        <time>2016-01-17T09:51:01.000Z</time>
      </trkpt>
      <trkpt lat="44.00588" lon="7.24417">
        <ele>1593.908569</ele>
        <time>2016-01-17T09:51:06.000Z</time>
      </trkpt>
      <trkpt lat="44.00592" lon="7.24414">
        <ele>1594.345215</ele>
        <time>2016-01-17T09:51:11.000Z</time>
      </trkpt>
      <trkpt lat="44.00596" lon="7.24412">
        <ele>1594.572632</ele>
        <time>2016-01-17T09:51:16.000Z</time>
      </trkpt>
      <trkpt lat="44.00599" lon="7.24409">
        <ele>1594.543823</ele>
        <time>2016-01-17T09:51:21.000Z</time>
      </trkpt>
      <trkpt lat="44.00601" lon="7.24407">
        <ele>1595.478638</ele>
        <time>2016-01-17T09:51:26.000Z</time>
      </trkpt>
      <trkpt lat="44.00605" lon="7.24405">
        <ele>1595.822388</ele>
        <time>2016-01-17T09:51:31.000Z</time>
      </trkpt>
      <trkpt lat="44.00609" lon="7.24401">
        <ele>1596.505005</ele>
        <time>2016-01-17T09:51:36.000Z</time>
      </trkpt>
      <trkpt lat="44.00612" lon="7.24398">
        <ele>1596.45459</ele>
        <time>2016-01-17T09:51:41.000Z</time>
      </trkpt>
      <trkpt lat="44.00615" lon="7.24394">
        <ele>1596.601074</ele>
        <time>2016-01-17T09:51:46.000Z</time>
      </trkpt>
      <trkpt lat="44.00619" lon="7.2439">
        <ele>1598.18689</ele>
        <time>2016-01-17T09:51:51.000Z</time>
      </trkpt>
      <trkpt lat="44.00622" lon="7.24388">
        <ele>1599.190186</ele>
        <time>2016-01-17T09:51:56.000Z</time>
      </trkpt>
      <trkpt lat="44.00626" lon="7.24385">
        <ele>1600.10791</ele>
        <time>2016-01-17T09:52:01.000Z</time>
      </trkpt>
      <trkpt lat="44.00628" lon="7.24382">
        <ele>1601.55542</ele>
        <time>2016-01-17T09:52:06.000Z</time>
      </trkpt>
      <trkpt lat="44.00631" lon="7.24378">
        <ele>1602.675293</ele>
        <time>2016-01-17T09:52:11.000Z</time>
      </trkpt>
      <trkpt lat="44.00633" lon="7.24374">
        <ele>1604.483032</ele>
        <time>2016-01-17T09:52:16.000Z</time>
      </trkpt>
      <trkpt lat="44.00637" lon="7.24372">
        <ele>1605.019775</ele>
        <time>2016-01-17T09:52:21.000Z</time>
      </trkpt>
      <trkpt lat="44.0064" lon="7.24368">
        <ele>1605.610107</ele>
        <time>2016-01-17T09:52:26.000Z</time>
      </trkpt>
      <trkpt lat="44.00641" lon="7.24363">
        <ele>1605.544067</ele>
        <time>2016-01-17T09:52:31.000Z</time>
      </trkpt>
      <trkpt lat="44.00643" lon="7.24357">
        <ele>1607.235107</ele>
        <time>2016-01-17T09:52:36.000Z</time>
      </trkpt>
      <trkpt lat="44.00644" lon="7.24353">
        <ele>1607.713623</ele>
        <time>2016-01-17T09:52:41.000Z</time>
      </trkpt>
      <trkpt lat="44.00647" lon="7.24348">
        <ele>1608.095947</ele>
        <time>2016-01-17T09:52:46.000Z</time>
      </trkpt>
      <trkpt lat="44.00649" lon="7.24341">
        <ele>1609.282837</ele>
        <time>2016-01-17T09:52:51.000Z</time>
      </trkpt>
      <trkpt lat="44.0065" lon="7.24337">
        <ele>1611.065796</ele>
        <time>2016-01-17T09:52:56.000Z</time>
      </trkpt>
      <trkpt lat="44.00651" lon="7.24332">
        <ele>1612.171021</ele>
        <time>2016-01-17T09:53:01.000Z</time>
      </trkpt>
      <trkpt lat="44.00652" lon="7.24328">
        <ele>1614.04126</ele>
        <time>2016-01-17T09:53:06.000Z</time>
      </trkpt>
      <trkpt lat="44.00651" lon="7.24324">
        <ele>1615.005249</ele>
        <time>2016-01-17T09:53:11.000Z</time>
      </trkpt>
      <trkpt lat="44.00651" lon="7.2432">
        <ele>1616.841919</ele>
        <time>2016-01-17T09:53:16.000Z</time>
      </trkpt>
      <trkpt lat="44.00652" lon="7.24317">
        <ele>1618.436768</ele>
        <time>2016-01-17T09:53:21.000Z</time>
      </trkpt>
      <trkpt lat="44.0065" lon="7.24312">
        <ele>1619.701538</ele>
        <time>2016-01-17T09:53:26.000Z</time>
      </trkpt>
      <trkpt lat="44.00649" lon="7.24309">
        <ele>1620.034668</ele>
        <time>2016-01-17T09:53:31.000Z</time>
      </trkpt>
      <trkpt lat="44.0065" lon="7.24301">
        <ele>1619.807251</ele>
        <time>2016-01-17T09:53:36.000Z</time>
      </trkpt>
      <trkpt lat="44.00652" lon="7.24294">
        <ele>1617.87207</ele>
        <time>2016-01-17T09:53:41.000Z</time>
      </trkpt>
      <trkpt lat="44.00653" lon="7.24286">
        <ele>1616.596558</ele>
        <time>2016-01-17T09:53:46.000Z</time>
      </trkpt>
      <trkpt lat="44.00653" lon="7.2428">
        <ele>1617.72583</ele>
        <time>2016-01-17T09:53:51.000Z</time>
      </trkpt>
      <trkpt lat="44.00653" lon="7.24275">
        <ele>1618.007446</ele>
        <time>2016-01-17T09:53:56.000Z</time>
      </trkpt>
      <trkpt lat="44.00654" lon="7.2427">
        <ele>1618.349854</ele>
        <time>2016-01-17T09:54:01.000Z</time>
      </trkpt>
      <trkpt lat="44.00654" lon="7.24265">
        <ele>1618.872803</ele>
        <time>2016-01-17T09:54:06.000Z</time>
      </trkpt>
      <trkpt lat="44.00654" lon="7.2426">
        <ele>1619.672729</ele>
        <time>2016-01-17T09:54:11.000Z</time>
      </trkpt>
      <trkpt lat="44.00654" lon="7.24255">
        <ele>1620.0354</ele>
        <time>2016-01-17T09:54:16.000Z</time>
      </trkpt>
      <trkpt lat="44.00654" lon="7.2425">
        <ele>1621.203369</ele>
        <time>2016-01-17T09:54:21.000Z</time>
      </trkpt>
      <trkpt lat="44.00654" lon="7.24243">
        <ele>1620.539551</ele>
        <time>2016-01-17T09:54:26.000Z</time>
      </trkpt>
      <trkpt lat="44.00654" lon="7.24236">
        <ele>1620.945068</ele>
        <time>2016-01-17T09:54:31.000Z</time>
      </trkpt>
      <trkpt lat="44.00655" lon="7.24233">
        <ele>1620.489258</ele>
        <time>2016-01-17T09:54:36.000Z</time>
      </trkpt>
      <trkpt lat="44.00655" lon="7.24232">
        <ele>1620.276978</ele>
        <time>2016-01-17T09:54:41.000Z</time>
      </trkpt>
      <trkpt lat="44.00655" lon="7.24232">
        <ele>1620.245239</ele>
        <time>2016-01-17T09:54:46.000Z</time>
      </trkpt>
      <trkpt lat="44.00655" lon="7.24232">
        <ele>1620.223633</ele>
        <time>2016-01-17T09:54:51.000Z</time>
      </trkpt>
      <trkpt lat="44.00655" lon="7.24232">
        <ele>1620.243774</ele>
        <time>2016-01-17T09:54:56.000Z</time>
      </trkpt>
      <trkpt lat="44.00655" lon="7.24232">
        <ele>1620.280884</ele>
        <time>2016-01-17T09:55:01.000Z</time>
      </trkpt>
      <trkpt lat="44.00655" lon="7.24232">
        <ele>1620.282227</ele>
        <time>2016-01-17T09:55:06.000Z</time>
      </trkpt>
      <trkpt lat="44.00656" lon="7.24232">
        <ele>1620.626953</ele>
        <time>2016-01-17T09:55:11.000Z</time>
      </trkpt>
      <trkpt lat="44.00657" lon="7.24232">
        <ele>1621.244263</ele>
        <time>2016-01-17T09:55:16.000Z</time>
      </trkpt>
      <trkpt lat="44.00657" lon="7.24233">
        <ele>1621.247803</ele>
        <time>2016-01-17T09:55:21.000Z</time>
      </trkpt>
      <trkpt lat="44.00659" lon="7.24241">
        <ele>1621.413818</ele>
        <time>2016-01-17T09:55:26.000Z</time>
      </trkpt>
      <trkpt lat="44.00662" lon="7.2425">
        <ele>1622.318848</ele>
        <time>2016-01-17T09:55:31.000Z</time>
      </trkpt>
      <trkpt lat="44.00665" lon="7.24257">
        <ele>1622.913208</ele>
        <time>2016-01-17T09:55:36.000Z</time>
      </trkpt>
      <trkpt lat="44.00666" lon="7.24264">
        <ele>1623.178101</ele>
        <time>2016-01-17T09:55:41.000Z</time>
      </trkpt>
      <trkpt lat="44.00668" lon="7.24272">
        <ele>1623.099854</ele>
        <time>2016-01-17T09:55:46.000Z</time>
      </trkpt>
      <trkpt lat="44.00671" lon="7.24279">
        <ele>1623.44812</ele>
        <time>2016-01-17T09:55:51.000Z</time>
      </trkpt>
      <trkpt lat="44.00674" lon="7.24285">
        <ele>1623.860596</ele>
        <time>2016-01-17T09:55:56.000Z</time>
      </trkpt>
      <trkpt lat="44.00677" lon="7.24292">
        <ele>1624.475098</ele>
        <time>2016-01-17T09:56:01.000Z</time>
      </trkpt>
      <trkpt lat="44.0068" lon="7.24298">
        <ele>1625.514526</ele>
        <time>2016-01-17T09:56:06.000Z</time>
      </trkpt>
      <trkpt lat="44.00682" lon="7.24304">
        <ele>1626.461548</ele>
        <time>2016-01-17T09:56:11.000Z</time>
      </trkpt>
      <trkpt lat="44.00685" lon="7.2431">
        <ele>1627.120117</ele>
        <time>2016-01-17T09:56:16.000Z</time>
      </trkpt>
      <trkpt lat="44.00688" lon="7.24316">
        <ele>1628.178467</ele>
        <time>2016-01-17T09:56:21.000Z</time>
      </trkpt>
      <trkpt lat="44.00692" lon="7.24322">
        <ele>1628.528442</ele>
        <time>2016-01-17T09:56:26.000Z</time>
      </trkpt>
      <trkpt lat="44.00695" lon="7.24329">
        <ele>1627.670532</ele>
        <time>2016-01-17T09:56:31.000Z</time>
      </trkpt>
      <trkpt lat="44.00696" lon="7.24328">
        <ele>1628.690308</ele>
        <time>2016-01-17T09:56:36.000Z</time>
      </trkpt>
      <trkpt lat="44.00696" lon="7.24328">
        <ele>1628.919067</ele>
        <time>2016-01-17T09:56:41.000Z</time>
      </trkpt>
      <trkpt lat="44.00696" lon="7.24328">
        <ele>1629.128784</ele>
        <time>2016-01-17T09:56:46.000Z</time>
      </trkpt>
      <trkpt lat="44.00696" lon="7.24328">
        <ele>1629.166748</ele>
        <time>2016-01-17T09:56:51.000Z</time>
      </trkpt>
      <trkpt lat="44.00696" lon="7.24328">
        <ele>1629.167358</ele>
        <time>2016-01-17T09:56:56.000Z</time>
      </trkpt>
      <trkpt lat="44.00696" lon="7.24328">
        <ele>1629.173584</ele>
        <time>2016-01-17T09:57:01.000Z</time>
      </trkpt>
      <trkpt lat="44.00696" lon="7.2433">
        <ele>1629.20459</ele>
        <time>2016-01-17T09:57:06.000Z</time>
      </trkpt>
      <trkpt lat="44.00699" lon="7.24338">
        <ele>1630.245361</ele>
        <time>2016-01-17T09:57:11.000Z</time>
      </trkpt>
      <trkpt lat="44.00699" lon="7.2434">
        <ele>1630.758789</ele>
        <time>2016-01-17T09:57:16.000Z</time>
      </trkpt>
      <trkpt lat="44.00697" lon="7.24334">
        <ele>1630.813354</ele>
        <time>2016-01-17T09:57:21.000Z</time>
      </trkpt>
      <trkpt lat="44.00695" lon="7.24333">
        <ele>1631.831055</ele>
        <time>2016-01-17T09:57:26.000Z</time>
      </trkpt>
      <trkpt lat="44.00697" lon="7.24336">
        <ele>1632.908691</ele>
        <time>2016-01-17T09:57:31.000Z</time>
      </trkpt>
      <trkpt lat="44.00698" lon="7.24342">
        <ele>1633.701294</ele>
        <time>2016-01-17T09:57:36.000Z</time>
      </trkpt>
      <trkpt lat="44.00698" lon="7.24343">
        <ele>1633.367676</ele>
        <time>2016-01-17T09:57:41.000Z</time>
      </trkpt>
      <trkpt lat="44.00699" lon="7.2435">
        <ele>1633.954834</ele>
        <time>2016-01-17T09:57:46.000Z</time>
      </trkpt>
      <trkpt lat="44.007" lon="7.24358">
        <ele>1634.050659</ele>
        <time>2016-01-17T09:57:51.000Z</time>
      </trkpt>
      <trkpt lat="44.007" lon="7.24367">
        <ele>1634.578857</ele>
        <time>2016-01-17T09:57:56.000Z</time>
      </trkpt>
      <trkpt lat="44.00701" lon="7.24375">
        <ele>1634.884766</ele>
        <time>2016-01-17T09:58:01.000Z</time>
      </trkpt>
      <trkpt lat="44.00699" lon="7.24383">
        <ele>1635.25415</ele>
        <time>2016-01-17T09:58:06.000Z</time>
      </trkpt>
      <trkpt lat="44.00697" lon="7.24392">
        <ele>1634.796265</ele>
        <time>2016-01-17T09:58:11.000Z</time>
      </trkpt>
      <trkpt lat="44.00695" lon="7.244">
        <ele>1636.046631</ele>
        <time>2016-01-17T09:58:16.000Z</time>
      </trkpt>
      <trkpt lat="44.00694" lon="7.24408">
        <ele>1636.292603</ele>
        <time>2016-01-17T09:58:21.000Z</time>
      </trkpt>
      <trkpt lat="44.00692" lon="7.24417">
        <ele>1636.01062</ele>
        <time>2016-01-17T09:58:26.000Z</time>
      </trkpt>
      <trkpt lat="44.0069" lon="7.24425">
        <ele>1636.748901</ele>
        <time>2016-01-17T09:58:31.000Z</time>
      </trkpt>
      <trkpt lat="44.00689" lon="7.24432">
        <ele>1637.67334</ele>
        <time>2016-01-17T09:58:36.000Z</time>
      </trkpt>
      <trkpt lat="44.00688" lon="7.2444">
        <ele>1637.633179</ele>
        <time>2016-01-17T09:58:41.000Z</time>
      </trkpt>
      <trkpt lat="44.00687" lon="7.24447">
        <ele>1638.300537</ele>
        <time>2016-01-17T09:58:46.000Z</time>
      </trkpt>
      <trkpt lat="44.00686" lon="7.24454">
        <ele>1638.463135</ele>
        <time>2016-01-17T09:58:51.000Z</time>
      </trkpt>
      <trkpt lat="44.00686" lon="7.24462">
        <ele>1638.999878</ele>
        <time>2016-01-17T09:58:56.000Z</time>
      </trkpt>
      <trkpt lat="44.00685" lon="7.24471">
        <ele>1638.75708</ele>
        <time>2016-01-17T09:59:01.000Z</time>
      </trkpt>
      <trkpt lat="44.00686" lon="7.24478">
        <ele>1639.546143</ele>
        <time>2016-01-17T09:59:06.000Z</time>
      </trkpt>
      <trkpt lat="44.00686" lon="7.24486">
        <ele>1641.052124</ele>
        <time>2016-01-17T09:59:11.000Z</time>
      </trkpt>
      <trkpt lat="44.00686" lon="7.24494">
        <ele>1642.331177</ele>
        <time>2016-01-17T09:59:16.000Z</time>
      </trkpt>
      <trkpt lat="44.00685" lon="7.24501">
        <ele>1644.417969</ele>
        <time>2016-01-17T09:59:21.000Z</time>
      </trkpt>
      <trkpt lat="44.00683" lon="7.2451">
        <ele>1644.734863</ele>
        <time>2016-01-17T09:59:26.000Z</time>
      </trkpt>
      <trkpt lat="44.00683" lon="7.24518">
        <ele>1645.696045</ele>
        <time>2016-01-17T09:59:31.000Z</time>
      </trkpt>
      <trkpt lat="44.00684" lon="7.24526">
        <ele>1646.943237</ele>
        <time>2016-01-17T09:59:36.000Z</time>
      </trkpt>
      <trkpt lat="44.00684" lon="7.24535">
        <ele>1647.58374</ele>
        <time>2016-01-17T09:59:41.000Z</time>
      </trkpt>
      <trkpt lat="44.00683" lon="7.24543">
        <ele>1647.633667</ele>
        <time>2016-01-17T09:59:46.000Z</time>
      </trkpt>
      <trkpt lat="44.00682" lon="7.2455">
        <ele>1648.267212</ele>
        <time>2016-01-17T09:59:51.000Z</time>
      </trkpt>
      <trkpt lat="44.00681" lon="7.24558">
        <ele>1648.931274</ele>
        <time>2016-01-17T09:59:56.000Z</time>
      </trkpt>
      <trkpt lat="44.00681" lon="7.24566">
        <ele>1649.217651</ele>
        <time>2016-01-17T10:00:01.000Z</time>
      </trkpt>
      <trkpt lat="44.00681" lon="7.24574">
        <ele>1649.793091</ele>
        <time>2016-01-17T10:00:06.000Z</time>
      </trkpt>
      <trkpt lat="44.00683" lon="7.24581">
        <ele>1650.394775</ele>
        <time>2016-01-17T10:00:11.000Z</time>
      </trkpt>
      <trkpt lat="44.00684" lon="7.24589">
        <ele>1651.711304</ele>
        <time>2016-01-17T10:00:16.000Z</time>
      </trkpt>
      <trkpt lat="44.00685" lon="7.24598">
        <ele>1653.410645</ele>
        <time>2016-01-17T10:00:21.000Z</time>
      </trkpt>
      <trkpt lat="44.00682" lon="7.24605">
        <ele>1655.540283</ele>
        <time>2016-01-17T10:00:26.000Z</time>
      </trkpt>
      <trkpt lat="44.00679" lon="7.24613">
        <ele>1657.512695</ele>
        <time>2016-01-17T10:00:31.000Z</time>
      </trkpt>
      <trkpt lat="44.00677" lon="7.2462">
        <ele>1659.447266</ele>
        <time>2016-01-17T10:00:36.000Z</time>
      </trkpt>
      <trkpt lat="44.00674" lon="7.24628">
        <ele>1659.884155</ele>
        <time>2016-01-17T10:00:41.000Z</time>
      </trkpt>
      <trkpt lat="44.0067" lon="7.24638">
        <ele>1658.756958</ele>
        <time>2016-01-17T10:00:46.000Z</time>
      </trkpt>
      <trkpt lat="44.00667" lon="7.24646">
        <ele>1658.35022</ele>
        <time>2016-01-17T10:00:51.000Z</time>
      </trkpt>
      <trkpt lat="44.00665" lon="7.24654">
        <ele>1658.747192</ele>
        <time>2016-01-17T10:00:56.000Z</time>
      </trkpt>
      <trkpt lat="44.00662" lon="7.24662">
        <ele>1658.819336</ele>
        <time>2016-01-17T10:01:01.000Z</time>
      </trkpt>
      <trkpt lat="44.00658" lon="7.2467">
        <ele>1658.642212</ele>
        <time>2016-01-17T10:01:06.000Z</time>
      </trkpt>
      <trkpt lat="44.00655" lon="7.24678">
        <ele>1658.33252</ele>
        <time>2016-01-17T10:01:11.000Z</time>
      </trkpt>
      <trkpt lat="44.00661" lon="7.24684">
        <ele>1657.979126</ele>
        <time>2016-01-17T10:01:16.000Z</time>
      </trkpt>
      <trkpt lat="44.00667" lon="7.24682">
        <ele>1656.469849</ele>
        <time>2016-01-17T10:01:21.000Z</time>
      </trkpt>
      <trkpt lat="44.00672" lon="7.24674">
        <ele>1656.126099</ele>
        <time>2016-01-17T10:01:26.000Z</time>
      </trkpt>
      <trkpt lat="44.00675" lon="7.24667">
        <ele>1655.776367</ele>
        <time>2016-01-17T10:01:31.000Z</time>
      </trkpt>
      <trkpt lat="44.00678" lon="7.24658">
        <ele>1654.833252</ele>
        <time>2016-01-17T10:01:36.000Z</time>
      </trkpt>
      <trkpt lat="44.00682" lon="7.24651">
        <ele>1655.373169</ele>
        <time>2016-01-17T10:01:41.000Z</time>
      </trkpt>
      <trkpt lat="44.00687" lon="7.24645">
        <ele>1656.473511</ele>
        <time>2016-01-17T10:01:46.000Z</time>
      </trkpt>
      <trkpt lat="44.00692" lon="7.24639">
        <ele>1656.810181</ele>
        <time>2016-01-17T10:01:51.000Z</time>
      </trkpt>
      <trkpt lat="44.00696" lon="7.24633">
        <ele>1657.241699</ele>
        <time>2016-01-17T10:01:56.000Z</time>
      </trkpt>
      <trkpt lat="44.00701" lon="7.24628">
        <ele>1657.614136</ele>
        <time>2016-01-17T10:02:01.000Z</time>
      </trkpt>
      <trkpt lat="44.00705" lon="7.24623">
        <ele>1658.132324</ele>
        <time>2016-01-17T10:02:06.000Z</time>
      </trkpt>
      <trkpt lat="44.00711" lon="7.24619">
        <ele>1658.395142</ele>
        <time>2016-01-17T10:02:11.000Z</time>
      </trkpt>
      <trkpt lat="44.00715" lon="7.24613">
        <ele>1659.436157</ele>
        <time>2016-01-17T10:02:16.000Z</time>
      </trkpt>
      <trkpt lat="44.00719" lon="7.24606">
        <ele>1659.580688</ele>
        <time>2016-01-17T10:02:21.000Z</time>
      </trkpt>
      <trkpt lat="44.00723" lon="7.24597">
        <ele>1660.709717</ele>
        <time>2016-01-17T10:02:26.000Z</time>
      </trkpt>
      <trkpt lat="44.00724" lon="7.24589">
        <ele>1662.037354</ele>
        <time>2016-01-17T10:02:31.000Z</time>
      </trkpt>
      <trkpt lat="44.00725" lon="7.24581">
        <ele>1662.310303</ele>
        <time>2016-01-17T10:02:36.000Z</time>
      </trkpt>
      <trkpt lat="44.00724" lon="7.24574">
        <ele>1663.753052</ele>
        <time>2016-01-17T10:02:41.000Z</time>
      </trkpt>
      <trkpt lat="44.00726" lon="7.24565">
        <ele>1665.528564</ele>
        <time>2016-01-17T10:02:46.000Z</time>
      </trkpt>
      <trkpt lat="44.00729" lon="7.24558">
        <ele>1666.844971</ele>
        <time>2016-01-17T10:02:51.000Z</time>
      </trkpt>
      <trkpt lat="44.00732" lon="7.24551">
        <ele>1668.966187</ele>
        <time>2016-01-17T10:02:56.000Z</time>
      </trkpt>
      <trkpt lat="44.00733" lon="7.24543">
        <ele>1670.05835</ele>
        <time>2016-01-17T10:03:01.000Z</time>
      </trkpt>
      <trkpt lat="44.00735" lon="7.24535">
        <ele>1671.217163</ele>
        <time>2016-01-17T10:03:06.000Z</time>
      </trkpt>
      <trkpt lat="44.00736" lon="7.24526">
        <ele>1672.378906</ele>
        <time>2016-01-17T10:03:11.000Z</time>
      </trkpt>
      <trkpt lat="44.00736" lon="7.24518">
        <ele>1672.351563</ele>
        <time>2016-01-17T10:03:16.000Z</time>
      </trkpt>
      <trkpt lat="44.00737" lon="7.24511">
        <ele>1673.792725</ele>
        <time>2016-01-17T10:03:21.000Z</time>
      </trkpt>
      <trkpt lat="44.00739" lon="7.24503">
        <ele>1673.381348</ele>
        <time>2016-01-17T10:03:26.000Z</time>
      </trkpt>
      <trkpt lat="44.0074" lon="7.24494">
        <ele>1673.302368</ele>
        <time>2016-01-17T10:03:31.000Z</time>
      </trkpt>
      <trkpt lat="44.00741" lon="7.24487">
        <ele>1673.329468</ele>
        <time>2016-01-17T10:03:36.000Z</time>
      </trkpt>
      <trkpt lat="44.00744" lon="7.24478">
        <ele>1674.266113</ele>
        <time>2016-01-17T10:03:41.000Z</time>
      </trkpt>
      <trkpt lat="44.00745" lon="7.24471">
        <ele>1674.543945</ele>
        <time>2016-01-17T10:03:46.000Z</time>
      </trkpt>
      <trkpt lat="44.00748" lon="7.24463">
        <ele>1675.709229</ele>
        <time>2016-01-17T10:03:51.000Z</time>
      </trkpt>
      <trkpt lat="44.00751" lon="7.24454">
        <ele>1676.713501</ele>
        <time>2016-01-17T10:03:56.000Z</time>
      </trkpt>
      <trkpt lat="44.00753" lon="7.24445">
        <ele>1677.811523</ele>
        <time>2016-01-17T10:04:01.000Z</time>
      </trkpt>
      <trkpt lat="44.00756" lon="7.24437">
        <ele>1675.811279</ele>
        <time>2016-01-17T10:04:06.000Z</time>
      </trkpt>
      <trkpt lat="44.00759" lon="7.2443">
        <ele>1674.886963</ele>
        <time>2016-01-17T10:04:11.000Z</time>
      </trkpt>
      <trkpt lat="44.00762" lon="7.24422">
        <ele>1674.439941</ele>
        <time>2016-01-17T10:04:16.000Z</time>
      </trkpt>
      <trkpt lat="44.00765" lon="7.24414">
        <ele>1674.563354</ele>
        <time>2016-01-17T10:04:21.000Z</time>
      </trkpt>
      <trkpt lat="44.00767" lon="7.24407">
        <ele>1675.066162</ele>
        <time>2016-01-17T10:04:26.000Z</time>
      </trkpt>
      <trkpt lat="44.00769" lon="7.24399">
        <ele>1675.247925</ele>
        <time>2016-01-17T10:04:31.000Z</time>
      </trkpt>
      <trkpt lat="44.00772" lon="7.24391">
        <ele>1674.622803</ele>
        <time>2016-01-17T10:04:36.000Z</time>
      </trkpt>
      <trkpt lat="44.00776" lon="7.24382">
        <ele>1674.052856</ele>
        <time>2016-01-17T10:04:41.000Z</time>
      </trkpt>
      <trkpt lat="44.00778" lon="7.24376">
        <ele>1673.877075</ele>
        <time>2016-01-17T10:04:46.000Z</time>
      </trkpt>
      <trkpt lat="44.00777" lon="7.24377">
        <ele>1673.810791</ele>
        <time>2016-01-17T10:04:51.000Z</time>
      </trkpt>
      <trkpt lat="44.00777" lon="7.24377">
        <ele>1673.888794</ele>
        <time>2016-01-17T10:04:56.000Z</time>
      </trkpt>
      <trkpt lat="44.00777" lon="7.24377">
        <ele>1673.870972</ele>
        <time>2016-01-17T10:05:01.000Z</time>
      </trkpt>
      <trkpt lat="44.00777" lon="7.24377">
        <ele>1673.902466</ele>
        <time>2016-01-17T10:05:06.000Z</time>
      </trkpt>
      <trkpt lat="44.00777" lon="7.24377">
        <ele>1673.907104</ele>
        <time>2016-01-17T10:05:11.000Z</time>
      </trkpt>
      <trkpt lat="44.00777" lon="7.24377">
        <ele>1673.907349</ele>
        <time>2016-01-17T10:05:16.000Z</time>
      </trkpt>
      <trkpt lat="44.00777" lon="7.24377">
        <ele>1673.915527</ele>
        <time>2016-01-17T10:05:21.000Z</time>
      </trkpt>
      <trkpt lat="44.00777" lon="7.24377">
        <ele>1673.952026</ele>
        <time>2016-01-17T10:05:26.000Z</time>
      </trkpt>
      <trkpt lat="44.00777" lon="7.24377">
        <ele>1673.971802</ele>
        <time>2016-01-17T10:05:31.000Z</time>
      </trkpt>
      <trkpt lat="44.00777" lon="7.24377">
        <ele>1673.973267</ele>
        <time>2016-01-17T10:05:36.000Z</time>
      </trkpt>
      <trkpt lat="44.00777" lon="7.24377">
        <ele>1673.975586</ele>
        <time>2016-01-17T10:05:41.000Z</time>
      </trkpt>
      <trkpt lat="44.00777" lon="7.24377">
        <ele>1673.973999</ele>
        <time>2016-01-17T10:05:46.000Z</time>
      </trkpt>
      <trkpt lat="44.00777" lon="7.24377">
        <ele>1673.949707</ele>
        <time>2016-01-17T10:05:51.000Z</time>
      </trkpt>
      <trkpt lat="44.00777" lon="7.24377">
        <ele>1673.914429</ele>
        <time>2016-01-17T10:05:56.000Z</time>
      </trkpt>
      <trkpt lat="44.00777" lon="7.24377">
        <ele>1673.892578</ele>
        <time>2016-01-17T10:06:01.000Z</time>
      </trkpt>
      <trkpt lat="44.00777" lon="7.24376">
        <ele>1673.583008</ele>
        <time>2016-01-17T10:06:06.000Z</time>
      </trkpt>
      <trkpt lat="44.00781" lon="7.24365">
        <ele>1671.949219</ele>
        <time>2016-01-17T10:06:11.000Z</time>
      </trkpt>
      <trkpt lat="44.00784" lon="7.24354">
        <ele>1670.414307</ele>
        <time>2016-01-17T10:06:16.000Z</time>
      </trkpt>
      <trkpt lat="44.00788" lon="7.24342">
        <ele>1668.641357</ele>
        <time>2016-01-17T10:06:21.000Z</time>
      </trkpt>
      <trkpt lat="44.0079" lon="7.2433">
        <ele>1669.834717</ele>
        <time>2016-01-17T10:06:26.000Z</time>
      </trkpt>
      <trkpt lat="44.00791" lon="7.24318">
        <ele>1673.756348</ele>
        <time>2016-01-17T10:06:31.000Z</time>
      </trkpt>
      <trkpt lat="44.00789" lon="7.24306">
        <ele>1673.008057</ele>
        <time>2016-01-17T10:06:36.000Z</time>
      </trkpt>
      <trkpt lat="44.00789" lon="7.24293">
        <ele>1672.223511</ele>
        <time>2016-01-17T10:06:41.000Z</time>
      </trkpt>
      <trkpt lat="44.00787" lon="7.24282">
        <ele>1674.169189</ele>
        <time>2016-01-17T10:06:46.000Z</time>
      </trkpt>
      <trkpt lat="44.00784" lon="7.24272">
        <ele>1675.330444</ele>
        <time>2016-01-17T10:06:51.000Z</time>
      </trkpt>
      <trkpt lat="44.00781" lon="7.24262">
        <ele>1676.360962</ele>
        <time>2016-01-17T10:06:56.000Z</time>
      </trkpt>
      <trkpt lat="44.00779" lon="7.24251">
        <ele>1677.755005</ele>
        <time>2016-01-17T10:07:01.000Z</time>
      </trkpt>
      <trkpt lat="44.0078" lon="7.24241">
        <ele>1678.326782</ele>
        <time>2016-01-17T10:07:06.000Z</time>
      </trkpt>
      <trkpt lat="44.0078" lon="7.24231">
        <ele>1679.127441</ele>
        <time>2016-01-17T10:07:11.000Z</time>
      </trkpt>
      <trkpt lat="44.00783" lon="7.24221">
        <ele>1680.744019</ele>
        <time>2016-01-17T10:07:16.000Z</time>
      </trkpt>
      <trkpt lat="44.00786" lon="7.24213">
        <ele>1681.096191</ele>
        <time>2016-01-17T10:07:21.000Z</time>
      </trkpt>
      <trkpt lat="44.0079" lon="7.24205">
        <ele>1682.038574</ele>
        <time>2016-01-17T10:07:26.000Z</time>
      </trkpt>
      <trkpt lat="44.00793" lon="7.24197">
        <ele>1682.262573</ele>
        <time>2016-01-17T10:07:31.000Z</time>
      </trkpt>
      <trkpt lat="44.00797" lon="7.24189">
        <ele>1682.38916</ele>
        <time>2016-01-17T10:07:36.000Z</time>
      </trkpt>
      <trkpt lat="44.00802" lon="7.24182">
        <ele>1682.900269</ele>
        <time>2016-01-17T10:07:41.000Z</time>
      </trkpt>
      <trkpt lat="44.00806" lon="7.24175">
        <ele>1683.165771</ele>
        <time>2016-01-17T10:07:46.000Z</time>
      </trkpt>
      <trkpt lat="44.0081" lon="7.24169">
        <ele>1683.754639</ele>
        <time>2016-01-17T10:07:51.000Z</time>
      </trkpt>
      <trkpt lat="44.00816" lon="7.24163">
        <ele>1684.682617</ele>
        <time>2016-01-17T10:07:56.000Z</time>
      </trkpt>
      <trkpt lat="44.00821" lon="7.24157">
        <ele>1685.529175</ele>
        <time>2016-01-17T10:08:01.000Z</time>
      </trkpt>
      <trkpt lat="44.00825" lon="7.24151">
        <ele>1685.891113</ele>
        <time>2016-01-17T10:08:06.000Z</time>
      </trkpt>
      <trkpt lat="44.0083" lon="7.24145">
        <ele>1686.12146</ele>
        <time>2016-01-17T10:08:11.000Z</time>
      </trkpt>
      <trkpt lat="44.00836" lon="7.2414">
        <ele>1686.82666</ele>
        <time>2016-01-17T10:08:16.000Z</time>
      </trkpt>
      <trkpt lat="44.00841" lon="7.24135">
        <ele>1686.477173</ele>
        <time>2016-01-17T10:08:21.000Z</time>
      </trkpt>
      <trkpt lat="44.00846" lon="7.24131">
        <ele>1686.372559</ele>
        <time>2016-01-17T10:08:26.000Z</time>
      </trkpt>
      <trkpt lat="44.00851" lon="7.24128">
        <ele>1687.015869</ele>
        <time>2016-01-17T10:08:31.000Z</time>
      </trkpt>
      <trkpt lat="44.00856" lon="7.24123">
        <ele>1687.515991</ele>
        <time>2016-01-17T10:08:36.000Z</time>
      </trkpt>
      <trkpt lat="44.00861" lon="7.24118">
        <ele>1688.179932</ele>
        <time>2016-01-17T10:08:41.000Z</time>
      </trkpt>
      <trkpt lat="44.00865" lon="7.24113">
        <ele>1689.184326</ele>
        <time>2016-01-17T10:08:46.000Z</time>
      </trkpt>
      <trkpt lat="44.0087" lon="7.24109">
        <ele>1689.717773</ele>
        <time>2016-01-17T10:08:51.000Z</time>
      </trkpt>
      <trkpt lat="44.00875" lon="7.24104">
        <ele>1690.299683</ele>
        <time>2016-01-17T10:08:56.000Z</time>
      </trkpt>
      <trkpt lat="44.0088" lon="7.241">
        <ele>1690.499756</ele>
        <time>2016-01-17T10:09:01.000Z</time>
      </trkpt>
      <trkpt lat="44.00886" lon="7.24096">
        <ele>1690.866455</ele>
        <time>2016-01-17T10:09:06.000Z</time>
      </trkpt>
      <trkpt lat="44.00892" lon="7.24092">
        <ele>1691.184814</ele>
        <time>2016-01-17T10:09:11.000Z</time>
      </trkpt>
      <trkpt lat="44.00896" lon="7.24089">
        <ele>1692.007324</ele>
        <time>2016-01-17T10:09:16.000Z</time>
      </trkpt>
      <trkpt lat="44.009" lon="7.24084">
        <ele>1692.926514</ele>
        <time>2016-01-17T10:09:21.000Z</time>
      </trkpt>
      <trkpt lat="44.00904" lon="7.2408">
        <ele>1693.286377</ele>
        <time>2016-01-17T10:09:26.000Z</time>
      </trkpt>
      <trkpt lat="44.00909" lon="7.24074">
        <ele>1693.744019</ele>
        <time>2016-01-17T10:09:31.000Z</time>
      </trkpt>
      <trkpt lat="44.00913" lon="7.24067">
        <ele>1694.592651</ele>
        <time>2016-01-17T10:09:36.000Z</time>
      </trkpt>
      <trkpt lat="44.00916" lon="7.24061">
        <ele>1694.95459</ele>
        <time>2016-01-17T10:09:41.000Z</time>
      </trkpt>
      <trkpt lat="44.0092" lon="7.24054">
        <ele>1695.551147</ele>
        <time>2016-01-17T10:09:46.000Z</time>
      </trkpt>
      <trkpt lat="44.00923" lon="7.24047">
        <ele>1695.844727</ele>
        <time>2016-01-17T10:09:51.000Z</time>
      </trkpt>
      <trkpt lat="44.00926" lon="7.24038">
        <ele>1695.795654</ele>
        <time>2016-01-17T10:09:56.000Z</time>
      </trkpt>
      <trkpt lat="44.00928" lon="7.2403">
        <ele>1696.197876</ele>
        <time>2016-01-17T10:10:01.000Z</time>
      </trkpt>
      <trkpt lat="44.0093" lon="7.24021">
        <ele>1696.016113</ele>
        <time>2016-01-17T10:10:06.000Z</time>
      </trkpt>
      <trkpt lat="44.00931" lon="7.24013">
        <ele>1696.119141</ele>
        <time>2016-01-17T10:10:11.000Z</time>
      </trkpt>
      <trkpt lat="44.0093" lon="7.24003">
        <ele>1696.03064</ele>
        <time>2016-01-17T10:10:16.000Z</time>
      </trkpt>
      <trkpt lat="44.00928" lon="7.23994">
        <ele>1696.534302</ele>
        <time>2016-01-17T10:10:21.000Z</time>
      </trkpt>
      <trkpt lat="44.00926" lon="7.23985">
        <ele>1696.581787</ele>
        <time>2016-01-17T10:10:26.000Z</time>
      </trkpt>
      <trkpt lat="44.00925" lon="7.23977">
        <ele>1696.741821</ele>
        <time>2016-01-17T10:10:31.000Z</time>
      </trkpt>
      <trkpt lat="44.00924" lon="7.23972">
        <ele>1697.057007</ele>
        <time>2016-01-17T10:10:36.000Z</time>
      </trkpt>
      <trkpt lat="44.00924" lon="7.23972">
        <ele>1697.921021</ele>
        <time>2016-01-17T10:10:41.000Z</time>
      </trkpt>
      <trkpt lat="44.00924" lon="7.23972">
        <ele>1698.003296</ele>
        <time>2016-01-17T10:10:46.000Z</time>
      </trkpt>
      <trkpt lat="44.00924" lon="7.23972">
        <ele>1698.098389</ele>
        <time>2016-01-17T10:10:51.000Z</time>
      </trkpt>
      <trkpt lat="44.00924" lon="7.23972">
        <ele>1698.150879</ele>
        <time>2016-01-17T10:10:56.000Z</time>
      </trkpt>
      <trkpt lat="44.00924" lon="7.23972">
        <ele>1698.196167</ele>
        <time>2016-01-17T10:11:01.000Z</time>
      </trkpt>
      <trkpt lat="44.00924" lon="7.23972">
        <ele>1698.197876</ele>
        <time>2016-01-17T10:11:06.000Z</time>
      </trkpt>
      <trkpt lat="44.00924" lon="7.23972">
        <ele>1699.568237</ele>
        <time>2016-01-17T10:11:11.000Z</time>
      </trkpt>
      <trkpt lat="44.00924" lon="7.23964">
        <ele>1699.765747</ele>
        <time>2016-01-17T10:11:16.000Z</time>
      </trkpt>
      <trkpt lat="44.00925" lon="7.23955">
        <ele>1699.611572</ele>
        <time>2016-01-17T10:11:21.000Z</time>
      </trkpt>
      <trkpt lat="44.00928" lon="7.23946">
        <ele>1699.401001</ele>
        <time>2016-01-17T10:11:26.000Z</time>
      </trkpt>
      <trkpt lat="44.00932" lon="7.23938">
        <ele>1699.3396</ele>
        <time>2016-01-17T10:11:31.000Z</time>
      </trkpt>
      <trkpt lat="44.00936" lon="7.23931">
        <ele>1699.538208</ele>
        <time>2016-01-17T10:11:36.000Z</time>
      </trkpt>
      <trkpt lat="44.0094" lon="7.23924">
        <ele>1699.542969</ele>
        <time>2016-01-17T10:11:41.000Z</time>
      </trkpt>
      <trkpt lat="44.00944" lon="7.23916">
        <ele>1700.435181</ele>
        <time>2016-01-17T10:11:46.000Z</time>
      </trkpt>
      <trkpt lat="44.00947" lon="7.23909">
        <ele>1701.095703</ele>
        <time>2016-01-17T10:11:51.000Z</time>
      </trkpt>
      <trkpt lat="44.00949" lon="7.239">
        <ele>1702.131714</ele>
        <time>2016-01-17T10:11:56.000Z</time>
      </trkpt>
      <trkpt lat="44.0095" lon="7.23892">
        <ele>1703.658569</ele>
        <time>2016-01-17T10:12:01.000Z</time>
      </trkpt>
      <trkpt lat="44.00951" lon="7.23883">
        <ele>1704.322754</ele>
        <time>2016-01-17T10:12:06.000Z</time>
      </trkpt>
      <trkpt lat="44.00952" lon="7.23876">
        <ele>1705.542236</ele>
        <time>2016-01-17T10:12:11.000Z</time>
      </trkpt>
      <trkpt lat="44.00956" lon="7.23867">
        <ele>1707.010986</ele>
        <time>2016-01-17T10:12:16.000Z</time>
      </trkpt>
      <trkpt lat="44.0096" lon="7.23859">
        <ele>1708.222046</ele>
        <time>2016-01-17T10:12:21.000Z</time>
      </trkpt>
      <trkpt lat="44.00963" lon="7.23852">
        <ele>1709.462036</ele>
        <time>2016-01-17T10:12:26.000Z</time>
      </trkpt>
      <trkpt lat="44.00966" lon="7.23845">
        <ele>1710.024414</ele>
        <time>2016-01-17T10:12:31.000Z</time>
      </trkpt>
      <trkpt lat="44.00968" lon="7.23838">
        <ele>1711.003296</ele>
        <time>2016-01-17T10:12:36.000Z</time>
      </trkpt>
      <trkpt lat="44.00971" lon="7.2383">
        <ele>1711.549805</ele>
        <time>2016-01-17T10:12:41.000Z</time>
      </trkpt>
      <trkpt lat="44.0097" lon="7.23823">
        <ele>1712.05542</ele>
        <time>2016-01-17T10:12:46.000Z</time>
      </trkpt>
      <trkpt lat="44.0097" lon="7.23816">
        <ele>1713.799072</ele>
        <time>2016-01-17T10:12:51.000Z</time>
      </trkpt>
      <trkpt lat="44.00971" lon="7.23808">
        <ele>1714.087646</ele>
        <time>2016-01-17T10:12:56.000Z</time>
      </trkpt>
      <trkpt lat="44.00969" lon="7.23798">
        <ele>1714.216431</ele>
        <time>2016-01-17T10:13:01.000Z</time>
      </trkpt>
      <trkpt lat="44.00966" lon="7.2379">
        <ele>1713.791992</ele>
        <time>2016-01-17T10:13:06.000Z</time>
      </trkpt>
      <trkpt lat="44.00964" lon="7.23782">
        <ele>1714.279785</ele>
        <time>2016-01-17T10:13:11.000Z</time>
      </trkpt>
      <trkpt lat="44.0096" lon="7.23776">
        <ele>1715.129761</ele>
        <time>2016-01-17T10:13:16.000Z</time>
      </trkpt>
      <trkpt lat="44.00955" lon="7.23771">
        <ele>1716.634399</ele>
        <time>2016-01-17T10:13:21.000Z</time>
      </trkpt>
      <trkpt lat="44.00952" lon="7.23766">
        <ele>1717.534546</ele>
        <time>2016-01-17T10:13:26.000Z</time>
      </trkpt>
      <trkpt lat="44.00947" lon="7.2376">
        <ele>1718.905029</ele>
        <time>2016-01-17T10:13:31.000Z</time>
      </trkpt>
      <trkpt lat="44.00942" lon="7.23755">
        <ele>1719.891235</ele>
        <time>2016-01-17T10:13:36.000Z</time>
      </trkpt>
      <trkpt lat="44.00938" lon="7.2375">
        <ele>1719.853149</ele>
        <time>2016-01-17T10:13:41.000Z</time>
      </trkpt>
      <trkpt lat="44.00933" lon="7.23744">
        <ele>1719.272949</ele>
        <time>2016-01-17T10:13:46.000Z</time>
      </trkpt>
      <trkpt lat="44.00929" lon="7.23735">
        <ele>1719.765503</ele>
        <time>2016-01-17T10:13:51.000Z</time>
      </trkpt>
      <trkpt lat="44.00926" lon="7.23728">
        <ele>1721.026611</ele>
        <time>2016-01-17T10:13:56.000Z</time>
      </trkpt>
      <trkpt lat="44.00923" lon="7.2372">
        <ele>1722.424316</ele>
        <time>2016-01-17T10:14:01.000Z</time>
      </trkpt>
      <trkpt lat="44.00919" lon="7.23713">
        <ele>1723.069702</ele>
        <time>2016-01-17T10:14:06.000Z</time>
      </trkpt>
      <trkpt lat="44.00914" lon="7.23704">
        <ele>1722.117554</ele>
        <time>2016-01-17T10:14:11.000Z</time>
      </trkpt>
      <trkpt lat="44.0091" lon="7.23696">
        <ele>1721.480713</ele>
        <time>2016-01-17T10:14:16.000Z</time>
      </trkpt>
      <trkpt lat="44.00907" lon="7.23689">
        <ele>1721.419312</ele>
        <time>2016-01-17T10:14:21.000Z</time>
      </trkpt>
      <trkpt lat="44.009" lon="7.23686">
        <ele>1722.833374</ele>
        <time>2016-01-17T10:14:26.000Z</time>
      </trkpt>
      <trkpt lat="44.00894" lon="7.23681">
        <ele>1724.926392</ele>
        <time>2016-01-17T10:14:31.000Z</time>
      </trkpt>
      <trkpt lat="44.00891" lon="7.23673">
        <ele>1725.07666</ele>
        <time>2016-01-17T10:14:36.000Z</time>
      </trkpt>
      <trkpt lat="44.00885" lon="7.23666">
        <ele>1725.659668</ele>
        <time>2016-01-17T10:14:41.000Z</time>
      </trkpt>
      <trkpt lat="44.00879" lon="7.2366">
        <ele>1725.503906</ele>
        <time>2016-01-17T10:14:46.000Z</time>
      </trkpt>
      <trkpt lat="44.00871" lon="7.23654">
        <ele>1725.333374</ele>
        <time>2016-01-17T10:14:51.000Z</time>
      </trkpt>
      <trkpt lat="44.00863" lon="7.23649">
        <ele>1724.920044</ele>
        <time>2016-01-17T10:14:56.000Z</time>
      </trkpt>
      <trkpt lat="44.00855" lon="7.23644">
        <ele>1724.200195</ele>
        <time>2016-01-17T10:15:01.000Z</time>
      </trkpt>
      <trkpt lat="44.00848" lon="7.23641">
        <ele>1724.553589</ele>
        <time>2016-01-17T10:15:06.000Z</time>
      </trkpt>
      <trkpt lat="44.00842" lon="7.23636">
        <ele>1725.761353</ele>
        <time>2016-01-17T10:15:11.000Z</time>
      </trkpt>
      <trkpt lat="44.00839" lon="7.23633">
        <ele>1727.085327</ele>
        <time>2016-01-17T10:15:16.000Z</time>
      </trkpt>
      <trkpt lat="44.00839" lon="7.23632">
        <ele>1728.021118</ele>
        <time>2016-01-17T10:15:21.000Z</time>
      </trkpt>
      <trkpt lat="44.00839" lon="7.23631">
        <ele>1728.583496</ele>
        <time>2016-01-17T10:15:26.000Z</time>
      </trkpt>
      <trkpt lat="44.00839" lon="7.23631">
        <ele>1729.002686</ele>
        <time>2016-01-17T10:15:31.000Z</time>
      </trkpt>
      <trkpt lat="44.00839" lon="7.23631">
        <ele>1729.077881</ele>
        <time>2016-01-17T10:15:36.000Z</time>
      </trkpt>
      <trkpt lat="44.00839" lon="7.23631">
        <ele>1729.108276</ele>
        <time>2016-01-17T10:15:41.000Z</time>
      </trkpt>
      <trkpt lat="44.00839" lon="7.23631">
        <ele>1729.139893</ele>
        <time>2016-01-17T10:15:46.000Z</time>
      </trkpt>
      <trkpt lat="44.00837" lon="7.23631">
        <ele>1729.184082</ele>
        <time>2016-01-17T10:15:51.000Z</time>
      </trkpt>
      <trkpt lat="44.00833" lon="7.23631">
        <ele>1729.512695</ele>
        <time>2016-01-17T10:15:56.000Z</time>
      </trkpt>
      <trkpt lat="44.00822" lon="7.23632">
        <ele>1730.969727</ele>
        <time>2016-01-17T10:16:01.000Z</time>
      </trkpt>
      <trkpt lat="44.00807" lon="7.23638">
        <ele>1732.59436</ele>
        <time>2016-01-17T10:16:06.000Z</time>
      </trkpt>
      <trkpt lat="44.00789" lon="7.23645">
        <ele>1730.606934</ele>
        <time>2016-01-17T10:16:11.000Z</time>
      </trkpt>
      <trkpt lat="44.00775" lon="7.23648">
        <ele>1730.384644</ele>
        <time>2016-01-17T10:16:16.000Z</time>
      </trkpt>
      <trkpt lat="44.00761" lon="7.23649">
        <ele>1731.067993</ele>
        <time>2016-01-17T10:16:21.000Z</time>
      </trkpt>
      <trkpt lat="44.00749" lon="7.23649">
        <ele>1731.211304</ele>
        <time>2016-01-17T10:16:26.000Z</time>
      </trkpt>
      <trkpt lat="44.00737" lon="7.23647">
        <ele>1730.332642</ele>
        <time>2016-01-17T10:16:31.000Z</time>
      </trkpt>
      <trkpt lat="44.00725" lon="7.23647">
        <ele>1729.346069</ele>
        <time>2016-01-17T10:16:36.000Z</time>
      </trkpt>
      <trkpt lat="44.0071" lon="7.23644">
        <ele>1732.129272</ele>
        <time>2016-01-17T10:16:41.000Z</time>
      </trkpt>
      <trkpt lat="44.00698" lon="7.23644">
        <ele>1731.678101</ele>
        <time>2016-01-17T10:16:46.000Z</time>
      </trkpt>
      <trkpt lat="44.00684" lon="7.23645">
        <ele>1730.515015</ele>
        <time>2016-01-17T10:16:51.000Z</time>
      </trkpt>
      <trkpt lat="44.0067" lon="7.23642">
        <ele>1728.596924</ele>
        <time>2016-01-17T10:16:56.000Z</time>
      </trkpt>
      <trkpt lat="44.00659" lon="7.2364">
        <ele>1726.526611</ele>
        <time>2016-01-17T10:17:01.000Z</time>
      </trkpt>
      <trkpt lat="44.00646" lon="7.23638">
        <ele>1725.971924</ele>
        <time>2016-01-17T10:17:06.000Z</time>
      </trkpt>
      <trkpt lat="44.00636" lon="7.23633">
        <ele>1724.452148</ele>
        <time>2016-01-17T10:17:11.000Z</time>
      </trkpt>
      <trkpt lat="44.00622" lon="7.23627">
        <ele>1723.26709</ele>
        <time>2016-01-17T10:17:16.000Z</time>
      </trkpt>
      <trkpt lat="44.0061" lon="7.23624">
        <ele>1721.469604</ele>
        <time>2016-01-17T10:17:21.000Z</time>
      </trkpt>
      <trkpt lat="44.00601" lon="7.23622">
        <ele>1720.06897</ele>
        <time>2016-01-17T10:17:26.000Z</time>
      </trkpt>
      <trkpt lat="44.00599" lon="7.23622">
        <ele>1720.639771</ele>
        <time>2016-01-17T10:17:31.000Z</time>
      </trkpt>
      <trkpt lat="44.00599" lon="7.23622">
        <ele>1721.094727</ele>
        <time>2016-01-17T10:17:36.000Z</time>
      </trkpt>
      <trkpt lat="44.00599" lon="7.23623">
        <ele>1721.251709</ele>
        <time>2016-01-17T10:17:41.000Z</time>
      </trkpt>
      <trkpt lat="44.00591" lon="7.23621">
        <ele>1719.939453</ele>
        <time>2016-01-17T10:17:46.000Z</time>
      </trkpt>
      <trkpt lat="44.00578" lon="7.23619">
        <ele>1721.005249</ele>
        <time>2016-01-17T10:17:51.000Z</time>
      </trkpt>
      <trkpt lat="44.00564" lon="7.23615">
        <ele>1719.931763</ele>
        <time>2016-01-17T10:17:56.000Z</time>
      </trkpt>
      <trkpt lat="44.0055" lon="7.23606">
        <ele>1718.714233</ele>
        <time>2016-01-17T10:18:01.000Z</time>
      </trkpt>
      <trkpt lat="44.00539" lon="7.23593">
        <ele>1718.093628</ele>
        <time>2016-01-17T10:18:06.000Z</time>
      </trkpt>
      <trkpt lat="44.00529" lon="7.23579">
        <ele>1718.541504</ele>
        <time>2016-01-17T10:18:11.000Z</time>
      </trkpt>
      <trkpt lat="44.0052" lon="7.23566">
        <ele>1717.071655</ele>
        <time>2016-01-17T10:18:16.000Z</time>
      </trkpt>
      <trkpt lat="44.0051" lon="7.23555">
        <ele>1716.681274</ele>
        <time>2016-01-17T10:18:21.000Z</time>
      </trkpt>
      <trkpt lat="44.00502" lon="7.23544">
        <ele>1716.957764</ele>
        <time>2016-01-17T10:18:26.000Z</time>
      </trkpt>
      <trkpt lat="44.00491" lon="7.23536">
        <ele>1718.693237</ele>
        <time>2016-01-17T10:18:31.000Z</time>
      </trkpt>
      <trkpt lat="44.00481" lon="7.2353">
        <ele>1718.689331</ele>
        <time>2016-01-17T10:18:36.000Z</time>
      </trkpt>
      <trkpt lat="44.00471" lon="7.23524">
        <ele>1717.784302</ele>
        <time>2016-01-17T10:18:41.000Z</time>
      </trkpt>
      <trkpt lat="44.00459" lon="7.23522">
        <ele>1718.877563</ele>
        <time>2016-01-17T10:18:46.000Z</time>
      </trkpt>
      <trkpt lat="44.00447" lon="7.23516">
        <ele>1717.870239</ele>
        <time>2016-01-17T10:18:51.000Z</time>
      </trkpt>
      <trkpt lat="44.00432" lon="7.23512">
        <ele>1717.107056</ele>
        <time>2016-01-17T10:18:56.000Z</time>
      </trkpt>
      <trkpt lat="44.00419" lon="7.23508">
        <ele>1715.54187</ele>
        <time>2016-01-17T10:19:01.000Z</time>
      </trkpt>
      <trkpt lat="44.00405" lon="7.23508">
        <ele>1716.332886</ele>
        <time>2016-01-17T10:19:06.000Z</time>
      </trkpt>
      <trkpt lat="44.0039" lon="7.23506">
        <ele>1716.770264</ele>
        <time>2016-01-17T10:19:11.000Z</time>
      </trkpt>
      <trkpt lat="44.00374" lon="7.23504">
        <ele>1718.041504</ele>
        <time>2016-01-17T10:19:16.000Z</time>
      </trkpt>
      <trkpt lat="44.0036" lon="7.23503">
        <ele>1717.266602</ele>
        <time>2016-01-17T10:19:21.000Z</time>
      </trkpt>
      <trkpt lat="44.00347" lon="7.23505">
        <ele>1718.106201</ele>
        <time>2016-01-17T10:19:26.000Z</time>
      </trkpt>
      <trkpt lat="44.00332" lon="7.23505">
        <ele>1719.182861</ele>
        <time>2016-01-17T10:19:31.000Z</time>
      </trkpt>
      <trkpt lat="44.00317" lon="7.23504">
        <ele>1721.012573</ele>
        <time>2016-01-17T10:19:36.000Z</time>
      </trkpt>
      <trkpt lat="44.00303" lon="7.23502">
        <ele>1720.552002</ele>
        <time>2016-01-17T10:19:41.000Z</time>
      </trkpt>
      <trkpt lat="44.00289" lon="7.23504">
        <ele>1720.229492</ele>
        <time>2016-01-17T10:19:46.000Z</time>
      </trkpt>
      <trkpt lat="44.00278" lon="7.23507">
        <ele>1719.470947</ele>
        <time>2016-01-17T10:19:51.000Z</time>
      </trkpt>
      <trkpt lat="44.00265" lon="7.23511">
        <ele>1720.996216</ele>
        <time>2016-01-17T10:19:56.000Z</time>
      </trkpt>
      <trkpt lat="44.00255" lon="7.23513">
        <ele>1722.235352</ele>
        <time>2016-01-17T10:20:01.000Z</time>
      </trkpt>
      <trkpt lat="44.00244" lon="7.23517">
        <ele>1723.537231</ele>
        <time>2016-01-17T10:20:06.000Z</time>
      </trkpt>
      <trkpt lat="44.00231" lon="7.2352">
        <ele>1723.629395</ele>
        <time>2016-01-17T10:20:11.000Z</time>
      </trkpt>
      <trkpt lat="44.00221" lon="7.23524">
        <ele>1725.355591</ele>
        <time>2016-01-17T10:20:16.000Z</time>
      </trkpt>
      <trkpt lat="44.00211" lon="7.23526">
        <ele>1727.551147</ele>
        <time>2016-01-17T10:20:21.000Z</time>
      </trkpt>
      <trkpt lat="44.002" lon="7.23528">
        <ele>1726.641724</ele>
        <time>2016-01-17T10:20:26.000Z</time>
      </trkpt>
      <trkpt lat="44.00191" lon="7.23532">
        <ele>1725.729126</ele>
        <time>2016-01-17T10:20:31.000Z</time>
      </trkpt>
      <trkpt lat="44.00184" lon="7.23539">
        <ele>1725.222534</ele>
        <time>2016-01-17T10:20:36.000Z</time>
      </trkpt>
      <trkpt lat="44.00176" lon="7.23547">
        <ele>1725.848999</ele>
        <time>2016-01-17T10:20:41.000Z</time>
      </trkpt>
      <trkpt lat="44.00168" lon="7.23554">
        <ele>1726.346558</ele>
        <time>2016-01-17T10:20:46.000Z</time>
      </trkpt>
      <trkpt lat="44.00161" lon="7.2356">
        <ele>1726.65271</ele>
        <time>2016-01-17T10:20:51.000Z</time>
      </trkpt>
      <trkpt lat="44.00153" lon="7.23568">
        <ele>1727.444092</ele>
        <time>2016-01-17T10:20:56.000Z</time>
      </trkpt>
      <trkpt lat="44.00146" lon="7.23573">
        <ele>1729.230591</ele>
        <time>2016-01-17T10:21:01.000Z</time>
      </trkpt>
      <trkpt lat="44.00138" lon="7.23576">
        <ele>1732.085083</ele>
        <time>2016-01-17T10:21:06.000Z</time>
      </trkpt>
      <trkpt lat="44.00129" lon="7.23578">
        <ele>1733.113525</ele>
        <time>2016-01-17T10:21:11.000Z</time>
      </trkpt>
      <trkpt lat="44.00121" lon="7.23581">
        <ele>1734.818359</ele>
        <time>2016-01-17T10:21:16.000Z</time>
      </trkpt>
      <trkpt lat="44.00113" lon="7.23585">
        <ele>1735.204956</ele>
        <time>2016-01-17T10:21:21.000Z</time>
      </trkpt>
      <trkpt lat="44.00107" lon="7.23593">
        <ele>1736.416626</ele>
        <time>2016-01-17T10:21:26.000Z</time>
      </trkpt>
      <trkpt lat="44.001" lon="7.23602">
        <ele>1735.319824</ele>
        <time>2016-01-17T10:21:31.000Z</time>
      </trkpt>
      <trkpt lat="44.00097" lon="7.23613">
        <ele>1736.816162</ele>
        <time>2016-01-17T10:21:36.000Z</time>
      </trkpt>
      <trkpt lat="44.00093" lon="7.23622">
        <ele>1736.578369</ele>
        <time>2016-01-17T10:21:41.000Z</time>
      </trkpt>
      <trkpt lat="44.0009" lon="7.2363">
        <ele>1736.928223</ele>
        <time>2016-01-17T10:21:46.000Z</time>
      </trkpt>
      <trkpt lat="44.00084" lon="7.23638">
        <ele>1736.071777</ele>
        <time>2016-01-17T10:21:51.000Z</time>
      </trkpt>
      <trkpt lat="44.00079" lon="7.23644">
        <ele>1736.327393</ele>
        <time>2016-01-17T10:21:56.000Z</time>
      </trkpt>
      <trkpt lat="44.00073" lon="7.23648">
        <ele>1739.180054</ele>
        <time>2016-01-17T10:22:01.000Z</time>
      </trkpt>
      <trkpt lat="44.00067" lon="7.23653">
        <ele>1741.671631</ele>
        <time>2016-01-17T10:22:06.000Z</time>
      </trkpt>
      <trkpt lat="44.00062" lon="7.2366">
        <ele>1740.924072</ele>
        <time>2016-01-17T10:22:11.000Z</time>
      </trkpt>
      <trkpt lat="44.00059" lon="7.23669">
        <ele>1741.903931</ele>
        <time>2016-01-17T10:22:16.000Z</time>
      </trkpt>
      <trkpt lat="44.00053" lon="7.23677">
        <ele>1741.868774</ele>
        <time>2016-01-17T10:22:21.000Z</time>
      </trkpt>
      <trkpt lat="44.00042" lon="7.2368">
        <ele>1739.045532</ele>
        <time>2016-01-17T10:22:26.000Z</time>
      </trkpt>
      <trkpt lat="44.00035" lon="7.23679">
        <ele>1738.4729</ele>
        <time>2016-01-17T10:22:31.000Z</time>
      </trkpt>
      <trkpt lat="44.00028" lon="7.23671">
        <ele>1737.885132</ele>
        <time>2016-01-17T10:22:36.000Z</time>
      </trkpt>
      <trkpt lat="44.0002" lon="7.23664">
        <ele>1736.507446</ele>
        <time>2016-01-17T10:22:41.000Z</time>
      </trkpt>
      <trkpt lat="44.00013" lon="7.2366">
        <ele>1736.010254</ele>
        <time>2016-01-17T10:22:46.000Z</time>
      </trkpt>
      <trkpt lat="44.00006" lon="7.23658">
        <ele>1736.490601</ele>
        <time>2016-01-17T10:22:51.000Z</time>
      </trkpt>
      <trkpt lat="43.99998" lon="7.23653">
        <ele>1736.642456</ele>
        <time>2016-01-17T10:22:56.000Z</time>
      </trkpt>
      <trkpt lat="43.99991" lon="7.23647">
        <ele>1736.398193</ele>
        <time>2016-01-17T10:23:01.000Z</time>
      </trkpt>
      <trkpt lat="43.99983" lon="7.23642">
        <ele>1736.869873</ele>
        <time>2016-01-17T10:23:06.000Z</time>
      </trkpt>
      <trkpt lat="43.99975" lon="7.23639">
        <ele>1737.041138</ele>
        <time>2016-01-17T10:23:11.000Z</time>
      </trkpt>
      <trkpt lat="43.99966" lon="7.2364">
        <ele>1738.556885</ele>
        <time>2016-01-17T10:23:16.000Z</time>
      </trkpt>
      <trkpt lat="43.99957" lon="7.23639">
        <ele>1739.044312</ele>
        <time>2016-01-17T10:23:21.000Z</time>
      </trkpt>
      <trkpt lat="43.99948" lon="7.23636">
        <ele>1739.276001</ele>
        <time>2016-01-17T10:23:26.000Z</time>
      </trkpt>
      <trkpt lat="43.99939" lon="7.23631">
        <ele>1739.328613</ele>
        <time>2016-01-17T10:23:31.000Z</time>
      </trkpt>
      <trkpt lat="43.9993" lon="7.23625">
        <ele>1739.327148</ele>
        <time>2016-01-17T10:23:36.000Z</time>
      </trkpt>
      <trkpt lat="43.99921" lon="7.23618">
        <ele>1740.230103</ele>
        <time>2016-01-17T10:23:41.000Z</time>
      </trkpt>
      <trkpt lat="43.99911" lon="7.23614">
        <ele>1742.052979</ele>
        <time>2016-01-17T10:23:46.000Z</time>
      </trkpt>
      <trkpt lat="43.999" lon="7.23614">
        <ele>1742.537476</ele>
        <time>2016-01-17T10:23:51.000Z</time>
      </trkpt>
      <trkpt lat="43.99888" lon="7.2361">
        <ele>1742.424927</ele>
        <time>2016-01-17T10:23:56.000Z</time>
      </trkpt>
      <trkpt lat="43.99878" lon="7.23605">
        <ele>1741.451782</ele>
        <time>2016-01-17T10:24:01.000Z</time>
      </trkpt>
      <trkpt lat="43.99869" lon="7.236">
        <ele>1740.445679</ele>
        <time>2016-01-17T10:24:06.000Z</time>
      </trkpt>
      <trkpt lat="43.99862" lon="7.236">
        <ele>1739.814575</ele>
        <time>2016-01-17T10:24:11.000Z</time>
      </trkpt>
      <trkpt lat="43.99862" lon="7.23601">
        <ele>1739.005493</ele>
        <time>2016-01-17T10:24:16.000Z</time>
      </trkpt>
      <trkpt lat="43.99862" lon="7.23601">
        <ele>1738.995483</ele>
        <time>2016-01-17T10:24:21.000Z</time>
      </trkpt>
      <trkpt lat="43.99861" lon="7.23601">
        <ele>1738.702759</ele>
        <time>2016-01-17T10:24:26.000Z</time>
      </trkpt>
      <trkpt lat="43.99858" lon="7.23598">
        <ele>1737.236206</ele>
        <time>2016-01-17T10:24:31.000Z</time>
      </trkpt>
      <trkpt lat="43.99858" lon="7.23593">
        <ele>1736.166138</ele>
        <time>2016-01-17T10:24:36.000Z</time>
      </trkpt>
      <trkpt lat="43.99858" lon="7.23589">
        <ele>1735.450928</ele>
        <time>2016-01-17T10:24:41.000Z</time>
      </trkpt>
      <trkpt lat="43.99856" lon="7.23589">
        <ele>1734.854614</ele>
        <time>2016-01-17T10:24:46.000Z</time>
      </trkpt>
      <trkpt lat="43.99851" lon="7.23587">
        <ele>1734.09314</ele>
        <time>2016-01-17T10:24:51.000Z</time>
      </trkpt>
      <trkpt lat="43.99851" lon="7.23584">
        <ele>1734.035522</ele>
        <time>2016-01-17T10:24:56.000Z</time>
      </trkpt>
      <trkpt lat="43.99851" lon="7.23575">
        <ele>1732.411499</ele>
        <time>2016-01-17T10:25:01.000Z</time>
      </trkpt>
      <trkpt lat="43.99849" lon="7.23565">
        <ele>1730.280518</ele>
        <time>2016-01-17T10:25:06.000Z</time>
      </trkpt>
      <trkpt lat="43.99847" lon="7.23556">
        <ele>1729.062256</ele>
        <time>2016-01-17T10:25:11.000Z</time>
      </trkpt>
      <trkpt lat="43.99847" lon="7.23554">
        <ele>1728.540894</ele>
        <time>2016-01-17T10:25:16.000Z</time>
      </trkpt>
      <trkpt lat="43.99842" lon="7.23557">
        <ele>1727.0448</ele>
        <time>2016-01-17T10:25:21.000Z</time>
      </trkpt>
      <trkpt lat="43.99836" lon="7.23557">
        <ele>1725.856567</ele>
        <time>2016-01-17T10:25:26.000Z</time>
      </trkpt>
      <trkpt lat="43.99833" lon="7.23555">
        <ele>1724.966064</ele>
        <time>2016-01-17T10:25:31.000Z</time>
      </trkpt>
      <trkpt lat="43.99827" lon="7.23558">
        <ele>1724.517578</ele>
        <time>2016-01-17T10:25:36.000Z</time>
      </trkpt>
      <trkpt lat="43.99816" lon="7.23565">
        <ele>1723.835693</ele>
        <time>2016-01-17T10:25:41.000Z</time>
      </trkpt>
      <trkpt lat="43.99805" lon="7.2357">
        <ele>1723.379883</ele>
        <time>2016-01-17T10:25:46.000Z</time>
      </trkpt>
      <trkpt lat="43.99796" lon="7.23574">
        <ele>1723.214844</ele>
        <time>2016-01-17T10:25:51.000Z</time>
      </trkpt>
      <trkpt lat="43.99793" lon="7.23566">
        <ele>1720.704834</ele>
        <time>2016-01-17T10:25:56.000Z</time>
      </trkpt>
      <trkpt lat="43.99797" lon="7.23555">
        <ele>1719.734619</ele>
        <time>2016-01-17T10:26:01.000Z</time>
      </trkpt>
      <trkpt lat="43.99798" lon="7.23544">
        <ele>1717.524902</ele>
        <time>2016-01-17T10:26:06.000Z</time>
      </trkpt>
      <trkpt lat="43.99799" lon="7.2354">
        <ele>1716.666748</ele>
        <time>2016-01-17T10:26:11.000Z</time>
      </trkpt>
      <trkpt lat="43.99798" lon="7.23538">
        <ele>1716.695068</ele>
        <time>2016-01-17T10:26:16.000Z</time>
      </trkpt>
      <trkpt lat="43.99791" lon="7.23544">
        <ele>1715.686279</ele>
        <time>2016-01-17T10:26:21.000Z</time>
      </trkpt>
      <trkpt lat="43.99777" lon="7.23547">
        <ele>1713.797974</ele>
        <time>2016-01-17T10:26:26.000Z</time>
      </trkpt>
      <trkpt lat="43.99767" lon="7.23546">
        <ele>1712.332275</ele>
        <time>2016-01-17T10:26:31.000Z</time>
      </trkpt>
      <trkpt lat="43.99757" lon="7.23543">
        <ele>1710.213257</ele>
        <time>2016-01-17T10:26:36.000Z</time>
      </trkpt>
      <trkpt lat="43.99757" lon="7.2354">
        <ele>1707.115845</ele>
        <time>2016-01-17T10:26:41.000Z</time>
      </trkpt>
      <trkpt lat="43.99756" lon="7.23538">
        <ele>1706.315552</ele>
        <time>2016-01-17T10:26:46.000Z</time>
      </trkpt>
      <trkpt lat="43.99756" lon="7.23538">
        <ele>1705.308105</ele>
        <time>2016-01-17T10:26:51.000Z</time>
      </trkpt>
      <trkpt lat="43.99759" lon="7.23536">
        <ele>1704.499878</ele>
        <time>2016-01-17T10:26:56.000Z</time>
      </trkpt>
      <trkpt lat="43.99758" lon="7.23532">
        <ele>1703.19458</ele>
        <time>2016-01-17T10:27:01.000Z</time>
      </trkpt>
      <trkpt lat="43.99756" lon="7.23531">
        <ele>1701.817627</ele>
        <time>2016-01-17T10:27:06.000Z</time>
      </trkpt>
      <trkpt lat="43.99755" lon="7.23525">
        <ele>1700.071777</ele>
        <time>2016-01-17T10:27:11.000Z</time>
      </trkpt>
      <trkpt lat="43.99757" lon="7.23515">
        <ele>1698.488037</ele>
        <time>2016-01-17T10:27:16.000Z</time>
      </trkpt>
      <trkpt lat="43.99749" lon="7.23515">
        <ele>1696.860596</ele>
        <time>2016-01-17T10:27:21.000Z</time>
      </trkpt>
      <trkpt lat="43.99743" lon="7.23512">
        <ele>1695.02063</ele>
        <time>2016-01-17T10:27:26.000Z</time>
      </trkpt>
      <trkpt lat="43.99743" lon="7.23503">
        <ele>1693.265137</ele>
        <time>2016-01-17T10:27:31.000Z</time>
      </trkpt>
      <trkpt lat="43.99742" lon="7.23495">
        <ele>1692.063721</ele>
        <time>2016-01-17T10:27:36.000Z</time>
      </trkpt>
      <trkpt lat="43.99736" lon="7.23493">
        <ele>1690.791504</ele>
        <time>2016-01-17T10:27:41.000Z</time>
      </trkpt>
      <trkpt lat="43.99729" lon="7.23499">
        <ele>1689.804077</ele>
        <time>2016-01-17T10:27:46.000Z</time>
      </trkpt>
      <trkpt lat="43.99729" lon="7.23499">
        <ele>1689.191406</ele>
        <time>2016-01-17T10:27:51.000Z</time>
      </trkpt>
      <trkpt lat="43.99729" lon="7.23498">
        <ele>1689.138672</ele>
        <time>2016-01-17T10:27:56.000Z</time>
      </trkpt>
      <trkpt lat="43.99729" lon="7.23498">
        <ele>1689.080688</ele>
        <time>2016-01-17T10:28:01.000Z</time>
      </trkpt>
      <trkpt lat="43.99729" lon="7.23498">
        <ele>1689.111694</ele>
        <time>2016-01-17T10:28:06.000Z</time>
      </trkpt>
      <trkpt lat="43.99729" lon="7.23498">
        <ele>1689.121826</ele>
        <time>2016-01-17T10:28:11.000Z</time>
      </trkpt>
      <trkpt lat="43.99722" lon="7.23499">
        <ele>1688.052979</ele>
        <time>2016-01-17T10:28:16.000Z</time>
      </trkpt>
      <trkpt lat="43.99719" lon="7.2349">
        <ele>1686.012817</ele>
        <time>2016-01-17T10:28:21.000Z</time>
      </trkpt>
      <trkpt lat="43.99721" lon="7.23478">
        <ele>1683.460449</ele>
        <time>2016-01-17T10:28:26.000Z</time>
      </trkpt>
      <trkpt lat="43.99711" lon="7.23478">
        <ele>1681.073364</ele>
        <time>2016-01-17T10:28:31.000Z</time>
      </trkpt>
      <trkpt lat="43.99699" lon="7.23481">
        <ele>1678.577759</ele>
        <time>2016-01-17T10:28:36.000Z</time>
      </trkpt>
      <trkpt lat="43.99692" lon="7.23487">
        <ele>1677.866699</ele>
        <time>2016-01-17T10:28:41.000Z</time>
      </trkpt>
      <trkpt lat="43.99694" lon="7.2348">
        <ele>1676.62207</ele>
        <time>2016-01-17T10:28:46.000Z</time>
      </trkpt>
      <trkpt lat="43.99688" lon="7.23477">
        <ele>1674.65686</ele>
        <time>2016-01-17T10:28:51.000Z</time>
      </trkpt>
      <trkpt lat="43.9968" lon="7.23478">
        <ele>1672.127563</ele>
        <time>2016-01-17T10:28:56.000Z</time>
      </trkpt>
      <trkpt lat="43.99681" lon="7.23466">
        <ele>1669.933105</ele>
        <time>2016-01-17T10:29:01.000Z</time>
      </trkpt>
      <trkpt lat="43.99677" lon="7.23465">
        <ele>1668.737915</ele>
        <time>2016-01-17T10:29:06.000Z</time>
      </trkpt>
      <trkpt lat="43.99664" lon="7.23471">
        <ele>1666.875244</ele>
        <time>2016-01-17T10:29:11.000Z</time>
      </trkpt>
      <trkpt lat="43.99652" lon="7.23476">
        <ele>1665.819336</ele>
        <time>2016-01-17T10:29:16.000Z</time>
      </trkpt>
      <trkpt lat="43.99647" lon="7.23471">
        <ele>1662.30896</ele>
        <time>2016-01-17T10:29:21.000Z</time>
      </trkpt>
      <trkpt lat="43.99651" lon="7.23458">
        <ele>1660.324951</ele>
        <time>2016-01-17T10:29:26.000Z</time>
      </trkpt>
      <trkpt lat="43.99644" lon="7.23453">
        <ele>1658.811035</ele>
        <time>2016-01-17T10:29:31.000Z</time>
      </trkpt>
      <trkpt lat="43.99638" lon="7.23456">
        <ele>1656.691162</ele>
        <time>2016-01-17T10:29:36.000Z</time>
      </trkpt>
      <trkpt lat="43.99637" lon="7.23457">
        <ele>1656.25647</ele>
        <time>2016-01-17T10:29:41.000Z</time>
      </trkpt>
      <trkpt lat="43.99637" lon="7.23449">
        <ele>1655.629272</ele>
        <time>2016-01-17T10:29:46.000Z</time>
      </trkpt>
      <trkpt lat="43.99639" lon="7.23432">
        <ele>1653.439819</ele>
        <time>2016-01-17T10:29:51.000Z</time>
      </trkpt>
      <trkpt lat="43.99638" lon="7.23433">
        <ele>1652.988159</ele>
        <time>2016-01-17T10:29:56.000Z</time>
      </trkpt>
      <trkpt lat="43.99638" lon="7.23433">
        <ele>1652.887207</ele>
        <time>2016-01-17T10:30:01.000Z</time>
      </trkpt>
      <trkpt lat="43.99638" lon="7.23434">
        <ele>1652.928467</ele>
        <time>2016-01-17T10:30:06.000Z</time>
      </trkpt>
      <trkpt lat="43.99639" lon="7.23434">
        <ele>1652.90271</ele>
        <time>2016-01-17T10:30:11.000Z</time>
      </trkpt>
      <trkpt lat="43.99639" lon="7.23434">
        <ele>1652.8927</ele>
        <time>2016-01-17T10:30:16.000Z</time>
      </trkpt>
      <trkpt lat="43.99638" lon="7.23434">
        <ele>1652.836426</ele>
        <time>2016-01-17T10:30:21.000Z</time>
      </trkpt>
      <trkpt lat="43.99638" lon="7.23434">
        <ele>1652.838745</ele>
        <time>2016-01-17T10:30:26.000Z</time>
      </trkpt>
      <trkpt lat="43.99638" lon="7.23434">
        <ele>1652.841309</ele>
        <time>2016-01-17T10:30:31.000Z</time>
      </trkpt>
      <trkpt lat="43.99638" lon="7.23434">
        <ele>1652.8396</ele>
        <time>2016-01-17T10:30:36.000Z</time>
      </trkpt>
      <trkpt lat="43.99637" lon="7.2343">
        <ele>1652.069214</ele>
        <time>2016-01-17T10:30:41.000Z</time>
      </trkpt>
      <trkpt lat="43.99631" lon="7.23422">
        <ele>1650.557739</ele>
        <time>2016-01-17T10:30:46.000Z</time>
      </trkpt>
      <trkpt lat="43.99618" lon="7.23423">
        <ele>1649.375244</ele>
        <time>2016-01-17T10:30:51.000Z</time>
      </trkpt>
      <trkpt lat="43.99602" lon="7.23421">
        <ele>1644.457886</ele>
        <time>2016-01-17T10:30:56.000Z</time>
      </trkpt>
      <trkpt lat="43.99583" lon="7.23421">
        <ele>1639.803955</ele>
        <time>2016-01-17T10:31:01.000Z</time>
      </trkpt>
      <trkpt lat="43.99574" lon="7.23426">
        <ele>1638.075073</ele>
        <time>2016-01-17T10:31:06.000Z</time>
      </trkpt>
      <trkpt lat="43.99562" lon="7.23428">
        <ele>1635.695923</ele>
        <time>2016-01-17T10:31:11.000Z</time>
      </trkpt>
      <trkpt lat="43.99553" lon="7.2343">
        <ele>1633.685669</ele>
        <time>2016-01-17T10:31:16.000Z</time>
      </trkpt>
      <trkpt lat="43.99552" lon="7.23426">
        <ele>1632.809326</ele>
        <time>2016-01-17T10:31:21.000Z</time>
      </trkpt>
      <trkpt lat="43.99555" lon="7.23421">
        <ele>1631.728149</ele>
        <time>2016-01-17T10:31:26.000Z</time>
      </trkpt>
      <trkpt lat="43.99561" lon="7.23408">
        <ele>1631.529175</ele>
        <time>2016-01-17T10:31:31.000Z</time>
      </trkpt>
      <trkpt lat="43.9956" lon="7.23393">
        <ele>1630.517578</ele>
        <time>2016-01-17T10:31:36.000Z</time>
      </trkpt>
      <trkpt lat="43.99552" lon="7.23384">
        <ele>1629.512451</ele>
        <time>2016-01-17T10:31:41.000Z</time>
      </trkpt>
      <trkpt lat="43.99541" lon="7.23376">
        <ele>1628.845703</ele>
        <time>2016-01-17T10:31:46.000Z</time>
      </trkpt>
      <trkpt lat="43.9953" lon="7.23372">
        <ele>1629.039917</ele>
        <time>2016-01-17T10:31:51.000Z</time>
      </trkpt>
      <trkpt lat="43.99515" lon="7.23365">
        <ele>1627.752441</ele>
        <time>2016-01-17T10:31:56.000Z</time>
      </trkpt>
      <trkpt lat="43.99497" lon="7.23352">
        <ele>1626.860352</ele>
        <time>2016-01-17T10:32:01.000Z</time>
      </trkpt>
      <trkpt lat="43.99483" lon="7.23342">
        <ele>1625.898438</ele>
        <time>2016-01-17T10:32:06.000Z</time>
      </trkpt>
      <trkpt lat="43.99477" lon="7.2334">
        <ele>1625.272339</ele>
        <time>2016-01-17T10:32:11.000Z</time>
      </trkpt>
      <trkpt lat="43.9947" lon="7.23333">
        <ele>1622.450684</ele>
        <time>2016-01-17T10:32:16.000Z</time>
      </trkpt>
      <trkpt lat="43.99454" lon="7.23329">
        <ele>1621.90564</ele>
        <time>2016-01-17T10:32:21.000Z</time>
      </trkpt>
      <trkpt lat="43.99443" lon="7.23319">
        <ele>1617.380005</ele>
        <time>2016-01-17T10:32:26.000Z</time>
      </trkpt>
      <trkpt lat="43.99429" lon="7.23312">
        <ele>1614.876465</ele>
        <time>2016-01-17T10:32:31.000Z</time>
      </trkpt>
      <trkpt lat="43.99418" lon="7.23301">
        <ele>1613.389893</ele>
        <time>2016-01-17T10:32:36.000Z</time>
      </trkpt>
      <trkpt lat="43.9941" lon="7.2329">
        <ele>1608.714233</ele>
        <time>2016-01-17T10:32:41.000Z</time>
      </trkpt>
      <trkpt lat="43.994" lon="7.23287">
        <ele>1608.073853</ele>
        <time>2016-01-17T10:32:46.000Z</time>
      </trkpt>
      <trkpt lat="43.99398" lon="7.23283">
        <ele>1605.791504</ele>
        <time>2016-01-17T10:32:51.000Z</time>
      </trkpt>
      <trkpt lat="43.99396" lon="7.23281">
        <ele>1607.287598</ele>
        <time>2016-01-17T10:32:56.000Z</time>
      </trkpt>
      <trkpt lat="43.99391" lon="7.23277">
        <ele>1606.228516</ele>
        <time>2016-01-17T10:33:01.000Z</time>
      </trkpt>
      <trkpt lat="43.99386" lon="7.23273">
        <ele>1606.778931</ele>
        <time>2016-01-17T10:33:06.000Z</time>
      </trkpt>
      <trkpt lat="43.99382" lon="7.23274">
        <ele>1602.701538</ele>
        <time>2016-01-17T10:33:11.000Z</time>
      </trkpt>
      <trkpt lat="43.99375" lon="7.23269">
        <ele>1599.228516</ele>
        <time>2016-01-17T10:33:16.000Z</time>
      </trkpt>
      <trkpt lat="43.99364" lon="7.23263">
        <ele>1595.269775</ele>
        <time>2016-01-17T10:33:21.000Z</time>
      </trkpt>
      <trkpt lat="43.99357" lon="7.23253">
        <ele>1592.603149</ele>
        <time>2016-01-17T10:33:26.000Z</time>
      </trkpt>
      <trkpt lat="43.99349" lon="7.2324">
        <ele>1588.53772</ele>
        <time>2016-01-17T10:33:31.000Z</time>
      </trkpt>
      <trkpt lat="43.99344" lon="7.23234">
        <ele>1588.049683</ele>
        <time>2016-01-17T10:33:36.000Z</time>
      </trkpt>
      <trkpt lat="43.99343" lon="7.23235">
        <ele>1588.80896</ele>
        <time>2016-01-17T10:33:41.000Z</time>
      </trkpt>
      <trkpt lat="43.99338" lon="7.23227">
        <ele>1588.103638</ele>
        <time>2016-01-17T10:33:46.000Z</time>
      </trkpt>
      <trkpt lat="43.99329" lon="7.23216">
        <ele>1587.88269</ele>
        <time>2016-01-17T10:33:51.000Z</time>
      </trkpt>
      <trkpt lat="43.99324" lon="7.23212">
        <ele>1586.213867</ele>
        <time>2016-01-17T10:33:56.000Z</time>
      </trkpt>
      <trkpt lat="43.99316" lon="7.23208">
        <ele>1585.293335</ele>
        <time>2016-01-17T10:34:01.000Z</time>
      </trkpt>
      <trkpt lat="43.99306" lon="7.23202">
        <ele>1582.837891</ele>
        <time>2016-01-17T10:34:06.000Z</time>
      </trkpt>
      <trkpt lat="43.99296" lon="7.23196">
        <ele>1580.428833</ele>
        <time>2016-01-17T10:34:11.000Z</time>
      </trkpt>
      <trkpt lat="43.99283" lon="7.23194">
        <ele>1576.432617</ele>
        <time>2016-01-17T10:34:16.000Z</time>
      </trkpt>
      <trkpt lat="43.99273" lon="7.23193">
        <ele>1574.910645</ele>
        <time>2016-01-17T10:34:21.000Z</time>
      </trkpt>
      <trkpt lat="43.99269" lon="7.23191">
        <ele>1575.646606</ele>
        <time>2016-01-17T10:34:26.000Z</time>
      </trkpt>
      <trkpt lat="43.99266" lon="7.23192">
        <ele>1574.656616</ele>
        <time>2016-01-17T10:34:31.000Z</time>
      </trkpt>
      <trkpt lat="43.99264" lon="7.23195">
        <ele>1574.460449</ele>
        <time>2016-01-17T10:34:36.000Z</time>
      </trkpt>
      <trkpt lat="43.99258" lon="7.23194">
        <ele>1574.699341</ele>
        <time>2016-01-17T10:34:41.000Z</time>
      </trkpt>
      <trkpt lat="43.99248" lon="7.23191">
        <ele>1572.533691</ele>
        <time>2016-01-17T10:34:46.000Z</time>
      </trkpt>
      <trkpt lat="43.99235" lon="7.23188">
        <ele>1568.744385</ele>
        <time>2016-01-17T10:34:51.000Z</time>
      </trkpt>
      <trkpt lat="43.99224" lon="7.23182">
        <ele>1565.959961</ele>
        <time>2016-01-17T10:34:56.000Z</time>
      </trkpt>
      <trkpt lat="43.99223" lon="7.23183">
        <ele>1566.233643</ele>
        <time>2016-01-17T10:35:01.000Z</time>
      </trkpt>
      <trkpt lat="43.99223" lon="7.23182">
        <ele>1566.347656</ele>
        <time>2016-01-17T10:35:06.000Z</time>
      </trkpt>
      <trkpt lat="43.99223" lon="7.23183">
        <ele>1566.469604</ele>
        <time>2016-01-17T10:35:11.000Z</time>
      </trkpt>
      <trkpt lat="43.99223" lon="7.23183">
        <ele>1566.482666</ele>
        <time>2016-01-17T10:35:16.000Z</time>
      </trkpt>
      <trkpt lat="43.99223" lon="7.23183">
        <ele>1566.492065</ele>
        <time>2016-01-17T10:35:21.000Z</time>
      </trkpt>
      <trkpt lat="43.99223" lon="7.23183">
        <ele>1566.503418</ele>
        <time>2016-01-17T10:35:26.000Z</time>
      </trkpt>
      <trkpt lat="43.99223" lon="7.23183">
        <ele>1566.523193</ele>
        <time>2016-01-17T10:35:31.000Z</time>
      </trkpt>
      <trkpt lat="43.99223" lon="7.23183">
        <ele>1566.546143</ele>
        <time>2016-01-17T10:35:36.000Z</time>
      </trkpt>
      <trkpt lat="43.99223" lon="7.23183">
        <ele>1566.557129</ele>
        <time>2016-01-17T10:35:41.000Z</time>
      </trkpt>
      <trkpt lat="43.99211" lon="7.23174">
        <ele>1564.924072</ele>
        <time>2016-01-17T10:35:46.000Z</time>
      </trkpt>
      <trkpt lat="43.99211" lon="7.23166">
        <ele>1563.09668</ele>
        <time>2016-01-17T10:35:51.000Z</time>
      </trkpt>
      <trkpt lat="43.99211" lon="7.23166">
        <ele>1562.635498</ele>
        <time>2016-01-17T10:35:56.000Z</time>
      </trkpt>
      <trkpt lat="43.99203" lon="7.2316">
        <ele>1562.005371</ele>
        <time>2016-01-17T10:36:01.000Z</time>
      </trkpt>
      <trkpt lat="43.99198" lon="7.23156">
        <ele>1562.046875</ele>
        <time>2016-01-17T10:36:06.000Z</time>
      </trkpt>
      <trkpt lat="43.99196" lon="7.23157">
        <ele>1562.11438</ele>
        <time>2016-01-17T10:36:11.000Z</time>
      </trkpt>
      <trkpt lat="43.99192" lon="7.23158">
        <ele>1558.672241</ele>
        <time>2016-01-17T10:36:16.000Z</time>
      </trkpt>
      <trkpt lat="43.99191" lon="7.23159">
        <ele>1558.646729</ele>
        <time>2016-01-17T10:36:21.000Z</time>
      </trkpt>
      <trkpt lat="43.99189" lon="7.23159">
        <ele>1555.605957</ele>
        <time>2016-01-17T10:36:26.000Z</time>
      </trkpt>
      <trkpt lat="43.99188" lon="7.23164">
        <ele>1553.08667</ele>
        <time>2016-01-17T10:36:31.000Z</time>
      </trkpt>
      <trkpt lat="43.99186" lon="7.23163">
        <ele>1551.814453</ele>
        <time>2016-01-17T10:36:36.000Z</time>
      </trkpt>
      <trkpt lat="43.99185" lon="7.23163">
        <ele>1551.212891</ele>
        <time>2016-01-17T10:36:41.000Z</time>
      </trkpt>
      <trkpt lat="43.99182" lon="7.23163">
        <ele>1550.170654</ele>
        <time>2016-01-17T10:36:46.000Z</time>
      </trkpt>
      <trkpt lat="43.9917" lon="7.23165">
        <ele>1548.420654</ele>
        <time>2016-01-17T10:36:51.000Z</time>
      </trkpt>
      <trkpt lat="43.99158" lon="7.23168">
        <ele>1546.824097</ele>
        <time>2016-01-17T10:36:56.000Z</time>
      </trkpt>
      <trkpt lat="43.99138" lon="7.23172">
        <ele>1543.943481</ele>
        <time>2016-01-17T10:37:01.000Z</time>
      </trkpt>
      <trkpt lat="43.99122" lon="7.23171">
        <ele>1539.85498</ele>
        <time>2016-01-17T10:37:06.000Z</time>
      </trkpt>
      <trkpt lat="43.99105" lon="7.23176">
        <ele>1537.40564</ele>
        <time>2016-01-17T10:37:11.000Z</time>
      </trkpt>
      <trkpt lat="43.9909" lon="7.23183">
        <ele>1536.081665</ele>
        <time>2016-01-17T10:37:16.000Z</time>
      </trkpt>
      <trkpt lat="43.99077" lon="7.23185">
        <ele>1534.873657</ele>
        <time>2016-01-17T10:37:21.000Z</time>
      </trkpt>
      <trkpt lat="43.99067" lon="7.2319">
        <ele>1533.62915</ele>
        <time>2016-01-17T10:37:26.000Z</time>
      </trkpt>
      <trkpt lat="43.99054" lon="7.23193">
        <ele>1535.260376</ele>
        <time>2016-01-17T10:37:31.000Z</time>
      </trkpt>
      <trkpt lat="43.99046" lon="7.23185">
        <ele>1534.496216</ele>
        <time>2016-01-17T10:37:36.000Z</time>
      </trkpt>
      <trkpt lat="43.9904" lon="7.23176">
        <ele>1530.273071</ele>
        <time>2016-01-17T10:37:41.000Z</time>
      </trkpt>
      <trkpt lat="43.99035" lon="7.23171">
        <ele>1527.516357</ele>
        <time>2016-01-17T10:37:46.000Z</time>
      </trkpt>
      <trkpt lat="43.99041" lon="7.23162">
        <ele>1524.794312</ele>
        <time>2016-01-17T10:37:51.000Z</time>
      </trkpt>
      <trkpt lat="43.99036" lon="7.23155">
        <ele>1522.717773</ele>
        <time>2016-01-17T10:37:56.000Z</time>
      </trkpt>
      <trkpt lat="43.99031" lon="7.23161">
        <ele>1519.749634</ele>
        <time>2016-01-17T10:38:01.000Z</time>
      </trkpt>
      <trkpt lat="43.99023" lon="7.23163">
        <ele>1518.448486</ele>
        <time>2016-01-17T10:38:06.000Z</time>
      </trkpt>
      <trkpt lat="43.99024" lon="7.23159">
        <ele>1515.515381</ele>
        <time>2016-01-17T10:38:11.000Z</time>
      </trkpt>
      <trkpt lat="43.99023" lon="7.23155">
        <ele>1514.146729</ele>
        <time>2016-01-17T10:38:16.000Z</time>
      </trkpt>
      <trkpt lat="43.99017" lon="7.23153">
        <ele>1511.788452</ele>
        <time>2016-01-17T10:38:21.000Z</time>
      </trkpt>
      <trkpt lat="43.99013" lon="7.23147">
        <ele>1508.349854</ele>
        <time>2016-01-17T10:38:26.000Z</time>
      </trkpt>
      <trkpt lat="43.99019" lon="7.2314">
        <ele>1505.685913</ele>
        <time>2016-01-17T10:38:31.000Z</time>
      </trkpt>
      <trkpt lat="43.99017" lon="7.23139">
        <ele>1504.241211</ele>
        <time>2016-01-17T10:38:36.000Z</time>
      </trkpt>
      <trkpt lat="43.99011" lon="7.23138">
        <ele>1502.545044</ele>
        <time>2016-01-17T10:38:41.000Z</time>
      </trkpt>
      <trkpt lat="43.99002" lon="7.23133">
        <ele>1500.189941</ele>
        <time>2016-01-17T10:38:46.000Z</time>
      </trkpt>
      <trkpt lat="43.98989" lon="7.23125">
        <ele>1498.017334</ele>
        <time>2016-01-17T10:38:51.000Z</time>
      </trkpt>
      <trkpt lat="43.98971" lon="7.23123">
        <ele>1496.983032</ele>
        <time>2016-01-17T10:38:56.000Z</time>
      </trkpt>
      <trkpt lat="43.98964" lon="7.23136">
        <ele>1496.739746</ele>
        <time>2016-01-17T10:39:01.000Z</time>
      </trkpt>
      <trkpt lat="43.98964" lon="7.23137">
        <ele>1496.604614</ele>
        <time>2016-01-17T10:39:06.000Z</time>
      </trkpt>
      <trkpt lat="43.98962" lon="7.23139">
        <ele>1496.613525</ele>
        <time>2016-01-17T10:39:11.000Z</time>
      </trkpt>
      <trkpt lat="43.9896" lon="7.23139">
        <ele>1495.993164</ele>
        <time>2016-01-17T10:39:16.000Z</time>
      </trkpt>
      <trkpt lat="43.9896" lon="7.23136">
        <ele>1495.16626</ele>
        <time>2016-01-17T10:39:21.000Z</time>
      </trkpt>
      <trkpt lat="43.98959" lon="7.23135">
        <ele>1494.190918</ele>
        <time>2016-01-17T10:39:26.000Z</time>
      </trkpt>
      <trkpt lat="43.98949" lon="7.23145">
        <ele>1492.498169</ele>
        <time>2016-01-17T10:39:31.000Z</time>
      </trkpt>
      <trkpt lat="43.98942" lon="7.23151">
        <ele>1489.164917</ele>
        <time>2016-01-17T10:39:36.000Z</time>
      </trkpt>
      <trkpt lat="43.98935" lon="7.23149">
        <ele>1486.058716</ele>
        <time>2016-01-17T10:39:41.000Z</time>
      </trkpt>
      <trkpt lat="43.98917" lon="7.23157">
        <ele>1484.223511</ele>
        <time>2016-01-17T10:39:46.000Z</time>
      </trkpt>
      <trkpt lat="43.98895" lon="7.23156">
        <ele>1482.785645</ele>
        <time>2016-01-17T10:39:51.000Z</time>
      </trkpt>
      <trkpt lat="43.98883" lon="7.2315">
        <ele>1478.725708</ele>
        <time>2016-01-17T10:39:56.000Z</time>
      </trkpt>
      <trkpt lat="43.9887" lon="7.23152">
        <ele>1476.198608</ele>
        <time>2016-01-17T10:40:01.000Z</time>
      </trkpt>
      <trkpt lat="43.98865" lon="7.23156">
        <ele>1474.177246</ele>
        <time>2016-01-17T10:40:06.000Z</time>
      </trkpt>
      <trkpt lat="43.98866" lon="7.23156">
        <ele>1474.295288</ele>
        <time>2016-01-17T10:40:11.000Z</time>
      </trkpt>
      <trkpt lat="43.98863" lon="7.23157">
        <ele>1473.949951</ele>
        <time>2016-01-17T10:40:16.000Z</time>
      </trkpt>
      <trkpt lat="43.98853" lon="7.2316">
        <ele>1471.053711</ele>
        <time>2016-01-17T10:40:21.000Z</time>
      </trkpt>
      <trkpt lat="43.98845" lon="7.23162">
        <ele>1469.235107</ele>
        <time>2016-01-17T10:40:26.000Z</time>
      </trkpt>
      <trkpt lat="43.98848" lon="7.23156">
        <ele>1467.669434</ele>
        <time>2016-01-17T10:40:31.000Z</time>
      </trkpt>
      <trkpt lat="43.98842" lon="7.2315">
        <ele>1464.316406</ele>
        <time>2016-01-17T10:40:36.000Z</time>
      </trkpt>
      <trkpt lat="43.98832" lon="7.23151">
        <ele>1463.222534</ele>
        <time>2016-01-17T10:40:41.000Z</time>
      </trkpt>
      <trkpt lat="43.98825" lon="7.23161">
        <ele>1460.713745</ele>
        <time>2016-01-17T10:40:46.000Z</time>
      </trkpt>
      <trkpt lat="43.98821" lon="7.23164">
        <ele>1458.775635</ele>
        <time>2016-01-17T10:40:51.000Z</time>
      </trkpt>
      <trkpt lat="43.98813" lon="7.2317">
        <ele>1457.916382</ele>
        <time>2016-01-17T10:40:56.000Z</time>
      </trkpt>
      <trkpt lat="43.98813" lon="7.23162">
        <ele>1454.671387</ele>
        <time>2016-01-17T10:41:01.000Z</time>
      </trkpt>
      <trkpt lat="43.9881" lon="7.23159">
        <ele>1453.870483</ele>
        <time>2016-01-17T10:41:06.000Z</time>
      </trkpt>
      <trkpt lat="43.98811" lon="7.23159">
        <ele>1453.376953</ele>
        <time>2016-01-17T10:41:11.000Z</time>
      </trkpt>
      <trkpt lat="43.9881" lon="7.23157">
        <ele>1452.904541</ele>
        <time>2016-01-17T10:41:16.000Z</time>
      </trkpt>
      <trkpt lat="43.98806" lon="7.23156">
        <ele>1450.401123</ele>
        <time>2016-01-17T10:41:21.000Z</time>
      </trkpt>
      <trkpt lat="43.98801" lon="7.23156">
        <ele>1448.627319</ele>
        <time>2016-01-17T10:41:26.000Z</time>
      </trkpt>
      <trkpt lat="43.98798" lon="7.23156">
        <ele>1446.626587</ele>
        <time>2016-01-17T10:41:31.000Z</time>
      </trkpt>
      <trkpt lat="43.98794" lon="7.23155">
        <ele>1446.299683</ele>
        <time>2016-01-17T10:41:36.000Z</time>
      </trkpt>
      <trkpt lat="43.98797" lon="7.23151">
        <ele>1446.32959</ele>
        <time>2016-01-17T10:41:41.000Z</time>
      </trkpt>
      <trkpt lat="43.98798" lon="7.23145">
        <ele>1444.605713</ele>
        <time>2016-01-17T10:41:46.000Z</time>
      </trkpt>
      <trkpt lat="43.98797" lon="7.23143">
        <ele>1445.393066</ele>
        <time>2016-01-17T10:41:51.000Z</time>
      </trkpt>
      <trkpt lat="43.98794" lon="7.23145">
        <ele>1445.284424</ele>
        <time>2016-01-17T10:41:56.000Z</time>
      </trkpt>
      <trkpt lat="43.98794" lon="7.23141">
        <ele>1444.815063</ele>
        <time>2016-01-17T10:42:01.000Z</time>
      </trkpt>
      <trkpt lat="43.98793" lon="7.23137">
        <ele>1444.411621</ele>
        <time>2016-01-17T10:42:06.000Z</time>
      </trkpt>
      <trkpt lat="43.98793" lon="7.23135">
        <ele>1444.138794</ele>
        <time>2016-01-17T10:42:11.000Z</time>
      </trkpt>
      <trkpt lat="43.98794" lon="7.23132">
        <ele>1442.58374</ele>
        <time>2016-01-17T10:42:16.000Z</time>
      </trkpt>
      <trkpt lat="43.98795" lon="7.23128">
        <ele>1441.899902</ele>
        <time>2016-01-17T10:42:21.000Z</time>
      </trkpt>
      <trkpt lat="43.98785" lon="7.23132">
        <ele>1439.179932</ele>
        <time>2016-01-17T10:42:26.000Z</time>
      </trkpt>
      <trkpt lat="43.98784" lon="7.23137">
        <ele>1438.337891</ele>
        <time>2016-01-17T10:42:31.000Z</time>
      </trkpt>
      <trkpt lat="43.98779" lon="7.23141">
        <ele>1436.476929</ele>
        <time>2016-01-17T10:42:36.000Z</time>
      </trkpt>
      <trkpt lat="43.98775" lon="7.23142">
        <ele>1434.684814</ele>
        <time>2016-01-17T10:42:41.000Z</time>
      </trkpt>
      <trkpt lat="43.9877" lon="7.23141">
        <ele>1434.003052</ele>
        <time>2016-01-17T10:42:46.000Z</time>
      </trkpt>
      <trkpt lat="43.98759" lon="7.23148">
        <ele>1432.858887</ele>
        <time>2016-01-17T10:42:51.000Z</time>
      </trkpt>
      <trkpt lat="43.98745" lon="7.23157">
        <ele>1431.247192</ele>
        <time>2016-01-17T10:42:56.000Z</time>
      </trkpt>
      <trkpt lat="43.98731" lon="7.23167">
        <ele>1427.708008</ele>
        <time>2016-01-17T10:43:01.000Z</time>
      </trkpt>
      <trkpt lat="43.98717" lon="7.23177">
        <ele>1424.303833</ele>
        <time>2016-01-17T10:43:06.000Z</time>
      </trkpt>
      <trkpt lat="43.98706" lon="7.23186">
        <ele>1421.14209</ele>
        <time>2016-01-17T10:43:11.000Z</time>
      </trkpt>
      <trkpt lat="43.987" lon="7.23199">
        <ele>1418.419189</ele>
        <time>2016-01-17T10:43:16.000Z</time>
      </trkpt>
      <trkpt lat="43.98684" lon="7.23203">
        <ele>1415.966309</ele>
        <time>2016-01-17T10:43:21.000Z</time>
      </trkpt>
      <trkpt lat="43.98665" lon="7.23209">
        <ele>1415.792114</ele>
        <time>2016-01-17T10:43:26.000Z</time>
      </trkpt>
      <trkpt lat="43.98648" lon="7.23214">
        <ele>1414.910889</ele>
        <time>2016-01-17T10:43:31.000Z</time>
      </trkpt>
      <trkpt lat="43.98637" lon="7.23219">
        <ele>1414.08252</ele>
        <time>2016-01-17T10:43:36.000Z</time>
      </trkpt>
      <trkpt lat="43.98627" lon="7.23224">
        <ele>1412.237427</ele>
        <time>2016-01-17T10:43:41.000Z</time>
      </trkpt>
      <trkpt lat="43.98614" lon="7.23226">
        <ele>1411.532715</ele>
        <time>2016-01-17T10:43:46.000Z</time>
      </trkpt>
      <trkpt lat="43.98603" lon="7.23233">
        <ele>1410.285522</ele>
        <time>2016-01-17T10:43:51.000Z</time>
      </trkpt>
      <trkpt lat="43.98594" lon="7.23238">
        <ele>1408.461304</ele>
        <time>2016-01-17T10:43:56.000Z</time>
      </trkpt>
      <trkpt lat="43.98591" lon="7.2324">
        <ele>1407.717773</ele>
        <time>2016-01-17T10:44:01.000Z</time>
      </trkpt>
      <trkpt lat="43.98588" lon="7.23241">
        <ele>1406.737183</ele>
        <time>2016-01-17T10:44:06.000Z</time>
      </trkpt>
      <trkpt lat="43.98586" lon="7.23242">
        <ele>1406.73877</ele>
        <time>2016-01-17T10:44:11.000Z</time>
      </trkpt>
      <trkpt lat="43.98584" lon="7.23243">
        <ele>1406.436035</ele>
        <time>2016-01-17T10:44:16.000Z</time>
      </trkpt>
      <trkpt lat="43.98581" lon="7.23243">
        <ele>1406.095093</ele>
        <time>2016-01-17T10:44:21.000Z</time>
      </trkpt>
      <trkpt lat="43.98573" lon="7.23255">
        <ele>1404.722778</ele>
        <time>2016-01-17T10:44:26.000Z</time>
      </trkpt>
      <trkpt lat="43.98567" lon="7.23263">
        <ele>1405.653931</ele>
        <time>2016-01-17T10:44:31.000Z</time>
      </trkpt>
      <trkpt lat="43.9856" lon="7.23275">
        <ele>1406.831909</ele>
        <time>2016-01-17T10:44:36.000Z</time>
      </trkpt>
      <trkpt lat="43.98553" lon="7.23287">
        <ele>1409.106567</ele>
        <time>2016-01-17T10:44:41.000Z</time>
      </trkpt>
      <trkpt lat="43.98545" lon="7.233">
        <ele>1410.322266</ele>
        <time>2016-01-17T10:44:46.000Z</time>
      </trkpt>
      <trkpt lat="43.98536" lon="7.23317">
        <ele>1410.905884</ele>
        <time>2016-01-17T10:44:51.000Z</time>
      </trkpt>
      <trkpt lat="43.98531" lon="7.2333">
        <ele>1412.282349</ele>
        <time>2016-01-17T10:44:56.000Z</time>
      </trkpt>
      <trkpt lat="43.98518" lon="7.23342">
        <ele>1411.375</ele>
        <time>2016-01-17T10:45:01.000Z</time>
      </trkpt>
      <trkpt lat="43.98507" lon="7.23351">
        <ele>1413.60144</ele>
        <time>2016-01-17T10:45:06.000Z</time>
      </trkpt>
      <trkpt lat="43.98497" lon="7.23359">
        <ele>1413.407959</ele>
        <time>2016-01-17T10:45:11.000Z</time>
      </trkpt>
      <trkpt lat="43.98492" lon="7.23367">
        <ele>1414.049683</ele>
        <time>2016-01-17T10:45:16.000Z</time>
      </trkpt>
      <trkpt lat="43.9849" lon="7.23369">
        <ele>1415.130005</ele>
        <time>2016-01-17T10:45:21.000Z</time>
      </trkpt>
      <trkpt lat="43.98487" lon="7.23373">
        <ele>1416.267212</ele>
        <time>2016-01-17T10:45:26.000Z</time>
      </trkpt>
      <trkpt lat="43.98484" lon="7.23377">
        <ele>1418.685791</ele>
        <time>2016-01-17T10:45:31.000Z</time>
      </trkpt>
      <trkpt lat="43.98481" lon="7.23381">
        <ele>1420.266479</ele>
        <time>2016-01-17T10:45:36.000Z</time>
      </trkpt>
      <trkpt lat="43.98478" lon="7.23386">
        <ele>1420.993408</ele>
        <time>2016-01-17T10:45:41.000Z</time>
      </trkpt>
      <trkpt lat="43.98475" lon="7.23392">
        <ele>1422.376587</ele>
        <time>2016-01-17T10:45:46.000Z</time>
      </trkpt>
      <trkpt lat="43.98473" lon="7.23396">
        <ele>1423.448853</ele>
        <time>2016-01-17T10:45:51.000Z</time>
      </trkpt>
      <trkpt lat="43.98471" lon="7.234">
        <ele>1424.415283</ele>
        <time>2016-01-17T10:45:56.000Z</time>
      </trkpt>
      <trkpt lat="43.98468" lon="7.23403">
        <ele>1425.265381</ele>
        <time>2016-01-17T10:46:01.000Z</time>
      </trkpt>
      <trkpt lat="43.98465" lon="7.23406">
        <ele>1426.407104</ele>
        <time>2016-01-17T10:46:06.000Z</time>
      </trkpt>
      <trkpt lat="43.98462" lon="7.23409">
        <ele>1427.795532</ele>
        <time>2016-01-17T10:46:11.000Z</time>
      </trkpt>
      <trkpt lat="43.98458" lon="7.23412">
        <ele>1428.108765</ele>
        <time>2016-01-17T10:46:16.000Z</time>
      </trkpt>
      <trkpt lat="43.98456" lon="7.23415">
        <ele>1429.509521</ele>
        <time>2016-01-17T10:46:21.000Z</time>
      </trkpt>
      <trkpt lat="43.98454" lon="7.23417">
        <ele>1430.516113</ele>
        <time>2016-01-17T10:46:26.000Z</time>
      </trkpt>
      <trkpt lat="43.98454" lon="7.23423">
        <ele>1429.162964</ele>
        <time>2016-01-17T10:46:31.000Z</time>
      </trkpt>
      <trkpt lat="43.98453" lon="7.23429">
        <ele>1429.518555</ele>
        <time>2016-01-17T10:46:36.000Z</time>
      </trkpt>
      <trkpt lat="43.98451" lon="7.23434">
        <ele>1430.026611</ele>
        <time>2016-01-17T10:46:41.000Z</time>
      </trkpt>
      <trkpt lat="43.98449" lon="7.23439">
        <ele>1430.716797</ele>
        <time>2016-01-17T10:46:46.000Z</time>
      </trkpt>
      <trkpt lat="43.98447" lon="7.23446">
        <ele>1431.259155</ele>
        <time>2016-01-17T10:46:51.000Z</time>
      </trkpt>
      <trkpt lat="43.98444" lon="7.2345">
        <ele>1430.785645</ele>
        <time>2016-01-17T10:46:56.000Z</time>
      </trkpt>
      <trkpt lat="43.98442" lon="7.23457">
        <ele>1430.023193</ele>
        <time>2016-01-17T10:47:01.000Z</time>
      </trkpt>
      <trkpt lat="43.98441" lon="7.2346">
        <ele>1429.617188</ele>
        <time>2016-01-17T10:47:06.000Z</time>
      </trkpt>
      <trkpt lat="43.9844" lon="7.23463">
        <ele>1429.542603</ele>
        <time>2016-01-17T10:47:11.000Z</time>
      </trkpt>
      <trkpt lat="43.9844" lon="7.23464">
        <ele>1429.547485</ele>
        <time>2016-01-17T10:47:16.000Z</time>
      </trkpt>
      <trkpt lat="43.98436" lon="7.23472">
        <ele>1429.479492</ele>
        <time>2016-01-17T10:47:21.000Z</time>
      </trkpt>
      <trkpt lat="43.98428" lon="7.23479">
        <ele>1429.904297</ele>
        <time>2016-01-17T10:47:26.000Z</time>
      </trkpt>
      <trkpt lat="43.98419" lon="7.23483">
        <ele>1429.059692</ele>
        <time>2016-01-17T10:47:31.000Z</time>
      </trkpt>
      <trkpt lat="43.98408" lon="7.23487">
        <ele>1427.318481</ele>
        <time>2016-01-17T10:47:36.000Z</time>
      </trkpt>
      <trkpt lat="43.98396" lon="7.23493">
        <ele>1427.355347</ele>
        <time>2016-01-17T10:47:41.000Z</time>
      </trkpt>
      <trkpt lat="43.98387" lon="7.23499">
        <ele>1429.247559</ele>
        <time>2016-01-17T10:47:46.000Z</time>
      </trkpt>
      <trkpt lat="43.98377" lon="7.23508">
        <ele>1430.36438</ele>
        <time>2016-01-17T10:47:51.000Z</time>
      </trkpt>
      <trkpt lat="43.98367" lon="7.23517">
        <ele>1431.58728</ele>
        <time>2016-01-17T10:47:56.000Z</time>
      </trkpt>
      <trkpt lat="43.98355" lon="7.23525">
        <ele>1432.401123</ele>
        <time>2016-01-17T10:48:01.000Z</time>
      </trkpt>
      <trkpt lat="43.98346" lon="7.23533">
        <ele>1432.10376</ele>
        <time>2016-01-17T10:48:06.000Z</time>
      </trkpt>
      <trkpt lat="43.98336" lon="7.23542">
        <ele>1433.495361</ele>
        <time>2016-01-17T10:48:11.000Z</time>
      </trkpt>
      <trkpt lat="43.98326" lon="7.23543">
        <ele>1433.126953</ele>
        <time>2016-01-17T10:48:16.000Z</time>
      </trkpt>
      <trkpt lat="43.98321" lon="7.23547">
        <ele>1432.419556</ele>
        <time>2016-01-17T10:48:21.000Z</time>
      </trkpt>
      <trkpt lat="43.98311" lon="7.23553">
        <ele>1433.318726</ele>
        <time>2016-01-17T10:48:26.000Z</time>
      </trkpt>
      <trkpt lat="43.983" lon="7.23556">
        <ele>1433.442627</ele>
        <time>2016-01-17T10:48:31.000Z</time>
      </trkpt>
      <trkpt lat="43.98285" lon="7.23562">
        <ele>1435.022339</ele>
        <time>2016-01-17T10:48:36.000Z</time>
      </trkpt>
      <trkpt lat="43.98274" lon="7.23568">
        <ele>1436.30603</ele>
        <time>2016-01-17T10:48:41.000Z</time>
      </trkpt>
      <trkpt lat="43.98264" lon="7.23576">
        <ele>1436.859131</ele>
        <time>2016-01-17T10:48:46.000Z</time>
      </trkpt>
      <trkpt lat="43.98257" lon="7.23583">
        <ele>1438.484253</ele>
        <time>2016-01-17T10:48:51.000Z</time>
      </trkpt>
      <trkpt lat="43.98246" lon="7.23588">
        <ele>1439.917114</ele>
        <time>2016-01-17T10:48:56.000Z</time>
      </trkpt>
      <trkpt lat="43.98237" lon="7.23591">
        <ele>1441.629395</ele>
        <time>2016-01-17T10:49:01.000Z</time>
      </trkpt>
      <trkpt lat="43.98228" lon="7.23598">
        <ele>1444.138184</ele>
        <time>2016-01-17T10:49:06.000Z</time>
      </trkpt>
      <trkpt lat="43.98217" lon="7.23605">
        <ele>1443.229126</ele>
        <time>2016-01-17T10:49:11.000Z</time>
      </trkpt>
      <trkpt lat="43.98207" lon="7.23607">
        <ele>1443.566895</ele>
        <time>2016-01-17T10:49:16.000Z</time>
      </trkpt>
      <trkpt lat="43.98199" lon="7.23607">
        <ele>1445.003174</ele>
        <time>2016-01-17T10:49:21.000Z</time>
      </trkpt>
      <trkpt lat="43.98192" lon="7.23608">
        <ele>1445.727661</ele>
        <time>2016-01-17T10:49:26.000Z</time>
      </trkpt>
      <trkpt lat="43.98186" lon="7.23607">
        <ele>1446.657593</ele>
        <time>2016-01-17T10:49:31.000Z</time>
      </trkpt>
      <trkpt lat="43.98181" lon="7.23605">
        <ele>1446.189209</ele>
        <time>2016-01-17T10:49:36.000Z</time>
      </trkpt>
      <trkpt lat="43.98174" lon="7.23603">
        <ele>1448.393677</ele>
        <time>2016-01-17T10:49:41.000Z</time>
      </trkpt>
      <trkpt lat="43.9817" lon="7.23599">
        <ele>1444.578491</ele>
        <time>2016-01-17T10:49:46.000Z</time>
      </trkpt>
      <trkpt lat="43.98167" lon="7.23593">
        <ele>1441.837646</ele>
        <time>2016-01-17T10:49:51.000Z</time>
      </trkpt>
      <trkpt lat="43.98164" lon="7.23585">
        <ele>1439.040527</ele>
        <time>2016-01-17T10:49:56.000Z</time>
      </trkpt>
      <trkpt lat="43.98158" lon="7.23579">
        <ele>1438.287476</ele>
        <time>2016-01-17T10:50:01.000Z</time>
      </trkpt>
      <trkpt lat="43.98152" lon="7.23575">
        <ele>1438.68396</ele>
        <time>2016-01-17T10:50:06.000Z</time>
      </trkpt>
      <trkpt lat="43.98147" lon="7.23573">
        <ele>1438.046997</ele>
        <time>2016-01-17T10:50:11.000Z</time>
      </trkpt>
      <trkpt lat="43.9814" lon="7.2357">
        <ele>1437.956055</ele>
        <time>2016-01-17T10:50:16.000Z</time>
      </trkpt>
      <trkpt lat="43.98131" lon="7.23567">
        <ele>1438.421387</ele>
        <time>2016-01-17T10:50:21.000Z</time>
      </trkpt>
      <trkpt lat="43.98126" lon="7.23561">
        <ele>1438.88855</ele>
        <time>2016-01-17T10:50:26.000Z</time>
      </trkpt>
      <trkpt lat="43.98117" lon="7.23556">
        <ele>1438.645142</ele>
        <time>2016-01-17T10:50:31.000Z</time>
      </trkpt>
      <trkpt lat="43.9811" lon="7.23553">
        <ele>1438.925781</ele>
        <time>2016-01-17T10:50:36.000Z</time>
      </trkpt>
      <trkpt lat="43.98104" lon="7.2355">
        <ele>1438.711426</ele>
        <time>2016-01-17T10:50:41.000Z</time>
      </trkpt>
      <trkpt lat="43.98096" lon="7.23543">
        <ele>1435.137451</ele>
        <time>2016-01-17T10:50:46.000Z</time>
      </trkpt>
      <trkpt lat="43.98091" lon="7.23532">
        <ele>1432.675049</ele>
        <time>2016-01-17T10:50:51.000Z</time>
      </trkpt>
      <trkpt lat="43.98083" lon="7.23526">
        <ele>1432.292114</ele>
        <time>2016-01-17T10:50:56.000Z</time>
      </trkpt>
      <trkpt lat="43.98075" lon="7.23514">
        <ele>1430.964111</ele>
        <time>2016-01-17T10:51:01.000Z</time>
      </trkpt>
      <trkpt lat="43.98068" lon="7.23504">
        <ele>1430.974731</ele>
        <time>2016-01-17T10:51:06.000Z</time>
      </trkpt>
      <trkpt lat="43.98062" lon="7.23498">
        <ele>1430.347778</ele>
        <time>2016-01-17T10:51:11.000Z</time>
      </trkpt>
      <trkpt lat="43.98058" lon="7.23489">
        <ele>1428.619873</ele>
        <time>2016-01-17T10:51:16.000Z</time>
      </trkpt>
      <trkpt lat="43.98052" lon="7.23482">
        <ele>1427.232056</ele>
        <time>2016-01-17T10:51:21.000Z</time>
      </trkpt>
      <trkpt lat="43.98046" lon="7.23477">
        <ele>1425.647095</ele>
        <time>2016-01-17T10:51:26.000Z</time>
      </trkpt>
      <trkpt lat="43.98039" lon="7.23472">
        <ele>1424.244019</ele>
        <time>2016-01-17T10:51:31.000Z</time>
      </trkpt>
      <trkpt lat="43.98032" lon="7.23467">
        <ele>1424.454102</ele>
        <time>2016-01-17T10:51:36.000Z</time>
      </trkpt>
      <trkpt lat="43.98024" lon="7.23462">
        <ele>1425.293701</ele>
        <time>2016-01-17T10:51:41.000Z</time>
      </trkpt>
      <trkpt lat="43.9802" lon="7.23456">
        <ele>1425.147217</ele>
        <time>2016-01-17T10:51:46.000Z</time>
      </trkpt>
      <trkpt lat="43.98015" lon="7.2345">
        <ele>1424.120972</ele>
        <time>2016-01-17T10:51:51.000Z</time>
      </trkpt>
      <trkpt lat="43.9801" lon="7.23445">
        <ele>1422.195313</ele>
        <time>2016-01-17T10:51:56.000Z</time>
      </trkpt>
      <trkpt lat="43.98007" lon="7.23439">
        <ele>1419.843872</ele>
        <time>2016-01-17T10:52:01.000Z</time>
      </trkpt>
      <trkpt lat="43.98002" lon="7.23432">
        <ele>1419.67981</ele>
        <time>2016-01-17T10:52:06.000Z</time>
      </trkpt>
      <trkpt lat="43.97997" lon="7.23425">
        <ele>1418.995483</ele>
        <time>2016-01-17T10:52:11.000Z</time>
      </trkpt>
      <trkpt lat="43.97992" lon="7.23419">
        <ele>1417.734253</ele>
        <time>2016-01-17T10:52:16.000Z</time>
      </trkpt>
      <trkpt lat="43.97982" lon="7.23416">
        <ele>1421.776367</ele>
        <time>2016-01-17T10:52:21.000Z</time>
      </trkpt>
      <trkpt lat="43.97973" lon="7.23415">
        <ele>1421.57605</ele>
        <time>2016-01-17T10:52:26.000Z</time>
      </trkpt>
      <trkpt lat="43.97964" lon="7.23411">
        <ele>1422.347168</ele>
        <time>2016-01-17T10:52:31.000Z</time>
      </trkpt>
      <trkpt lat="43.97957" lon="7.23412">
        <ele>1421.137085</ele>
        <time>2016-01-17T10:52:36.000Z</time>
      </trkpt>
      <trkpt lat="43.97949" lon="7.2341">
        <ele>1422.785156</ele>
        <time>2016-01-17T10:52:41.000Z</time>
      </trkpt>
      <trkpt lat="43.97938" lon="7.23414">
        <ele>1425.223999</ele>
        <time>2016-01-17T10:52:46.000Z</time>
      </trkpt>
      <trkpt lat="43.97927" lon="7.2342">
        <ele>1427.662476</ele>
        <time>2016-01-17T10:52:51.000Z</time>
      </trkpt>
      <trkpt lat="43.97917" lon="7.23421">
        <ele>1429.406982</ele>
        <time>2016-01-17T10:52:56.000Z</time>
      </trkpt>
      <trkpt lat="43.9791" lon="7.23424">
        <ele>1430.046875</ele>
        <time>2016-01-17T10:53:01.000Z</time>
      </trkpt>
      <trkpt lat="43.979" lon="7.23431">
        <ele>1433.720703</ele>
        <time>2016-01-17T10:53:06.000Z</time>
      </trkpt>
      <trkpt lat="43.97892" lon="7.23437">
        <ele>1436.296509</ele>
        <time>2016-01-17T10:53:11.000Z</time>
      </trkpt>
      <trkpt lat="43.97885" lon="7.23444">
        <ele>1437.009155</ele>
        <time>2016-01-17T10:53:16.000Z</time>
      </trkpt>
      <trkpt lat="43.97877" lon="7.2345">
        <ele>1439.37854</ele>
        <time>2016-01-17T10:53:21.000Z</time>
      </trkpt>
      <trkpt lat="43.97871" lon="7.23453">
        <ele>1441.79834</ele>
        <time>2016-01-17T10:53:26.000Z</time>
      </trkpt>
      <trkpt lat="43.97865" lon="7.23457">
        <ele>1444.112915</ele>
        <time>2016-01-17T10:53:31.000Z</time>
      </trkpt>
      <trkpt lat="43.97858" lon="7.23461">
        <ele>1444.231689</ele>
        <time>2016-01-17T10:53:36.000Z</time>
      </trkpt>
      <trkpt lat="43.9785" lon="7.23467">
        <ele>1444.385376</ele>
        <time>2016-01-17T10:53:41.000Z</time>
      </trkpt>
      <trkpt lat="43.97839" lon="7.23475">
        <ele>1446.182007</ele>
        <time>2016-01-17T10:53:46.000Z</time>
      </trkpt>
      <trkpt lat="43.97828" lon="7.23481">
        <ele>1447.522583</ele>
        <time>2016-01-17T10:53:51.000Z</time>
      </trkpt>
      <trkpt lat="43.97814" lon="7.23486">
        <ele>1446.63208</ele>
        <time>2016-01-17T10:53:56.000Z</time>
      </trkpt>
      <trkpt lat="43.97806" lon="7.23489">
        <ele>1448.406616</ele>
        <time>2016-01-17T10:54:01.000Z</time>
      </trkpt>
      <trkpt lat="43.97806" lon="7.23491">
        <ele>1449.717163</ele>
        <time>2016-01-17T10:54:06.000Z</time>
      </trkpt>
      <trkpt lat="43.97806" lon="7.23491">
        <ele>1450.094727</ele>
        <time>2016-01-17T10:54:11.000Z</time>
      </trkpt>
      <trkpt lat="43.97806" lon="7.23491">
        <ele>1450.116211</ele>
        <time>2016-01-17T10:54:16.000Z</time>
      </trkpt>
      <trkpt lat="43.97806" lon="7.23491">
        <ele>1450.112061</ele>
        <time>2016-01-17T10:54:21.000Z</time>
      </trkpt>
      <trkpt lat="43.97807" lon="7.23491">
        <ele>1450.090698</ele>
        <time>2016-01-17T10:54:26.000Z</time>
      </trkpt>
      <trkpt lat="43.97807" lon="7.23491">
        <ele>1450.079102</ele>
        <time>2016-01-17T10:54:31.000Z</time>
      </trkpt>
      <trkpt lat="43.97807" lon="7.23491">
        <ele>1450.078003</ele>
        <time>2016-01-17T10:54:36.000Z</time>
      </trkpt>
      <trkpt lat="43.97807" lon="7.23491">
        <ele>1450.086914</ele>
        <time>2016-01-17T10:54:41.000Z</time>
      </trkpt>
      <trkpt lat="43.97807" lon="7.23491">
        <ele>1450.088745</ele>
        <time>2016-01-17T10:54:46.000Z</time>
      </trkpt>
      <trkpt lat="43.97807" lon="7.23491">
        <ele>1450.08313</ele>
        <time>2016-01-17T10:54:51.000Z</time>
      </trkpt>
      <trkpt lat="43.97807" lon="7.23491">
        <ele>1450.092407</ele>
        <time>2016-01-17T10:54:56.000Z</time>
      </trkpt>
      <trkpt lat="43.97807" lon="7.23491">
        <ele>1450.078979</ele>
        <time>2016-01-17T10:55:01.000Z</time>
      </trkpt>
      <trkpt lat="43.97807" lon="7.23491">
        <ele>1450.064209</ele>
        <time>2016-01-17T10:55:06.000Z</time>
      </trkpt>
      <trkpt lat="43.97807" lon="7.23491">
        <ele>1450.052246</ele>
        <time>2016-01-17T10:55:11.000Z</time>
      </trkpt>
      <trkpt lat="43.97807" lon="7.23491">
        <ele>1450.046387</ele>
        <time>2016-01-17T10:55:16.000Z</time>
      </trkpt>
      <trkpt lat="43.97807" lon="7.23491">
        <ele>1450.039185</ele>
        <time>2016-01-17T10:55:21.000Z</time>
      </trkpt>
      <trkpt lat="43.97807" lon="7.23491">
        <ele>1450.036255</ele>
        <time>2016-01-17T10:55:26.000Z</time>
      </trkpt>
      <trkpt lat="43.97807" lon="7.23491">
        <ele>1450.044556</ele>
        <time>2016-01-17T10:55:31.000Z</time>
      </trkpt>
      <trkpt lat="43.97801" lon="7.23495">
        <ele>1449.950562</ele>
        <time>2016-01-17T10:55:36.000Z</time>
      </trkpt>
      <trkpt lat="43.97791" lon="7.23501">
        <ele>1448.845703</ele>
        <time>2016-01-17T10:55:41.000Z</time>
      </trkpt>
      <trkpt lat="43.9778" lon="7.23508">
        <ele>1449.69873</ele>
        <time>2016-01-17T10:55:46.000Z</time>
      </trkpt>
      <trkpt lat="43.9777" lon="7.23516">
        <ele>1451.198608</ele>
        <time>2016-01-17T10:55:51.000Z</time>
      </trkpt>
      <trkpt lat="43.9776" lon="7.23525">
        <ele>1452.073242</ele>
        <time>2016-01-17T10:55:56.000Z</time>
      </trkpt>
      <trkpt lat="43.97751" lon="7.23535">
        <ele>1455.030151</ele>
        <time>2016-01-17T10:56:01.000Z</time>
      </trkpt>
      <trkpt lat="43.97747" lon="7.23546">
        <ele>1457.154297</ele>
        <time>2016-01-17T10:56:06.000Z</time>
      </trkpt>
      <trkpt lat="43.97744" lon="7.23555">
        <ele>1458.163574</ele>
        <time>2016-01-17T10:56:11.000Z</time>
      </trkpt>
      <trkpt lat="43.97741" lon="7.23564">
        <ele>1457.836182</ele>
        <time>2016-01-17T10:56:16.000Z</time>
      </trkpt>
      <trkpt lat="43.97738" lon="7.23571">
        <ele>1457.643066</ele>
        <time>2016-01-17T10:56:21.000Z</time>
      </trkpt>
      <trkpt lat="43.97736" lon="7.23579">
        <ele>1457.228027</ele>
        <time>2016-01-17T10:56:26.000Z</time>
      </trkpt>
      <trkpt lat="43.97735" lon="7.23587">
        <ele>1457.586426</ele>
        <time>2016-01-17T10:56:31.000Z</time>
      </trkpt>
      <trkpt lat="43.97731" lon="7.23596">
        <ele>1459.229004</ele>
        <time>2016-01-17T10:56:36.000Z</time>
      </trkpt>
      <trkpt lat="43.97727" lon="7.23602">
        <ele>1460.092041</ele>
        <time>2016-01-17T10:56:41.000Z</time>
      </trkpt>
      <trkpt lat="43.97725" lon="7.23609">
        <ele>1459.963379</ele>
        <time>2016-01-17T10:56:46.000Z</time>
      </trkpt>
      <trkpt lat="43.97723" lon="7.23615">
        <ele>1460.809326</ele>
        <time>2016-01-17T10:56:51.000Z</time>
      </trkpt>
      <trkpt lat="43.97722" lon="7.23617">
        <ele>1460.836548</ele>
        <time>2016-01-17T10:56:56.000Z</time>
      </trkpt>
      <trkpt lat="43.97721" lon="7.2362">
        <ele>1461.07959</ele>
        <time>2016-01-17T10:57:01.000Z</time>
      </trkpt>
      <trkpt lat="43.97719" lon="7.23623">
        <ele>1461.671631</ele>
        <time>2016-01-17T10:57:06.000Z</time>
      </trkpt>
      <trkpt lat="43.97717" lon="7.23627">
        <ele>1462.04187</ele>
        <time>2016-01-17T10:57:11.000Z</time>
      </trkpt>
      <trkpt lat="43.97715" lon="7.23629">
        <ele>1462.609131</ele>
        <time>2016-01-17T10:57:16.000Z</time>
      </trkpt>
      <trkpt lat="43.97712" lon="7.23634">
        <ele>1463.629517</ele>
        <time>2016-01-17T10:57:21.000Z</time>
      </trkpt>
      <trkpt lat="43.9771" lon="7.2364">
        <ele>1463.924194</ele>
        <time>2016-01-17T10:57:26.000Z</time>
      </trkpt>
      <trkpt lat="43.97708" lon="7.23646">
        <ele>1464.392334</ele>
        <time>2016-01-17T10:57:31.000Z</time>
      </trkpt>
      <trkpt lat="43.97704" lon="7.2365">
        <ele>1465.7052</ele>
        <time>2016-01-17T10:57:36.000Z</time>
      </trkpt>
      <trkpt lat="43.97702" lon="7.23654">
        <ele>1465.41687</ele>
        <time>2016-01-17T10:57:41.000Z</time>
      </trkpt>
      <trkpt lat="43.97701" lon="7.23656">
        <ele>1465.565796</ele>
        <time>2016-01-17T10:57:46.000Z</time>
      </trkpt>
      <trkpt lat="43.97699" lon="7.23659">
        <ele>1465.66626</ele>
        <time>2016-01-17T10:57:51.000Z</time>
      </trkpt>
      <trkpt lat="43.97694" lon="7.23666">
        <ele>1466.61084</ele>
        <time>2016-01-17T10:57:56.000Z</time>
      </trkpt>
      <trkpt lat="43.97688" lon="7.23673">
        <ele>1465.512695</ele>
        <time>2016-01-17T10:58:01.000Z</time>
      </trkpt>
      <trkpt lat="43.97681" lon="7.23678">
        <ele>1465.59314</ele>
        <time>2016-01-17T10:58:06.000Z</time>
      </trkpt>
      <trkpt lat="43.97675" lon="7.23681">
        <ele>1466.717407</ele>
        <time>2016-01-17T10:58:11.000Z</time>
      </trkpt>
      <trkpt lat="43.9767" lon="7.23683">
        <ele>1466.710571</ele>
        <time>2016-01-17T10:58:16.000Z</time>
      </trkpt>
      <trkpt lat="43.97662" lon="7.23683">
        <ele>1466.257568</ele>
        <time>2016-01-17T10:58:21.000Z</time>
      </trkpt>
      <trkpt lat="43.97655" lon="7.23681">
        <ele>1466.165039</ele>
        <time>2016-01-17T10:58:26.000Z</time>
      </trkpt>
      <trkpt lat="43.97648" lon="7.2368">
        <ele>1467.904419</ele>
        <time>2016-01-17T10:58:31.000Z</time>
      </trkpt>
      <trkpt lat="43.97639" lon="7.23675">
        <ele>1467.449463</ele>
        <time>2016-01-17T10:58:36.000Z</time>
      </trkpt>
      <trkpt lat="43.97632" lon="7.23669">
        <ele>1464.137085</ele>
        <time>2016-01-17T10:58:41.000Z</time>
      </trkpt>
      <trkpt lat="43.97624" lon="7.23662">
        <ele>1463.503296</ele>
        <time>2016-01-17T10:58:46.000Z</time>
      </trkpt>
      <trkpt lat="43.97616" lon="7.23659">
        <ele>1463.729248</ele>
        <time>2016-01-17T10:58:51.000Z</time>
      </trkpt>
      <trkpt lat="43.97603" lon="7.23656">
        <ele>1463.828613</ele>
        <time>2016-01-17T10:58:56.000Z</time>
      </trkpt>
      <trkpt lat="43.97594" lon="7.23658">
        <ele>1463.689575</ele>
        <time>2016-01-17T10:59:01.000Z</time>
      </trkpt>
      <trkpt lat="43.9758" lon="7.23667">
        <ele>1464.224121</ele>
        <time>2016-01-17T10:59:06.000Z</time>
      </trkpt>
      <trkpt lat="43.97567" lon="7.23673">
        <ele>1461.591919</ele>
        <time>2016-01-17T10:59:11.000Z</time>
      </trkpt>
      <trkpt lat="43.97556" lon="7.23672">
        <ele>1460.64502</ele>
        <time>2016-01-17T10:59:16.000Z</time>
      </trkpt>
      <trkpt lat="43.97544" lon="7.23671">
        <ele>1459.074585</ele>
        <time>2016-01-17T10:59:21.000Z</time>
      </trkpt>
      <trkpt lat="43.97527" lon="7.23677">
        <ele>1456.461426</ele>
        <time>2016-01-17T10:59:26.000Z</time>
      </trkpt>
      <trkpt lat="43.97516" lon="7.23681">
        <ele>1456.910889</ele>
        <time>2016-01-17T10:59:31.000Z</time>
      </trkpt>
      <trkpt lat="43.97506" lon="7.23685">
        <ele>1458.105591</ele>
        <time>2016-01-17T10:59:36.000Z</time>
      </trkpt>
      <trkpt lat="43.97495" lon="7.23691">
        <ele>1457.667847</ele>
        <time>2016-01-17T10:59:41.000Z</time>
      </trkpt>
      <trkpt lat="43.97483" lon="7.23692">
        <ele>1460.216187</ele>
        <time>2016-01-17T10:59:46.000Z</time>
      </trkpt>
      <trkpt lat="43.97472" lon="7.23697">
        <ele>1461.266479</ele>
        <time>2016-01-17T10:59:51.000Z</time>
      </trkpt>
      <trkpt lat="43.97461" lon="7.23701">
        <ele>1461.927368</ele>
        <time>2016-01-17T10:59:56.000Z</time>
      </trkpt>
      <trkpt lat="43.97449" lon="7.23706">
        <ele>1465.475098</ele>
        <time>2016-01-17T11:00:01.000Z</time>
      </trkpt>
      <trkpt lat="43.97439" lon="7.2371">
        <ele>1464.262939</ele>
        <time>2016-01-17T11:00:06.000Z</time>
      </trkpt>
      <trkpt lat="43.97428" lon="7.23715">
        <ele>1463.790771</ele>
        <time>2016-01-17T11:00:11.000Z</time>
      </trkpt>
      <trkpt lat="43.97419" lon="7.2372">
        <ele>1462.70459</ele>
        <time>2016-01-17T11:00:16.000Z</time>
      </trkpt>
      <trkpt lat="43.97409" lon="7.23722">
        <ele>1462.067749</ele>
        <time>2016-01-17T11:00:21.000Z</time>
      </trkpt>
      <trkpt lat="43.97398" lon="7.23723">
        <ele>1461.682617</ele>
        <time>2016-01-17T11:00:26.000Z</time>
      </trkpt>
      <trkpt lat="43.97382" lon="7.23724">
        <ele>1461.454102</ele>
        <time>2016-01-17T11:00:31.000Z</time>
      </trkpt>
      <trkpt lat="43.97374" lon="7.23723">
        <ele>1461.545166</ele>
        <time>2016-01-17T11:00:36.000Z</time>
      </trkpt>
      <trkpt lat="43.97369" lon="7.2372">
        <ele>1461.190918</ele>
        <time>2016-01-17T11:00:41.000Z</time>
      </trkpt>
      <trkpt lat="43.97365" lon="7.23724">
        <ele>1463.484497</ele>
        <time>2016-01-17T11:00:46.000Z</time>
      </trkpt>
      <trkpt lat="43.97363" lon="7.23726">
        <ele>1463.804688</ele>
        <time>2016-01-17T11:00:51.000Z</time>
      </trkpt>
      <trkpt lat="43.97359" lon="7.23729">
        <ele>1465.00415</ele>
        <time>2016-01-17T11:00:56.000Z</time>
      </trkpt>
      <trkpt lat="43.97358" lon="7.2373">
        <ele>1465.372803</ele>
        <time>2016-01-17T11:01:01.000Z</time>
      </trkpt>
      <trkpt lat="43.97353" lon="7.23734">
        <ele>1466.462646</ele>
        <time>2016-01-17T11:01:06.000Z</time>
      </trkpt>
      <trkpt lat="43.97348" lon="7.23741">
        <ele>1466.43811</ele>
        <time>2016-01-17T11:01:11.000Z</time>
      </trkpt>
      <trkpt lat="43.97342" lon="7.23745">
        <ele>1467.884521</ele>
        <time>2016-01-17T11:01:16.000Z</time>
      </trkpt>
      <trkpt lat="43.97335" lon="7.23746">
        <ele>1469.22583</ele>
        <time>2016-01-17T11:01:21.000Z</time>
      </trkpt>
      <trkpt lat="43.9733" lon="7.23747">
        <ele>1470.219116</ele>
        <time>2016-01-17T11:01:26.000Z</time>
      </trkpt>
      <trkpt lat="43.97324" lon="7.23753">
        <ele>1471.043823</ele>
        <time>2016-01-17T11:01:31.000Z</time>
      </trkpt>
      <trkpt lat="43.9732" lon="7.23758">
        <ele>1471.8927</ele>
        <time>2016-01-17T11:01:36.000Z</time>
      </trkpt>
      <trkpt lat="43.97319" lon="7.23758">
        <ele>1472.289063</ele>
        <time>2016-01-17T11:01:41.000Z</time>
      </trkpt>
      <trkpt lat="43.97319" lon="7.23758">
        <ele>1472.270386</ele>
        <time>2016-01-17T11:01:46.000Z</time>
      </trkpt>
      <trkpt lat="43.97319" lon="7.23758">
        <ele>1472.245483</ele>
        <time>2016-01-17T11:01:51.000Z</time>
      </trkpt>
      <trkpt lat="43.97319" lon="7.23758">
        <ele>1472.251587</ele>
        <time>2016-01-17T11:01:56.000Z</time>
      </trkpt>
      <trkpt lat="43.97319" lon="7.23758">
        <ele>1472.259766</ele>
        <time>2016-01-17T11:02:01.000Z</time>
      </trkpt>
      <trkpt lat="43.97319" lon="7.23758">
        <ele>1472.267822</ele>
        <time>2016-01-17T11:02:06.000Z</time>
      </trkpt>
      <trkpt lat="43.97319" lon="7.23758">
        <ele>1472.278442</ele>
        <time>2016-01-17T11:02:11.000Z</time>
      </trkpt>
      <trkpt lat="43.97319" lon="7.23758">
        <ele>1472.287354</ele>
        <time>2016-01-17T11:02:16.000Z</time>
      </trkpt>
      <trkpt lat="43.97319" lon="7.23758">
        <ele>1472.290405</ele>
        <time>2016-01-17T11:02:21.000Z</time>
      </trkpt>
      <trkpt lat="43.97319" lon="7.23758">
        <ele>1472.313843</ele>
        <time>2016-01-17T11:02:26.000Z</time>
      </trkpt>
      <trkpt lat="43.97319" lon="7.23758">
        <ele>1472.327759</ele>
        <time>2016-01-17T11:02:31.000Z</time>
      </trkpt>
      <trkpt lat="43.97319" lon="7.23758">
        <ele>1472.385864</ele>
        <time>2016-01-17T11:02:36.000Z</time>
      </trkpt>
      <trkpt lat="43.97314" lon="7.23759">
        <ele>1472.80896</ele>
        <time>2016-01-17T11:02:41.000Z</time>
      </trkpt>
      <trkpt lat="43.9731" lon="7.23766">
        <ele>1473.143799</ele>
        <time>2016-01-17T11:02:46.000Z</time>
      </trkpt>
      <trkpt lat="43.97308" lon="7.23769">
        <ele>1473.522827</ele>
        <time>2016-01-17T11:02:51.000Z</time>
      </trkpt>
      <trkpt lat="43.97308" lon="7.23777">
        <ele>1471.837769</ele>
        <time>2016-01-17T11:02:56.000Z</time>
      </trkpt>
      <trkpt lat="43.97306" lon="7.23797">
        <ele>1468.346069</ele>
        <time>2016-01-17T11:03:01.000Z</time>
      </trkpt>
      <trkpt lat="43.973" lon="7.23824">
        <ele>1465.859497</ele>
        <time>2016-01-17T11:03:06.000Z</time>
      </trkpt>
      <trkpt lat="43.97289" lon="7.23848">
        <ele>1466.233398</ele>
        <time>2016-01-17T11:03:11.000Z</time>
      </trkpt>
      <trkpt lat="43.97275" lon="7.23862">
        <ele>1464.054932</ele>
        <time>2016-01-17T11:03:16.000Z</time>
      </trkpt>
      <trkpt lat="43.97257" lon="7.23875">
        <ele>1462.429688</ele>
        <time>2016-01-17T11:03:21.000Z</time>
      </trkpt>
      <trkpt lat="43.97245" lon="7.23886">
        <ele>1462.171631</ele>
        <time>2016-01-17T11:03:26.000Z</time>
      </trkpt>
      <trkpt lat="43.97237" lon="7.23892">
        <ele>1463.768433</ele>
        <time>2016-01-17T11:03:31.000Z</time>
      </trkpt>
      <trkpt lat="43.97237" lon="7.23891">
        <ele>1464.389648</ele>
        <time>2016-01-17T11:03:36.000Z</time>
      </trkpt>
      <trkpt lat="43.97237" lon="7.23891">
        <ele>1464.713501</ele>
        <time>2016-01-17T11:03:41.000Z</time>
      </trkpt>
      <trkpt lat="43.97237" lon="7.23891">
        <ele>1464.905518</ele>
        <time>2016-01-17T11:03:46.000Z</time>
      </trkpt>
      <trkpt lat="43.97237" lon="7.23891">
        <ele>1465.065796</ele>
        <time>2016-01-17T11:03:51.000Z</time>
      </trkpt>
      <trkpt lat="43.97237" lon="7.23891">
        <ele>1465.077271</ele>
        <time>2016-01-17T11:03:56.000Z</time>
      </trkpt>
      <trkpt lat="43.97237" lon="7.23891">
        <ele>1465.101929</ele>
        <time>2016-01-17T11:04:01.000Z</time>
      </trkpt>
      <trkpt lat="43.97231" lon="7.23897">
        <ele>1463.670166</ele>
        <time>2016-01-17T11:04:06.000Z</time>
      </trkpt>
      <trkpt lat="43.97223" lon="7.23905">
        <ele>1463.283813</ele>
        <time>2016-01-17T11:04:11.000Z</time>
      </trkpt>
      <trkpt lat="43.97214" lon="7.23914">
        <ele>1462.950073</ele>
        <time>2016-01-17T11:04:16.000Z</time>
      </trkpt>
      <trkpt lat="43.97205" lon="7.23921">
        <ele>1463.919434</ele>
        <time>2016-01-17T11:04:21.000Z</time>
      </trkpt>
      <trkpt lat="43.97194" lon="7.23928">
        <ele>1464.811646</ele>
        <time>2016-01-17T11:04:26.000Z</time>
      </trkpt>
      <trkpt lat="43.97181" lon="7.23934">
        <ele>1465.66626</ele>
        <time>2016-01-17T11:04:31.000Z</time>
      </trkpt>
      <trkpt lat="43.97177" lon="7.23935">
        <ele>1464.959839</ele>
        <time>2016-01-17T11:04:36.000Z</time>
      </trkpt>
      <trkpt lat="43.97177" lon="7.23936">
        <ele>1464.374023</ele>
        <time>2016-01-17T11:04:41.000Z</time>
      </trkpt>
      <trkpt lat="43.97177" lon="7.23936">
        <ele>1463.85083</ele>
        <time>2016-01-17T11:04:46.000Z</time>
      </trkpt>
      <trkpt lat="43.97177" lon="7.23936">
        <ele>1463.338745</ele>
        <time>2016-01-17T11:04:51.000Z</time>
      </trkpt>
      <trkpt lat="43.97175" lon="7.23936">
        <ele>1462.555054</ele>
        <time>2016-01-17T11:04:56.000Z</time>
      </trkpt>
      <trkpt lat="43.97163" lon="7.2394">
        <ele>1460.428467</ele>
        <time>2016-01-17T11:05:01.000Z</time>
      </trkpt>
      <trkpt lat="43.97147" lon="7.23943">
        <ele>1459.484253</ele>
        <time>2016-01-17T11:05:06.000Z</time>
      </trkpt>
      <trkpt lat="43.97135" lon="7.23945">
        <ele>1459.841064</ele>
        <time>2016-01-17T11:05:11.000Z</time>
      </trkpt>
      <trkpt lat="43.97125" lon="7.23945">
        <ele>1461.030884</ele>
        <time>2016-01-17T11:05:16.000Z</time>
      </trkpt>
      <trkpt lat="43.97121" lon="7.23945">
        <ele>1461.451782</ele>
        <time>2016-01-17T11:05:21.000Z</time>
      </trkpt>
      <trkpt lat="43.97121" lon="7.23945">
        <ele>1461.541992</ele>
        <time>2016-01-17T11:05:26.000Z</time>
      </trkpt>
      <trkpt lat="43.97119" lon="7.23944">
        <ele>1460.824463</ele>
        <time>2016-01-17T11:05:31.000Z</time>
      </trkpt>
      <trkpt lat="43.97116" lon="7.23942">
        <ele>1459.070435</ele>
        <time>2016-01-17T11:05:36.000Z</time>
      </trkpt>
      <trkpt lat="43.97112" lon="7.23939">
        <ele>1458.099609</ele>
        <time>2016-01-17T11:05:41.000Z</time>
      </trkpt>
      <trkpt lat="43.97111" lon="7.23939">
        <ele>1457.399414</ele>
        <time>2016-01-17T11:05:46.000Z</time>
      </trkpt>
      <trkpt lat="43.97106" lon="7.23936">
        <ele>1455.585327</ele>
        <time>2016-01-17T11:05:51.000Z</time>
      </trkpt>
      <trkpt lat="43.97097" lon="7.23925">
        <ele>1452.688965</ele>
        <time>2016-01-17T11:05:56.000Z</time>
      </trkpt>
      <trkpt lat="43.97094" lon="7.23915">
        <ele>1452.159668</ele>
        <time>2016-01-17T11:06:01.000Z</time>
      </trkpt>
      <trkpt lat="43.9709" lon="7.23904">
        <ele>1451.378418</ele>
        <time>2016-01-17T11:06:06.000Z</time>
      </trkpt>
      <trkpt lat="43.97085" lon="7.23891">
        <ele>1451.216675</ele>
        <time>2016-01-17T11:06:11.000Z</time>
      </trkpt>
      <trkpt lat="43.97075" lon="7.23881">
        <ele>1450.583984</ele>
        <time>2016-01-17T11:06:16.000Z</time>
      </trkpt>
      <trkpt lat="43.97072" lon="7.23874">
        <ele>1451.896851</ele>
        <time>2016-01-17T11:06:21.000Z</time>
      </trkpt>
      <trkpt lat="43.97065" lon="7.23863">
        <ele>1451.307983</ele>
        <time>2016-01-17T11:06:26.000Z</time>
      </trkpt>
      <trkpt lat="43.9706" lon="7.2385">
        <ele>1451.88855</ele>
        <time>2016-01-17T11:06:31.000Z</time>
      </trkpt>
      <trkpt lat="43.97055" lon="7.23841">
        <ele>1452.903076</ele>
        <time>2016-01-17T11:06:36.000Z</time>
      </trkpt>
      <trkpt lat="43.97052" lon="7.23835">
        <ele>1454.096924</ele>
        <time>2016-01-17T11:06:41.000Z</time>
      </trkpt>
      <trkpt lat="43.97047" lon="7.23838">
        <ele>1454.876831</ele>
        <time>2016-01-17T11:06:46.000Z</time>
      </trkpt>
      <trkpt lat="43.97037" lon="7.2384">
        <ele>1454.745972</ele>
        <time>2016-01-17T11:06:51.000Z</time>
      </trkpt>
      <trkpt lat="43.97026" lon="7.23835">
        <ele>1455.750854</ele>
        <time>2016-01-17T11:06:56.000Z</time>
      </trkpt>
      <trkpt lat="43.97016" lon="7.2383">
        <ele>1456.169922</ele>
        <time>2016-01-17T11:07:01.000Z</time>
      </trkpt>
      <trkpt lat="43.97006" lon="7.23825">
        <ele>1457.516357</ele>
        <time>2016-01-17T11:07:06.000Z</time>
      </trkpt>
      <trkpt lat="43.97004" lon="7.23824">
        <ele>1459.123047</ele>
        <time>2016-01-17T11:07:11.000Z</time>
      </trkpt>
      <trkpt lat="43.97003" lon="7.23823">
        <ele>1459.812866</ele>
        <time>2016-01-17T11:07:16.000Z</time>
      </trkpt>
      <trkpt lat="43.97001" lon="7.23822">
        <ele>1460.285522</ele>
        <time>2016-01-17T11:07:21.000Z</time>
      </trkpt>
      <trkpt lat="43.97" lon="7.23822">
        <ele>1461.277344</ele>
        <time>2016-01-17T11:07:26.000Z</time>
      </trkpt>
      <trkpt lat="43.96997" lon="7.23819">
        <ele>1461.400146</ele>
        <time>2016-01-17T11:07:31.000Z</time>
      </trkpt>
      <trkpt lat="43.96991" lon="7.23811">
        <ele>1462.716553</ele>
        <time>2016-01-17T11:07:36.000Z</time>
      </trkpt>
      <trkpt lat="43.96986" lon="7.23803">
        <ele>1463.664063</ele>
        <time>2016-01-17T11:07:41.000Z</time>
      </trkpt>
      <trkpt lat="43.96984" lon="7.23802">
        <ele>1464.198486</ele>
        <time>2016-01-17T11:07:46.000Z</time>
      </trkpt>
      <trkpt lat="43.9698" lon="7.23796">
        <ele>1465.227783</ele>
        <time>2016-01-17T11:07:51.000Z</time>
      </trkpt>
      <trkpt lat="43.96975" lon="7.23791">
        <ele>1464.649902</ele>
        <time>2016-01-17T11:07:56.000Z</time>
      </trkpt>
      <trkpt lat="43.96973" lon="7.23786">
        <ele>1465.127441</ele>
        <time>2016-01-17T11:08:01.000Z</time>
      </trkpt>
      <trkpt lat="43.96971" lon="7.23784">
        <ele>1464.328613</ele>
        <time>2016-01-17T11:08:06.000Z</time>
      </trkpt>
      <trkpt lat="43.96961" lon="7.2378">
        <ele>1464.504028</ele>
        <time>2016-01-17T11:08:11.000Z</time>
      </trkpt>
      <trkpt lat="43.96955" lon="7.23776">
        <ele>1463.855103</ele>
        <time>2016-01-17T11:08:16.000Z</time>
      </trkpt>
      <trkpt lat="43.96948" lon="7.23771">
        <ele>1463.995972</ele>
        <time>2016-01-17T11:08:21.000Z</time>
      </trkpt>
      <trkpt lat="43.96942" lon="7.23764">
        <ele>1465.572266</ele>
        <time>2016-01-17T11:08:26.000Z</time>
      </trkpt>
      <trkpt lat="43.96934" lon="7.23759">
        <ele>1466.387085</ele>
        <time>2016-01-17T11:08:31.000Z</time>
      </trkpt>
      <trkpt lat="43.96933" lon="7.23758">
        <ele>1466.820068</ele>
        <time>2016-01-17T11:08:36.000Z</time>
      </trkpt>
      <trkpt lat="43.96933" lon="7.23757">
        <ele>1465.610474</ele>
        <time>2016-01-17T11:08:41.000Z</time>
      </trkpt>
      <trkpt lat="43.96932" lon="7.23758">
        <ele>1466.916138</ele>
        <time>2016-01-17T11:08:46.000Z</time>
      </trkpt>
      <trkpt lat="43.9693" lon="7.23756">
        <ele>1466.705566</ele>
        <time>2016-01-17T11:08:51.000Z</time>
      </trkpt>
      <trkpt lat="43.96928" lon="7.23756">
        <ele>1466.651733</ele>
        <time>2016-01-17T11:08:56.000Z</time>
      </trkpt>
      <trkpt lat="43.96928" lon="7.23755">
        <ele>1466.645142</ele>
        <time>2016-01-17T11:09:01.000Z</time>
      </trkpt>
      <trkpt lat="43.96928" lon="7.23755">
        <ele>1466.488037</ele>
        <time>2016-01-17T11:09:06.000Z</time>
      </trkpt>
      <trkpt lat="43.96927" lon="7.23755">
        <ele>1466.125366</ele>
        <time>2016-01-17T11:09:11.000Z</time>
      </trkpt>
      <trkpt lat="43.96928" lon="7.23755">
        <ele>1465.54187</ele>
        <time>2016-01-17T11:09:16.000Z</time>
      </trkpt>
      <trkpt lat="43.96928" lon="7.23754">
        <ele>1465.14209</ele>
        <time>2016-01-17T11:09:21.000Z</time>
      </trkpt>
      <trkpt lat="43.96928" lon="7.23754">
        <ele>1464.68335</ele>
        <time>2016-01-17T11:09:26.000Z</time>
      </trkpt>
      <trkpt lat="43.96928" lon="7.23753">
        <ele>1464.173706</ele>
        <time>2016-01-17T11:09:31.000Z</time>
      </trkpt>
      <trkpt lat="43.96929" lon="7.23753">
        <ele>1463.685303</ele>
        <time>2016-01-17T11:09:36.000Z</time>
      </trkpt>
      <trkpt lat="43.96929" lon="7.23753">
        <ele>1463.318481</ele>
        <time>2016-01-17T11:09:41.000Z</time>
      </trkpt>
      <trkpt lat="43.96929" lon="7.23752">
        <ele>1462.834961</ele>
        <time>2016-01-17T11:09:46.000Z</time>
      </trkpt>
      <trkpt lat="43.96929" lon="7.23752">
        <ele>1462.531128</ele>
        <time>2016-01-17T11:09:51.000Z</time>
      </trkpt>
      <trkpt lat="43.96929" lon="7.23752">
        <ele>1462.221191</ele>
        <time>2016-01-17T11:09:56.000Z</time>
      </trkpt>
      <trkpt lat="43.96929" lon="7.23752">
        <ele>1462.220703</ele>
        <time>2016-01-17T11:10:01.000Z</time>
      </trkpt>
      <trkpt lat="43.96929" lon="7.23752">
        <ele>1462.244141</ele>
        <time>2016-01-17T11:10:06.000Z</time>
      </trkpt>
      <trkpt lat="43.96929" lon="7.23752">
        <ele>1462.262817</ele>
        <time>2016-01-17T11:10:11.000Z</time>
      </trkpt>
      <trkpt lat="43.96929" lon="7.23752">
        <ele>1462.271118</ele>
        <time>2016-01-17T11:10:16.000Z</time>
      </trkpt>
      <trkpt lat="43.96931" lon="7.23753">
        <ele>1463.701416</ele>
        <time>2016-01-17T11:10:21.000Z</time>
      </trkpt>
      <trkpt lat="43.96926" lon="7.23752">
        <ele>1463.611572</ele>
        <time>2016-01-17T11:10:26.000Z</time>
      </trkpt>
      <trkpt lat="43.96927" lon="7.23752">
        <ele>1463.627563</ele>
        <time>2016-01-17T11:10:31.000Z</time>
      </trkpt>
      <trkpt lat="43.96928" lon="7.23752">
        <ele>1463.185303</ele>
        <time>2016-01-17T11:10:36.000Z</time>
      </trkpt>
      <trkpt lat="43.96927" lon="7.23752">
        <ele>1462.855469</ele>
        <time>2016-01-17T11:10:41.000Z</time>
      </trkpt>
      <trkpt lat="43.96912" lon="7.23753">
        <ele>1463.842651</ele>
        <time>2016-01-17T11:10:46.000Z</time>
      </trkpt>
      <trkpt lat="43.96902" lon="7.23753">
        <ele>1466.344849</ele>
        <time>2016-01-17T11:10:51.000Z</time>
      </trkpt>
      <trkpt lat="43.96894" lon="7.23753">
        <ele>1466.05835</ele>
        <time>2016-01-17T11:10:56.000Z</time>
      </trkpt>
      <trkpt lat="43.96886" lon="7.23752">
        <ele>1466.313477</ele>
        <time>2016-01-17T11:11:01.000Z</time>
      </trkpt>
      <trkpt lat="43.96876" lon="7.23754">
        <ele>1468.392456</ele>
        <time>2016-01-17T11:11:06.000Z</time>
      </trkpt>
      <trkpt lat="43.96869" lon="7.23754">
        <ele>1470.732544</ele>
        <time>2016-01-17T11:11:11.000Z</time>
      </trkpt>
      <trkpt lat="43.96862" lon="7.23752">
        <ele>1472.456421</ele>
        <time>2016-01-17T11:11:16.000Z</time>
      </trkpt>
      <trkpt lat="43.96856" lon="7.23752">
        <ele>1473.66333</ele>
        <time>2016-01-17T11:11:21.000Z</time>
      </trkpt>
      <trkpt lat="43.9685" lon="7.23751">
        <ele>1474.654785</ele>
        <time>2016-01-17T11:11:26.000Z</time>
      </trkpt>
      <trkpt lat="43.96844" lon="7.23752">
        <ele>1475.288696</ele>
        <time>2016-01-17T11:11:31.000Z</time>
      </trkpt>
      <trkpt lat="43.96838" lon="7.23751">
        <ele>1474.680542</ele>
        <time>2016-01-17T11:11:36.000Z</time>
      </trkpt>
      <trkpt lat="43.96833" lon="7.23752">
        <ele>1473.628052</ele>
        <time>2016-01-17T11:11:41.000Z</time>
      </trkpt>
      <trkpt lat="43.96827" lon="7.23752">
        <ele>1474.195557</ele>
        <time>2016-01-17T11:11:46.000Z</time>
      </trkpt>
      <trkpt lat="43.9682" lon="7.23753">
        <ele>1476.248169</ele>
        <time>2016-01-17T11:11:51.000Z</time>
      </trkpt>
      <trkpt lat="43.96813" lon="7.23754">
        <ele>1477.664063</ele>
        <time>2016-01-17T11:11:56.000Z</time>
      </trkpt>
      <trkpt lat="43.96807" lon="7.23755">
        <ele>1477.249512</ele>
        <time>2016-01-17T11:12:01.000Z</time>
      </trkpt>
      <trkpt lat="43.96801" lon="7.23757">
        <ele>1477.80249</ele>
        <time>2016-01-17T11:12:06.000Z</time>
      </trkpt>
      <trkpt lat="43.96795" lon="7.23758">
        <ele>1479.096313</ele>
        <time>2016-01-17T11:12:11.000Z</time>
      </trkpt>
      <trkpt lat="43.96789" lon="7.23759">
        <ele>1478.602539</ele>
        <time>2016-01-17T11:12:16.000Z</time>
      </trkpt>
      <trkpt lat="43.96781" lon="7.2376">
        <ele>1479.592896</ele>
        <time>2016-01-17T11:12:21.000Z</time>
      </trkpt>
      <trkpt lat="43.96772" lon="7.23761">
        <ele>1481.602783</ele>
        <time>2016-01-17T11:12:26.000Z</time>
      </trkpt>
      <trkpt lat="43.96764" lon="7.23764">
        <ele>1482.243774</ele>
        <time>2016-01-17T11:12:31.000Z</time>
      </trkpt>
      <trkpt lat="43.96755" lon="7.23767">
        <ele>1483.827881</ele>
        <time>2016-01-17T11:12:36.000Z</time>
      </trkpt>
      <trkpt lat="43.96742" lon="7.23769">
        <ele>1484.427856</ele>
        <time>2016-01-17T11:12:41.000Z</time>
      </trkpt>
      <trkpt lat="43.96732" lon="7.23772">
        <ele>1485.238403</ele>
        <time>2016-01-17T11:12:46.000Z</time>
      </trkpt>
      <trkpt lat="43.96721" lon="7.23775">
        <ele>1485.966797</ele>
        <time>2016-01-17T11:12:51.000Z</time>
      </trkpt>
      <trkpt lat="43.96709" lon="7.23779">
        <ele>1484.501221</ele>
        <time>2016-01-17T11:12:56.000Z</time>
      </trkpt>
      <trkpt lat="43.96695" lon="7.23777">
        <ele>1485.133057</ele>
        <time>2016-01-17T11:13:01.000Z</time>
      </trkpt>
      <trkpt lat="43.96679" lon="7.2377">
        <ele>1476.696167</ele>
        <time>2016-01-17T11:13:06.000Z</time>
      </trkpt>
      <trkpt lat="43.96667" lon="7.2377">
        <ele>1468.483276</ele>
        <time>2016-01-17T11:13:11.000Z</time>
      </trkpt>
      <trkpt lat="43.96662" lon="7.23775">
        <ele>1464.670654</ele>
        <time>2016-01-17T11:13:16.000Z</time>
      </trkpt>
      <trkpt lat="43.96653" lon="7.23777">
        <ele>1461.703857</ele>
        <time>2016-01-17T11:13:21.000Z</time>
      </trkpt>
      <trkpt lat="43.96645" lon="7.23779">
        <ele>1461.481812</ele>
        <time>2016-01-17T11:13:26.000Z</time>
      </trkpt>
      <trkpt lat="43.96636" lon="7.23779">
        <ele>1463.019653</ele>
        <time>2016-01-17T11:13:31.000Z</time>
      </trkpt>
      <trkpt lat="43.96628" lon="7.23779">
        <ele>1464.592407</ele>
        <time>2016-01-17T11:13:36.000Z</time>
      </trkpt>
      <trkpt lat="43.96618" lon="7.2378">
        <ele>1463.730957</ele>
        <time>2016-01-17T11:13:41.000Z</time>
      </trkpt>
      <trkpt lat="43.96609" lon="7.23783">
        <ele>1463.35791</ele>
        <time>2016-01-17T11:13:46.000Z</time>
      </trkpt>
      <trkpt lat="43.96601" lon="7.23783">
        <ele>1465.266113</ele>
        <time>2016-01-17T11:13:51.000Z</time>
      </trkpt>
      <trkpt lat="43.96592" lon="7.23783">
        <ele>1465.562378</ele>
        <time>2016-01-17T11:13:56.000Z</time>
      </trkpt>
      <trkpt lat="43.96586" lon="7.23784">
        <ele>1465.167603</ele>
        <time>2016-01-17T11:14:01.000Z</time>
      </trkpt>
      <trkpt lat="43.9658" lon="7.23786">
        <ele>1465.283691</ele>
        <time>2016-01-17T11:14:06.000Z</time>
      </trkpt>
      <trkpt lat="43.96574" lon="7.23787">
        <ele>1465.504272</ele>
        <time>2016-01-17T11:14:11.000Z</time>
      </trkpt>
      <trkpt lat="43.96568" lon="7.23789">
        <ele>1465.427124</ele>
        <time>2016-01-17T11:14:16.000Z</time>
      </trkpt>
      <trkpt lat="43.96561" lon="7.23789">
        <ele>1465.511719</ele>
        <time>2016-01-17T11:14:21.000Z</time>
      </trkpt>
      <trkpt lat="43.96552" lon="7.23794">
        <ele>1465.620605</ele>
        <time>2016-01-17T11:14:26.000Z</time>
      </trkpt>
      <trkpt lat="43.96545" lon="7.23798">
        <ele>1466.423218</ele>
        <time>2016-01-17T11:14:31.000Z</time>
      </trkpt>
      <trkpt lat="43.96539" lon="7.238">
        <ele>1466.522827</ele>
        <time>2016-01-17T11:14:36.000Z</time>
      </trkpt>
      <trkpt lat="43.96531" lon="7.23802">
        <ele>1465.94104</ele>
        <time>2016-01-17T11:14:41.000Z</time>
      </trkpt>
      <trkpt lat="43.96524" lon="7.23803">
        <ele>1466.570801</ele>
        <time>2016-01-17T11:14:46.000Z</time>
      </trkpt>
      <trkpt lat="43.96518" lon="7.23809">
        <ele>1467.298218</ele>
        <time>2016-01-17T11:14:51.000Z</time>
      </trkpt>
      <trkpt lat="43.96517" lon="7.2381">
        <ele>1467.371216</ele>
        <time>2016-01-17T11:14:56.000Z</time>
      </trkpt>
      <trkpt lat="43.96514" lon="7.23811">
        <ele>1467.840576</ele>
        <time>2016-01-17T11:15:01.000Z</time>
      </trkpt>
      <trkpt lat="43.96508" lon="7.23816">
        <ele>1468.780151</ele>
        <time>2016-01-17T11:15:06.000Z</time>
      </trkpt>
      <trkpt lat="43.96502" lon="7.2382">
        <ele>1469.758179</ele>
        <time>2016-01-17T11:15:11.000Z</time>
      </trkpt>
      <trkpt lat="43.96497" lon="7.23825">
        <ele>1470.162354</ele>
        <time>2016-01-17T11:15:16.000Z</time>
      </trkpt>
      <trkpt lat="43.96491" lon="7.23829">
        <ele>1470.216675</ele>
        <time>2016-01-17T11:15:21.000Z</time>
      </trkpt>
      <trkpt lat="43.96484" lon="7.23834">
        <ele>1469.750244</ele>
        <time>2016-01-17T11:15:26.000Z</time>
      </trkpt>
      <trkpt lat="43.96479" lon="7.23842">
        <ele>1470.013184</ele>
        <time>2016-01-17T11:15:31.000Z</time>
      </trkpt>
      <trkpt lat="43.96467" lon="7.23854">
        <ele>1468.770142</ele>
        <time>2016-01-17T11:15:36.000Z</time>
      </trkpt>
      <trkpt lat="43.96453" lon="7.23864">
        <ele>1468.345825</ele>
        <time>2016-01-17T11:15:41.000Z</time>
      </trkpt>
      <trkpt lat="43.96441" lon="7.23872">
        <ele>1466.799683</ele>
        <time>2016-01-17T11:15:46.000Z</time>
      </trkpt>
      <trkpt lat="43.96426" lon="7.2388">
        <ele>1463.654541</ele>
        <time>2016-01-17T11:15:51.000Z</time>
      </trkpt>
      <trkpt lat="43.96408" lon="7.23888">
        <ele>1462.383545</ele>
        <time>2016-01-17T11:15:56.000Z</time>
      </trkpt>
      <trkpt lat="43.96391" lon="7.23898">
        <ele>1460.163208</ele>
        <time>2016-01-17T11:16:01.000Z</time>
      </trkpt>
      <trkpt lat="43.96371" lon="7.23909">
        <ele>1459.129028</ele>
        <time>2016-01-17T11:16:06.000Z</time>
      </trkpt>
      <trkpt lat="43.96351" lon="7.2392">
        <ele>1458.968262</ele>
        <time>2016-01-17T11:16:11.000Z</time>
      </trkpt>
      <trkpt lat="43.9634" lon="7.23924">
        <ele>1458.713501</ele>
        <time>2016-01-17T11:16:16.000Z</time>
      </trkpt>
      <trkpt lat="43.96327" lon="7.23931">
        <ele>1457.864136</ele>
        <time>2016-01-17T11:16:21.000Z</time>
      </trkpt>
      <trkpt lat="43.96314" lon="7.23939">
        <ele>1458.182373</ele>
        <time>2016-01-17T11:16:26.000Z</time>
      </trkpt>
      <trkpt lat="43.96302" lon="7.23947">
        <ele>1460.441895</ele>
        <time>2016-01-17T11:16:31.000Z</time>
      </trkpt>
      <trkpt lat="43.96289" lon="7.23961">
        <ele>1459.074707</ele>
        <time>2016-01-17T11:16:36.000Z</time>
      </trkpt>
      <trkpt lat="43.96274" lon="7.23976">
        <ele>1459.303955</ele>
        <time>2016-01-17T11:16:41.000Z</time>
      </trkpt>
      <trkpt lat="43.96263" lon="7.23984">
        <ele>1459.613403</ele>
        <time>2016-01-17T11:16:46.000Z</time>
      </trkpt>
      <trkpt lat="43.96252" lon="7.23995">
        <ele>1459.485718</ele>
        <time>2016-01-17T11:16:51.000Z</time>
      </trkpt>
      <trkpt lat="43.96242" lon="7.24006">
        <ele>1458.707153</ele>
        <time>2016-01-17T11:16:56.000Z</time>
      </trkpt>
      <trkpt lat="43.96227" lon="7.24018">
        <ele>1458.619263</ele>
        <time>2016-01-17T11:17:01.000Z</time>
      </trkpt>
      <trkpt lat="43.96216" lon="7.24023">
        <ele>1458.961792</ele>
        <time>2016-01-17T11:17:06.000Z</time>
      </trkpt>
      <trkpt lat="43.96203" lon="7.24045">
        <ele>1455.564087</ele>
        <time>2016-01-17T11:17:11.000Z</time>
      </trkpt>
      <trkpt lat="43.96185" lon="7.24064">
        <ele>1454.952881</ele>
        <time>2016-01-17T11:17:16.000Z</time>
      </trkpt>
      <trkpt lat="43.96175" lon="7.24071">
        <ele>1455.402832</ele>
        <time>2016-01-17T11:17:21.000Z</time>
      </trkpt>
      <trkpt lat="43.96169" lon="7.2407">
        <ele>1456.682129</ele>
        <time>2016-01-17T11:17:26.000Z</time>
      </trkpt>
      <trkpt lat="43.96162" lon="7.24073">
        <ele>1457.202759</ele>
        <time>2016-01-17T11:17:31.000Z</time>
      </trkpt>
      <trkpt lat="43.96153" lon="7.2408">
        <ele>1457.115845</ele>
        <time>2016-01-17T11:17:36.000Z</time>
      </trkpt>
      <trkpt lat="43.96144" lon="7.24084">
        <ele>1457.488525</ele>
        <time>2016-01-17T11:17:41.000Z</time>
      </trkpt>
      <trkpt lat="43.96132" lon="7.24091">
        <ele>1456.225952</ele>
        <time>2016-01-17T11:17:46.000Z</time>
      </trkpt>
      <trkpt lat="43.9612" lon="7.24099">
        <ele>1455.988037</ele>
        <time>2016-01-17T11:17:51.000Z</time>
      </trkpt>
      <trkpt lat="43.96109" lon="7.24108">
        <ele>1456.253052</ele>
        <time>2016-01-17T11:17:56.000Z</time>
      </trkpt>
      <trkpt lat="43.96101" lon="7.24117">
        <ele>1457.324219</ele>
        <time>2016-01-17T11:18:01.000Z</time>
      </trkpt>
      <trkpt lat="43.96092" lon="7.24131">
        <ele>1456.269165</ele>
        <time>2016-01-17T11:18:06.000Z</time>
      </trkpt>
      <trkpt lat="43.96081" lon="7.24143">
        <ele>1456.045288</ele>
        <time>2016-01-17T11:18:11.000Z</time>
      </trkpt>
      <trkpt lat="43.96073" lon="7.24156">
        <ele>1457.490112</ele>
        <time>2016-01-17T11:18:16.000Z</time>
      </trkpt>
      <trkpt lat="43.96065" lon="7.24174">
        <ele>1456.91626</ele>
        <time>2016-01-17T11:18:21.000Z</time>
      </trkpt>
      <trkpt lat="43.96056" lon="7.24188">
        <ele>1456.763794</ele>
        <time>2016-01-17T11:18:26.000Z</time>
      </trkpt>
      <trkpt lat="43.96048" lon="7.24203">
        <ele>1457.804688</ele>
        <time>2016-01-17T11:18:31.000Z</time>
      </trkpt>
      <trkpt lat="43.96037" lon="7.24221">
        <ele>1456.250488</ele>
        <time>2016-01-17T11:18:36.000Z</time>
      </trkpt>
      <trkpt lat="43.96024" lon="7.24231">
        <ele>1455.813232</ele>
        <time>2016-01-17T11:18:41.000Z</time>
      </trkpt>
      <trkpt lat="43.9601" lon="7.24239">
        <ele>1454.620361</ele>
        <time>2016-01-17T11:18:46.000Z</time>
      </trkpt>
      <trkpt lat="43.96" lon="7.24251">
        <ele>1455.425293</ele>
        <time>2016-01-17T11:18:51.000Z</time>
      </trkpt>
      <trkpt lat="43.9599" lon="7.24261">
        <ele>1455.279785</ele>
        <time>2016-01-17T11:18:56.000Z</time>
      </trkpt>
      <trkpt lat="43.9598" lon="7.24271">
        <ele>1454.362671</ele>
        <time>2016-01-17T11:19:01.000Z</time>
      </trkpt>
      <trkpt lat="43.95969" lon="7.24282">
        <ele>1453.176392</ele>
        <time>2016-01-17T11:19:06.000Z</time>
      </trkpt>
      <trkpt lat="43.95955" lon="7.24287">
        <ele>1452.132202</ele>
        <time>2016-01-17T11:19:11.000Z</time>
      </trkpt>
      <trkpt lat="43.95944" lon="7.24291">
        <ele>1450.058228</ele>
        <time>2016-01-17T11:19:16.000Z</time>
      </trkpt>
      <trkpt lat="43.95931" lon="7.24297">
        <ele>1450.059082</ele>
        <time>2016-01-17T11:19:21.000Z</time>
      </trkpt>
      <trkpt lat="43.9593" lon="7.24299">
        <ele>1450.154541</ele>
        <time>2016-01-17T11:19:26.000Z</time>
      </trkpt>
      <trkpt lat="43.95927" lon="7.243">
        <ele>1450.113281</ele>
        <time>2016-01-17T11:19:31.000Z</time>
      </trkpt>
      <trkpt lat="43.95923" lon="7.24302">
        <ele>1450.21875</ele>
        <time>2016-01-17T11:19:36.000Z</time>
      </trkpt>
      <trkpt lat="43.95919" lon="7.24301">
        <ele>1450.756348</ele>
        <time>2016-01-17T11:19:41.000Z</time>
      </trkpt>
      <trkpt lat="43.95914" lon="7.24302">
        <ele>1451.376099</ele>
        <time>2016-01-17T11:19:46.000Z</time>
      </trkpt>
      <trkpt lat="43.95909" lon="7.24303">
        <ele>1452.358154</ele>
        <time>2016-01-17T11:19:51.000Z</time>
      </trkpt>
      <trkpt lat="43.95904" lon="7.24303">
        <ele>1452.828735</ele>
        <time>2016-01-17T11:19:56.000Z</time>
      </trkpt>
      <trkpt lat="43.959" lon="7.24305">
        <ele>1453.786011</ele>
        <time>2016-01-17T11:20:01.000Z</time>
      </trkpt>
      <trkpt lat="43.95896" lon="7.24308">
        <ele>1454.705566</ele>
        <time>2016-01-17T11:20:06.000Z</time>
      </trkpt>
      <trkpt lat="43.95891" lon="7.24311">
        <ele>1455.100952</ele>
        <time>2016-01-17T11:20:11.000Z</time>
      </trkpt>
      <trkpt lat="43.95887" lon="7.24313">
        <ele>1457.14502</ele>
        <time>2016-01-17T11:20:16.000Z</time>
      </trkpt>
      <trkpt lat="43.95883" lon="7.24315">
        <ele>1458.230347</ele>
        <time>2016-01-17T11:20:21.000Z</time>
      </trkpt>
      <trkpt lat="43.95879" lon="7.24315">
        <ele>1460.170776</ele>
        <time>2016-01-17T11:20:26.000Z</time>
      </trkpt>
      <trkpt lat="43.95875" lon="7.24315">
        <ele>1462.462158</ele>
        <time>2016-01-17T11:20:31.000Z</time>
      </trkpt>
      <trkpt lat="43.95871" lon="7.24317">
        <ele>1464.279175</ele>
        <time>2016-01-17T11:20:36.000Z</time>
      </trkpt>
      <trkpt lat="43.95864" lon="7.24321">
        <ele>1464.506104</ele>
        <time>2016-01-17T11:20:41.000Z</time>
      </trkpt>
      <trkpt lat="43.95857" lon="7.24322">
        <ele>1464.184204</ele>
        <time>2016-01-17T11:20:46.000Z</time>
      </trkpt>
      <trkpt lat="43.95851" lon="7.24323">
        <ele>1463.849609</ele>
        <time>2016-01-17T11:20:51.000Z</time>
      </trkpt>
      <trkpt lat="43.95846" lon="7.24325">
        <ele>1464.334229</ele>
        <time>2016-01-17T11:20:56.000Z</time>
      </trkpt>
      <trkpt lat="43.95841" lon="7.24325">
        <ele>1465.03064</ele>
        <time>2016-01-17T11:21:01.000Z</time>
      </trkpt>
      <trkpt lat="43.95836" lon="7.24325">
        <ele>1466.173828</ele>
        <time>2016-01-17T11:21:06.000Z</time>
      </trkpt>
      <trkpt lat="43.95831" lon="7.24324">
        <ele>1466.57959</ele>
        <time>2016-01-17T11:21:11.000Z</time>
      </trkpt>
      <trkpt lat="43.95824" lon="7.24324">
        <ele>1467.297974</ele>
        <time>2016-01-17T11:21:16.000Z</time>
      </trkpt>
      <trkpt lat="43.95819" lon="7.24323">
        <ele>1467.078735</ele>
        <time>2016-01-17T11:21:21.000Z</time>
      </trkpt>
      <trkpt lat="43.95814" lon="7.24323">
        <ele>1467.227417</ele>
        <time>2016-01-17T11:21:26.000Z</time>
      </trkpt>
      <trkpt lat="43.95812" lon="7.24323">
        <ele>1467.46228</ele>
        <time>2016-01-17T11:21:31.000Z</time>
      </trkpt>
      <trkpt lat="43.95809" lon="7.24324">
        <ele>1467.112427</ele>
        <time>2016-01-17T11:21:36.000Z</time>
      </trkpt>
      <trkpt lat="43.95806" lon="7.24325">
        <ele>1466.139282</ele>
        <time>2016-01-17T11:21:41.000Z</time>
      </trkpt>
      <trkpt lat="43.95803" lon="7.24322">
        <ele>1466.46228</ele>
        <time>2016-01-17T11:21:46.000Z</time>
      </trkpt>
      <trkpt lat="43.95801" lon="7.24321">
        <ele>1466.424805</ele>
        <time>2016-01-17T11:21:51.000Z</time>
      </trkpt>
      <trkpt lat="43.95793" lon="7.2432">
        <ele>1467.042603</ele>
        <time>2016-01-17T11:21:56.000Z</time>
      </trkpt>
      <trkpt lat="43.95786" lon="7.24318">
        <ele>1468.530762</ele>
        <time>2016-01-17T11:22:01.000Z</time>
      </trkpt>
      <trkpt lat="43.95777" lon="7.24314">
        <ele>1469.723755</ele>
        <time>2016-01-17T11:22:06.000Z</time>
      </trkpt>
      <trkpt lat="43.9577" lon="7.24311">
        <ele>1472.345459</ele>
        <time>2016-01-17T11:22:11.000Z</time>
      </trkpt>
      <trkpt lat="43.95758" lon="7.24303">
        <ele>1471.404419</ele>
        <time>2016-01-17T11:22:16.000Z</time>
      </trkpt>
      <trkpt lat="43.95754" lon="7.243">
        <ele>1471.684448</ele>
        <time>2016-01-17T11:22:21.000Z</time>
      </trkpt>
      <trkpt lat="43.95746" lon="7.24297">
        <ele>1473.347412</ele>
        <time>2016-01-17T11:22:26.000Z</time>
      </trkpt>
      <trkpt lat="43.95736" lon="7.24297">
        <ele>1475.210083</ele>
        <time>2016-01-17T11:22:31.000Z</time>
      </trkpt>
      <trkpt lat="43.95727" lon="7.24294">
        <ele>1476.711426</ele>
        <time>2016-01-17T11:22:36.000Z</time>
      </trkpt>
      <trkpt lat="43.9572" lon="7.24291">
        <ele>1476.731934</ele>
        <time>2016-01-17T11:22:41.000Z</time>
      </trkpt>
      <trkpt lat="43.95715" lon="7.24294">
        <ele>1474.814087</ele>
        <time>2016-01-17T11:22:46.000Z</time>
      </trkpt>
      <trkpt lat="43.95709" lon="7.24291">
        <ele>1473.090454</ele>
        <time>2016-01-17T11:22:51.000Z</time>
      </trkpt>
      <trkpt lat="43.95701" lon="7.24286">
        <ele>1473.654663</ele>
        <time>2016-01-17T11:22:56.000Z</time>
      </trkpt>
      <trkpt lat="43.95695" lon="7.24282">
        <ele>1473.660767</ele>
        <time>2016-01-17T11:23:01.000Z</time>
      </trkpt>
      <trkpt lat="43.95687" lon="7.24278">
        <ele>1473.135986</ele>
        <time>2016-01-17T11:23:06.000Z</time>
      </trkpt>
      <trkpt lat="43.9568" lon="7.24273">
        <ele>1472.624146</ele>
        <time>2016-01-17T11:23:11.000Z</time>
      </trkpt>
      <trkpt lat="43.95673" lon="7.2427">
        <ele>1471.72937</ele>
        <time>2016-01-17T11:23:16.000Z</time>
      </trkpt>
      <trkpt lat="43.95666" lon="7.24268">
        <ele>1471.266968</ele>
        <time>2016-01-17T11:23:21.000Z</time>
      </trkpt>
      <trkpt lat="43.9566" lon="7.24263">
        <ele>1472.249878</ele>
        <time>2016-01-17T11:23:26.000Z</time>
      </trkpt>
      <trkpt lat="43.95655" lon="7.24259">
        <ele>1471.963379</ele>
        <time>2016-01-17T11:23:31.000Z</time>
      </trkpt>
      <trkpt lat="43.95649" lon="7.24255">
        <ele>1471.796143</ele>
        <time>2016-01-17T11:23:36.000Z</time>
      </trkpt>
      <trkpt lat="43.95645" lon="7.24251">
        <ele>1472.253296</ele>
        <time>2016-01-17T11:23:41.000Z</time>
      </trkpt>
      <trkpt lat="43.95645" lon="7.24251">
        <ele>1471.921143</ele>
        <time>2016-01-17T11:23:46.000Z</time>
      </trkpt>
      <trkpt lat="43.95645" lon="7.24251">
        <ele>1471.967529</ele>
        <time>2016-01-17T11:23:51.000Z</time>
      </trkpt>
      <trkpt lat="43.95645" lon="7.24251">
        <ele>1471.919434</ele>
        <time>2016-01-17T11:23:56.000Z</time>
      </trkpt>
      <trkpt lat="43.95642" lon="7.24247">
        <ele>1472.036255</ele>
        <time>2016-01-17T11:24:01.000Z</time>
      </trkpt>
      <trkpt lat="43.95638" lon="7.24244">
        <ele>1472.829712</ele>
        <time>2016-01-17T11:24:06.000Z</time>
      </trkpt>
      <trkpt lat="43.95635" lon="7.2424">
        <ele>1473.797729</ele>
        <time>2016-01-17T11:24:11.000Z</time>
      </trkpt>
      <trkpt lat="43.9563" lon="7.24237">
        <ele>1474.20459</ele>
        <time>2016-01-17T11:24:16.000Z</time>
      </trkpt>
      <trkpt lat="43.95627" lon="7.24233">
        <ele>1474.647949</ele>
        <time>2016-01-17T11:24:21.000Z</time>
      </trkpt>
      <trkpt lat="43.95622" lon="7.24231">
        <ele>1475.118896</ele>
        <time>2016-01-17T11:24:26.000Z</time>
      </trkpt>
      <trkpt lat="43.95617" lon="7.2423">
        <ele>1475.183838</ele>
        <time>2016-01-17T11:24:31.000Z</time>
      </trkpt>
      <trkpt lat="43.95613" lon="7.24227">
        <ele>1475.92627</ele>
        <time>2016-01-17T11:24:36.000Z</time>
      </trkpt>
      <trkpt lat="43.95611" lon="7.24224">
        <ele>1476.390259</ele>
        <time>2016-01-17T11:24:41.000Z</time>
      </trkpt>
      <trkpt lat="43.95608" lon="7.24219">
        <ele>1476.899048</ele>
        <time>2016-01-17T11:24:46.000Z</time>
      </trkpt>
      <trkpt lat="43.95605" lon="7.24216">
        <ele>1477.638794</ele>
        <time>2016-01-17T11:24:51.000Z</time>
      </trkpt>
      <trkpt lat="43.95602" lon="7.24213">
        <ele>1478.464111</ele>
        <time>2016-01-17T11:24:56.000Z</time>
      </trkpt>
      <trkpt lat="43.95599" lon="7.2421">
        <ele>1479.19458</ele>
        <time>2016-01-17T11:25:01.000Z</time>
      </trkpt>
      <trkpt lat="43.95597" lon="7.24207">
        <ele>1478.967773</ele>
        <time>2016-01-17T11:25:06.000Z</time>
      </trkpt>
      <trkpt lat="43.95597" lon="7.24208">
        <ele>1478.446899</ele>
        <time>2016-01-17T11:25:11.000Z</time>
      </trkpt>
      <trkpt lat="43.95597" lon="7.24208">
        <ele>1478.365356</ele>
        <time>2016-01-17T11:25:16.000Z</time>
      </trkpt>
      <trkpt lat="43.95597" lon="7.24207">
        <ele>1478.22644</ele>
        <time>2016-01-17T11:25:21.000Z</time>
      </trkpt>
      <trkpt lat="43.95597" lon="7.24207">
        <ele>1478.21228</ele>
        <time>2016-01-17T11:25:26.000Z</time>
      </trkpt>
      <trkpt lat="43.95597" lon="7.24207">
        <ele>1478.203247</ele>
        <time>2016-01-17T11:25:31.000Z</time>
      </trkpt>
      <trkpt lat="43.95597" lon="7.24207">
        <ele>1478.201294</ele>
        <time>2016-01-17T11:25:36.000Z</time>
      </trkpt>
      <trkpt lat="43.95597" lon="7.24207">
        <ele>1478.197144</ele>
        <time>2016-01-17T11:25:41.000Z</time>
      </trkpt>
      <trkpt lat="43.95597" lon="7.24207">
        <ele>1478.189819</ele>
        <time>2016-01-17T11:25:46.000Z</time>
      </trkpt>
      <trkpt lat="43.95597" lon="7.24207">
        <ele>1478.233154</ele>
        <time>2016-01-17T11:25:51.000Z</time>
      </trkpt>
      <trkpt lat="43.95597" lon="7.24207">
        <ele>1478.261719</ele>
        <time>2016-01-17T11:25:56.000Z</time>
      </trkpt>
      <trkpt lat="43.95594" lon="7.24207">
        <ele>1478.944946</ele>
        <time>2016-01-17T11:26:01.000Z</time>
      </trkpt>
      <trkpt lat="43.95588" lon="7.24206">
        <ele>1478.926147</ele>
        <time>2016-01-17T11:26:06.000Z</time>
      </trkpt>
      <trkpt lat="43.95583" lon="7.24206">
        <ele>1479.392944</ele>
        <time>2016-01-17T11:26:11.000Z</time>
      </trkpt>
      <trkpt lat="43.95577" lon="7.24204">
        <ele>1479.38269</ele>
        <time>2016-01-17T11:26:16.000Z</time>
      </trkpt>
      <trkpt lat="43.95572" lon="7.24203">
        <ele>1479.724854</ele>
        <time>2016-01-17T11:26:21.000Z</time>
      </trkpt>
      <trkpt lat="43.95567" lon="7.24202">
        <ele>1480.457886</ele>
        <time>2016-01-17T11:26:26.000Z</time>
      </trkpt>
      <trkpt lat="43.95562" lon="7.242">
        <ele>1480.070313</ele>
        <time>2016-01-17T11:26:31.000Z</time>
      </trkpt>
      <trkpt lat="43.95556" lon="7.24198">
        <ele>1480.792969</ele>
        <time>2016-01-17T11:26:36.000Z</time>
      </trkpt>
      <trkpt lat="43.95551" lon="7.24196">
        <ele>1480.889648</ele>
        <time>2016-01-17T11:26:41.000Z</time>
      </trkpt>
      <trkpt lat="43.95547" lon="7.24193">
        <ele>1481.847168</ele>
        <time>2016-01-17T11:26:46.000Z</time>
      </trkpt>
      <trkpt lat="43.95542" lon="7.24192">
        <ele>1482.296509</ele>
        <time>2016-01-17T11:26:51.000Z</time>
      </trkpt>
      <trkpt lat="43.95538" lon="7.24191">
        <ele>1482.38916</ele>
        <time>2016-01-17T11:26:56.000Z</time>
      </trkpt>
      <trkpt lat="43.95533" lon="7.24189">
        <ele>1482.8125</ele>
        <time>2016-01-17T11:27:01.000Z</time>
      </trkpt>
      <trkpt lat="43.95529" lon="7.24187">
        <ele>1482.905029</ele>
        <time>2016-01-17T11:27:06.000Z</time>
      </trkpt>
      <trkpt lat="43.95524" lon="7.24187">
        <ele>1483.947876</ele>
        <time>2016-01-17T11:27:11.000Z</time>
      </trkpt>
      <trkpt lat="43.95521" lon="7.24187">
        <ele>1486.571655</ele>
        <time>2016-01-17T11:27:16.000Z</time>
      </trkpt>
      <trkpt lat="43.95517" lon="7.24187">
        <ele>1487.764038</ele>
        <time>2016-01-17T11:27:21.000Z</time>
      </trkpt>
      <trkpt lat="43.95515" lon="7.24186">
        <ele>1488.734009</ele>
        <time>2016-01-17T11:27:26.000Z</time>
      </trkpt>
      <trkpt lat="43.95515" lon="7.24187">
        <ele>1489.372437</ele>
        <time>2016-01-17T11:27:31.000Z</time>
      </trkpt>
      <trkpt lat="43.95515" lon="7.24186">
        <ele>1489.317383</ele>
        <time>2016-01-17T11:27:36.000Z</time>
      </trkpt>
      <trkpt lat="43.95513" lon="7.24186">
        <ele>1489.465332</ele>
        <time>2016-01-17T11:27:41.000Z</time>
      </trkpt>
      <trkpt lat="43.9551" lon="7.24185">
        <ele>1489.894653</ele>
        <time>2016-01-17T11:27:46.000Z</time>
      </trkpt>
      <trkpt lat="43.95507" lon="7.24185">
        <ele>1489.683472</ele>
        <time>2016-01-17T11:27:51.000Z</time>
      </trkpt>
      <trkpt lat="43.95502" lon="7.24185">
        <ele>1489.245605</ele>
        <time>2016-01-17T11:27:56.000Z</time>
      </trkpt>
      <trkpt lat="43.95499" lon="7.24186">
        <ele>1490.050659</ele>
        <time>2016-01-17T11:28:01.000Z</time>
      </trkpt>
      <trkpt lat="43.95496" lon="7.24187">
        <ele>1491.290527</ele>
        <time>2016-01-17T11:28:06.000Z</time>
      </trkpt>
      <trkpt lat="43.95494" lon="7.2419">
        <ele>1492.887817</ele>
        <time>2016-01-17T11:28:11.000Z</time>
      </trkpt>
      <trkpt lat="43.95491" lon="7.24193">
        <ele>1494.601196</ele>
        <time>2016-01-17T11:28:16.000Z</time>
      </trkpt>
      <trkpt lat="43.95491" lon="7.24193">
        <ele>1496.597168</ele>
        <time>2016-01-17T11:28:21.000Z</time>
      </trkpt>
      <trkpt lat="43.9549" lon="7.24191">
        <ele>1498.337646</ele>
        <time>2016-01-17T11:28:26.000Z</time>
      </trkpt>
      <trkpt lat="43.95488" lon="7.2419">
        <ele>1499.147827</ele>
        <time>2016-01-17T11:28:31.000Z</time>
      </trkpt>
      <trkpt lat="43.95486" lon="7.24191">
        <ele>1500.884888</ele>
        <time>2016-01-17T11:28:36.000Z</time>
      </trkpt>
      <trkpt lat="43.95485" lon="7.24194">
        <ele>1502.105347</ele>
        <time>2016-01-17T11:28:41.000Z</time>
      </trkpt>
      <trkpt lat="43.95484" lon="7.24197">
        <ele>1503.327515</ele>
        <time>2016-01-17T11:28:46.000Z</time>
      </trkpt>
      <trkpt lat="43.95482" lon="7.24196">
        <ele>1504.53125</ele>
        <time>2016-01-17T11:28:51.000Z</time>
      </trkpt>
      <trkpt lat="43.95481" lon="7.24193">
        <ele>1505.46167</ele>
        <time>2016-01-17T11:28:56.000Z</time>
      </trkpt>
      <trkpt lat="43.9548" lon="7.24191">
        <ele>1506.944214</ele>
        <time>2016-01-17T11:29:01.000Z</time>
      </trkpt>
      <trkpt lat="43.95477" lon="7.2419">
        <ele>1507.746582</ele>
        <time>2016-01-17T11:29:06.000Z</time>
      </trkpt>
      <trkpt lat="43.95473" lon="7.24189">
        <ele>1509.045166</ele>
        <time>2016-01-17T11:29:11.000Z</time>
      </trkpt>
      <trkpt lat="43.95469" lon="7.24189">
        <ele>1509.715088</ele>
        <time>2016-01-17T11:29:16.000Z</time>
      </trkpt>
      <trkpt lat="43.95467" lon="7.2419">
        <ele>1510.844971</ele>
        <time>2016-01-17T11:29:21.000Z</time>
      </trkpt>
      <trkpt lat="43.95466" lon="7.24189">
        <ele>1511.275391</ele>
        <time>2016-01-17T11:29:26.000Z</time>
      </trkpt>
      <trkpt lat="43.95466" lon="7.24189">
        <ele>1511.365112</ele>
        <time>2016-01-17T11:29:31.000Z</time>
      </trkpt>
      <trkpt lat="43.95462" lon="7.24193">
        <ele>1511.214233</ele>
        <time>2016-01-17T11:29:36.000Z</time>
      </trkpt>
      <trkpt lat="43.95463" lon="7.24195">
        <ele>1511.399658</ele>
        <time>2016-01-17T11:29:41.000Z</time>
      </trkpt>
      <trkpt lat="43.95457" lon="7.24194">
        <ele>1512.1875</ele>
        <time>2016-01-17T11:29:46.000Z</time>
      </trkpt>
      <trkpt lat="43.95455" lon="7.24194">
        <ele>1513.086792</ele>
        <time>2016-01-17T11:29:51.000Z</time>
      </trkpt>
      <trkpt lat="43.95455" lon="7.24195">
        <ele>1513.892578</ele>
        <time>2016-01-17T11:29:56.000Z</time>
      </trkpt>
      <trkpt lat="43.95455" lon="7.24196">
        <ele>1515.529419</ele>
        <time>2016-01-17T11:30:01.000Z</time>
      </trkpt>
      <trkpt lat="43.95454" lon="7.24198">
        <ele>1516.30481</ele>
        <time>2016-01-17T11:30:06.000Z</time>
      </trkpt>
      <trkpt lat="43.95454" lon="7.24201">
        <ele>1517.370117</ele>
        <time>2016-01-17T11:30:11.000Z</time>
      </trkpt>
      <trkpt lat="43.95452" lon="7.24202">
        <ele>1518.121948</ele>
        <time>2016-01-17T11:30:16.000Z</time>
      </trkpt>
      <trkpt lat="43.95451" lon="7.24202">
        <ele>1518.862183</ele>
        <time>2016-01-17T11:30:21.000Z</time>
      </trkpt>
      <trkpt lat="43.95451" lon="7.24203">
        <ele>1519.570435</ele>
        <time>2016-01-17T11:30:26.000Z</time>
      </trkpt>
      <trkpt lat="43.95452" lon="7.24206">
        <ele>1520.36145</ele>
        <time>2016-01-17T11:30:31.000Z</time>
      </trkpt>
      <trkpt lat="43.95448" lon="7.24209">
        <ele>1520.773071</ele>
        <time>2016-01-17T11:30:36.000Z</time>
      </trkpt>
      <trkpt lat="43.95448" lon="7.24212">
        <ele>1521.77356</ele>
        <time>2016-01-17T11:30:41.000Z</time>
      </trkpt>
      <trkpt lat="43.95445" lon="7.24214">
        <ele>1522.035522</ele>
        <time>2016-01-17T11:30:46.000Z</time>
      </trkpt>
      <trkpt lat="43.95442" lon="7.24216">
        <ele>1522.649658</ele>
        <time>2016-01-17T11:30:51.000Z</time>
      </trkpt>
      <trkpt lat="43.95438" lon="7.24217">
        <ele>1523.173584</ele>
        <time>2016-01-17T11:30:56.000Z</time>
      </trkpt>
      <trkpt lat="43.95437" lon="7.24219">
        <ele>1523.959717</ele>
        <time>2016-01-17T11:31:01.000Z</time>
      </trkpt>
      <trkpt lat="43.95433" lon="7.24221">
        <ele>1522.838989</ele>
        <time>2016-01-17T11:31:06.000Z</time>
      </trkpt>
      <trkpt lat="43.95433" lon="7.24222">
        <ele>1523.403931</ele>
        <time>2016-01-17T11:31:11.000Z</time>
      </trkpt>
      <trkpt lat="43.95432" lon="7.24223">
        <ele>1523.161255</ele>
        <time>2016-01-17T11:31:16.000Z</time>
      </trkpt>
      <trkpt lat="43.95433" lon="7.24227">
        <ele>1523.790161</ele>
        <time>2016-01-17T11:31:21.000Z</time>
      </trkpt>
      <trkpt lat="43.95433" lon="7.24229">
        <ele>1524.740112</ele>
        <time>2016-01-17T11:31:26.000Z</time>
      </trkpt>
      <trkpt lat="43.95431" lon="7.24231">
        <ele>1524.782471</ele>
        <time>2016-01-17T11:31:31.000Z</time>
      </trkpt>
      <trkpt lat="43.95429" lon="7.24234">
        <ele>1524.654785</ele>
        <time>2016-01-17T11:31:36.000Z</time>
      </trkpt>
      <trkpt lat="43.95428" lon="7.24236">
        <ele>1526.099731</ele>
        <time>2016-01-17T11:31:41.000Z</time>
      </trkpt>
      <trkpt lat="43.95425" lon="7.24235">
        <ele>1527.148438</ele>
        <time>2016-01-17T11:31:46.000Z</time>
      </trkpt>
      <trkpt lat="43.95422" lon="7.24239">
        <ele>1526.606323</ele>
        <time>2016-01-17T11:31:51.000Z</time>
      </trkpt>
      <trkpt lat="43.95424" lon="7.24242">
        <ele>1526.897339</ele>
        <time>2016-01-17T11:31:56.000Z</time>
      </trkpt>
      <trkpt lat="43.95423" lon="7.24246">
        <ele>1527.134888</ele>
        <time>2016-01-17T11:32:01.000Z</time>
      </trkpt>
      <trkpt lat="43.95422" lon="7.24249">
        <ele>1527.583496</ele>
        <time>2016-01-17T11:32:06.000Z</time>
      </trkpt>
      <trkpt lat="43.95421" lon="7.24251">
        <ele>1528.382568</ele>
        <time>2016-01-17T11:32:11.000Z</time>
      </trkpt>
      <trkpt lat="43.95421" lon="7.24252">
        <ele>1529.598022</ele>
        <time>2016-01-17T11:32:16.000Z</time>
      </trkpt>
      <trkpt lat="43.95421" lon="7.24254">
        <ele>1529.869263</ele>
        <time>2016-01-17T11:32:21.000Z</time>
      </trkpt>
      <trkpt lat="43.95419" lon="7.24255">
        <ele>1530.726563</ele>
        <time>2016-01-17T11:32:26.000Z</time>
      </trkpt>
      <trkpt lat="43.95417" lon="7.24256">
        <ele>1531.785645</ele>
        <time>2016-01-17T11:32:31.000Z</time>
      </trkpt>
      <trkpt lat="43.95416" lon="7.24257">
        <ele>1533.004883</ele>
        <time>2016-01-17T11:32:36.000Z</time>
      </trkpt>
      <trkpt lat="43.95413" lon="7.24259">
        <ele>1534.331177</ele>
        <time>2016-01-17T11:32:41.000Z</time>
      </trkpt>
      <trkpt lat="43.95407" lon="7.24263">
        <ele>1533.748413</ele>
        <time>2016-01-17T11:32:46.000Z</time>
      </trkpt>
      <trkpt lat="43.95406" lon="7.24265">
        <ele>1533.732422</ele>
        <time>2016-01-17T11:32:51.000Z</time>
      </trkpt>
      <trkpt lat="43.95405" lon="7.24265">
        <ele>1534.435181</ele>
        <time>2016-01-17T11:32:56.000Z</time>
      </trkpt>
      <trkpt lat="43.95401" lon="7.24264">
        <ele>1534.034424</ele>
        <time>2016-01-17T11:33:01.000Z</time>
      </trkpt>
      <trkpt lat="43.95397" lon="7.24265">
        <ele>1534.004028</ele>
        <time>2016-01-17T11:33:06.000Z</time>
      </trkpt>
      <trkpt lat="43.95392" lon="7.24265">
        <ele>1535.415283</ele>
        <time>2016-01-17T11:33:11.000Z</time>
      </trkpt>
      <trkpt lat="43.95387" lon="7.24266">
        <ele>1536.35144</ele>
        <time>2016-01-17T11:33:16.000Z</time>
      </trkpt>
      <trkpt lat="43.95379" lon="7.24267">
        <ele>1536.111206</ele>
        <time>2016-01-17T11:33:21.000Z</time>
      </trkpt>
      <trkpt lat="43.95373" lon="7.24267">
        <ele>1535.931763</ele>
        <time>2016-01-17T11:33:26.000Z</time>
      </trkpt>
      <trkpt lat="43.95367" lon="7.24268">
        <ele>1535.486572</ele>
        <time>2016-01-17T11:33:31.000Z</time>
      </trkpt>
      <trkpt lat="43.95361" lon="7.24269">
        <ele>1534.767334</ele>
        <time>2016-01-17T11:33:36.000Z</time>
      </trkpt>
      <trkpt lat="43.95357" lon="7.24271">
        <ele>1534.326294</ele>
        <time>2016-01-17T11:33:41.000Z</time>
      </trkpt>
      <trkpt lat="43.95351" lon="7.24272">
        <ele>1534.493896</ele>
        <time>2016-01-17T11:33:46.000Z</time>
      </trkpt>
      <trkpt lat="43.95347" lon="7.24273">
        <ele>1534.782593</ele>
        <time>2016-01-17T11:33:51.000Z</time>
      </trkpt>
      <trkpt lat="43.95343" lon="7.24274">
        <ele>1535.393188</ele>
        <time>2016-01-17T11:33:56.000Z</time>
      </trkpt>
      <trkpt lat="43.95338" lon="7.24275">
        <ele>1536.265259</ele>
        <time>2016-01-17T11:34:01.000Z</time>
      </trkpt>
      <trkpt lat="43.95335" lon="7.24276">
        <ele>1536.166382</ele>
        <time>2016-01-17T11:34:06.000Z</time>
      </trkpt>
      <trkpt lat="43.95333" lon="7.24275">
        <ele>1535.278076</ele>
        <time>2016-01-17T11:34:11.000Z</time>
      </trkpt>
      <trkpt lat="43.95333" lon="7.24275">
        <ele>1535.523682</ele>
        <time>2016-01-17T11:34:16.000Z</time>
      </trkpt>
      <trkpt lat="43.95331" lon="7.24276">
        <ele>1537.639282</ele>
        <time>2016-01-17T11:34:21.000Z</time>
      </trkpt>
      <trkpt lat="43.9533" lon="7.24276">
        <ele>1539.210083</ele>
        <time>2016-01-17T11:34:26.000Z</time>
      </trkpt>
      <trkpt lat="43.95325" lon="7.24279">
        <ele>1539.984741</ele>
        <time>2016-01-17T11:34:31.000Z</time>
      </trkpt>
      <trkpt lat="43.95319" lon="7.24279">
        <ele>1540.217285</ele>
        <time>2016-01-17T11:34:36.000Z</time>
      </trkpt>
      <trkpt lat="43.95315" lon="7.24278">
        <ele>1541.103027</ele>
        <time>2016-01-17T11:34:41.000Z</time>
      </trkpt>
      <trkpt lat="43.95311" lon="7.24278">
        <ele>1541.970825</ele>
        <time>2016-01-17T11:34:46.000Z</time>
      </trkpt>
      <trkpt lat="43.95308" lon="7.24278">
        <ele>1543.321655</ele>
        <time>2016-01-17T11:34:51.000Z</time>
      </trkpt>
      <trkpt lat="43.95303" lon="7.24279">
        <ele>1543.769531</ele>
        <time>2016-01-17T11:34:56.000Z</time>
      </trkpt>
      <trkpt lat="43.95299" lon="7.24281">
        <ele>1544.841309</ele>
        <time>2016-01-17T11:35:01.000Z</time>
      </trkpt>
      <trkpt lat="43.95296" lon="7.24282">
        <ele>1545.517822</ele>
        <time>2016-01-17T11:35:06.000Z</time>
      </trkpt>
      <trkpt lat="43.95291" lon="7.24283">
        <ele>1546.289917</ele>
        <time>2016-01-17T11:35:11.000Z</time>
      </trkpt>
      <trkpt lat="43.95286" lon="7.24285">
        <ele>1547.102173</ele>
        <time>2016-01-17T11:35:16.000Z</time>
      </trkpt>
      <trkpt lat="43.95282" lon="7.24285">
        <ele>1547.809448</ele>
        <time>2016-01-17T11:35:21.000Z</time>
      </trkpt>
      <trkpt lat="43.95278" lon="7.24281">
        <ele>1548.741577</ele>
        <time>2016-01-17T11:35:26.000Z</time>
      </trkpt>
      <trkpt lat="43.95277" lon="7.24279">
        <ele>1549.362671</ele>
        <time>2016-01-17T11:35:31.000Z</time>
      </trkpt>
      <trkpt lat="43.95274" lon="7.24278">
        <ele>1550.710205</ele>
        <time>2016-01-17T11:35:36.000Z</time>
      </trkpt>
      <trkpt lat="43.95273" lon="7.24279">
        <ele>1551.737061</ele>
        <time>2016-01-17T11:35:41.000Z</time>
      </trkpt>
      <trkpt lat="43.95271" lon="7.24282">
        <ele>1551.921387</ele>
        <time>2016-01-17T11:35:46.000Z</time>
      </trkpt>
      <trkpt lat="43.95266" lon="7.24285">
        <ele>1551.813721</ele>
        <time>2016-01-17T11:35:51.000Z</time>
      </trkpt>
      <trkpt lat="43.95263" lon="7.24288">
        <ele>1552.703857</ele>
        <time>2016-01-17T11:35:56.000Z</time>
      </trkpt>
      <trkpt lat="43.95257" lon="7.24294">
        <ele>1552.314453</ele>
        <time>2016-01-17T11:36:01.000Z</time>
      </trkpt>
      <trkpt lat="43.95251" lon="7.243">
        <ele>1552.404785</ele>
        <time>2016-01-17T11:36:06.000Z</time>
      </trkpt>
      <trkpt lat="43.95247" lon="7.24305">
        <ele>1551.632202</ele>
        <time>2016-01-17T11:36:11.000Z</time>
      </trkpt>
      <trkpt lat="43.95242" lon="7.24304">
        <ele>1550.29895</ele>
        <time>2016-01-17T11:36:16.000Z</time>
      </trkpt>
      <trkpt lat="43.95243" lon="7.24305">
        <ele>1549.110474</ele>
        <time>2016-01-17T11:36:21.000Z</time>
      </trkpt>
      <trkpt lat="43.95242" lon="7.24305">
        <ele>1547.391235</ele>
        <time>2016-01-17T11:36:26.000Z</time>
      </trkpt>
      <trkpt lat="43.9524" lon="7.24304">
        <ele>1545.967773</ele>
        <time>2016-01-17T11:36:31.000Z</time>
      </trkpt>
      <trkpt lat="43.95238" lon="7.24302">
        <ele>1544.000122</ele>
        <time>2016-01-17T11:36:36.000Z</time>
      </trkpt>
      <trkpt lat="43.95236" lon="7.24301">
        <ele>1542.494141</ele>
        <time>2016-01-17T11:36:41.000Z</time>
      </trkpt>
      <trkpt lat="43.95232" lon="7.24301">
        <ele>1541.631226</ele>
        <time>2016-01-17T11:36:46.000Z</time>
      </trkpt>
      <trkpt lat="43.9523" lon="7.24302">
        <ele>1542.116577</ele>
        <time>2016-01-17T11:36:51.000Z</time>
      </trkpt>
      <trkpt lat="43.95229" lon="7.24303">
        <ele>1541.967041</ele>
        <time>2016-01-17T11:36:56.000Z</time>
      </trkpt>
      <trkpt lat="43.95229" lon="7.24303">
        <ele>1541.517944</ele>
        <time>2016-01-17T11:37:01.000Z</time>
      </trkpt>
      <trkpt lat="43.95229" lon="7.24302">
        <ele>1541.67688</ele>
        <time>2016-01-17T11:37:06.000Z</time>
      </trkpt>
      <trkpt lat="43.95229" lon="7.24302">
        <ele>1541.696289</ele>
        <time>2016-01-17T11:37:11.000Z</time>
      </trkpt>
      <trkpt lat="43.95229" lon="7.24302">
        <ele>1541.683838</ele>
        <time>2016-01-17T11:37:16.000Z</time>
      </trkpt>
      <trkpt lat="43.95229" lon="7.24302">
        <ele>1541.671143</ele>
        <time>2016-01-17T11:37:21.000Z</time>
      </trkpt>
      <trkpt lat="43.95229" lon="7.24302">
        <ele>1541.657837</ele>
        <time>2016-01-17T11:37:26.000Z</time>
      </trkpt>
      <trkpt lat="43.95229" lon="7.24302">
        <ele>1541.648193</ele>
        <time>2016-01-17T11:37:31.000Z</time>
      </trkpt>
      <trkpt lat="43.95228" lon="7.24302">
        <ele>1541.640625</ele>
        <time>2016-01-17T11:37:36.000Z</time>
      </trkpt>
      <trkpt lat="43.95229" lon="7.24302">
        <ele>1541.628174</ele>
        <time>2016-01-17T11:37:41.000Z</time>
      </trkpt>
      <trkpt lat="43.95234" lon="7.24301">
        <ele>1542.532471</ele>
        <time>2016-01-17T11:37:46.000Z</time>
      </trkpt>
      <trkpt lat="43.95229" lon="7.24304">
        <ele>1541.950562</ele>
        <time>2016-01-17T11:37:51.000Z</time>
      </trkpt>
      <trkpt lat="43.95228" lon="7.24304">
        <ele>1541.783813</ele>
        <time>2016-01-17T11:37:56.000Z</time>
      </trkpt>
      <trkpt lat="43.95228" lon="7.24304">
        <ele>1541.793335</ele>
        <time>2016-01-17T11:38:01.000Z</time>
      </trkpt>
      <trkpt lat="43.95228" lon="7.24304">
        <ele>1541.790894</ele>
        <time>2016-01-17T11:38:06.000Z</time>
      </trkpt>
      <trkpt lat="43.95227" lon="7.24306">
        <ele>1541.44519</ele>
        <time>2016-01-17T11:38:11.000Z</time>
      </trkpt>
      <trkpt lat="43.95224" lon="7.24307">
        <ele>1541.277954</ele>
        <time>2016-01-17T11:38:16.000Z</time>
      </trkpt>
      <trkpt lat="43.95219" lon="7.24306">
        <ele>1541.849731</ele>
        <time>2016-01-17T11:38:21.000Z</time>
      </trkpt>
      <trkpt lat="43.95216" lon="7.24305">
        <ele>1542.318726</ele>
        <time>2016-01-17T11:38:26.000Z</time>
      </trkpt>
      <trkpt lat="43.95217" lon="7.24304">
        <ele>1542.739136</ele>
        <time>2016-01-17T11:38:31.000Z</time>
      </trkpt>
      <trkpt lat="43.95217" lon="7.24304">
        <ele>1543.002808</ele>
        <time>2016-01-17T11:38:36.000Z</time>
      </trkpt>
      <trkpt lat="43.95217" lon="7.24305">
        <ele>1543.255859</ele>
        <time>2016-01-17T11:38:41.000Z</time>
      </trkpt>
      <trkpt lat="43.95217" lon="7.24305">
        <ele>1543.319214</ele>
        <time>2016-01-17T11:38:46.000Z</time>
      </trkpt>
      <trkpt lat="43.95217" lon="7.24305">
        <ele>1543.340088</ele>
        <time>2016-01-17T11:38:51.000Z</time>
      </trkpt>
      <trkpt lat="43.95218" lon="7.24305">
        <ele>1543.364502</ele>
        <time>2016-01-17T11:38:56.000Z</time>
      </trkpt>
      <trkpt lat="43.95218" lon="7.24305">
        <ele>1543.417603</ele>
        <time>2016-01-17T11:39:01.000Z</time>
      </trkpt>
      <trkpt lat="43.95218" lon="7.24305">
        <ele>1543.511963</ele>
        <time>2016-01-17T11:39:06.000Z</time>
      </trkpt>
      <trkpt lat="43.95218" lon="7.24305">
        <ele>1543.552124</ele>
        <time>2016-01-17T11:39:11.000Z</time>
      </trkpt>
      <trkpt lat="43.95218" lon="7.24305">
        <ele>1543.566772</ele>
        <time>2016-01-17T11:39:16.000Z</time>
      </trkpt>
      <trkpt lat="43.95218" lon="7.24305">
        <ele>1543.573853</ele>
        <time>2016-01-17T11:39:21.000Z</time>
      </trkpt>
      <trkpt lat="43.95218" lon="7.24305">
        <ele>1543.58374</ele>
        <time>2016-01-17T11:39:26.000Z</time>
      </trkpt>
      <trkpt lat="43.95218" lon="7.24305">
        <ele>1543.555786</ele>
        <time>2016-01-17T11:39:31.000Z</time>
      </trkpt>
      <trkpt lat="43.95218" lon="7.24305">
        <ele>1543.58252</ele>
        <time>2016-01-17T11:39:36.000Z</time>
      </trkpt>
      <trkpt lat="43.95218" lon="7.24306">
        <ele>1544.528564</ele>
        <time>2016-01-17T11:39:41.000Z</time>
      </trkpt>
      <trkpt lat="43.95218" lon="7.24306">
        <ele>1544.613403</ele>
        <time>2016-01-17T11:39:46.000Z</time>
      </trkpt>
      <trkpt lat="43.95218" lon="7.24306">
        <ele>1544.609253</ele>
        <time>2016-01-17T11:39:51.000Z</time>
      </trkpt>
      <trkpt lat="43.95218" lon="7.24306">
        <ele>1544.621216</ele>
        <time>2016-01-17T11:39:56.000Z</time>
      </trkpt>
      <trkpt lat="43.95218" lon="7.24306">
        <ele>1544.622925</ele>
        <time>2016-01-17T11:40:01.000Z</time>
      </trkpt>
      <trkpt lat="43.95218" lon="7.24306">
        <ele>1544.637329</ele>
        <time>2016-01-17T11:40:06.000Z</time>
      </trkpt>
      <trkpt lat="43.95218" lon="7.24306">
        <ele>1544.634644</ele>
        <time>2016-01-17T11:40:11.000Z</time>
      </trkpt>
      <trkpt lat="43.95218" lon="7.24306">
        <ele>1544.640137</ele>
        <time>2016-01-17T11:40:16.000Z</time>
      </trkpt>
      <trkpt lat="43.95218" lon="7.24306">
        <ele>1544.641846</ele>
        <time>2016-01-17T11:40:21.000Z</time>
      </trkpt>
      <trkpt lat="43.95215" lon="7.24307">
        <ele>1544.876953</ele>
        <time>2016-01-17T11:40:26.000Z</time>
      </trkpt>
      <trkpt lat="43.95211" lon="7.24309">
        <ele>1544.601685</ele>
        <time>2016-01-17T11:40:31.000Z</time>
      </trkpt>
      <trkpt lat="43.95209" lon="7.2431">
        <ele>1544.826416</ele>
        <time>2016-01-17T11:40:36.000Z</time>
      </trkpt>
      <trkpt lat="43.95208" lon="7.24309">
        <ele>1545.142212</ele>
        <time>2016-01-17T11:40:41.000Z</time>
      </trkpt>
      <trkpt lat="43.95212" lon="7.24307">
        <ele>1543.974976</ele>
        <time>2016-01-17T11:40:46.000Z</time>
      </trkpt>
      <trkpt lat="43.95217" lon="7.24306">
        <ele>1542.944824</ele>
        <time>2016-01-17T11:40:51.000Z</time>
      </trkpt>
      <trkpt lat="43.95216" lon="7.24307">
        <ele>1543.007935</ele>
        <time>2016-01-17T11:40:56.000Z</time>
      </trkpt>
      <trkpt lat="43.95216" lon="7.24307">
        <ele>1543.025513</ele>
        <time>2016-01-17T11:41:01.000Z</time>
      </trkpt>
      <trkpt lat="43.95214" lon="7.24308">
        <ele>1543.572266</ele>
        <time>2016-01-17T11:41:06.000Z</time>
      </trkpt>
      <trkpt lat="43.95211" lon="7.2431">
        <ele>1545.202881</ele>
        <time>2016-01-17T11:41:11.000Z</time>
      </trkpt>
      <trkpt lat="43.95207" lon="7.2431">
        <ele>1545.903076</ele>
        <time>2016-01-17T11:41:16.000Z</time>
      </trkpt>
      <trkpt lat="43.95207" lon="7.24311">
        <ele>1546.222778</ele>
        <time>2016-01-17T11:41:19.000Z</time>
      </trkpt>
      <trkpt lat="43.95206" lon="7.24309">
        <ele>1547.081177</ele>
        <time>2016-01-17T11:41:24.000Z</time>
      </trkpt>
      <trkpt lat="43.95204" lon="7.24305">
        <ele>1548.164429</ele>
        <time>2016-01-17T11:41:29.000Z</time>
      </trkpt>
      <trkpt lat="43.95202" lon="7.24301">
        <ele>1549.115356</ele>
        <time>2016-01-17T11:41:34.000Z</time>
      </trkpt>
      <trkpt lat="43.952" lon="7.24297">
        <ele>1549.045166</ele>
        <time>2016-01-17T11:41:39.000Z</time>
      </trkpt>
      <trkpt lat="43.95197" lon="7.24296">
        <ele>1549.724487</ele>
        <time>2016-01-17T11:41:44.000Z</time>
      </trkpt>
      <trkpt lat="43.95195" lon="7.24297">
        <ele>1550.618896</ele>
        <time>2016-01-17T11:41:49.000Z</time>
      </trkpt>
      <trkpt lat="43.95198" lon="7.243">
        <ele>1551.518433</ele>
        <time>2016-01-17T11:41:54.000Z</time>
      </trkpt>
      <trkpt lat="43.95201" lon="7.24301">
        <ele>1551.710815</ele>
        <time>2016-01-17T11:41:59.000Z</time>
      </trkpt>
      <trkpt lat="43.95203" lon="7.24303">
        <ele>1551.880615</ele>
        <time>2016-01-17T11:42:04.000Z</time>
      </trkpt>
      <trkpt lat="43.95201" lon="7.24303">
        <ele>1552.884399</ele>
        <time>2016-01-17T11:42:09.000Z</time>
      </trkpt>
      <trkpt lat="43.95197" lon="7.24302">
        <ele>1553.446777</ele>
        <time>2016-01-17T11:42:14.000Z</time>
      </trkpt>
      <trkpt lat="43.95196" lon="7.24302">
        <ele>1552.908081</ele>
        <time>2016-01-17T11:42:19.000Z</time>
      </trkpt>
      <trkpt lat="43.95197" lon="7.24303">
        <ele>1553.007813</ele>
        <time>2016-01-17T11:42:24.000Z</time>
      </trkpt>
      <trkpt lat="43.95199" lon="7.24305">
        <ele>1553.853027</ele>
        <time>2016-01-17T11:42:29.000Z</time>
      </trkpt>
      <trkpt lat="43.95201" lon="7.24305">
        <ele>1554.950684</ele>
        <time>2016-01-17T11:42:34.000Z</time>
      </trkpt>
      <trkpt lat="43.95202" lon="7.24306">
        <ele>1555.763306</ele>
        <time>2016-01-17T11:42:39.000Z</time>
      </trkpt>
      <trkpt lat="43.95199" lon="7.24309">
        <ele>1555.655396</ele>
        <time>2016-01-17T11:42:44.000Z</time>
      </trkpt>
      <trkpt lat="43.95195" lon="7.24312">
        <ele>1556.201172</ele>
        <time>2016-01-17T11:42:49.000Z</time>
      </trkpt>
      <trkpt lat="43.95193" lon="7.24313">
        <ele>1557.411987</ele>
        <time>2016-01-17T11:42:54.000Z</time>
      </trkpt>
      <trkpt lat="43.95191" lon="7.24315">
        <ele>1558.227905</ele>
        <time>2016-01-17T11:42:59.000Z</time>
      </trkpt>
      <trkpt lat="43.95188" lon="7.24317">
        <ele>1559.143921</ele>
        <time>2016-01-17T11:43:04.000Z</time>
      </trkpt>
      <trkpt lat="43.95185" lon="7.24319">
        <ele>1560.533569</ele>
        <time>2016-01-17T11:43:09.000Z</time>
      </trkpt>
      <trkpt lat="43.95183" lon="7.24322">
        <ele>1561.550415</ele>
        <time>2016-01-17T11:43:14.000Z</time>
      </trkpt>
      <trkpt lat="43.95181" lon="7.24325">
        <ele>1562.21582</ele>
        <time>2016-01-17T11:43:19.000Z</time>
      </trkpt>
      <trkpt lat="43.9518" lon="7.24323">
        <ele>1562.31665</ele>
        <time>2016-01-17T11:43:24.000Z</time>
      </trkpt>
      <trkpt lat="43.9518" lon="7.24324">
        <ele>1561.762939</ele>
        <time>2016-01-17T11:43:29.000Z</time>
      </trkpt>
      <trkpt lat="43.95179" lon="7.24324">
        <ele>1561.657715</ele>
        <time>2016-01-17T11:43:34.000Z</time>
      </trkpt>
      <trkpt lat="43.95179" lon="7.24324">
        <ele>1561.634888</ele>
        <time>2016-01-17T11:43:39.000Z</time>
      </trkpt>
      <trkpt lat="43.95179" lon="7.24324">
        <ele>1561.619629</ele>
        <time>2016-01-17T11:43:44.000Z</time>
      </trkpt>
      <trkpt lat="43.95179" lon="7.24324">
        <ele>1561.625122</ele>
        <time>2016-01-17T11:43:49.000Z</time>
      </trkpt>
      <trkpt lat="43.95179" lon="7.24324">
        <ele>1561.631592</ele>
        <time>2016-01-17T11:43:54.000Z</time>
      </trkpt>
      <trkpt lat="43.95178" lon="7.24325">
        <ele>1562.361084</ele>
        <time>2016-01-17T11:43:59.000Z</time>
      </trkpt>
      <trkpt lat="43.95177" lon="7.24328">
        <ele>1563.865967</ele>
        <time>2016-01-17T11:44:04.000Z</time>
      </trkpt>
      <trkpt lat="43.95175" lon="7.24331">
        <ele>1564.554199</ele>
        <time>2016-01-17T11:44:09.000Z</time>
      </trkpt>
      <trkpt lat="43.95174" lon="7.2433">
        <ele>1565.120605</ele>
        <time>2016-01-17T11:44:14.000Z</time>
      </trkpt>
      <trkpt lat="43.95173" lon="7.24326">
        <ele>1565.703491</ele>
        <time>2016-01-17T11:44:19.000Z</time>
      </trkpt>
      <trkpt lat="43.95172" lon="7.24322">
        <ele>1566.272949</ele>
        <time>2016-01-17T11:44:24.000Z</time>
      </trkpt>
      <trkpt lat="43.9517" lon="7.24322">
        <ele>1566.449829</ele>
        <time>2016-01-17T11:44:29.000Z</time>
      </trkpt>
      <trkpt lat="43.95167" lon="7.24321">
        <ele>1567.085571</ele>
        <time>2016-01-17T11:44:34.000Z</time>
      </trkpt>
      <trkpt lat="43.95167" lon="7.24322">
        <ele>1567.89502</ele>
        <time>2016-01-17T11:44:39.000Z</time>
      </trkpt>
      <trkpt lat="43.95169" lon="7.24323">
        <ele>1569.585571</ele>
        <time>2016-01-17T11:44:44.000Z</time>
      </trkpt>
      <trkpt lat="43.95168" lon="7.24325">
        <ele>1571.274048</ele>
        <time>2016-01-17T11:44:49.000Z</time>
      </trkpt>
      <trkpt lat="43.95168" lon="7.24328">
        <ele>1573.477661</ele>
        <time>2016-01-17T11:44:54.000Z</time>
      </trkpt>
      <trkpt lat="43.95166" lon="7.24329">
        <ele>1573.760132</ele>
        <time>2016-01-17T11:44:59.000Z</time>
      </trkpt>
      <trkpt lat="43.95164" lon="7.2433">
        <ele>1574.666748</ele>
        <time>2016-01-17T11:45:04.000Z</time>
      </trkpt>
      <trkpt lat="43.95164" lon="7.2433">
        <ele>1575.344971</ele>
        <time>2016-01-17T11:45:09.000Z</time>
      </trkpt>
      <trkpt lat="43.95163" lon="7.2433">
        <ele>1575.532715</ele>
        <time>2016-01-17T11:45:14.000Z</time>
      </trkpt>
      <trkpt lat="43.95162" lon="7.24331">
        <ele>1575.435303</ele>
        <time>2016-01-17T11:45:19.000Z</time>
      </trkpt>
      <trkpt lat="43.9516" lon="7.24331">
        <ele>1575.688477</ele>
        <time>2016-01-17T11:45:24.000Z</time>
      </trkpt>
      <trkpt lat="43.9516" lon="7.24332">
        <ele>1576.599487</ele>
        <time>2016-01-17T11:45:29.000Z</time>
      </trkpt>
      <trkpt lat="43.95161" lon="7.24334">
        <ele>1578.029785</ele>
        <time>2016-01-17T11:45:34.000Z</time>
      </trkpt>
      <trkpt lat="43.95165" lon="7.24336">
        <ele>1580.369019</ele>
        <time>2016-01-17T11:45:39.000Z</time>
      </trkpt>
      <trkpt lat="43.95168" lon="7.2434">
        <ele>1582.327271</ele>
        <time>2016-01-17T11:45:44.000Z</time>
      </trkpt>
      <trkpt lat="43.95166" lon="7.24343">
        <ele>1580.857666</ele>
        <time>2016-01-17T11:45:49.000Z</time>
      </trkpt>
      <trkpt lat="43.95163" lon="7.24345">
        <ele>1578.489014</ele>
        <time>2016-01-17T11:45:54.000Z</time>
      </trkpt>
      <trkpt lat="43.95163" lon="7.24345">
        <ele>1578.422363</ele>
        <time>2016-01-17T11:45:59.000Z</time>
      </trkpt>
      <trkpt lat="43.95163" lon="7.24345">
        <ele>1578.354248</ele>
        <time>2016-01-17T11:46:04.000Z</time>
      </trkpt>
      <trkpt lat="43.95163" lon="7.24345">
        <ele>1578.334961</ele>
        <time>2016-01-17T11:46:09.000Z</time>
      </trkpt>
      <trkpt lat="43.95162" lon="7.24349">
        <ele>1578.646484</ele>
        <time>2016-01-17T11:46:14.000Z</time>
      </trkpt>
      <trkpt lat="43.95158" lon="7.24353">
        <ele>1578.515503</ele>
        <time>2016-01-17T11:46:19.000Z</time>
      </trkpt>
      <trkpt lat="43.95154" lon="7.24356">
        <ele>1579.286621</ele>
        <time>2016-01-17T11:46:24.000Z</time>
      </trkpt>
      <trkpt lat="43.95151" lon="7.2436">
        <ele>1580.532837</ele>
        <time>2016-01-17T11:46:29.000Z</time>
      </trkpt>
      <trkpt lat="43.95148" lon="7.24363">
        <ele>1581.57959</ele>
        <time>2016-01-17T11:46:34.000Z</time>
      </trkpt>
      <trkpt lat="43.95143" lon="7.24365">
        <ele>1582.524414</ele>
        <time>2016-01-17T11:46:39.000Z</time>
      </trkpt>
      <trkpt lat="43.9514" lon="7.2437">
        <ele>1583.145752</ele>
        <time>2016-01-17T11:46:44.000Z</time>
      </trkpt>
      <trkpt lat="43.95135" lon="7.24373">
        <ele>1583.391113</ele>
        <time>2016-01-17T11:46:49.000Z</time>
      </trkpt>
      <trkpt lat="43.9513" lon="7.24374">
        <ele>1584.219482</ele>
        <time>2016-01-17T11:46:54.000Z</time>
      </trkpt>
      <trkpt lat="43.95126" lon="7.24371">
        <ele>1584.413574</ele>
        <time>2016-01-17T11:46:59.000Z</time>
      </trkpt>
      <trkpt lat="43.95122" lon="7.24368">
        <ele>1585.005981</ele>
        <time>2016-01-17T11:47:04.000Z</time>
      </trkpt>
      <trkpt lat="43.95119" lon="7.24367">
        <ele>1586.773315</ele>
        <time>2016-01-17T11:47:09.000Z</time>
      </trkpt>
      <trkpt lat="43.95113" lon="7.24368">
        <ele>1587.849487</ele>
        <time>2016-01-17T11:47:14.000Z</time>
      </trkpt>
      <trkpt lat="43.95108" lon="7.2437">
        <ele>1588.576904</ele>
        <time>2016-01-17T11:47:19.000Z</time>
      </trkpt>
      <trkpt lat="43.95104" lon="7.24374">
        <ele>1589.626587</ele>
        <time>2016-01-17T11:47:24.000Z</time>
      </trkpt>
      <trkpt lat="43.951" lon="7.24378">
        <ele>1591.021484</ele>
        <time>2016-01-17T11:47:29.000Z</time>
      </trkpt>
      <trkpt lat="43.95097" lon="7.24379">
        <ele>1591.630005</ele>
        <time>2016-01-17T11:47:34.000Z</time>
      </trkpt>
      <trkpt lat="43.95096" lon="7.24378">
        <ele>1591.657959</ele>
        <time>2016-01-17T11:47:39.000Z</time>
      </trkpt>
      <trkpt lat="43.95096" lon="7.24378">
        <ele>1591.552246</ele>
        <time>2016-01-17T11:47:44.000Z</time>
      </trkpt>
      <trkpt lat="43.95093" lon="7.24377">
        <ele>1592.431152</ele>
        <time>2016-01-17T11:47:49.000Z</time>
      </trkpt>
      <trkpt lat="43.95089" lon="7.24375">
        <ele>1593.557251</ele>
        <time>2016-01-17T11:47:54.000Z</time>
      </trkpt>
      <trkpt lat="43.95086" lon="7.24372">
        <ele>1594.730591</ele>
        <time>2016-01-17T11:47:59.000Z</time>
      </trkpt>
      <trkpt lat="43.95083" lon="7.2437">
        <ele>1595.099854</ele>
        <time>2016-01-17T11:48:04.000Z</time>
      </trkpt>
      <trkpt lat="43.95081" lon="7.24366">
        <ele>1595.840942</ele>
        <time>2016-01-17T11:48:09.000Z</time>
      </trkpt>
      <trkpt lat="43.9508" lon="7.24361">
        <ele>1595.888916</ele>
        <time>2016-01-17T11:48:14.000Z</time>
      </trkpt>
      <trkpt lat="43.9508" lon="7.24359">
        <ele>1595.646729</ele>
        <time>2016-01-17T11:48:19.000Z</time>
      </trkpt>
      <trkpt lat="43.9508" lon="7.24359">
        <ele>1595.852905</ele>
        <time>2016-01-17T11:48:24.000Z</time>
      </trkpt>
      <trkpt lat="43.9508" lon="7.24359">
        <ele>1596.09314</ele>
        <time>2016-01-17T11:48:29.000Z</time>
      </trkpt>
      <trkpt lat="43.95079" lon="7.24359">
        <ele>1596.033081</ele>
        <time>2016-01-17T11:48:34.000Z</time>
      </trkpt>
      <trkpt lat="43.95079" lon="7.24359">
        <ele>1596.051392</ele>
        <time>2016-01-17T11:48:39.000Z</time>
      </trkpt>
      <trkpt lat="43.95081" lon="7.24359">
        <ele>1595.713501</ele>
        <time>2016-01-17T11:48:44.000Z</time>
      </trkpt>
      <trkpt lat="43.95081" lon="7.24359">
        <ele>1595.613525</ele>
        <time>2016-01-17T11:48:49.000Z</time>
      </trkpt>
      <trkpt lat="43.9508" lon="7.24359">
        <ele>1595.328369</ele>
        <time>2016-01-17T11:48:54.000Z</time>
      </trkpt>
      <trkpt lat="43.9508" lon="7.24361">
        <ele>1595.453735</ele>
        <time>2016-01-17T11:48:59.000Z</time>
      </trkpt>
      <trkpt lat="43.95079" lon="7.24359">
        <ele>1595.445679</ele>
        <time>2016-01-17T11:49:04.000Z</time>
      </trkpt>
      <trkpt lat="43.95072" lon="7.24353">
        <ele>1594.796997</ele>
        <time>2016-01-17T11:49:09.000Z</time>
      </trkpt>
      <trkpt lat="43.95066" lon="7.24339">
        <ele>1594.672119</ele>
        <time>2016-01-17T11:49:14.000Z</time>
      </trkpt>
      <trkpt lat="43.95064" lon="7.24328">
        <ele>1595.698853</ele>
        <time>2016-01-17T11:49:19.000Z</time>
      </trkpt>
      <trkpt lat="43.95061" lon="7.24318">
        <ele>1596.747681</ele>
        <time>2016-01-17T11:49:24.000Z</time>
      </trkpt>
      <trkpt lat="43.9506" lon="7.24316">
        <ele>1597.116821</ele>
        <time>2016-01-17T11:49:29.000Z</time>
      </trkpt>
      <trkpt lat="43.95057" lon="7.24315">
        <ele>1597.227295</ele>
        <time>2016-01-17T11:49:34.000Z</time>
      </trkpt>
      <trkpt lat="43.95057" lon="7.24315">
        <ele>1597.510986</ele>
        <time>2016-01-17T11:49:39.000Z</time>
      </trkpt>
      <trkpt lat="43.95057" lon="7.24315">
        <ele>1597.116089</ele>
        <time>2016-01-17T11:49:44.000Z</time>
      </trkpt>
      <trkpt lat="43.95056" lon="7.24314">
        <ele>1596.707031</ele>
        <time>2016-01-17T11:49:49.000Z</time>
      </trkpt>
      <trkpt lat="43.95055" lon="7.24314">
        <ele>1596.287842</ele>
        <time>2016-01-17T11:49:54.000Z</time>
      </trkpt>
      <trkpt lat="43.95056" lon="7.24315">
        <ele>1596.404419</ele>
        <time>2016-01-17T11:49:59.000Z</time>
      </trkpt>
      <trkpt lat="43.95056" lon="7.24315">
        <ele>1596.273926</ele>
        <time>2016-01-17T11:50:04.000Z</time>
      </trkpt>
      <trkpt lat="43.95055" lon="7.24315">
        <ele>1595.578613</ele>
        <time>2016-01-17T11:50:09.000Z</time>
      </trkpt>
      <trkpt lat="43.95055" lon="7.24315">
        <ele>1595.330811</ele>
        <time>2016-01-17T11:50:14.000Z</time>
      </trkpt>
      <trkpt lat="43.95055" lon="7.24315">
        <ele>1595.325806</ele>
        <time>2016-01-17T11:50:19.000Z</time>
      </trkpt>
      <trkpt lat="43.95055" lon="7.24315">
        <ele>1595.327881</ele>
        <time>2016-01-17T11:50:24.000Z</time>
      </trkpt>
      <trkpt lat="43.95055" lon="7.24315">
        <ele>1595.131714</ele>
        <time>2016-01-17T11:50:29.000Z</time>
      </trkpt>
      <trkpt lat="43.95055" lon="7.24318">
        <ele>1595.272827</ele>
        <time>2016-01-17T11:50:34.000Z</time>
      </trkpt>
      <trkpt lat="43.95055" lon="7.24319">
        <ele>1595.115234</ele>
        <time>2016-01-17T11:50:39.000Z</time>
      </trkpt>
      <trkpt lat="43.95055" lon="7.24319">
        <ele>1594.529419</ele>
        <time>2016-01-17T11:50:44.000Z</time>
      </trkpt>
      <trkpt lat="43.95055" lon="7.24319">
        <ele>1593.930298</ele>
        <time>2016-01-17T11:50:49.000Z</time>
      </trkpt>
      <trkpt lat="43.95055" lon="7.2432">
        <ele>1594.029419</ele>
        <time>2016-01-17T11:50:54.000Z</time>
      </trkpt>
      <trkpt lat="43.95055" lon="7.2432">
        <ele>1594.019653</ele>
        <time>2016-01-17T11:50:59.000Z</time>
      </trkpt>
      <trkpt lat="43.95055" lon="7.2432">
        <ele>1594.012695</ele>
        <time>2016-01-17T11:51:04.000Z</time>
      </trkpt>
      <trkpt lat="43.95055" lon="7.2432">
        <ele>1594.005737</ele>
        <time>2016-01-17T11:51:09.000Z</time>
      </trkpt>
      <trkpt lat="43.95055" lon="7.2432">
        <ele>1593.990723</ele>
        <time>2016-01-17T11:51:14.000Z</time>
      </trkpt>
      <trkpt lat="43.95055" lon="7.2432">
        <ele>1593.981079</ele>
        <time>2016-01-17T11:51:19.000Z</time>
      </trkpt>
      <trkpt lat="43.95055" lon="7.2432">
        <ele>1593.970825</ele>
        <time>2016-01-17T11:51:24.000Z</time>
      </trkpt>
      <trkpt lat="43.95055" lon="7.2432">
        <ele>1593.970703</ele>
        <time>2016-01-17T11:51:29.000Z</time>
      </trkpt>
      <trkpt lat="43.95055" lon="7.2432">
        <ele>1593.953735</ele>
        <time>2016-01-17T11:51:34.000Z</time>
      </trkpt>
      <trkpt lat="43.95055" lon="7.2432">
        <ele>1593.942993</ele>
        <time>2016-01-17T11:51:39.000Z</time>
      </trkpt>
      <trkpt lat="43.95055" lon="7.2432">
        <ele>1593.94165</ele>
        <time>2016-01-17T11:51:44.000Z</time>
      </trkpt>
      <trkpt lat="43.95055" lon="7.2432">
        <ele>1593.922729</ele>
        <time>2016-01-17T11:51:49.000Z</time>
      </trkpt>
      <trkpt lat="43.95055" lon="7.2432">
        <ele>1593.919678</ele>
        <time>2016-01-17T11:51:54.000Z</time>
      </trkpt>
      <trkpt lat="43.95055" lon="7.2432">
        <ele>1593.900513</ele>
        <time>2016-01-17T11:51:59.000Z</time>
      </trkpt>
      <trkpt lat="43.95055" lon="7.2432">
        <ele>1593.901611</ele>
        <time>2016-01-17T11:52:04.000Z</time>
      </trkpt>
      <trkpt lat="43.95055" lon="7.2432">
        <ele>1593.884155</ele>
        <time>2016-01-17T11:52:09.000Z</time>
      </trkpt>
      <trkpt lat="43.95055" lon="7.2432">
        <ele>1593.873779</ele>
        <time>2016-01-17T11:52:14.000Z</time>
      </trkpt>
      <trkpt lat="43.95055" lon="7.2432">
        <ele>1593.876465</ele>
        <time>2016-01-17T11:52:19.000Z</time>
      </trkpt>
      <trkpt lat="43.95055" lon="7.2432">
        <ele>1593.870483</ele>
        <time>2016-01-17T11:52:24.000Z</time>
      </trkpt>
      <trkpt lat="43.95055" lon="7.2432">
        <ele>1593.846313</ele>
        <time>2016-01-17T11:52:29.000Z</time>
      </trkpt>
      <trkpt lat="43.95055" lon="7.2432">
        <ele>1593.831787</ele>
        <time>2016-01-17T11:52:34.000Z</time>
      </trkpt>
      <trkpt lat="43.95055" lon="7.2432">
        <ele>1593.825806</ele>
        <time>2016-01-17T11:52:39.000Z</time>
      </trkpt>
      <trkpt lat="43.95055" lon="7.2432">
        <ele>1593.822754</ele>
        <time>2016-01-17T11:52:44.000Z</time>
      </trkpt>
      <trkpt lat="43.95055" lon="7.2432">
        <ele>1593.821533</ele>
        <time>2016-01-17T11:52:49.000Z</time>
      </trkpt>
      <trkpt lat="43.95055" lon="7.2432">
        <ele>1593.817871</ele>
        <time>2016-01-17T11:52:54.000Z</time>
      </trkpt>
      <trkpt lat="43.95055" lon="7.2432">
        <ele>1593.812866</ele>
        <time>2016-01-17T11:52:59.000Z</time>
      </trkpt>
      <trkpt lat="43.95055" lon="7.2432">
        <ele>1593.80127</ele>
        <time>2016-01-17T11:53:04.000Z</time>
      </trkpt>
      <trkpt lat="43.95055" lon="7.2432">
        <ele>1593.77002</ele>
        <time>2016-01-17T11:53:09.000Z</time>
      </trkpt>
      <trkpt lat="43.95055" lon="7.2432">
        <ele>1593.744751</ele>
        <time>2016-01-17T11:53:14.000Z</time>
      </trkpt>
      <trkpt lat="43.95055" lon="7.2432">
        <ele>1593.732544</ele>
        <time>2016-01-17T11:53:19.000Z</time>
      </trkpt>
      <trkpt lat="43.95055" lon="7.2432">
        <ele>1593.722534</ele>
        <time>2016-01-17T11:53:24.000Z</time>
      </trkpt>
      <trkpt lat="43.95055" lon="7.2432">
        <ele>1593.698853</ele>
        <time>2016-01-17T11:53:29.000Z</time>
      </trkpt>
      <trkpt lat="43.95055" lon="7.2432">
        <ele>1593.688477</ele>
        <time>2016-01-17T11:53:34.000Z</time>
      </trkpt>
      <trkpt lat="43.95055" lon="7.2432">
        <ele>1593.669556</ele>
        <time>2016-01-17T11:53:39.000Z</time>
      </trkpt>
      <trkpt lat="43.95055" lon="7.2432">
        <ele>1593.653564</ele>
        <time>2016-01-17T11:53:44.000Z</time>
      </trkpt>
      <trkpt lat="43.95055" lon="7.2432">
        <ele>1593.640869</ele>
        <time>2016-01-17T11:53:49.000Z</time>
      </trkpt>
      <trkpt lat="43.95055" lon="7.2432">
        <ele>1593.624512</ele>
        <time>2016-01-17T11:53:54.000Z</time>
      </trkpt>
      <trkpt lat="43.95055" lon="7.2432">
        <ele>1593.612305</ele>
        <time>2016-01-17T11:53:59.000Z</time>
      </trkpt>
      <trkpt lat="43.95055" lon="7.2432">
        <ele>1593.605713</ele>
        <time>2016-01-17T11:54:04.000Z</time>
      </trkpt>
      <trkpt lat="43.95055" lon="7.2432">
        <ele>1593.591187</ele>
        <time>2016-01-17T11:54:09.000Z</time>
      </trkpt>
      <trkpt lat="43.95055" lon="7.2432">
        <ele>1593.58313</ele>
        <time>2016-01-17T11:54:14.000Z</time>
      </trkpt>
      <trkpt lat="43.95055" lon="7.2432">
        <ele>1593.581909</ele>
        <time>2016-01-17T11:54:19.000Z</time>
      </trkpt>
      <trkpt lat="43.95055" lon="7.2432">
        <ele>1593.577148</ele>
        <time>2016-01-17T11:54:24.000Z</time>
      </trkpt>
      <trkpt lat="43.95055" lon="7.2432">
        <ele>1593.567505</ele>
        <time>2016-01-17T11:54:29.000Z</time>
      </trkpt>
      <trkpt lat="43.95055" lon="7.2432">
        <ele>1593.561279</ele>
        <time>2016-01-17T11:54:34.000Z</time>
      </trkpt>
      <trkpt lat="43.95055" lon="7.2432">
        <ele>1593.553589</ele>
        <time>2016-01-17T11:54:39.000Z</time>
      </trkpt>
      <trkpt lat="43.95055" lon="7.2432">
        <ele>1593.556152</ele>
        <time>2016-01-17T11:54:44.000Z</time>
      </trkpt>
      <trkpt lat="43.95055" lon="7.2432">
        <ele>1593.558472</ele>
        <time>2016-01-17T11:54:49.000Z</time>
      </trkpt>
      <trkpt lat="43.95055" lon="7.2432">
        <ele>1593.558472</ele>
        <time>2016-01-17T11:54:54.000Z</time>
      </trkpt>
      <trkpt lat="43.95055" lon="7.2432">
        <ele>1593.557007</ele>
        <time>2016-01-17T11:54:59.000Z</time>
      </trkpt>
      <trkpt lat="43.95055" lon="7.2432">
        <ele>1593.552124</ele>
        <time>2016-01-17T11:55:04.000Z</time>
      </trkpt>
      <trkpt lat="43.95055" lon="7.2432">
        <ele>1593.554932</ele>
        <time>2016-01-17T11:55:09.000Z</time>
      </trkpt>
      <trkpt lat="43.95055" lon="7.2432">
        <ele>1593.549194</ele>
        <time>2016-01-17T11:55:14.000Z</time>
      </trkpt>
      <trkpt lat="43.95054" lon="7.2432">
        <ele>1593.538086</ele>
        <time>2016-01-17T11:55:19.000Z</time>
      </trkpt>
      <trkpt lat="43.95054" lon="7.2432">
        <ele>1593.529053</ele>
        <time>2016-01-17T11:55:24.000Z</time>
      </trkpt>
      <trkpt lat="43.95054" lon="7.2432">
        <ele>1593.518433</ele>
        <time>2016-01-17T11:55:29.000Z</time>
      </trkpt>
      <trkpt lat="43.95054" lon="7.2432">
        <ele>1593.512573</ele>
        <time>2016-01-17T11:55:34.000Z</time>
      </trkpt>
      <trkpt lat="43.95054" lon="7.2432">
        <ele>1593.507813</ele>
        <time>2016-01-17T11:55:39.000Z</time>
      </trkpt>
      <trkpt lat="43.95054" lon="7.2432">
        <ele>1593.496582</ele>
        <time>2016-01-17T11:55:44.000Z</time>
      </trkpt>
      <trkpt lat="43.95054" lon="7.2432">
        <ele>1593.487305</ele>
        <time>2016-01-17T11:55:49.000Z</time>
      </trkpt>
      <trkpt lat="43.95054" lon="7.2432">
        <ele>1593.486206</ele>
        <time>2016-01-17T11:55:54.000Z</time>
      </trkpt>
      <trkpt lat="43.95054" lon="7.2432">
        <ele>1593.47937</ele>
        <time>2016-01-17T11:55:59.000Z</time>
      </trkpt>
      <trkpt lat="43.95054" lon="7.2432">
        <ele>1593.481812</ele>
        <time>2016-01-17T11:56:04.000Z</time>
      </trkpt>
      <trkpt lat="43.95054" lon="7.2432">
        <ele>1593.486694</ele>
        <time>2016-01-17T11:56:09.000Z</time>
      </trkpt>
      <trkpt lat="43.95054" lon="7.2432">
        <ele>1593.493042</ele>
        <time>2016-01-17T11:56:14.000Z</time>
      </trkpt>
      <trkpt lat="43.95054" lon="7.2432">
        <ele>1593.496948</ele>
        <time>2016-01-17T11:56:19.000Z</time>
      </trkpt>
      <trkpt lat="43.95054" lon="7.2432">
        <ele>1593.497192</ele>
        <time>2016-01-17T11:56:24.000Z</time>
      </trkpt>
      <trkpt lat="43.95054" lon="7.2432">
        <ele>1593.502441</ele>
        <time>2016-01-17T11:56:29.000Z</time>
      </trkpt>
      <trkpt lat="43.95054" lon="7.2432">
        <ele>1593.491699</ele>
        <time>2016-01-17T11:56:34.000Z</time>
      </trkpt>
      <trkpt lat="43.95054" lon="7.2432">
        <ele>1593.486084</ele>
        <time>2016-01-17T11:56:39.000Z</time>
      </trkpt>
      <trkpt lat="43.95054" lon="7.2432">
        <ele>1593.479614</ele>
        <time>2016-01-17T11:56:44.000Z</time>
      </trkpt>
      <trkpt lat="43.95054" lon="7.2432">
        <ele>1593.480347</ele>
        <time>2016-01-17T11:56:49.000Z</time>
      </trkpt>
      <trkpt lat="43.95054" lon="7.2432">
        <ele>1593.487793</ele>
        <time>2016-01-17T11:56:54.000Z</time>
      </trkpt>
      <trkpt lat="43.95054" lon="7.2432">
        <ele>1593.492188</ele>
        <time>2016-01-17T11:56:59.000Z</time>
      </trkpt>
      <trkpt lat="43.95054" lon="7.2432">
        <ele>1593.497803</ele>
        <time>2016-01-17T11:57:04.000Z</time>
      </trkpt>
      <trkpt lat="43.95054" lon="7.2432">
        <ele>1593.504395</ele>
        <time>2016-01-17T11:57:09.000Z</time>
      </trkpt>
      <trkpt lat="43.95054" lon="7.2432">
        <ele>1593.507813</ele>
        <time>2016-01-17T11:57:14.000Z</time>
      </trkpt>
      <trkpt lat="43.95054" lon="7.2432">
        <ele>1593.50708</ele>
        <time>2016-01-17T11:57:19.000Z</time>
      </trkpt>
      <trkpt lat="43.95054" lon="7.2432">
        <ele>1593.50293</ele>
        <time>2016-01-17T11:57:24.000Z</time>
      </trkpt>
      <trkpt lat="43.95054" lon="7.2432">
        <ele>1593.493042</ele>
        <time>2016-01-17T11:57:29.000Z</time>
      </trkpt>
      <trkpt lat="43.95054" lon="7.2432">
        <ele>1593.484619</ele>
        <time>2016-01-17T11:57:34.000Z</time>
      </trkpt>
      <trkpt lat="43.95054" lon="7.2432">
        <ele>1593.478149</ele>
        <time>2016-01-17T11:57:39.000Z</time>
      </trkpt>
      <trkpt lat="43.95054" lon="7.2432">
        <ele>1593.476074</ele>
        <time>2016-01-17T11:57:44.000Z</time>
      </trkpt>
      <trkpt lat="43.95054" lon="7.2432">
        <ele>1593.467163</ele>
        <time>2016-01-17T11:57:49.000Z</time>
      </trkpt>
      <trkpt lat="43.95054" lon="7.24319">
        <ele>1593.467773</ele>
        <time>2016-01-17T11:57:54.000Z</time>
      </trkpt>
      <trkpt lat="43.95054" lon="7.24319">
        <ele>1593.463745</ele>
        <time>2016-01-17T11:57:59.000Z</time>
      </trkpt>
      <trkpt lat="43.95054" lon="7.24319">
        <ele>1593.45813</ele>
        <time>2016-01-17T11:58:04.000Z</time>
      </trkpt>
      <trkpt lat="43.95054" lon="7.24319">
        <ele>1593.454102</ele>
        <time>2016-01-17T11:58:09.000Z</time>
      </trkpt>
      <trkpt lat="43.95054" lon="7.24319">
        <ele>1593.455322</ele>
        <time>2016-01-17T11:58:14.000Z</time>
      </trkpt>
      <trkpt lat="43.95054" lon="7.24319">
        <ele>1593.442383</ele>
        <time>2016-01-17T11:58:19.000Z</time>
      </trkpt>
      <trkpt lat="43.95054" lon="7.24319">
        <ele>1593.440674</ele>
        <time>2016-01-17T11:58:24.000Z</time>
      </trkpt>
      <trkpt lat="43.95054" lon="7.24319">
        <ele>1593.437622</ele>
        <time>2016-01-17T11:58:29.000Z</time>
      </trkpt>
      <trkpt lat="43.95054" lon="7.24319">
        <ele>1593.439697</ele>
        <time>2016-01-17T11:58:34.000Z</time>
      </trkpt>
      <trkpt lat="43.95054" lon="7.24319">
        <ele>1593.445435</ele>
        <time>2016-01-17T11:58:39.000Z</time>
      </trkpt>
      <trkpt lat="43.95054" lon="7.24319">
        <ele>1593.438354</ele>
        <time>2016-01-17T11:58:44.000Z</time>
      </trkpt>
      <trkpt lat="43.95054" lon="7.24319">
        <ele>1593.431885</ele>
        <time>2016-01-17T11:58:49.000Z</time>
      </trkpt>
      <trkpt lat="43.95054" lon="7.24319">
        <ele>1593.424072</ele>
        <time>2016-01-17T11:58:54.000Z</time>
      </trkpt>
      <trkpt lat="43.95054" lon="7.24319">
        <ele>1593.413818</ele>
        <time>2016-01-17T11:58:59.000Z</time>
      </trkpt>
      <trkpt lat="43.95054" lon="7.24319">
        <ele>1593.416382</ele>
        <time>2016-01-17T11:59:04.000Z</time>
      </trkpt>
      <trkpt lat="43.95054" lon="7.24319">
        <ele>1593.415527</ele>
        <time>2016-01-17T11:59:09.000Z</time>
      </trkpt>
      <trkpt lat="43.95054" lon="7.24319">
        <ele>1593.417847</ele>
        <time>2016-01-17T11:59:14.000Z</time>
      </trkpt>
      <trkpt lat="43.95054" lon="7.24319">
        <ele>1593.414795</ele>
        <time>2016-01-17T11:59:19.000Z</time>
      </trkpt>
      <trkpt lat="43.95054" lon="7.24319">
        <ele>1593.411133</ele>
        <time>2016-01-17T11:59:24.000Z</time>
      </trkpt>
      <trkpt lat="43.95054" lon="7.24319">
        <ele>1593.40564</ele>
        <time>2016-01-17T11:59:29.000Z</time>
      </trkpt>
      <trkpt lat="43.95054" lon="7.24319">
        <ele>1593.391846</ele>
        <time>2016-01-17T11:59:34.000Z</time>
      </trkpt>
      <trkpt lat="43.95054" lon="7.24319">
        <ele>1593.388428</ele>
        <time>2016-01-17T11:59:39.000Z</time>
      </trkpt>
      <trkpt lat="43.95054" lon="7.24319">
        <ele>1593.388428</ele>
        <time>2016-01-17T11:59:44.000Z</time>
      </trkpt>
      <trkpt lat="43.95054" lon="7.24319">
        <ele>1593.378906</ele>
        <time>2016-01-17T11:59:49.000Z</time>
      </trkpt>
      <trkpt lat="43.95054" lon="7.24319">
        <ele>1593.38269</ele>
        <time>2016-01-17T11:59:54.000Z</time>
      </trkpt>
      <trkpt lat="43.95054" lon="7.24319">
        <ele>1593.378418</ele>
        <time>2016-01-17T11:59:59.000Z</time>
      </trkpt>
      <trkpt lat="43.95054" lon="7.24319">
        <ele>1593.376831</ele>
        <time>2016-01-17T12:00:04.000Z</time>
      </trkpt>
      <trkpt lat="43.95054" lon="7.24319">
        <ele>1593.37793</ele>
        <time>2016-01-17T12:00:09.000Z</time>
      </trkpt>
      <trkpt lat="43.95054" lon="7.24319">
        <ele>1593.375977</ele>
        <time>2016-01-17T12:00:14.000Z</time>
      </trkpt>
      <trkpt lat="43.95054" lon="7.24319">
        <ele>1593.372803</ele>
        <time>2016-01-17T12:00:19.000Z</time>
      </trkpt>
      <trkpt lat="43.95054" lon="7.24319">
        <ele>1593.375</ele>
        <time>2016-01-17T12:00:24.000Z</time>
      </trkpt>
      <trkpt lat="43.95054" lon="7.24319">
        <ele>1593.370117</ele>
        <time>2016-01-17T12:00:29.000Z</time>
      </trkpt>
      <trkpt lat="43.95054" lon="7.24319">
        <ele>1593.371094</ele>
        <time>2016-01-17T12:00:34.000Z</time>
      </trkpt>
      <trkpt lat="43.95054" lon="7.24319">
        <ele>1593.368408</ele>
        <time>2016-01-17T12:00:39.000Z</time>
      </trkpt>
      <trkpt lat="43.95054" lon="7.24319">
        <ele>1593.376221</ele>
        <time>2016-01-17T12:00:44.000Z</time>
      </trkpt>
      <trkpt lat="43.95054" lon="7.24319">
        <ele>1593.372803</ele>
        <time>2016-01-17T12:00:49.000Z</time>
      </trkpt>
      <trkpt lat="43.95054" lon="7.24319">
        <ele>1593.384644</ele>
        <time>2016-01-17T12:00:54.000Z</time>
      </trkpt>
      <trkpt lat="43.95054" lon="7.24319">
        <ele>1593.390747</ele>
        <time>2016-01-17T12:00:59.000Z</time>
      </trkpt>
      <trkpt lat="43.95054" lon="7.24319">
        <ele>1593.387573</ele>
        <time>2016-01-17T12:01:04.000Z</time>
      </trkpt>
      <trkpt lat="43.95054" lon="7.24319">
        <ele>1593.381958</ele>
        <time>2016-01-17T12:01:09.000Z</time>
      </trkpt>
      <trkpt lat="43.95054" lon="7.24319">
        <ele>1593.377319</ele>
        <time>2016-01-17T12:01:14.000Z</time>
      </trkpt>
      <trkpt lat="43.95054" lon="7.24319">
        <ele>1593.384033</ele>
        <time>2016-01-17T12:01:19.000Z</time>
      </trkpt>
      <trkpt lat="43.95054" lon="7.24319">
        <ele>1593.386475</ele>
        <time>2016-01-17T12:01:24.000Z</time>
      </trkpt>
      <trkpt lat="43.95054" lon="7.24318">
        <ele>1593.398438</ele>
        <time>2016-01-17T12:01:29.000Z</time>
      </trkpt>
      <trkpt lat="43.95054" lon="7.24318">
        <ele>1593.406006</ele>
        <time>2016-01-17T12:01:34.000Z</time>
      </trkpt>
      <trkpt lat="43.95054" lon="7.24318">
        <ele>1593.410278</ele>
        <time>2016-01-17T12:01:39.000Z</time>
      </trkpt>
      <trkpt lat="43.95054" lon="7.24318">
        <ele>1593.410522</ele>
        <time>2016-01-17T12:01:44.000Z</time>
      </trkpt>
      <trkpt lat="43.95054" lon="7.24318">
        <ele>1593.402222</ele>
        <time>2016-01-17T12:01:49.000Z</time>
      </trkpt>
      <trkpt lat="43.95054" lon="7.24318">
        <ele>1593.401733</ele>
        <time>2016-01-17T12:01:54.000Z</time>
      </trkpt>
      <trkpt lat="43.95054" lon="7.24318">
        <ele>1593.401245</ele>
        <time>2016-01-17T12:01:59.000Z</time>
      </trkpt>
      <trkpt lat="43.95054" lon="7.24318">
        <ele>1593.400269</ele>
        <time>2016-01-17T12:02:04.000Z</time>
      </trkpt>
      <trkpt lat="43.95054" lon="7.24318">
        <ele>1593.397095</ele>
        <time>2016-01-17T12:02:09.000Z</time>
      </trkpt>
      <trkpt lat="43.95054" lon="7.24318">
        <ele>1593.391113</ele>
        <time>2016-01-17T12:02:14.000Z</time>
      </trkpt>
      <trkpt lat="43.95054" lon="7.24318">
        <ele>1593.395752</ele>
        <time>2016-01-17T12:02:19.000Z</time>
      </trkpt>
      <trkpt lat="43.95054" lon="7.24318">
        <ele>1593.39209</ele>
        <time>2016-01-17T12:02:24.000Z</time>
      </trkpt>
      <trkpt lat="43.95053" lon="7.24318">
        <ele>1593.388794</ele>
        <time>2016-01-17T12:02:29.000Z</time>
      </trkpt>
      <trkpt lat="43.95053" lon="7.24318">
        <ele>1593.377686</ele>
        <time>2016-01-17T12:02:34.000Z</time>
      </trkpt>
      <trkpt lat="43.95053" lon="7.24318">
        <ele>1593.375244</ele>
        <time>2016-01-17T12:02:39.000Z</time>
      </trkpt>
      <trkpt lat="43.95053" lon="7.24318">
        <ele>1593.373169</ele>
        <time>2016-01-17T12:02:44.000Z</time>
      </trkpt>
      <trkpt lat="43.95053" lon="7.24318">
        <ele>1593.371216</ele>
        <time>2016-01-17T12:02:49.000Z</time>
      </trkpt>
      <trkpt lat="43.95053" lon="7.24318">
        <ele>1593.370239</ele>
        <time>2016-01-17T12:02:54.000Z</time>
      </trkpt>
      <trkpt lat="43.95053" lon="7.24318">
        <ele>1593.370972</ele>
        <time>2016-01-17T12:02:59.000Z</time>
      </trkpt>
      <trkpt lat="43.95053" lon="7.24318">
        <ele>1593.358154</ele>
        <time>2016-01-17T12:03:04.000Z</time>
      </trkpt>
      <trkpt lat="43.95053" lon="7.24318">
        <ele>1593.360596</ele>
        <time>2016-01-17T12:03:09.000Z</time>
      </trkpt>
      <trkpt lat="43.95053" lon="7.24318">
        <ele>1593.362183</ele>
        <time>2016-01-17T12:03:14.000Z</time>
      </trkpt>
      <trkpt lat="43.95053" lon="7.24318">
        <ele>1593.366821</ele>
        <time>2016-01-17T12:03:19.000Z</time>
      </trkpt>
      <trkpt lat="43.95053" lon="7.24318">
        <ele>1593.366699</ele>
        <time>2016-01-17T12:03:24.000Z</time>
      </trkpt>
      <trkpt lat="43.95053" lon="7.24318">
        <ele>1593.364746</ele>
        <time>2016-01-17T12:03:29.000Z</time>
      </trkpt>
      <trkpt lat="43.95053" lon="7.24318">
        <ele>1593.37085</ele>
        <time>2016-01-17T12:03:34.000Z</time>
      </trkpt>
      <trkpt lat="43.95053" lon="7.24318">
        <ele>1593.374878</ele>
        <time>2016-01-17T12:03:39.000Z</time>
      </trkpt>
      <trkpt lat="43.95053" lon="7.24318">
        <ele>1593.384888</ele>
        <time>2016-01-17T12:03:44.000Z</time>
      </trkpt>
      <trkpt lat="43.95053" lon="7.24318">
        <ele>1593.400024</ele>
        <time>2016-01-17T12:03:49.000Z</time>
      </trkpt>
      <trkpt lat="43.95053" lon="7.24318">
        <ele>1593.40564</ele>
        <time>2016-01-17T12:03:54.000Z</time>
      </trkpt>
      <trkpt lat="43.95053" lon="7.24318">
        <ele>1593.415649</ele>
        <time>2016-01-17T12:03:59.000Z</time>
      </trkpt>
      <trkpt lat="43.95053" lon="7.24318">
        <ele>1593.421997</ele>
        <time>2016-01-17T12:04:04.000Z</time>
      </trkpt>
      <trkpt lat="43.95053" lon="7.24318">
        <ele>1593.428589</ele>
        <time>2016-01-17T12:04:09.000Z</time>
      </trkpt>
      <trkpt lat="43.95053" lon="7.24318">
        <ele>1593.432251</ele>
        <time>2016-01-17T12:04:14.000Z</time>
      </trkpt>
      <trkpt lat="43.95053" lon="7.24318">
        <ele>1593.43689</ele>
        <time>2016-01-17T12:04:19.000Z</time>
      </trkpt>
      <trkpt lat="43.95053" lon="7.24318">
        <ele>1593.445313</ele>
        <time>2016-01-17T12:04:24.000Z</time>
      </trkpt>
      <trkpt lat="43.95053" lon="7.24318">
        <ele>1593.44751</ele>
        <time>2016-01-17T12:04:29.000Z</time>
      </trkpt>
      <trkpt lat="43.95053" lon="7.24318">
        <ele>1593.459839</ele>
        <time>2016-01-17T12:04:34.000Z</time>
      </trkpt>
      <trkpt lat="43.95053" lon="7.24318">
        <ele>1593.46582</ele>
        <time>2016-01-17T12:04:39.000Z</time>
      </trkpt>
      <trkpt lat="43.95053" lon="7.24318">
        <ele>1593.471313</ele>
        <time>2016-01-17T12:04:44.000Z</time>
      </trkpt>
      <trkpt lat="43.95053" lon="7.24318">
        <ele>1593.490479</ele>
        <time>2016-01-17T12:04:49.000Z</time>
      </trkpt>
      <trkpt lat="43.95053" lon="7.24318">
        <ele>1593.495239</ele>
        <time>2016-01-17T12:04:54.000Z</time>
      </trkpt>
      <trkpt lat="43.95053" lon="7.24318">
        <ele>1593.504272</ele>
        <time>2016-01-17T12:04:59.000Z</time>
      </trkpt>
      <trkpt lat="43.95053" lon="7.24318">
        <ele>1593.515869</ele>
        <time>2016-01-17T12:05:04.000Z</time>
      </trkpt>
      <trkpt lat="43.95053" lon="7.24318">
        <ele>1593.519531</ele>
        <time>2016-01-17T12:05:09.000Z</time>
      </trkpt>
      <trkpt lat="43.95053" lon="7.24318">
        <ele>1593.527954</ele>
        <time>2016-01-17T12:05:14.000Z</time>
      </trkpt>
      <trkpt lat="43.95053" lon="7.24318">
        <ele>1593.531982</ele>
        <time>2016-01-17T12:05:19.000Z</time>
      </trkpt>
      <trkpt lat="43.95053" lon="7.24318">
        <ele>1593.537231</ele>
        <time>2016-01-17T12:05:24.000Z</time>
      </trkpt>
      <trkpt lat="43.95053" lon="7.24318">
        <ele>1593.545898</ele>
        <time>2016-01-17T12:05:29.000Z</time>
      </trkpt>
      <trkpt lat="43.95053" lon="7.24317">
        <ele>1593.553345</ele>
        <time>2016-01-17T12:05:34.000Z</time>
      </trkpt>
      <trkpt lat="43.95053" lon="7.24317">
        <ele>1593.565674</ele>
        <time>2016-01-17T12:05:39.000Z</time>
      </trkpt>
      <trkpt lat="43.95053" lon="7.24317">
        <ele>1593.567505</ele>
        <time>2016-01-17T12:05:44.000Z</time>
      </trkpt>
      <trkpt lat="43.95053" lon="7.24317">
        <ele>1593.569824</ele>
        <time>2016-01-17T12:05:49.000Z</time>
      </trkpt>
      <trkpt lat="43.95053" lon="7.24317">
        <ele>1593.566284</ele>
        <time>2016-01-17T12:05:54.000Z</time>
      </trkpt>
      <trkpt lat="43.95053" lon="7.24317">
        <ele>1593.56665</ele>
        <time>2016-01-17T12:05:59.000Z</time>
      </trkpt>
      <trkpt lat="43.95053" lon="7.24317">
        <ele>1593.568481</ele>
        <time>2016-01-17T12:06:04.000Z</time>
      </trkpt>
      <trkpt lat="43.95053" lon="7.24317">
        <ele>1593.574463</ele>
        <time>2016-01-17T12:06:09.000Z</time>
      </trkpt>
      <trkpt lat="43.95053" lon="7.24317">
        <ele>1593.579468</ele>
        <time>2016-01-17T12:06:14.000Z</time>
      </trkpt>
      <trkpt lat="43.95053" lon="7.24317">
        <ele>1593.582031</ele>
        <time>2016-01-17T12:06:19.000Z</time>
      </trkpt>
      <trkpt lat="43.95053" lon="7.24317">
        <ele>1593.585693</ele>
        <time>2016-01-17T12:06:24.000Z</time>
      </trkpt>
      <trkpt lat="43.95053" lon="7.24317">
        <ele>1593.589478</ele>
        <time>2016-01-17T12:06:29.000Z</time>
      </trkpt>
      <trkpt lat="43.95053" lon="7.24317">
        <ele>1593.594849</ele>
        <time>2016-01-17T12:06:34.000Z</time>
      </trkpt>
      <trkpt lat="43.95053" lon="7.24317">
        <ele>1593.605469</ele>
        <time>2016-01-17T12:06:39.000Z</time>
      </trkpt>
      <trkpt lat="43.95053" lon="7.24317">
        <ele>1593.606201</ele>
        <time>2016-01-17T12:06:44.000Z</time>
      </trkpt>
      <trkpt lat="43.95053" lon="7.24317">
        <ele>1593.608154</ele>
        <time>2016-01-17T12:06:49.000Z</time>
      </trkpt>
      <trkpt lat="43.95053" lon="7.24317">
        <ele>1593.616455</ele>
        <time>2016-01-17T12:06:54.000Z</time>
      </trkpt>
      <trkpt lat="43.95053" lon="7.24317">
        <ele>1593.623291</ele>
        <time>2016-01-17T12:06:59.000Z</time>
      </trkpt>
      <trkpt lat="43.95053" lon="7.24317">
        <ele>1593.627563</ele>
        <time>2016-01-17T12:07:04.000Z</time>
      </trkpt>
      <trkpt lat="43.95053" lon="7.24317">
        <ele>1593.635864</ele>
        <time>2016-01-17T12:07:09.000Z</time>
      </trkpt>
      <trkpt lat="43.95053" lon="7.24317">
        <ele>1593.645874</ele>
        <time>2016-01-17T12:07:14.000Z</time>
      </trkpt>
      <trkpt lat="43.95053" lon="7.24317">
        <ele>1593.662598</ele>
        <time>2016-01-17T12:07:19.000Z</time>
      </trkpt>
      <trkpt lat="43.95053" lon="7.24317">
        <ele>1593.679565</ele>
        <time>2016-01-17T12:07:24.000Z</time>
      </trkpt>
      <trkpt lat="43.95053" lon="7.24317">
        <ele>1593.685059</ele>
        <time>2016-01-17T12:07:29.000Z</time>
      </trkpt>
      <trkpt lat="43.95053" lon="7.24317">
        <ele>1593.683594</ele>
        <time>2016-01-17T12:07:34.000Z</time>
      </trkpt>
      <trkpt lat="43.95053" lon="7.24317">
        <ele>1593.686523</ele>
        <time>2016-01-17T12:07:39.000Z</time>
      </trkpt>
      <trkpt lat="43.95053" lon="7.24317">
        <ele>1593.689575</ele>
        <time>2016-01-17T12:07:44.000Z</time>
      </trkpt>
      <trkpt lat="43.95053" lon="7.24317">
        <ele>1593.701172</ele>
        <time>2016-01-17T12:07:49.000Z</time>
      </trkpt>
      <trkpt lat="43.95053" lon="7.24317">
        <ele>1593.70105</ele>
        <time>2016-01-17T12:07:54.000Z</time>
      </trkpt>
      <trkpt lat="43.95053" lon="7.24317">
        <ele>1593.698608</ele>
        <time>2016-01-17T12:07:59.000Z</time>
      </trkpt>
      <trkpt lat="43.95053" lon="7.24317">
        <ele>1593.698608</ele>
        <time>2016-01-17T12:08:04.000Z</time>
      </trkpt>
      <trkpt lat="43.95053" lon="7.24317">
        <ele>1593.702759</ele>
        <time>2016-01-17T12:08:09.000Z</time>
      </trkpt>
      <trkpt lat="43.95053" lon="7.24317">
        <ele>1593.713623</ele>
        <time>2016-01-17T12:08:14.000Z</time>
      </trkpt>
      <trkpt lat="43.95053" lon="7.24317">
        <ele>1593.71936</ele>
        <time>2016-01-17T12:08:19.000Z</time>
      </trkpt>
      <trkpt lat="43.95053" lon="7.24317">
        <ele>1593.724976</ele>
        <time>2016-01-17T12:08:24.000Z</time>
      </trkpt>
      <trkpt lat="43.95053" lon="7.24317">
        <ele>1593.72229</ele>
        <time>2016-01-17T12:08:29.000Z</time>
      </trkpt>
      <trkpt lat="43.95053" lon="7.24317">
        <ele>1593.726807</ele>
        <time>2016-01-17T12:08:34.000Z</time>
      </trkpt>
      <trkpt lat="43.95053" lon="7.24317">
        <ele>1593.736694</ele>
        <time>2016-01-17T12:08:39.000Z</time>
      </trkpt>
      <trkpt lat="43.95053" lon="7.24317">
        <ele>1593.740112</ele>
        <time>2016-01-17T12:08:44.000Z</time>
      </trkpt>
      <trkpt lat="43.95053" lon="7.24317">
        <ele>1593.749512</ele>
        <time>2016-01-17T12:08:49.000Z</time>
      </trkpt>
      <trkpt lat="43.95053" lon="7.24317">
        <ele>1593.760986</ele>
        <time>2016-01-17T12:08:54.000Z</time>
      </trkpt>
      <trkpt lat="43.95053" lon="7.24317">
        <ele>1593.762329</ele>
        <time>2016-01-17T12:08:59.000Z</time>
      </trkpt>
      <trkpt lat="43.95053" lon="7.24317">
        <ele>1593.768188</ele>
        <time>2016-01-17T12:09:04.000Z</time>
      </trkpt>
      <trkpt lat="43.95053" lon="7.24317">
        <ele>1593.773071</ele>
        <time>2016-01-17T12:09:09.000Z</time>
      </trkpt>
      <trkpt lat="43.95053" lon="7.24317">
        <ele>1593.771362</ele>
        <time>2016-01-17T12:09:14.000Z</time>
      </trkpt>
      <trkpt lat="43.95053" lon="7.24317">
        <ele>1593.777222</ele>
        <time>2016-01-17T12:09:19.000Z</time>
      </trkpt>
      <trkpt lat="43.95053" lon="7.24317">
        <ele>1593.785889</ele>
        <time>2016-01-17T12:09:24.000Z</time>
      </trkpt>
      <trkpt lat="43.95053" lon="7.24317">
        <ele>1593.790039</ele>
        <time>2016-01-17T12:09:29.000Z</time>
      </trkpt>
      <trkpt lat="43.95053" lon="7.24316">
        <ele>1593.800049</ele>
        <time>2016-01-17T12:09:34.000Z</time>
      </trkpt>
      <trkpt lat="43.95053" lon="7.24316">
        <ele>1593.811523</ele>
        <time>2016-01-17T12:09:39.000Z</time>
      </trkpt>
      <trkpt lat="43.95053" lon="7.24316">
        <ele>1593.819702</ele>
        <time>2016-01-17T12:09:44.000Z</time>
      </trkpt>
      <trkpt lat="43.95053" lon="7.24316">
        <ele>1593.81958</ele>
        <time>2016-01-17T12:09:49.000Z</time>
      </trkpt>
      <trkpt lat="43.95053" lon="7.24316">
        <ele>1593.82251</ele>
        <time>2016-01-17T12:09:54.000Z</time>
      </trkpt>
      <trkpt lat="43.95053" lon="7.24316">
        <ele>1593.825806</ele>
        <time>2016-01-17T12:09:59.000Z</time>
      </trkpt>
      <trkpt lat="43.95053" lon="7.24316">
        <ele>1593.825073</ele>
        <time>2016-01-17T12:10:04.000Z</time>
      </trkpt>
      <trkpt lat="43.95053" lon="7.24316">
        <ele>1593.830566</ele>
        <time>2016-01-17T12:10:09.000Z</time>
      </trkpt>
      <trkpt lat="43.95053" lon="7.24315">
        <ele>1594.257324</ele>
        <time>2016-01-17T12:10:14.000Z</time>
      </trkpt>
      <trkpt lat="43.95055" lon="7.24312">
        <ele>1593.125488</ele>
        <time>2016-01-17T12:10:19.000Z</time>
      </trkpt>
      <trkpt lat="43.95055" lon="7.24311">
        <ele>1592.980591</ele>
        <time>2016-01-17T12:10:24.000Z</time>
      </trkpt>
      <trkpt lat="43.95055" lon="7.24312">
        <ele>1592.981201</ele>
        <time>2016-01-17T12:10:29.000Z</time>
      </trkpt>
      <trkpt lat="43.95056" lon="7.24311">
        <ele>1592.962646</ele>
        <time>2016-01-17T12:10:34.000Z</time>
      </trkpt>
      <trkpt lat="43.95056" lon="7.24312">
        <ele>1592.82312</ele>
        <time>2016-01-17T12:10:39.000Z</time>
      </trkpt>
      <trkpt lat="43.95055" lon="7.24312">
        <ele>1592.927979</ele>
        <time>2016-01-17T12:10:44.000Z</time>
      </trkpt>
      <trkpt lat="43.95055" lon="7.24312">
        <ele>1592.940186</ele>
        <time>2016-01-17T12:10:49.000Z</time>
      </trkpt>
      <trkpt lat="43.95055" lon="7.24312">
        <ele>1592.938232</ele>
        <time>2016-01-17T12:10:54.000Z</time>
      </trkpt>
      <trkpt lat="43.95055" lon="7.24312">
        <ele>1592.938477</ele>
        <time>2016-01-17T12:10:59.000Z</time>
      </trkpt>
      <trkpt lat="43.95055" lon="7.24312">
        <ele>1592.938477</ele>
        <time>2016-01-17T12:11:04.000Z</time>
      </trkpt>
      <trkpt lat="43.95055" lon="7.24312">
        <ele>1592.936401</ele>
        <time>2016-01-17T12:11:09.000Z</time>
      </trkpt>
      <trkpt lat="43.95051" lon="7.24313">
        <ele>1591.719849</ele>
        <time>2016-01-17T12:11:14.000Z</time>
      </trkpt>
      <trkpt lat="43.95048" lon="7.24315">
        <ele>1590.614136</ele>
        <time>2016-01-17T12:11:19.000Z</time>
      </trkpt>
      <trkpt lat="43.95042" lon="7.2432">
        <ele>1589.018799</ele>
        <time>2016-01-17T12:11:24.000Z</time>
      </trkpt>
      <trkpt lat="43.95039" lon="7.24323">
        <ele>1587.509888</ele>
        <time>2016-01-17T12:11:29.000Z</time>
      </trkpt>
      <trkpt lat="43.95028" lon="7.24331">
        <ele>1584.628296</ele>
        <time>2016-01-17T12:11:34.000Z</time>
      </trkpt>
      <trkpt lat="43.95018" lon="7.24338">
        <ele>1582.055664</ele>
        <time>2016-01-17T12:11:39.000Z</time>
      </trkpt>
      <trkpt lat="43.95015" lon="7.24344">
        <ele>1580.238525</ele>
        <time>2016-01-17T12:11:44.000Z</time>
      </trkpt>
      <trkpt lat="43.9501" lon="7.24348">
        <ele>1578.315186</ele>
        <time>2016-01-17T12:11:49.000Z</time>
      </trkpt>
      <trkpt lat="43.95002" lon="7.24355">
        <ele>1575.72522</ele>
        <time>2016-01-17T12:11:54.000Z</time>
      </trkpt>
      <trkpt lat="43.94991" lon="7.24361">
        <ele>1572.670532</ele>
        <time>2016-01-17T12:11:59.000Z</time>
      </trkpt>
      <trkpt lat="43.9498" lon="7.24362">
        <ele>1571.477539</ele>
        <time>2016-01-17T12:12:04.000Z</time>
      </trkpt>
      <trkpt lat="43.94968" lon="7.24356">
        <ele>1570.836304</ele>
        <time>2016-01-17T12:12:09.000Z</time>
      </trkpt>
      <trkpt lat="43.94956" lon="7.24347">
        <ele>1571.150879</ele>
        <time>2016-01-17T12:12:14.000Z</time>
      </trkpt>
      <trkpt lat="43.94944" lon="7.2434">
        <ele>1571.219604</ele>
        <time>2016-01-17T12:12:19.000Z</time>
      </trkpt>
      <trkpt lat="43.94935" lon="7.24342">
        <ele>1570.106445</ele>
        <time>2016-01-17T12:12:24.000Z</time>
      </trkpt>
      <trkpt lat="43.94928" lon="7.2435">
        <ele>1568.444946</ele>
        <time>2016-01-17T12:12:29.000Z</time>
      </trkpt>
      <trkpt lat="43.94921" lon="7.2436">
        <ele>1567.453003</ele>
        <time>2016-01-17T12:12:34.000Z</time>
      </trkpt>
      <trkpt lat="43.94921" lon="7.24361">
        <ele>1567.21936</ele>
        <time>2016-01-17T12:12:39.000Z</time>
      </trkpt>
      <trkpt lat="43.94921" lon="7.2436">
        <ele>1567.130859</ele>
        <time>2016-01-17T12:12:44.000Z</time>
      </trkpt>
      <trkpt lat="43.94921" lon="7.2436">
        <ele>1567.101685</ele>
        <time>2016-01-17T12:12:49.000Z</time>
      </trkpt>
      <trkpt lat="43.94921" lon="7.2436">
        <ele>1567.076416</ele>
        <time>2016-01-17T12:12:54.000Z</time>
      </trkpt>
      <trkpt lat="43.94921" lon="7.2436">
        <ele>1567.07666</ele>
        <time>2016-01-17T12:12:59.000Z</time>
      </trkpt>
      <trkpt lat="43.94921" lon="7.24361">
        <ele>1567.081543</ele>
        <time>2016-01-17T12:13:04.000Z</time>
      </trkpt>
      <trkpt lat="43.94913" lon="7.24374">
        <ele>1564.689941</ele>
        <time>2016-01-17T12:13:09.000Z</time>
      </trkpt>
      <trkpt lat="43.94901" lon="7.24387">
        <ele>1561.945679</ele>
        <time>2016-01-17T12:13:14.000Z</time>
      </trkpt>
      <trkpt lat="43.94893" lon="7.24396">
        <ele>1559.299194</ele>
        <time>2016-01-17T12:13:19.000Z</time>
      </trkpt>
      <trkpt lat="43.94892" lon="7.24396">
        <ele>1559.50061</ele>
        <time>2016-01-17T12:13:24.000Z</time>
      </trkpt>
      <trkpt lat="43.94887" lon="7.24397">
        <ele>1558.324463</ele>
        <time>2016-01-17T12:13:29.000Z</time>
      </trkpt>
      <trkpt lat="43.94885" lon="7.24398">
        <ele>1557.537354</ele>
        <time>2016-01-17T12:13:34.000Z</time>
      </trkpt>
      <trkpt lat="43.94882" lon="7.24398">
        <ele>1556.471558</ele>
        <time>2016-01-17T12:13:39.000Z</time>
      </trkpt>
      <trkpt lat="43.9488" lon="7.24397">
        <ele>1555.511475</ele>
        <time>2016-01-17T12:13:44.000Z</time>
      </trkpt>
      <trkpt lat="43.94875" lon="7.24398">
        <ele>1553.723267</ele>
        <time>2016-01-17T12:13:49.000Z</time>
      </trkpt>
      <trkpt lat="43.94872" lon="7.24395">
        <ele>1553.43396</ele>
        <time>2016-01-17T12:13:54.000Z</time>
      </trkpt>
      <trkpt lat="43.94878" lon="7.24388">
        <ele>1552.188477</ele>
        <time>2016-01-17T12:13:59.000Z</time>
      </trkpt>
      <trkpt lat="43.9488" lon="7.24382">
        <ele>1550.713379</ele>
        <time>2016-01-17T12:14:04.000Z</time>
      </trkpt>
      <trkpt lat="43.94881" lon="7.24378">
        <ele>1549.604248</ele>
        <time>2016-01-17T12:14:09.000Z</time>
      </trkpt>
      <trkpt lat="43.94878" lon="7.24378">
        <ele>1548.612427</ele>
        <time>2016-01-17T12:14:14.000Z</time>
      </trkpt>
      <trkpt lat="43.94882" lon="7.24373">
        <ele>1547.423462</ele>
        <time>2016-01-17T12:14:19.000Z</time>
      </trkpt>
      <trkpt lat="43.94887" lon="7.24362">
        <ele>1545.790527</ele>
        <time>2016-01-17T12:14:24.000Z</time>
      </trkpt>
      <trkpt lat="43.94889" lon="7.24349">
        <ele>1543.959717</ele>
        <time>2016-01-17T12:14:29.000Z</time>
      </trkpt>
      <trkpt lat="43.9489" lon="7.24344">
        <ele>1543.245361</ele>
        <time>2016-01-17T12:14:34.000Z</time>
      </trkpt>
      <trkpt lat="43.94891" lon="7.24333">
        <ele>1541.087524</ele>
        <time>2016-01-17T12:14:39.000Z</time>
      </trkpt>
      <trkpt lat="43.9489" lon="7.24333">
        <ele>1539.940552</ele>
        <time>2016-01-17T12:14:44.000Z</time>
      </trkpt>
      <trkpt lat="43.94887" lon="7.24338">
        <ele>1539.014404</ele>
        <time>2016-01-17T12:14:49.000Z</time>
      </trkpt>
      <trkpt lat="43.94884" lon="7.24345">
        <ele>1537.969604</ele>
        <time>2016-01-17T12:14:54.000Z</time>
      </trkpt>
      <trkpt lat="43.94882" lon="7.24346">
        <ele>1536.232666</ele>
        <time>2016-01-17T12:14:59.000Z</time>
      </trkpt>
      <trkpt lat="43.94883" lon="7.24341">
        <ele>1535.873779</ele>
        <time>2016-01-17T12:15:04.000Z</time>
      </trkpt>
      <trkpt lat="43.94883" lon="7.24339">
        <ele>1535.571777</ele>
        <time>2016-01-17T12:15:09.000Z</time>
      </trkpt>
      <trkpt lat="43.94884" lon="7.24337">
        <ele>1535.540161</ele>
        <time>2016-01-17T12:15:14.000Z</time>
      </trkpt>
      <trkpt lat="43.94883" lon="7.24332">
        <ele>1535.221924</ele>
        <time>2016-01-17T12:15:19.000Z</time>
      </trkpt>
      <trkpt lat="43.9488" lon="7.2433">
        <ele>1536.646484</ele>
        <time>2016-01-17T12:15:24.000Z</time>
      </trkpt>
      <trkpt lat="43.94872" lon="7.24338">
        <ele>1534.178345</ele>
        <time>2016-01-17T12:15:29.000Z</time>
      </trkpt>
      <trkpt lat="43.94864" lon="7.24353">
        <ele>1532.077759</ele>
        <time>2016-01-17T12:15:34.000Z</time>
      </trkpt>
      <trkpt lat="43.94849" lon="7.24372">
        <ele>1528.595703</ele>
        <time>2016-01-17T12:15:39.000Z</time>
      </trkpt>
      <trkpt lat="43.94833" lon="7.24386">
        <ele>1526.100708</ele>
        <time>2016-01-17T12:15:44.000Z</time>
      </trkpt>
      <trkpt lat="43.94823" lon="7.24397">
        <ele>1525.305786</ele>
        <time>2016-01-17T12:15:49.000Z</time>
      </trkpt>
      <trkpt lat="43.9481" lon="7.24409">
        <ele>1522.394043</ele>
        <time>2016-01-17T12:15:54.000Z</time>
      </trkpt>
      <trkpt lat="43.94799" lon="7.24416">
        <ele>1518.549805</ele>
        <time>2016-01-17T12:15:59.000Z</time>
      </trkpt>
      <trkpt lat="43.94791" lon="7.24423">
        <ele>1515.190552</ele>
        <time>2016-01-17T12:16:04.000Z</time>
      </trkpt>
      <trkpt lat="43.94788" lon="7.24419">
        <ele>1512.980591</ele>
        <time>2016-01-17T12:16:09.000Z</time>
      </trkpt>
      <trkpt lat="43.94793" lon="7.24405">
        <ele>1511.480835</ele>
        <time>2016-01-17T12:16:14.000Z</time>
      </trkpt>
      <trkpt lat="43.94798" lon="7.24394">
        <ele>1507.384644</ele>
        <time>2016-01-17T12:16:19.000Z</time>
      </trkpt>
      <trkpt lat="43.94792" lon="7.24394">
        <ele>1504.977539</ele>
        <time>2016-01-17T12:16:24.000Z</time>
      </trkpt>
      <trkpt lat="43.94781" lon="7.244">
        <ele>1501.937988</ele>
        <time>2016-01-17T12:16:29.000Z</time>
      </trkpt>
      <trkpt lat="43.94776" lon="7.24401">
        <ele>1499.948242</ele>
        <time>2016-01-17T12:16:34.000Z</time>
      </trkpt>
      <trkpt lat="43.94778" lon="7.2439">
        <ele>1497.932739</ele>
        <time>2016-01-17T12:16:39.000Z</time>
      </trkpt>
      <trkpt lat="43.94782" lon="7.24375">
        <ele>1494.919189</ele>
        <time>2016-01-17T12:16:44.000Z</time>
      </trkpt>
      <trkpt lat="43.94784" lon="7.24366">
        <ele>1491.971924</ele>
        <time>2016-01-17T12:16:49.000Z</time>
      </trkpt>
      <trkpt lat="43.94775" lon="7.24367">
        <ele>1489.177124</ele>
        <time>2016-01-17T12:16:54.000Z</time>
      </trkpt>
      <trkpt lat="43.94768" lon="7.2437">
        <ele>1486.286743</ele>
        <time>2016-01-17T12:16:59.000Z</time>
      </trkpt>
      <trkpt lat="43.94765" lon="7.24369">
        <ele>1484.828613</ele>
        <time>2016-01-17T12:17:04.000Z</time>
      </trkpt>
      <trkpt lat="43.9476" lon="7.24373">
        <ele>1482.181396</ele>
        <time>2016-01-17T12:17:09.000Z</time>
      </trkpt>
      <trkpt lat="43.94758" lon="7.24376">
        <ele>1480.517944</ele>
        <time>2016-01-17T12:17:14.000Z</time>
      </trkpt>
      <trkpt lat="43.94757" lon="7.24377">
        <ele>1480.113403</ele>
        <time>2016-01-17T12:17:19.000Z</time>
      </trkpt>
      <trkpt lat="43.94757" lon="7.24375">
        <ele>1479.594849</ele>
        <time>2016-01-17T12:17:24.000Z</time>
      </trkpt>
      <trkpt lat="43.94756" lon="7.24365">
        <ele>1477.514282</ele>
        <time>2016-01-17T12:17:29.000Z</time>
      </trkpt>
      <trkpt lat="43.94756" lon="7.24361">
        <ele>1476.37793</ele>
        <time>2016-01-17T12:17:34.000Z</time>
      </trkpt>
      <trkpt lat="43.94758" lon="7.24357">
        <ele>1475.473389</ele>
        <time>2016-01-17T12:17:39.000Z</time>
      </trkpt>
      <trkpt lat="43.9476" lon="7.24352">
        <ele>1474.655396</ele>
        <time>2016-01-17T12:17:44.000Z</time>
      </trkpt>
      <trkpt lat="43.94758" lon="7.24348">
        <ele>1474.993408</ele>
        <time>2016-01-17T12:17:49.000Z</time>
      </trkpt>
      <trkpt lat="43.94755" lon="7.24348">
        <ele>1474.904785</ele>
        <time>2016-01-17T12:17:54.000Z</time>
      </trkpt>
      <trkpt lat="43.94748" lon="7.24351">
        <ele>1472.113525</ele>
        <time>2016-01-17T12:17:59.000Z</time>
      </trkpt>
      <trkpt lat="43.94744" lon="7.24354">
        <ele>1469.363403</ele>
        <time>2016-01-17T12:18:04.000Z</time>
      </trkpt>
      <trkpt lat="43.94739" lon="7.24356">
        <ele>1467.167603</ele>
        <time>2016-01-17T12:18:09.000Z</time>
      </trkpt>
      <trkpt lat="43.94733" lon="7.24358">
        <ele>1465.062744</ele>
        <time>2016-01-17T12:18:14.000Z</time>
      </trkpt>
      <trkpt lat="43.9473" lon="7.2435">
        <ele>1461.400146</ele>
        <time>2016-01-17T12:18:19.000Z</time>
      </trkpt>
      <trkpt lat="43.94726" lon="7.24359">
        <ele>1459.486572</ele>
        <time>2016-01-17T12:18:24.000Z</time>
      </trkpt>
      <trkpt lat="43.9472" lon="7.24352">
        <ele>1457.169189</ele>
        <time>2016-01-17T12:18:29.000Z</time>
      </trkpt>
      <trkpt lat="43.94717" lon="7.24356">
        <ele>1454.828857</ele>
        <time>2016-01-17T12:18:34.000Z</time>
      </trkpt>
      <trkpt lat="43.94715" lon="7.2435">
        <ele>1453.142456</ele>
        <time>2016-01-17T12:18:39.000Z</time>
      </trkpt>
      <trkpt lat="43.94714" lon="7.2435">
        <ele>1452.917114</ele>
        <time>2016-01-17T12:18:44.000Z</time>
      </trkpt>
      <trkpt lat="43.94713" lon="7.2435">
        <ele>1452.330444</ele>
        <time>2016-01-17T12:18:49.000Z</time>
      </trkpt>
      <trkpt lat="43.94712" lon="7.2435">
        <ele>1452.176392</ele>
        <time>2016-01-17T12:18:54.000Z</time>
      </trkpt>
      <trkpt lat="43.94713" lon="7.2435">
        <ele>1452.085205</ele>
        <time>2016-01-17T12:18:59.000Z</time>
      </trkpt>
      <trkpt lat="43.94712" lon="7.2435">
        <ele>1452.145142</ele>
        <time>2016-01-17T12:19:04.000Z</time>
      </trkpt>
      <trkpt lat="43.94713" lon="7.2435">
        <ele>1452.082275</ele>
        <time>2016-01-17T12:19:09.000Z</time>
      </trkpt>
      <trkpt lat="43.94713" lon="7.2435">
        <ele>1452.057983</ele>
        <time>2016-01-17T12:19:14.000Z</time>
      </trkpt>
      <trkpt lat="43.94712" lon="7.2435">
        <ele>1452.036865</ele>
        <time>2016-01-17T12:19:19.000Z</time>
      </trkpt>
      <trkpt lat="43.94712" lon="7.2435">
        <ele>1452.018188</ele>
        <time>2016-01-17T12:19:24.000Z</time>
      </trkpt>
      <trkpt lat="43.94712" lon="7.2435">
        <ele>1452.020874</ele>
        <time>2016-01-17T12:19:29.000Z</time>
      </trkpt>
      <trkpt lat="43.94713" lon="7.24351">
        <ele>1452.154419</ele>
        <time>2016-01-17T12:19:34.000Z</time>
      </trkpt>
      <trkpt lat="43.94713" lon="7.24351">
        <ele>1452.146484</ele>
        <time>2016-01-17T12:19:39.000Z</time>
      </trkpt>
      <trkpt lat="43.94712" lon="7.24351">
        <ele>1452.096558</ele>
        <time>2016-01-17T12:19:44.000Z</time>
      </trkpt>
      <trkpt lat="43.94712" lon="7.24351">
        <ele>1452.087891</ele>
        <time>2016-01-17T12:19:49.000Z</time>
      </trkpt>
      <trkpt lat="43.94712" lon="7.24351">
        <ele>1452.080933</ele>
        <time>2016-01-17T12:19:54.000Z</time>
      </trkpt>
      <trkpt lat="43.94712" lon="7.24351">
        <ele>1452.156372</ele>
        <time>2016-01-17T12:19:59.000Z</time>
      </trkpt>
      <trkpt lat="43.94711" lon="7.24343">
        <ele>1450.197754</ele>
        <time>2016-01-17T12:20:04.000Z</time>
      </trkpt>
      <trkpt lat="43.94711" lon="7.24342">
        <ele>1450.688354</ele>
        <time>2016-01-17T12:20:09.000Z</time>
      </trkpt>
      <trkpt lat="43.94711" lon="7.24345">
        <ele>1451.293457</ele>
        <time>2016-01-17T12:20:14.000Z</time>
      </trkpt>
      <trkpt lat="43.94711" lon="7.24351">
        <ele>1452.590698</ele>
        <time>2016-01-17T12:20:19.000Z</time>
      </trkpt>
      <trkpt lat="43.94711" lon="7.24345">
        <ele>1450.820679</ele>
        <time>2016-01-17T12:20:24.000Z</time>
      </trkpt>
      <trkpt lat="43.94712" lon="7.24341">
        <ele>1450.397461</ele>
        <time>2016-01-17T12:20:29.000Z</time>
      </trkpt>
      <trkpt lat="43.94712" lon="7.24341">
        <ele>1450.129395</ele>
        <time>2016-01-17T12:20:34.000Z</time>
      </trkpt>
      <trkpt lat="43.94711" lon="7.24341">
        <ele>1450.091187</ele>
        <time>2016-01-17T12:20:39.000Z</time>
      </trkpt>
      <trkpt lat="43.94711" lon="7.24341">
        <ele>1451.421265</ele>
        <time>2016-01-17T12:20:44.000Z</time>
      </trkpt>
      <trkpt lat="43.94706" lon="7.24346">
        <ele>1449.588989</ele>
        <time>2016-01-17T12:20:49.000Z</time>
      </trkpt>
      <trkpt lat="43.94701" lon="7.24344">
        <ele>1447.670898</ele>
        <time>2016-01-17T12:20:54.000Z</time>
      </trkpt>
      <trkpt lat="43.94701" lon="7.24339">
        <ele>1446.185791</ele>
        <time>2016-01-17T12:20:59.000Z</time>
      </trkpt>
      <trkpt lat="43.94695" lon="7.2434">
        <ele>1444.10144</ele>
        <time>2016-01-17T12:21:04.000Z</time>
      </trkpt>
      <trkpt lat="43.94698" lon="7.24328">
        <ele>1440.166748</ele>
        <time>2016-01-17T12:21:09.000Z</time>
      </trkpt>
      <trkpt lat="43.94695" lon="7.2432">
        <ele>1437.810425</ele>
        <time>2016-01-17T12:21:14.000Z</time>
      </trkpt>
      <trkpt lat="43.94684" lon="7.24322">
        <ele>1435.54541</ele>
        <time>2016-01-17T12:21:19.000Z</time>
      </trkpt>
      <trkpt lat="43.94681" lon="7.24323">
        <ele>1434.798828</ele>
        <time>2016-01-17T12:21:24.000Z</time>
      </trkpt>
      <trkpt lat="43.94678" lon="7.2432">
        <ele>1433.702148</ele>
        <time>2016-01-17T12:21:29.000Z</time>
      </trkpt>
      <trkpt lat="43.94675" lon="7.2432">
        <ele>1432.227295</ele>
        <time>2016-01-17T12:21:34.000Z</time>
      </trkpt>
      <trkpt lat="43.94675" lon="7.24316">
        <ele>1431.673096</ele>
        <time>2016-01-17T12:21:39.000Z</time>
      </trkpt>
      <trkpt lat="43.94678" lon="7.24312">
        <ele>1431.349243</ele>
        <time>2016-01-17T12:21:44.000Z</time>
      </trkpt>
      <trkpt lat="43.94678" lon="7.24311">
        <ele>1431.236694</ele>
        <time>2016-01-17T12:21:49.000Z</time>
      </trkpt>
      <trkpt lat="43.94677" lon="7.2431">
        <ele>1430.208984</ele>
        <time>2016-01-17T12:21:54.000Z</time>
      </trkpt>
      <trkpt lat="43.94678" lon="7.24304">
        <ele>1429.177368</ele>
        <time>2016-01-17T12:21:59.000Z</time>
      </trkpt>
      <trkpt lat="43.94677" lon="7.24297">
        <ele>1428.642456</ele>
        <time>2016-01-17T12:22:04.000Z</time>
      </trkpt>
      <trkpt lat="43.94677" lon="7.24297">
        <ele>1428.614624</ele>
        <time>2016-01-17T12:22:09.000Z</time>
      </trkpt>
      <trkpt lat="43.9467" lon="7.24296">
        <ele>1426.230469</ele>
        <time>2016-01-17T12:22:14.000Z</time>
      </trkpt>
      <trkpt lat="43.9466" lon="7.24291">
        <ele>1423.277344</ele>
        <time>2016-01-17T12:22:19.000Z</time>
      </trkpt>
      <trkpt lat="43.94645" lon="7.24277">
        <ele>1419.806396</ele>
        <time>2016-01-17T12:22:24.000Z</time>
      </trkpt>
      <trkpt lat="43.94633" lon="7.24258">
        <ele>1418.406128</ele>
        <time>2016-01-17T12:22:29.000Z</time>
      </trkpt>
      <trkpt lat="43.94628" lon="7.24246">
        <ele>1418.081421</ele>
        <time>2016-01-17T12:22:34.000Z</time>
      </trkpt>
      <trkpt lat="43.94619" lon="7.2423">
        <ele>1417.586304</ele>
        <time>2016-01-17T12:22:39.000Z</time>
      </trkpt>
      <trkpt lat="43.94612" lon="7.24215">
        <ele>1416.266602</ele>
        <time>2016-01-17T12:22:44.000Z</time>
      </trkpt>
      <trkpt lat="43.94605" lon="7.24204">
        <ele>1415.052368</ele>
        <time>2016-01-17T12:22:49.000Z</time>
      </trkpt>
      <trkpt lat="43.94595" lon="7.24186">
        <ele>1413.605225</ele>
        <time>2016-01-17T12:22:54.000Z</time>
      </trkpt>
      <trkpt lat="43.94587" lon="7.24172">
        <ele>1411.735352</ele>
        <time>2016-01-17T12:22:59.000Z</time>
      </trkpt>
      <trkpt lat="43.94579" lon="7.24151">
        <ele>1408.209717</ele>
        <time>2016-01-17T12:23:04.000Z</time>
      </trkpt>
      <trkpt lat="43.94568" lon="7.24136">
        <ele>1408.110596</ele>
        <time>2016-01-17T12:23:09.000Z</time>
      </trkpt>
      <trkpt lat="43.94562" lon="7.24126">
        <ele>1408.376221</ele>
        <time>2016-01-17T12:23:14.000Z</time>
      </trkpt>
      <trkpt lat="43.94557" lon="7.24113">
        <ele>1409.172852</ele>
        <time>2016-01-17T12:23:19.000Z</time>
      </trkpt>
      <trkpt lat="43.94555" lon="7.24101">
        <ele>1409.79834</ele>
        <time>2016-01-17T12:23:24.000Z</time>
      </trkpt>
      <trkpt lat="43.94556" lon="7.24088">
        <ele>1409.449707</ele>
        <time>2016-01-17T12:23:29.000Z</time>
      </trkpt>
      <trkpt lat="43.94558" lon="7.24072">
        <ele>1408.384521</ele>
        <time>2016-01-17T12:23:34.000Z</time>
      </trkpt>
      <trkpt lat="43.9456" lon="7.24056">
        <ele>1408.540894</ele>
        <time>2016-01-17T12:23:39.000Z</time>
      </trkpt>
      <trkpt lat="43.94558" lon="7.24043">
        <ele>1408.232422</ele>
        <time>2016-01-17T12:23:44.000Z</time>
      </trkpt>
      <trkpt lat="43.94557" lon="7.24034">
        <ele>1408.30896</ele>
        <time>2016-01-17T12:23:49.000Z</time>
      </trkpt>
      <trkpt lat="43.94555" lon="7.24017">
        <ele>1406.998291</ele>
        <time>2016-01-17T12:23:54.000Z</time>
      </trkpt>
      <trkpt lat="43.9455" lon="7.23998">
        <ele>1407.440063</ele>
        <time>2016-01-17T12:23:59.000Z</time>
      </trkpt>
      <trkpt lat="43.94548" lon="7.23984">
        <ele>1409.004272</ele>
        <time>2016-01-17T12:24:04.000Z</time>
      </trkpt>
      <trkpt lat="43.94548" lon="7.23979">
        <ele>1409.796265</ele>
        <time>2016-01-17T12:24:09.000Z</time>
      </trkpt>
      <trkpt lat="43.94546" lon="7.23976">
        <ele>1409.79126</ele>
        <time>2016-01-17T12:24:14.000Z</time>
      </trkpt>
      <trkpt lat="43.94545" lon="7.23976">
        <ele>1410.190308</ele>
        <time>2016-01-17T12:24:19.000Z</time>
      </trkpt>
      <trkpt lat="43.94536" lon="7.23979">
        <ele>1409.376465</ele>
        <time>2016-01-17T12:24:24.000Z</time>
      </trkpt>
      <trkpt lat="43.94526" lon="7.23985">
        <ele>1407.834595</ele>
        <time>2016-01-17T12:24:29.000Z</time>
      </trkpt>
      <trkpt lat="43.94512" lon="7.23992">
        <ele>1406.927734</ele>
        <time>2016-01-17T12:24:34.000Z</time>
      </trkpt>
      <trkpt lat="43.94494" lon="7.24003">
        <ele>1404.814941</ele>
        <time>2016-01-17T12:24:39.000Z</time>
      </trkpt>
      <trkpt lat="43.94467" lon="7.24014">
        <ele>1401.46167</ele>
        <time>2016-01-17T12:24:44.000Z</time>
      </trkpt>
      <trkpt lat="43.94443" lon="7.24016">
        <ele>1402.16748</ele>
        <time>2016-01-17T12:24:49.000Z</time>
      </trkpt>
      <trkpt lat="43.94428" lon="7.24012">
        <ele>1401.838501</ele>
        <time>2016-01-17T12:24:54.000Z</time>
      </trkpt>
      <trkpt lat="43.94413" lon="7.24009">
        <ele>1402.340576</ele>
        <time>2016-01-17T12:24:59.000Z</time>
      </trkpt>
      <trkpt lat="43.94396" lon="7.2401">
        <ele>1401.552734</ele>
        <time>2016-01-17T12:25:04.000Z</time>
      </trkpt>
      <trkpt lat="43.94375" lon="7.2401">
        <ele>1401.669434</ele>
        <time>2016-01-17T12:25:09.000Z</time>
      </trkpt>
      <trkpt lat="43.94357" lon="7.24008">
        <ele>1402.096436</ele>
        <time>2016-01-17T12:25:14.000Z</time>
      </trkpt>
      <trkpt lat="43.94338" lon="7.24007">
        <ele>1402.941162</ele>
        <time>2016-01-17T12:25:19.000Z</time>
      </trkpt>
      <trkpt lat="43.94317" lon="7.24005">
        <ele>1400.502686</ele>
        <time>2016-01-17T12:25:24.000Z</time>
      </trkpt>
      <trkpt lat="43.94297" lon="7.23998">
        <ele>1398.946411</ele>
        <time>2016-01-17T12:25:29.000Z</time>
      </trkpt>
      <trkpt lat="43.94274" lon="7.23991">
        <ele>1398.190186</ele>
        <time>2016-01-17T12:25:34.000Z</time>
      </trkpt>
      <trkpt lat="43.94248" lon="7.23984">
        <ele>1395.128784</ele>
        <time>2016-01-17T12:25:39.000Z</time>
      </trkpt>
      <trkpt lat="43.94233" lon="7.23953">
        <ele>1391.007935</ele>
        <time>2016-01-17T12:25:44.000Z</time>
      </trkpt>
      <trkpt lat="43.94234" lon="7.23913">
        <ele>1388.404175</ele>
        <time>2016-01-17T12:25:49.000Z</time>
      </trkpt>
      <trkpt lat="43.94233" lon="7.23889">
        <ele>1386.901611</ele>
        <time>2016-01-17T12:25:54.000Z</time>
      </trkpt>
      <trkpt lat="43.94242" lon="7.23856">
        <ele>1384.868774</ele>
        <time>2016-01-17T12:25:59.000Z</time>
      </trkpt>
      <trkpt lat="43.9425" lon="7.23811">
        <ele>1381.420654</ele>
        <time>2016-01-17T12:26:04.000Z</time>
      </trkpt>
      <trkpt lat="43.94261" lon="7.23769">
        <ele>1378.359497</ele>
        <time>2016-01-17T12:26:09.000Z</time>
      </trkpt>
      <trkpt lat="43.94264" lon="7.23759">
        <ele>1378.16333</ele>
        <time>2016-01-17T12:26:14.000Z</time>
      </trkpt>
      <trkpt lat="43.94266" lon="7.23757">
        <ele>1378.091064</ele>
        <time>2016-01-17T12:26:19.000Z</time>
      </trkpt>
      <trkpt lat="43.94277" lon="7.23734">
        <ele>1376.157227</ele>
        <time>2016-01-17T12:26:24.000Z</time>
      </trkpt>
      <trkpt lat="43.94275" lon="7.23717">
        <ele>1373.660645</ele>
        <time>2016-01-17T12:26:29.000Z</time>
      </trkpt>
      <trkpt lat="43.94262" lon="7.23725">
        <ele>1372.114624</ele>
        <time>2016-01-17T12:26:34.000Z</time>
      </trkpt>
      <trkpt lat="43.9425" lon="7.23758">
        <ele>1368.998291</ele>
        <time>2016-01-17T12:26:39.000Z</time>
      </trkpt>
      <trkpt lat="43.94232" lon="7.23792">
        <ele>1365.06897</ele>
        <time>2016-01-17T12:26:44.000Z</time>
      </trkpt>
      <trkpt lat="43.94221" lon="7.23823">
        <ele>1361.635254</ele>
        <time>2016-01-17T12:26:49.000Z</time>
      </trkpt>
      <trkpt lat="43.94204" lon="7.23859">
        <ele>1357.73584</ele>
        <time>2016-01-17T12:26:54.000Z</time>
      </trkpt>
      <trkpt lat="43.94174" lon="7.23865">
        <ele>1353.850586</ele>
        <time>2016-01-17T12:26:59.000Z</time>
      </trkpt>
      <trkpt lat="43.9414" lon="7.23862">
        <ele>1349.640381</ele>
        <time>2016-01-17T12:27:04.000Z</time>
      </trkpt>
      <trkpt lat="43.94106" lon="7.23848">
        <ele>1345.003174</ele>
        <time>2016-01-17T12:27:09.000Z</time>
      </trkpt>
      <trkpt lat="43.94086" lon="7.23838">
        <ele>1342.470459</ele>
        <time>2016-01-17T12:27:14.000Z</time>
      </trkpt>
      <trkpt lat="43.94084" lon="7.23839">
        <ele>1342.024902</ele>
        <time>2016-01-17T12:27:19.000Z</time>
      </trkpt>
      <trkpt lat="43.94085" lon="7.23839">
        <ele>1341.98291</ele>
        <time>2016-01-17T12:27:24.000Z</time>
      </trkpt>
      <trkpt lat="43.94085" lon="7.23839">
        <ele>1341.977661</ele>
        <time>2016-01-17T12:27:29.000Z</time>
      </trkpt>
      <trkpt lat="43.94085" lon="7.23839">
        <ele>1341.956055</ele>
        <time>2016-01-17T12:27:34.000Z</time>
      </trkpt>
      <trkpt lat="43.94085" lon="7.23839">
        <ele>1341.952148</ele>
        <time>2016-01-17T12:27:39.000Z</time>
      </trkpt>
      <trkpt lat="43.94085" lon="7.23839">
        <ele>1341.921509</ele>
        <time>2016-01-17T12:27:44.000Z</time>
      </trkpt>
      <trkpt lat="43.94085" lon="7.23839">
        <ele>1341.927856</ele>
        <time>2016-01-17T12:27:49.000Z</time>
      </trkpt>
      <trkpt lat="43.94083" lon="7.23843">
        <ele>1341.682129</ele>
        <time>2016-01-17T12:27:54.000Z</time>
      </trkpt>
      <trkpt lat="43.94079" lon="7.23864">
        <ele>1339.383179</ele>
        <time>2016-01-17T12:27:59.000Z</time>
      </trkpt>
      <trkpt lat="43.94078" lon="7.23899">
        <ele>1335.630615</ele>
        <time>2016-01-17T12:28:04.000Z</time>
      </trkpt>
      <trkpt lat="43.94058" lon="7.23927">
        <ele>1331.350708</ele>
        <time>2016-01-17T12:28:09.000Z</time>
      </trkpt>
      <trkpt lat="43.94033" lon="7.23952">
        <ele>1326.668945</ele>
        <time>2016-01-17T12:28:14.000Z</time>
      </trkpt>
      <trkpt lat="43.94003" lon="7.23947">
        <ele>1321.856079</ele>
        <time>2016-01-17T12:28:19.000Z</time>
      </trkpt>
      <trkpt lat="43.93979" lon="7.23949">
        <ele>1319.367676</ele>
        <time>2016-01-17T12:28:24.000Z</time>
      </trkpt>
      <trkpt lat="43.93957" lon="7.23962">
        <ele>1318.5354</ele>
        <time>2016-01-17T12:28:29.000Z</time>
      </trkpt>
      <trkpt lat="43.93935" lon="7.23971">
        <ele>1317.776611</ele>
        <time>2016-01-17T12:28:34.000Z</time>
      </trkpt>
      <trkpt lat="43.93914" lon="7.23981">
        <ele>1317.982666</ele>
        <time>2016-01-17T12:28:39.000Z</time>
      </trkpt>
      <trkpt lat="43.93899" lon="7.23992">
        <ele>1317.981201</ele>
        <time>2016-01-17T12:28:44.000Z</time>
      </trkpt>
      <trkpt lat="43.93882" lon="7.23997">
        <ele>1318.060669</ele>
        <time>2016-01-17T12:28:49.000Z</time>
      </trkpt>
      <trkpt lat="43.93861" lon="7.23984">
        <ele>1316.155518</ele>
        <time>2016-01-17T12:28:54.000Z</time>
      </trkpt>
      <trkpt lat="43.93851" lon="7.23977">
        <ele>1314.823608</ele>
        <time>2016-01-17T12:28:59.000Z</time>
      </trkpt>
      <trkpt lat="43.93852" lon="7.23976">
        <ele>1314.947388</ele>
        <time>2016-01-17T12:29:04.000Z</time>
      </trkpt>
      <trkpt lat="43.93857" lon="7.23979">
        <ele>1315.694458</ele>
        <time>2016-01-17T12:29:09.000Z</time>
      </trkpt>
      <trkpt lat="43.93859" lon="7.23982">
        <ele>1315.775757</ele>
        <time>2016-01-17T12:29:14.000Z</time>
      </trkpt>
      <trkpt lat="43.93859" lon="7.23982">
        <ele>1315.723389</ele>
        <time>2016-01-17T12:29:19.000Z</time>
      </trkpt>
      <trkpt lat="43.93859" lon="7.23982">
        <ele>1315.846802</ele>
        <time>2016-01-17T12:29:24.000Z</time>
      </trkpt>
      <trkpt lat="43.93855" lon="7.23977">
        <ele>1317.574585</ele>
        <time>2016-01-17T12:29:29.000Z</time>
      </trkpt>
      <trkpt lat="43.93851" lon="7.23976">
        <ele>1318.021729</ele>
        <time>2016-01-17T12:29:34.000Z</time>
      </trkpt>
      <trkpt lat="43.93851" lon="7.23975">
        <ele>1318.275391</ele>
        <time>2016-01-17T12:29:39.000Z</time>
      </trkpt>
      <trkpt lat="43.93845" lon="7.2398">
        <ele>1317.742554</ele>
        <time>2016-01-17T12:29:44.000Z</time>
      </trkpt>
      <trkpt lat="43.93826" lon="7.23981">
        <ele>1315.593628</ele>
        <time>2016-01-17T12:29:49.000Z</time>
      </trkpt>
      <trkpt lat="43.93807" lon="7.23974">
        <ele>1313.180298</ele>
        <time>2016-01-17T12:29:54.000Z</time>
      </trkpt>
      <trkpt lat="43.93794" lon="7.23994">
        <ele>1309.832031</ele>
        <time>2016-01-17T12:29:59.000Z</time>
      </trkpt>
      <trkpt lat="43.93791" lon="7.24003">
        <ele>1307.679565</ele>
        <time>2016-01-17T12:30:04.000Z</time>
      </trkpt>
      <trkpt lat="43.93791" lon="7.24003">
        <ele>1307.611816</ele>
        <time>2016-01-17T12:30:09.000Z</time>
      </trkpt>
      <trkpt lat="43.93791" lon="7.24003">
        <ele>1307.540894</ele>
        <time>2016-01-17T12:30:14.000Z</time>
      </trkpt>
      <trkpt lat="43.93791" lon="7.24003">
        <ele>1307.533203</ele>
        <time>2016-01-17T12:30:19.000Z</time>
      </trkpt>
      <trkpt lat="43.93791" lon="7.24003">
        <ele>1307.524414</ele>
        <time>2016-01-17T12:30:24.000Z</time>
      </trkpt>
      <trkpt lat="43.93791" lon="7.24003">
        <ele>1307.501221</ele>
        <time>2016-01-17T12:30:29.000Z</time>
      </trkpt>
      <trkpt lat="43.93792" lon="7.24008">
        <ele>1306.723389</ele>
        <time>2016-01-17T12:30:34.000Z</time>
      </trkpt>
      <trkpt lat="43.93791" lon="7.24034">
        <ele>1303.277832</ele>
        <time>2016-01-17T12:30:39.000Z</time>
      </trkpt>
      <trkpt lat="43.93789" lon="7.2406">
        <ele>1299.867432</ele>
        <time>2016-01-17T12:30:44.000Z</time>
      </trkpt>
      <trkpt lat="43.93799" lon="7.2409">
        <ele>1297.168335</ele>
        <time>2016-01-17T12:30:49.000Z</time>
      </trkpt>
      <trkpt lat="43.93802" lon="7.24126">
        <ele>1294.914551</ele>
        <time>2016-01-17T12:30:54.000Z</time>
      </trkpt>
      <trkpt lat="43.93796" lon="7.24156">
        <ele>1291.673584</ele>
        <time>2016-01-17T12:30:59.000Z</time>
      </trkpt>
      <trkpt lat="43.93784" lon="7.24186">
        <ele>1288.621948</ele>
        <time>2016-01-17T12:31:04.000Z</time>
      </trkpt>
      <trkpt lat="43.9377" lon="7.24216">
        <ele>1286.505005</ele>
        <time>2016-01-17T12:31:09.000Z</time>
      </trkpt>
      <trkpt lat="43.93744" lon="7.24235">
        <ele>1284.27417</ele>
        <time>2016-01-17T12:31:14.000Z</time>
      </trkpt>
      <trkpt lat="43.93718" lon="7.24244">
        <ele>1282.099976</ele>
        <time>2016-01-17T12:31:19.000Z</time>
      </trkpt>
      <trkpt lat="43.93705" lon="7.24275">
        <ele>1280.519287</ele>
        <time>2016-01-17T12:31:24.000Z</time>
      </trkpt>
      <trkpt lat="43.9368" lon="7.24289">
        <ele>1278.600708</ele>
        <time>2016-01-17T12:31:29.000Z</time>
      </trkpt>
      <trkpt lat="43.93665" lon="7.24316">
        <ele>1277.09436</ele>
        <time>2016-01-17T12:31:34.000Z</time>
      </trkpt>
      <trkpt lat="43.93642" lon="7.24328">
        <ele>1275.779541</ele>
        <time>2016-01-17T12:31:39.000Z</time>
      </trkpt>
      <trkpt lat="43.93621" lon="7.24336">
        <ele>1274.197876</ele>
        <time>2016-01-17T12:31:44.000Z</time>
      </trkpt>
      <trkpt lat="43.93596" lon="7.24329">
        <ele>1272.460693</ele>
        <time>2016-01-17T12:31:49.000Z</time>
      </trkpt>
      <trkpt lat="43.93578" lon="7.24338">
        <ele>1272.119629</ele>
        <time>2016-01-17T12:31:54.000Z</time>
      </trkpt>
      <trkpt lat="43.93565" lon="7.2435">
        <ele>1271.971069</ele>
        <time>2016-01-17T12:31:59.000Z</time>
      </trkpt>
      <trkpt lat="43.93549" lon="7.24347">
        <ele>1271.789429</ele>
        <time>2016-01-17T12:32:04.000Z</time>
      </trkpt>
      <trkpt lat="43.93531" lon="7.24343">
        <ele>1271.652954</ele>
        <time>2016-01-17T12:32:09.000Z</time>
      </trkpt>
      <trkpt lat="43.93512" lon="7.24343">
        <ele>1271.250122</ele>
        <time>2016-01-17T12:32:14.000Z</time>
      </trkpt>
      <trkpt lat="43.93493" lon="7.24333">
        <ele>1271.651367</ele>
        <time>2016-01-17T12:32:19.000Z</time>
      </trkpt>
      <trkpt lat="43.93474" lon="7.2432">
        <ele>1271.040283</ele>
        <time>2016-01-17T12:32:24.000Z</time>
      </trkpt>
      <trkpt lat="43.93454" lon="7.24307">
        <ele>1269.805054</ele>
        <time>2016-01-17T12:32:29.000Z</time>
      </trkpt>
      <trkpt lat="43.93436" lon="7.24299">
        <ele>1269.130737</ele>
        <time>2016-01-17T12:32:34.000Z</time>
      </trkpt>
      <trkpt lat="43.93424" lon="7.24306">
        <ele>1268.078735</ele>
        <time>2016-01-17T12:32:39.000Z</time>
      </trkpt>
      <trkpt lat="43.93421" lon="7.24311">
        <ele>1267.119995</ele>
        <time>2016-01-17T12:32:44.000Z</time>
      </trkpt>
      <trkpt lat="43.93421" lon="7.24311">
        <ele>1267.057373</ele>
        <time>2016-01-17T12:32:49.000Z</time>
      </trkpt>
      <trkpt lat="43.93421" lon="7.24311">
        <ele>1267.06311</ele>
        <time>2016-01-17T12:32:54.000Z</time>
      </trkpt>
      <trkpt lat="43.93421" lon="7.24311">
        <ele>1267.036987</ele>
        <time>2016-01-17T12:32:59.000Z</time>
      </trkpt>
      <trkpt lat="43.93421" lon="7.24311">
        <ele>1267.053101</ele>
        <time>2016-01-17T12:33:04.000Z</time>
      </trkpt>
      <trkpt lat="43.93421" lon="7.24311">
        <ele>1267.073364</ele>
        <time>2016-01-17T12:33:09.000Z</time>
      </trkpt>
      <trkpt lat="43.93413" lon="7.24319">
        <ele>1266.047363</ele>
        <time>2016-01-17T12:33:14.000Z</time>
      </trkpt>
      <trkpt lat="43.93392" lon="7.24333">
        <ele>1261.603516</ele>
        <time>2016-01-17T12:33:19.000Z</time>
      </trkpt>
      <trkpt lat="43.9337" lon="7.24352">
        <ele>1258.890625</ele>
        <time>2016-01-17T12:33:24.000Z</time>
      </trkpt>
      <trkpt lat="43.93352" lon="7.24368">
        <ele>1254.029785</ele>
        <time>2016-01-17T12:33:29.000Z</time>
      </trkpt>
      <trkpt lat="43.93333" lon="7.2437">
        <ele>1252.104492</ele>
        <time>2016-01-17T12:33:34.000Z</time>
      </trkpt>
      <trkpt lat="43.93316" lon="7.24383">
        <ele>1247.925293</ele>
        <time>2016-01-17T12:33:39.000Z</time>
      </trkpt>
      <trkpt lat="43.93302" lon="7.2439">
        <ele>1243.73291</ele>
        <time>2016-01-17T12:33:44.000Z</time>
      </trkpt>
      <trkpt lat="43.93288" lon="7.24393">
        <ele>1240.064331</ele>
        <time>2016-01-17T12:33:49.000Z</time>
      </trkpt>
      <trkpt lat="43.93275" lon="7.244">
        <ele>1235.460083</ele>
        <time>2016-01-17T12:33:54.000Z</time>
      </trkpt>
      <trkpt lat="43.93263" lon="7.24414">
        <ele>1230.477905</ele>
        <time>2016-01-17T12:33:59.000Z</time>
      </trkpt>
      <trkpt lat="43.93249" lon="7.24424">
        <ele>1226.238037</ele>
        <time>2016-01-17T12:34:04.000Z</time>
      </trkpt>
      <trkpt lat="43.93239" lon="7.24436">
        <ele>1221.859619</ele>
        <time>2016-01-17T12:34:09.000Z</time>
      </trkpt>
      <trkpt lat="43.93224" lon="7.24446">
        <ele>1218.804321</ele>
        <time>2016-01-17T12:34:14.000Z</time>
      </trkpt>
      <trkpt lat="43.93209" lon="7.24466">
        <ele>1215.285889</ele>
        <time>2016-01-17T12:34:19.000Z</time>
      </trkpt>
      <trkpt lat="43.93193" lon="7.24493">
        <ele>1209.737061</ele>
        <time>2016-01-17T12:34:24.000Z</time>
      </trkpt>
      <trkpt lat="43.93184" lon="7.24509">
        <ele>1206.952637</ele>
        <time>2016-01-17T12:34:29.000Z</time>
      </trkpt>
      <trkpt lat="43.93167" lon="7.24532">
        <ele>1203.537109</ele>
        <time>2016-01-17T12:34:34.000Z</time>
      </trkpt>
      <trkpt lat="43.93158" lon="7.2454">
        <ele>1200.766479</ele>
        <time>2016-01-17T12:34:39.000Z</time>
      </trkpt>
      <trkpt lat="43.93148" lon="7.24543">
        <ele>1196.763916</ele>
        <time>2016-01-17T12:34:44.000Z</time>
      </trkpt>
      <trkpt lat="43.93135" lon="7.24534">
        <ele>1194.699585</ele>
        <time>2016-01-17T12:34:49.000Z</time>
      </trkpt>
      <trkpt lat="43.93122" lon="7.24526">
        <ele>1192.215454</ele>
        <time>2016-01-17T12:34:54.000Z</time>
      </trkpt>
      <trkpt lat="43.93107" lon="7.24528">
        <ele>1189.202148</ele>
        <time>2016-01-17T12:34:59.000Z</time>
      </trkpt>
      <trkpt lat="43.93083" lon="7.24534">
        <ele>1187.886719</ele>
        <time>2016-01-17T12:35:04.000Z</time>
      </trkpt>
      <trkpt lat="43.93068" lon="7.24535">
        <ele>1187.434814</ele>
        <time>2016-01-17T12:35:09.000Z</time>
      </trkpt>
      <trkpt lat="43.93059" lon="7.24519">
        <ele>1184.529175</ele>
        <time>2016-01-17T12:35:14.000Z</time>
      </trkpt>
      <trkpt lat="43.93044" lon="7.24507">
        <ele>1181.578491</ele>
        <time>2016-01-17T12:35:19.000Z</time>
      </trkpt>
      <trkpt lat="43.93027" lon="7.24501">
        <ele>1177.806519</ele>
        <time>2016-01-17T12:35:24.000Z</time>
      </trkpt>
      <trkpt lat="43.93012" lon="7.24513">
        <ele>1174.301147</ele>
        <time>2016-01-17T12:35:29.000Z</time>
      </trkpt>
      <trkpt lat="43.93005" lon="7.24519">
        <ele>1172.864868</ele>
        <time>2016-01-17T12:35:34.000Z</time>
      </trkpt>
      <trkpt lat="43.93005" lon="7.24518">
        <ele>1172.66272</ele>
        <time>2016-01-17T12:35:39.000Z</time>
      </trkpt>
      <trkpt lat="43.93003" lon="7.24519">
        <ele>1172.540649</ele>
        <time>2016-01-17T12:35:44.000Z</time>
      </trkpt>
      <trkpt lat="43.93003" lon="7.24516">
        <ele>1171.571045</ele>
        <time>2016-01-17T12:35:49.000Z</time>
      </trkpt>
      <trkpt lat="43.93002" lon="7.24515">
        <ele>1170.744873</ele>
        <time>2016-01-17T12:35:54.000Z</time>
      </trkpt>
      <trkpt lat="43.93" lon="7.24515">
        <ele>1169.301147</ele>
        <time>2016-01-17T12:35:59.000Z</time>
      </trkpt>
      <trkpt lat="43.92998" lon="7.24516">
        <ele>1168.540405</ele>
        <time>2016-01-17T12:36:04.000Z</time>
      </trkpt>
      <trkpt lat="43.92997" lon="7.24515">
        <ele>1168.80249</ele>
        <time>2016-01-17T12:36:09.000Z</time>
      </trkpt>
      <trkpt lat="43.92998" lon="7.24515">
        <ele>1169.111328</ele>
        <time>2016-01-17T12:36:14.000Z</time>
      </trkpt>
      <trkpt lat="43.92998" lon="7.24515">
        <ele>1169.094482</ele>
        <time>2016-01-17T12:36:19.000Z</time>
      </trkpt>
      <trkpt lat="43.92998" lon="7.24515">
        <ele>1169.128174</ele>
        <time>2016-01-17T12:36:24.000Z</time>
      </trkpt>
      <trkpt lat="43.92998" lon="7.24515">
        <ele>1169.114868</ele>
        <time>2016-01-17T12:36:29.000Z</time>
      </trkpt>
      <trkpt lat="43.92998" lon="7.24515">
        <ele>1169.102295</ele>
        <time>2016-01-17T12:36:34.000Z</time>
      </trkpt>
      <trkpt lat="43.92998" lon="7.24515">
        <ele>1169.099487</ele>
        <time>2016-01-17T12:36:39.000Z</time>
      </trkpt>
      <trkpt lat="43.93001" lon="7.24516">
        <ele>1169.970947</ele>
        <time>2016-01-17T12:36:44.000Z</time>
      </trkpt>
      <trkpt lat="43.93002" lon="7.24515">
        <ele>1170.504761</ele>
        <time>2016-01-17T12:36:49.000Z</time>
      </trkpt>
      <trkpt lat="43.92999" lon="7.24514">
        <ele>1169.522705</ele>
        <time>2016-01-17T12:36:54.000Z</time>
      </trkpt>
      <trkpt lat="43.92999" lon="7.24514">
        <ele>1169.041626</ele>
        <time>2016-01-17T12:36:59.000Z</time>
      </trkpt>
      <trkpt lat="43.92999" lon="7.24514">
        <ele>1168.681641</ele>
        <time>2016-01-17T12:37:04.000Z</time>
      </trkpt>
      <trkpt lat="43.92999" lon="7.24514">
        <ele>1168.585449</ele>
        <time>2016-01-17T12:37:09.000Z</time>
      </trkpt>
      <trkpt lat="43.92999" lon="7.24514">
        <ele>1168.703003</ele>
        <time>2016-01-17T12:37:14.000Z</time>
      </trkpt>
      <trkpt lat="43.92999" lon="7.24515">
        <ele>1168.5802</ele>
        <time>2016-01-17T12:37:19.000Z</time>
      </trkpt>
      <trkpt lat="43.92992" lon="7.2451">
        <ele>1166.692383</ele>
        <time>2016-01-17T12:37:24.000Z</time>
      </trkpt>
      <trkpt lat="43.92976" lon="7.24507">
        <ele>1163.342529</ele>
        <time>2016-01-17T12:37:29.000Z</time>
      </trkpt>
      <trkpt lat="43.92968" lon="7.24506">
        <ele>1162.168823</ele>
        <time>2016-01-17T12:37:34.000Z</time>
      </trkpt>
      <trkpt lat="43.92955" lon="7.24503">
        <ele>1160.474487</ele>
        <time>2016-01-17T12:37:39.000Z</time>
      </trkpt>
      <trkpt lat="43.92939" lon="7.24498">
        <ele>1158.369019</ele>
        <time>2016-01-17T12:37:44.000Z</time>
      </trkpt>
      <trkpt lat="43.92926" lon="7.24507">
        <ele>1156.438232</ele>
        <time>2016-01-17T12:37:49.000Z</time>
      </trkpt>
      <trkpt lat="43.92912" lon="7.24508">
        <ele>1155.115601</ele>
        <time>2016-01-17T12:37:54.000Z</time>
      </trkpt>
      <trkpt lat="43.92894" lon="7.24509">
        <ele>1155.442871</ele>
        <time>2016-01-17T12:37:59.000Z</time>
      </trkpt>
      <trkpt lat="43.92881" lon="7.2453">
        <ele>1153.809692</ele>
        <time>2016-01-17T12:38:04.000Z</time>
      </trkpt>
      <trkpt lat="43.92864" lon="7.24532">
        <ele>1152.846436</ele>
        <time>2016-01-17T12:38:09.000Z</time>
      </trkpt>
      <trkpt lat="43.92851" lon="7.24545">
        <ele>1150.630127</ele>
        <time>2016-01-17T12:38:14.000Z</time>
      </trkpt>
      <trkpt lat="43.92843" lon="7.24536">
        <ele>1146.752319</ele>
        <time>2016-01-17T12:38:19.000Z</time>
      </trkpt>
      <trkpt lat="43.92833" lon="7.24521">
        <ele>1144.535645</ele>
        <time>2016-01-17T12:38:24.000Z</time>
      </trkpt>
      <trkpt lat="43.92812" lon="7.24526">
        <ele>1141.902222</ele>
        <time>2016-01-17T12:38:29.000Z</time>
      </trkpt>
      <trkpt lat="43.9279" lon="7.24537">
        <ele>1140.988037</ele>
        <time>2016-01-17T12:38:34.000Z</time>
      </trkpt>
      <trkpt lat="43.92769" lon="7.24541">
        <ele>1137.862305</ele>
        <time>2016-01-17T12:38:39.000Z</time>
      </trkpt>
      <trkpt lat="43.92755" lon="7.24545">
        <ele>1136.724243</ele>
        <time>2016-01-17T12:38:44.000Z</time>
      </trkpt>
      <trkpt lat="43.92753" lon="7.24548">
        <ele>1135.204346</ele>
        <time>2016-01-17T12:38:49.000Z</time>
      </trkpt>
      <trkpt lat="43.92747" lon="7.24527">
        <ele>1131.642578</ele>
        <time>2016-01-17T12:38:54.000Z</time>
      </trkpt>
      <trkpt lat="43.92738" lon="7.24508">
        <ele>1128.016846</ele>
        <time>2016-01-17T12:38:59.000Z</time>
      </trkpt>
      <trkpt lat="43.92728" lon="7.24484">
        <ele>1127.394043</ele>
        <time>2016-01-17T12:39:04.000Z</time>
      </trkpt>
      <trkpt lat="43.92727" lon="7.24476">
        <ele>1128.149292</ele>
        <time>2016-01-17T12:39:09.000Z</time>
      </trkpt>
      <trkpt lat="43.92726" lon="7.24472">
        <ele>1128.859619</ele>
        <time>2016-01-17T12:39:14.000Z</time>
      </trkpt>
      <trkpt lat="43.92722" lon="7.24469">
        <ele>1128.986206</ele>
        <time>2016-01-17T12:39:19.000Z</time>
      </trkpt>
      <trkpt lat="43.92714" lon="7.24471">
        <ele>1128.646973</ele>
        <time>2016-01-17T12:39:24.000Z</time>
      </trkpt>
      <trkpt lat="43.92705" lon="7.24471">
        <ele>1129.279907</ele>
        <time>2016-01-17T12:39:29.000Z</time>
      </trkpt>
      <trkpt lat="43.92697" lon="7.24473">
        <ele>1130.321777</ele>
        <time>2016-01-17T12:39:34.000Z</time>
      </trkpt>
      <trkpt lat="43.92691" lon="7.24474">
        <ele>1131.817871</ele>
        <time>2016-01-17T12:39:39.000Z</time>
      </trkpt>
      <trkpt lat="43.92687" lon="7.24472">
        <ele>1133.37793</ele>
        <time>2016-01-17T12:39:44.000Z</time>
      </trkpt>
      <trkpt lat="43.92682" lon="7.2447">
        <ele>1134.042847</ele>
        <time>2016-01-17T12:39:49.000Z</time>
      </trkpt>
      <trkpt lat="43.92673" lon="7.24462">
        <ele>1133.042725</ele>
        <time>2016-01-17T12:39:54.000Z</time>
      </trkpt>
      <trkpt lat="43.92659" lon="7.24455">
        <ele>1130.554443</ele>
        <time>2016-01-17T12:39:59.000Z</time>
      </trkpt>
      <trkpt lat="43.92636" lon="7.24464">
        <ele>1127.238403</ele>
        <time>2016-01-17T12:40:04.000Z</time>
      </trkpt>
      <trkpt lat="43.92616" lon="7.24469">
        <ele>1125.748901</ele>
        <time>2016-01-17T12:40:09.000Z</time>
      </trkpt>
      <trkpt lat="43.92604" lon="7.24477">
        <ele>1121.489014</ele>
        <time>2016-01-17T12:40:14.000Z</time>
      </trkpt>
      <trkpt lat="43.92595" lon="7.24473">
        <ele>1116.906006</ele>
        <time>2016-01-17T12:40:19.000Z</time>
      </trkpt>
      <trkpt lat="43.92586" lon="7.24455">
        <ele>1111.671387</ele>
        <time>2016-01-17T12:40:24.000Z</time>
      </trkpt>
      <trkpt lat="43.92583" lon="7.24435">
        <ele>1107.072266</ele>
        <time>2016-01-17T12:40:29.000Z</time>
      </trkpt>
      <trkpt lat="43.92577" lon="7.2442">
        <ele>1103.365845</ele>
        <time>2016-01-17T12:40:34.000Z</time>
      </trkpt>
      <trkpt lat="43.92571" lon="7.24409">
        <ele>1099.406982</ele>
        <time>2016-01-17T12:40:39.000Z</time>
      </trkpt>
      <trkpt lat="43.92558" lon="7.24413">
        <ele>1094.856201</ele>
        <time>2016-01-17T12:40:44.000Z</time>
      </trkpt>
      <trkpt lat="43.92543" lon="7.24417">
        <ele>1090.264771</ele>
        <time>2016-01-17T12:40:49.000Z</time>
      </trkpt>
      <trkpt lat="43.92528" lon="7.24422">
        <ele>1085.725586</ele>
        <time>2016-01-17T12:40:54.000Z</time>
      </trkpt>
      <trkpt lat="43.92525" lon="7.24427">
        <ele>1083.853882</ele>
        <time>2016-01-17T12:40:59.000Z</time>
      </trkpt>
      <trkpt lat="43.92535" lon="7.24435">
        <ele>1079.822021</ele>
        <time>2016-01-17T12:41:04.000Z</time>
      </trkpt>
      <trkpt lat="43.92541" lon="7.24444">
        <ele>1076.700073</ele>
        <time>2016-01-17T12:41:09.000Z</time>
      </trkpt>
      <trkpt lat="43.92542" lon="7.24446">
        <ele>1076.025269</ele>
        <time>2016-01-17T12:41:14.000Z</time>
      </trkpt>
      <trkpt lat="43.9254" lon="7.24446">
        <ele>1076.184082</ele>
        <time>2016-01-17T12:41:19.000Z</time>
      </trkpt>
      <trkpt lat="43.92531" lon="7.24446">
        <ele>1073.786743</ele>
        <time>2016-01-17T12:41:24.000Z</time>
      </trkpt>
      <trkpt lat="43.9252" lon="7.24451">
        <ele>1069.597046</ele>
        <time>2016-01-17T12:41:29.000Z</time>
      </trkpt>
      <trkpt lat="43.92506" lon="7.24459">
        <ele>1065.383789</ele>
        <time>2016-01-17T12:41:34.000Z</time>
      </trkpt>
      <trkpt lat="43.92492" lon="7.24471">
        <ele>1061.330811</ele>
        <time>2016-01-17T12:41:39.000Z</time>
      </trkpt>
      <trkpt lat="43.92479" lon="7.2448">
        <ele>1057.3573</ele>
        <time>2016-01-17T12:41:44.000Z</time>
      </trkpt>
      <trkpt lat="43.92472" lon="7.24489">
        <ele>1054.626709</ele>
        <time>2016-01-17T12:41:49.000Z</time>
      </trkpt>
      <trkpt lat="43.92475" lon="7.24487">
        <ele>1052.146484</ele>
        <time>2016-01-17T12:41:54.000Z</time>
      </trkpt>
      <trkpt lat="43.92476" lon="7.24486">
        <ele>1051.594238</ele>
        <time>2016-01-17T12:41:59.000Z</time>
      </trkpt>
      <trkpt lat="43.92476" lon="7.24486">
        <ele>1051.51001</ele>
        <time>2016-01-17T12:42:04.000Z</time>
      </trkpt>
      <trkpt lat="43.92476" lon="7.24486">
        <ele>1051.517578</ele>
        <time>2016-01-17T12:42:09.000Z</time>
      </trkpt>
      <trkpt lat="43.92476" lon="7.24487">
        <ele>1051.463013</ele>
        <time>2016-01-17T12:42:14.000Z</time>
      </trkpt>
      <trkpt lat="43.92476" lon="7.24487">
        <ele>1051.385254</ele>
        <time>2016-01-17T12:42:19.000Z</time>
      </trkpt>
      <trkpt lat="43.92475" lon="7.24487">
        <ele>1051.4198</ele>
        <time>2016-01-17T12:42:24.000Z</time>
      </trkpt>
      <trkpt lat="43.92477" lon="7.24486">
        <ele>1051.228882</ele>
        <time>2016-01-17T12:42:29.000Z</time>
      </trkpt>
      <trkpt lat="43.92477" lon="7.24484">
        <ele>1051.102783</ele>
        <time>2016-01-17T12:42:34.000Z</time>
      </trkpt>
      <trkpt lat="43.92478" lon="7.24484">
        <ele>1051.057129</ele>
        <time>2016-01-17T12:42:39.000Z</time>
      </trkpt>
      <trkpt lat="43.92478" lon="7.24483">
        <ele>1051.039551</ele>
        <time>2016-01-17T12:42:44.000Z</time>
      </trkpt>
      <trkpt lat="43.92479" lon="7.24483">
        <ele>1051.026123</ele>
        <time>2016-01-17T12:42:49.000Z</time>
      </trkpt>
      <trkpt lat="43.92479" lon="7.24483">
        <ele>1051.022217</ele>
        <time>2016-01-17T12:42:54.000Z</time>
      </trkpt>
      <trkpt lat="43.92479" lon="7.24483">
        <ele>1051.027222</ele>
        <time>2016-01-17T12:42:59.000Z</time>
      </trkpt>
      <trkpt lat="43.92478" lon="7.24482">
        <ele>1051.030762</ele>
        <time>2016-01-17T12:43:04.000Z</time>
      </trkpt>
      <trkpt lat="43.92479" lon="7.24481">
        <ele>1051.034302</ele>
        <time>2016-01-17T12:43:09.000Z</time>
      </trkpt>
      <trkpt lat="43.92479" lon="7.2448">
        <ele>1051.004639</ele>
        <time>2016-01-17T12:43:14.000Z</time>
      </trkpt>
      <trkpt lat="43.9248" lon="7.2448">
        <ele>1050.973022</ele>
        <time>2016-01-17T12:43:19.000Z</time>
      </trkpt>
      <trkpt lat="43.9248" lon="7.2448">
        <ele>1050.963379</ele>
        <time>2016-01-17T12:43:24.000Z</time>
      </trkpt>
      <trkpt lat="43.9248" lon="7.2448">
        <ele>1050.994019</ele>
        <time>2016-01-17T12:43:29.000Z</time>
      </trkpt>
      <trkpt lat="43.9248" lon="7.2448">
        <ele>1050.99585</ele>
        <time>2016-01-17T12:43:34.000Z</time>
      </trkpt>
      <trkpt lat="43.9248" lon="7.2448">
        <ele>1050.996216</ele>
        <time>2016-01-17T12:43:39.000Z</time>
      </trkpt>
      <trkpt lat="43.9248" lon="7.2448">
        <ele>1050.996094</ele>
        <time>2016-01-17T12:43:44.000Z</time>
      </trkpt>
      <trkpt lat="43.9248" lon="7.2448">
        <ele>1050.994995</ele>
        <time>2016-01-17T12:43:49.000Z</time>
      </trkpt>
      <trkpt lat="43.9248" lon="7.2448">
        <ele>1050.995972</ele>
        <time>2016-01-17T12:43:54.000Z</time>
      </trkpt>
      <trkpt lat="43.9248" lon="7.2448">
        <ele>1050.99646</ele>
        <time>2016-01-17T12:43:59.000Z</time>
      </trkpt>
      <trkpt lat="43.9248" lon="7.2448">
        <ele>1050.998169</ele>
        <time>2016-01-17T12:44:04.000Z</time>
      </trkpt>
      <trkpt lat="43.9248" lon="7.2448">
        <ele>1050.998535</ele>
        <time>2016-01-17T12:44:09.000Z</time>
      </trkpt>
      <trkpt lat="43.9248" lon="7.2448">
        <ele>1050.995728</ele>
        <time>2016-01-17T12:44:14.000Z</time>
      </trkpt>
      <trkpt lat="43.9248" lon="7.2448">
        <ele>1050.994507</ele>
        <time>2016-01-17T12:44:19.000Z</time>
      </trkpt>
      <trkpt lat="43.9248" lon="7.2448">
        <ele>1050.99231</ele>
        <time>2016-01-17T12:44:24.000Z</time>
      </trkpt>
      <trkpt lat="43.9248" lon="7.2448">
        <ele>1050.989258</ele>
        <time>2016-01-17T12:44:29.000Z</time>
      </trkpt>
      <trkpt lat="43.9248" lon="7.2448">
        <ele>1050.98999</ele>
        <time>2016-01-17T12:44:34.000Z</time>
      </trkpt>
      <trkpt lat="43.9248" lon="7.2448">
        <ele>1050.986206</ele>
        <time>2016-01-17T12:44:39.000Z</time>
      </trkpt>
      <trkpt lat="43.9248" lon="7.2448">
        <ele>1050.985352</ele>
        <time>2016-01-17T12:44:44.000Z</time>
      </trkpt>
      <trkpt lat="43.9248" lon="7.2448">
        <ele>1050.986816</ele>
        <time>2016-01-17T12:44:49.000Z</time>
      </trkpt>
      <trkpt lat="43.9248" lon="7.2448">
        <ele>1050.986206</ele>
        <time>2016-01-17T12:44:54.000Z</time>
      </trkpt>
      <trkpt lat="43.9248" lon="7.2448">
        <ele>1050.983276</ele>
        <time>2016-01-17T12:44:59.000Z</time>
      </trkpt>
      <trkpt lat="43.9248" lon="7.2448">
        <ele>1050.983398</ele>
        <time>2016-01-17T12:45:04.000Z</time>
      </trkpt>
      <trkpt lat="43.9248" lon="7.2448">
        <ele>1050.982666</ele>
        <time>2016-01-17T12:45:09.000Z</time>
      </trkpt>
      <trkpt lat="43.9248" lon="7.2448">
        <ele>1050.9823</ele>
        <time>2016-01-17T12:45:14.000Z</time>
      </trkpt>
      <trkpt lat="43.9248" lon="7.2448">
        <ele>1050.984009</ele>
        <time>2016-01-17T12:45:19.000Z</time>
      </trkpt>
      <trkpt lat="43.9248" lon="7.2448">
        <ele>1050.985962</ele>
        <time>2016-01-17T12:45:24.000Z</time>
      </trkpt>
      <trkpt lat="43.9248" lon="7.2448">
        <ele>1050.987183</ele>
        <time>2016-01-17T12:45:29.000Z</time>
      </trkpt>
      <trkpt lat="43.9248" lon="7.2448">
        <ele>1050.985229</ele>
        <time>2016-01-17T12:45:34.000Z</time>
      </trkpt>
      <trkpt lat="43.9248" lon="7.24481">
        <ele>1051</ele>
        <time>2016-01-17T12:45:39.000Z</time>
      </trkpt>
      <trkpt lat="43.9248" lon="7.24481">
        <ele>1050.950073</ele>
        <time>2016-01-17T12:45:44.000Z</time>
      </trkpt>
      <trkpt lat="43.9248" lon="7.24481">
        <ele>1050.976563</ele>
        <time>2016-01-17T12:45:49.000Z</time>
      </trkpt>
      <trkpt lat="43.9248" lon="7.24481">
        <ele>1050.999512</ele>
        <time>2016-01-17T12:45:54.000Z</time>
      </trkpt>
      <trkpt lat="43.9248" lon="7.24481">
        <ele>1051.005493</ele>
        <time>2016-01-17T12:45:59.000Z</time>
      </trkpt>
      <trkpt lat="43.9248" lon="7.24481">
        <ele>1051.010132</ele>
        <time>2016-01-17T12:46:04.000Z</time>
      </trkpt>
      <trkpt lat="43.9248" lon="7.24481">
        <ele>1051.021973</ele>
        <time>2016-01-17T12:46:09.000Z</time>
      </trkpt>
      <trkpt lat="43.92482" lon="7.24482">
        <ele>1050.508179</ele>
        <time>2016-01-17T12:46:14.000Z</time>
      </trkpt>
      <trkpt lat="43.92482" lon="7.24487">
        <ele>1048.633057</ele>
        <time>2016-01-17T12:46:19.000Z</time>
      </trkpt>
      <trkpt lat="43.92472" lon="7.245">
        <ele>1045.101196</ele>
        <time>2016-01-17T12:46:24.000Z</time>
      </trkpt>
      <trkpt lat="43.9246" lon="7.24506">
        <ele>1042.594116</ele>
        <time>2016-01-17T12:46:29.000Z</time>
      </trkpt>
      <trkpt lat="43.92447" lon="7.24514">
        <ele>1038.721802</ele>
        <time>2016-01-17T12:46:34.000Z</time>
      </trkpt>
      <trkpt lat="43.92444" lon="7.24518">
        <ele>1036.247803</ele>
        <time>2016-01-17T12:46:39.000Z</time>
      </trkpt>
      <trkpt lat="43.92453" lon="7.2452">
        <ele>1034.282715</ele>
        <time>2016-01-17T12:46:44.000Z</time>
      </trkpt>
      <trkpt lat="43.92449" lon="7.24525">
        <ele>1031.753296</ele>
        <time>2016-01-17T12:46:49.000Z</time>
      </trkpt>
      <trkpt lat="43.92439" lon="7.24538">
        <ele>1028.364136</ele>
        <time>2016-01-17T12:46:54.000Z</time>
      </trkpt>
      <trkpt lat="43.92432" lon="7.24552">
        <ele>1023.922668</ele>
        <time>2016-01-17T12:46:59.000Z</time>
      </trkpt>
      <trkpt lat="43.92427" lon="7.24566">
        <ele>1019.453186</ele>
        <time>2016-01-17T12:47:04.000Z</time>
      </trkpt>
      <trkpt lat="43.92417" lon="7.2458">
        <ele>1017.572021</ele>
        <time>2016-01-17T12:47:09.000Z</time>
      </trkpt>
      <trkpt lat="43.92417" lon="7.24581">
        <ele>1017.223816</ele>
        <time>2016-01-17T12:47:14.000Z</time>
      </trkpt>
      <trkpt lat="43.92415" lon="7.24582">
        <ele>1017.071045</ele>
        <time>2016-01-17T12:47:19.000Z</time>
      </trkpt>
      <trkpt lat="43.92414" lon="7.24583">
        <ele>1017.207092</ele>
        <time>2016-01-17T12:47:24.000Z</time>
      </trkpt>
      <trkpt lat="43.92414" lon="7.24582">
        <ele>1017.640869</ele>
        <time>2016-01-17T12:47:29.000Z</time>
      </trkpt>
      <trkpt lat="43.92414" lon="7.24582">
        <ele>1017.787964</ele>
        <time>2016-01-17T12:47:34.000Z</time>
      </trkpt>
      <trkpt lat="43.92414" lon="7.24582">
        <ele>1017.582031</ele>
        <time>2016-01-17T12:47:39.000Z</time>
      </trkpt>
      <trkpt lat="43.92414" lon="7.24582">
        <ele>1017.347778</ele>
        <time>2016-01-17T12:47:44.000Z</time>
      </trkpt>
      <trkpt lat="43.92414" lon="7.24582">
        <ele>1017.363281</ele>
        <time>2016-01-17T12:47:49.000Z</time>
      </trkpt>
      <trkpt lat="43.92414" lon="7.24582">
        <ele>1017.360474</ele>
        <time>2016-01-17T12:47:54.000Z</time>
      </trkpt>
      <trkpt lat="43.92414" lon="7.24582">
        <ele>1017.370239</ele>
        <time>2016-01-17T12:47:59.000Z</time>
      </trkpt>
      <trkpt lat="43.92414" lon="7.24582">
        <ele>1017.376587</ele>
        <time>2016-01-17T12:48:04.000Z</time>
      </trkpt>
      <trkpt lat="43.92414" lon="7.24582">
        <ele>1017.384094</ele>
        <time>2016-01-17T12:48:09.000Z</time>
      </trkpt>
      <trkpt lat="43.92414" lon="7.24582">
        <ele>1017.391052</ele>
        <time>2016-01-17T12:48:14.000Z</time>
      </trkpt>
      <trkpt lat="43.92414" lon="7.24582">
        <ele>1017.385986</ele>
        <time>2016-01-17T12:48:19.000Z</time>
      </trkpt>
      <trkpt lat="43.92414" lon="7.24582">
        <ele>1017.383972</ele>
        <time>2016-01-17T12:48:24.000Z</time>
      </trkpt>
      <trkpt lat="43.92414" lon="7.24582">
        <ele>1017.378479</ele>
        <time>2016-01-17T12:48:29.000Z</time>
      </trkpt>
      <trkpt lat="43.92414" lon="7.24582">
        <ele>1017.374512</ele>
        <time>2016-01-17T12:48:34.000Z</time>
      </trkpt>
      <trkpt lat="43.92414" lon="7.24582">
        <ele>1017.371277</ele>
        <time>2016-01-17T12:48:39.000Z</time>
      </trkpt>
      <trkpt lat="43.92414" lon="7.24582">
        <ele>1017.369751</ele>
        <time>2016-01-17T12:48:44.000Z</time>
      </trkpt>
      <trkpt lat="43.92414" lon="7.24582">
        <ele>1017.366821</ele>
        <time>2016-01-17T12:48:49.000Z</time>
      </trkpt>
      <trkpt lat="43.92414" lon="7.24582">
        <ele>1017.36145</ele>
        <time>2016-01-17T12:48:54.000Z</time>
      </trkpt>
      <trkpt lat="43.92414" lon="7.24582">
        <ele>1017.347046</ele>
        <time>2016-01-17T12:48:59.000Z</time>
      </trkpt>
      <trkpt lat="43.92414" lon="7.24582">
        <ele>1017.341919</ele>
        <time>2016-01-17T12:49:04.000Z</time>
      </trkpt>
      <trkpt lat="43.92414" lon="7.24582">
        <ele>1017.329224</ele>
        <time>2016-01-17T12:49:09.000Z</time>
      </trkpt>
      <trkpt lat="43.92414" lon="7.24582">
        <ele>1017.32782</ele>
        <time>2016-01-17T12:49:14.000Z</time>
      </trkpt>
      <trkpt lat="43.92414" lon="7.24582">
        <ele>1017.327698</ele>
        <time>2016-01-17T12:49:19.000Z</time>
      </trkpt>
      <trkpt lat="43.92414" lon="7.24582">
        <ele>1017.322205</ele>
        <time>2016-01-17T12:49:24.000Z</time>
      </trkpt>
      <trkpt lat="43.92414" lon="7.24582">
        <ele>1017.315735</ele>
        <time>2016-01-17T12:49:29.000Z</time>
      </trkpt>
      <trkpt lat="43.92414" lon="7.24582">
        <ele>1017.329407</ele>
        <time>2016-01-17T12:49:34.000Z</time>
      </trkpt>
      <trkpt lat="43.92414" lon="7.24582">
        <ele>1017.02417</ele>
        <time>2016-01-17T12:49:39.000Z</time>
      </trkpt>
      <trkpt lat="43.92413" lon="7.24582">
        <ele>1017.281311</ele>
        <time>2016-01-17T12:49:44.000Z</time>
      </trkpt>
      <trkpt lat="43.92414" lon="7.24582">
        <ele>1017.226074</ele>
        <time>2016-01-17T12:49:49.000Z</time>
      </trkpt>
      <trkpt lat="43.92413" lon="7.24582">
        <ele>1016.734558</ele>
        <time>2016-01-17T12:49:54.000Z</time>
      </trkpt>
      <trkpt lat="43.92409" lon="7.24583">
        <ele>1015.936584</ele>
        <time>2016-01-17T12:49:59.000Z</time>
      </trkpt>
      <trkpt lat="43.92403" lon="7.24579">
        <ele>1015.091125</ele>
        <time>2016-01-17T12:50:04.000Z</time>
      </trkpt>
      <trkpt lat="43.92396" lon="7.24572">
        <ele>1014.88031</ele>
        <time>2016-01-17T12:50:09.000Z</time>
      </trkpt>
      <trkpt lat="43.92393" lon="7.24572">
        <ele>1014.684814</ele>
        <time>2016-01-17T12:50:14.000Z</time>
      </trkpt>
      <trkpt lat="43.92386" lon="7.24569">
        <ele>1015.180603</ele>
        <time>2016-01-17T12:50:19.000Z</time>
      </trkpt>
      <trkpt lat="43.92379" lon="7.24569">
        <ele>1015.232727</ele>
        <time>2016-01-17T12:50:24.000Z</time>
      </trkpt>
      <trkpt lat="43.92372" lon="7.24567">
        <ele>1015.773193</ele>
        <time>2016-01-17T12:50:29.000Z</time>
      </trkpt>
      <trkpt lat="43.9237" lon="7.24566">
        <ele>1015.538086</ele>
        <time>2016-01-17T12:50:34.000Z</time>
      </trkpt>
      <trkpt lat="43.9237" lon="7.24566">
        <ele>1015.570251</ele>
        <time>2016-01-17T12:50:39.000Z</time>
      </trkpt>
      <trkpt lat="43.9237" lon="7.24567">
        <ele>1015.955017</ele>
        <time>2016-01-17T12:50:44.000Z</time>
      </trkpt>
      <trkpt lat="43.92371" lon="7.24567">
        <ele>1015.793762</ele>
        <time>2016-01-17T12:50:49.000Z</time>
      </trkpt>
      <trkpt lat="43.92371" lon="7.24567">
        <ele>1015.255005</ele>
        <time>2016-01-17T12:50:54.000Z</time>
      </trkpt>
      <trkpt lat="43.92371" lon="7.24567">
        <ele>1015.224243</ele>
        <time>2016-01-17T12:50:59.000Z</time>
      </trkpt>
      <trkpt lat="43.9237" lon="7.24567">
        <ele>1015.272644</ele>
        <time>2016-01-17T12:51:04.000Z</time>
      </trkpt>
      <trkpt lat="43.9237" lon="7.24566">
        <ele>1015.386047</ele>
        <time>2016-01-17T12:51:09.000Z</time>
      </trkpt>
      <trkpt lat="43.9237" lon="7.24567">
        <ele>1015.430725</ele>
        <time>2016-01-17T12:51:14.000Z</time>
      </trkpt>
      <trkpt lat="43.9237" lon="7.24567">
        <ele>1015.445313</ele>
        <time>2016-01-17T12:51:19.000Z</time>
      </trkpt>
      <trkpt lat="43.9237" lon="7.24567">
        <ele>1015.474365</ele>
        <time>2016-01-17T12:51:24.000Z</time>
      </trkpt>
      <trkpt lat="43.9237" lon="7.24567">
        <ele>1015.494568</ele>
        <time>2016-01-17T12:51:29.000Z</time>
      </trkpt>
      <trkpt lat="43.9237" lon="7.24567">
        <ele>1015.529175</ele>
        <time>2016-01-17T12:51:34.000Z</time>
      </trkpt>
      <trkpt lat="43.92371" lon="7.24567">
        <ele>1015.569092</ele>
        <time>2016-01-17T12:51:39.000Z</time>
      </trkpt>
      <trkpt lat="43.92371" lon="7.24567">
        <ele>1015.587891</ele>
        <time>2016-01-17T12:51:44.000Z</time>
      </trkpt>
      <trkpt lat="43.92371" lon="7.24567">
        <ele>1015.611328</ele>
        <time>2016-01-17T12:51:49.000Z</time>
      </trkpt>
      <trkpt lat="43.92371" lon="7.24567">
        <ele>1015.644165</ele>
        <time>2016-01-17T12:51:54.000Z</time>
      </trkpt>
      <trkpt lat="43.9237" lon="7.2457">
        <ele>1017.080811</ele>
        <time>2016-01-17T12:51:59.000Z</time>
      </trkpt>
      <trkpt lat="43.92371" lon="7.2457">
        <ele>1018.205505</ele>
        <time>2016-01-17T12:52:04.000Z</time>
      </trkpt>
      <trkpt lat="43.92371" lon="7.2457">
        <ele>1018.57251</ele>
        <time>2016-01-17T12:52:09.000Z</time>
      </trkpt>
      <trkpt lat="43.92371" lon="7.2457">
        <ele>1018.648621</ele>
        <time>2016-01-17T12:52:14.000Z</time>
      </trkpt>
      <trkpt lat="43.92371" lon="7.2457">
        <ele>1018.545837</ele>
        <time>2016-01-17T12:52:19.000Z</time>
      </trkpt>
      <trkpt lat="43.92371" lon="7.2457">
        <ele>1018.513489</ele>
        <time>2016-01-17T12:52:24.000Z</time>
      </trkpt>
      <trkpt lat="43.92371" lon="7.2457">
        <ele>1018.510925</ele>
        <time>2016-01-17T12:52:29.000Z</time>
      </trkpt>
      <trkpt lat="43.92371" lon="7.2457">
        <ele>1018.508911</ele>
        <time>2016-01-17T12:52:34.000Z</time>
      </trkpt>
      <trkpt lat="43.92371" lon="7.2457">
        <ele>1018.499634</ele>
        <time>2016-01-17T12:52:39.000Z</time>
      </trkpt>
      <trkpt lat="43.92371" lon="7.2457">
        <ele>1018.48175</ele>
        <time>2016-01-17T12:52:44.000Z</time>
      </trkpt>
      <trkpt lat="43.92371" lon="7.2457">
        <ele>1018.479187</ele>
        <time>2016-01-17T12:52:49.000Z</time>
      </trkpt>
      <trkpt lat="43.92371" lon="7.2457">
        <ele>1018.476135</ele>
        <time>2016-01-17T12:52:54.000Z</time>
      </trkpt>
      <trkpt lat="43.92371" lon="7.2457">
        <ele>1018.466919</ele>
        <time>2016-01-17T12:52:59.000Z</time>
      </trkpt>
      <trkpt lat="43.92371" lon="7.2457">
        <ele>1018.444702</ele>
        <time>2016-01-17T12:53:04.000Z</time>
      </trkpt>
      <trkpt lat="43.92371" lon="7.2457">
        <ele>1018.401855</ele>
        <time>2016-01-17T12:53:09.000Z</time>
      </trkpt>
      <trkpt lat="43.92371" lon="7.2457">
        <ele>1018.404541</ele>
        <time>2016-01-17T12:53:14.000Z</time>
      </trkpt>
      <trkpt lat="43.92371" lon="7.2457">
        <ele>1018.408325</ele>
        <time>2016-01-17T12:53:19.000Z</time>
      </trkpt>
      <trkpt lat="43.9237" lon="7.2457">
        <ele>1018.412476</ele>
        <time>2016-01-17T12:53:24.000Z</time>
      </trkpt>
      <trkpt lat="43.9237" lon="7.2457">
        <ele>1018.41272</ele>
        <time>2016-01-17T12:53:29.000Z</time>
      </trkpt>
      <trkpt lat="43.9237" lon="7.2457">
        <ele>1018.412903</ele>
        <time>2016-01-17T12:53:34.000Z</time>
      </trkpt>
      <trkpt lat="43.9237" lon="7.2457">
        <ele>1018.412964</ele>
        <time>2016-01-17T12:53:39.000Z</time>
      </trkpt>
      <trkpt lat="43.9237" lon="7.2457">
        <ele>1018.414001</ele>
        <time>2016-01-17T12:53:44.000Z</time>
      </trkpt>
      <trkpt lat="43.9237" lon="7.24569">
        <ele>1018.421448</ele>
        <time>2016-01-17T12:53:49.000Z</time>
      </trkpt>
      <trkpt lat="43.92371" lon="7.24569">
        <ele>1018.432251</ele>
        <time>2016-01-17T12:53:54.000Z</time>
      </trkpt>
      <trkpt lat="43.92371" lon="7.2457">
        <ele>1018.437988</ele>
        <time>2016-01-17T12:53:59.000Z</time>
      </trkpt>
      <trkpt lat="43.92371" lon="7.2457">
        <ele>1018.44342</ele>
        <time>2016-01-17T12:54:04.000Z</time>
      </trkpt>
      <trkpt lat="43.92371" lon="7.2457">
        <ele>1018.477051</ele>
        <time>2016-01-17T12:54:09.000Z</time>
      </trkpt>
      <trkpt lat="43.92371" lon="7.2457">
        <ele>1018.584595</ele>
        <time>2016-01-17T12:54:14.000Z</time>
      </trkpt>
      <trkpt lat="43.92371" lon="7.2457">
        <ele>1018.596863</ele>
        <time>2016-01-17T12:54:19.000Z</time>
      </trkpt>
      <trkpt lat="43.92371" lon="7.2457">
        <ele>1018.610168</ele>
        <time>2016-01-17T12:54:24.000Z</time>
      </trkpt>
      <trkpt lat="43.92371" lon="7.2457">
        <ele>1018.617371</ele>
        <time>2016-01-17T12:54:29.000Z</time>
      </trkpt>
      <trkpt lat="43.92371" lon="7.2457">
        <ele>1018.617737</ele>
        <time>2016-01-17T12:54:34.000Z</time>
      </trkpt>
      <trkpt lat="43.92371" lon="7.2457">
        <ele>1018.618835</ele>
        <time>2016-01-17T12:54:39.000Z</time>
      </trkpt>
      <trkpt lat="43.92371" lon="7.2457">
        <ele>1018.619141</ele>
        <time>2016-01-17T12:54:44.000Z</time>
      </trkpt>
      <trkpt lat="43.92371" lon="7.2457">
        <ele>1018.620361</ele>
        <time>2016-01-17T12:54:49.000Z</time>
      </trkpt>
      <trkpt lat="43.92371" lon="7.2457">
        <ele>1018.622375</ele>
        <time>2016-01-17T12:54:54.000Z</time>
      </trkpt>
      <trkpt lat="43.92371" lon="7.2457">
        <ele>1018.624512</ele>
        <time>2016-01-17T12:54:59.000Z</time>
      </trkpt>
      <trkpt lat="43.92371" lon="7.2457">
        <ele>1018.626648</ele>
        <time>2016-01-17T12:55:04.000Z</time>
      </trkpt>
      <trkpt lat="43.92371" lon="7.2457">
        <ele>1018.627991</ele>
        <time>2016-01-17T12:55:09.000Z</time>
      </trkpt>
      <trkpt lat="43.92371" lon="7.2457">
        <ele>1018.628784</ele>
        <time>2016-01-17T12:55:14.000Z</time>
      </trkpt>
      <trkpt lat="43.92371" lon="7.2457">
        <ele>1018.628174</ele>
        <time>2016-01-17T12:55:19.000Z</time>
      </trkpt>
      <trkpt lat="43.92371" lon="7.2457">
        <ele>1018.629333</ele>
        <time>2016-01-17T12:55:24.000Z</time>
      </trkpt>
      <trkpt lat="43.92371" lon="7.2457">
        <ele>1018.626404</ele>
        <time>2016-01-17T12:55:29.000Z</time>
      </trkpt>
      <trkpt lat="43.92371" lon="7.2457">
        <ele>1018.627686</ele>
        <time>2016-01-17T12:55:34.000Z</time>
      </trkpt>
      <trkpt lat="43.92371" lon="7.2457">
        <ele>1018.631409</ele>
        <time>2016-01-17T12:55:39.000Z</time>
      </trkpt>
      <trkpt lat="43.92371" lon="7.2457">
        <ele>1018.631165</ele>
        <time>2016-01-17T12:55:44.000Z</time>
      </trkpt>
      <trkpt lat="43.92371" lon="7.2457">
        <ele>1018.632751</ele>
        <time>2016-01-17T12:55:49.000Z</time>
      </trkpt>
      <trkpt lat="43.92371" lon="7.2457">
        <ele>1018.63501</ele>
        <time>2016-01-17T12:55:54.000Z</time>
      </trkpt>
      <trkpt lat="43.92371" lon="7.2457">
        <ele>1018.635498</ele>
        <time>2016-01-17T12:55:59.000Z</time>
      </trkpt>
      <trkpt lat="43.92371" lon="7.2457">
        <ele>1018.637573</ele>
        <time>2016-01-17T12:56:04.000Z</time>
      </trkpt>
      <trkpt lat="43.92371" lon="7.2457">
        <ele>1018.638672</ele>
        <time>2016-01-17T12:56:09.000Z</time>
      </trkpt>
      <trkpt lat="43.92371" lon="7.2457">
        <ele>1018.642151</ele>
        <time>2016-01-17T12:56:14.000Z</time>
      </trkpt>
      <trkpt lat="43.92371" lon="7.2457">
        <ele>1018.64502</ele>
        <time>2016-01-17T12:56:19.000Z</time>
      </trkpt>
      <trkpt lat="43.9237" lon="7.2457">
        <ele>1018.649048</ele>
        <time>2016-01-17T12:56:24.000Z</time>
      </trkpt>
      <trkpt lat="43.9237" lon="7.2457">
        <ele>1018.649841</ele>
        <time>2016-01-17T12:56:29.000Z</time>
      </trkpt>
      <trkpt lat="43.9237" lon="7.2457">
        <ele>1018.653687</ele>
        <time>2016-01-17T12:56:34.000Z</time>
      </trkpt>
      <trkpt lat="43.9237" lon="7.2457">
        <ele>1018.651917</ele>
        <time>2016-01-17T12:56:39.000Z</time>
      </trkpt>
      <trkpt lat="43.9237" lon="7.2457">
        <ele>1018.655396</ele>
        <time>2016-01-17T12:56:44.000Z</time>
      </trkpt>
      <trkpt lat="43.9237" lon="7.2457">
        <ele>1018.657288</ele>
        <time>2016-01-17T12:56:49.000Z</time>
      </trkpt>
      <trkpt lat="43.9237" lon="7.2457">
        <ele>1018.658813</ele>
        <time>2016-01-17T12:56:54.000Z</time>
      </trkpt>
      <trkpt lat="43.9237" lon="7.2457">
        <ele>1018.659302</ele>
        <time>2016-01-17T12:56:59.000Z</time>
      </trkpt>
      <trkpt lat="43.9237" lon="7.2457">
        <ele>1018.658875</ele>
        <time>2016-01-17T12:57:04.000Z</time>
      </trkpt>
      <trkpt lat="43.9237" lon="7.2457">
        <ele>1018.660706</ele>
        <time>2016-01-17T12:57:09.000Z</time>
      </trkpt>
      <trkpt lat="43.9237" lon="7.2457">
        <ele>1018.664551</ele>
        <time>2016-01-17T12:57:14.000Z</time>
      </trkpt>
      <trkpt lat="43.92369" lon="7.2457">
        <ele>1018.532227</ele>
        <time>2016-01-17T12:57:19.000Z</time>
      </trkpt>
      <trkpt lat="43.92369" lon="7.24565">
        <ele>1018.4729</ele>
        <time>2016-01-17T12:57:24.000Z</time>
      </trkpt>
      <trkpt lat="43.92369" lon="7.24565">
        <ele>1018.508362</ele>
        <time>2016-01-17T12:57:29.000Z</time>
      </trkpt>
      <trkpt lat="43.92369" lon="7.24565">
        <ele>1018.552368</ele>
        <time>2016-01-17T12:57:34.000Z</time>
      </trkpt>
      <trkpt lat="43.92369" lon="7.24565">
        <ele>1018.571716</ele>
        <time>2016-01-17T12:57:39.000Z</time>
      </trkpt>
      <trkpt lat="43.92369" lon="7.24565">
        <ele>1018.575867</ele>
        <time>2016-01-17T12:57:44.000Z</time>
      </trkpt>
      <trkpt lat="43.92369" lon="7.24565">
        <ele>1018.580872</ele>
        <time>2016-01-17T12:57:49.000Z</time>
      </trkpt>
      <trkpt lat="43.92369" lon="7.24565">
        <ele>1018.587097</ele>
        <time>2016-01-17T12:57:54.000Z</time>
      </trkpt>
      <trkpt lat="43.92369" lon="7.24565">
        <ele>1018.590576</ele>
        <time>2016-01-17T12:57:59.000Z</time>
      </trkpt>
      <trkpt lat="43.92369" lon="7.24565">
        <ele>1018.595215</ele>
        <time>2016-01-17T12:58:04.000Z</time>
      </trkpt>
      <trkpt lat="43.92369" lon="7.24565">
        <ele>1018.602051</ele>
        <time>2016-01-17T12:58:09.000Z</time>
      </trkpt>
      <trkpt lat="43.92369" lon="7.24565">
        <ele>1018.605225</ele>
        <time>2016-01-17T12:58:14.000Z</time>
      </trkpt>
      <trkpt lat="43.92369" lon="7.24565">
        <ele>1018.604492</ele>
        <time>2016-01-17T12:58:19.000Z</time>
      </trkpt>
      <trkpt lat="43.92369" lon="7.24565">
        <ele>1018.607727</ele>
        <time>2016-01-17T12:58:24.000Z</time>
      </trkpt>
      <trkpt lat="43.92369" lon="7.24565">
        <ele>1018.618652</ele>
        <time>2016-01-17T12:58:29.000Z</time>
      </trkpt>
      <trkpt lat="43.92369" lon="7.24565">
        <ele>1018.619019</ele>
        <time>2016-01-17T12:58:34.000Z</time>
      </trkpt>
      <trkpt lat="43.92369" lon="7.24565">
        <ele>1018.626526</ele>
        <time>2016-01-17T12:58:39.000Z</time>
      </trkpt>
      <trkpt lat="43.92369" lon="7.24565">
        <ele>1018.648926</ele>
        <time>2016-01-17T12:58:44.000Z</time>
      </trkpt>
      <trkpt lat="43.92369" lon="7.24565">
        <ele>1018.679382</ele>
        <time>2016-01-17T12:58:49.000Z</time>
      </trkpt>
      <trkpt lat="43.9237" lon="7.24565">
        <ele>1018.702759</ele>
        <time>2016-01-17T12:58:54.000Z</time>
      </trkpt>
      <trkpt lat="43.9237" lon="7.24565">
        <ele>1018.716003</ele>
        <time>2016-01-17T12:58:59.000Z</time>
      </trkpt>
      <trkpt lat="43.9237" lon="7.24564">
        <ele>1018.744324</ele>
        <time>2016-01-17T12:59:04.000Z</time>
      </trkpt>
      <trkpt lat="43.9237" lon="7.24564">
        <ele>1018.760925</ele>
        <time>2016-01-17T12:59:09.000Z</time>
      </trkpt>
      <trkpt lat="43.9237" lon="7.24564">
        <ele>1018.777588</ele>
        <time>2016-01-17T12:59:14.000Z</time>
      </trkpt>
      <trkpt lat="43.9237" lon="7.24564">
        <ele>1018.790283</ele>
        <time>2016-01-17T12:59:19.000Z</time>
      </trkpt>
      <trkpt lat="43.9237" lon="7.24564">
        <ele>1018.807007</ele>
        <time>2016-01-17T12:59:24.000Z</time>
      </trkpt>
      <trkpt lat="43.9237" lon="7.24564">
        <ele>1018.816772</ele>
        <time>2016-01-17T12:59:29.000Z</time>
      </trkpt>
      <trkpt lat="43.9237" lon="7.24564">
        <ele>1018.817078</ele>
        <time>2016-01-17T12:59:34.000Z</time>
      </trkpt>
      <trkpt lat="43.9237" lon="7.24564">
        <ele>1018.824097</ele>
        <time>2016-01-17T12:59:39.000Z</time>
      </trkpt>
      <trkpt lat="43.9237" lon="7.24564">
        <ele>1018.839355</ele>
        <time>2016-01-17T12:59:44.000Z</time>
      </trkpt>
      <trkpt lat="43.9237" lon="7.24564">
        <ele>1018.867981</ele>
        <time>2016-01-17T12:59:49.000Z</time>
      </trkpt>
      <trkpt lat="43.9237" lon="7.24564">
        <ele>1018.917236</ele>
        <time>2016-01-17T12:59:54.000Z</time>
      </trkpt>
      <trkpt lat="43.9237" lon="7.24564">
        <ele>1018.968445</ele>
        <time>2016-01-17T12:59:59.000Z</time>
      </trkpt>
      <trkpt lat="43.9237" lon="7.24564">
        <ele>1019.006775</ele>
        <time>2016-01-17T13:00:04.000Z</time>
      </trkpt>
      <trkpt lat="43.9237" lon="7.24564">
        <ele>1019.022949</ele>
        <time>2016-01-17T13:00:09.000Z</time>
      </trkpt>
      <trkpt lat="43.9237" lon="7.24564">
        <ele>1019.051697</ele>
        <time>2016-01-17T13:00:14.000Z</time>
      </trkpt>
      <trkpt lat="43.9237" lon="7.24564">
        <ele>1019.099304</ele>
        <time>2016-01-17T13:00:19.000Z</time>
      </trkpt>
      <trkpt lat="43.9237" lon="7.24564">
        <ele>1019.126709</ele>
        <time>2016-01-17T13:00:24.000Z</time>
      </trkpt>
      <trkpt lat="43.9237" lon="7.24564">
        <ele>1019.147705</ele>
        <time>2016-01-17T13:00:29.000Z</time>
      </trkpt>
      <trkpt lat="43.9237" lon="7.24564">
        <ele>1019.164917</ele>
        <time>2016-01-17T13:00:34.000Z</time>
      </trkpt>
      <trkpt lat="43.9237" lon="7.24564">
        <ele>1019.189392</ele>
        <time>2016-01-17T13:00:39.000Z</time>
      </trkpt>
      <trkpt lat="43.9237" lon="7.24564">
        <ele>1019.205017</ele>
        <time>2016-01-17T13:00:44.000Z</time>
      </trkpt>
      <trkpt lat="43.9237" lon="7.24564">
        <ele>1019.21405</ele>
        <time>2016-01-17T13:00:49.000Z</time>
      </trkpt>
      <trkpt lat="43.9237" lon="7.24564">
        <ele>1019.237</ele>
        <time>2016-01-17T13:00:54.000Z</time>
      </trkpt>
      <trkpt lat="43.9237" lon="7.24563">
        <ele>1019.256042</ele>
        <time>2016-01-17T13:00:59.000Z</time>
      </trkpt>
      <trkpt lat="43.9237" lon="7.24563">
        <ele>1019.273682</ele>
        <time>2016-01-17T13:01:04.000Z</time>
      </trkpt>
      <trkpt lat="43.9237" lon="7.24563">
        <ele>1019.315369</ele>
        <time>2016-01-17T13:01:09.000Z</time>
      </trkpt>
      <trkpt lat="43.9237" lon="7.24563">
        <ele>1019.349976</ele>
        <time>2016-01-17T13:01:14.000Z</time>
      </trkpt>
      <trkpt lat="43.9237" lon="7.24563">
        <ele>1019.413391</ele>
        <time>2016-01-17T13:01:19.000Z</time>
      </trkpt>
      <trkpt lat="43.9237" lon="7.24563">
        <ele>1019.472961</ele>
        <time>2016-01-17T13:01:24.000Z</time>
      </trkpt>
      <trkpt lat="43.9237" lon="7.24563">
        <ele>1019.546509</ele>
        <time>2016-01-17T13:01:29.000Z</time>
      </trkpt>
      <trkpt lat="43.9237" lon="7.24563">
        <ele>1019.556458</ele>
        <time>2016-01-17T13:01:34.000Z</time>
      </trkpt>
      <trkpt lat="43.9237" lon="7.24563">
        <ele>1019.559814</ele>
        <time>2016-01-17T13:01:39.000Z</time>
      </trkpt>
      <trkpt lat="43.9237" lon="7.24563">
        <ele>1019.565063</ele>
        <time>2016-01-17T13:01:44.000Z</time>
      </trkpt>
      <trkpt lat="43.9237" lon="7.24563">
        <ele>1019.568909</ele>
        <time>2016-01-17T13:01:49.000Z</time>
      </trkpt>
      <trkpt lat="43.9237" lon="7.24563">
        <ele>1019.608887</ele>
        <time>2016-01-17T13:01:54.000Z</time>
      </trkpt>
      <trkpt lat="43.9237" lon="7.24563">
        <ele>1019.639832</ele>
        <time>2016-01-17T13:01:59.000Z</time>
      </trkpt>
      <trkpt lat="43.9237" lon="7.24563">
        <ele>1019.64209</ele>
        <time>2016-01-17T13:02:04.000Z</time>
      </trkpt>
      <trkpt lat="43.9237" lon="7.24563">
        <ele>1019.663086</ele>
        <time>2016-01-17T13:02:09.000Z</time>
      </trkpt>
      <trkpt lat="43.9237" lon="7.24563">
        <ele>1019.698486</ele>
        <time>2016-01-17T13:02:14.000Z</time>
      </trkpt>
      <trkpt lat="43.9237" lon="7.24563">
        <ele>1019.729797</ele>
        <time>2016-01-17T13:02:19.000Z</time>
      </trkpt>
      <trkpt lat="43.9237" lon="7.24563">
        <ele>1019.748718</ele>
        <time>2016-01-17T13:02:24.000Z</time>
      </trkpt>
      <trkpt lat="43.9237" lon="7.24563">
        <ele>1019.790405</ele>
        <time>2016-01-17T13:02:29.000Z</time>
      </trkpt>
      <trkpt lat="43.9237" lon="7.24563">
        <ele>1019.825867</ele>
        <time>2016-01-17T13:02:34.000Z</time>
      </trkpt>
      <trkpt lat="43.9237" lon="7.24563">
        <ele>1019.85321</ele>
        <time>2016-01-17T13:02:39.000Z</time>
      </trkpt>
      <trkpt lat="43.9237" lon="7.24563">
        <ele>1019.862122</ele>
        <time>2016-01-17T13:02:44.000Z</time>
      </trkpt>
      <trkpt lat="43.9237" lon="7.24563">
        <ele>1019.892395</ele>
        <time>2016-01-17T13:02:49.000Z</time>
      </trkpt>
      <trkpt lat="43.9237" lon="7.24563">
        <ele>1019.909546</ele>
        <time>2016-01-17T13:02:54.000Z</time>
      </trkpt>
      <trkpt lat="43.9237" lon="7.24563">
        <ele>1019.941223</ele>
        <time>2016-01-17T13:02:59.000Z</time>
      </trkpt>
      <trkpt lat="43.9237" lon="7.24563">
        <ele>1019.985107</ele>
        <time>2016-01-17T13:03:04.000Z</time>
      </trkpt>
      <trkpt lat="43.9237" lon="7.24563">
        <ele>1020.032959</ele>
        <time>2016-01-17T13:03:09.000Z</time>
      </trkpt>
      <trkpt lat="43.9237" lon="7.24563">
        <ele>1020.078003</ele>
        <time>2016-01-17T13:03:14.000Z</time>
      </trkpt>
      <trkpt lat="43.9237" lon="7.24563">
        <ele>1020.113281</ele>
        <time>2016-01-17T13:03:19.000Z</time>
      </trkpt>
      <trkpt lat="43.9237" lon="7.24563">
        <ele>1020.14325</ele>
        <time>2016-01-17T13:03:24.000Z</time>
      </trkpt>
      <trkpt lat="43.9237" lon="7.24563">
        <ele>1020.168457</ele>
        <time>2016-01-17T13:03:29.000Z</time>
      </trkpt>
      <trkpt lat="43.9237" lon="7.24563">
        <ele>1020.19342</ele>
        <time>2016-01-17T13:03:34.000Z</time>
      </trkpt>
      <trkpt lat="43.9237" lon="7.24563">
        <ele>1020.214233</ele>
        <time>2016-01-17T13:03:39.000Z</time>
      </trkpt>
      <trkpt lat="43.9237" lon="7.24563">
        <ele>1020.236084</ele>
        <time>2016-01-17T13:03:44.000Z</time>
      </trkpt>
      <trkpt lat="43.9237" lon="7.24563">
        <ele>1020.257751</ele>
        <time>2016-01-17T13:03:49.000Z</time>
      </trkpt>
      <trkpt lat="43.9237" lon="7.24563">
        <ele>1020.28186</ele>
        <time>2016-01-17T13:03:54.000Z</time>
      </trkpt>
      <trkpt lat="43.9237" lon="7.24563">
        <ele>1020.30603</ele>
        <time>2016-01-17T13:03:59.000Z</time>
      </trkpt>
      <trkpt lat="43.9237" lon="7.24563">
        <ele>1020.328552</ele>
        <time>2016-01-17T13:04:04.000Z</time>
      </trkpt>
      <trkpt lat="43.9237" lon="7.24563">
        <ele>1020.348267</ele>
        <time>2016-01-17T13:04:09.000Z</time>
      </trkpt>
      <trkpt lat="43.9237" lon="7.24563">
        <ele>1020.370483</ele>
        <time>2016-01-17T13:04:14.000Z</time>
      </trkpt>
      <trkpt lat="43.9237" lon="7.24563">
        <ele>1020.393677</ele>
        <time>2016-01-17T13:04:19.000Z</time>
      </trkpt>
      <trkpt lat="43.9237" lon="7.24563">
        <ele>1020.410156</ele>
        <time>2016-01-17T13:04:24.000Z</time>
      </trkpt>
      <trkpt lat="43.9237" lon="7.24563">
        <ele>1020.433167</ele>
        <time>2016-01-17T13:04:29.000Z</time>
      </trkpt>
      <trkpt lat="43.9237" lon="7.24563">
        <ele>1020.462891</ele>
        <time>2016-01-17T13:04:34.000Z</time>
      </trkpt>
      <trkpt lat="43.9237" lon="7.24563">
        <ele>1020.487</ele>
        <time>2016-01-17T13:04:39.000Z</time>
      </trkpt>
      <trkpt lat="43.9237" lon="7.24563">
        <ele>1020.509644</ele>
        <time>2016-01-17T13:04:44.000Z</time>
      </trkpt>
      <trkpt lat="43.9237" lon="7.24563">
        <ele>1020.527405</ele>
        <time>2016-01-17T13:04:49.000Z</time>
      </trkpt>
      <trkpt lat="43.9237" lon="7.24563">
        <ele>1020.543945</ele>
        <time>2016-01-17T13:04:54.000Z</time>
      </trkpt>
      <trkpt lat="43.92371" lon="7.24563">
        <ele>1020.562683</ele>
        <time>2016-01-17T13:04:59.000Z</time>
      </trkpt>
      <trkpt lat="43.92371" lon="7.24563">
        <ele>1020.583252</ele>
        <time>2016-01-17T13:05:04.000Z</time>
      </trkpt>
      <trkpt lat="43.92371" lon="7.24563">
        <ele>1020.601746</ele>
        <time>2016-01-17T13:05:09.000Z</time>
      </trkpt>
      <trkpt lat="43.92371" lon="7.24563">
        <ele>1020.62085</ele>
        <time>2016-01-17T13:05:14.000Z</time>
      </trkpt>
      <trkpt lat="43.92371" lon="7.24563">
        <ele>1020.64978</ele>
        <time>2016-01-17T13:05:19.000Z</time>
      </trkpt>
      <trkpt lat="43.92371" lon="7.24563">
        <ele>1020.679993</ele>
        <time>2016-01-17T13:05:24.000Z</time>
      </trkpt>
      <trkpt lat="43.92371" lon="7.24563">
        <ele>1020.710571</ele>
        <time>2016-01-17T13:05:29.000Z</time>
      </trkpt>
      <trkpt lat="43.92371" lon="7.24563">
        <ele>1020.735168</ele>
        <time>2016-01-17T13:05:34.000Z</time>
      </trkpt>
      <trkpt lat="43.92371" lon="7.24563">
        <ele>1020.761475</ele>
        <time>2016-01-17T13:05:39.000Z</time>
      </trkpt>
      <trkpt lat="43.92371" lon="7.24563">
        <ele>1020.794067</ele>
        <time>2016-01-17T13:05:44.000Z</time>
      </trkpt>
      <trkpt lat="43.92371" lon="7.24563">
        <ele>1020.81897</ele>
        <time>2016-01-17T13:05:49.000Z</time>
      </trkpt>
      <trkpt lat="43.92371" lon="7.24563">
        <ele>1020.843811</ele>
        <time>2016-01-17T13:05:54.000Z</time>
      </trkpt>
      <trkpt lat="43.92371" lon="7.24563">
        <ele>1020.86261</ele>
        <time>2016-01-17T13:05:59.000Z</time>
      </trkpt>
      <trkpt lat="43.92371" lon="7.24563">
        <ele>1020.889404</ele>
        <time>2016-01-17T13:06:04.000Z</time>
      </trkpt>
      <trkpt lat="43.92371" lon="7.24563">
        <ele>1020.921753</ele>
        <time>2016-01-17T13:06:09.000Z</time>
      </trkpt>
      <trkpt lat="43.92371" lon="7.24563">
        <ele>1020.964905</ele>
        <time>2016-01-17T13:06:14.000Z</time>
      </trkpt>
      <trkpt lat="43.92371" lon="7.24563">
        <ele>1020.995789</ele>
        <time>2016-01-17T13:06:19.000Z</time>
      </trkpt>
      <trkpt lat="43.92371" lon="7.24563">
        <ele>1021.02533</ele>
        <time>2016-01-17T13:06:24.000Z</time>
      </trkpt>
      <trkpt lat="43.92371" lon="7.24563">
        <ele>1021.062805</ele>
        <time>2016-01-17T13:06:29.000Z</time>
      </trkpt>
      <trkpt lat="43.92371" lon="7.24563">
        <ele>1021.108032</ele>
        <time>2016-01-17T13:06:34.000Z</time>
      </trkpt>
      <trkpt lat="43.92371" lon="7.24563">
        <ele>1021.154175</ele>
        <time>2016-01-17T13:06:39.000Z</time>
      </trkpt>
      <trkpt lat="43.92371" lon="7.24563">
        <ele>1021.200928</ele>
        <time>2016-01-17T13:06:44.000Z</time>
      </trkpt>
      <trkpt lat="43.92371" lon="7.24563">
        <ele>1021.25885</ele>
        <time>2016-01-17T13:06:49.000Z</time>
      </trkpt>
      <trkpt lat="43.92371" lon="7.24563">
        <ele>1021.307434</ele>
        <time>2016-01-17T13:06:54.000Z</time>
      </trkpt>
      <trkpt lat="43.92371" lon="7.24563">
        <ele>1021.351624</ele>
        <time>2016-01-17T13:06:59.000Z</time>
      </trkpt>
      <trkpt lat="43.92371" lon="7.24563">
        <ele>1021.377502</ele>
        <time>2016-01-17T13:07:04.000Z</time>
      </trkpt>
      <trkpt lat="43.92371" lon="7.24563">
        <ele>1021.405029</ele>
        <time>2016-01-17T13:07:09.000Z</time>
      </trkpt>
      <trkpt lat="43.92371" lon="7.24563">
        <ele>1021.439758</ele>
        <time>2016-01-17T13:07:14.000Z</time>
      </trkpt>
      <trkpt lat="43.92371" lon="7.24563">
        <ele>1021.480835</ele>
        <time>2016-01-17T13:07:19.000Z</time>
      </trkpt>
      <trkpt lat="43.92371" lon="7.24563">
        <ele>1021.535339</ele>
        <time>2016-01-17T13:07:24.000Z</time>
      </trkpt>
      <trkpt lat="43.92371" lon="7.24563">
        <ele>1021.619385</ele>
        <time>2016-01-17T13:07:29.000Z</time>
      </trkpt>
      <trkpt lat="43.92371" lon="7.24563">
        <ele>1021.673767</ele>
        <time>2016-01-17T13:07:34.000Z</time>
      </trkpt>
      <trkpt lat="43.92371" lon="7.24563">
        <ele>1021.708862</ele>
        <time>2016-01-17T13:07:39.000Z</time>
      </trkpt>
      <trkpt lat="43.92371" lon="7.24563">
        <ele>1021.734253</ele>
        <time>2016-01-17T13:07:44.000Z</time>
      </trkpt>
      <trkpt lat="43.92371" lon="7.24563">
        <ele>1021.760193</ele>
        <time>2016-01-17T13:07:49.000Z</time>
      </trkpt>
      <trkpt lat="43.92371" lon="7.24563">
        <ele>1021.782349</ele>
        <time>2016-01-17T13:07:54.000Z</time>
      </trkpt>
      <trkpt lat="43.92371" lon="7.24563">
        <ele>1021.812561</ele>
        <time>2016-01-17T13:07:59.000Z</time>
      </trkpt>
      <trkpt lat="43.92371" lon="7.24563">
        <ele>1021.841736</ele>
        <time>2016-01-17T13:08:04.000Z</time>
      </trkpt>
      <trkpt lat="43.92371" lon="7.24563">
        <ele>1021.875427</ele>
        <time>2016-01-17T13:08:09.000Z</time>
      </trkpt>
      <trkpt lat="43.92371" lon="7.24563">
        <ele>1021.910461</ele>
        <time>2016-01-17T13:08:14.000Z</time>
      </trkpt>
      <trkpt lat="43.92371" lon="7.24563">
        <ele>1021.943909</ele>
        <time>2016-01-17T13:08:19.000Z</time>
      </trkpt>
      <trkpt lat="43.92371" lon="7.24563">
        <ele>1021.974182</ele>
        <time>2016-01-17T13:08:24.000Z</time>
      </trkpt>
      <trkpt lat="43.92371" lon="7.24563">
        <ele>1021.999023</ele>
        <time>2016-01-17T13:08:29.000Z</time>
      </trkpt>
      <trkpt lat="43.92371" lon="7.24563">
        <ele>1022.025818</ele>
        <time>2016-01-17T13:08:34.000Z</time>
      </trkpt>
      <trkpt lat="43.92371" lon="7.24563">
        <ele>1022.061462</ele>
        <time>2016-01-17T13:08:39.000Z</time>
      </trkpt>
      <trkpt lat="43.92371" lon="7.24563">
        <ele>1022.104248</ele>
        <time>2016-01-17T13:08:44.000Z</time>
      </trkpt>
      <trkpt lat="43.92371" lon="7.24563">
        <ele>1022.161377</ele>
        <time>2016-01-17T13:08:49.000Z</time>
      </trkpt>
      <trkpt lat="43.92371" lon="7.24563">
        <ele>1022.198669</ele>
        <time>2016-01-17T13:08:54.000Z</time>
      </trkpt>
      <trkpt lat="43.92371" lon="7.24563">
        <ele>1022.234802</ele>
        <time>2016-01-17T13:08:59.000Z</time>
      </trkpt>
      <trkpt lat="43.92371" lon="7.24563">
        <ele>1022.246826</ele>
        <time>2016-01-17T13:09:04.000Z</time>
      </trkpt>
      <trkpt lat="43.92371" lon="7.24563">
        <ele>1022.260193</ele>
        <time>2016-01-17T13:09:09.000Z</time>
      </trkpt>
      <trkpt lat="43.92371" lon="7.24563">
        <ele>1022.270508</ele>
        <time>2016-01-17T13:09:14.000Z</time>
      </trkpt>
      <trkpt lat="43.92371" lon="7.24563">
        <ele>1022.287781</ele>
        <time>2016-01-17T13:09:19.000Z</time>
      </trkpt>
      <trkpt lat="43.92371" lon="7.24563">
        <ele>1022.304749</ele>
        <time>2016-01-17T13:09:24.000Z</time>
      </trkpt>
      <trkpt lat="43.92371" lon="7.24563">
        <ele>1022.323853</ele>
        <time>2016-01-17T13:09:29.000Z</time>
      </trkpt>
      <trkpt lat="43.92371" lon="7.24563">
        <ele>1022.346741</ele>
        <time>2016-01-17T13:09:34.000Z</time>
      </trkpt>
      <trkpt lat="43.92371" lon="7.24563">
        <ele>1022.378845</ele>
        <time>2016-01-17T13:09:39.000Z</time>
      </trkpt>
      <trkpt lat="43.92371" lon="7.24563">
        <ele>1022.407288</ele>
        <time>2016-01-17T13:09:44.000Z</time>
      </trkpt>
      <trkpt lat="43.92371" lon="7.24562">
        <ele>1022.460388</ele>
        <time>2016-01-17T13:09:49.000Z</time>
      </trkpt>
      <trkpt lat="43.92371" lon="7.24562">
        <ele>1022.450806</ele>
        <time>2016-01-17T13:09:54.000Z</time>
      </trkpt>
      <trkpt lat="43.92371" lon="7.24562">
        <ele>1022.443542</ele>
        <time>2016-01-17T13:09:59.000Z</time>
      </trkpt>
      <trkpt lat="43.92371" lon="7.24562">
        <ele>1022.44928</ele>
        <time>2016-01-17T13:10:04.000Z</time>
      </trkpt>
      <trkpt lat="43.92371" lon="7.24562">
        <ele>1022.40271</ele>
        <time>2016-01-17T13:10:09.000Z</time>
      </trkpt>
      <trkpt lat="43.92371" lon="7.24562">
        <ele>1022.409363</ele>
        <time>2016-01-17T13:10:14.000Z</time>
      </trkpt>
      <trkpt lat="43.92371" lon="7.24562">
        <ele>1022.453552</ele>
        <time>2016-01-17T13:10:19.000Z</time>
      </trkpt>
      <trkpt lat="43.92372" lon="7.24562">
        <ele>1022.557617</ele>
        <time>2016-01-17T13:10:24.000Z</time>
      </trkpt>
      <trkpt lat="43.92372" lon="7.24562">
        <ele>1022.7453</ele>
        <time>2016-01-17T13:10:29.000Z</time>
      </trkpt>
      <trkpt lat="43.92372" lon="7.24562">
        <ele>1023.04303</ele>
        <time>2016-01-17T13:10:34.000Z</time>
      </trkpt>
      <trkpt lat="43.92372" lon="7.24562">
        <ele>1023.092224</ele>
        <time>2016-01-17T13:10:39.000Z</time>
      </trkpt>
      <trkpt lat="43.92375" lon="7.24559">
        <ele>1023.384521</ele>
        <time>2016-01-17T13:10:44.000Z</time>
      </trkpt>
      <trkpt lat="43.92376" lon="7.24559">
        <ele>1025.101685</ele>
        <time>2016-01-17T13:10:49.000Z</time>
      </trkpt>
      <trkpt lat="43.92377" lon="7.24559">
        <ele>1026.142822</ele>
        <time>2016-01-17T13:10:54.000Z</time>
      </trkpt>
      <trkpt lat="43.92377" lon="7.24559">
        <ele>1027.00769</ele>
        <time>2016-01-17T13:10:59.000Z</time>
      </trkpt>
      <trkpt lat="43.92378" lon="7.24559">
        <ele>1026.591187</ele>
        <time>2016-01-17T13:11:04.000Z</time>
      </trkpt>
      <trkpt lat="43.92378" lon="7.24559">
        <ele>1026.613037</ele>
        <time>2016-01-17T13:11:09.000Z</time>
      </trkpt>
      <trkpt lat="43.92377" lon="7.24558">
        <ele>1026.924561</ele>
        <time>2016-01-17T13:11:14.000Z</time>
      </trkpt>
      <trkpt lat="43.92377" lon="7.24559">
        <ele>1027.166626</ele>
        <time>2016-01-17T13:11:19.000Z</time>
      </trkpt>
      <trkpt lat="43.92376" lon="7.24562">
        <ele>1027.528198</ele>
        <time>2016-01-17T13:11:24.000Z</time>
      </trkpt>
      <trkpt lat="43.92378" lon="7.24557">
        <ele>1027.974365</ele>
        <time>2016-01-17T13:11:29.000Z</time>
      </trkpt>
      <trkpt lat="43.92375" lon="7.2455">
        <ele>1028.073486</ele>
        <time>2016-01-17T13:11:34.000Z</time>
      </trkpt>
      <trkpt lat="43.92368" lon="7.24534">
        <ele>1025.507813</ele>
        <time>2016-01-17T13:11:39.000Z</time>
      </trkpt>
      <trkpt lat="43.92359" lon="7.2452">
        <ele>1021.961121</ele>
        <time>2016-01-17T13:11:44.000Z</time>
      </trkpt>
      <trkpt lat="43.92354" lon="7.24508">
        <ele>1018.598267</ele>
        <time>2016-01-17T13:11:49.000Z</time>
      </trkpt>
      <trkpt lat="43.92352" lon="7.24505">
        <ele>1016.21344</ele>
        <time>2016-01-17T13:11:54.000Z</time>
      </trkpt>
      <trkpt lat="43.92351" lon="7.24507">
        <ele>1015.932251</ele>
        <time>2016-01-17T13:11:59.000Z</time>
      </trkpt>
      <trkpt lat="43.92347" lon="7.24499">
        <ele>1014.83075</ele>
        <time>2016-01-17T13:12:04.000Z</time>
      </trkpt>
      <trkpt lat="43.92342" lon="7.24485">
        <ele>1011.784729</ele>
        <time>2016-01-17T13:12:09.000Z</time>
      </trkpt>
      <trkpt lat="43.92338" lon="7.2449">
        <ele>1008.276062</ele>
        <time>2016-01-17T13:12:14.000Z</time>
      </trkpt>
      <trkpt lat="43.92336" lon="7.24492">
        <ele>1006.22644</ele>
        <time>2016-01-17T13:12:19.000Z</time>
      </trkpt>
      <trkpt lat="43.92331" lon="7.2448">
        <ele>1004.148315</ele>
        <time>2016-01-17T13:12:24.000Z</time>
      </trkpt>
      <trkpt lat="43.92326" lon="7.24469">
        <ele>1000.42157</ele>
        <time>2016-01-17T13:12:29.000Z</time>
      </trkpt>
      <trkpt lat="43.92324" lon="7.24468">
        <ele>998.317871</ele>
        <time>2016-01-17T13:12:34.000Z</time>
      </trkpt>
      <trkpt lat="43.92322" lon="7.24469">
        <ele>997.981079</ele>
        <time>2016-01-17T13:12:39.000Z</time>
      </trkpt>
      <trkpt lat="43.92319" lon="7.24466">
        <ele>997.095276</ele>
        <time>2016-01-17T13:12:44.000Z</time>
      </trkpt>
      <trkpt lat="43.92319" lon="7.24452">
        <ele>994.592834</ele>
        <time>2016-01-17T13:12:49.000Z</time>
      </trkpt>
      <trkpt lat="43.92313" lon="7.24441">
        <ele>991.927612</ele>
        <time>2016-01-17T13:12:54.000Z</time>
      </trkpt>
      <trkpt lat="43.92316" lon="7.24422">
        <ele>989.911377</ele>
        <time>2016-01-17T13:12:59.000Z</time>
      </trkpt>
      <trkpt lat="43.9232" lon="7.24402">
        <ele>989.357178</ele>
        <time>2016-01-17T13:13:04.000Z</time>
      </trkpt>
      <trkpt lat="43.92315" lon="7.24388">
        <ele>986.581604</ele>
        <time>2016-01-17T13:13:09.000Z</time>
      </trkpt>
      <trkpt lat="43.92306" lon="7.24383">
        <ele>983.238464</ele>
        <time>2016-01-17T13:13:14.000Z</time>
      </trkpt>
      <trkpt lat="43.92295" lon="7.24388">
        <ele>980.278503</ele>
        <time>2016-01-17T13:13:19.000Z</time>
      </trkpt>
      <trkpt lat="43.92285" lon="7.24387">
        <ele>976.077271</ele>
        <time>2016-01-17T13:13:24.000Z</time>
      </trkpt>
      <trkpt lat="43.92273" lon="7.24382">
        <ele>972.780762</ele>
        <time>2016-01-17T13:13:29.000Z</time>
      </trkpt>
      <trkpt lat="43.92272" lon="7.24386">
        <ele>971.204163</ele>
        <time>2016-01-17T13:13:34.000Z</time>
      </trkpt>
      <trkpt lat="43.92274" lon="7.24389">
        <ele>970.771545</ele>
        <time>2016-01-17T13:13:39.000Z</time>
      </trkpt>
      <trkpt lat="43.92265" lon="7.24386">
        <ele>969.120056</ele>
        <time>2016-01-17T13:13:44.000Z</time>
      </trkpt>
      <trkpt lat="43.92256" lon="7.24384">
        <ele>967.566772</ele>
        <time>2016-01-17T13:13:49.000Z</time>
      </trkpt>
      <trkpt lat="43.92255" lon="7.24385">
        <ele>966.526489</ele>
        <time>2016-01-17T13:13:54.000Z</time>
      </trkpt>
      <trkpt lat="43.92255" lon="7.24385">
        <ele>966.386475</ele>
        <time>2016-01-17T13:13:59.000Z</time>
      </trkpt>
      <trkpt lat="43.92254" lon="7.24385">
        <ele>966.321594</ele>
        <time>2016-01-17T13:14:04.000Z</time>
      </trkpt>
      <trkpt lat="43.92253" lon="7.24378">
        <ele>966.719177</ele>
        <time>2016-01-17T13:14:09.000Z</time>
      </trkpt>
      <trkpt lat="43.92247" lon="7.24366">
        <ele>966.232727</ele>
        <time>2016-01-17T13:14:14.000Z</time>
      </trkpt>
      <trkpt lat="43.92237" lon="7.24368">
        <ele>964.225647</ele>
        <time>2016-01-17T13:14:19.000Z</time>
      </trkpt>
      <trkpt lat="43.92231" lon="7.2437">
        <ele>962.954468</ele>
        <time>2016-01-17T13:14:24.000Z</time>
      </trkpt>
      <trkpt lat="43.92218" lon="7.24365">
        <ele>959.353821</ele>
        <time>2016-01-17T13:14:29.000Z</time>
      </trkpt>
      <trkpt lat="43.92212" lon="7.24345">
        <ele>956.545166</ele>
        <time>2016-01-17T13:14:34.000Z</time>
      </trkpt>
      <trkpt lat="43.92196" lon="7.24325">
        <ele>954.643921</ele>
        <time>2016-01-17T13:14:39.000Z</time>
      </trkpt>
      <trkpt lat="43.92181" lon="7.24324">
        <ele>953.351624</ele>
        <time>2016-01-17T13:14:44.000Z</time>
      </trkpt>
      <trkpt lat="43.92181" lon="7.24324">
        <ele>953.363525</ele>
        <time>2016-01-17T13:14:49.000Z</time>
      </trkpt>
      <trkpt lat="43.92178" lon="7.24327">
        <ele>953.404785</ele>
        <time>2016-01-17T13:14:54.000Z</time>
      </trkpt>
      <trkpt lat="43.92176" lon="7.24327">
        <ele>954.017334</ele>
        <time>2016-01-17T13:14:59.000Z</time>
      </trkpt>
      <trkpt lat="43.92173" lon="7.24331">
        <ele>953.921814</ele>
        <time>2016-01-17T13:15:04.000Z</time>
      </trkpt>
      <trkpt lat="43.9217" lon="7.24331">
        <ele>953.400757</ele>
        <time>2016-01-17T13:15:09.000Z</time>
      </trkpt>
      <trkpt lat="43.92163" lon="7.24338">
        <ele>952.768127</ele>
        <time>2016-01-17T13:15:14.000Z</time>
      </trkpt>
      <trkpt lat="43.92152" lon="7.24352">
        <ele>950.254028</ele>
        <time>2016-01-17T13:15:19.000Z</time>
      </trkpt>
      <trkpt lat="43.92139" lon="7.24362">
        <ele>946.651794</ele>
        <time>2016-01-17T13:15:24.000Z</time>
      </trkpt>
      <trkpt lat="43.92136" lon="7.24363">
        <ele>944.934814</ele>
        <time>2016-01-17T13:15:29.000Z</time>
      </trkpt>
      <trkpt lat="43.92131" lon="7.24376">
        <ele>943.234558</ele>
        <time>2016-01-17T13:15:34.000Z</time>
      </trkpt>
      <trkpt lat="43.9212" lon="7.24382">
        <ele>940.554321</ele>
        <time>2016-01-17T13:15:39.000Z</time>
      </trkpt>
      <trkpt lat="43.92109" lon="7.24381">
        <ele>937.353149</ele>
        <time>2016-01-17T13:15:44.000Z</time>
      </trkpt>
      <trkpt lat="43.92098" lon="7.2438">
        <ele>932.730042</ele>
        <time>2016-01-17T13:15:49.000Z</time>
      </trkpt>
      <trkpt lat="43.92098" lon="7.24381">
        <ele>927.904785</ele>
        <time>2016-01-17T13:15:54.000Z</time>
      </trkpt>
      <trkpt lat="43.92088" lon="7.24377">
        <ele>922.469727</ele>
        <time>2016-01-17T13:15:59.000Z</time>
      </trkpt>
      <trkpt lat="43.92079" lon="7.24365">
        <ele>917.033264</ele>
        <time>2016-01-17T13:16:04.000Z</time>
      </trkpt>
      <trkpt lat="43.92073" lon="7.24362">
        <ele>913.558289</ele>
        <time>2016-01-17T13:16:09.000Z</time>
      </trkpt>
      <trkpt lat="43.9207" lon="7.24368">
        <ele>911.203857</ele>
        <time>2016-01-17T13:16:14.000Z</time>
      </trkpt>
      <trkpt lat="43.9207" lon="7.24366">
        <ele>909.119141</ele>
        <time>2016-01-17T13:16:19.000Z</time>
      </trkpt>
      <trkpt lat="43.92063" lon="7.24351">
        <ele>906.030701</ele>
        <time>2016-01-17T13:16:24.000Z</time>
      </trkpt>
      <trkpt lat="43.92059" lon="7.2435">
        <ele>904.125305</ele>
        <time>2016-01-17T13:16:29.000Z</time>
      </trkpt>
      <trkpt lat="43.92061" lon="7.24365">
        <ele>901.49292</ele>
        <time>2016-01-17T13:16:34.000Z</time>
      </trkpt>
      <trkpt lat="43.9205" lon="7.24383">
        <ele>898.894775</ele>
        <time>2016-01-17T13:16:39.000Z</time>
      </trkpt>
      <trkpt lat="43.92037" lon="7.24402">
        <ele>895.195557</ele>
        <time>2016-01-17T13:16:44.000Z</time>
      </trkpt>
      <trkpt lat="43.92026" lon="7.24424">
        <ele>891.539307</ele>
        <time>2016-01-17T13:16:49.000Z</time>
      </trkpt>
      <trkpt lat="43.92012" lon="7.2445">
        <ele>888.304688</ele>
        <time>2016-01-17T13:16:54.000Z</time>
      </trkpt>
      <trkpt lat="43.91995" lon="7.24467">
        <ele>884.497864</ele>
        <time>2016-01-17T13:16:59.000Z</time>
      </trkpt>
      <trkpt lat="43.91977" lon="7.24475">
        <ele>880.582092</ele>
        <time>2016-01-17T13:17:04.000Z</time>
      </trkpt>
      <trkpt lat="43.91951" lon="7.24485">
        <ele>877.255249</ele>
        <time>2016-01-17T13:17:09.000Z</time>
      </trkpt>
      <trkpt lat="43.91935" lon="7.2451">
        <ele>873.494751</ele>
        <time>2016-01-17T13:17:14.000Z</time>
      </trkpt>
      <trkpt lat="43.91912" lon="7.24523">
        <ele>869.080566</ele>
        <time>2016-01-17T13:17:19.000Z</time>
      </trkpt>
      <trkpt lat="43.91888" lon="7.2453">
        <ele>864.483459</ele>
        <time>2016-01-17T13:17:24.000Z</time>
      </trkpt>
      <trkpt lat="43.91868" lon="7.24533">
        <ele>862.588379</ele>
        <time>2016-01-17T13:17:29.000Z</time>
      </trkpt>
      <trkpt lat="43.91867" lon="7.24535">
        <ele>862.741272</ele>
        <time>2016-01-17T13:17:34.000Z</time>
      </trkpt>
      <trkpt lat="43.91868" lon="7.24534">
        <ele>862.777039</ele>
        <time>2016-01-17T13:17:39.000Z</time>
      </trkpt>
      <trkpt lat="43.91868" lon="7.24535">
        <ele>862.788574</ele>
        <time>2016-01-17T13:17:44.000Z</time>
      </trkpt>
      <trkpt lat="43.91867" lon="7.24534">
        <ele>862.407104</ele>
        <time>2016-01-17T13:17:49.000Z</time>
      </trkpt>
      <trkpt lat="43.91868" lon="7.24533">
        <ele>862.132263</ele>
        <time>2016-01-17T13:17:54.000Z</time>
      </trkpt>
      <trkpt lat="43.91868" lon="7.24533">
        <ele>861.98291</ele>
        <time>2016-01-17T13:17:59.000Z</time>
      </trkpt>
      <trkpt lat="43.91868" lon="7.24534">
        <ele>861.932739</ele>
        <time>2016-01-17T13:18:04.000Z</time>
      </trkpt>
      <trkpt lat="43.91868" lon="7.24535">
        <ele>861.909668</ele>
        <time>2016-01-17T13:18:09.000Z</time>
      </trkpt>
      <trkpt lat="43.91868" lon="7.24535">
        <ele>861.897583</ele>
        <time>2016-01-17T13:18:14.000Z</time>
      </trkpt>
      <trkpt lat="43.91868" lon="7.24535">
        <ele>861.894836</ele>
        <time>2016-01-17T13:18:19.000Z</time>
      </trkpt>
      <trkpt lat="43.91868" lon="7.24535">
        <ele>861.852234</ele>
        <time>2016-01-17T13:18:24.000Z</time>
      </trkpt>
      <trkpt lat="43.91868" lon="7.24535">
        <ele>861.836975</ele>
        <time>2016-01-17T13:18:29.000Z</time>
      </trkpt>
      <trkpt lat="43.91868" lon="7.24535">
        <ele>861.821594</ele>
        <time>2016-01-17T13:18:34.000Z</time>
      </trkpt>
      <trkpt lat="43.91868" lon="7.24535">
        <ele>861.813049</ele>
        <time>2016-01-17T13:18:39.000Z</time>
      </trkpt>
      <trkpt lat="43.91868" lon="7.24535">
        <ele>861.804321</ele>
        <time>2016-01-17T13:18:44.000Z</time>
      </trkpt>
      <trkpt lat="43.91868" lon="7.24536">
        <ele>861.831421</ele>
        <time>2016-01-17T13:18:49.000Z</time>
      </trkpt>
      <trkpt lat="43.91868" lon="7.24537">
        <ele>861.967468</ele>
        <time>2016-01-17T13:18:54.000Z</time>
      </trkpt>
      <trkpt lat="43.91868" lon="7.24537">
        <ele>862.174377</ele>
        <time>2016-01-17T13:18:59.000Z</time>
      </trkpt>
      <trkpt lat="43.91869" lon="7.24536">
        <ele>862.378967</ele>
        <time>2016-01-17T13:19:04.000Z</time>
      </trkpt>
      <trkpt lat="43.91869" lon="7.24535">
        <ele>862.579468</ele>
        <time>2016-01-17T13:19:09.000Z</time>
      </trkpt>
      <trkpt lat="43.91869" lon="7.24534">
        <ele>862.784119</ele>
        <time>2016-01-17T13:19:14.000Z</time>
      </trkpt>
      <trkpt lat="43.91869" lon="7.24534">
        <ele>862.971069</ele>
        <time>2016-01-17T13:19:19.000Z</time>
      </trkpt>
      <trkpt lat="43.91868" lon="7.24534">
        <ele>863.140137</ele>
        <time>2016-01-17T13:19:24.000Z</time>
      </trkpt>
      <trkpt lat="43.91868" lon="7.24534">
        <ele>862.805542</ele>
        <time>2016-01-17T13:19:29.000Z</time>
      </trkpt>
      <trkpt lat="43.91869" lon="7.24534">
        <ele>863.201416</ele>
        <time>2016-01-17T13:19:34.000Z</time>
      </trkpt>
      <trkpt lat="43.91869" lon="7.24534">
        <ele>863.095215</ele>
        <time>2016-01-17T13:19:39.000Z</time>
      </trkpt>
      <trkpt lat="43.91868" lon="7.24535">
        <ele>862.757874</ele>
        <time>2016-01-17T13:19:44.000Z</time>
      </trkpt>
      <trkpt lat="43.91867" lon="7.24536">
        <ele>862.779968</ele>
        <time>2016-01-17T13:19:49.000Z</time>
      </trkpt>
      <trkpt lat="43.91867" lon="7.24536">
        <ele>862.455139</ele>
        <time>2016-01-17T13:19:54.000Z</time>
      </trkpt>
      <trkpt lat="43.91867" lon="7.24536">
        <ele>862.437683</ele>
        <time>2016-01-17T13:19:59.000Z</time>
      </trkpt>
      <trkpt lat="43.91867" lon="7.24537">
        <ele>862.361389</ele>
        <time>2016-01-17T13:20:04.000Z</time>
      </trkpt>
      <trkpt lat="43.91867" lon="7.24537">
        <ele>862.115234</ele>
        <time>2016-01-17T13:20:09.000Z</time>
      </trkpt>
      <trkpt lat="43.91868" lon="7.24536">
        <ele>861.467896</ele>
        <time>2016-01-17T13:20:14.000Z</time>
      </trkpt>
      <trkpt lat="43.91868" lon="7.24536">
        <ele>861.396545</ele>
        <time>2016-01-17T13:20:19.000Z</time>
      </trkpt>
      <trkpt lat="43.91872" lon="7.24537">
        <ele>861.824951</ele>
        <time>2016-01-17T13:20:24.000Z</time>
      </trkpt>
      <trkpt lat="43.91876" lon="7.24549">
        <ele>861.520874</ele>
        <time>2016-01-17T13:20:29.000Z</time>
      </trkpt>
      <trkpt lat="43.9186" lon="7.2458">
        <ele>859.545227</ele>
        <time>2016-01-17T13:20:34.000Z</time>
      </trkpt>
      <trkpt lat="43.9184" lon="7.24619">
        <ele>856.70752</ele>
        <time>2016-01-17T13:20:39.000Z</time>
      </trkpt>
      <trkpt lat="43.91819" lon="7.24657">
        <ele>854.22229</ele>
        <time>2016-01-17T13:20:44.000Z</time>
      </trkpt>
      <trkpt lat="43.91798" lon="7.24694">
        <ele>852.745911</ele>
        <time>2016-01-17T13:20:49.000Z</time>
      </trkpt>
      <trkpt lat="43.91776" lon="7.24734">
        <ele>849.681396</ele>
        <time>2016-01-17T13:20:54.000Z</time>
      </trkpt>
      <trkpt lat="43.9177" lon="7.2475">
        <ele>848.179871</ele>
        <time>2016-01-17T13:20:59.000Z</time>
      </trkpt>
      <trkpt lat="43.91784" lon="7.24747">
        <ele>844.596863</ele>
        <time>2016-01-17T13:21:04.000Z</time>
      </trkpt>
      <trkpt lat="43.91808" lon="7.24726">
        <ele>838.413574</ele>
        <time>2016-01-17T13:21:09.000Z</time>
      </trkpt>
      <trkpt lat="43.91831" lon="7.24703">
        <ele>836.418701</ele>
        <time>2016-01-17T13:21:14.000Z</time>
      </trkpt>
      <trkpt lat="43.91854" lon="7.24692">
        <ele>834.092346</ele>
        <time>2016-01-17T13:21:19.000Z</time>
      </trkpt>
      <trkpt lat="43.91868" lon="7.24683">
        <ele>832.944214</ele>
        <time>2016-01-17T13:21:24.000Z</time>
      </trkpt>
      <trkpt lat="43.91883" lon="7.24667">
        <ele>832.322144</ele>
        <time>2016-01-17T13:21:29.000Z</time>
      </trkpt>
      <trkpt lat="43.91883" lon="7.24666">
        <ele>831.198853</ele>
        <time>2016-01-17T13:21:34.000Z</time>
      </trkpt>
      <trkpt lat="43.91883" lon="7.24665">
        <ele>831.129883</ele>
        <time>2016-01-17T13:21:39.000Z</time>
      </trkpt>
      <trkpt lat="43.91883" lon="7.24665">
        <ele>831.117676</ele>
        <time>2016-01-17T13:21:44.000Z</time>
      </trkpt>
      <trkpt lat="43.91883" lon="7.24665">
        <ele>831.1203</ele>
        <time>2016-01-17T13:21:49.000Z</time>
      </trkpt>
      <trkpt lat="43.91889" lon="7.24659">
        <ele>830.813904</ele>
        <time>2016-01-17T13:21:54.000Z</time>
      </trkpt>
      <trkpt lat="43.91907" lon="7.24643">
        <ele>828.117065</ele>
        <time>2016-01-17T13:21:59.000Z</time>
      </trkpt>
      <trkpt lat="43.91934" lon="7.24629">
        <ele>824.416321</ele>
        <time>2016-01-17T13:22:04.000Z</time>
      </trkpt>
      <trkpt lat="43.91954" lon="7.24608">
        <ele>819.960022</ele>
        <time>2016-01-17T13:22:09.000Z</time>
      </trkpt>
      <trkpt lat="43.91977" lon="7.2461">
        <ele>815.151428</ele>
        <time>2016-01-17T13:22:14.000Z</time>
      </trkpt>
      <trkpt lat="43.92001" lon="7.24608">
        <ele>810.818237</ele>
        <time>2016-01-17T13:22:19.000Z</time>
      </trkpt>
      <trkpt lat="43.92021" lon="7.24621">
        <ele>806.39447</ele>
        <time>2016-01-17T13:22:24.000Z</time>
      </trkpt>
      <trkpt lat="43.92042" lon="7.24622">
        <ele>801.866943</ele>
        <time>2016-01-17T13:22:29.000Z</time>
      </trkpt>
      <trkpt lat="43.92063" lon="7.24617">
        <ele>798.171509</ele>
        <time>2016-01-17T13:22:34.000Z</time>
      </trkpt>
      <trkpt lat="43.92085" lon="7.2463">
        <ele>793.531982</ele>
        <time>2016-01-17T13:22:39.000Z</time>
      </trkpt>
      <trkpt lat="43.92099" lon="7.24626">
        <ele>791.682983</ele>
        <time>2016-01-17T13:22:44.000Z</time>
      </trkpt>
      <trkpt lat="43.92108" lon="7.24643">
        <ele>788.974487</ele>
        <time>2016-01-17T13:22:49.000Z</time>
      </trkpt>
      <trkpt lat="43.92108" lon="7.24664">
        <ele>787.662659</ele>
        <time>2016-01-17T13:22:54.000Z</time>
      </trkpt>
      <trkpt lat="43.92105" lon="7.24691">
        <ele>785.547852</ele>
        <time>2016-01-17T13:22:59.000Z</time>
      </trkpt>
      <trkpt lat="43.92106" lon="7.24724">
        <ele>783.710144</ele>
        <time>2016-01-17T13:23:04.000Z</time>
      </trkpt>
      <trkpt lat="43.92096" lon="7.24755">
        <ele>781.268799</ele>
        <time>2016-01-17T13:23:09.000Z</time>
      </trkpt>
      <trkpt lat="43.92097" lon="7.24782">
        <ele>779.07373</ele>
        <time>2016-01-17T13:23:14.000Z</time>
      </trkpt>
      <trkpt lat="43.92098" lon="7.24782">
        <ele>779.560486</ele>
        <time>2016-01-17T13:23:19.000Z</time>
      </trkpt>
      <trkpt lat="43.92098" lon="7.24782">
        <ele>779.529785</ele>
        <time>2016-01-17T13:23:24.000Z</time>
      </trkpt>
      <trkpt lat="43.92098" lon="7.24782">
        <ele>779.501831</ele>
        <time>2016-01-17T13:23:29.000Z</time>
      </trkpt>
      <trkpt lat="43.92099" lon="7.24787">
        <ele>779.345764</ele>
        <time>2016-01-17T13:23:34.000Z</time>
      </trkpt>
      <trkpt lat="43.92102" lon="7.24817">
        <ele>776.865234</ele>
        <time>2016-01-17T13:23:39.000Z</time>
      </trkpt>
      <trkpt lat="43.92108" lon="7.24859">
        <ele>772.588745</ele>
        <time>2016-01-17T13:23:44.000Z</time>
      </trkpt>
      <trkpt lat="43.92109" lon="7.24901">
        <ele>767.720398</ele>
        <time>2016-01-17T13:23:49.000Z</time>
      </trkpt>
      <trkpt lat="43.92099" lon="7.24925">
        <ele>763.293457</ele>
        <time>2016-01-17T13:23:54.000Z</time>
      </trkpt>
      <trkpt lat="43.92095" lon="7.24934">
        <ele>760.897705</ele>
        <time>2016-01-17T13:23:59.000Z</time>
      </trkpt>
      <trkpt lat="43.92103" lon="7.24946">
        <ele>756.936707</ele>
        <time>2016-01-17T13:24:04.000Z</time>
      </trkpt>
      <trkpt lat="43.92111" lon="7.24971">
        <ele>750.821289</ele>
        <time>2016-01-17T13:24:09.000Z</time>
      </trkpt>
      <trkpt lat="43.92122" lon="7.24991">
        <ele>745.543884</ele>
        <time>2016-01-17T13:24:14.000Z</time>
      </trkpt>
      <trkpt lat="43.92129" lon="7.2501">
        <ele>741.434753</ele>
        <time>2016-01-17T13:24:19.000Z</time>
      </trkpt>
      <trkpt lat="43.92136" lon="7.25031">
        <ele>736.367004</ele>
        <time>2016-01-17T13:24:24.000Z</time>
      </trkpt>
      <trkpt lat="43.92137" lon="7.25059">
        <ele>731.094116</ele>
        <time>2016-01-17T13:24:29.000Z</time>
      </trkpt>
      <trkpt lat="43.92145" lon="7.25086">
        <ele>728.047546</ele>
        <time>2016-01-17T13:24:34.000Z</time>
      </trkpt>
      <trkpt lat="43.92147" lon="7.25115">
        <ele>725.081543</ele>
        <time>2016-01-17T13:24:39.000Z</time>
      </trkpt>
      <trkpt lat="43.92151" lon="7.2514">
        <ele>721.695679</ele>
        <time>2016-01-17T13:24:44.000Z</time>
      </trkpt>
      <trkpt lat="43.92158" lon="7.25172">
        <ele>719.937683</ele>
        <time>2016-01-17T13:24:49.000Z</time>
      </trkpt>
      <trkpt lat="43.92151" lon="7.25195">
        <ele>715.338989</ele>
        <time>2016-01-17T13:24:54.000Z</time>
      </trkpt>
      <trkpt lat="43.9215" lon="7.25201">
        <ele>714.37207</ele>
        <time>2016-01-17T13:24:59.000Z</time>
      </trkpt>
      <trkpt lat="43.9215" lon="7.25201">
        <ele>713.974426</ele>
        <time>2016-01-17T13:25:04.000Z</time>
      </trkpt>
      <trkpt lat="43.9215" lon="7.25201">
        <ele>713.874756</ele>
        <time>2016-01-17T13:25:09.000Z</time>
      </trkpt>
      <trkpt lat="43.9215" lon="7.25201">
        <ele>713.868103</ele>
        <time>2016-01-17T13:25:14.000Z</time>
      </trkpt>
      <trkpt lat="43.9215" lon="7.25201">
        <ele>713.823242</ele>
        <time>2016-01-17T13:25:19.000Z</time>
      </trkpt>
      <trkpt lat="43.92147" lon="7.25207">
        <ele>713.304016</ele>
        <time>2016-01-17T13:25:24.000Z</time>
      </trkpt>
      <trkpt lat="43.9214" lon="7.25211">
        <ele>710.928284</ele>
        <time>2016-01-17T13:25:29.000Z</time>
      </trkpt>
      <trkpt lat="43.92135" lon="7.25208">
        <ele>709.622437</ele>
        <time>2016-01-17T13:25:34.000Z</time>
      </trkpt>
      <trkpt lat="43.92122" lon="7.25234">
        <ele>705.167664</ele>
        <time>2016-01-17T13:25:39.000Z</time>
      </trkpt>
      <trkpt lat="43.92122" lon="7.25262">
        <ele>701.211792</ele>
        <time>2016-01-17T13:25:44.000Z</time>
      </trkpt>
      <trkpt lat="43.92125" lon="7.25295">
        <ele>697.654724</ele>
        <time>2016-01-17T13:25:49.000Z</time>
      </trkpt>
      <trkpt lat="43.92121" lon="7.25324">
        <ele>694.026184</ele>
        <time>2016-01-17T13:25:54.000Z</time>
      </trkpt>
      <trkpt lat="43.9211" lon="7.25349">
        <ele>689.364807</ele>
        <time>2016-01-17T13:25:59.000Z</time>
      </trkpt>
      <trkpt lat="43.92091" lon="7.25362">
        <ele>685.439636</ele>
        <time>2016-01-17T13:26:04.000Z</time>
      </trkpt>
      <trkpt lat="43.92085" lon="7.25361">
        <ele>684.003662</ele>
        <time>2016-01-17T13:26:09.000Z</time>
      </trkpt>
      <trkpt lat="43.92092" lon="7.25347">
        <ele>680.962524</ele>
        <time>2016-01-17T13:26:14.000Z</time>
      </trkpt>
      <trkpt lat="43.9209" lon="7.25344">
        <ele>680.390137</ele>
        <time>2016-01-17T13:26:19.000Z</time>
      </trkpt>
      <trkpt lat="43.9209" lon="7.25344">
        <ele>680.171692</ele>
        <time>2016-01-17T13:26:24.000Z</time>
      </trkpt>
      <trkpt lat="43.9209" lon="7.25344">
        <ele>680.154785</ele>
        <time>2016-01-17T13:26:29.000Z</time>
      </trkpt>
      <trkpt lat="43.9209" lon="7.25344">
        <ele>680.15094</ele>
        <time>2016-01-17T13:26:34.000Z</time>
      </trkpt>
      <trkpt lat="43.9209" lon="7.25344">
        <ele>680.138672</ele>
        <time>2016-01-17T13:26:39.000Z</time>
      </trkpt>
      <trkpt lat="43.92088" lon="7.25348">
        <ele>679.324768</ele>
        <time>2016-01-17T13:26:44.000Z</time>
      </trkpt>
      <trkpt lat="43.92081" lon="7.25351">
        <ele>677.306824</ele>
        <time>2016-01-17T13:26:49.000Z</time>
      </trkpt>
      <trkpt lat="43.92076" lon="7.25354">
        <ele>675.377136</ele>
        <time>2016-01-17T13:26:54.000Z</time>
      </trkpt>
      <trkpt lat="43.92071" lon="7.25359">
        <ele>673.832947</ele>
        <time>2016-01-17T13:26:59.000Z</time>
      </trkpt>
      <trkpt lat="43.92065" lon="7.25369">
        <ele>671.335388</ele>
        <time>2016-01-17T13:27:04.000Z</time>
      </trkpt>
      <trkpt lat="43.92061" lon="7.25381">
        <ele>669.033508</ele>
        <time>2016-01-17T13:27:09.000Z</time>
      </trkpt>
      <trkpt lat="43.9206" lon="7.25392">
        <ele>666.77887</ele>
        <time>2016-01-17T13:27:14.000Z</time>
      </trkpt>
      <trkpt lat="43.92057" lon="7.25402">
        <ele>663.810242</ele>
        <time>2016-01-17T13:27:19.000Z</time>
      </trkpt>
      <trkpt lat="43.92054" lon="7.25413">
        <ele>661.604553</ele>
        <time>2016-01-17T13:27:24.000Z</time>
      </trkpt>
      <trkpt lat="43.92049" lon="7.25419">
        <ele>661.162354</ele>
        <time>2016-01-17T13:27:29.000Z</time>
      </trkpt>
      <trkpt lat="43.92047" lon="7.25444">
        <ele>659.689331</ele>
        <time>2016-01-17T13:27:34.000Z</time>
      </trkpt>
      <trkpt lat="43.92061" lon="7.25477">
        <ele>657.571899</ele>
        <time>2016-01-17T13:27:39.000Z</time>
      </trkpt>
      <trkpt lat="43.92072" lon="7.25496">
        <ele>656.177002</ele>
        <time>2016-01-17T13:27:44.000Z</time>
      </trkpt>
      <trkpt lat="43.92072" lon="7.25496">
        <ele>656.236389</ele>
        <time>2016-01-17T13:27:49.000Z</time>
      </trkpt>
      <trkpt lat="43.92078" lon="7.25511">
        <ele>653.064148</ele>
        <time>2016-01-17T13:27:54.000Z</time>
      </trkpt>
      <trkpt lat="43.92091" lon="7.25528">
        <ele>649.686707</ele>
        <time>2016-01-17T13:27:59.000Z</time>
      </trkpt>
      <trkpt lat="43.92101" lon="7.2554">
        <ele>647.036133</ele>
        <time>2016-01-17T13:28:04.000Z</time>
      </trkpt>
      <trkpt lat="43.92101" lon="7.25546">
        <ele>646.793579</ele>
        <time>2016-01-17T13:28:09.000Z</time>
      </trkpt>
      <trkpt lat="43.92099" lon="7.25545">
        <ele>646.240234</ele>
        <time>2016-01-17T13:28:14.000Z</time>
      </trkpt>
      <trkpt lat="43.92099" lon="7.25546">
        <ele>646.203979</ele>
        <time>2016-01-17T13:28:19.000Z</time>
      </trkpt>
      <trkpt lat="43.92099" lon="7.25548">
        <ele>645.593323</ele>
        <time>2016-01-17T13:28:24.000Z</time>
      </trkpt>
      <trkpt lat="43.92106" lon="7.25565">
        <ele>640.890991</ele>
        <time>2016-01-17T13:28:29.000Z</time>
      </trkpt>
      <trkpt lat="43.92111" lon="7.25581">
        <ele>637.419922</ele>
        <time>2016-01-17T13:28:34.000Z</time>
      </trkpt>
      <trkpt lat="43.92113" lon="7.25597">
        <ele>634.211914</ele>
        <time>2016-01-17T13:28:39.000Z</time>
      </trkpt>
      <trkpt lat="43.92121" lon="7.25622">
        <ele>631.667297</ele>
        <time>2016-01-17T13:28:44.000Z</time>
      </trkpt>
      <trkpt lat="43.92138" lon="7.25642">
        <ele>630.192261</ele>
        <time>2016-01-17T13:28:49.000Z</time>
      </trkpt>
      <trkpt lat="43.9213" lon="7.25648">
        <ele>628.997314</ele>
        <time>2016-01-17T13:28:54.000Z</time>
      </trkpt>
      <trkpt lat="43.92119" lon="7.25643">
        <ele>628.208923</ele>
        <time>2016-01-17T13:28:59.000Z</time>
      </trkpt>
      <trkpt lat="43.92126" lon="7.25657">
        <ele>626.335815</ele>
        <time>2016-01-17T13:29:04.000Z</time>
      </trkpt>
      <trkpt lat="43.92136" lon="7.25679">
        <ele>622.217529</ele>
        <time>2016-01-17T13:29:09.000Z</time>
      </trkpt>
      <trkpt lat="43.92144" lon="7.25687">
        <ele>619.638977</ele>
        <time>2016-01-17T13:29:14.000Z</time>
      </trkpt>
      <trkpt lat="43.92155" lon="7.25684">
        <ele>618.572144</ele>
        <time>2016-01-17T13:29:19.000Z</time>
      </trkpt>
      <trkpt lat="43.92166" lon="7.25686">
        <ele>613.789429</ele>
        <time>2016-01-17T13:29:24.000Z</time>
      </trkpt>
      <trkpt lat="43.92168" lon="7.25693">
        <ele>611.002319</ele>
        <time>2016-01-17T13:29:29.000Z</time>
      </trkpt>
      <trkpt lat="43.92175" lon="7.25694">
        <ele>607.573608</ele>
        <time>2016-01-17T13:29:34.000Z</time>
      </trkpt>
      <trkpt lat="43.9219" lon="7.2569">
        <ele>603.050537</ele>
        <time>2016-01-17T13:29:39.000Z</time>
      </trkpt>
      <trkpt lat="43.92207" lon="7.25695">
        <ele>598.905518</ele>
        <time>2016-01-17T13:29:44.000Z</time>
      </trkpt>
      <trkpt lat="43.92222" lon="7.25707">
        <ele>595.394409</ele>
        <time>2016-01-17T13:29:49.000Z</time>
      </trkpt>
      <trkpt lat="43.92244" lon="7.25714">
        <ele>593.114807</ele>
        <time>2016-01-17T13:29:54.000Z</time>
      </trkpt>
      <trkpt lat="43.92265" lon="7.25716">
        <ele>591.50531</ele>
        <time>2016-01-17T13:29:59.000Z</time>
      </trkpt>
      <trkpt lat="43.92282" lon="7.25717">
        <ele>590.006042</ele>
        <time>2016-01-17T13:30:04.000Z</time>
      </trkpt>
      <trkpt lat="43.92303" lon="7.25717">
        <ele>587.117188</ele>
        <time>2016-01-17T13:30:09.000Z</time>
      </trkpt>
      <trkpt lat="43.92323" lon="7.25721">
        <ele>583.292419</ele>
        <time>2016-01-17T13:30:14.000Z</time>
      </trkpt>
      <trkpt lat="43.92347" lon="7.25723">
        <ele>578.697205</ele>
        <time>2016-01-17T13:30:19.000Z</time>
      </trkpt>
      <trkpt lat="43.92369" lon="7.25724">
        <ele>574.122192</ele>
        <time>2016-01-17T13:30:24.000Z</time>
      </trkpt>
      <trkpt lat="43.92392" lon="7.25725">
        <ele>569.331726</ele>
        <time>2016-01-17T13:30:29.000Z</time>
      </trkpt>
      <trkpt lat="43.92414" lon="7.25728">
        <ele>565.281616</ele>
        <time>2016-01-17T13:30:34.000Z</time>
      </trkpt>
      <trkpt lat="43.92434" lon="7.25735">
        <ele>561.140869</ele>
        <time>2016-01-17T13:30:39.000Z</time>
      </trkpt>
      <trkpt lat="43.92457" lon="7.25735">
        <ele>555.81958</ele>
        <time>2016-01-17T13:30:44.000Z</time>
      </trkpt>
      <trkpt lat="43.92482" lon="7.25731">
        <ele>548.884705</ele>
        <time>2016-01-17T13:30:49.000Z</time>
      </trkpt>
      <trkpt lat="43.92506" lon="7.25721">
        <ele>544.001831</ele>
        <time>2016-01-17T13:30:54.000Z</time>
      </trkpt>
      <trkpt lat="43.92528" lon="7.25712">
        <ele>538.84668</ele>
        <time>2016-01-17T13:30:59.000Z</time>
      </trkpt>
      <trkpt lat="43.92546" lon="7.25707">
        <ele>534.477844</ele>
        <time>2016-01-17T13:31:04.000Z</time>
      </trkpt>
      <trkpt lat="43.9256" lon="7.257">
        <ele>530.986328</ele>
        <time>2016-01-17T13:31:09.000Z</time>
      </trkpt>
      <trkpt lat="43.92558" lon="7.25705">
        <ele>529.815857</ele>
        <time>2016-01-17T13:31:14.000Z</time>
      </trkpt>
      <trkpt lat="43.92553" lon="7.25721">
        <ele>527.535828</ele>
        <time>2016-01-17T13:31:19.000Z</time>
      </trkpt>
      <trkpt lat="43.92556" lon="7.25719">
        <ele>526.497498</ele>
        <time>2016-01-17T13:31:24.000Z</time>
      </trkpt>
      <trkpt lat="43.92556" lon="7.25719">
        <ele>526.406128</ele>
        <time>2016-01-17T13:31:29.000Z</time>
      </trkpt>
      <trkpt lat="43.9256" lon="7.25716">
        <ele>526.065369</ele>
        <time>2016-01-17T13:31:34.000Z</time>
      </trkpt>
      <trkpt lat="43.92575" lon="7.25712">
        <ele>522.279968</ele>
        <time>2016-01-17T13:31:39.000Z</time>
      </trkpt>
      <trkpt lat="43.92593" lon="7.25709">
        <ele>518.569031</ele>
        <time>2016-01-17T13:31:44.000Z</time>
      </trkpt>
      <trkpt lat="43.9261" lon="7.25706">
        <ele>513.575134</ele>
        <time>2016-01-17T13:31:49.000Z</time>
      </trkpt>
      <trkpt lat="43.92624" lon="7.25706">
        <ele>509.427032</ele>
        <time>2016-01-17T13:31:54.000Z</time>
      </trkpt>
      <trkpt lat="43.92626" lon="7.25711">
        <ele>507.063232</ele>
        <time>2016-01-17T13:31:59.000Z</time>
      </trkpt>
      <trkpt lat="43.92621" lon="7.25727">
        <ele>504.943481</ele>
        <time>2016-01-17T13:32:04.000Z</time>
      </trkpt>
      <trkpt lat="43.92618" lon="7.25742">
        <ele>504.445007</ele>
        <time>2016-01-17T13:32:09.000Z</time>
      </trkpt>
      <trkpt lat="43.92614" lon="7.25747">
        <ele>504.932526</ele>
        <time>2016-01-17T13:32:14.000Z</time>
      </trkpt>
      <trkpt lat="43.92613" lon="7.25749">
        <ele>504.90683</ele>
        <time>2016-01-17T13:32:19.000Z</time>
      </trkpt>
      <trkpt lat="43.92604" lon="7.25766">
        <ele>503.752014</ele>
        <time>2016-01-17T13:32:24.000Z</time>
      </trkpt>
      <trkpt lat="43.9261" lon="7.2578">
        <ele>503.898315</ele>
        <time>2016-01-17T13:32:29.000Z</time>
      </trkpt>
      <trkpt lat="43.92615" lon="7.25798">
        <ele>502.858246</ele>
        <time>2016-01-17T13:32:34.000Z</time>
      </trkpt>
      <trkpt lat="43.92616" lon="7.25801">
        <ele>502.485291</ele>
        <time>2016-01-17T13:32:39.000Z</time>
      </trkpt>
      <trkpt lat="43.92616" lon="7.25801">
        <ele>502.094391</ele>
        <time>2016-01-17T13:32:44.000Z</time>
      </trkpt>
      <trkpt lat="43.92616" lon="7.25802">
        <ele>501.990662</ele>
        <time>2016-01-17T13:32:49.000Z</time>
      </trkpt>
      <trkpt lat="43.92616" lon="7.25803">
        <ele>501.989014</ele>
        <time>2016-01-17T13:32:54.000Z</time>
      </trkpt>
      <trkpt lat="43.92617" lon="7.25805">
        <ele>502.074188</ele>
        <time>2016-01-17T13:32:59.000Z</time>
      </trkpt>
      <trkpt lat="43.92617" lon="7.25805">
        <ele>502.076447</ele>
        <time>2016-01-17T13:33:04.000Z</time>
      </trkpt>
      <trkpt lat="43.92616" lon="7.25802">
        <ele>502.081635</ele>
        <time>2016-01-17T13:33:09.000Z</time>
      </trkpt>
      <trkpt lat="43.92617" lon="7.25803">
        <ele>501.956635</ele>
        <time>2016-01-17T13:33:14.000Z</time>
      </trkpt>
      <trkpt lat="43.92617" lon="7.25804">
        <ele>501.982239</ele>
        <time>2016-01-17T13:33:19.000Z</time>
      </trkpt>
      <trkpt lat="43.92616" lon="7.25811">
        <ele>500.373291</ele>
        <time>2016-01-17T13:33:24.000Z</time>
      </trkpt>
      <trkpt lat="43.92617" lon="7.25823">
        <ele>503.330566</ele>
        <time>2016-01-17T13:33:29.000Z</time>
      </trkpt>
      <trkpt lat="43.92614" lon="7.25839">
        <ele>503.01651</ele>
        <time>2016-01-17T13:33:34.000Z</time>
      </trkpt>
      <trkpt lat="43.92608" lon="7.25857">
        <ele>501.025146</ele>
        <time>2016-01-17T13:33:39.000Z</time>
      </trkpt>
      <trkpt lat="43.92596" lon="7.25876">
        <ele>495.40097</ele>
        <time>2016-01-17T13:33:44.000Z</time>
      </trkpt>
      <trkpt lat="43.92589" lon="7.25901">
        <ele>489.588165</ele>
        <time>2016-01-17T13:33:49.000Z</time>
      </trkpt>
      <trkpt lat="43.92589" lon="7.25931">
        <ele>485.749542</ele>
        <time>2016-01-17T13:33:54.000Z</time>
      </trkpt>
      <trkpt lat="43.92591" lon="7.25961">
        <ele>485.236115</ele>
        <time>2016-01-17T13:33:59.000Z</time>
      </trkpt>
      <trkpt lat="43.92593" lon="7.2598">
        <ele>485.895691</ele>
        <time>2016-01-17T13:34:04.000Z</time>
      </trkpt>
      <trkpt lat="43.92593" lon="7.2598">
        <ele>485.342865</ele>
        <time>2016-01-17T13:34:09.000Z</time>
      </trkpt>
      <trkpt lat="43.92593" lon="7.2598">
        <ele>485.263</ele>
        <time>2016-01-17T13:34:14.000Z</time>
      </trkpt>
      <trkpt lat="43.92593" lon="7.2598">
        <ele>485.221313</ele>
        <time>2016-01-17T13:34:19.000Z</time>
      </trkpt>
      <trkpt lat="43.92595" lon="7.25986">
        <ele>484.618927</ele>
        <time>2016-01-17T13:34:24.000Z</time>
      </trkpt>
      <trkpt lat="43.92601" lon="7.26007">
        <ele>482.546356</ele>
        <time>2016-01-17T13:34:29.000Z</time>
      </trkpt>
      <trkpt lat="43.92603" lon="7.26026">
        <ele>481.302979</ele>
        <time>2016-01-17T13:34:34.000Z</time>
      </trkpt>
      <trkpt lat="43.92607" lon="7.26048">
        <ele>480.210358</ele>
        <time>2016-01-17T13:34:39.000Z</time>
      </trkpt>
      <trkpt lat="43.92607" lon="7.26069">
        <ele>476.036377</ele>
        <time>2016-01-17T13:34:44.000Z</time>
      </trkpt>
      <trkpt lat="43.92601" lon="7.26084">
        <ele>473.838074</ele>
        <time>2016-01-17T13:34:49.000Z</time>
      </trkpt>
      <trkpt lat="43.92605" lon="7.26103">
        <ele>469.673859</ele>
        <time>2016-01-17T13:34:54.000Z</time>
      </trkpt>
      <trkpt lat="43.92608" lon="7.26111">
        <ele>467.428528</ele>
        <time>2016-01-17T13:34:59.000Z</time>
      </trkpt>
      <trkpt lat="43.92607" lon="7.26112">
        <ele>467.128479</ele>
        <time>2016-01-17T13:35:04.000Z</time>
      </trkpt>
      <trkpt lat="43.92604" lon="7.26108">
        <ele>466.057739</ele>
        <time>2016-01-17T13:35:09.000Z</time>
      </trkpt>
      <trkpt lat="43.92604" lon="7.26109">
        <ele>465.152557</ele>
        <time>2016-01-17T13:35:14.000Z</time>
      </trkpt>
      <trkpt lat="43.92604" lon="7.26109">
        <ele>464.912994</ele>
        <time>2016-01-17T13:35:19.000Z</time>
      </trkpt>
      <trkpt lat="43.92605" lon="7.26111">
        <ele>464.73877</ele>
        <time>2016-01-17T13:35:24.000Z</time>
      </trkpt>
      <trkpt lat="43.92607" lon="7.26121">
        <ele>463.456726</ele>
        <time>2016-01-17T13:35:29.000Z</time>
      </trkpt>
      <trkpt lat="43.92606" lon="7.26124">
        <ele>462.566132</ele>
        <time>2016-01-17T13:35:34.000Z</time>
      </trkpt>
      <trkpt lat="43.92605" lon="7.26123">
        <ele>462.270599</ele>
        <time>2016-01-17T13:35:39.000Z</time>
      </trkpt>
      <trkpt lat="43.92604" lon="7.26122">
        <ele>462.309296</ele>
        <time>2016-01-17T13:35:44.000Z</time>
      </trkpt>
      <trkpt lat="43.92604" lon="7.26129">
        <ele>460.973328</ele>
        <time>2016-01-17T13:35:49.000Z</time>
      </trkpt>
      <trkpt lat="43.92605" lon="7.26149">
        <ele>458.136719</ele>
        <time>2016-01-17T13:35:54.000Z</time>
      </trkpt>
      <trkpt lat="43.92603" lon="7.2615">
        <ele>458.005371</ele>
        <time>2016-01-17T13:35:59.000Z</time>
      </trkpt>
      <trkpt lat="43.92598" lon="7.26142">
        <ele>456.598724</ele>
        <time>2016-01-17T13:36:04.000Z</time>
      </trkpt>
      <trkpt lat="43.92596" lon="7.26145">
        <ele>455.556396</ele>
        <time>2016-01-17T13:36:09.000Z</time>
      </trkpt>
      <trkpt lat="43.92595" lon="7.2616">
        <ele>453.571381</ele>
        <time>2016-01-17T13:36:14.000Z</time>
      </trkpt>
      <trkpt lat="43.92591" lon="7.26169">
        <ele>452.535797</ele>
        <time>2016-01-17T13:36:19.000Z</time>
      </trkpt>
      <trkpt lat="43.92596" lon="7.26183">
        <ele>449.418915</ele>
        <time>2016-01-17T13:36:24.000Z</time>
      </trkpt>
      <trkpt lat="43.92601" lon="7.26205">
        <ele>444.636993</ele>
        <time>2016-01-17T13:36:29.000Z</time>
      </trkpt>
      <trkpt lat="43.92618" lon="7.26206">
        <ele>440.978699</ele>
        <time>2016-01-17T13:36:34.000Z</time>
      </trkpt>
      <trkpt lat="43.92638" lon="7.2621">
        <ele>437.814117</ele>
        <time>2016-01-17T13:36:39.000Z</time>
      </trkpt>
      <trkpt lat="43.92658" lon="7.2622">
        <ele>434.394806</ele>
        <time>2016-01-17T13:36:44.000Z</time>
      </trkpt>
      <trkpt lat="43.92685" lon="7.26223">
        <ele>430.571564</ele>
        <time>2016-01-17T13:36:49.000Z</time>
      </trkpt>
      <trkpt lat="43.92701" lon="7.26229">
        <ele>425.809235</ele>
        <time>2016-01-17T13:36:54.000Z</time>
      </trkpt>
      <trkpt lat="43.92705" lon="7.26243">
        <ele>420.641174</ele>
        <time>2016-01-17T13:36:59.000Z</time>
      </trkpt>
      <trkpt lat="43.92717" lon="7.2626">
        <ele>417.987762</ele>
        <time>2016-01-17T13:37:04.000Z</time>
      </trkpt>
      <trkpt lat="43.92738" lon="7.26285">
        <ele>413.998993</ele>
        <time>2016-01-17T13:37:09.000Z</time>
      </trkpt>
      <trkpt lat="43.92759" lon="7.26308">
        <ele>412.415802</ele>
        <time>2016-01-17T13:37:14.000Z</time>
      </trkpt>
      <trkpt lat="43.92771" lon="7.26332">
        <ele>410.815247</ele>
        <time>2016-01-17T13:37:19.000Z</time>
      </trkpt>
      <trkpt lat="43.92776" lon="7.26359">
        <ele>407.352905</ele>
        <time>2016-01-17T13:37:24.000Z</time>
      </trkpt>
      <trkpt lat="43.92793" lon="7.26386">
        <ele>402.307037</ele>
        <time>2016-01-17T13:37:29.000Z</time>
      </trkpt>
      <trkpt lat="43.92809" lon="7.26426">
        <ele>401.109619</ele>
        <time>2016-01-17T13:37:34.000Z</time>
      </trkpt>
      <trkpt lat="43.92824" lon="7.26445">
        <ele>401.21228</ele>
        <time>2016-01-17T13:37:39.000Z</time>
      </trkpt>
      <trkpt lat="43.92834" lon="7.2646">
        <ele>401.847168</ele>
        <time>2016-01-17T13:37:44.000Z</time>
      </trkpt>
      <trkpt lat="43.92843" lon="7.26469">
        <ele>402.211731</ele>
        <time>2016-01-17T13:37:49.000Z</time>
      </trkpt>
      <trkpt lat="43.92854" lon="7.26476">
        <ele>403.341309</ele>
        <time>2016-01-17T13:37:54.000Z</time>
      </trkpt>
      <trkpt lat="43.92863" lon="7.26478">
        <ele>404.671295</ele>
        <time>2016-01-17T13:37:59.000Z</time>
      </trkpt>
      <trkpt lat="43.92872" lon="7.26481">
        <ele>405.137329</ele>
        <time>2016-01-17T13:38:04.000Z</time>
      </trkpt>
      <trkpt lat="43.92883" lon="7.26483">
        <ele>405.826385</ele>
        <time>2016-01-17T13:38:09.000Z</time>
      </trkpt>
      <trkpt lat="43.92891" lon="7.26484">
        <ele>407.183167</ele>
        <time>2016-01-17T13:38:14.000Z</time>
      </trkpt>
      <trkpt lat="43.929" lon="7.26485">
        <ele>407.547272</ele>
        <time>2016-01-17T13:38:19.000Z</time>
      </trkpt>
      <trkpt lat="43.92909" lon="7.26489">
        <ele>407.073853</ele>
        <time>2016-01-17T13:38:24.000Z</time>
      </trkpt>
      <trkpt lat="43.92916" lon="7.26488">
        <ele>407.579773</ele>
        <time>2016-01-17T13:38:29.000Z</time>
      </trkpt>
      <trkpt lat="43.92916" lon="7.2649">
        <ele>409.066132</ele>
        <time>2016-01-17T13:38:34.000Z</time>
      </trkpt>
      <trkpt lat="43.92916" lon="7.2649">
        <ele>409.08902</ele>
        <time>2016-01-17T13:38:39.000Z</time>
      </trkpt>
      <trkpt lat="43.92916" lon="7.2649">
        <ele>409.108307</ele>
        <time>2016-01-17T13:38:44.000Z</time>
      </trkpt>
      <trkpt lat="43.92916" lon="7.2649">
        <ele>409.113251</ele>
        <time>2016-01-17T13:38:49.000Z</time>
      </trkpt>
      <trkpt lat="43.92916" lon="7.2649">
        <ele>409.123901</ele>
        <time>2016-01-17T13:38:54.000Z</time>
      </trkpt>
      <trkpt lat="43.92916" lon="7.2649">
        <ele>409.134949</ele>
        <time>2016-01-17T13:38:59.000Z</time>
      </trkpt>
      <trkpt lat="43.92917" lon="7.2649">
        <ele>409.750702</ele>
        <time>2016-01-17T13:39:04.000Z</time>
      </trkpt>
      <trkpt lat="43.9292" lon="7.26486">
        <ele>412.686188</ele>
        <time>2016-01-17T13:39:09.000Z</time>
      </trkpt>
      <trkpt lat="43.92925" lon="7.26481">
        <ele>413.765015</ele>
        <time>2016-01-17T13:39:14.000Z</time>
      </trkpt>
      <trkpt lat="43.92928" lon="7.26476">
        <ele>414.822601</ele>
        <time>2016-01-17T13:39:19.000Z</time>
      </trkpt>
      <trkpt lat="43.92932" lon="7.2647">
        <ele>416.541809</ele>
        <time>2016-01-17T13:39:24.000Z</time>
      </trkpt>
      <trkpt lat="43.92936" lon="7.26464">
        <ele>417.987183</ele>
        <time>2016-01-17T13:39:29.000Z</time>
      </trkpt>
      <trkpt lat="43.92941" lon="7.26455">
        <ele>420.455078</ele>
        <time>2016-01-17T13:39:34.000Z</time>
      </trkpt>
      <trkpt lat="43.92945" lon="7.26451">
        <ele>423.353363</ele>
        <time>2016-01-17T13:39:39.000Z</time>
      </trkpt>
      <trkpt lat="43.9295" lon="7.26447">
        <ele>425.565979</ele>
        <time>2016-01-17T13:39:44.000Z</time>
      </trkpt>
      <trkpt lat="43.92955" lon="7.26443">
        <ele>428.162872</ele>
        <time>2016-01-17T13:39:49.000Z</time>
      </trkpt>
      <trkpt lat="43.92956" lon="7.26441">
        <ele>429.569458</ele>
        <time>2016-01-17T13:39:54.000Z</time>
      </trkpt>
      <trkpt lat="43.92956" lon="7.26441">
        <ele>430.043335</ele>
        <time>2016-01-17T13:39:59.000Z</time>
      </trkpt>
      <trkpt lat="43.92957" lon="7.26438">
        <ele>431.337036</ele>
        <time>2016-01-17T13:40:04.000Z</time>
      </trkpt>
      <trkpt lat="43.92957" lon="7.26437">
        <ele>431.189423</ele>
        <time>2016-01-17T13:40:09.000Z</time>
      </trkpt>
      <trkpt lat="43.92956" lon="7.26437">
        <ele>431.106323</ele>
        <time>2016-01-17T13:40:14.000Z</time>
      </trkpt>
      <trkpt lat="43.92956" lon="7.26437">
        <ele>431.309723</ele>
        <time>2016-01-17T13:40:19.000Z</time>
      </trkpt>
      <trkpt lat="43.92956" lon="7.26437">
        <ele>431.38028</ele>
        <time>2016-01-17T13:40:24.000Z</time>
      </trkpt>
      <trkpt lat="43.92955" lon="7.26436">
        <ele>431.41507</ele>
        <time>2016-01-17T13:40:29.000Z</time>
      </trkpt>
      <trkpt lat="43.92953" lon="7.26436">
        <ele>431.457245</ele>
        <time>2016-01-17T13:40:34.000Z</time>
      </trkpt>
      <trkpt lat="43.92952" lon="7.26432">
        <ele>431.596558</ele>
        <time>2016-01-17T13:40:39.000Z</time>
      </trkpt>
      <trkpt lat="43.92956" lon="7.26426">
        <ele>431.883301</ele>
        <time>2016-01-17T13:40:44.000Z</time>
      </trkpt>
      <trkpt lat="43.92956" lon="7.26423">
        <ele>432.532928</ele>
        <time>2016-01-17T13:40:49.000Z</time>
      </trkpt>
      <trkpt lat="43.92957" lon="7.26419">
        <ele>433.212128</ele>
        <time>2016-01-17T13:40:54.000Z</time>
      </trkpt>
      <trkpt lat="43.92955" lon="7.2642">
        <ele>434.452728</ele>
        <time>2016-01-17T13:40:59.000Z</time>
      </trkpt>
      <trkpt lat="43.92953" lon="7.26423">
        <ele>435.680634</ele>
        <time>2016-01-17T13:41:04.000Z</time>
      </trkpt>
      <trkpt lat="43.9295" lon="7.26428">
        <ele>436.597595</ele>
        <time>2016-01-17T13:41:09.000Z</time>
      </trkpt>
      <trkpt lat="43.92948" lon="7.26431">
        <ele>437.379761</ele>
        <time>2016-01-17T13:41:14.000Z</time>
      </trkpt>
      <trkpt lat="43.92944" lon="7.26433">
        <ele>437.859802</ele>
        <time>2016-01-17T13:41:19.000Z</time>
      </trkpt>
      <trkpt lat="43.92942" lon="7.26437">
        <ele>438.647491</ele>
        <time>2016-01-17T13:41:24.000Z</time>
      </trkpt>
      <trkpt lat="43.9294" lon="7.26437">
        <ele>439.364624</ele>
        <time>2016-01-17T13:41:29.000Z</time>
      </trkpt>
      <trkpt lat="43.92942" lon="7.26433">
        <ele>440.016693</ele>
        <time>2016-01-17T13:41:34.000Z</time>
      </trkpt>
      <trkpt lat="43.92942" lon="7.26429">
        <ele>440.629761</ele>
        <time>2016-01-17T13:41:39.000Z</time>
      </trkpt>
      <trkpt lat="43.92943" lon="7.26426">
        <ele>441.31665</ele>
        <time>2016-01-17T13:41:44.000Z</time>
      </trkpt>
      <trkpt lat="43.92943" lon="7.26423">
        <ele>443.823883</ele>
        <time>2016-01-17T13:41:49.000Z</time>
      </trkpt>
      <trkpt lat="43.92944" lon="7.2642">
        <ele>445.703766</ele>
        <time>2016-01-17T13:41:54.000Z</time>
      </trkpt>
      <trkpt lat="43.92946" lon="7.26416">
        <ele>447.756653</ele>
        <time>2016-01-17T13:41:59.000Z</time>
      </trkpt>
      <trkpt lat="43.92948" lon="7.26413">
        <ele>449.569733</ele>
        <time>2016-01-17T13:42:04.000Z</time>
      </trkpt>
      <trkpt lat="43.9295" lon="7.2641">
        <ele>451.39444</ele>
        <time>2016-01-17T13:42:09.000Z</time>
      </trkpt>
      <trkpt lat="43.92951" lon="7.26408">
        <ele>453.18457</ele>
        <time>2016-01-17T13:42:14.000Z</time>
      </trkpt>
      <trkpt lat="43.92952" lon="7.26405">
        <ele>455.02066</ele>
        <time>2016-01-17T13:42:19.000Z</time>
      </trkpt>
      <trkpt lat="43.92953" lon="7.26401">
        <ele>456.074982</ele>
        <time>2016-01-17T13:42:24.000Z</time>
      </trkpt>
      <trkpt lat="43.92955" lon="7.26397">
        <ele>457.570618</ele>
        <time>2016-01-17T13:42:29.000Z</time>
      </trkpt>
      <trkpt lat="43.92957" lon="7.26394">
        <ele>459.307159</ele>
        <time>2016-01-17T13:42:34.000Z</time>
      </trkpt>
      <trkpt lat="43.92959" lon="7.26392">
        <ele>461.176636</ele>
        <time>2016-01-17T13:42:39.000Z</time>
      </trkpt>
      <trkpt lat="43.9296" lon="7.26389">
        <ele>462.945526</ele>
        <time>2016-01-17T13:42:44.000Z</time>
      </trkpt>
      <trkpt lat="43.92963" lon="7.26385">
        <ele>464.137909</ele>
        <time>2016-01-17T13:42:49.000Z</time>
      </trkpt>
      <trkpt lat="43.92967" lon="7.26383">
        <ele>465.450836</ele>
        <time>2016-01-17T13:42:54.000Z</time>
      </trkpt>
      <trkpt lat="43.9297" lon="7.26383">
        <ele>466.728058</ele>
        <time>2016-01-17T13:42:59.000Z</time>
      </trkpt>
      <trkpt lat="43.9297" lon="7.26386">
        <ele>466.896332</ele>
        <time>2016-01-17T13:43:04.000Z</time>
      </trkpt>
      <trkpt lat="43.92976" lon="7.26382">
        <ele>467.287994</ele>
        <time>2016-01-17T13:43:09.000Z</time>
      </trkpt>
      <trkpt lat="43.92979" lon="7.26378">
        <ele>467.7789</ele>
        <time>2016-01-17T13:43:14.000Z</time>
      </trkpt>
      <trkpt lat="43.92982" lon="7.26375">
        <ele>468.311096</ele>
        <time>2016-01-17T13:43:19.000Z</time>
      </trkpt>
      <trkpt lat="43.92983" lon="7.26373">
        <ele>468.633606</ele>
        <time>2016-01-17T13:43:24.000Z</time>
      </trkpt>
      <trkpt lat="43.92984" lon="7.26373">
        <ele>468.953888</ele>
        <time>2016-01-17T13:43:29.000Z</time>
      </trkpt>
      <trkpt lat="43.92984" lon="7.26372">
        <ele>469.274475</ele>
        <time>2016-01-17T13:43:34.000Z</time>
      </trkpt>
      <trkpt lat="43.92984" lon="7.2637">
        <ele>469.599884</ele>
        <time>2016-01-17T13:43:39.000Z</time>
      </trkpt>
      <trkpt lat="43.92984" lon="7.2637">
        <ele>470.015717</ele>
        <time>2016-01-17T13:43:44.000Z</time>
      </trkpt>
      <trkpt lat="43.92988" lon="7.2637">
        <ele>470.25412</ele>
        <time>2016-01-17T13:43:49.000Z</time>
      </trkpt>
      <trkpt lat="43.92989" lon="7.26372">
        <ele>470.210999</ele>
        <time>2016-01-17T13:43:54.000Z</time>
      </trkpt>
      <trkpt lat="43.92993" lon="7.26372">
        <ele>470.446838</ele>
        <time>2016-01-17T13:43:59.000Z</time>
      </trkpt>
      <trkpt lat="43.92996" lon="7.26371">
        <ele>470.534607</ele>
        <time>2016-01-17T13:44:04.000Z</time>
      </trkpt>
      <trkpt lat="43.92997" lon="7.26374">
        <ele>470.656647</ele>
        <time>2016-01-17T13:44:09.000Z</time>
      </trkpt>
      <trkpt lat="43.93" lon="7.26373">
        <ele>470.694794</ele>
        <time>2016-01-17T13:44:14.000Z</time>
      </trkpt>
      <trkpt lat="43.93004" lon="7.2637">
        <ele>470.906708</ele>
        <time>2016-01-17T13:44:19.000Z</time>
      </trkpt>
      <trkpt lat="43.93004" lon="7.2637">
        <ele>470.920013</ele>
        <time>2016-01-17T13:44:24.000Z</time>
      </trkpt>
      <trkpt lat="43.93007" lon="7.26368">
        <ele>471.459808</ele>
        <time>2016-01-17T13:44:29.000Z</time>
      </trkpt>
      <trkpt lat="43.93009" lon="7.26368">
        <ele>471.734161</ele>
        <time>2016-01-17T13:44:34.000Z</time>
      </trkpt>
      <trkpt lat="43.93011" lon="7.26369">
        <ele>472.020599</ele>
        <time>2016-01-17T13:44:39.000Z</time>
      </trkpt>
      <trkpt lat="43.93015" lon="7.26373">
        <ele>472.468903</ele>
        <time>2016-01-17T13:44:44.000Z</time>
      </trkpt>
      <trkpt lat="43.93017" lon="7.26374">
        <ele>473.334656</ele>
        <time>2016-01-17T13:44:49.000Z</time>
      </trkpt>
      <trkpt lat="43.93016" lon="7.2637">
        <ele>474.032074</ele>
        <time>2016-01-17T13:44:54.000Z</time>
      </trkpt>
      <trkpt lat="43.93015" lon="7.26367">
        <ele>474.897064</ele>
        <time>2016-01-17T13:44:59.000Z</time>
      </trkpt>
      <trkpt lat="43.93015" lon="7.26364">
        <ele>475.766785</ele>
        <time>2016-01-17T13:45:04.000Z</time>
      </trkpt>
      <trkpt lat="43.93016" lon="7.26364">
        <ele>475.588196</ele>
        <time>2016-01-17T13:45:09.000Z</time>
      </trkpt>
      <trkpt lat="43.93015" lon="7.26359">
        <ele>475.724457</ele>
        <time>2016-01-17T13:45:14.000Z</time>
      </trkpt>
      <trkpt lat="43.93014" lon="7.26356">
        <ele>477.680267</ele>
        <time>2016-01-17T13:45:19.000Z</time>
      </trkpt>
      <trkpt lat="43.93014" lon="7.26354">
        <ele>479.699249</ele>
        <time>2016-01-17T13:45:24.000Z</time>
      </trkpt>
      <trkpt lat="43.93012" lon="7.26352">
        <ele>482.02533</ele>
        <time>2016-01-17T13:45:29.000Z</time>
      </trkpt>
      <trkpt lat="43.93011" lon="7.26349">
        <ele>483.240601</ele>
        <time>2016-01-17T13:45:34.000Z</time>
      </trkpt>
      <trkpt lat="43.93011" lon="7.26346">
        <ele>484.714935</ele>
        <time>2016-01-17T13:45:39.000Z</time>
      </trkpt>
      <trkpt lat="43.93009" lon="7.26344">
        <ele>485.93692</ele>
        <time>2016-01-17T13:45:44.000Z</time>
      </trkpt>
      <trkpt lat="43.93007" lon="7.26343">
        <ele>487.442749</ele>
        <time>2016-01-17T13:45:49.000Z</time>
      </trkpt>
      <trkpt lat="43.93004" lon="7.26343">
        <ele>488.783051</ele>
        <time>2016-01-17T13:45:54.000Z</time>
      </trkpt>
      <trkpt lat="43.93001" lon="7.2634">
        <ele>490.182831</ele>
        <time>2016-01-17T13:45:59.000Z</time>
      </trkpt>
      <trkpt lat="43.92999" lon="7.26338">
        <ele>491.671143</ele>
        <time>2016-01-17T13:46:04.000Z</time>
      </trkpt>
      <trkpt lat="43.92997" lon="7.26336">
        <ele>492.807251</ele>
        <time>2016-01-17T13:46:09.000Z</time>
      </trkpt>
      <trkpt lat="43.92997" lon="7.26335">
        <ele>493.502258</ele>
        <time>2016-01-17T13:46:14.000Z</time>
      </trkpt>
      <trkpt lat="43.92996" lon="7.26336">
        <ele>493.762512</ele>
        <time>2016-01-17T13:46:19.000Z</time>
      </trkpt>
      <trkpt lat="43.92996" lon="7.26334">
        <ele>494.002441</ele>
        <time>2016-01-17T13:46:24.000Z</time>
      </trkpt>
      <trkpt lat="43.92995" lon="7.2633">
        <ele>495.14978</ele>
        <time>2016-01-17T13:46:29.000Z</time>
      </trkpt>
      <trkpt lat="43.92996" lon="7.26327">
        <ele>496.414459</ele>
        <time>2016-01-17T13:46:34.000Z</time>
      </trkpt>
      <trkpt lat="43.92994" lon="7.26325">
        <ele>497.832458</ele>
        <time>2016-01-17T13:46:39.000Z</time>
      </trkpt>
      <trkpt lat="43.92993" lon="7.2632">
        <ele>498.580566</ele>
        <time>2016-01-17T13:46:44.000Z</time>
      </trkpt>
      <trkpt lat="43.92995" lon="7.26318">
        <ele>499.219086</ele>
        <time>2016-01-17T13:46:49.000Z</time>
      </trkpt>
      <trkpt lat="43.92998" lon="7.26315">
        <ele>499.926178</ele>
        <time>2016-01-17T13:46:54.000Z</time>
      </trkpt>
      <trkpt lat="43.93001" lon="7.26314">
        <ele>499.678986</ele>
        <time>2016-01-17T13:46:59.000Z</time>
      </trkpt>
      <trkpt lat="43.93005" lon="7.26316">
        <ele>499.093445</ele>
        <time>2016-01-17T13:47:04.000Z</time>
      </trkpt>
      <trkpt lat="43.93011" lon="7.26312">
        <ele>499.129944</ele>
        <time>2016-01-17T13:47:09.000Z</time>
      </trkpt>
      <trkpt lat="43.93014" lon="7.26312">
        <ele>499.115326</ele>
        <time>2016-01-17T13:47:14.000Z</time>
      </trkpt>
      <trkpt lat="43.93017" lon="7.26311">
        <ele>499.610229</ele>
        <time>2016-01-17T13:47:19.000Z</time>
      </trkpt>
      <trkpt lat="43.9302" lon="7.26312">
        <ele>500.305908</ele>
        <time>2016-01-17T13:47:24.000Z</time>
      </trkpt>
      <trkpt lat="43.93022" lon="7.26312">
        <ele>500.669495</ele>
        <time>2016-01-17T13:47:29.000Z</time>
      </trkpt>
      <trkpt lat="43.93025" lon="7.26309">
        <ele>501.221527</ele>
        <time>2016-01-17T13:47:34.000Z</time>
      </trkpt>
      <trkpt lat="43.93026" lon="7.26311">
        <ele>500.95694</ele>
        <time>2016-01-17T13:47:39.000Z</time>
      </trkpt>
      <trkpt lat="43.93026" lon="7.26312">
        <ele>500.827179</ele>
        <time>2016-01-17T13:47:44.000Z</time>
      </trkpt>
      <trkpt lat="43.93026" lon="7.26312">
        <ele>500.743286</ele>
        <time>2016-01-17T13:47:49.000Z</time>
      </trkpt>
      <trkpt lat="43.93028" lon="7.26314">
        <ele>501.47467</ele>
        <time>2016-01-17T13:47:54.000Z</time>
      </trkpt>
      <trkpt lat="43.93033" lon="7.26317">
        <ele>502.676514</ele>
        <time>2016-01-17T13:47:59.000Z</time>
      </trkpt>
      <trkpt lat="43.9304" lon="7.26321">
        <ele>504.308411</ele>
        <time>2016-01-17T13:48:04.000Z</time>
      </trkpt>
      <trkpt lat="43.93046" lon="7.26326">
        <ele>505.366577</ele>
        <time>2016-01-17T13:48:09.000Z</time>
      </trkpt>
      <trkpt lat="43.93051" lon="7.26331">
        <ele>506.24054</ele>
        <time>2016-01-17T13:48:14.000Z</time>
      </trkpt>
      <trkpt lat="43.93056" lon="7.26337">
        <ele>507.600708</ele>
        <time>2016-01-17T13:48:19.000Z</time>
      </trkpt>
      <trkpt lat="43.93059" lon="7.26342">
        <ele>508.368591</ele>
        <time>2016-01-17T13:48:24.000Z</time>
      </trkpt>
      <trkpt lat="43.93064" lon="7.26347">
        <ele>509.350616</ele>
        <time>2016-01-17T13:48:29.000Z</time>
      </trkpt>
      <trkpt lat="43.93064" lon="7.26354">
        <ele>511.081787</ele>
        <time>2016-01-17T13:48:34.000Z</time>
      </trkpt>
      <trkpt lat="43.93065" lon="7.26354">
        <ele>511.455475</ele>
        <time>2016-01-17T13:48:39.000Z</time>
      </trkpt>
      <trkpt lat="43.93069" lon="7.26354">
        <ele>512.018494</ele>
        <time>2016-01-17T13:48:44.000Z</time>
      </trkpt>
      <trkpt lat="43.93073" lon="7.26354">
        <ele>512.890137</ele>
        <time>2016-01-17T13:48:49.000Z</time>
      </trkpt>
      <trkpt lat="43.93075" lon="7.26354">
        <ele>513.090881</ele>
        <time>2016-01-17T13:48:54.000Z</time>
      </trkpt>
      <trkpt lat="43.93076" lon="7.26353">
        <ele>513.13031</ele>
        <time>2016-01-17T13:48:59.000Z</time>
      </trkpt>
      <trkpt lat="43.93076" lon="7.26353">
        <ele>512.255066</ele>
        <time>2016-01-17T13:49:04.000Z</time>
      </trkpt>
      <trkpt lat="43.93076" lon="7.26353">
        <ele>511.905914</ele>
        <time>2016-01-17T13:49:09.000Z</time>
      </trkpt>
      <trkpt lat="43.93076" lon="7.26353">
        <ele>511.843506</ele>
        <time>2016-01-17T13:49:14.000Z</time>
      </trkpt>
      <trkpt lat="43.93078" lon="7.26352">
        <ele>511.638336</ele>
        <time>2016-01-17T13:49:19.000Z</time>
      </trkpt>
      <trkpt lat="43.93092" lon="7.26338">
        <ele>509.492126</ele>
        <time>2016-01-17T13:49:24.000Z</time>
      </trkpt>
      <trkpt lat="43.931" lon="7.26327">
        <ele>510.213928</ele>
        <time>2016-01-17T13:49:29.000Z</time>
      </trkpt>
      <trkpt lat="43.93105" lon="7.2632">
        <ele>511.05426</ele>
        <time>2016-01-17T13:49:34.000Z</time>
      </trkpt>
      <trkpt lat="43.93109" lon="7.26312">
        <ele>511.42984</ele>
        <time>2016-01-17T13:49:39.000Z</time>
      </trkpt>
      <trkpt lat="43.93113" lon="7.26308">
        <ele>514.022888</ele>
        <time>2016-01-17T13:49:44.000Z</time>
      </trkpt>
      <trkpt lat="43.93117" lon="7.26305">
        <ele>516.082153</ele>
        <time>2016-01-17T13:49:49.000Z</time>
      </trkpt>
      <trkpt lat="43.93123" lon="7.26302">
        <ele>517.744385</ele>
        <time>2016-01-17T13:49:54.000Z</time>
      </trkpt>
      <trkpt lat="43.93128" lon="7.26297">
        <ele>519.735718</ele>
        <time>2016-01-17T13:49:59.000Z</time>
      </trkpt>
      <trkpt lat="43.9313" lon="7.26294">
        <ele>520.844971</ele>
        <time>2016-01-17T13:50:04.000Z</time>
      </trkpt>
      <trkpt lat="43.9313" lon="7.26297">
        <ele>521.710815</ele>
        <time>2016-01-17T13:50:09.000Z</time>
      </trkpt>
      <trkpt lat="43.9313" lon="7.26297">
        <ele>522.195496</ele>
        <time>2016-01-17T13:50:14.000Z</time>
      </trkpt>
      <trkpt lat="43.9313" lon="7.26297">
        <ele>522.520569</ele>
        <time>2016-01-17T13:50:19.000Z</time>
      </trkpt>
      <trkpt lat="43.93133" lon="7.26296">
        <ele>524.399475</ele>
        <time>2016-01-17T13:50:24.000Z</time>
      </trkpt>
      <trkpt lat="43.93136" lon="7.26294">
        <ele>524.739563</ele>
        <time>2016-01-17T13:50:29.000Z</time>
      </trkpt>
      <trkpt lat="43.93139" lon="7.26295">
        <ele>526.0354</ele>
        <time>2016-01-17T13:50:34.000Z</time>
      </trkpt>
      <trkpt lat="43.93142" lon="7.26296">
        <ele>527.273682</ele>
        <time>2016-01-17T13:50:39.000Z</time>
      </trkpt>
      <trkpt lat="43.93146" lon="7.26295">
        <ele>527.880432</ele>
        <time>2016-01-17T13:50:44.000Z</time>
      </trkpt>
      <trkpt lat="43.9315" lon="7.26295">
        <ele>528.531372</ele>
        <time>2016-01-17T13:50:49.000Z</time>
      </trkpt>
      <trkpt lat="43.93153" lon="7.26299">
        <ele>529.583313</ele>
        <time>2016-01-17T13:50:54.000Z</time>
      </trkpt>
      <trkpt lat="43.93156" lon="7.26303">
        <ele>531.190674</ele>
        <time>2016-01-17T13:50:59.000Z</time>
      </trkpt>
      <trkpt lat="43.9316" lon="7.26306">
        <ele>531.819397</ele>
        <time>2016-01-17T13:51:04.000Z</time>
      </trkpt>
      <trkpt lat="43.93164" lon="7.26311">
        <ele>533.854431</ele>
        <time>2016-01-17T13:51:09.000Z</time>
      </trkpt>
      <trkpt lat="43.93168" lon="7.26313">
        <ele>534.236877</ele>
        <time>2016-01-17T13:51:14.000Z</time>
      </trkpt>
      <trkpt lat="43.93172" lon="7.26317">
        <ele>535.128906</ele>
        <time>2016-01-17T13:51:19.000Z</time>
      </trkpt>
      <trkpt lat="43.93172" lon="7.26317">
        <ele>535.73114</ele>
        <time>2016-01-17T13:51:24.000Z</time>
      </trkpt>
      <trkpt lat="43.93172" lon="7.26317">
        <ele>536.083191</ele>
        <time>2016-01-17T13:51:29.000Z</time>
      </trkpt>
      <trkpt lat="43.93172" lon="7.26317">
        <ele>536.062561</ele>
        <time>2016-01-17T13:51:34.000Z</time>
      </trkpt>
      <trkpt lat="43.93172" lon="7.26317">
        <ele>535.963501</ele>
        <time>2016-01-17T13:51:39.000Z</time>
      </trkpt>
      <trkpt lat="43.93172" lon="7.26317">
        <ele>535.954407</ele>
        <time>2016-01-17T13:51:44.000Z</time>
      </trkpt>
      <trkpt lat="43.93172" lon="7.26317">
        <ele>535.945496</ele>
        <time>2016-01-17T13:51:49.000Z</time>
      </trkpt>
      <trkpt lat="43.93172" lon="7.26317">
        <ele>535.946594</ele>
        <time>2016-01-17T13:51:54.000Z</time>
      </trkpt>
      <trkpt lat="43.93172" lon="7.26317">
        <ele>535.947144</ele>
        <time>2016-01-17T13:51:59.000Z</time>
      </trkpt>
      <trkpt lat="43.93172" lon="7.26317">
        <ele>535.947205</ele>
        <time>2016-01-17T13:52:04.000Z</time>
      </trkpt>
      <trkpt lat="43.93172" lon="7.26317">
        <ele>535.94574</ele>
        <time>2016-01-17T13:52:09.000Z</time>
      </trkpt>
      <trkpt lat="43.93172" lon="7.26317">
        <ele>535.946777</ele>
        <time>2016-01-17T13:52:14.000Z</time>
      </trkpt>
      <trkpt lat="43.93172" lon="7.26317">
        <ele>535.948059</ele>
        <time>2016-01-17T13:52:19.000Z</time>
      </trkpt>
      <trkpt lat="43.93172" lon="7.26317">
        <ele>535.948181</ele>
        <time>2016-01-17T13:52:24.000Z</time>
      </trkpt>
      <trkpt lat="43.93172" lon="7.26317">
        <ele>535.933167</ele>
        <time>2016-01-17T13:52:29.000Z</time>
      </trkpt>
      <trkpt lat="43.93167" lon="7.26319">
        <ele>535.631897</ele>
        <time>2016-01-17T13:52:34.000Z</time>
      </trkpt>
      <trkpt lat="43.93162" lon="7.26324">
        <ele>535.220886</ele>
        <time>2016-01-17T13:52:39.000Z</time>
      </trkpt>
      <trkpt lat="43.93163" lon="7.26328">
        <ele>534.61554</ele>
        <time>2016-01-17T13:52:44.000Z</time>
      </trkpt>
      <trkpt lat="43.93165" lon="7.26331">
        <ele>534.396606</ele>
        <time>2016-01-17T13:52:49.000Z</time>
      </trkpt>
      <trkpt lat="43.93166" lon="7.26335">
        <ele>534.22644</ele>
        <time>2016-01-17T13:52:54.000Z</time>
      </trkpt>
      <trkpt lat="43.93168" lon="7.26339">
        <ele>533.950806</ele>
        <time>2016-01-17T13:52:59.000Z</time>
      </trkpt>
      <trkpt lat="43.93169" lon="7.26341">
        <ele>533.428162</ele>
        <time>2016-01-17T13:53:04.000Z</time>
      </trkpt>
      <trkpt lat="43.93169" lon="7.26341">
        <ele>533.186951</ele>
        <time>2016-01-17T13:53:09.000Z</time>
      </trkpt>
      <trkpt lat="43.93169" lon="7.26341">
        <ele>533.159241</ele>
        <time>2016-01-17T13:53:14.000Z</time>
      </trkpt>
      <trkpt lat="43.93169" lon="7.26341">
        <ele>533.179993</ele>
        <time>2016-01-17T13:53:19.000Z</time>
      </trkpt>
      <trkpt lat="43.93169" lon="7.26341">
        <ele>533.133484</ele>
        <time>2016-01-17T13:53:24.000Z</time>
      </trkpt>
      <trkpt lat="43.93169" lon="7.26341">
        <ele>533.109497</ele>
        <time>2016-01-17T13:53:29.000Z</time>
      </trkpt>
      <trkpt lat="43.93169" lon="7.26341">
        <ele>533.0896</ele>
        <time>2016-01-17T13:53:34.000Z</time>
      </trkpt>
      <trkpt lat="43.93169" lon="7.26341">
        <ele>533.059875</ele>
        <time>2016-01-17T13:53:39.000Z</time>
      </trkpt>
      <trkpt lat="43.93169" lon="7.26342">
        <ele>533.033752</ele>
        <time>2016-01-17T13:53:44.000Z</time>
      </trkpt>
      <trkpt lat="43.93169" lon="7.26342">
        <ele>533.006531</ele>
        <time>2016-01-17T13:53:49.000Z</time>
      </trkpt>
      <trkpt lat="43.93168" lon="7.26342">
        <ele>532.983826</ele>
        <time>2016-01-17T13:53:54.000Z</time>
      </trkpt>
      <trkpt lat="43.93168" lon="7.26342">
        <ele>532.95575</ele>
        <time>2016-01-17T13:53:59.000Z</time>
      </trkpt>
      <trkpt lat="43.93168" lon="7.26342">
        <ele>532.929626</ele>
        <time>2016-01-17T13:54:04.000Z</time>
      </trkpt>
      <trkpt lat="43.93168" lon="7.26342">
        <ele>532.906189</ele>
        <time>2016-01-17T13:54:09.000Z</time>
      </trkpt>
      <trkpt lat="43.93168" lon="7.26342">
        <ele>532.880676</ele>
        <time>2016-01-17T13:54:14.000Z</time>
      </trkpt>
      <trkpt lat="43.93168" lon="7.26342">
        <ele>532.85553</ele>
        <time>2016-01-17T13:54:19.000Z</time>
      </trkpt>
      <trkpt lat="43.93168" lon="7.26342">
        <ele>532.834595</ele>
        <time>2016-01-17T13:54:24.000Z</time>
      </trkpt>
      <trkpt lat="43.93168" lon="7.26342">
        <ele>532.818787</ele>
        <time>2016-01-17T13:54:29.000Z</time>
      </trkpt>
      <trkpt lat="43.93168" lon="7.26342">
        <ele>532.794128</ele>
        <time>2016-01-17T13:54:34.000Z</time>
      </trkpt>
      <trkpt lat="43.93168" lon="7.26342">
        <ele>532.778564</ele>
        <time>2016-01-17T13:54:39.000Z</time>
      </trkpt>
      <trkpt lat="43.93168" lon="7.26342">
        <ele>532.762695</ele>
        <time>2016-01-17T13:54:44.000Z</time>
      </trkpt>
      <trkpt lat="43.93168" lon="7.26342">
        <ele>532.74054</ele>
        <time>2016-01-17T13:54:49.000Z</time>
      </trkpt>
      <trkpt lat="43.93168" lon="7.26342">
        <ele>532.717346</ele>
        <time>2016-01-17T13:54:54.000Z</time>
      </trkpt>
      <trkpt lat="43.93168" lon="7.26342">
        <ele>532.694824</ele>
        <time>2016-01-17T13:54:59.000Z</time>
      </trkpt>
      <trkpt lat="43.93168" lon="7.26342">
        <ele>532.677002</ele>
        <time>2016-01-17T13:55:04.000Z</time>
      </trkpt>
      <trkpt lat="43.93168" lon="7.26342">
        <ele>532.662781</ele>
        <time>2016-01-17T13:55:09.000Z</time>
      </trkpt>
      <trkpt lat="43.93168" lon="7.26342">
        <ele>532.632874</ele>
        <time>2016-01-17T13:55:14.000Z</time>
      </trkpt>
      <trkpt lat="43.93168" lon="7.26342">
        <ele>532.610352</ele>
        <time>2016-01-17T13:55:19.000Z</time>
      </trkpt>
      <trkpt lat="43.93168" lon="7.26342">
        <ele>532.597595</ele>
        <time>2016-01-17T13:55:24.000Z</time>
      </trkpt>
      <trkpt lat="43.93168" lon="7.26342">
        <ele>532.573242</ele>
        <time>2016-01-17T13:55:29.000Z</time>
      </trkpt>
      <trkpt lat="43.93168" lon="7.26342">
        <ele>532.558838</ele>
        <time>2016-01-17T13:55:34.000Z</time>
      </trkpt>
      <trkpt lat="43.93168" lon="7.26342">
        <ele>532.538269</ele>
        <time>2016-01-17T13:55:39.000Z</time>
      </trkpt>
      <trkpt lat="43.93169" lon="7.26342">
        <ele>532.215454</ele>
        <time>2016-01-17T13:55:44.000Z</time>
      </trkpt>
      <trkpt lat="43.93172" lon="7.26345">
        <ele>531.937622</ele>
        <time>2016-01-17T13:55:49.000Z</time>
      </trkpt>
      <trkpt lat="43.93177" lon="7.26347">
        <ele>531.357056</ele>
        <time>2016-01-17T13:55:54.000Z</time>
      </trkpt>
      <trkpt lat="43.93179" lon="7.26351">
        <ele>531.128845</ele>
        <time>2016-01-17T13:55:59.000Z</time>
      </trkpt>
      <trkpt lat="43.93182" lon="7.26354">
        <ele>530.130432</ele>
        <time>2016-01-17T13:56:04.000Z</time>
      </trkpt>
      <trkpt lat="43.93184" lon="7.26354">
        <ele>529.28656</ele>
        <time>2016-01-17T13:56:09.000Z</time>
      </trkpt>
      <trkpt lat="43.93187" lon="7.26354">
        <ele>528.876526</ele>
        <time>2016-01-17T13:56:14.000Z</time>
      </trkpt>
      <trkpt lat="43.93191" lon="7.26356">
        <ele>529.568481</ele>
        <time>2016-01-17T13:56:19.000Z</time>
      </trkpt>
      <trkpt lat="43.93194" lon="7.26359">
        <ele>530.070862</ele>
        <time>2016-01-17T13:56:24.000Z</time>
      </trkpt>
      <trkpt lat="43.93198" lon="7.2636">
        <ele>529.586426</ele>
        <time>2016-01-17T13:56:29.000Z</time>
      </trkpt>
      <trkpt lat="43.93205" lon="7.2636">
        <ele>527.441589</ele>
        <time>2016-01-17T13:56:34.000Z</time>
      </trkpt>
      <trkpt lat="43.93215" lon="7.26361">
        <ele>527.408203</ele>
        <time>2016-01-17T13:56:39.000Z</time>
      </trkpt>
      <trkpt lat="43.93224" lon="7.26362">
        <ele>526.530884</ele>
        <time>2016-01-17T13:56:44.000Z</time>
      </trkpt>
      <trkpt lat="43.93233" lon="7.26362">
        <ele>525.079956</ele>
        <time>2016-01-17T13:56:49.000Z</time>
      </trkpt>
      <trkpt lat="43.9324" lon="7.26354">
        <ele>523.913574</ele>
        <time>2016-01-17T13:56:54.000Z</time>
      </trkpt>
      <trkpt lat="43.9325" lon="7.26344">
        <ele>521.504089</ele>
        <time>2016-01-17T13:56:59.000Z</time>
      </trkpt>
      <trkpt lat="43.93253" lon="7.26327">
        <ele>517.398926</ele>
        <time>2016-01-17T13:57:04.000Z</time>
      </trkpt>
      <trkpt lat="43.9325" lon="7.26307">
        <ele>513.979858</ele>
        <time>2016-01-17T13:57:09.000Z</time>
      </trkpt>
      <trkpt lat="43.93243" lon="7.26277">
        <ele>510.365875</ele>
        <time>2016-01-17T13:57:14.000Z</time>
      </trkpt>
      <trkpt lat="43.93243" lon="7.26254">
        <ele>506.974396</ele>
        <time>2016-01-17T13:57:19.000Z</time>
      </trkpt>
      <trkpt lat="43.9325" lon="7.26222">
        <ele>505.96991</ele>
        <time>2016-01-17T13:57:24.000Z</time>
      </trkpt>
      <trkpt lat="43.9327" lon="7.26197">
        <ele>505.670502</ele>
        <time>2016-01-17T13:57:29.000Z</time>
      </trkpt>
      <trkpt lat="43.9329" lon="7.26176">
        <ele>503.521973</ele>
        <time>2016-01-17T13:57:34.000Z</time>
      </trkpt>
      <trkpt lat="43.93299" lon="7.26148">
        <ele>498.838196</ele>
        <time>2016-01-17T13:57:39.000Z</time>
      </trkpt>
      <trkpt lat="43.9331" lon="7.26126">
        <ele>496.249786</ele>
        <time>2016-01-17T13:57:44.000Z</time>
      </trkpt>
      <trkpt lat="43.9331" lon="7.26126">
        <ele>495.954254</ele>
        <time>2016-01-17T13:57:49.000Z</time>
      </trkpt>
      <trkpt lat="43.9331" lon="7.26126">
        <ele>495.897369</ele>
        <time>2016-01-17T13:57:54.000Z</time>
      </trkpt>
      <trkpt lat="43.9331" lon="7.26126">
        <ele>495.873352</ele>
        <time>2016-01-17T13:57:59.000Z</time>
      </trkpt>
      <trkpt lat="43.93315" lon="7.26121">
        <ele>495.577972</ele>
        <time>2016-01-17T13:58:04.000Z</time>
      </trkpt>
      <trkpt lat="43.93331" lon="7.26102">
        <ele>493.837708</ele>
        <time>2016-01-17T13:58:09.000Z</time>
      </trkpt>
      <trkpt lat="43.93356" lon="7.26081">
        <ele>490.578552</ele>
        <time>2016-01-17T13:58:14.000Z</time>
      </trkpt>
      <trkpt lat="43.9337" lon="7.2607">
        <ele>487.983826</ele>
        <time>2016-01-17T13:58:19.000Z</time>
      </trkpt>
      <trkpt lat="43.93388" lon="7.26077">
        <ele>483.418854</ele>
        <time>2016-01-17T13:58:24.000Z</time>
      </trkpt>
      <trkpt lat="43.93409" lon="7.26079">
        <ele>480.053284</ele>
        <time>2016-01-17T13:58:29.000Z</time>
      </trkpt>
      <trkpt lat="43.93435" lon="7.26085">
        <ele>477.285034</ele>
        <time>2016-01-17T13:58:34.000Z</time>
      </trkpt>
      <trkpt lat="43.93447" lon="7.26088">
        <ele>475.997894</ele>
        <time>2016-01-17T13:58:39.000Z</time>
      </trkpt>
      <trkpt lat="43.93439" lon="7.26104">
        <ele>475.672546</ele>
        <time>2016-01-17T13:58:44.000Z</time>
      </trkpt>
      <trkpt lat="43.93433" lon="7.26116">
        <ele>475.160095</ele>
        <time>2016-01-17T13:58:49.000Z</time>
      </trkpt>
      <trkpt lat="43.93429" lon="7.26126">
        <ele>477.417267</ele>
        <time>2016-01-17T13:58:54.000Z</time>
      </trkpt>
      <trkpt lat="43.93426" lon="7.26137">
        <ele>481.039459</ele>
        <time>2016-01-17T13:58:59.000Z</time>
      </trkpt>
      <trkpt lat="43.93426" lon="7.2614">
        <ele>482.070465</ele>
        <time>2016-01-17T13:59:04.000Z</time>
      </trkpt>
      <trkpt lat="43.93427" lon="7.26149">
        <ele>482.024017</ele>
        <time>2016-01-17T13:59:09.000Z</time>
      </trkpt>
      <trkpt lat="43.93431" lon="7.26169">
        <ele>481.814697</ele>
        <time>2016-01-17T13:59:14.000Z</time>
      </trkpt>
      <trkpt lat="43.93433" lon="7.26185">
        <ele>481.116608</ele>
        <time>2016-01-17T13:59:19.000Z</time>
      </trkpt>
      <trkpt lat="43.93433" lon="7.262">
        <ele>481.668732</ele>
        <time>2016-01-17T13:59:24.000Z</time>
      </trkpt>
      <trkpt lat="43.93433" lon="7.26212">
        <ele>482.488892</ele>
        <time>2016-01-17T13:59:29.000Z</time>
      </trkpt>
      <trkpt lat="43.93431" lon="7.26219">
        <ele>484.172333</ele>
        <time>2016-01-17T13:59:34.000Z</time>
      </trkpt>
      <trkpt lat="43.9343" lon="7.26222">
        <ele>485.064911</ele>
        <time>2016-01-17T13:59:39.000Z</time>
      </trkpt>
      <trkpt lat="43.93428" lon="7.26226">
        <ele>485.650024</ele>
        <time>2016-01-17T13:59:44.000Z</time>
      </trkpt>
      <trkpt lat="43.93424" lon="7.26231">
        <ele>482.742371</ele>
        <time>2016-01-17T13:59:49.000Z</time>
      </trkpt>
      <trkpt lat="43.93422" lon="7.26236">
        <ele>481.192505</ele>
        <time>2016-01-17T13:59:54.000Z</time>
      </trkpt>
      <trkpt lat="43.93422" lon="7.26243">
        <ele>481.819885</ele>
        <time>2016-01-17T13:59:59.000Z</time>
      </trkpt>
      <trkpt lat="43.93421" lon="7.26249">
        <ele>481.736145</ele>
        <time>2016-01-17T14:00:04.000Z</time>
      </trkpt>
      <trkpt lat="43.9342" lon="7.26255">
        <ele>482.034607</ele>
        <time>2016-01-17T14:00:09.000Z</time>
      </trkpt>
      <trkpt lat="43.93421" lon="7.2626">
        <ele>481.34845</ele>
        <time>2016-01-17T14:00:14.000Z</time>
      </trkpt>
      <trkpt lat="43.9342" lon="7.2626">
        <ele>481.286102</ele>
        <time>2016-01-17T14:00:19.000Z</time>
      </trkpt>
      <trkpt lat="43.9342" lon="7.26259">
        <ele>481.192413</ele>
        <time>2016-01-17T14:00:24.000Z</time>
      </trkpt>
      <trkpt lat="43.93423" lon="7.26269">
        <ele>480.796631</ele>
        <time>2016-01-17T14:00:29.000Z</time>
      </trkpt>
      <trkpt lat="43.93433" lon="7.26285">
        <ele>479.299255</ele>
        <time>2016-01-17T14:00:34.000Z</time>
      </trkpt>
      <trkpt lat="43.93446" lon="7.26289">
        <ele>479.215759</ele>
        <time>2016-01-17T14:00:39.000Z</time>
      </trkpt>
      <trkpt lat="43.93455" lon="7.26287">
        <ele>480.131714</ele>
        <time>2016-01-17T14:00:44.000Z</time>
      </trkpt>
      <trkpt lat="43.93466" lon="7.26285">
        <ele>480.20578</ele>
        <time>2016-01-17T14:00:49.000Z</time>
      </trkpt>
      <trkpt lat="43.93477" lon="7.26285">
        <ele>482.659119</ele>
        <time>2016-01-17T14:00:54.000Z</time>
      </trkpt>
      <trkpt lat="43.93488" lon="7.26286">
        <ele>482.530975</ele>
        <time>2016-01-17T14:00:59.000Z</time>
      </trkpt>
      <trkpt lat="43.935" lon="7.26289">
        <ele>484.108276</ele>
        <time>2016-01-17T14:01:04.000Z</time>
      </trkpt>
      <trkpt lat="43.93512" lon="7.26292">
        <ele>483.715637</ele>
        <time>2016-01-17T14:01:09.000Z</time>
      </trkpt>
      <trkpt lat="43.93522" lon="7.26292">
        <ele>482.833679</ele>
        <time>2016-01-17T14:01:14.000Z</time>
      </trkpt>
      <trkpt lat="43.9353" lon="7.2629">
        <ele>482.174866</ele>
        <time>2016-01-17T14:01:19.000Z</time>
      </trkpt>
      <trkpt lat="43.93533" lon="7.26288">
        <ele>481.049744</ele>
        <time>2016-01-17T14:01:24.000Z</time>
      </trkpt>
      <trkpt lat="43.93538" lon="7.26288">
        <ele>479.595612</ele>
        <time>2016-01-17T14:01:29.000Z</time>
      </trkpt>
      <trkpt lat="43.93543" lon="7.26288">
        <ele>477.780762</ele>
        <time>2016-01-17T14:01:34.000Z</time>
      </trkpt>
      <trkpt lat="43.93549" lon="7.26287">
        <ele>474.428131</ele>
        <time>2016-01-17T14:01:39.000Z</time>
      </trkpt>
      <trkpt lat="43.93553" lon="7.26289">
        <ele>472.476257</ele>
        <time>2016-01-17T14:01:44.000Z</time>
      </trkpt>
      <trkpt lat="43.93557" lon="7.2629">
        <ele>471.81012</ele>
        <time>2016-01-17T14:01:49.000Z</time>
      </trkpt>
      <trkpt lat="43.9356" lon="7.26291">
        <ele>470.895996</ele>
        <time>2016-01-17T14:01:54.000Z</time>
      </trkpt>
      <trkpt lat="43.93564" lon="7.26292">
        <ele>469.889313</ele>
        <time>2016-01-17T14:01:59.000Z</time>
      </trkpt>
      <trkpt lat="43.93569" lon="7.26292">
        <ele>468.478607</ele>
        <time>2016-01-17T14:02:04.000Z</time>
      </trkpt>
      <trkpt lat="43.93573" lon="7.26293">
        <ele>468.212036</ele>
        <time>2016-01-17T14:02:09.000Z</time>
      </trkpt>
      <trkpt lat="43.93576" lon="7.26293">
        <ele>466.416962</ele>
        <time>2016-01-17T14:02:14.000Z</time>
      </trkpt>
      <trkpt lat="43.93581" lon="7.26294">
        <ele>465.844666</ele>
        <time>2016-01-17T14:02:19.000Z</time>
      </trkpt>
      <trkpt lat="43.93586" lon="7.26294">
        <ele>464.966125</ele>
        <time>2016-01-17T14:02:24.000Z</time>
      </trkpt>
      <trkpt lat="43.93589" lon="7.26295">
        <ele>464.187286</ele>
        <time>2016-01-17T14:02:29.000Z</time>
      </trkpt>
      <trkpt lat="43.9359" lon="7.26293">
        <ele>463.262695</ele>
        <time>2016-01-17T14:02:34.000Z</time>
      </trkpt>
      <trkpt lat="43.93593" lon="7.26293">
        <ele>462.590332</ele>
        <time>2016-01-17T14:02:39.000Z</time>
      </trkpt>
      <trkpt lat="43.93597" lon="7.26291">
        <ele>461.210327</ele>
        <time>2016-01-17T14:02:44.000Z</time>
      </trkpt>
      <trkpt lat="43.93598" lon="7.26289">
        <ele>459.862885</ele>
        <time>2016-01-17T14:02:49.000Z</time>
      </trkpt>
      <trkpt lat="43.93599" lon="7.26288">
        <ele>458.511169</ele>
        <time>2016-01-17T14:02:54.000Z</time>
      </trkpt>
      <trkpt lat="43.93604" lon="7.26286">
        <ele>456.49115</ele>
        <time>2016-01-17T14:02:59.000Z</time>
      </trkpt>
      <trkpt lat="43.93607" lon="7.26288">
        <ele>457.531342</ele>
        <time>2016-01-17T14:03:04.000Z</time>
      </trkpt>
      <trkpt lat="43.9361" lon="7.26289">
        <ele>457.203369</ele>
        <time>2016-01-17T14:03:09.000Z</time>
      </trkpt>
      <trkpt lat="43.93614" lon="7.2629">
        <ele>457.21579</ele>
        <time>2016-01-17T14:03:14.000Z</time>
      </trkpt>
      <trkpt lat="43.93616" lon="7.2629">
        <ele>457.903412</ele>
        <time>2016-01-17T14:03:19.000Z</time>
      </trkpt>
      <trkpt lat="43.93616" lon="7.26291">
        <ele>458.428162</ele>
        <time>2016-01-17T14:03:24.000Z</time>
      </trkpt>
      <trkpt lat="43.93616" lon="7.26292">
        <ele>458.776917</ele>
        <time>2016-01-17T14:03:29.000Z</time>
      </trkpt>
      <trkpt lat="43.93616" lon="7.26292">
        <ele>458.863403</ele>
        <time>2016-01-17T14:03:34.000Z</time>
      </trkpt>
      <trkpt lat="43.93616" lon="7.26292">
        <ele>458.905609</ele>
        <time>2016-01-17T14:03:39.000Z</time>
      </trkpt>
      <trkpt lat="43.93616" lon="7.26292">
        <ele>458.908997</ele>
        <time>2016-01-17T14:03:44.000Z</time>
      </trkpt>
      <trkpt lat="43.93616" lon="7.26292">
        <ele>458.913391</ele>
        <time>2016-01-17T14:03:49.000Z</time>
      </trkpt>
      <trkpt lat="43.93616" lon="7.26292">
        <ele>458.907074</ele>
        <time>2016-01-17T14:03:54.000Z</time>
      </trkpt>
      <trkpt lat="43.93618" lon="7.26297">
        <ele>461.186676</ele>
        <time>2016-01-17T14:03:59.000Z</time>
      </trkpt>
      <trkpt lat="43.93617" lon="7.26303">
        <ele>465.330841</ele>
        <time>2016-01-17T14:04:04.000Z</time>
      </trkpt>
      <trkpt lat="43.93618" lon="7.26306">
        <ele>466.473541</ele>
        <time>2016-01-17T14:04:09.000Z</time>
      </trkpt>
      <trkpt lat="43.93619" lon="7.26309">
        <ele>466.06308</ele>
        <time>2016-01-17T14:04:14.000Z</time>
      </trkpt>
      <trkpt lat="43.93619" lon="7.2631">
        <ele>466.150696</ele>
        <time>2016-01-17T14:04:19.000Z</time>
      </trkpt>
      <trkpt lat="43.93617" lon="7.26314">
        <ele>466.162048</ele>
        <time>2016-01-17T14:04:24.000Z</time>
      </trkpt>
      <trkpt lat="43.93615" lon="7.26317">
        <ele>466.231506</ele>
        <time>2016-01-17T14:04:29.000Z</time>
      </trkpt>
      <trkpt lat="43.93615" lon="7.26316">
        <ele>466.405396</ele>
        <time>2016-01-17T14:04:34.000Z</time>
      </trkpt>
      <trkpt lat="43.93616" lon="7.26315">
        <ele>466.510834</ele>
        <time>2016-01-17T14:04:39.000Z</time>
      </trkpt>
      <trkpt lat="43.93644" lon="7.26225">
        <ele>466.953278</ele>
        <time>2016-01-17T14:04:45.000Z</time>
      </trkpt>
      <trkpt lat="43.93648" lon="7.26231">
        <ele>466.825256</ele>
        <time>2016-01-17T14:04:50.000Z</time>
      </trkpt>
      <trkpt lat="43.93618" lon="7.26317">
        <ele>466.214661</ele>
        <time>2016-01-17T14:04:55.000Z</time>
      </trkpt>
      <trkpt lat="43.9362" lon="7.26318">
        <ele>465.895233</ele>
        <time>2016-01-17T14:05:00.000Z</time>
      </trkpt>
      <trkpt lat="43.93623" lon="7.26316">
        <ele>466.198334</ele>
        <time>2016-01-17T14:05:05.000Z</time>
      </trkpt>
      <trkpt lat="43.93624" lon="7.26317">
        <ele>466.598022</ele>
        <time>2016-01-17T14:05:10.000Z</time>
      </trkpt>
      <trkpt lat="43.93627" lon="7.26312">
        <ele>466.773193</ele>
        <time>2016-01-17T14:05:15.000Z</time>
      </trkpt>
      <trkpt lat="43.93628" lon="7.26309">
        <ele>467.345306</ele>
        <time>2016-01-17T14:05:20.000Z</time>
      </trkpt>
      <trkpt lat="43.9363" lon="7.26309">
        <ele>466.166016</ele>
        <time>2016-01-17T14:05:25.000Z</time>
      </trkpt>
      <trkpt lat="43.93632" lon="7.26311">
        <ele>465.10849</ele>
        <time>2016-01-17T14:05:30.000Z</time>
      </trkpt>
      <trkpt lat="43.93632" lon="7.26313">
        <ele>464.30658</ele>
        <time>2016-01-17T14:05:35.000Z</time>
      </trkpt>
      <trkpt lat="43.93631" lon="7.26314">
        <ele>463.1315</ele>
        <time>2016-01-17T14:05:40.000Z</time>
      </trkpt>
      <trkpt lat="43.9363" lon="7.26318">
        <ele>462.437531</ele>
        <time>2016-01-17T14:05:45.000Z</time>
      </trkpt>
      <trkpt lat="43.9363" lon="7.26325">
        <ele>463.0513</ele>
        <time>2016-01-17T14:05:50.000Z</time>
      </trkpt>
      <trkpt lat="43.93628" lon="7.26329">
        <ele>463.696686</ele>
        <time>2016-01-17T14:05:55.000Z</time>
      </trkpt>
      <trkpt lat="43.93629" lon="7.26329">
        <ele>464.727814</ele>
        <time>2016-01-17T14:06:00.000Z</time>
      </trkpt>
      <trkpt lat="43.93628" lon="7.2633">
        <ele>465.133789</ele>
        <time>2016-01-17T14:06:05.000Z</time>
      </trkpt>
      <trkpt lat="43.93628" lon="7.26334">
        <ele>468.018127</ele>
        <time>2016-01-17T14:06:10.000Z</time>
      </trkpt>
      <trkpt lat="43.93627" lon="7.26335">
        <ele>469.647919</ele>
        <time>2016-01-17T14:06:15.000Z</time>
      </trkpt>
      <trkpt lat="43.93628" lon="7.26336">
        <ele>471.143005</ele>
        <time>2016-01-17T14:06:20.000Z</time>
      </trkpt>
      <trkpt lat="43.93626" lon="7.26337">
        <ele>471.933105</ele>
        <time>2016-01-17T14:06:25.000Z</time>
      </trkpt>
      <trkpt lat="43.93625" lon="7.26338">
        <ele>472.365906</ele>
        <time>2016-01-17T14:06:30.000Z</time>
      </trkpt>
      <trkpt lat="43.93625" lon="7.26339">
        <ele>472.187958</ele>
        <time>2016-01-17T14:06:35.000Z</time>
      </trkpt>
      <trkpt lat="43.93626" lon="7.26339">
        <ele>472.54657</ele>
        <time>2016-01-17T14:06:40.000Z</time>
      </trkpt>
      <trkpt lat="43.93625" lon="7.2634">
        <ele>472.255341</ele>
        <time>2016-01-17T14:06:45.000Z</time>
      </trkpt>
      <trkpt lat="43.93625" lon="7.2634">
        <ele>472.343414</ele>
        <time>2016-01-17T14:06:50.000Z</time>
      </trkpt>
      <trkpt lat="43.93625" lon="7.2634">
        <ele>472.482697</ele>
        <time>2016-01-17T14:06:55.000Z</time>
      </trkpt>
      <trkpt lat="43.93626" lon="7.26341">
        <ele>472.849976</ele>
        <time>2016-01-17T14:07:00.000Z</time>
      </trkpt>
      <trkpt lat="43.93631" lon="7.26347">
        <ele>473.246613</ele>
        <time>2016-01-17T14:07:05.000Z</time>
      </trkpt>
      <trkpt lat="43.93636" lon="7.26353">
        <ele>473.065918</ele>
        <time>2016-01-17T14:07:10.000Z</time>
      </trkpt>
      <trkpt lat="43.93633" lon="7.2635">
        <ele>472.975342</ele>
        <time>2016-01-17T14:07:15.000Z</time>
      </trkpt>
      <trkpt lat="43.93628" lon="7.26343">
        <ele>473.272644</ele>
        <time>2016-01-17T14:07:20.000Z</time>
      </trkpt>
      <trkpt lat="43.93624" lon="7.26341">
        <ele>473.966278</ele>
        <time>2016-01-17T14:07:25.000Z</time>
      </trkpt>
      <trkpt lat="43.93627" lon="7.26343">
        <ele>475.395447</ele>
        <time>2016-01-17T14:07:30.000Z</time>
      </trkpt>
      <trkpt lat="43.93628" lon="7.26346">
        <ele>476.087738</ele>
        <time>2016-01-17T14:07:35.000Z</time>
      </trkpt>
      <trkpt lat="43.93628" lon="7.26346">
        <ele>476.049683</ele>
        <time>2016-01-17T14:07:40.000Z</time>
      </trkpt>
      <trkpt lat="43.93628" lon="7.26348">
        <ele>476.587067</ele>
        <time>2016-01-17T14:07:45.000Z</time>
      </trkpt>
      <trkpt lat="43.93631" lon="7.26353">
        <ele>476.964813</ele>
        <time>2016-01-17T14:07:50.000Z</time>
      </trkpt>
      <trkpt lat="43.93633" lon="7.26356">
        <ele>476.921173</ele>
        <time>2016-01-17T14:07:55.000Z</time>
      </trkpt>
      <trkpt lat="43.93636" lon="7.26358">
        <ele>476.94342</ele>
        <time>2016-01-17T14:08:00.000Z</time>
      </trkpt>
      <trkpt lat="43.93644" lon="7.26362">
        <ele>476.938385</ele>
        <time>2016-01-17T14:08:05.000Z</time>
      </trkpt>
      <trkpt lat="43.9365" lon="7.26373">
        <ele>482.489349</ele>
        <time>2016-01-17T14:08:10.000Z</time>
      </trkpt>
      <trkpt lat="43.93655" lon="7.26383">
        <ele>492.578247</ele>
        <time>2016-01-17T14:08:15.000Z</time>
      </trkpt>
      <trkpt lat="43.9366" lon="7.26398">
        <ele>498.749115</ele>
        <time>2016-01-17T14:08:20.000Z</time>
      </trkpt>
      <trkpt lat="43.93668" lon="7.26408">
        <ele>501.544067</ele>
        <time>2016-01-17T14:08:25.000Z</time>
      </trkpt>
      <trkpt lat="43.93685" lon="7.26431">
        <ele>501.768433</ele>
        <time>2016-01-17T14:08:30.000Z</time>
      </trkpt>
      <trkpt lat="43.93705" lon="7.26463">
        <ele>502.40741</ele>
        <time>2016-01-17T14:08:35.000Z</time>
      </trkpt>
      <trkpt lat="43.93722" lon="7.26493">
        <ele>504.34494</ele>
        <time>2016-01-17T14:08:40.000Z</time>
      </trkpt>
      <trkpt lat="43.93727" lon="7.26501">
        <ele>504.342987</ele>
        <time>2016-01-17T14:08:45.000Z</time>
      </trkpt>
      <trkpt lat="43.93729" lon="7.26505">
        <ele>504.727448</ele>
        <time>2016-01-17T14:08:50.000Z</time>
      </trkpt>
      <trkpt lat="43.93737" lon="7.26512">
        <ele>504.726227</ele>
        <time>2016-01-17T14:08:55.000Z</time>
      </trkpt>
      <trkpt lat="43.93745" lon="7.2651">
        <ele>505.990631</ele>
        <time>2016-01-17T14:09:00.000Z</time>
      </trkpt>
      <trkpt lat="43.93746" lon="7.26509">
        <ele>507.159637</ele>
        <time>2016-01-17T14:09:05.000Z</time>
      </trkpt>
      <trkpt lat="43.93746" lon="7.26509">
        <ele>507.103485</ele>
        <time>2016-01-17T14:09:10.000Z</time>
      </trkpt>
      <trkpt lat="43.93747" lon="7.26508">
        <ele>507.425415</ele>
        <time>2016-01-17T14:09:15.000Z</time>
      </trkpt>
      <trkpt lat="43.93748" lon="7.26507">
        <ele>508.542908</ele>
        <time>2016-01-17T14:09:20.000Z</time>
      </trkpt>
      <trkpt lat="43.93748" lon="7.26507">
        <ele>508.498627</ele>
        <time>2016-01-17T14:09:25.000Z</time>
      </trkpt>
      <trkpt lat="43.93748" lon="7.26507">
        <ele>508.430298</ele>
        <time>2016-01-17T14:09:30.000Z</time>
      </trkpt>
      <trkpt lat="43.93748" lon="7.26507">
        <ele>508.418701</ele>
        <time>2016-01-17T14:09:35.000Z</time>
      </trkpt>
      <trkpt lat="43.93748" lon="7.26507">
        <ele>508.429382</ele>
        <time>2016-01-17T14:09:40.000Z</time>
      </trkpt>
      <trkpt lat="43.93748" lon="7.26507">
        <ele>508.435608</ele>
        <time>2016-01-17T14:09:45.000Z</time>
      </trkpt>
      <trkpt lat="43.93748" lon="7.26507">
        <ele>508.440491</ele>
        <time>2016-01-17T14:09:50.000Z</time>
      </trkpt>
      <trkpt lat="43.93748" lon="7.26507">
        <ele>508.452667</ele>
        <time>2016-01-17T14:09:55.000Z</time>
      </trkpt>
      <trkpt lat="43.93748" lon="7.26507">
        <ele>508.463287</ele>
        <time>2016-01-17T14:10:00.000Z</time>
      </trkpt>
      <trkpt lat="43.93748" lon="7.26507">
        <ele>508.472687</ele>
        <time>2016-01-17T14:10:05.000Z</time>
      </trkpt>
      <trkpt lat="43.93748" lon="7.26507">
        <ele>508.481476</ele>
        <time>2016-01-17T14:10:10.000Z</time>
      </trkpt>
      <trkpt lat="43.93753" lon="7.26499">
        <ele>508.630249</ele>
        <time>2016-01-17T14:10:15.000Z</time>
      </trkpt>
      <trkpt lat="43.93766" lon="7.26487">
        <ele>507.859222</ele>
        <time>2016-01-17T14:10:20.000Z</time>
      </trkpt>
      <trkpt lat="43.93775" lon="7.26464">
        <ele>507.649872</ele>
        <time>2016-01-17T14:10:25.000Z</time>
      </trkpt>
      <trkpt lat="43.93791" lon="7.2645">
        <ele>507.62442</ele>
        <time>2016-01-17T14:10:30.000Z</time>
      </trkpt>
      <trkpt lat="43.93811" lon="7.26462">
        <ele>507.45343</ele>
        <time>2016-01-17T14:10:35.000Z</time>
      </trkpt>
      <trkpt lat="43.93821" lon="7.26493">
        <ele>507.622833</ele>
        <time>2016-01-17T14:10:40.000Z</time>
      </trkpt>
      <trkpt lat="43.93825" lon="7.26529">
        <ele>507.029388</ele>
        <time>2016-01-17T14:10:45.000Z</time>
      </trkpt>
      <trkpt lat="43.93825" lon="7.26567">
        <ele>506.38385</ele>
        <time>2016-01-17T14:10:50.000Z</time>
      </trkpt>
      <trkpt lat="43.93824" lon="7.26609">
        <ele>505.25235</ele>
        <time>2016-01-17T14:10:55.000Z</time>
      </trkpt>
      <trkpt lat="43.93828" lon="7.26658">
        <ele>503.821899</ele>
        <time>2016-01-17T14:11:00.000Z</time>
      </trkpt>
      <trkpt lat="43.93828" lon="7.2671">
        <ele>503.182953</ele>
        <time>2016-01-17T14:11:05.000Z</time>
      </trkpt>
      <trkpt lat="43.93827" lon="7.26765">
        <ele>502.542694</ele>
        <time>2016-01-17T14:11:10.000Z</time>
      </trkpt>
      <trkpt lat="43.93835" lon="7.26819">
        <ele>501.527924</ele>
        <time>2016-01-17T14:11:15.000Z</time>
      </trkpt>
      <trkpt lat="43.9384" lon="7.26863">
        <ele>500.406647</ele>
        <time>2016-01-17T14:11:20.000Z</time>
      </trkpt>
      <trkpt lat="43.93864" lon="7.26886">
        <ele>500.372131</ele>
        <time>2016-01-17T14:11:25.000Z</time>
      </trkpt>
      <trkpt lat="43.93889" lon="7.26905">
        <ele>499.676697</ele>
        <time>2016-01-17T14:11:30.000Z</time>
      </trkpt>
      <trkpt lat="43.93915" lon="7.26926">
        <ele>498.548065</ele>
        <time>2016-01-17T14:11:35.000Z</time>
      </trkpt>
      <trkpt lat="43.93939" lon="7.26954">
        <ele>498.196564</ele>
        <time>2016-01-17T14:11:40.000Z</time>
      </trkpt>
      <trkpt lat="43.93958" lon="7.26988">
        <ele>497.546509</ele>
        <time>2016-01-17T14:11:45.000Z</time>
      </trkpt>
      <trkpt lat="43.93972" lon="7.27029">
        <ele>496.695557</ele>
        <time>2016-01-17T14:11:50.000Z</time>
      </trkpt>
      <trkpt lat="43.93977" lon="7.27076">
        <ele>496.009796</ele>
        <time>2016-01-17T14:11:55.000Z</time>
      </trkpt>
      <trkpt lat="43.93989" lon="7.2712">
        <ele>495.697723</ele>
        <time>2016-01-17T14:12:00.000Z</time>
      </trkpt>
      <trkpt lat="43.94012" lon="7.27157">
        <ele>495.114868</ele>
        <time>2016-01-17T14:12:05.000Z</time>
      </trkpt>
      <trkpt lat="43.94037" lon="7.27191">
        <ele>493.880646</ele>
        <time>2016-01-17T14:12:10.000Z</time>
      </trkpt>
      <trkpt lat="43.94069" lon="7.27211">
        <ele>492.678589</ele>
        <time>2016-01-17T14:12:15.000Z</time>
      </trkpt>
      <trkpt lat="43.94092" lon="7.27243">
        <ele>492.022156</ele>
        <time>2016-01-17T14:12:20.000Z</time>
      </trkpt>
      <trkpt lat="43.94101" lon="7.27283">
        <ele>491.551941</ele>
        <time>2016-01-17T14:12:25.000Z</time>
      </trkpt>
      <trkpt lat="43.94107" lon="7.27318">
        <ele>490.934265</ele>
        <time>2016-01-17T14:12:30.000Z</time>
      </trkpt>
      <trkpt lat="43.94123" lon="7.27334">
        <ele>491.059509</ele>
        <time>2016-01-17T14:12:35.000Z</time>
      </trkpt>
      <trkpt lat="43.9414" lon="7.27339">
        <ele>491.145355</ele>
        <time>2016-01-17T14:12:40.000Z</time>
      </trkpt>
      <trkpt lat="43.94153" lon="7.27339">
        <ele>491.059967</ele>
        <time>2016-01-17T14:12:45.000Z</time>
      </trkpt>
      <trkpt lat="43.94157" lon="7.2734">
        <ele>490.782959</ele>
        <time>2016-01-17T14:12:50.000Z</time>
      </trkpt>
      <trkpt lat="43.94157" lon="7.2734">
        <ele>490.516541</ele>
        <time>2016-01-17T14:12:55.000Z</time>
      </trkpt>
      <trkpt lat="43.94156" lon="7.2734">
        <ele>490.471924</ele>
        <time>2016-01-17T14:13:00.000Z</time>
      </trkpt>
      <trkpt lat="43.94157" lon="7.2734">
        <ele>490.417084</ele>
        <time>2016-01-17T14:13:05.000Z</time>
      </trkpt>
      <trkpt lat="43.94156" lon="7.2734">
        <ele>490.453857</ele>
        <time>2016-01-17T14:13:10.000Z</time>
      </trkpt>
      <trkpt lat="43.94159" lon="7.2734">
        <ele>490.594971</ele>
        <time>2016-01-17T14:13:15.000Z</time>
      </trkpt>
      <trkpt lat="43.94172" lon="7.27342">
        <ele>490.97226</ele>
        <time>2016-01-17T14:13:20.000Z</time>
      </trkpt>
      <trkpt lat="43.94188" lon="7.27352">
        <ele>491.089081</ele>
        <time>2016-01-17T14:13:25.000Z</time>
      </trkpt>
      <trkpt lat="43.94199" lon="7.27371">
        <ele>491.346008</ele>
        <time>2016-01-17T14:13:30.000Z</time>
      </trkpt>
      <trkpt lat="43.94207" lon="7.27394">
        <ele>491.35199</ele>
        <time>2016-01-17T14:13:35.000Z</time>
      </trkpt>
      <trkpt lat="43.94206" lon="7.27422">
        <ele>490.975922</ele>
        <time>2016-01-17T14:13:40.000Z</time>
      </trkpt>
      <trkpt lat="43.9419" lon="7.27443">
        <ele>490.258942</ele>
        <time>2016-01-17T14:13:45.000Z</time>
      </trkpt>
      <trkpt lat="43.94171" lon="7.27461">
        <ele>490.036804</ele>
        <time>2016-01-17T14:13:50.000Z</time>
      </trkpt>
      <trkpt lat="43.94157" lon="7.27489">
        <ele>489.488434</ele>
        <time>2016-01-17T14:13:55.000Z</time>
      </trkpt>
      <trkpt lat="43.94149" lon="7.27526">
        <ele>489.118042</ele>
        <time>2016-01-17T14:14:00.000Z</time>
      </trkpt>
      <trkpt lat="43.94162" lon="7.27555">
        <ele>488.874634</ele>
        <time>2016-01-17T14:14:05.000Z</time>
      </trkpt>
      <trkpt lat="43.94186" lon="7.27569">
        <ele>488.569702</ele>
        <time>2016-01-17T14:14:10.000Z</time>
      </trkpt>
      <trkpt lat="43.94206" lon="7.27595">
        <ele>487.703705</ele>
        <time>2016-01-17T14:14:15.000Z</time>
      </trkpt>
      <trkpt lat="43.94221" lon="7.27628">
        <ele>486.670288</ele>
        <time>2016-01-17T14:14:20.000Z</time>
      </trkpt>
      <trkpt lat="43.94211" lon="7.27667">
        <ele>485.318115</ele>
        <time>2016-01-17T14:14:25.000Z</time>
      </trkpt>
      <trkpt lat="43.94195" lon="7.27703">
        <ele>483.877014</ele>
        <time>2016-01-17T14:14:30.000Z</time>
      </trkpt>
      <trkpt lat="43.94181" lon="7.27738">
        <ele>481.999176</ele>
        <time>2016-01-17T14:14:35.000Z</time>
      </trkpt>
      <trkpt lat="43.94168" lon="7.27768">
        <ele>481.323425</ele>
        <time>2016-01-17T14:14:40.000Z</time>
      </trkpt>
      <trkpt lat="43.94154" lon="7.27785">
        <ele>481.394989</ele>
        <time>2016-01-17T14:14:45.000Z</time>
      </trkpt>
      <trkpt lat="43.94142" lon="7.27807">
        <ele>480.686279</ele>
        <time>2016-01-17T14:14:50.000Z</time>
      </trkpt>
      <trkpt lat="43.94139" lon="7.27839">
        <ele>479.918945</ele>
        <time>2016-01-17T14:14:55.000Z</time>
      </trkpt>
      <trkpt lat="43.94137" lon="7.27874">
        <ele>478.508057</ele>
        <time>2016-01-17T14:15:00.000Z</time>
      </trkpt>
      <trkpt lat="43.94158" lon="7.27874">
        <ele>476.665466</ele>
        <time>2016-01-17T14:15:05.000Z</time>
      </trkpt>
      <trkpt lat="43.94178" lon="7.27844">
        <ele>475.439667</ele>
        <time>2016-01-17T14:15:10.000Z</time>
      </trkpt>
      <trkpt lat="43.94197" lon="7.27807">
        <ele>473.82843</ele>
        <time>2016-01-17T14:15:15.000Z</time>
      </trkpt>
      <trkpt lat="43.94211" lon="7.27773">
        <ele>472.658997</ele>
        <time>2016-01-17T14:15:20.000Z</time>
      </trkpt>
      <trkpt lat="43.9422" lon="7.27748">
        <ele>470.405853</ele>
        <time>2016-01-17T14:15:25.000Z</time>
      </trkpt>
      <trkpt lat="43.94222" lon="7.27748">
        <ele>470.307892</ele>
        <time>2016-01-17T14:15:30.000Z</time>
      </trkpt>
      <trkpt lat="43.94222" lon="7.2775">
        <ele>469.700378</ele>
        <time>2016-01-17T14:15:35.000Z</time>
      </trkpt>
      <trkpt lat="43.94223" lon="7.2775">
        <ele>469.508789</ele>
        <time>2016-01-17T14:15:40.000Z</time>
      </trkpt>
      <trkpt lat="43.94222" lon="7.27752">
        <ele>469.421448</ele>
        <time>2016-01-17T14:15:45.000Z</time>
      </trkpt>
      <trkpt lat="43.94222" lon="7.27751">
        <ele>469.513947</ele>
        <time>2016-01-17T14:15:50.000Z</time>
      </trkpt>
      <trkpt lat="43.94223" lon="7.27751">
        <ele>469.636841</ele>
        <time>2016-01-17T14:15:55.000Z</time>
      </trkpt>
      <trkpt lat="43.94222" lon="7.27754">
        <ele>469.490906</ele>
        <time>2016-01-17T14:16:00.000Z</time>
      </trkpt>
      <trkpt lat="43.94217" lon="7.2778">
        <ele>467.179504</ele>
        <time>2016-01-17T14:16:05.000Z</time>
      </trkpt>
      <trkpt lat="43.94214" lon="7.27811">
        <ele>462.697845</ele>
        <time>2016-01-17T14:16:10.000Z</time>
      </trkpt>
      <trkpt lat="43.94214" lon="7.27849">
        <ele>457.409119</ele>
        <time>2016-01-17T14:16:15.000Z</time>
      </trkpt>
      <trkpt lat="43.94203" lon="7.27873">
        <ele>454.398346</ele>
        <time>2016-01-17T14:16:20.000Z</time>
      </trkpt>
      <trkpt lat="43.94196" lon="7.27901">
        <ele>451.150482</ele>
        <time>2016-01-17T14:16:25.000Z</time>
      </trkpt>
      <trkpt lat="43.9419" lon="7.27931">
        <ele>449.284454</ele>
        <time>2016-01-17T14:16:30.000Z</time>
      </trkpt>
      <trkpt lat="43.94196" lon="7.27958">
        <ele>444.295135</ele>
        <time>2016-01-17T14:16:35.000Z</time>
      </trkpt>
      <trkpt lat="43.94194" lon="7.2798">
        <ele>442.651123</ele>
        <time>2016-01-17T14:16:40.000Z</time>
      </trkpt>
      <trkpt lat="43.94195" lon="7.27997">
        <ele>438.995514</ele>
        <time>2016-01-17T14:16:45.000Z</time>
      </trkpt>
      <trkpt lat="43.94194" lon="7.28001">
        <ele>437.421417</ele>
        <time>2016-01-17T14:16:50.000Z</time>
      </trkpt>
      <trkpt lat="43.94193" lon="7.28001">
        <ele>436.735016</ele>
        <time>2016-01-17T14:16:55.000Z</time>
      </trkpt>
      <trkpt lat="43.94193" lon="7.28001">
        <ele>436.703308</ele>
        <time>2016-01-17T14:17:00.000Z</time>
      </trkpt>
      <trkpt lat="43.94194" lon="7.28001">
        <ele>436.815521</ele>
        <time>2016-01-17T14:17:05.000Z</time>
      </trkpt>
      <trkpt lat="43.94194" lon="7.28003">
        <ele>436.90976</ele>
        <time>2016-01-17T14:17:10.000Z</time>
      </trkpt>
      <trkpt lat="43.9419" lon="7.28017">
        <ele>434.214905</ele>
        <time>2016-01-17T14:17:15.000Z</time>
      </trkpt>
      <trkpt lat="43.94188" lon="7.28028">
        <ele>432.723297</ele>
        <time>2016-01-17T14:17:20.000Z</time>
      </trkpt>
      <trkpt lat="43.94191" lon="7.28028">
        <ele>431.652496</ele>
        <time>2016-01-17T14:17:25.000Z</time>
      </trkpt>
      <trkpt lat="43.94194" lon="7.28029">
        <ele>430.230164</ele>
        <time>2016-01-17T14:17:30.000Z</time>
      </trkpt>
      <trkpt lat="43.94193" lon="7.28034">
        <ele>427.250702</ele>
        <time>2016-01-17T14:17:35.000Z</time>
      </trkpt>
      <trkpt lat="43.94182" lon="7.28048">
        <ele>423.942871</ele>
        <time>2016-01-17T14:17:40.000Z</time>
      </trkpt>
      <trkpt lat="43.94183" lon="7.28053">
        <ele>424.598389</ele>
        <time>2016-01-17T14:17:45.000Z</time>
      </trkpt>
      <trkpt lat="43.9419" lon="7.2805">
        <ele>422.27066</ele>
        <time>2016-01-17T14:17:50.000Z</time>
      </trkpt>
      <trkpt lat="43.94192" lon="7.28051">
        <ele>421.458771</ele>
        <time>2016-01-17T14:17:55.000Z</time>
      </trkpt>
      <trkpt lat="43.94184" lon="7.28061">
        <ele>418.069366</ele>
        <time>2016-01-17T14:18:00.000Z</time>
      </trkpt>
      <trkpt lat="43.94183" lon="7.28063">
        <ele>417.897522</ele>
        <time>2016-01-17T14:18:05.000Z</time>
      </trkpt>
      <trkpt lat="43.94183" lon="7.28065">
        <ele>417.51001</ele>
        <time>2016-01-17T14:18:10.000Z</time>
      </trkpt>
      <trkpt lat="43.94185" lon="7.28066">
        <ele>415.832977</ele>
        <time>2016-01-17T14:18:15.000Z</time>
      </trkpt>
      <trkpt lat="43.94185" lon="7.28066">
        <ele>414.848999</ele>
        <time>2016-01-17T14:18:20.000Z</time>
      </trkpt>
      <trkpt lat="43.94186" lon="7.28066">
        <ele>415.046326</ele>
        <time>2016-01-17T14:18:25.000Z</time>
      </trkpt>
      <trkpt lat="43.94187" lon="7.28065">
        <ele>414.710876</ele>
        <time>2016-01-17T14:18:30.000Z</time>
      </trkpt>
      <trkpt lat="43.94187" lon="7.28065">
        <ele>414.606171</ele>
        <time>2016-01-17T14:18:35.000Z</time>
      </trkpt>
      <trkpt lat="43.94196" lon="7.2806">
        <ele>410.180542</ele>
        <time>2016-01-17T14:18:40.000Z</time>
      </trkpt>
      <trkpt lat="43.94209" lon="7.28047">
        <ele>406.005188</ele>
        <time>2016-01-17T14:18:45.000Z</time>
      </trkpt>
      <trkpt lat="43.94224" lon="7.28053">
        <ele>402.012909</ele>
        <time>2016-01-17T14:18:50.000Z</time>
      </trkpt>
      <trkpt lat="43.94228" lon="7.28056">
        <ele>400.694733</ele>
        <time>2016-01-17T14:18:55.000Z</time>
      </trkpt>
      <trkpt lat="43.94228" lon="7.28055">
        <ele>400.779999</ele>
        <time>2016-01-17T14:19:00.000Z</time>
      </trkpt>
      <trkpt lat="43.94229" lon="7.28055">
        <ele>401.036743</ele>
        <time>2016-01-17T14:19:05.000Z</time>
      </trkpt>
      <trkpt lat="43.94229" lon="7.28055">
        <ele>401.114624</ele>
        <time>2016-01-17T14:19:10.000Z</time>
      </trkpt>
      <trkpt lat="43.94228" lon="7.28054">
        <ele>400.944061</ele>
        <time>2016-01-17T14:19:15.000Z</time>
      </trkpt>
      <trkpt lat="43.94228" lon="7.28054">
        <ele>400.905914</ele>
        <time>2016-01-17T14:19:20.000Z</time>
      </trkpt>
      <trkpt lat="43.94228" lon="7.28054">
        <ele>400.80069</ele>
        <time>2016-01-17T14:19:25.000Z</time>
      </trkpt>
      <trkpt lat="43.94228" lon="7.28054">
        <ele>400.787201</ele>
        <time>2016-01-17T14:19:30.000Z</time>
      </trkpt>
      <trkpt lat="43.94228" lon="7.28054">
        <ele>400.773529</ele>
        <time>2016-01-17T14:19:35.000Z</time>
      </trkpt>
      <trkpt lat="43.94228" lon="7.28054">
        <ele>400.77533</ele>
        <time>2016-01-17T14:19:40.000Z</time>
      </trkpt>
      <trkpt lat="43.94228" lon="7.28057">
        <ele>400.768036</ele>
        <time>2016-01-17T14:19:45.000Z</time>
      </trkpt>
      <trkpt lat="43.94222" lon="7.2807">
        <ele>395.961853</ele>
        <time>2016-01-17T14:19:50.000Z</time>
      </trkpt>
      <trkpt lat="43.94213" lon="7.28082">
        <ele>394.701141</ele>
        <time>2016-01-17T14:19:55.000Z</time>
      </trkpt>
      <trkpt lat="43.94213" lon="7.28093">
        <ele>394.039337</ele>
        <time>2016-01-17T14:20:00.000Z</time>
      </trkpt>
      <trkpt lat="43.94213" lon="7.28095">
        <ele>395.545044</ele>
        <time>2016-01-17T14:20:05.000Z</time>
      </trkpt>
      <trkpt lat="43.94213" lon="7.28099">
        <ele>396.630737</ele>
        <time>2016-01-17T14:20:10.000Z</time>
      </trkpt>
      <trkpt lat="43.94213" lon="7.28098">
        <ele>397.680359</ele>
        <time>2016-01-17T14:20:15.000Z</time>
      </trkpt>
      <trkpt lat="43.94214" lon="7.28098">
        <ele>398.536713</ele>
        <time>2016-01-17T14:20:20.000Z</time>
      </trkpt>
      <trkpt lat="43.94217" lon="7.28096">
        <ele>398.570709</ele>
        <time>2016-01-17T14:20:25.000Z</time>
      </trkpt>
      <trkpt lat="43.94221" lon="7.28093">
        <ele>398.605591</ele>
        <time>2016-01-17T14:20:30.000Z</time>
      </trkpt>
      <trkpt lat="43.94225" lon="7.28094">
        <ele>397.427155</ele>
        <time>2016-01-17T14:20:35.000Z</time>
      </trkpt>
      <trkpt lat="43.94228" lon="7.28096">
        <ele>397.052917</ele>
        <time>2016-01-17T14:20:40.000Z</time>
      </trkpt>
      <trkpt lat="43.94228" lon="7.28098">
        <ele>396.981018</ele>
        <time>2016-01-17T14:20:45.000Z</time>
      </trkpt>
      <trkpt lat="43.94229" lon="7.281">
        <ele>395.661285</ele>
        <time>2016-01-17T14:20:50.000Z</time>
      </trkpt>
      <trkpt lat="43.94228" lon="7.28104">
        <ele>396.133636</ele>
        <time>2016-01-17T14:20:55.000Z</time>
      </trkpt>
      <trkpt lat="43.94225" lon="7.28106">
        <ele>396.487854</ele>
        <time>2016-01-17T14:21:00.000Z</time>
      </trkpt>
      <trkpt lat="43.94225" lon="7.28106">
        <ele>397.101685</ele>
        <time>2016-01-17T14:21:05.000Z</time>
      </trkpt>
      <trkpt lat="43.94226" lon="7.28106">
        <ele>396.860931</ele>
        <time>2016-01-17T14:21:10.000Z</time>
      </trkpt>
      <trkpt lat="43.94227" lon="7.28105">
        <ele>395.845428</ele>
        <time>2016-01-17T14:21:15.000Z</time>
      </trkpt>
      <trkpt lat="43.94224" lon="7.28108">
        <ele>396.01355</ele>
        <time>2016-01-17T14:21:20.000Z</time>
      </trkpt>
      <trkpt lat="43.94227" lon="7.28115">
        <ele>396.71524</ele>
        <time>2016-01-17T14:21:25.000Z</time>
      </trkpt>
      <trkpt lat="43.94225" lon="7.28121">
        <ele>396.147827</ele>
        <time>2016-01-17T14:21:30.000Z</time>
      </trkpt>
      <trkpt lat="43.94221" lon="7.28128">
        <ele>394.623962</ele>
        <time>2016-01-17T14:21:35.000Z</time>
      </trkpt>
      <trkpt lat="43.94219" lon="7.28136">
        <ele>393.86853</ele>
        <time>2016-01-17T14:21:40.000Z</time>
      </trkpt>
      <trkpt lat="43.9422" lon="7.28145">
        <ele>393.446991</ele>
        <time>2016-01-17T14:21:45.000Z</time>
      </trkpt>
      <trkpt lat="43.94225" lon="7.28151">
        <ele>394.567078</ele>
        <time>2016-01-17T14:21:50.000Z</time>
      </trkpt>
      <trkpt lat="43.94222" lon="7.28157">
        <ele>395.513794</ele>
        <time>2016-01-17T14:21:55.000Z</time>
      </trkpt>
      <trkpt lat="43.94226" lon="7.28161">
        <ele>394.909363</ele>
        <time>2016-01-17T14:22:00.000Z</time>
      </trkpt>
      <trkpt lat="43.94225" lon="7.28167">
        <ele>393.814117</ele>
        <time>2016-01-17T14:22:05.000Z</time>
      </trkpt>
      <trkpt lat="43.94218" lon="7.28181">
        <ele>393.152161</ele>
        <time>2016-01-17T14:22:10.000Z</time>
      </trkpt>
      <trkpt lat="43.94209" lon="7.28188">
        <ele>392.145386</ele>
        <time>2016-01-17T14:22:15.000Z</time>
      </trkpt>
      <trkpt lat="43.9421" lon="7.28194">
        <ele>392.024933</ele>
        <time>2016-01-17T14:22:20.000Z</time>
      </trkpt>
      <trkpt lat="43.9421" lon="7.28199">
        <ele>391.35025</ele>
        <time>2016-01-17T14:22:25.000Z</time>
      </trkpt>
      <trkpt lat="43.94209" lon="7.282">
        <ele>391.279877</ele>
        <time>2016-01-17T14:22:30.000Z</time>
      </trkpt>
      <trkpt lat="43.94209" lon="7.282">
        <ele>391.069031</ele>
        <time>2016-01-17T14:22:35.000Z</time>
      </trkpt>
      <trkpt lat="43.94209" lon="7.28201">
        <ele>390.166931</ele>
        <time>2016-01-17T14:22:40.000Z</time>
      </trkpt>
      <trkpt lat="43.94209" lon="7.282">
        <ele>389.176239</ele>
        <time>2016-01-17T14:22:45.000Z</time>
      </trkpt>
      <trkpt lat="43.94209" lon="7.28201">
        <ele>388.854309</ele>
        <time>2016-01-17T14:22:50.000Z</time>
      </trkpt>
      <trkpt lat="43.94209" lon="7.28201">
        <ele>388.897522</ele>
        <time>2016-01-17T14:22:55.000Z</time>
      </trkpt>
      <trkpt lat="43.94209" lon="7.28201">
        <ele>388.853363</ele>
        <time>2016-01-17T14:23:00.000Z</time>
      </trkpt>
      <trkpt lat="43.9421" lon="7.28201">
        <ele>388.894928</ele>
        <time>2016-01-17T14:23:05.000Z</time>
      </trkpt>
      <trkpt lat="43.94213" lon="7.28205">
        <ele>389.35965</ele>
        <time>2016-01-17T14:23:10.000Z</time>
      </trkpt>
      <trkpt lat="43.94219" lon="7.28219">
        <ele>388.741852</ele>
        <time>2016-01-17T14:23:15.000Z</time>
      </trkpt>
      <trkpt lat="43.94223" lon="7.28241">
        <ele>388.343811</ele>
        <time>2016-01-17T14:23:20.000Z</time>
      </trkpt>
      <trkpt lat="43.94226" lon="7.28263">
        <ele>388.306488</ele>
        <time>2016-01-17T14:23:25.000Z</time>
      </trkpt>
      <trkpt lat="43.94214" lon="7.28275">
        <ele>388.187469</ele>
        <time>2016-01-17T14:23:30.000Z</time>
      </trkpt>
      <trkpt lat="43.94208" lon="7.28285">
        <ele>388.389557</ele>
        <time>2016-01-17T14:23:35.000Z</time>
      </trkpt>
      <trkpt lat="43.94211" lon="7.28283">
        <ele>388.188263</ele>
        <time>2016-01-17T14:23:40.000Z</time>
      </trkpt>
      <trkpt lat="43.94211" lon="7.28283">
        <ele>388.140076</ele>
        <time>2016-01-17T14:23:45.000Z</time>
      </trkpt>
      <trkpt lat="43.94211" lon="7.28283">
        <ele>388.137482</ele>
        <time>2016-01-17T14:23:50.000Z</time>
      </trkpt>
      <trkpt lat="43.94211" lon="7.28283">
        <ele>388.161041</ele>
        <time>2016-01-17T14:23:55.000Z</time>
      </trkpt>
      <trkpt lat="43.94211" lon="7.28283">
        <ele>388.173798</ele>
        <time>2016-01-17T14:24:00.000Z</time>
      </trkpt>
      <trkpt lat="43.94211" lon="7.28283">
        <ele>388.167786</ele>
        <time>2016-01-17T14:24:05.000Z</time>
      </trkpt>
      <trkpt lat="43.94211" lon="7.28283">
        <ele>388.156036</ele>
        <time>2016-01-17T14:24:10.000Z</time>
      </trkpt>
      <trkpt lat="43.94211" lon="7.28284">
        <ele>388.212158</ele>
        <time>2016-01-17T14:24:15.000Z</time>
      </trkpt>
      <trkpt lat="43.94209" lon="7.28286">
        <ele>388.178101</ele>
        <time>2016-01-17T14:24:20.000Z</time>
      </trkpt>
      <trkpt lat="43.9421" lon="7.28286">
        <ele>388.426971</ele>
        <time>2016-01-17T14:24:25.000Z</time>
      </trkpt>
      <trkpt lat="43.9421" lon="7.28286">
        <ele>388.094025</ele>
        <time>2016-01-17T14:24:30.000Z</time>
      </trkpt>
      <trkpt lat="43.9421" lon="7.28287">
        <ele>387.304199</ele>
        <time>2016-01-17T14:24:35.000Z</time>
      </trkpt>
      <trkpt lat="43.9421" lon="7.28287">
        <ele>386.79657</ele>
        <time>2016-01-17T14:24:40.000Z</time>
      </trkpt>
      <trkpt lat="43.94211" lon="7.28287">
        <ele>386.139618</ele>
        <time>2016-01-17T14:24:45.000Z</time>
      </trkpt>
      <trkpt lat="43.94211" lon="7.28287">
        <ele>385.921387</ele>
        <time>2016-01-17T14:24:50.000Z</time>
      </trkpt>
      <trkpt lat="43.94211" lon="7.28287">
        <ele>385.862122</ele>
        <time>2016-01-17T14:24:55.000Z</time>
      </trkpt>
    </trkseg>
  </trk>
</gpx>